<?xml version='1.0' encoding='UTF-8'?><gpx version="1.1" creator="JPX - https://github.com/jenetics/jpx" xmlns="http://www.topografix.com/GPX/1/1"><trk><trkseg><trkpt lat="44.7739870079734" lon="10.263272653044615"><ele>85.0</ele><time>2026-04-04T07:19:29Z</time></trkpt><trkpt lat="44.77392252142389" lon="10.263406926837089"><ele>85.0</ele><time>2026-04-04T07:19:31Z</time></trkpt><trkpt lat="44.77389182892544" lon="10.26350080166114"><ele>85.0</ele><time>2026-04-04T07:19:33Z</time></trkpt><trkpt lat="44.773816396640015" lon="10.26354361572141"><ele>85.0</ele><time>2026-04-04T07:19:35Z</time></trkpt><trkpt lat="44.77374601866034" lon="10.26342167743104"><ele>85.0</ele><time>2026-04-04T07:19:37Z</time></trkpt><trkpt lat="44.773703792477455" lon="10.263272909824032"><ele>85.0</ele><time>2026-04-04T07:19:38Z</time></trkpt><trkpt lat="44.773630132172" lon="10.263119905699153"><ele>85.0</ele><time>2026-04-04T07:19:40Z</time></trkpt><trkpt lat="44.77358082998202" lon="10.26301687544459"><ele>85.0</ele><time>2026-04-04T07:19:41Z</time></trkpt><trkpt lat="44.77353006506075" lon="10.262909865066474"><ele>85.0</ele><time>2026-04-04T07:19:42Z</time></trkpt><trkpt lat="44.77347587902464" lon="10.262797362593487"><ele>85.0</ele><time>2026-04-04T07:19:43Z</time></trkpt><trkpt lat="44.77342277854283" lon="10.26268260409202"><ele>85.6</ele><time>2026-04-04T07:19:44Z</time></trkpt><trkpt lat="44.77336993884485" lon="10.262565283859358"><ele>86.2</ele><time>2026-04-04T07:19:45Z</time></trkpt><trkpt lat="44.77331926077683" lon="10.262454991012106"><ele>86.80000000000001</ele><time>2026-04-04T07:19:46Z</time></trkpt><trkpt lat="44.773269064099274" lon="10.262348850192911"><ele>87.4</ele><time>2026-04-04T07:19:47Z</time></trkpt><trkpt lat="44.773216146501106" lon="10.262247635329583"><ele>88.0</ele><time>2026-04-04T07:19:48Z</time></trkpt><trkpt lat="44.773166822898254" lon="10.262151061459129"><ele>88.0</ele><time>2026-04-04T07:19:49Z</time></trkpt><trkpt lat="44.77313309006795" lon="10.262058431999211"><ele>88.0</ele><time>2026-04-04T07:19:50Z</time></trkpt><trkpt lat="44.77308921019715" lon="10.261968494176728"><ele>88.0</ele><time>2026-04-04T07:19:51Z</time></trkpt><trkpt lat="44.773034164310815" lon="10.261864221092848"><ele>88.0</ele><time>2026-04-04T07:19:52Z</time></trkpt><trkpt lat="44.77298389208649" lon="10.261766563005118"><ele>88.0</ele><time>2026-04-04T07:19:53Z</time></trkpt><trkpt lat="44.772923693088714" lon="10.261688529998994"><ele>88.0</ele><time>2026-04-04T07:19:54Z</time></trkpt><trkpt lat="44.77275722487889" lon="10.261708172457709"><ele>88.4</ele><time>2026-04-04T07:19:56Z</time></trkpt><trkpt lat="44.77267249882372" lon="10.261773982811516"><ele>88.80000000000001</ele><time>2026-04-04T07:19:57Z</time></trkpt><trkpt lat="44.77258772279936" lon="10.26185109761145"><ele>89.2</ele><time>2026-04-04T07:19:58Z</time></trkpt><trkpt lat="44.77249366705621" lon="10.261942149011865"><ele>89.6</ele><time>2026-04-04T07:19:59Z</time></trkpt><trkpt lat="44.772395029716726" lon="10.262033793444"><ele>90.0</ele><time>2026-04-04T07:20:00Z</time></trkpt><trkpt lat="44.77228795998635" lon="10.26213806684534"><ele>90.0</ele><time>2026-04-04T07:20:01Z</time></trkpt><trkpt lat="44.772183705043744" lon="10.262237162057591"><ele>90.0</ele><time>2026-04-04T07:20:02Z</time></trkpt><trkpt lat="44.77207517977719" lon="10.262338737951225"><ele>90.0</ele><time>2026-04-04T07:20:03Z</time></trkpt><trkpt lat="44.7719644725967" lon="10.262440333628684"><ele>90.0</ele><time>2026-04-04T07:20:04Z</time></trkpt><trkpt lat="44.77185041520259" lon="10.26254963264657"><ele>90.0</ele><time>2026-04-04T07:20:05Z</time></trkpt><trkpt lat="44.77173635889436" lon="10.262660976466883"><ele>90.0</ele><time>2026-04-04T07:20:06Z</time></trkpt><trkpt lat="44.771622931647464" lon="10.26276883729591"><ele>90.0</ele><time>2026-04-04T07:20:07Z</time></trkpt><trkpt lat="44.77150943928033" lon="10.262873615509234"><ele>90.0</ele><time>2026-04-04T07:20:08Z</time></trkpt><trkpt lat="44.77140350298012" lon="10.262971905289728"><ele>90.0</ele><time>2026-04-04T07:20:09Z</time></trkpt><trkpt lat="44.77129885219845" lon="10.263069642231153"><ele>90.0</ele><time>2026-04-04T07:20:10Z</time></trkpt><trkpt lat="44.771193759858996" lon="10.26315898501681"><ele>90.0</ele><time>2026-04-04T07:20:11Z</time></trkpt><trkpt lat="44.77107579788044" lon="10.263212082172485"><ele>90.0</ele><time>2026-04-04T07:20:12Z</time></trkpt><trkpt lat="44.770978156188605" lon="10.263297307595503"><ele>90.0</ele><time>2026-04-04T07:20:13Z</time></trkpt><trkpt lat="44.77080910780618" lon="10.263145851036992"><ele>90.0</ele><time>2026-04-04T07:20:14Z</time></trkpt><trkpt lat="44.77068480002486" lon="10.263043247793888"><ele>90.0</ele><time>2026-04-04T07:20:15Z</time></trkpt><trkpt lat="44.77056939604527" lon="10.262946145220178"><ele>90.0</ele><time>2026-04-04T07:20:16Z</time></trkpt><trkpt lat="44.77046659490536" lon="10.2628796973201"><ele>90.0</ele><time>2026-04-04T07:20:17Z</time></trkpt><trkpt lat="44.77037779103706" lon="10.262832259317754"><ele>90.0</ele><time>2026-04-04T07:20:18Z</time></trkpt><trkpt lat="44.770306162956956" lon="10.262639887874533"><ele>90.0</ele><time>2026-04-04T07:20:19Z</time></trkpt><trkpt lat="44.77023647676314" lon="10.262457365037152"><ele>90.33333333333333</ele><time>2026-04-04T07:20:20Z</time></trkpt><trkpt lat="44.77015123760523" lon="10.262267873687266"><ele>90.66666666666666</ele><time>2026-04-04T07:20:21Z</time></trkpt><trkpt lat="44.770059692357506" lon="10.26208236798974"><ele>91.0</ele><time>2026-04-04T07:20:22Z</time></trkpt><trkpt lat="44.769979106218514" lon="10.261911940685362"><ele>91.0</ele><time>2026-04-04T07:20:23Z</time></trkpt><trkpt lat="44.769934564418705" lon="10.261793321095933"><ele>91.0</ele><time>2026-04-04T07:20:24Z</time></trkpt><trkpt lat="44.76985727983767" lon="10.26163531188268"><ele>91.0</ele><time>2026-04-04T07:20:25Z</time></trkpt><trkpt lat="44.769806128876034" lon="10.261510879493981"><ele>91.0</ele><time>2026-04-04T07:20:26Z</time></trkpt><trkpt lat="44.76965708152592" lon="10.261233385653101"><ele>91.33333333333333</ele><time>2026-04-04T07:20:27Z</time></trkpt><trkpt lat="44.76956727392847" lon="10.261051882159176"><ele>91.66666666666667</ele><time>2026-04-04T07:20:28Z</time></trkpt><trkpt lat="44.76947115819674" lon="10.26086118137404"><ele>92.0</ele><time>2026-04-04T07:20:29Z</time></trkpt><trkpt lat="44.769376242240604" lon="10.260663553884823"><ele>92.33333333333334</ele><time>2026-04-04T07:20:30Z</time></trkpt><trkpt lat="44.769277636165114" lon="10.26045839458812"><ele>92.66666666666667</ele><time>2026-04-04T07:20:31Z</time></trkpt><trkpt lat="44.76917586933031" lon="10.26024667631222"><ele>93.0</ele><time>2026-04-04T07:20:32Z</time></trkpt><trkpt lat="44.769076809027524" lon="10.260029503428239"><ele>93.0</ele><time>2026-04-04T07:20:33Z</time></trkpt><trkpt lat="44.76897433315237" lon="10.259807305103624"><ele>93.0</ele><time>2026-04-04T07:20:34Z</time></trkpt><trkpt lat="44.768872080148384" lon="10.259585614306872"><ele>93.0</ele><time>2026-04-04T07:20:35Z</time></trkpt><trkpt lat="44.76876786758195" lon="10.259358955588741"><ele>93.0</ele><time>2026-04-04T07:20:36Z</time></trkpt><trkpt lat="44.76866220904361" lon="10.259138268210792"><ele>93.0</ele><time>2026-04-04T07:20:37Z</time></trkpt><trkpt lat="44.76855275461987" lon="10.258911914271199"><ele>93.0</ele><time>2026-04-04T07:20:38Z</time></trkpt><trkpt lat="44.76845105427887" lon="10.258685626905008"><ele>93.0</ele><time>2026-04-04T07:20:39Z</time></trkpt><trkpt lat="44.76834701357897" lon="10.258456030041568"><ele>93.0</ele><time>2026-04-04T07:20:40Z</time></trkpt><trkpt lat="44.768241602098996" lon="10.25822780779069"><ele>93.0</ele><time>2026-04-04T07:20:41Z</time></trkpt><trkpt lat="44.768136855167576" lon="10.258002760622626"><ele>93.0</ele><time>2026-04-04T07:20:42Z</time></trkpt><trkpt lat="44.76803140883919" lon="10.25777680308966"><ele>93.0</ele><time>2026-04-04T07:20:43Z</time></trkpt><trkpt lat="44.76793021446409" lon="10.25755272645522"><ele>93.0</ele><time>2026-04-04T07:20:44Z</time></trkpt><trkpt lat="44.76783176584661" lon="10.257339650941523"><ele>93.0</ele><time>2026-04-04T07:20:45Z</time></trkpt><trkpt lat="44.767733721374995" lon="10.257128941903385"><ele>93.0</ele><time>2026-04-04T07:20:46Z</time></trkpt><trkpt lat="44.76763935113003" lon="10.256920305009395"><ele>93.0</ele><time>2026-04-04T07:20:47Z</time></trkpt><trkpt lat="44.76754273589372" lon="10.25671309098858"><ele>93.66666666666667</ele><time>2026-04-04T07:20:48Z</time></trkpt><trkpt lat="44.76745284076747" lon="10.256504912007614"><ele>94.33333333333334</ele><time>2026-04-04T07:20:49Z</time></trkpt><trkpt lat="44.76735673480739" lon="10.256292986383569"><ele>95.0</ele><time>2026-04-04T07:20:50Z</time></trkpt><trkpt lat="44.76726171149632" lon="10.25608890765079"><ele>95.0</ele><time>2026-04-04T07:20:51Z</time></trkpt><trkpt lat="44.76716590909749" lon="10.255888013756076"><ele>95.0</ele><time>2026-04-04T07:20:52Z</time></trkpt><trkpt lat="44.767068897320286" lon="10.255682391390561"><ele>95.0</ele><time>2026-04-04T07:20:53Z</time></trkpt><trkpt lat="44.76697626445734" lon="10.255476514989471"><ele>95.0</ele><time>2026-04-04T07:20:54Z</time></trkpt><trkpt lat="44.76688484181562" lon="10.255268296568584"><ele>95.0</ele><time>2026-04-04T07:20:55Z</time></trkpt><trkpt lat="44.766789063813185" lon="10.255067720519326"><ele>95.0</ele><time>2026-04-04T07:20:56Z</time></trkpt><trkpt lat="44.76668987735574" lon="10.254863495483098"><ele>95.33333333333334</ele><time>2026-04-04T07:20:57Z</time></trkpt><trkpt lat="44.76659483584786" lon="10.254665957962706"><ele>95.66666666666667</ele><time>2026-04-04T07:20:58Z</time></trkpt><trkpt lat="44.7665008882489" lon="10.254459263953914"><ele>96.0</ele><time>2026-04-04T07:20:59Z</time></trkpt><trkpt lat="44.7664119234436" lon="10.254251666501606"><ele>96.0</ele><time>2026-04-04T07:21:00Z</time></trkpt><trkpt lat="44.76632241327897" lon="10.254041407834574"><ele>96.0</ele><time>2026-04-04T07:21:01Z</time></trkpt><trkpt lat="44.76622592813552" lon="10.253839576751057"><ele>96.0</ele><time>2026-04-04T07:21:02Z</time></trkpt><trkpt lat="44.76614055361921" lon="10.253667379828055"><ele>96.5</ele><time>2026-04-04T07:21:03Z</time></trkpt><trkpt lat="44.76606463317865" lon="10.253511070663262"><ele>97.0</ele><time>2026-04-04T07:21:04Z</time></trkpt><trkpt lat="44.76599285170685" lon="10.253362590424654"><ele>97.5</ele><time>2026-04-04T07:21:05Z</time></trkpt><trkpt lat="44.76592056112421" lon="10.253221306462425"><ele>98.0</ele><time>2026-04-04T07:21:06Z</time></trkpt><trkpt lat="44.76584036073635" lon="10.25306258510985"><ele>98.0</ele><time>2026-04-04T07:21:07Z</time></trkpt><trkpt lat="44.76575168996993" lon="10.252885955270704"><ele>98.0</ele><time>2026-04-04T07:21:08Z</time></trkpt><trkpt lat="44.76567575948264" lon="10.252677900803409"><ele>98.0</ele><time>2026-04-04T07:21:09Z</time></trkpt><trkpt lat="44.765576240653424" lon="10.252487316742876"><ele>97.66666666666666</ele><time>2026-04-04T07:21:10Z</time></trkpt><trkpt lat="44.765492824511455" lon="10.252276240774195"><ele>97.33333333333334</ele><time>2026-04-04T07:21:11Z</time></trkpt><trkpt lat="44.76540531540557" lon="10.252068115902002"><ele>97.0</ele><time>2026-04-04T07:21:12Z</time></trkpt><trkpt lat="44.76531372158651" lon="10.251861552583865"><ele>97.0</ele><time>2026-04-04T07:21:13Z</time></trkpt><trkpt lat="44.76522346950225" lon="10.251657714539139"><ele>97.0</ele><time>2026-04-04T07:21:14Z</time></trkpt><trkpt lat="44.765132634014265" lon="10.251453807506588"><ele>97.0</ele><time>2026-04-04T07:21:15Z</time></trkpt><trkpt lat="44.76504261571699" lon="10.251255550843863"><ele>97.25</ele><time>2026-04-04T07:21:16Z</time></trkpt><trkpt lat="44.76495803118284" lon="10.25106692307041"><ele>97.5</ele><time>2026-04-04T07:21:17Z</time></trkpt><trkpt lat="44.76487993980546" lon="10.250891482995678"><ele>97.75</ele><time>2026-04-04T07:21:18.001Z</time></trkpt><trkpt lat="44.764808508420835" lon="10.250731450855698"><ele>98.0</ele><time>2026-04-04T07:21:19.001Z</time></trkpt><trkpt lat="44.76474278274444" lon="10.250585384124655"><ele>98.0</ele><time>2026-04-04T07:21:20.001Z</time></trkpt><trkpt lat="44.76467767129387" lon="10.250445563872146"><ele>98.0</ele><time>2026-04-04T07:21:21.001Z</time></trkpt><trkpt lat="44.764609464463106" lon="10.250289297557932"><ele>98.0</ele><time>2026-04-04T07:21:22.001Z</time></trkpt><trkpt lat="44.76453399979024" lon="10.250124206264646"><ele>98.0</ele><time>2026-04-04T07:21:23.001Z</time></trkpt><trkpt lat="44.76445486119923" lon="10.249955023555803"><ele>98.33333333333333</ele><time>2026-04-04T07:21:24.001Z</time></trkpt><trkpt lat="44.76436631186835" lon="10.249765956951503"><ele>98.66666666666666</ele><time>2026-04-04T07:21:25.001Z</time></trkpt><trkpt lat="44.76427801754923" lon="10.249580923454817"><ele>99.0</ele><time>2026-04-04T07:21:26.001Z</time></trkpt><trkpt lat="44.76420406565168" lon="10.24942081486503"><ele>99.5</ele><time>2026-04-04T07:21:27.001Z</time></trkpt><trkpt lat="44.76413544338141" lon="10.24927427186121"><ele>100.0</ele><time>2026-04-04T07:21:28.001Z</time></trkpt><trkpt lat="44.764073388802835" lon="10.249140547680451"><ele>100.5</ele><time>2026-04-04T07:21:29.001Z</time></trkpt><trkpt lat="44.76401264570531" lon="10.249013465988154"><ele>101.0</ele><time>2026-04-04T07:21:30.001Z</time></trkpt><trkpt lat="44.76394640666059" lon="10.248864462442892"><ele>101.0</ele><time>2026-04-04T07:21:31Z</time></trkpt><trkpt lat="44.76386254894836" lon="10.248699647272899"><ele>101.0</ele><time>2026-04-04T07:21:32Z</time></trkpt><trkpt lat="44.76377522365875" lon="10.248519030270108"><ele>101.0</ele><time>2026-04-04T07:21:33Z</time></trkpt><trkpt lat="44.76367902042921" lon="10.248317032232702"><ele>101.33333333333333</ele><time>2026-04-04T07:21:34Z</time></trkpt><trkpt lat="44.76358330373177" lon="10.248109411750217"><ele>101.66666666666666</ele><time>2026-04-04T07:21:35Z</time></trkpt><trkpt lat="44.76348680693873" lon="10.247904747085752"><ele>102.0</ele><time>2026-04-04T07:21:36Z</time></trkpt><trkpt lat="44.76338547319385" lon="10.247690546915587"><ele>102.33333333333334</ele><time>2026-04-04T07:21:37Z</time></trkpt><trkpt lat="44.763285148044275" lon="10.247481109404738"><ele>102.66666666666667</ele><time>2026-04-04T07:21:38Z</time></trkpt><trkpt lat="44.76318657383102" lon="10.24727363978238"><ele>103.0</ele><time>2026-04-04T07:21:39Z</time></trkpt><trkpt lat="44.76308071534742" lon="10.247058666241776"><ele>103.0</ele><time>2026-04-04T07:21:40Z</time></trkpt><trkpt lat="44.76298011057399" lon="10.246842172668009"><ele>103.0</ele><time>2026-04-04T07:21:41Z</time></trkpt><trkpt lat="44.76287774659295" lon="10.246624461943856"><ele>103.0</ele><time>2026-04-04T07:21:42Z</time></trkpt><trkpt lat="44.76277726666313" lon="10.246407538884592"><ele>103.33333333333334</ele><time>2026-04-04T07:21:43Z</time></trkpt><trkpt lat="44.76267995649244" lon="10.246193341499017"><ele>103.66666666666666</ele><time>2026-04-04T07:21:44Z</time></trkpt><trkpt lat="44.76256504055418" lon="10.245965373710828"><ele>104.0</ele><time>2026-04-04T07:21:45Z</time></trkpt><trkpt lat="44.762459253749775" lon="10.245733124460125"><ele>103.33333333333333</ele><time>2026-04-04T07:21:46Z</time></trkpt><trkpt lat="44.76235756325091" lon="10.245511432816096"><ele>102.66666666666666</ele><time>2026-04-04T07:21:47Z</time></trkpt><trkpt lat="44.7622521924059" lon="10.245281813664649"><ele>102.0</ele><time>2026-04-04T07:21:48Z</time></trkpt><trkpt lat="44.762151886197614" lon="10.245059736441178"><ele>102.0</ele><time>2026-04-04T07:21:49Z</time></trkpt><trkpt lat="44.76205190637592" lon="10.24482965037676"><ele>102.0</ele><time>2026-04-04T07:21:50Z</time></trkpt><trkpt lat="44.76195233089153" lon="10.244605487266197"><ele>102.0</ele><time>2026-04-04T07:21:51Z</time></trkpt><trkpt lat="44.76185196193152" lon="10.244388957702515"><ele>102.0</ele><time>2026-04-04T07:21:52Z</time></trkpt><trkpt lat="44.761755754711984" lon="10.244183357671787"><ele>102.0</ele><time>2026-04-04T07:21:53Z</time></trkpt><trkpt lat="44.76165621293233" lon="10.243969653470337"><ele>102.0</ele><time>2026-04-04T07:21:54Z</time></trkpt><trkpt lat="44.76155727164708" lon="10.243759442320727"><ele>102.33333333333334</ele><time>2026-04-04T07:21:55Z</time></trkpt><trkpt lat="44.761458803039126" lon="10.243554284929111"><ele>102.66666666666667</ele><time>2026-04-04T07:21:56Z</time></trkpt><trkpt lat="44.76135730201139" lon="10.243349154516455"><ele>103.0</ele><time>2026-04-04T07:21:57Z</time></trkpt><trkpt lat="44.761254074531024" lon="10.243145208322039"><ele>104.0</ele><time>2026-04-04T07:21:58Z</time></trkpt><trkpt lat="44.76115039583226" lon="10.242934560410628"><ele>105.0</ele><time>2026-04-04T07:21:59Z</time></trkpt><trkpt lat="44.76105237861525" lon="10.242727562432737"><ele>106.0</ele><time>2026-04-04T07:22:00Z</time></trkpt><trkpt lat="44.760955941379706" lon="10.24251529429141"><ele>107.0</ele><time>2026-04-04T07:22:01Z</time></trkpt><trkpt lat="44.76085890147053" lon="10.2423058777501"><ele>108.0</ele><time>2026-04-04T07:22:02Z</time></trkpt><trkpt lat="44.76075742317131" lon="10.24209637208126"><ele>109.0</ele><time>2026-04-04T07:22:03Z</time></trkpt><trkpt lat="44.76065907293276" lon="10.241884526827912"><ele>109.0</ele><time>2026-04-04T07:22:04Z</time></trkpt><trkpt lat="44.760560231246046" lon="10.241681708047679"><ele>109.0</ele><time>2026-04-04T07:22:05Z</time></trkpt><trkpt lat="44.760461347145174" lon="10.241468894424743"><ele>109.0</ele><time>2026-04-04T07:22:06Z</time></trkpt><trkpt lat="44.76036179289062" lon="10.24126516281984"><ele>109.33333333333334</ele><time>2026-04-04T07:22:07Z</time></trkpt><trkpt lat="44.76026396506051" lon="10.241062330739918"><ele>109.66666666666666</ele><time>2026-04-04T07:22:08Z</time></trkpt><trkpt lat="44.76018218190283" lon="10.240860493867816"><ele>110.0</ele><time>2026-04-04T07:22:09Z</time></trkpt><trkpt lat="44.76010120456818" lon="10.240674927652663"><ele>110.66666666666666</ele><time>2026-04-04T07:22:10Z</time></trkpt><trkpt lat="44.76001144384429" lon="10.240489577423986"><ele>111.33333333333334</ele><time>2026-04-04T07:22:11Z</time></trkpt><trkpt lat="44.759923559535814" lon="10.240304107680087"><ele>112.0</ele><time>2026-04-04T07:22:12Z</time></trkpt><trkpt lat="44.759829082057514" lon="10.240104878835956"><ele>112.0</ele><time>2026-04-04T07:22:13Z</time></trkpt><trkpt lat="44.759737107089904" lon="10.239905049452823"><ele>112.0</ele><time>2026-04-04T07:22:14Z</time></trkpt><trkpt lat="44.75964434211871" lon="10.239713736399034"><ele>112.0</ele><time>2026-04-04T07:22:15Z</time></trkpt><trkpt lat="44.75955584140913" lon="10.239513984185923"><ele>110.66666666666667</ele><time>2026-04-04T07:22:16Z</time></trkpt><trkpt lat="44.759468774780245" lon="10.239320289421014"><ele>109.33333333333334</ele><time>2026-04-04T07:22:17Z</time></trkpt><trkpt lat="44.75937541347737" lon="10.23911950237685"><ele>108.0</ele><time>2026-04-04T07:22:18Z</time></trkpt><trkpt lat="44.759281732726485" lon="10.238919123492437"><ele>108.0</ele><time>2026-04-04T07:22:19Z</time></trkpt><trkpt lat="44.75918779196816" lon="10.238714672259569"><ele>108.0</ele><time>2026-04-04T07:22:20Z</time></trkpt><trkpt lat="44.75909417614016" lon="10.23850578882894"><ele>108.0</ele><time>2026-04-04T07:22:21Z</time></trkpt><trkpt lat="44.75900408839824" lon="10.238300118866151"><ele>108.0</ele><time>2026-04-04T07:22:22Z</time></trkpt><trkpt lat="44.75891150750341" lon="10.238098546619954"><ele>108.0</ele><time>2026-04-04T07:22:23Z</time></trkpt><trkpt lat="44.75881252190768" lon="10.237898977988172"><ele>108.0</ele><time>2026-04-04T07:22:24Z</time></trkpt><trkpt lat="44.75871792547347" lon="10.237686680247295"><ele>108.0</ele><time>2026-04-04T07:22:25Z</time></trkpt><trkpt lat="44.75862370461854" lon="10.237479565521998"><ele>108.0</ele><time>2026-04-04T07:22:26Z</time></trkpt><trkpt lat="44.758527624921854" lon="10.237269522927996"><ele>108.0</ele><time>2026-04-04T07:22:27Z</time></trkpt><trkpt lat="44.75843039675084" lon="10.237057286892185"><ele>108.0</ele><time>2026-04-04T07:22:28Z</time></trkpt><trkpt lat="44.758337219410514" lon="10.236846198460382"><ele>108.0</ele><time>2026-04-04T07:22:29Z</time></trkpt><trkpt lat="44.75824398576674" lon="10.236640986195818"><ele>108.0</ele><time>2026-04-04T07:22:30Z</time></trkpt><trkpt lat="44.75814623619072" lon="10.236426699092016"><ele>108.0</ele><time>2026-04-04T07:22:31Z</time></trkpt><trkpt lat="44.758044083451686" lon="10.236209433481541"><ele>108.0</ele><time>2026-04-04T07:22:32Z</time></trkpt><trkpt lat="44.75794169262206" lon="10.235991109431469"><ele>108.0</ele><time>2026-04-04T07:22:33Z</time></trkpt><trkpt lat="44.75784092277088" lon="10.235771549608236"><ele>108.33333333333334</ele><time>2026-04-04T07:22:34Z</time></trkpt><trkpt lat="44.757737452766875" lon="10.235539856691183"><ele>108.66666666666667</ele><time>2026-04-04T07:22:35Z</time></trkpt><trkpt lat="44.75763312498393" lon="10.235308640235651"><ele>109.0</ele><time>2026-04-04T07:22:36Z</time></trkpt><trkpt lat="44.75752727770575" lon="10.235075892529062"><ele>109.66666666666667</ele><time>2026-04-04T07:22:37Z</time></trkpt><trkpt lat="44.75742223667862" lon="10.234846879777363"><ele>110.33333333333334</ele><time>2026-04-04T07:22:38Z</time></trkpt><trkpt lat="44.757319334625805" lon="10.234627699206403"><ele>111.0</ele><time>2026-04-04T07:22:39Z</time></trkpt><trkpt lat="44.757208647242486" lon="10.234404348740625"><ele>111.0</ele><time>2026-04-04T07:22:40Z</time></trkpt><trkpt lat="44.7571013540877" lon="10.234183423948695"><ele>111.0</ele><time>2026-04-04T07:22:41Z</time></trkpt><trkpt lat="44.75698797029251" lon="10.233943371963607"><ele>111.0</ele><time>2026-04-04T07:22:42Z</time></trkpt><trkpt lat="44.75687872210628" lon="10.233708194287622"><ele>111.0</ele><time>2026-04-04T07:22:43Z</time></trkpt><trkpt lat="44.756772434153" lon="10.233473373562072"><ele>111.0</ele><time>2026-04-04T07:22:44Z</time></trkpt><trkpt lat="44.75666925046847" lon="10.233244430598496"><ele>111.0</ele><time>2026-04-04T07:22:45Z</time></trkpt><trkpt lat="44.75656357847267" lon="10.233022570604106"><ele>110.0</ele><time>2026-04-04T07:22:46Z</time></trkpt><trkpt lat="44.756463673919185" lon="10.232801184877228"><ele>109.0</ele><time>2026-04-04T07:22:47Z</time></trkpt><trkpt lat="44.75637576764769" lon="10.232581827645134"><ele>108.0</ele><time>2026-04-04T07:22:47.999Z</time></trkpt><trkpt lat="44.75630196067722" lon="10.232375599543504"><ele>107.75</ele><time>2026-04-04T07:22:48.999Z</time></trkpt><trkpt lat="44.756244304375585" lon="10.232178993521917"><ele>107.5</ele><time>2026-04-04T07:22:49.999Z</time></trkpt><trkpt lat="44.756200929992005" lon="10.231989670987003"><ele>107.25</ele><time>2026-04-04T07:22:50.999Z</time></trkpt><trkpt lat="44.7561727378374" lon="10.231808816379456"><ele>107.0</ele><time>2026-04-04T07:22:51.999Z</time></trkpt><trkpt lat="44.75615288043893" lon="10.231646306171882"><ele>107.0</ele><time>2026-04-04T07:22:52.999Z</time></trkpt><trkpt lat="44.75614391954412" lon="10.231516540404035"><ele>106.99999999999999</ele><time>2026-04-04T07:22:53.999Z</time></trkpt><trkpt lat="44.756164628922164" lon="10.231397229945408"><ele>106.99999999999999</ele><time>2026-04-04T07:22:55.999Z</time></trkpt><trkpt lat="44.75618514383786" lon="10.231263995620772"><ele>107.0</ele><time>2026-04-04T07:22:57.999Z</time></trkpt><trkpt lat="44.756181691608575" lon="10.231123711811666"><ele>107.0</ele><time>2026-04-04T07:22:58.999Z</time></trkpt><trkpt lat="44.75614772736599" lon="10.230972189777805"><ele>107.75</ele><time>2026-04-04T07:22:59.999Z</time></trkpt><trkpt lat="44.75606953769752" lon="10.230821181918829"><ele>108.5</ele><time>2026-04-04T07:23:00.999Z</time></trkpt><trkpt lat="44.75595340939206" lon="10.230710003277094"><ele>109.25</ele><time>2026-04-04T07:23:01.999Z</time></trkpt><trkpt lat="44.75580497887007" lon="10.230662188393696"><ele>110.0</ele><time>2026-04-04T07:23:02.999Z</time></trkpt><trkpt lat="44.75566139340205" lon="10.230672625521708"><ele>110.4</ele><time>2026-04-04T07:23:03.999Z</time></trkpt><trkpt lat="44.7555595966699" lon="10.230658284462299"><ele>110.8</ele><time>2026-04-04T07:23:04.999Z</time></trkpt><trkpt lat="44.755481597922504" lon="10.23062489935747"><ele>111.19999999999999</ele><time>2026-04-04T07:23:05.999Z</time></trkpt><trkpt lat="44.75542996291533" lon="10.230476414035785"><ele>111.6</ele><time>2026-04-04T07:23:06.999Z</time></trkpt><trkpt lat="44.75536155153415" lon="10.230385096911528"><ele>112.0</ele><time>2026-04-04T07:23:07.999Z</time></trkpt><trkpt lat="44.75528896616025" lon="10.230266172694703"><ele>112.0</ele><time>2026-04-04T07:23:08.999Z</time></trkpt><trkpt lat="44.75522817476063" lon="10.230128515849739"><ele>112.0</ele><time>2026-04-04T07:23:09.999Z</time></trkpt><trkpt lat="44.75515848321747" lon="10.22999191195783"><ele>112.0</ele><time>2026-04-04T07:23:10.999Z</time></trkpt><trkpt lat="44.755099847653156" lon="10.22985029335398"><ele>112.0</ele><time>2026-04-04T07:23:11.999Z</time></trkpt><trkpt lat="44.755042267674206" lon="10.229710957661846"><ele>112.0</ele><time>2026-04-04T07:23:12.999Z</time></trkpt><trkpt lat="44.7549763149678" lon="10.229577364463387"><ele>112.0</ele><time>2026-04-04T07:23:13.999Z</time></trkpt><trkpt lat="44.75491436771725" lon="10.229448919799829"><ele>112.0</ele><time>2026-04-04T07:23:14.999Z</time></trkpt><trkpt lat="44.75485394369917" lon="10.229317511943405"><ele>112.0</ele><time>2026-04-04T07:23:15.999Z</time></trkpt><trkpt lat="44.75479133212915" lon="10.229179110439295"><ele>112.0</ele><time>2026-04-04T07:23:16.999Z</time></trkpt><trkpt lat="44.75472255978437" lon="10.229029558875455"><ele>112.0</ele><time>2026-04-04T07:23:17.999Z</time></trkpt><trkpt lat="44.7546564331482" lon="10.228881987033606"><ele>112.0</ele><time>2026-04-04T07:23:18.999Z</time></trkpt><trkpt lat="44.75457833075656" lon="10.228711288902787"><ele>112.0</ele><time>2026-04-04T07:23:19.999Z</time></trkpt><trkpt lat="44.75449615834765" lon="10.228542788837062"><ele>112.0</ele><time>2026-04-04T07:23:20.999Z</time></trkpt><trkpt lat="44.75441841830967" lon="10.228376708399379"><ele>112.0</ele><time>2026-04-04T07:23:21.999Z</time></trkpt><trkpt lat="44.754350058566466" lon="10.228227766184403"><ele>112.0</ele><time>2026-04-04T07:23:22.999Z</time></trkpt><trkpt lat="44.754285425093556" lon="10.228087481321895"><ele>112.0</ele><time>2026-04-04T07:23:24Z</time></trkpt><trkpt lat="44.75422471971089" lon="10.227951887813392"><ele>112.39999999999999</ele><time>2026-04-04T07:23:25Z</time></trkpt><trkpt lat="44.75415988626546" lon="10.227815132287573"><ele>112.79999999999998</ele><time>2026-04-04T07:23:26Z</time></trkpt><trkpt lat="44.75410462828708" lon="10.227673013557206"><ele>113.2</ele><time>2026-04-04T07:23:27Z</time></trkpt><trkpt lat="44.754086727651824" lon="10.227548070606192"><ele>113.6</ele><time>2026-04-04T07:23:28Z</time></trkpt><trkpt lat="44.754083625385164" lon="10.227428379516812"><ele>114.0</ele><time>2026-04-04T07:23:30Z</time></trkpt><trkpt lat="44.754112497472576" lon="10.227236636097002"><ele>114.16666666666667</ele><time>2026-04-04T07:23:32Z</time></trkpt><trkpt lat="44.75413208450477" lon="10.227127842816856"><ele>114.33333333333334</ele><time>2026-04-04T07:23:33Z</time></trkpt><trkpt lat="44.754111911432986" lon="10.227023338880477"><ele>114.5</ele><time>2026-04-04T07:23:34Z</time></trkpt><trkpt lat="44.75405131346061" lon="10.226952419402716"><ele>114.66666666666667</ele><time>2026-04-04T07:23:35Z</time></trkpt><trkpt lat="44.75397203527141" lon="10.226964019234707"><ele>114.83333333333334</ele><time>2026-04-04T07:23:36Z</time></trkpt><trkpt lat="44.75390938263286" lon="10.226973695422803"><ele>115.0</ele><time>2026-04-04T07:23:37Z</time></trkpt><trkpt lat="44.75383139553561" lon="10.227003957225877"><ele>115.0</ele><time>2026-04-04T07:23:38Z</time></trkpt><trkpt lat="44.753738684287974" lon="10.226871457637593"><ele>115.0</ele><time>2026-04-04T07:23:39Z</time></trkpt><trkpt lat="44.75365578216728" lon="10.226762861203678"><ele>115.0</ele><time>2026-04-04T07:23:40Z</time></trkpt><trkpt lat="44.753571808827104" lon="10.226607012186767"><ele>115.0</ele><time>2026-04-04T07:23:41Z</time></trkpt><trkpt lat="44.75349886450555" lon="10.226416173143287"><ele>115.66666666666667</ele><time>2026-04-04T07:23:42Z</time></trkpt><trkpt lat="44.753406663240504" lon="10.22619743997448"><ele>116.33333333333334</ele><time>2026-04-04T07:23:43Z</time></trkpt><trkpt lat="44.75330684760715" lon="10.225983638900347"><ele>117.0</ele><time>2026-04-04T07:23:44Z</time></trkpt><trkpt lat="44.75321181677594" lon="10.22579009826848"><ele>116.75</ele><time>2026-04-04T07:23:45Z</time></trkpt><trkpt lat="44.75313251247363" lon="10.225604442589388"><ele>116.5</ele><time>2026-04-04T07:23:46Z</time></trkpt><trkpt lat="44.753056615733904" lon="10.225434869671101"><ele>116.25</ele><time>2026-04-04T07:23:47Z</time></trkpt><trkpt lat="44.75298029824305" lon="10.225268631616936"><ele>116.0</ele><time>2026-04-04T07:23:48Z</time></trkpt><trkpt lat="44.752905615347174" lon="10.225108354300614"><ele>116.0</ele><time>2026-04-04T07:23:49Z</time></trkpt><trkpt lat="44.75282790761299" lon="10.224956519844415"><ele>116.0</ele><time>2026-04-04T07:23:50Z</time></trkpt><trkpt lat="44.752748371812196" lon="10.224823612462714"><ele>116.0</ele><time>2026-04-04T07:23:51Z</time></trkpt><trkpt lat="44.7526769796902" lon="10.224708554028874"><ele>116.0</ele><time>2026-04-04T07:23:52Z</time></trkpt><trkpt lat="44.75262482112698" lon="10.224614760258277"><ele>116.0</ele><time>2026-04-04T07:23:53Z</time></trkpt><trkpt lat="44.75259822943746" lon="10.224515518256354"><ele>116.0</ele><time>2026-04-04T07:23:54Z</time></trkpt><trkpt lat="44.752584432705895" lon="10.224415865178587"><ele>116.0</ele><time>2026-04-04T07:23:55Z</time></trkpt><trkpt lat="44.75247725783399" lon="10.224284688908524"><ele>116.0</ele><time>2026-04-04T07:23:57Z</time></trkpt><trkpt lat="44.75234858996673" lon="10.224294593577637"><ele>116.0</ele><time>2026-04-04T07:23:58Z</time></trkpt><trkpt lat="44.75220916157946" lon="10.224367350744531"><ele>116.0</ele><time>2026-04-04T07:23:59Z</time></trkpt><trkpt lat="44.752060630420424" lon="10.224333788468154"><ele>116.0</ele><time>2026-04-04T07:24:00Z</time></trkpt><trkpt lat="44.751897290301486" lon="10.224300113820767"><ele>116.0</ele><time>2026-04-04T07:24:01Z</time></trkpt><trkpt lat="44.75173425699307" lon="10.224277432955134"><ele>116.33333333333333</ele><time>2026-04-04T07:24:02Z</time></trkpt><trkpt lat="44.75157143716738" lon="10.224255806457247"><ele>116.66666666666666</ele><time>2026-04-04T07:24:03Z</time></trkpt><trkpt lat="44.751412150883354" lon="10.224236818514775"><ele>117.0</ele><time>2026-04-04T07:24:04Z</time></trkpt><trkpt lat="44.7512460525435" lon="10.224218090527524"><ele>117.0</ele><time>2026-04-04T07:24:05Z</time></trkpt><trkpt lat="44.75107827502079" lon="10.224198341225177"><ele>117.0</ele><time>2026-04-04T07:24:06Z</time></trkpt><trkpt lat="44.750910732756886" lon="10.224180430711288"><ele>117.0</ele><time>2026-04-04T07:24:07Z</time></trkpt><trkpt lat="44.75073095363551" lon="10.224151499874425"><ele>117.0</ele><time>2026-04-04T07:24:08Z</time></trkpt><trkpt lat="44.75055028515253" lon="10.224128886779148"><ele>117.0</ele><time>2026-04-04T07:24:09Z</time></trkpt><trkpt lat="44.750366663336" lon="10.224104243230967"><ele>117.0</ele><time>2026-04-04T07:24:10Z</time></trkpt><trkpt lat="44.75018130144196" lon="10.2240805241864"><ele>117.0</ele><time>2026-04-04T07:24:11Z</time></trkpt><trkpt lat="44.749985504200914" lon="10.224058951317545"><ele>117.0</ele><time>2026-04-04T07:24:12Z</time></trkpt><trkpt lat="44.74977902574487" lon="10.22403229128362"><ele>117.0</ele><time>2026-04-04T07:24:13Z</time></trkpt><trkpt lat="44.74957361969817" lon="10.224003303770626"><ele>117.33333333333334</ele><time>2026-04-04T07:24:14Z</time></trkpt><trkpt lat="44.74936040367265" lon="10.223976509800357"><ele>117.66666666666667</ele><time>2026-04-04T07:24:15Z</time></trkpt><trkpt lat="44.74914250937392" lon="10.2239504013651"><ele>118.0</ele><time>2026-04-04T07:24:16Z</time></trkpt><trkpt lat="44.74892489689853" lon="10.223914340268472"><ele>118.0</ele><time>2026-04-04T07:24:17Z</time></trkpt><trkpt lat="44.74869618690511" lon="10.223887510515715"><ele>118.0</ele><time>2026-04-04T07:24:18Z</time></trkpt><trkpt lat="44.748469840956396" lon="10.223863191336928"><ele>118.5</ele><time>2026-04-04T07:24:19Z</time></trkpt><trkpt lat="44.74824295720797" lon="10.22383889039513"><ele>119.0</ele><time>2026-04-04T07:24:20Z</time></trkpt><trkpt lat="44.748017313795735" lon="10.223808402910853"><ele>119.0</ele><time>2026-04-04T07:24:21Z</time></trkpt><trkpt lat="44.74779202553373" lon="10.223776448203713"><ele>119.0</ele><time>2026-04-04T07:24:22Z</time></trkpt><trkpt lat="44.74757010707902" lon="10.22375532964061"><ele>119.0</ele><time>2026-04-04T07:24:23Z</time></trkpt><trkpt lat="44.74736765872425" lon="10.223730411478032"><ele>119.66666666666666</ele><time>2026-04-04T07:24:24Z</time></trkpt><trkpt lat="44.74715083442204" lon="10.223702252121813"><ele>120.33333333333334</ele><time>2026-04-04T07:24:25Z</time></trkpt><trkpt lat="44.74692982378702" lon="10.223679408587897"><ele>121.0</ele><time>2026-04-04T07:24:26Z</time></trkpt><trkpt lat="44.74670827438793" lon="10.223651982457293"><ele>121.0</ele><time>2026-04-04T07:24:27Z</time></trkpt><trkpt lat="44.746488578247224" lon="10.2236340266499"><ele>121.0</ele><time>2026-04-04T07:24:28Z</time></trkpt><trkpt lat="44.74627004499643" lon="10.22362186326727"><ele>121.0</ele><time>2026-04-04T07:24:29Z</time></trkpt><trkpt lat="44.746050584997455" lon="10.223643182120146"><ele>121.5</ele><time>2026-04-04T07:24:30Z</time></trkpt><trkpt lat="44.74582350885579" lon="10.223703047754471"><ele>122.0</ele><time>2026-04-04T07:24:31Z</time></trkpt><trkpt lat="44.74560224123784" lon="10.223796875673486"><ele>122.0</ele><time>2026-04-04T07:24:32Z</time></trkpt><trkpt lat="44.74539779695539" lon="10.223926053237403"><ele>122.0</ele><time>2026-04-04T07:24:33Z</time></trkpt><trkpt lat="44.74519799640309" lon="10.224077359476922"><ele>122.33333333333333</ele><time>2026-04-04T07:24:34Z</time></trkpt><trkpt lat="44.74499930342033" lon="10.22422933344222"><ele>122.66666666666666</ele><time>2026-04-04T07:24:35Z</time></trkpt><trkpt lat="44.74481473270894" lon="10.224372238557185"><ele>123.0</ele><time>2026-04-04T07:24:36Z</time></trkpt><trkpt lat="44.74465323623864" lon="10.224497653042823"><ele>123.0</ele><time>2026-04-04T07:24:37Z</time></trkpt><trkpt lat="44.74450572159314" lon="10.224608470160454"><ele>123.0</ele><time>2026-04-04T07:24:38Z</time></trkpt><trkpt lat="44.74436209761229" lon="10.224707561473787"><ele>123.0</ele><time>2026-04-04T07:24:39Z</time></trkpt><trkpt lat="44.744203385004724" lon="10.224706394109967"><ele>123.33333333333334</ele><time>2026-04-04T07:24:40Z</time></trkpt><trkpt lat="44.744060287723116" lon="10.22480778772561"><ele>123.66666666666667</ele><time>2026-04-04T07:24:41Z</time></trkpt><trkpt lat="44.743891019962064" lon="10.224859186252877"><ele>124.0</ele><time>2026-04-04T07:24:42Z</time></trkpt><trkpt lat="44.74370181566075" lon="10.224879486959894"><ele>124.0</ele><time>2026-04-04T07:24:43Z</time></trkpt><trkpt lat="44.74347486616186" lon="10.2248711532371"><ele>124.0</ele><time>2026-04-04T07:24:44Z</time></trkpt><trkpt lat="44.74325082136015" lon="10.224880955754015"><ele>124.0</ele><time>2026-04-04T07:24:45Z</time></trkpt><trkpt lat="44.74302102549946" lon="10.224907916345343"><ele>124.0</ele><time>2026-04-04T07:24:45.999Z</time></trkpt><trkpt lat="44.742781569140064" lon="10.224913788350719"><ele>125.0</ele><time>2026-04-04T07:24:46.999Z</time></trkpt><trkpt lat="44.74253258950665" lon="10.22492813523352"><ele>126.0</ele><time>2026-04-04T07:24:47.999Z</time></trkpt><trkpt lat="44.74228175732619" lon="10.224943630139494"><ele>126.0</ele><time>2026-04-04T07:24:48.999Z</time></trkpt><trkpt lat="44.74205305503649" lon="10.224969985139623"><ele>126.0</ele><time>2026-04-04T07:24:49.999Z</time></trkpt><trkpt lat="44.7418245452939" lon="10.224971612136072"><ele>126.5</ele><time>2026-04-04T07:24:50.999Z</time></trkpt><trkpt lat="44.741596051161125" lon="10.224986919495041"><ele>127.0</ele><time>2026-04-04T07:24:51.999Z</time></trkpt><trkpt lat="44.74136556233809" lon="10.225003895549232"><ele>127.0</ele><time>2026-04-04T07:24:52.999Z</time></trkpt><trkpt lat="44.741135309346355" lon="10.225017854194956"><ele>127.0</ele><time>2026-04-04T07:24:53.999Z</time></trkpt><trkpt lat="44.74091267755007" lon="10.225031834665248"><ele>127.33333333333334</ele><time>2026-04-04T07:24:54.999Z</time></trkpt><trkpt lat="44.7406842374038" lon="10.225038108808214"><ele>127.66666666666666</ele><time>2026-04-04T07:24:55.999Z</time></trkpt><trkpt lat="44.74046540533196" lon="10.225057210754876"><ele>128.0</ele><time>2026-04-04T07:24:56.999Z</time></trkpt><trkpt lat="44.74025202735565" lon="10.22506927612878"><ele>128.0</ele><time>2026-04-04T07:24:57.999Z</time></trkpt><trkpt lat="44.74005284403011" lon="10.225082766802922"><ele>128.0</ele><time>2026-04-04T07:24:58.999Z</time></trkpt><trkpt lat="44.73985734254423" lon="10.225094496936768"><ele>128.0</ele><time>2026-04-04T07:24:59.999Z</time></trkpt><trkpt lat="44.739672076877284" lon="10.22510587030073"><ele>128.0</ele><time>2026-04-04T07:25:00.999Z</time></trkpt><trkpt lat="44.739494677807" lon="10.225116908331033"><ele>128.0</ele><time>2026-04-04T07:25:01.999Z</time></trkpt><trkpt lat="44.73932384206274" lon="10.225128413349374"><ele>128.0</ele><time>2026-04-04T07:25:02.999Z</time></trkpt><trkpt lat="44.73914842586566" lon="10.225140049627184"><ele>127.66666666666666</ele><time>2026-04-04T07:25:03.999Z</time></trkpt><trkpt lat="44.73896508046631" lon="10.225151000352964"><ele>127.33333333333334</ele><time>2026-04-04T07:25:04.999Z</time></trkpt><trkpt lat="44.73878392705667" lon="10.225159827894611"><ele>127.0</ele><time>2026-04-04T07:25:05.999Z</time></trkpt><trkpt lat="44.738603591767166" lon="10.22516696731434"><ele>127.33333333333334</ele><time>2026-04-04T07:25:06.999Z</time></trkpt><trkpt lat="44.7384259629311" lon="10.225174259653047"><ele>127.66666666666666</ele><time>2026-04-04T07:25:07.999Z</time></trkpt><trkpt lat="44.73825055639456" lon="10.225180270866883"><ele>128.0</ele><time>2026-04-04T07:25:08.999Z</time></trkpt><trkpt lat="44.738077419488576" lon="10.225189911448561"><ele>128.0</ele><time>2026-04-04T07:25:09.999Z</time></trkpt><trkpt lat="44.737894959278684" lon="10.225202621916159"><ele>128.0</ele><time>2026-04-04T07:25:10.999Z</time></trkpt><trkpt lat="44.737710688853035" lon="10.225210953057571"><ele>128.0</ele><time>2026-04-04T07:25:11.999Z</time></trkpt><trkpt lat="44.737516486324125" lon="10.225222270948898"><ele>129.0</ele><time>2026-04-04T07:25:12.999Z</time></trkpt><trkpt lat="44.73732353640225" lon="10.2252365274378"><ele>130.0</ele><time>2026-04-04T07:25:13.999Z</time></trkpt><trkpt lat="44.7371187313324" lon="10.225256160143722"><ele>131.0</ele><time>2026-04-04T07:25:14.999Z</time></trkpt><trkpt lat="44.73691371618909" lon="10.225266256622662"><ele>131.33333333333331</ele><time>2026-04-04T07:25:15.999Z</time></trkpt><trkpt lat="44.7367113150885" lon="10.225278679241253"><ele>131.66666666666666</ele><time>2026-04-04T07:25:16.999Z</time></trkpt><trkpt lat="44.73649964865478" lon="10.22529639863516"><ele>132.0</ele><time>2026-04-04T07:25:17.999Z</time></trkpt><trkpt lat="44.73628527788104" lon="10.225310062839311"><ele>132.0</ele><time>2026-04-04T07:25:18.999Z</time></trkpt><trkpt lat="44.73606726660189" lon="10.225321010310424"><ele>132.0</ele><time>2026-04-04T07:25:19.999Z</time></trkpt><trkpt lat="44.73584174212993" lon="10.225332341494555"><ele>132.0</ele><time>2026-04-04T07:25:20.999Z</time></trkpt><trkpt lat="44.735619868313506" lon="10.225343495839397"><ele>132.33333333333334</ele><time>2026-04-04T07:25:21.999Z</time></trkpt><trkpt lat="44.73539853939654" lon="10.225357464034161"><ele>132.66666666666669</ele><time>2026-04-04T07:25:22.999Z</time></trkpt><trkpt lat="44.73517574244086" lon="10.225372146990827"><ele>133.0</ele><time>2026-04-04T07:25:23.999Z</time></trkpt><trkpt lat="44.73495330696866" lon="10.225388368042442"><ele>133.33333333333334</ele><time>2026-04-04T07:25:24.999Z</time></trkpt><trkpt lat="44.734733042684354" lon="10.225399581377665"><ele>133.66666666666666</ele><time>2026-04-04T07:25:25.999Z</time></trkpt><trkpt lat="44.73451533157191" lon="10.225414730294682"><ele>134.0</ele><time>2026-04-04T07:25:26.999Z</time></trkpt><trkpt lat="44.734296071311384" lon="10.225430486497963"><ele>134.0</ele><time>2026-04-04T07:25:27.999Z</time></trkpt><trkpt lat="44.734079307987855" lon="10.22544939675489"><ele>134.0</ele><time>2026-04-04T07:25:28.999Z</time></trkpt><trkpt lat="44.73386215575344" lon="10.225468338173084"><ele>134.0</ele><time>2026-04-04T07:25:30Z</time></trkpt><trkpt lat="44.73365261684015" lon="10.225484127969077"><ele>135.0</ele><time>2026-04-04T07:25:31Z</time></trkpt><trkpt lat="44.733446015437245" lon="10.225494287144532"><ele>136.0</ele><time>2026-04-04T07:25:32Z</time></trkpt><trkpt lat="44.73324059345808" lon="10.22550761209386"><ele>137.0</ele><time>2026-04-04T07:25:33Z</time></trkpt><trkpt lat="44.73303432321257" lon="10.225523338406283"><ele>137.0</ele><time>2026-04-04T07:25:34Z</time></trkpt><trkpt lat="44.73283237984688" lon="10.225540474231261"><ele>137.0</ele><time>2026-04-04T07:25:35Z</time></trkpt><trkpt lat="44.7326298857532" lon="10.225562403482066"><ele>137.0</ele><time>2026-04-04T07:25:36Z</time></trkpt><trkpt lat="44.73242512874956" lon="10.225582841957849"><ele>137.66666666666666</ele><time>2026-04-04T07:25:37Z</time></trkpt><trkpt lat="44.7322205084646" lon="10.22560875750832"><ele>138.33333333333334</ele><time>2026-04-04T07:25:38Z</time></trkpt><trkpt lat="44.73202180905261" lon="10.225634073183025"><ele>139.0</ele><time>2026-04-04T07:25:39Z</time></trkpt><trkpt lat="44.731820187544294" lon="10.225663598831927"><ele>141.0</ele><time>2026-04-04T07:25:40Z</time></trkpt><trkpt lat="44.73162400202742" lon="10.225726803497938"><ele>143.0</ele><time>2026-04-04T07:25:41Z</time></trkpt><trkpt lat="44.73142681821447" lon="10.22582112917784"><ele>145.0</ele><time>2026-04-04T07:25:42Z</time></trkpt><trkpt lat="44.73123262821318" lon="10.225934156655118"><ele>144.66666666666669</ele><time>2026-04-04T07:25:43Z</time></trkpt><trkpt lat="44.73104375920923" lon="10.22604628711846"><ele>144.33333333333334</ele><time>2026-04-04T07:25:44Z</time></trkpt><trkpt lat="44.730850034315026" lon="10.226160473601093"><ele>144.0</ele><time>2026-04-04T07:25:45Z</time></trkpt><trkpt lat="44.73064190851315" lon="10.22626293608565"><ele>144.0</ele><time>2026-04-04T07:25:46Z</time></trkpt><trkpt lat="44.730417934808465" lon="10.226307792016993"><ele>144.0</ele><time>2026-04-04T07:25:47Z</time></trkpt><trkpt lat="44.73020303153107" lon="10.226371115106982"><ele>144.0</ele><time>2026-04-04T07:25:48Z</time></trkpt><trkpt lat="44.73000995135087" lon="10.226392361577055"><ele>143.0</ele><time>2026-04-04T07:25:49Z</time></trkpt><trkpt lat="44.729811959954986" lon="10.226423137394617"><ele>142.0</ele><time>2026-04-04T07:25:50Z</time></trkpt><trkpt lat="44.72960336032039" lon="10.226462776917078"><ele>141.0</ele><time>2026-04-04T07:25:51Z</time></trkpt><trkpt lat="44.72939815980935" lon="10.226499349193832"><ele>142.0</ele><time>2026-04-04T07:25:52Z</time></trkpt><trkpt lat="44.72920630044797" lon="10.2265339938242"><ele>143.0</ele><time>2026-04-04T07:25:53Z</time></trkpt><trkpt lat="44.729022253247024" lon="10.22656579480796"><ele>144.0</ele><time>2026-04-04T07:25:54Z</time></trkpt><trkpt lat="44.72883090832055" lon="10.226604545045264"><ele>144.0</ele><time>2026-04-04T07:25:55Z</time></trkpt><trkpt lat="44.72863954312084" lon="10.226647525434464"><ele>144.0</ele><time>2026-04-04T07:25:56Z</time></trkpt><trkpt lat="44.72846133789669" lon="10.226687825247504"><ele>144.0</ele><time>2026-04-04T07:25:57Z</time></trkpt><trkpt lat="44.728300071508954" lon="10.226727281271923"><ele>146.0</ele><time>2026-04-04T07:25:58Z</time></trkpt><trkpt lat="44.72814762107364" lon="10.226765067430133"><ele>148.0</ele><time>2026-04-04T07:25:59Z</time></trkpt><trkpt lat="44.7279886879041" lon="10.226804286756199"><ele>150.0</ele><time>2026-04-04T07:26:00Z</time></trkpt><trkpt lat="44.72783061079905" lon="10.226844684233761"><ele>149.75</ele><time>2026-04-04T07:26:01Z</time></trkpt><trkpt lat="44.727681130793115" lon="10.226883311145691"><ele>149.5</ele><time>2026-04-04T07:26:02Z</time></trkpt><trkpt lat="44.72754102736587" lon="10.226912585576454"><ele>149.25</ele><time>2026-04-04T07:26:03Z</time></trkpt><trkpt lat="44.727410934208635" lon="10.22694413927545"><ele>149.0</ele><time>2026-04-04T07:26:04Z</time></trkpt><trkpt lat="44.72729800215095" lon="10.226967508638964"><ele>149.0</ele><time>2026-04-04T07:26:05Z</time></trkpt><trkpt lat="44.72720022459867" lon="10.226986732080446"><ele>149.0</ele><time>2026-04-04T07:26:06Z</time></trkpt><trkpt lat="44.72711373189308" lon="10.227006811045023"><ele>149.0</ele><time>2026-04-04T07:26:07Z</time></trkpt><trkpt lat="44.727039324871356" lon="10.227022052275638"><ele>149.0</ele><time>2026-04-04T07:26:08Z</time></trkpt><trkpt lat="44.726961421874414" lon="10.227041314078397"><ele>149.0</ele><time>2026-04-04T07:26:11Z</time></trkpt><trkpt lat="44.72682253904935" lon="10.227080514821248"><ele>148.75</ele><time>2026-04-04T07:26:13Z</time></trkpt><trkpt lat="44.72671081561526" lon="10.227107492339341"><ele>148.5</ele><time>2026-04-04T07:26:14Z</time></trkpt><trkpt lat="44.726577182265295" lon="10.22713644071656"><ele>148.25</ele><time>2026-04-04T07:26:15Z</time></trkpt><trkpt lat="44.726409677902765" lon="10.227185427304704"><ele>148.0</ele><time>2026-04-04T07:26:16Z</time></trkpt><trkpt lat="44.726246442086286" lon="10.22722343494333"><ele>148.0</ele><time>2026-04-04T07:26:17Z</time></trkpt><trkpt lat="44.72610143891981" lon="10.227265713188585"><ele>148.0</ele><time>2026-04-04T07:26:18Z</time></trkpt><trkpt lat="44.725975573201474" lon="10.2272951620308"><ele>148.0</ele><time>2026-04-04T07:26:19Z</time></trkpt><trkpt lat="44.72585515081799" lon="10.227324386966153"><ele>148.0</ele><time>2026-04-04T07:26:20Z</time></trkpt><trkpt lat="44.72574152456056" lon="10.227351981314442"><ele>149.0</ele><time>2026-04-04T07:26:21Z</time></trkpt><trkpt lat="44.72562560890229" lon="10.227381610354339"><ele>150.0</ele><time>2026-04-04T07:26:22Z</time></trkpt><trkpt lat="44.72549167038997" lon="10.227423199864424"><ele>151.0</ele><time>2026-04-04T07:26:23Z</time></trkpt><trkpt lat="44.72534811346336" lon="10.227435347928077"><ele>152.0</ele><time>2026-04-04T07:26:24Z</time></trkpt><trkpt lat="44.72517954913078" lon="10.227487143183629"><ele>152.0</ele><time>2026-04-04T07:26:26Z</time></trkpt><trkpt lat="44.725049029837116" lon="10.227519973616511"><ele>152.0</ele><time>2026-04-04T07:26:27Z</time></trkpt><trkpt lat="44.72490787725641" lon="10.227552251549431"><ele>152.0</ele><time>2026-04-04T07:26:28Z</time></trkpt><trkpt lat="44.72477729341178" lon="10.227583251249712"><ele>152.0</ele><time>2026-04-04T07:26:29Z</time></trkpt><trkpt lat="44.72465348872675" lon="10.22761016804005"><ele>152.0</ele><time>2026-04-04T07:26:30Z</time></trkpt><trkpt lat="44.724524432259706" lon="10.227640179734202"><ele>152.0</ele><time>2026-04-04T07:26:31Z</time></trkpt><trkpt lat="44.72439443677886" lon="10.227670079781678"><ele>152.0</ele><time>2026-04-04T07:26:32Z</time></trkpt><trkpt lat="44.724263577207054" lon="10.227702492940203"><ele>152.0</ele><time>2026-04-04T07:26:33Z</time></trkpt><trkpt lat="44.72412912873908" lon="10.227735429638804"><ele>152.5</ele><time>2026-04-04T07:26:34Z</time></trkpt><trkpt lat="44.72399623009347" lon="10.22776687588397"><ele>153.0</ele><time>2026-04-04T07:26:35Z</time></trkpt><trkpt lat="44.723862155971474" lon="10.227803513136816"><ele>153.5</ele><time>2026-04-04T07:26:36Z</time></trkpt><trkpt lat="44.723723506865184" lon="10.227842143404668"><ele>154.0</ele><time>2026-04-04T07:26:37Z</time></trkpt><trkpt lat="44.72358579135085" lon="10.22787730546449"><ele>154.0</ele><time>2026-04-04T07:26:37.999Z</time></trkpt><trkpt lat="44.72345476667557" lon="10.227909817881725"><ele>154.0</ele><time>2026-04-04T07:26:38.999Z</time></trkpt><trkpt lat="44.72331952379979" lon="10.227944182321055"><ele>154.0</ele><time>2026-04-04T07:26:39.999Z</time></trkpt><trkpt lat="44.72318035698899" lon="10.227980453453112"><ele>154.0</ele><time>2026-04-04T07:26:40.999Z</time></trkpt><trkpt lat="44.72304176711835" lon="10.228017172547963"><ele>154.0</ele><time>2026-04-04T07:26:41.999Z</time></trkpt><trkpt lat="44.722910024695736" lon="10.228047526515256"><ele>154.0</ele><time>2026-04-04T07:26:42.999Z</time></trkpt><trkpt lat="44.72279577825391" lon="10.228078020938213"><ele>154.0</ele><time>2026-04-04T07:26:43.999Z</time></trkpt><trkpt lat="44.72269573397257" lon="10.22811415895664"><ele>154.0</ele><time>2026-04-04T07:26:44.999Z</time></trkpt><trkpt lat="44.722608895395425" lon="10.228134899902493"><ele>154.0</ele><time>2026-04-04T07:26:45.999Z</time></trkpt><trkpt lat="44.72253602263727" lon="10.228124706479957"><ele>153.75</ele><time>2026-04-04T07:26:46.999Z</time></trkpt><trkpt lat="44.72247006786758" lon="10.228076834111654"><ele>153.5</ele><time>2026-04-04T07:26:47.999Z</time></trkpt><trkpt lat="44.722356476579314" lon="10.228054297703064"><ele>153.25</ele><time>2026-04-04T07:26:48.999Z</time></trkpt><trkpt lat="44.72220331068979" lon="10.228064880667684"><ele>153.0</ele><time>2026-04-04T07:26:49.999Z</time></trkpt><trkpt lat="44.722035381233304" lon="10.22805392855368"><ele>154.66666666666666</ele><time>2026-04-04T07:26:50.999Z</time></trkpt><trkpt lat="44.72184802265777" lon="10.227996988673539"><ele>156.33333333333331</ele><time>2026-04-04T07:26:51.999Z</time></trkpt><trkpt lat="44.72165958109367" lon="10.227989538795754"><ele>158.0</ele><time>2026-04-04T07:26:52.999Z</time></trkpt><trkpt lat="44.721468457415554" lon="10.22799718839368"><ele>158.0</ele><time>2026-04-04T07:26:53.999Z</time></trkpt><trkpt lat="44.721294663056" lon="10.227989799973807"><ele>158.0</ele><time>2026-04-04T07:26:54.999Z</time></trkpt><trkpt lat="44.72113322144879" lon="10.227985390653213"><ele>158.0</ele><time>2026-04-04T07:26:55.999Z</time></trkpt><trkpt lat="44.72098312218214" lon="10.227981530480818"><ele>159.0</ele><time>2026-04-04T07:26:56.999Z</time></trkpt><trkpt lat="44.720822926811934" lon="10.227972920570096"><ele>160.0</ele><time>2026-04-04T07:26:57.999Z</time></trkpt><trkpt lat="44.72065385465326" lon="10.227968262624591"><ele>161.0</ele><time>2026-04-04T07:26:58.999Z</time></trkpt><trkpt lat="44.7204832244942" lon="10.227960027533301"><ele>161.0</ele><time>2026-04-04T07:26:59.999Z</time></trkpt><trkpt lat="44.72031384329931" lon="10.227952532343206"><ele>161.0</ele><time>2026-04-04T07:27:00.999Z</time></trkpt><trkpt lat="44.72014565857794" lon="10.22795152296254"><ele>161.0</ele><time>2026-04-04T07:27:01.999Z</time></trkpt><trkpt lat="44.71997235791036" lon="10.227945385416586"><ele>162.0</ele><time>2026-04-04T07:27:02.999Z</time></trkpt><trkpt lat="44.71979793799739" lon="10.227938714365758"><ele>163.0</ele><time>2026-04-04T07:27:03.999Z</time></trkpt><trkpt lat="44.71963684246294" lon="10.227932728818741"><ele>164.0</ele><time>2026-04-04T07:27:04.999Z</time></trkpt><trkpt lat="44.71945809658767" lon="10.227914508637012"><ele>165.33333333333331</ele><time>2026-04-04T07:27:05.999Z</time></trkpt><trkpt lat="44.71928589761694" lon="10.227899135503224"><ele>166.66666666666666</ele><time>2026-04-04T07:27:06.999Z</time></trkpt><trkpt lat="44.719119562056974" lon="10.22786156065588"><ele>168.0</ele><time>2026-04-04T07:27:07.999Z</time></trkpt><trkpt lat="44.71895200649291" lon="10.22782394912251"><ele>168.0</ele><time>2026-04-04T07:27:08.999Z</time></trkpt><trkpt lat="44.71877945484801" lon="10.227783614916326"><ele>168.0</ele><time>2026-04-04T07:27:09.999Z</time></trkpt><trkpt lat="44.71861035664789" lon="10.22773849234857"><ele>168.0</ele><time>2026-04-04T07:27:10.999Z</time></trkpt><trkpt lat="44.71844288270435" lon="10.227693822757647"><ele>168.33333333333334</ele><time>2026-04-04T07:27:11.999Z</time></trkpt><trkpt lat="44.71827198308723" lon="10.227644456284823"><ele>168.66666666666669</ele><time>2026-04-04T07:27:12.999Z</time></trkpt><trkpt lat="44.71811302663052" lon="10.227597673932507"><ele>169.0</ele><time>2026-04-04T07:27:13.999Z</time></trkpt><trkpt lat="44.71794725406688" lon="10.227516410678204"><ele>169.0</ele><time>2026-04-04T07:27:14.999Z</time></trkpt><trkpt lat="44.717791366877464" lon="10.227364767412114"><ele>169.0</ele><time>2026-04-04T07:27:15.999Z</time></trkpt><trkpt lat="44.71763430932951" lon="10.22720106340877"><ele>169.0</ele><time>2026-04-04T07:27:16.999Z</time></trkpt><trkpt lat="44.717487274166196" lon="10.226992934574431"><ele>168.33333333333334</ele><time>2026-04-04T07:27:17.999Z</time></trkpt><trkpt lat="44.71735012039794" lon="10.226813312984767"><ele>167.66666666666666</ele><time>2026-04-04T07:27:18.999Z</time></trkpt><trkpt lat="44.717205248272656" lon="10.226653399847994"><ele>167.0</ele><time>2026-04-04T07:27:19.999Z</time></trkpt><trkpt lat="44.71708467024287" lon="10.226505040266472"><ele>167.0</ele><time>2026-04-04T07:27:20.999Z</time></trkpt><trkpt lat="44.71698286708457" lon="10.226381033697416"><ele>167.0</ele><time>2026-04-04T07:27:21.999Z</time></trkpt><trkpt lat="44.71691154065448" lon="10.226297401415923"><ele>167.0</ele><time>2026-04-04T07:27:22.999Z</time></trkpt><trkpt lat="44.716858795970936" lon="10.226211196163865"><ele>167.0</ele><time>2026-04-04T07:27:23.999Z</time></trkpt><trkpt lat="44.71685391628672" lon="10.22610448383537"><ele>167.0</ele><time>2026-04-04T07:27:24.999Z</time></trkpt><trkpt lat="44.71684754983907" lon="10.22597459275025"><ele>167.0</ele><time>2026-04-04T07:27:25.999Z</time></trkpt><trkpt lat="44.71682174024679" lon="10.225854771443569"><ele>167.0</ele><time>2026-04-04T07:27:26.999Z</time></trkpt><trkpt lat="44.716759718341244" lon="10.225756713071256"><ele>167.0</ele><time>2026-04-04T07:27:27.999Z</time></trkpt><trkpt lat="44.716661221002404" lon="10.225705583636913"><ele>167.0</ele><time>2026-04-04T07:27:28.999Z</time></trkpt><trkpt lat="44.716565645186016" lon="10.225668058367022"><ele>167.0</ele><time>2026-04-04T07:27:29.999Z</time></trkpt><trkpt lat="44.71642527833728" lon="10.225763870757566"><ele>167.0</ele><time>2026-04-04T07:27:30.999Z</time></trkpt><trkpt lat="44.716296551295" lon="10.225718892446432"><ele>167.0</ele><time>2026-04-04T07:27:31.999Z</time></trkpt><trkpt lat="44.716141264903555" lon="10.225671140475612"><ele>167.0</ele><time>2026-04-04T07:27:32.999Z</time></trkpt><trkpt lat="44.71598602278658" lon="10.225622283230388"><ele>167.0</ele><time>2026-04-04T07:27:33.999Z</time></trkpt><trkpt lat="44.71582591015209" lon="10.225578528503927"><ele>167.0</ele><time>2026-04-04T07:27:34.999Z</time></trkpt><trkpt lat="44.71566760779589" lon="10.225527552442236"><ele>167.0</ele><time>2026-04-04T07:27:36Z</time></trkpt><trkpt lat="44.715521297198755" lon="10.225484524656597"><ele>167.0</ele><time>2026-04-04T07:27:37Z</time></trkpt><trkpt lat="44.715375039883966" lon="10.225440085026824"><ele>167.0</ele><time>2026-04-04T07:27:38Z</time></trkpt><trkpt lat="44.71522797183431" lon="10.225393889861152"><ele>167.0</ele><time>2026-04-04T07:27:39Z</time></trkpt><trkpt lat="44.71508387942487" lon="10.225350674591638"><ele>167.0</ele><time>2026-04-04T07:27:40Z</time></trkpt><trkpt lat="44.71494014928126" lon="10.225309443852476"><ele>167.75</ele><time>2026-04-04T07:27:41Z</time></trkpt><trkpt lat="44.714801836617866" lon="10.225266428089169"><ele>168.5</ele><time>2026-04-04T07:27:42Z</time></trkpt><trkpt lat="44.71466721203055" lon="10.22522644353341"><ele>169.25</ele><time>2026-04-04T07:27:43Z</time></trkpt><trkpt lat="44.71454443381845" lon="10.225189947417347"><ele>170.0</ele><time>2026-04-04T07:27:44Z</time></trkpt><trkpt lat="44.71442831668606" lon="10.22515774799283"><ele>170.66666666666666</ele><time>2026-04-04T07:27:45Z</time></trkpt><trkpt lat="44.714358201595516" lon="10.22512931541831"><ele>171.33333333333331</ele><time>2026-04-04T07:27:47Z</time></trkpt><trkpt lat="44.71428740243035" lon="10.225076079535159"><ele>172.0</ele><time>2026-04-04T07:27:50Z</time></trkpt><trkpt lat="44.71420242616475" lon="10.225086345580944"><ele>172.66666666666666</ele><time>2026-04-04T07:27:52Z</time></trkpt><trkpt lat="44.71409049140162" lon="10.225077419488274"><ele>173.33333333333334</ele><time>2026-04-04T07:27:54Z</time></trkpt><trkpt lat="44.71399327265383" lon="10.225069429429544"><ele>174.0</ele><time>2026-04-04T07:27:55Z</time></trkpt><trkpt lat="44.713902976020684" lon="10.225062228705188"><ele>174.0</ele><time>2026-04-04T07:27:56Z</time></trkpt><trkpt lat="44.713816165207426" lon="10.22505201916816"><ele>174.0</ele><time>2026-04-04T07:27:57Z</time></trkpt><trkpt lat="44.71373421491731" lon="10.225018789751953"><ele>174.0</ele><time>2026-04-04T07:27:58Z</time></trkpt><trkpt lat="44.71365770866534" lon="10.225007444518894"><ele>174.0</ele><time>2026-04-04T07:27:59Z</time></trkpt><trkpt lat="44.713593428386986" lon="10.225018561934505"><ele>174.0</ele><time>2026-04-04T07:28:00Z</time></trkpt><trkpt lat="44.713523491903175" lon="10.225007399214952"><ele>174.0</ele><time>2026-04-04T07:28:01Z</time></trkpt><trkpt lat="44.713443723654066" lon="10.224996079403862"><ele>174.25</ele><time>2026-04-04T07:28:02Z</time></trkpt><trkpt lat="44.71334031217528" lon="10.224979086885424"><ele>174.5</ele><time>2026-04-04T07:28:03Z</time></trkpt><trkpt lat="44.713216135974704" lon="10.224961375532024"><ele>174.75</ele><time>2026-04-04T07:28:04Z</time></trkpt><trkpt lat="44.71308587851404" lon="10.224952270311205"><ele>175.0</ele><time>2026-04-04T07:28:05Z</time></trkpt><trkpt lat="44.71294901498352" lon="10.224912379232139"><ele>175.0</ele><time>2026-04-04T07:28:06Z</time></trkpt><trkpt lat="44.7128101727529" lon="10.224894471899038"><ele>175.0</ele><time>2026-04-04T07:28:07Z</time></trkpt><trkpt lat="44.712662187912976" lon="10.224875585449961"><ele>175.0</ele><time>2026-04-04T07:28:08Z</time></trkpt><trkpt lat="44.712513606244784" lon="10.224856059517002"><ele>175.0</ele><time>2026-04-04T07:28:09Z</time></trkpt><trkpt lat="44.71237197613806" lon="10.22483990909381"><ele>175.33333333333334</ele><time>2026-04-04T07:28:10Z</time></trkpt><trkpt lat="44.71221560662204" lon="10.224808760535547"><ele>175.66666666666666</ele><time>2026-04-04T07:28:11Z</time></trkpt><trkpt lat="44.71206086153578" lon="10.224786511804218"><ele>176.0</ele><time>2026-04-04T07:28:12Z</time></trkpt><trkpt lat="44.711901828464555" lon="10.224771426834728"><ele>176.33333333333331</ele><time>2026-04-04T07:28:13Z</time></trkpt><trkpt lat="44.711746424862305" lon="10.224757645400228"><ele>176.66666666666666</ele><time>2026-04-04T07:28:14Z</time></trkpt><trkpt lat="44.71158141679603" lon="10.224742540779845"><ele>177.0</ele><time>2026-04-04T07:28:15Z</time></trkpt><trkpt lat="44.711422683059695" lon="10.224716586234452"><ele>177.0</ele><time>2026-04-04T07:28:16Z</time></trkpt><trkpt lat="44.71120970146788" lon="10.22469214619902"><ele>177.0</ele><time>2026-04-04T07:28:17Z</time></trkpt><trkpt lat="44.71108445422947" lon="10.224679100874315"><ele>177.0</ele><time>2026-04-04T07:28:18Z</time></trkpt><trkpt lat="44.7109394259103" lon="10.224659193880722"><ele>177.33333333333334</ele><time>2026-04-04T07:28:19Z</time></trkpt><trkpt lat="44.7107823479659" lon="10.224632195254582"><ele>177.66666666666669</ele><time>2026-04-04T07:28:20Z</time></trkpt><trkpt lat="44.71063104584799" lon="10.22460498294771"><ele>178.0</ele><time>2026-04-04T07:28:21Z</time></trkpt><trkpt lat="44.71048007608572" lon="10.224591480150908"><ele>178.0</ele><time>2026-04-04T07:28:22Z</time></trkpt><trkpt lat="44.7103417029226" lon="10.224577388892452"><ele>178.0</ele><time>2026-04-04T07:28:23Z</time></trkpt><trkpt lat="44.710201497905366" lon="10.224562544555548"><ele>178.0</ele><time>2026-04-04T07:28:24Z</time></trkpt><trkpt lat="44.710041522790156" lon="10.224533285395323"><ele>178.0</ele><time>2026-04-04T07:28:25Z</time></trkpt><trkpt lat="44.70989203451512" lon="10.224510747868182"><ele>178.0</ele><time>2026-04-04T07:28:26Z</time></trkpt><trkpt lat="44.70974272645944" lon="10.224488575395718"><ele>178.0</ele><time>2026-04-04T07:28:27Z</time></trkpt><trkpt lat="44.70958429077933" lon="10.224461658847533"><ele>178.0</ele><time>2026-04-04T07:28:28Z</time></trkpt><trkpt lat="44.709423799393655" lon="10.22443986656717"><ele>178.33333333333334</ele><time>2026-04-04T07:28:29Z</time></trkpt><trkpt lat="44.7092772749713" lon="10.224419308404602"><ele>178.66666666666666</ele><time>2026-04-04T07:28:30Z</time></trkpt><trkpt lat="44.70911094153848" lon="10.22439844751564"><ele>179.0</ele><time>2026-04-04T07:28:31Z</time></trkpt><trkpt lat="44.70896714448371" lon="10.224376683532403"><ele>179.0</ele><time>2026-04-04T07:28:32Z</time></trkpt><trkpt lat="44.70881456586058" lon="10.224364963014606"><ele>179.0</ele><time>2026-04-04T07:28:33Z</time></trkpt><trkpt lat="44.70866371820095" lon="10.224349686964555"><ele>179.0</ele><time>2026-04-04T07:28:34Z</time></trkpt><trkpt lat="44.7085089057437" lon="10.224326853979008"><ele>179.33333333333331</ele><time>2026-04-04T07:28:35Z</time></trkpt><trkpt lat="44.708351955926716" lon="10.224299989451543"><ele>179.66666666666666</ele><time>2026-04-04T07:28:36Z</time></trkpt><trkpt lat="44.70819622428795" lon="10.22427226649028"><ele>180.0</ele><time>2026-04-04T07:28:37Z</time></trkpt><trkpt lat="44.70803355157184" lon="10.224252873642783"><ele>180.0</ele><time>2026-04-04T07:28:38Z</time></trkpt><trkpt lat="44.70788344139247" lon="10.224228875811596"><ele>180.0</ele><time>2026-04-04T07:28:39Z</time></trkpt><trkpt lat="44.70776152674121" lon="10.224203185809184"><ele>180.0</ele><time>2026-04-04T07:28:40Z</time></trkpt><trkpt lat="44.70767062472137" lon="10.224204069424697"><ele>180.0</ele><time>2026-04-04T07:28:41Z</time></trkpt><trkpt lat="44.70740899241211" lon="10.22416213911915"><ele>181.33333333333334</ele><time>2026-04-04T07:28:42Z</time></trkpt><trkpt lat="44.70725250348155" lon="10.224140443623607"><ele>182.66666666666669</ele><time>2026-04-04T07:28:43Z</time></trkpt><trkpt lat="44.70709759806406" lon="10.224121341729406"><ele>184.0</ele><time>2026-04-04T07:28:44Z</time></trkpt><trkpt lat="44.706942477594914" lon="10.224102334293775"><ele>185.5</ele><time>2026-04-04T07:28:45Z</time></trkpt><trkpt lat="44.70680078121647" lon="10.224084851217816"><ele>187.0</ele><time>2026-04-04T07:28:46Z</time></trkpt><trkpt lat="44.70666215235749" lon="10.224070803211747"><ele>188.5</ele><time>2026-04-04T07:28:47Z</time></trkpt><trkpt lat="44.70652365836068" lon="10.224053915930845"><ele>190.0</ele><time>2026-04-04T07:28:47.999Z</time></trkpt><trkpt lat="44.70637709997585" lon="10.224029929647235"><ele>190.0</ele><time>2026-04-04T07:28:48.999Z</time></trkpt><trkpt lat="44.7062449172081" lon="10.224016817198695"><ele>190.0</ele><time>2026-04-04T07:28:49.999Z</time></trkpt><trkpt lat="44.70610974128354" lon="10.223998970292872"><ele>190.0</ele><time>2026-04-04T07:28:50.999Z</time></trkpt><trkpt lat="44.70596783941375" lon="10.22397761715549"><ele>190.0</ele><time>2026-04-04T07:28:51.999Z</time></trkpt><trkpt lat="44.705834177903526" lon="10.223954989432785"><ele>190.66666666666669</ele><time>2026-04-04T07:28:52.999Z</time></trkpt><trkpt lat="44.70568611891865" lon="10.223926252013149"><ele>191.33333333333334</ele><time>2026-04-04T07:28:53.999Z</time></trkpt><trkpt lat="44.70553169462928" lon="10.223914191272572"><ele>192.0</ele><time>2026-04-04T07:28:54.999Z</time></trkpt><trkpt lat="44.705357688314834" lon="10.223901915523022"><ele>193.33333333333331</ele><time>2026-04-04T07:28:55.999Z</time></trkpt><trkpt lat="44.70518744003543" lon="10.22388975690997"><ele>194.66666666666666</ele><time>2026-04-04T07:28:56.999Z</time></trkpt><trkpt lat="44.70500891362694" lon="10.223884670286356"><ele>196.0</ele><time>2026-04-04T07:28:57.999Z</time></trkpt><trkpt lat="44.70484053634092" lon="10.223882655506017"><ele>196.0</ele><time>2026-04-04T07:28:58.999Z</time></trkpt><trkpt lat="44.70468712699333" lon="10.223903281496066"><ele>196.0</ele><time>2026-04-04T07:28:59.999Z</time></trkpt><trkpt lat="44.70453244645526" lon="10.223907671546973"><ele>196.0</ele><time>2026-04-04T07:29:00.999Z</time></trkpt><trkpt lat="44.70437325778152" lon="10.223867640957703"><ele>197.0</ele><time>2026-04-04T07:29:01.999Z</time></trkpt><trkpt lat="44.704214824872004" lon="10.223810026525012"><ele>198.0</ele><time>2026-04-04T07:29:02.999Z</time></trkpt><trkpt lat="44.7040560354562" lon="10.223736325379564"><ele>199.0</ele><time>2026-04-04T07:29:03.999Z</time></trkpt><trkpt lat="44.70389946735287" lon="10.223623875049679"><ele>199.0</ele><time>2026-04-04T07:29:04.999Z</time></trkpt><trkpt lat="44.7037447246484" lon="10.223498764242414"><ele>199.0</ele><time>2026-04-04T07:29:05.999Z</time></trkpt><trkpt lat="44.703591437869854" lon="10.223376287393961"><ele>199.0</ele><time>2026-04-04T07:29:06.999Z</time></trkpt><trkpt lat="44.70344583414595" lon="10.223271629064145"><ele>197.66666666666666</ele><time>2026-04-04T07:29:07.999Z</time></trkpt><trkpt lat="44.703298505556845" lon="10.223177735264645"><ele>196.33333333333331</ele><time>2026-04-04T07:29:08.999Z</time></trkpt><trkpt lat="44.703155337252184" lon="10.223074036255676"><ele>195.0</ele><time>2026-04-04T07:29:09.999Z</time></trkpt><trkpt lat="44.70300747468324" lon="10.222967408563116"><ele>195.0</ele><time>2026-04-04T07:29:10.999Z</time></trkpt><trkpt lat="44.70285867680826" lon="10.222860327682733"><ele>195.0</ele><time>2026-04-04T07:29:11.999Z</time></trkpt><trkpt lat="44.70269738462631" lon="10.222761202012055"><ele>195.0</ele><time>2026-04-04T07:29:12.999Z</time></trkpt><trkpt lat="44.70254720644816" lon="10.222659927970723"><ele>193.66666666666666</ele><time>2026-04-04T07:29:13.999Z</time></trkpt><trkpt lat="44.70238429420002" lon="10.222569217473419"><ele>192.33333333333331</ele><time>2026-04-04T07:29:14.999Z</time></trkpt><trkpt lat="44.702216574838715" lon="10.222496093586528"><ele>191.0</ele><time>2026-04-04T07:29:15.999Z</time></trkpt><trkpt lat="44.70204553022042" lon="10.222444280571366"><ele>191.66666666666666</ele><time>2026-04-04T07:29:16.999Z</time></trkpt><trkpt lat="44.701864780698315" lon="10.222395648636184"><ele>192.33333333333331</ele><time>2026-04-04T07:29:17.999Z</time></trkpt><trkpt lat="44.701683423297375" lon="10.222338196967133"><ele>193.0</ele><time>2026-04-04T07:29:18.999Z</time></trkpt><trkpt lat="44.70150924241837" lon="10.222284050864179"><ele>193.0</ele><time>2026-04-04T07:29:19.999Z</time></trkpt><trkpt lat="44.701328778445195" lon="10.222221701571785"><ele>193.0</ele><time>2026-04-04T07:29:20.999Z</time></trkpt><trkpt lat="44.701161245524155" lon="10.222175004136858"><ele>193.0</ele><time>2026-04-04T07:29:21.999Z</time></trkpt><trkpt lat="44.70099574579736" lon="10.222128242412209"><ele>192.33333333333331</ele><time>2026-04-04T07:29:22.999Z</time></trkpt><trkpt lat="44.70082979154525" lon="10.222107628835252"><ele>191.66666666666666</ele><time>2026-04-04T07:29:23.999Z</time></trkpt><trkpt lat="44.70067418499066" lon="10.222138944861873"><ele>191.0</ele><time>2026-04-04T07:29:24.999Z</time></trkpt><trkpt lat="44.700513827454856" lon="10.222199279057486"><ele>191.0</ele><time>2026-04-04T07:29:25.999Z</time></trkpt><trkpt lat="44.700361144711174" lon="10.22226718838023"><ele>191.0</ele><time>2026-04-04T07:29:26.999Z</time></trkpt><trkpt lat="44.70023221118022" lon="10.222277967163967"><ele>191.0</ele><time>2026-04-04T07:29:27.999Z</time></trkpt><trkpt lat="44.70009070619265" lon="10.222305201790304"><ele>191.0</ele><time>2026-04-04T07:29:28.999Z</time></trkpt><trkpt lat="44.69995445125371" lon="10.22234314739468"><ele>191.0</ele><time>2026-04-04T07:29:29.999Z</time></trkpt><trkpt lat="44.6998098191038" lon="10.22233465248397"><ele>191.0</ele><time>2026-04-04T07:29:30.999Z</time></trkpt><trkpt lat="44.69964316042148" lon="10.222286884934666"><ele>191.0</ele><time>2026-04-04T07:29:31.999Z</time></trkpt><trkpt lat="44.699472521550824" lon="10.22222037912045"><ele>191.33333333333331</ele><time>2026-04-04T07:29:32.999Z</time></trkpt><trkpt lat="44.69930834015379" lon="10.222149800828973"><ele>191.66666666666666</ele><time>2026-04-04T07:29:33.999Z</time></trkpt><trkpt lat="44.69914129422707" lon="10.222084871767548"><ele>192.0</ele><time>2026-04-04T07:29:34.999Z</time></trkpt><trkpt lat="44.698987965543544" lon="10.222028544670197"><ele>192.0</ele><time>2026-04-04T07:29:35.999Z</time></trkpt><trkpt lat="44.69886311351288" lon="10.221977220245071"><ele>192.0</ele><time>2026-04-04T07:29:36.999Z</time></trkpt><trkpt lat="44.698747175572784" lon="10.22191830701928"><ele>192.0</ele><time>2026-04-04T07:29:37.999Z</time></trkpt><trkpt lat="44.698633532687865" lon="10.221874993332934"><ele>192.0</ele><time>2026-04-04T07:29:38.999Z</time></trkpt><trkpt lat="44.69853596173186" lon="10.221878317543693"><ele>190.75</ele><time>2026-04-04T07:29:39.999Z</time></trkpt><trkpt lat="44.698447538415714" lon="10.221943844214987"><ele>189.5</ele><time>2026-04-04T07:29:40.999Z</time></trkpt><trkpt lat="44.69838584150149" lon="10.222089348138566"><ele>188.25</ele><time>2026-04-04T07:29:42Z</time></trkpt><trkpt lat="44.698329562276804" lon="10.222308550707487"><ele>187.0</ele><time>2026-04-04T07:29:43Z</time></trkpt><trkpt lat="44.69825917469265" lon="10.222530398881903"><ele>186.39999999999998</ele><time>2026-04-04T07:29:44Z</time></trkpt><trkpt lat="44.6981948169718" lon="10.222713707863342"><ele>185.79999999999998</ele><time>2026-04-04T07:29:45Z</time></trkpt><trkpt lat="44.69814581658255" lon="10.222838459794797"><ele>185.2</ele><time>2026-04-04T07:29:46Z</time></trkpt><trkpt lat="44.69811659665744" lon="10.222926243487116"><ele>184.6</ele><time>2026-04-04T07:29:49Z</time></trkpt><trkpt lat="44.6980471632424" lon="10.222980637459886"><ele>184.0</ele><time>2026-04-04T07:29:51Z</time></trkpt><trkpt lat="44.69784294041322" lon="10.222837942975849"><ele>185.0</ele><time>2026-04-04T07:29:53Z</time></trkpt><trkpt lat="44.69770451573254" lon="10.222754520562376"><ele>186.0</ele><time>2026-04-04T07:29:54Z</time></trkpt><trkpt lat="44.697531533674294" lon="10.222610533015917"><ele>187.0</ele><time>2026-04-04T07:29:55Z</time></trkpt><trkpt lat="44.69733654648586" lon="10.222463603324206"><ele>187.0</ele><time>2026-04-04T07:29:56Z</time></trkpt><trkpt lat="44.697200250348885" lon="10.22235338254487"><ele>187.0</ele><time>2026-04-04T07:29:57Z</time></trkpt><trkpt lat="44.69704905384663" lon="10.222243722037343"><ele>187.0</ele><time>2026-04-04T07:29:58Z</time></trkpt><trkpt lat="44.69691681416468" lon="10.22214303961356"><ele>188.0</ele><time>2026-04-04T07:29:59Z</time></trkpt><trkpt lat="44.69652297637452" lon="10.221851973694786"><ele>189.0</ele><time>2026-04-04T07:30:00Z</time></trkpt><trkpt lat="44.696311300361046" lon="10.221690483168093"><ele>189.5</ele><time>2026-04-04T07:30:01Z</time></trkpt><trkpt lat="44.69607254530474" lon="10.221514196048664"><ele>190.0</ele><time>2026-04-04T07:30:02Z</time></trkpt><trkpt lat="44.69584337107508" lon="10.221345630731115"><ele>190.0</ele><time>2026-04-04T07:30:03Z</time></trkpt><trkpt lat="44.69562209320337" lon="10.221182944131785"><ele>190.0</ele><time>2026-04-04T07:30:04Z</time></trkpt><trkpt lat="44.69541075781937" lon="10.221029945623576"><ele>190.5</ele><time>2026-04-04T07:30:05Z</time></trkpt><trkpt lat="44.69520681703925" lon="10.220882697186113"><ele>191.0</ele><time>2026-04-04T07:30:06Z</time></trkpt><trkpt lat="44.69500726823822" lon="10.220738131600463"><ele>190.66666666666666</ele><time>2026-04-04T07:30:07Z</time></trkpt><trkpt lat="44.6948212256416" lon="10.220596027589913"><ele>190.33333333333334</ele><time>2026-04-04T07:30:08Z</time></trkpt><trkpt lat="44.6946343040017" lon="10.220449536413275"><ele>190.0</ele><time>2026-04-04T07:30:09Z</time></trkpt><trkpt lat="44.69444960624301" lon="10.220304627778386"><ele>191.33333333333334</ele><time>2026-04-04T07:30:10Z</time></trkpt><trkpt lat="44.69426010088056" lon="10.22016222202587"><ele>192.66666666666669</ele><time>2026-04-04T07:30:11Z</time></trkpt><trkpt lat="44.69406770150273" lon="10.220019962478641"><ele>194.0</ele><time>2026-04-04T07:30:12Z</time></trkpt><trkpt lat="44.69387537480605" lon="10.219881331330921"><ele>193.66666666666669</ele><time>2026-04-04T07:30:13Z</time></trkpt><trkpt lat="44.693681502606125" lon="10.219741720257831"><ele>193.33333333333331</ele><time>2026-04-04T07:30:14Z</time></trkpt><trkpt lat="44.69349226751901" lon="10.21959970340013"><ele>193.0</ele><time>2026-04-04T07:30:15Z</time></trkpt><trkpt lat="44.69330288307029" lon="10.219454511753842"><ele>193.66666666666666</ele><time>2026-04-04T07:30:16Z</time></trkpt><trkpt lat="44.693111478379485" lon="10.21931139064367"><ele>194.33333333333331</ele><time>2026-04-04T07:30:17Z</time></trkpt><trkpt lat="44.692918003253794" lon="10.21917023525685"><ele>195.0</ele><time>2026-04-04T07:30:18Z</time></trkpt><trkpt lat="44.69272595259696" lon="10.21903215201402"><ele>195.33333333333331</ele><time>2026-04-04T07:30:19Z</time></trkpt><trkpt lat="44.6925380536069" lon="10.218891865882815"><ele>195.66666666666666</ele><time>2026-04-04T07:30:20Z</time></trkpt><trkpt lat="44.692348153005646" lon="10.218748910291616"><ele>196.0</ele><time>2026-04-04T07:30:21Z</time></trkpt><trkpt lat="44.69216294672317" lon="10.218600215152168"><ele>196.0</ele><time>2026-04-04T07:30:22Z</time></trkpt><trkpt lat="44.691973290581025" lon="10.218461816870136"><ele>196.0</ele><time>2026-04-04T07:30:23Z</time></trkpt><trkpt lat="44.691782998883056" lon="10.218321996904281"><ele>196.0</ele><time>2026-04-04T07:30:24Z</time></trkpt><trkpt lat="44.691590267058146" lon="10.218183280524347"><ele>196.0</ele><time>2026-04-04T07:30:25Z</time></trkpt><trkpt lat="44.69139643434497" lon="10.218041706670714"><ele>196.0</ele><time>2026-04-04T07:30:26Z</time></trkpt><trkpt lat="44.691201229064816" lon="10.217897567837815"><ele>196.0</ele><time>2026-04-04T07:30:27Z</time></trkpt><trkpt lat="44.69100358299631" lon="10.21774896593989"><ele>196.66666666666666</ele><time>2026-04-04T07:30:28Z</time></trkpt><trkpt lat="44.69080570616583" lon="10.21760471238845"><ele>197.33333333333331</ele><time>2026-04-04T07:30:29Z</time></trkpt><trkpt lat="44.69060640520074" lon="10.217453648466506"><ele>198.0</ele><time>2026-04-04T07:30:30Z</time></trkpt><trkpt lat="44.6904060105871" lon="10.217305066671905"><ele>200.0</ele><time>2026-04-04T07:30:31Z</time></trkpt><trkpt lat="44.690205742840895" lon="10.217156293834934"><ele>202.0</ele><time>2026-04-04T07:30:32Z</time></trkpt><trkpt lat="44.69000237560747" lon="10.217015219979928"><ele>202.0</ele><time>2026-04-04T07:30:33Z</time></trkpt><trkpt lat="44.68979707193605" lon="10.216865242441921"><ele>202.0</ele><time>2026-04-04T07:30:34Z</time></trkpt><trkpt lat="44.68958956589643" lon="10.216719756879016"><ele>202.5</ele><time>2026-04-04T07:30:35Z</time></trkpt><trkpt lat="44.68938516172161" lon="10.216567435604142"><ele>203.0</ele><time>2026-04-04T07:30:36Z</time></trkpt><trkpt lat="44.68918198940822" lon="10.21641133172787"><ele>203.0</ele><time>2026-04-04T07:30:37Z</time></trkpt><trkpt lat="44.68897511813127" lon="10.216262054549281"><ele>203.0</ele><time>2026-04-04T07:30:38Z</time></trkpt><trkpt lat="44.688771660538244" lon="10.216110128236181"><ele>202.0</ele><time>2026-04-04T07:30:39Z</time></trkpt><trkpt lat="44.68857212098321" lon="10.215950994172658"><ele>201.0</ele><time>2026-04-04T07:30:40Z</time></trkpt><trkpt lat="44.68837357562517" lon="10.215792027974038"><ele>200.5</ele><time>2026-04-04T07:30:41Z</time></trkpt><trkpt lat="44.68818361686193" lon="10.215617578013063"><ele>200.0</ele><time>2026-04-04T07:30:42Z</time></trkpt><trkpt lat="44.68800168412694" lon="10.215419503170528"><ele>200.0</ele><time>2026-04-04T07:30:43Z</time></trkpt><trkpt lat="44.68782579145106" lon="10.215217721698071"><ele>200.0</ele><time>2026-04-04T07:30:44Z</time></trkpt><trkpt lat="44.687650749649684" lon="10.215032815612267"><ele>200.0</ele><time>2026-04-04T07:30:45Z</time></trkpt><trkpt lat="44.68747587998556" lon="10.214850456805944"><ele>201.0</ele><time>2026-04-04T07:30:46Z</time></trkpt><trkpt lat="44.68729824221736" lon="10.21466205147398"><ele>202.0</ele><time>2026-04-04T07:30:47Z</time></trkpt><trkpt lat="44.687118453133714" lon="10.214476000373446"><ele>203.0</ele><time>2026-04-04T07:30:48Z</time></trkpt><trkpt lat="44.686933332127616" lon="10.214290173567996"><ele>203.66666666666669</ele><time>2026-04-04T07:30:49Z</time></trkpt><trkpt lat="44.686754034130416" lon="10.214106600262832"><ele>204.33333333333331</ele><time>2026-04-04T07:30:50Z</time></trkpt><trkpt lat="44.68657099365072" lon="10.21391602171882"><ele>205.0</ele><time>2026-04-04T07:30:51Z</time></trkpt><trkpt lat="44.686388757676404" lon="10.213726639135738"><ele>205.0</ele><time>2026-04-04T07:30:52Z</time></trkpt><trkpt lat="44.68620656168469" lon="10.213536960726662"><ele>205.0</ele><time>2026-04-04T07:30:53Z</time></trkpt><trkpt lat="44.68602361451946" lon="10.21334732354127"><ele>206.5</ele><time>2026-04-04T07:30:54Z</time></trkpt><trkpt lat="44.68583860956881" lon="10.213159400222935"><ele>208.0</ele><time>2026-04-04T07:30:55Z</time></trkpt><trkpt lat="44.68564925112528" lon="10.212973559995229"><ele>208.0</ele><time>2026-04-04T07:30:56Z</time></trkpt><trkpt lat="44.685467116811424" lon="10.212787456653665"><ele>208.0</ele><time>2026-04-04T07:30:57Z</time></trkpt><trkpt lat="44.68527624967016" lon="10.212588516453014"><ele>209.5</ele><time>2026-04-04T07:30:58Z</time></trkpt><trkpt lat="44.6850975101688" lon="10.212392928744018"><ele>211.0</ele><time>2026-04-04T07:30:58.999Z</time></trkpt><trkpt lat="44.684907142571824" lon="10.212203532876945"><ele>211.0</ele><time>2026-04-04T07:30:59.999Z</time></trkpt><trkpt lat="44.68471211440131" lon="10.212007060940417"><ele>211.0</ele><time>2026-04-04T07:31:00.999Z</time></trkpt><trkpt lat="44.68452931320941" lon="10.21180891953577"><ele>211.0</ele><time>2026-04-04T07:31:01.999Z</time></trkpt><trkpt lat="44.68433921395028" lon="10.211613793220772"><ele>211.0</ele><time>2026-04-04T07:31:02.999Z</time></trkpt><trkpt lat="44.68414681668482" lon="10.211412319769996"><ele>210.5</ele><time>2026-04-04T07:31:03.999Z</time></trkpt><trkpt lat="44.6839576598458" lon="10.211223435130881"><ele>210.0</ele><time>2026-04-04T07:31:04.999Z</time></trkpt><trkpt lat="44.68376778370573" lon="10.211030530247777"><ele>210.5</ele><time>2026-04-04T07:31:05.999Z</time></trkpt><trkpt lat="44.68358074772276" lon="10.210836062859538"><ele>211.0</ele><time>2026-04-04T07:31:06.999Z</time></trkpt><trkpt lat="44.68339404501297" lon="10.210641335153555"><ele>211.0</ele><time>2026-04-04T07:31:07.999Z</time></trkpt><trkpt lat="44.683201035493894" lon="10.210444919838633"><ele>211.0</ele><time>2026-04-04T07:31:08.999Z</time></trkpt><trkpt lat="44.68300710947291" lon="10.210249760141792"><ele>211.0</ele><time>2026-04-04T07:31:09.999Z</time></trkpt><trkpt lat="44.68280941724591" lon="10.210051144258891"><ele>211.0</ele><time>2026-04-04T07:31:10.999Z</time></trkpt><trkpt lat="44.68261688665223" lon="10.209854314778571"><ele>213.5</ele><time>2026-04-04T07:31:11.999Z</time></trkpt><trkpt lat="44.68241056715869" lon="10.209647838091913"><ele>216.0</ele><time>2026-04-04T07:31:12.999Z</time></trkpt><trkpt lat="44.68220887355864" lon="10.209450389950414"><ele>216.0</ele><time>2026-04-04T07:31:13.999Z</time></trkpt><trkpt lat="44.6820052353008" lon="10.209256373620502"><ele>216.0</ele><time>2026-04-04T07:31:14.999Z</time></trkpt><trkpt lat="44.68180537732077" lon="10.20905896364587"><ele>215.0</ele><time>2026-04-04T07:31:15.999Z</time></trkpt><trkpt lat="44.68161495581527" lon="10.208839894114005"><ele>214.0</ele><time>2026-04-04T07:31:16.999Z</time></trkpt><trkpt lat="44.68142164857762" lon="10.20864197224619"><ele>214.0</ele><time>2026-04-04T07:31:17.999Z</time></trkpt><trkpt lat="44.68122227230489" lon="10.208437679406632"><ele>214.0</ele><time>2026-04-04T07:31:18.999Z</time></trkpt><trkpt lat="44.68102750199738" lon="10.208236721057672"><ele>215.5</ele><time>2026-04-04T07:31:19.999Z</time></trkpt><trkpt lat="44.68083192439038" lon="10.20803492979928"><ele>217.0</ele><time>2026-04-04T07:31:20.999Z</time></trkpt><trkpt lat="44.68063035508377" lon="10.207848280998524"><ele>217.0</ele><time>2026-04-04T07:31:21.999Z</time></trkpt><trkpt lat="44.680439689733056" lon="10.20763494672139"><ele>217.0</ele><time>2026-04-04T07:31:22.999Z</time></trkpt><trkpt lat="44.68023831596751" lon="10.207428448852491"><ele>218.0</ele><time>2026-04-04T07:31:23.999Z</time></trkpt><trkpt lat="44.68004377616945" lon="10.20722772669839"><ele>219.0</ele><time>2026-04-04T07:31:24.999Z</time></trkpt><trkpt lat="44.679847252447004" lon="10.207026162405455"><ele>219.0</ele><time>2026-04-04T07:31:25.999Z</time></trkpt><trkpt lat="44.67965326017459" lon="10.206825572567183"><ele>219.0</ele><time>2026-04-04T07:31:26.999Z</time></trkpt><trkpt lat="44.67945355779961" lon="10.20662256055816"><ele>220.0</ele><time>2026-04-04T07:31:27.999Z</time></trkpt><trkpt lat="44.67925343963165" lon="10.206418269668275"><ele>221.0</ele><time>2026-04-04T07:31:28.999Z</time></trkpt><trkpt lat="44.67906229314789" lon="10.206219485797002"><ele>221.0</ele><time>2026-04-04T07:31:29.999Z</time></trkpt><trkpt lat="44.67886424803303" lon="10.206014340345439"><ele>221.0</ele><time>2026-04-04T07:31:30.999Z</time></trkpt><trkpt lat="44.678674330671356" lon="10.205817201319123"><ele>223.5</ele><time>2026-04-04T07:31:31.999Z</time></trkpt><trkpt lat="44.6784779845991" lon="10.205617152191877"><ele>226.0</ele><time>2026-04-04T07:31:32.999Z</time></trkpt><trkpt lat="44.67828005799382" lon="10.20541811540144"><ele>226.0</ele><time>2026-04-04T07:31:33.999Z</time></trkpt><trkpt lat="44.67808491765681" lon="10.205216518419562"><ele>226.0</ele><time>2026-04-04T07:31:34.999Z</time></trkpt><trkpt lat="44.67788855912654" lon="10.205015287544152"><ele>226.0</ele><time>2026-04-04T07:31:35.999Z</time></trkpt><trkpt lat="44.67769652893984" lon="10.204821324292439"><ele>226.0</ele><time>2026-04-04T07:31:36.999Z</time></trkpt><trkpt lat="44.677505365053776" lon="10.204630045414461"><ele>226.0</ele><time>2026-04-04T07:31:37.999Z</time></trkpt><trkpt lat="44.67731587125536" lon="10.204435545262251"><ele>226.0</ele><time>2026-04-04T07:31:38.999Z</time></trkpt><trkpt lat="44.677132162408434" lon="10.204246981196269"><ele>226.0</ele><time>2026-04-04T07:31:39.999Z</time></trkpt><trkpt lat="44.67694736642243" lon="10.204058015029586"><ele>226.0</ele><time>2026-04-04T07:31:40.999Z</time></trkpt><trkpt lat="44.67676146439036" lon="10.203867810800011"><ele>227.5</ele><time>2026-04-04T07:31:41.999Z</time></trkpt><trkpt lat="44.67658117134338" lon="10.20368384789109"><ele>229.0</ele><time>2026-04-04T07:31:42.999Z</time></trkpt><trkpt lat="44.67639527780233" lon="10.203491921910636"><ele>229.0</ele><time>2026-04-04T07:31:43.999Z</time></trkpt><trkpt lat="44.676208839215306" lon="10.203300856959405"><ele>229.0</ele><time>2026-04-04T07:31:44.999Z</time></trkpt><trkpt lat="44.67601804383623" lon="10.203110600735029"><ele>227.5</ele><time>2026-04-04T07:31:45.999Z</time></trkpt><trkpt lat="44.67582439902322" lon="10.202926083112004"><ele>226.0</ele><time>2026-04-04T07:31:46.999Z</time></trkpt><trkpt lat="44.67563131517176" lon="10.202763286344483"><ele>226.0</ele><time>2026-04-04T07:31:48Z</time></trkpt><trkpt lat="44.675428205715384" lon="10.202609910279177"><ele>226.0</ele><time>2026-04-04T07:31:49Z</time></trkpt><trkpt lat="44.67522962144331" lon="10.20246256016015"><ele>226.0</ele><time>2026-04-04T07:31:50Z</time></trkpt><trkpt lat="44.67502986752497" lon="10.202310005047698"><ele>226.0</ele><time>2026-04-04T07:31:51Z</time></trkpt><trkpt lat="44.67483095136851" lon="10.202156168283432"><ele>226.0</ele><time>2026-04-04T07:31:52Z</time></trkpt><trkpt lat="44.67463290355988" lon="10.20200170042278"><ele>226.0</ele><time>2026-04-04T07:31:53Z</time></trkpt><trkpt lat="44.67442936534195" lon="10.201846860855472"><ele>226.66666666666666</ele><time>2026-04-04T07:31:54Z</time></trkpt><trkpt lat="44.67423508035696" lon="10.201698154078798"><ele>227.33333333333331</ele><time>2026-04-04T07:31:55Z</time></trkpt><trkpt lat="44.67403774097811" lon="10.20154698290799"><ele>228.0</ele><time>2026-04-04T07:31:56Z</time></trkpt><trkpt lat="44.67384292519717" lon="10.201399829047109"><ele>228.33333333333331</ele><time>2026-04-04T07:31:57Z</time></trkpt><trkpt lat="44.673649679912295" lon="10.201249743425567"><ele>228.66666666666666</ele><time>2026-04-04T07:31:58Z</time></trkpt><trkpt lat="44.67347233661995" lon="10.20110470826682"><ele>229.0</ele><time>2026-04-04T07:31:59Z</time></trkpt><trkpt lat="44.67329919061619" lon="10.200936078009974"><ele>229.66666666666666</ele><time>2026-04-04T07:32:00Z</time></trkpt><trkpt lat="44.67316185166283" lon="10.20074504453353"><ele>230.33333333333331</ele><time>2026-04-04T07:32:01Z</time></trkpt><trkpt lat="44.673038821438865" lon="10.200506797469"><ele>231.0</ele><time>2026-04-04T07:32:02Z</time></trkpt><trkpt lat="44.672922461671995" lon="10.20024368195052"><ele>231.0</ele><time>2026-04-04T07:32:03Z</time></trkpt><trkpt lat="44.67278878177192" lon="10.199966177118537"><ele>231.0</ele><time>2026-04-04T07:32:04Z</time></trkpt><trkpt lat="44.67265024025648" lon="10.19970971806978"><ele>230.66666666666669</ele><time>2026-04-04T07:32:05Z</time></trkpt><trkpt lat="44.67251239584636" lon="10.199464099194937"><ele>230.33333333333334</ele><time>2026-04-04T07:32:06Z</time></trkpt><trkpt lat="44.67237500425291" lon="10.19921540534244"><ele>230.0</ele><time>2026-04-04T07:32:07Z</time></trkpt><trkpt lat="44.67223921753833" lon="10.198957760630215"><ele>230.66666666666669</ele><time>2026-04-04T07:32:08Z</time></trkpt><trkpt lat="44.67210421118099" lon="10.198708193591374"><ele>231.33333333333331</ele><time>2026-04-04T07:32:09Z</time></trkpt><trkpt lat="44.671966052337545" lon="10.198458778155702"><ele>232.0</ele><time>2026-04-04T07:32:10Z</time></trkpt><trkpt lat="44.67183545751228" lon="10.198219063903597"><ele>233.66666666666666</ele><time>2026-04-04T07:32:11Z</time></trkpt><trkpt lat="44.67170369367645" lon="10.19797705530081"><ele>235.33333333333331</ele><time>2026-04-04T07:32:12Z</time></trkpt><trkpt lat="44.67157356321639" lon="10.197739113773803"><ele>237.0</ele><time>2026-04-04T07:32:13Z</time></trkpt><trkpt lat="44.67144391176024" lon="10.197492734371554"><ele>238.0</ele><time>2026-04-04T07:32:14Z</time></trkpt><trkpt lat="44.67130656611595" lon="10.197194943070288"><ele>239.0</ele><time>2026-04-04T07:32:15Z</time></trkpt><trkpt lat="44.67113027445724" lon="10.196922660515025"><ele>238.66666666666669</ele><time>2026-04-04T07:32:16Z</time></trkpt><trkpt lat="44.67105739168407" lon="10.19682952494273"><ele>238.33333333333331</ele><time>2026-04-04T07:32:17Z</time></trkpt><trkpt lat="44.67089847090478" lon="10.196652723872313"><ele>238.0</ele><time>2026-04-04T07:32:18Z</time></trkpt><trkpt lat="44.67073154295961" lon="10.19649535229112"><ele>238.66666666666666</ele><time>2026-04-04T07:32:19Z</time></trkpt><trkpt lat="44.670574191373454" lon="10.196337924270937"><ele>239.33333333333331</ele><time>2026-04-04T07:32:20Z</time></trkpt><trkpt lat="44.67041843136327" lon="10.196183799914094"><ele>240.0</ele><time>2026-04-04T07:32:21Z</time></trkpt><trkpt lat="44.67026987581329" lon="10.19602908667628"><ele>240.33333333333331</ele><time>2026-04-04T07:32:22Z</time></trkpt><trkpt lat="44.670121912829295" lon="10.195867123515148"><ele>240.66666666666666</ele><time>2026-04-04T07:32:23Z</time></trkpt><trkpt lat="44.66996918711261" lon="10.19570671791536"><ele>241.0</ele><time>2026-04-04T07:32:24Z</time></trkpt><trkpt lat="44.66981536078513" lon="10.195543603291869"><ele>241.33333333333331</ele><time>2026-04-04T07:32:25Z</time></trkpt><trkpt lat="44.66965871094753" lon="10.19538030618022"><ele>241.66666666666669</ele><time>2026-04-04T07:32:26Z</time></trkpt><trkpt lat="44.66950126400263" lon="10.195213948696818"><ele>242.0</ele><time>2026-04-04T07:32:27Z</time></trkpt><trkpt lat="44.66934287856936" lon="10.195050063780062"><ele>242.0</ele><time>2026-04-04T07:32:28Z</time></trkpt><trkpt lat="44.66918075582193" lon="10.194878095221299"><ele>242.0</ele><time>2026-04-04T07:32:29Z</time></trkpt><trkpt lat="44.669021637686384" lon="10.194709343360104"><ele>242.0</ele><time>2026-04-04T07:32:30Z</time></trkpt><trkpt lat="44.66886240000818" lon="10.194546408629824"><ele>242.33333333333334</ele><time>2026-04-04T07:32:31Z</time></trkpt><trkpt lat="44.66870318818973" lon="10.194384993445121"><ele>242.66666666666669</ele><time>2026-04-04T07:32:32Z</time></trkpt><trkpt lat="44.66854542382754" lon="10.194222332886474"><ele>243.0</ele><time>2026-04-04T07:32:33Z</time></trkpt><trkpt lat="44.668390963689" lon="10.194057795691979"><ele>243.0</ele><time>2026-04-04T07:32:34Z</time></trkpt><trkpt lat="44.66823601800436" lon="10.193894156068554"><ele>243.0</ele><time>2026-04-04T07:32:35Z</time></trkpt><trkpt lat="44.66807785996404" lon="10.193730662357055"><ele>243.0</ele><time>2026-04-04T07:32:36Z</time></trkpt><trkpt lat="44.66791438968813" lon="10.193564990415481"><ele>243.5</ele><time>2026-04-04T07:32:37Z</time></trkpt><trkpt lat="44.66773991693275" lon="10.193387777101556"><ele>244.0</ele><time>2026-04-04T07:32:38Z</time></trkpt><trkpt lat="44.66755539241215" lon="10.193183654248697"><ele>245.0</ele><time>2026-04-04T07:32:39Z</time></trkpt><trkpt lat="44.66738862829083" lon="10.193009937316067"><ele>246.0</ele><time>2026-04-04T07:32:40Z</time></trkpt><trkpt lat="44.66724337903452" lon="10.19286532087955"><ele>247.0</ele><time>2026-04-04T07:32:41Z</time></trkpt><trkpt lat="44.66711768825001" lon="10.192729253382245"><ele>247.0</ele><time>2026-04-04T07:32:42Z</time></trkpt><trkpt lat="44.66700637022859" lon="10.192597771284829"><ele>247.0</ele><time>2026-04-04T07:32:43Z</time></trkpt><trkpt lat="44.666901125003484" lon="10.192478243537257"><ele>247.0</ele><time>2026-04-04T07:32:44Z</time></trkpt><trkpt lat="44.66680091653552" lon="10.192364722787877"><ele>247.0</ele><time>2026-04-04T07:32:45Z</time></trkpt><trkpt lat="44.6667005562289" lon="10.192253432734333"><ele>247.5</ele><time>2026-04-04T07:32:46Z</time></trkpt><trkpt lat="44.66658916925691" lon="10.192134559131889"><ele>248.0</ele><time>2026-04-04T07:32:47Z</time></trkpt><trkpt lat="44.66647897354114" lon="10.192004456387114"><ele>248.5</ele><time>2026-04-04T07:32:48Z</time></trkpt><trkpt lat="44.666365786085436" lon="10.19186418849564"><ele>249.0</ele><time>2026-04-04T07:32:49Z</time></trkpt><trkpt lat="44.66624299125819" lon="10.191735463640635"><ele>249.0</ele><time>2026-04-04T07:32:50Z</time></trkpt><trkpt lat="44.66612101331934" lon="10.191594136869234"><ele>249.0</ele><time>2026-04-04T07:32:51Z</time></trkpt><trkpt lat="44.66600471809022" lon="10.19146434697964"><ele>249.0</ele><time>2026-04-04T07:32:52Z</time></trkpt><trkpt lat="44.665902159198154" lon="10.191346938463647"><ele>249.0</ele><time>2026-04-04T07:32:53Z</time></trkpt><trkpt lat="44.66580986689634" lon="10.191238385193317"><ele>248.75</ele><time>2026-04-04T07:32:54Z</time></trkpt><trkpt lat="44.6657207828835" lon="10.191128367071508"><ele>248.5</ele><time>2026-04-04T07:32:55Z</time></trkpt><trkpt lat="44.66562702730417" lon="10.191001583740709"><ele>248.25</ele><time>2026-04-04T07:32:56Z</time></trkpt><trkpt lat="44.66553263056649" lon="10.190850963459892"><ele>248.0</ele><time>2026-04-04T07:32:57Z</time></trkpt><trkpt lat="44.6654315805386" lon="10.190712218599415"><ele>248.0</ele><time>2026-04-04T07:32:58Z</time></trkpt><trkpt lat="44.665324047445544" lon="10.190572449259614"><ele>248.0</ele><time>2026-04-04T07:32:59Z</time></trkpt><trkpt lat="44.66521453117616" lon="10.190431843211435"><ele>248.0</ele><time>2026-04-04T07:33:00Z</time></trkpt><trkpt lat="44.665110174130554" lon="10.190290960383011"><ele>248.0</ele><time>2026-04-04T07:33:01Z</time></trkpt><trkpt lat="44.66500381867239" lon="10.190147446409535"><ele>248.0</ele><time>2026-04-04T07:33:02Z</time></trkpt><trkpt lat="44.66489518450595" lon="10.190000004855408"><ele>248.0</ele><time>2026-04-04T07:33:03Z</time></trkpt><trkpt lat="44.66478733704518" lon="10.189857792586869"><ele>248.0</ele><time>2026-04-04T07:33:04Z</time></trkpt><trkpt lat="44.664678826399985" lon="10.189709885056482"><ele>248.33333333333334</ele><time>2026-04-04T07:33:04.999Z</time></trkpt><trkpt lat="44.6645663290089" lon="10.189569049877596"><ele>248.66666666666669</ele><time>2026-04-04T07:33:05.999Z</time></trkpt><trkpt lat="44.664466522245625" lon="10.189405603916054"><ele>249.0</ele><time>2026-04-04T07:33:06.999Z</time></trkpt><trkpt lat="44.664353672704365" lon="10.189252614410893"><ele>249.66666666666669</ele><time>2026-04-04T07:33:07.999Z</time></trkpt><trkpt lat="44.66422374960059" lon="10.189102947834298"><ele>250.33333333333334</ele><time>2026-04-04T07:33:08.999Z</time></trkpt><trkpt lat="44.66410251104426" lon="10.188929141167016"><ele>251.0</ele><time>2026-04-04T07:33:09.999Z</time></trkpt><trkpt lat="44.66397583212664" lon="10.18875015427448"><ele>252.0</ele><time>2026-04-04T07:33:10.999Z</time></trkpt><trkpt lat="44.6638541206324" lon="10.188569377021926"><ele>253.0</ele><time>2026-04-04T07:33:11.999Z</time></trkpt><trkpt lat="44.66375585977299" lon="10.188355863401766"><ele>254.0</ele><time>2026-04-04T07:33:12.999Z</time></trkpt><trkpt lat="44.66363947285415" lon="10.188141890264701"><ele>254.0</ele><time>2026-04-04T07:33:13.999Z</time></trkpt><trkpt lat="44.663540681520786" lon="10.187888804669575"><ele>254.0</ele><time>2026-04-04T07:33:14.999Z</time></trkpt><trkpt lat="44.66345366441889" lon="10.187647605546717"><ele>254.0</ele><time>2026-04-04T07:33:15.999Z</time></trkpt><trkpt lat="44.6633607321891" lon="10.187399318671414"><ele>255.0</ele><time>2026-04-04T07:33:16.999Z</time></trkpt><trkpt lat="44.66325999350571" lon="10.187146789785942"><ele>256.0</ele><time>2026-04-04T07:33:17.999Z</time></trkpt><trkpt lat="44.66315164866347" lon="10.186905883751265"><ele>257.0</ele><time>2026-04-04T07:33:18.999Z</time></trkpt><trkpt lat="44.663033359985846" lon="10.186671540805309"><ele>258.0</ele><time>2026-04-04T07:33:19.999Z</time></trkpt><trkpt lat="44.662891958278166" lon="10.186465029801168"><ele>259.0</ele><time>2026-04-04T07:33:20.999Z</time></trkpt><trkpt lat="44.6627090158129" lon="10.186283695000116"><ele>260.0</ele><time>2026-04-04T07:33:21.999Z</time></trkpt><trkpt lat="44.662507061596195" lon="10.186100899192448"><ele>260.0</ele><time>2026-04-04T07:33:22.999Z</time></trkpt><trkpt lat="44.66229711865785" lon="10.185915126737541"><ele>260.0</ele><time>2026-04-04T07:33:23.999Z</time></trkpt><trkpt lat="44.662083623839884" lon="10.18572624979818"><ele>261.5</ele><time>2026-04-04T07:33:24.999Z</time></trkpt><trkpt lat="44.661880257992905" lon="10.185543559411531"><ele>263.0</ele><time>2026-04-04T07:33:25.999Z</time></trkpt><trkpt lat="44.661677479401654" lon="10.185350422029671"><ele>263.0</ele><time>2026-04-04T07:33:26.999Z</time></trkpt><trkpt lat="44.66147553176795" lon="10.185158852277057"><ele>263.0</ele><time>2026-04-04T07:33:27.999Z</time></trkpt><trkpt lat="44.661272727751836" lon="10.184972166131171"><ele>264.0</ele><time>2026-04-04T07:33:28.999Z</time></trkpt><trkpt lat="44.661050537676246" lon="10.184782288715866"><ele>265.0</ele><time>2026-04-04T07:33:29.999Z</time></trkpt><trkpt lat="44.660809496746296" lon="10.184615260436729"><ele>265.0</ele><time>2026-04-04T07:33:30.999Z</time></trkpt><trkpt lat="44.66055599717714" lon="10.184449174716994"><ele>265.0</ele><time>2026-04-04T07:33:31.999Z</time></trkpt><trkpt lat="44.66030546318776" lon="10.184278674565595"><ele>266.5</ele><time>2026-04-04T07:33:32.999Z</time></trkpt><trkpt lat="44.66006279165859" lon="10.184116371189331"><ele>268.0</ele><time>2026-04-04T07:33:33.999Z</time></trkpt><trkpt lat="44.659827012018525" lon="10.183956564006417"><ele>268.0</ele><time>2026-04-04T07:33:34.999Z</time></trkpt><trkpt lat="44.65959134433601" lon="10.18379604992939"><ele>268.0</ele><time>2026-04-04T07:33:35.999Z</time></trkpt><trkpt lat="44.659356105291884" lon="10.183633410086149"><ele>266.0</ele><time>2026-04-04T07:33:36.999Z</time></trkpt><trkpt lat="44.659124962941426" lon="10.18346719782292"><ele>264.0</ele><time>2026-04-04T07:33:37.999Z</time></trkpt><trkpt lat="44.65889025620697" lon="10.183300875045687"><ele>266.0</ele><time>2026-04-04T07:33:38.999Z</time></trkpt><trkpt lat="44.65865559910397" lon="10.183140455437684"><ele>268.0</ele><time>2026-04-04T07:33:39.999Z</time></trkpt><trkpt lat="44.6584118108533" lon="10.18297253874433"><ele>268.0</ele><time>2026-04-04T07:33:40.999Z</time></trkpt><trkpt lat="44.65816759099942" lon="10.18280813403427"><ele>268.0</ele><time>2026-04-04T07:33:41.999Z</time></trkpt><trkpt lat="44.65792393197504" lon="10.182648402821634"><ele>266.0</ele><time>2026-04-04T07:33:42.999Z</time></trkpt><trkpt lat="44.65768563245802" lon="10.182459600456653"><ele>264.0</ele><time>2026-04-04T07:33:43.999Z</time></trkpt><trkpt lat="44.65744587605639" lon="10.182293737181073"><ele>269.0</ele><time>2026-04-04T07:33:44.999Z</time></trkpt><trkpt lat="44.65720298678615" lon="10.182124586727797"><ele>274.0</ele><time>2026-04-04T07:33:45.999Z</time></trkpt><trkpt lat="44.656956603323394" lon="10.181953003131117"><ele>271.0</ele><time>2026-04-04T07:33:46.999Z</time></trkpt><trkpt lat="44.65671708726709" lon="10.18178581610505"><ele>268.0</ele><time>2026-04-04T07:33:47.999Z</time></trkpt><trkpt lat="44.65646953275748" lon="10.181612447621935"><ele>270.0</ele><time>2026-04-04T07:33:48.999Z</time></trkpt><trkpt lat="44.656229896255375" lon="10.181444622450881"><ele>272.0</ele><time>2026-04-04T07:33:49.999Z</time></trkpt><trkpt lat="44.65597373083438" lon="10.18128908773937"><ele>272.0</ele><time>2026-04-04T07:33:50.999Z</time></trkpt><trkpt lat="44.65572600230091" lon="10.1811111197314"><ele>272.0</ele><time>2026-04-04T07:33:51.999Z</time></trkpt><trkpt lat="44.6554715022638" lon="10.180927451760455"><ele>270.0</ele><time>2026-04-04T07:33:52.999Z</time></trkpt><trkpt lat="44.65521203010374" lon="10.180748365708055"><ele>268.0</ele><time>2026-04-04T07:33:54Z</time></trkpt><trkpt lat="44.65495613953793" lon="10.180566647021852"><ele>270.0</ele><time>2026-04-04T07:33:55Z</time></trkpt><trkpt lat="44.65469274000795" lon="10.180391157778915"><ele>272.0</ele><time>2026-04-04T07:33:56Z</time></trkpt><trkpt lat="44.65443008574725" lon="10.180209840050932"><ele>272.0</ele><time>2026-04-04T07:33:57Z</time></trkpt><trkpt lat="44.65416965154667" lon="10.180031634299322"><ele>272.0</ele><time>2026-04-04T07:33:58Z</time></trkpt><trkpt lat="44.65391515270158" lon="10.17985424672392"><ele>275.0</ele><time>2026-04-04T07:33:59Z</time></trkpt><trkpt lat="44.65364485399027" lon="10.179670617375226"><ele>278.0</ele><time>2026-04-04T07:34:00Z</time></trkpt><trkpt lat="44.653391188420045" lon="10.179486700901851"><ele>278.0</ele><time>2026-04-04T07:34:01Z</time></trkpt><trkpt lat="44.65313546712428" lon="10.179304472625475"><ele>278.0</ele><time>2026-04-04T07:34:02Z</time></trkpt><trkpt lat="44.65287725219699" lon="10.179119138668442"><ele>278.5</ele><time>2026-04-04T07:34:03Z</time></trkpt><trkpt lat="44.6526134110128" lon="10.178938428537808"><ele>279.0</ele><time>2026-04-04T07:34:04Z</time></trkpt><trkpt lat="44.652348508513995" lon="10.178755410712135"><ele>279.0</ele><time>2026-04-04T07:34:05Z</time></trkpt><trkpt lat="44.65209293150731" lon="10.17857681746867"><ele>279.0</ele><time>2026-04-04T07:34:06Z</time></trkpt><trkpt lat="44.65184995361317" lon="10.178405243813614"><ele>277.5</ele><time>2026-04-04T07:34:07Z</time></trkpt><trkpt lat="44.65161952519994" lon="10.178243475300102"><ele>276.0</ele><time>2026-04-04T07:34:08Z</time></trkpt><trkpt lat="44.651393951178285" lon="10.178089952440555"><ele>280.0</ele><time>2026-04-04T07:34:09Z</time></trkpt><trkpt lat="44.651158746143864" lon="10.177928404364636"><ele>284.0</ele><time>2026-04-04T07:34:10Z</time></trkpt><trkpt lat="44.65092953251485" lon="10.17777031252017"><ele>284.0</ele><time>2026-04-04T07:34:11Z</time></trkpt><trkpt lat="44.650727972442326" lon="10.177636725128181"><ele>284.0</ele><time>2026-04-04T07:34:12Z</time></trkpt><trkpt lat="44.65055162388527" lon="10.17748680721569"><ele>284.0</ele><time>2026-04-04T07:34:13Z</time></trkpt><trkpt lat="44.65036092004305" lon="10.177387121642962"><ele>285.0</ele><time>2026-04-04T07:34:14Z</time></trkpt><trkpt lat="44.65015668383487" lon="10.177282214561668"><ele>286.0</ele><time>2026-04-04T07:34:15Z</time></trkpt><trkpt lat="44.64991548448017" lon="10.177194254801385"><ele>286.0</ele><time>2026-04-04T07:34:16Z</time></trkpt><trkpt lat="44.64966912250649" lon="10.17710480813527"><ele>286.0</ele><time>2026-04-04T07:34:17Z</time></trkpt><trkpt lat="44.6494325141629" lon="10.177013107624177"><ele>285.5</ele><time>2026-04-04T07:34:18Z</time></trkpt><trkpt lat="44.64919754631058" lon="10.176918822816098"><ele>285.0</ele><time>2026-04-04T07:34:19Z</time></trkpt><trkpt lat="44.64896322086905" lon="10.17682740709326"><ele>285.0</ele><time>2026-04-04T07:34:20Z</time></trkpt><trkpt lat="44.64872126829134" lon="10.176726420160461"><ele>285.0</ele><time>2026-04-04T07:34:21Z</time></trkpt><trkpt lat="44.64847272167563" lon="10.17662100180139"><ele>286.5</ele><time>2026-04-04T07:34:22Z</time></trkpt><trkpt lat="44.648226310812404" lon="10.176518897488858"><ele>288.0</ele><time>2026-04-04T07:34:23Z</time></trkpt><trkpt lat="44.64798156198643" lon="10.176421270556949"><ele>288.0</ele><time>2026-04-04T07:34:24Z</time></trkpt><trkpt lat="44.64774718203462" lon="10.176329833681505"><ele>288.0</ele><time>2026-04-04T07:34:25Z</time></trkpt><trkpt lat="44.64751580997303" lon="10.176235961133095"><ele>288.0</ele><time>2026-04-04T07:34:26Z</time></trkpt><trkpt lat="44.647294226531706" lon="10.176158784721434"><ele>288.0</ele><time>2026-04-04T07:34:27Z</time></trkpt><trkpt lat="44.64706046937261" lon="10.176107253981465"><ele>288.5</ele><time>2026-04-04T07:34:28Z</time></trkpt><trkpt lat="44.646816760970694" lon="10.176109105059659"><ele>289.0</ele><time>2026-04-04T07:34:29Z</time></trkpt><trkpt lat="44.646567639347076" lon="10.1761246574937"><ele>289.0</ele><time>2026-04-04T07:34:30Z</time></trkpt><trkpt lat="44.64631532696247" lon="10.176124989845372"><ele>289.0</ele><time>2026-04-04T07:34:31Z</time></trkpt><trkpt lat="44.646071750526445" lon="10.176122040863799"><ele>288.66666666666663</ele><time>2026-04-04T07:34:32Z</time></trkpt><trkpt lat="44.645854327196126" lon="10.176119811857761"><ele>288.3333333333333</ele><time>2026-04-04T07:34:33Z</time></trkpt><trkpt lat="44.64565911452871" lon="10.17610972866987"><ele>288.0</ele><time>2026-04-04T07:34:34Z</time></trkpt><trkpt lat="44.64547610595934" lon="10.176077002119591"><ele>288.6666666666667</ele><time>2026-04-04T07:34:35Z</time></trkpt><trkpt lat="44.64526637591152" lon="10.17600929696254"><ele>289.33333333333337</ele><time>2026-04-04T07:34:36Z</time></trkpt><trkpt lat="44.64504954658946" lon="10.17591685489494"><ele>290.0</ele><time>2026-04-04T07:34:37Z</time></trkpt><trkpt lat="44.64482127993257" lon="10.175793715920955"><ele>290.5</ele><time>2026-04-04T07:34:38Z</time></trkpt><trkpt lat="44.64460337881835" lon="10.17564900296529"><ele>291.0</ele><time>2026-04-04T07:34:39Z</time></trkpt><trkpt lat="44.64437622406094" lon="10.175496409095954"><ele>291.0</ele><time>2026-04-04T07:34:40Z</time></trkpt><trkpt lat="44.64414637025556" lon="10.1753485411935"><ele>291.0</ele><time>2026-04-04T07:34:41Z</time></trkpt><trkpt lat="44.64391634219794" lon="10.175204872011676"><ele>291.0</ele><time>2026-04-04T07:34:42Z</time></trkpt><trkpt lat="44.64368586433624" lon="10.175057802513757"><ele>291.0</ele><time>2026-04-04T07:34:43Z</time></trkpt><trkpt lat="44.643459397410474" lon="10.174912300994828"><ele>293.0</ele><time>2026-04-04T07:34:44Z</time></trkpt><trkpt lat="44.643241583704814" lon="10.17478207376563"><ele>295.0</ele><time>2026-04-04T07:34:45Z</time></trkpt><trkpt lat="44.643034714873956" lon="10.17466200054891"><ele>295.0</ele><time>2026-04-04T07:34:46Z</time></trkpt><trkpt lat="44.642832712119954" lon="10.174523029341733"><ele>295.0</ele><time>2026-04-04T07:34:47Z</time></trkpt><trkpt lat="44.64265134508144" lon="10.17431066101338"><ele>293.5</ele><time>2026-04-04T07:34:48Z</time></trkpt><trkpt lat="44.64244717690999" lon="10.174090092961032"><ele>292.0</ele><time>2026-04-04T07:34:49Z</time></trkpt><trkpt lat="44.64224323444324" lon="10.17384227046634"><ele>292.5</ele><time>2026-04-04T07:34:50Z</time></trkpt><trkpt lat="44.64204146193595" lon="10.17361201216082"><ele>293.0</ele><time>2026-04-04T07:34:51Z</time></trkpt><trkpt lat="44.6418449554961" lon="10.173389243002797"><ele>296.5</ele><time>2026-04-04T07:34:52Z</time></trkpt><trkpt lat="44.64165107346309" lon="10.173161301529694"><ele>300.0</ele><time>2026-04-04T07:34:53Z</time></trkpt><trkpt lat="44.6414549910391" lon="10.172937247330703"><ele>300.0</ele><time>2026-04-04T07:34:54Z</time></trkpt><trkpt lat="44.64126454287958" lon="10.172720760769534"><ele>300.0</ele><time>2026-04-04T07:34:55Z</time></trkpt><trkpt lat="44.6410714074705" lon="10.172496101157963"><ele>305.5</ele><time>2026-04-04T07:34:56Z</time></trkpt><trkpt lat="44.64088637556609" lon="10.172281595375651"><ele>311.0</ele><time>2026-04-04T07:34:57Z</time></trkpt><trkpt lat="44.640704635246365" lon="10.172097125580477"><ele>311.0</ele><time>2026-04-04T07:34:58Z</time></trkpt><trkpt lat="44.640504632282116" lon="10.17195051309844"><ele>311.0</ele><time>2026-04-04T07:34:59Z</time></trkpt><trkpt lat="44.64027447849207" lon="10.171853958345576"><ele>307.5</ele><time>2026-04-04T07:35:00Z</time></trkpt><trkpt lat="44.64001751138" lon="10.171777854124679"><ele>304.0</ele><time>2026-04-04T07:35:01Z</time></trkpt><trkpt lat="44.63976385728482" lon="10.17168612740833"><ele>304.0</ele><time>2026-04-04T07:35:02Z</time></trkpt><trkpt lat="44.63951244219127" lon="10.171574575345709"><ele>304.0</ele><time>2026-04-04T07:35:03Z</time></trkpt><trkpt lat="44.63926125667302" lon="10.171437318405777"><ele>307.5</ele><time>2026-04-04T07:35:04Z</time></trkpt><trkpt lat="44.639022115124135" lon="10.171293693581234"><ele>311.0</ele><time>2026-04-04T07:35:05Z</time></trkpt><trkpt lat="44.638801546315015" lon="10.171166616925921"><ele>309.0</ele><time>2026-04-04T07:35:06Z</time></trkpt><trkpt lat="44.638596793202545" lon="10.171048146512208"><ele>307.0</ele><time>2026-04-04T07:35:07Z</time></trkpt><trkpt lat="44.63840272459375" lon="10.170941485163626"><ele>305.0</ele><time>2026-04-04T07:35:08Z</time></trkpt><trkpt lat="44.63820023593568" lon="10.170860279157704"><ele>305.0</ele><time>2026-04-04T07:35:09Z</time></trkpt><trkpt lat="44.637977240781325" lon="10.170846817177745"><ele>305.0</ele><time>2026-04-04T07:35:10Z</time></trkpt><trkpt lat="44.63772840033037" lon="10.170860732898719"><ele>303.0</ele><time>2026-04-04T07:35:11Z</time></trkpt><trkpt lat="44.63749381429356" lon="10.170859854042279"><ele>301.0</ele><time>2026-04-04T07:35:12Z</time></trkpt><trkpt lat="44.63726058718113" lon="10.17078218121753"><ele>301.0</ele><time>2026-04-04T07:35:13Z</time></trkpt><trkpt lat="44.63702331650804" lon="10.170697462931345"><ele>301.0</ele><time>2026-04-04T07:35:14Z</time></trkpt><trkpt lat="44.63678664559233" lon="10.170624182668014"><ele>304.0</ele><time>2026-04-04T07:35:15Z</time></trkpt><trkpt lat="44.63657482852465" lon="10.170537810878852"><ele>307.0</ele><time>2026-04-04T07:35:15.999Z</time></trkpt><trkpt lat="44.63638426946354" lon="10.170462735765083"><ele>310.0</ele><time>2026-04-04T07:35:16.999Z</time></trkpt><trkpt lat="44.636240422496094" lon="10.17040639307219"><ele>309.6</ele><time>2026-04-04T07:35:17.999Z</time></trkpt><trkpt lat="44.63611574044543" lon="10.170349793240556"><ele>309.2</ele><time>2026-04-04T07:35:18.999Z</time></trkpt><trkpt lat="44.63601652428656" lon="10.170304977069762"><ele>308.8</ele><time>2026-04-04T07:35:19.999Z</time></trkpt><trkpt lat="44.63592740213118" lon="10.170272036431669"><ele>308.4</ele><time>2026-04-04T07:35:20.999Z</time></trkpt><trkpt lat="44.635834042266445" lon="10.17023830117178"><ele>308.0</ele><time>2026-04-04T07:35:21.999Z</time></trkpt><trkpt lat="44.63573719366408" lon="10.170166734630648"><ele>308.0</ele><time>2026-04-04T07:35:22.999Z</time></trkpt><trkpt lat="44.635629701180484" lon="10.170079772461852"><ele>308.0</ele><time>2026-04-04T07:35:23.999Z</time></trkpt><trkpt lat="44.635513309930005" lon="10.169996319851233"><ele>308.0</ele><time>2026-04-04T07:35:24.999Z</time></trkpt><trkpt lat="44.63542249887952" lon="10.169914884911066"><ele>308.0</ele><time>2026-04-04T07:35:25.999Z</time></trkpt><trkpt lat="44.63534484461927" lon="10.16988241292952"><ele>308.0</ele><time>2026-04-04T07:35:26.999Z</time></trkpt><trkpt lat="44.635259569437196" lon="10.169874385035548"><ele>307.8</ele><time>2026-04-04T07:35:27.999Z</time></trkpt><trkpt lat="44.635180174574636" lon="10.169886713484372"><ele>307.6</ele><time>2026-04-04T07:35:28.999Z</time></trkpt><trkpt lat="44.63509212984142" lon="10.169926720176807"><ele>307.4</ele><time>2026-04-04T07:35:29.999Z</time></trkpt><trkpt lat="44.635009237425706" lon="10.170002967478409"><ele>307.2</ele><time>2026-04-04T07:35:30.999Z</time></trkpt><trkpt lat="44.63494318066567" lon="10.170120655500021"><ele>307.0</ele><time>2026-04-04T07:35:31.999Z</time></trkpt><trkpt lat="44.634909921501034" lon="10.17026672452612"><ele>307.0</ele><time>2026-04-04T07:35:32.999Z</time></trkpt><trkpt lat="44.63488897525574" lon="10.170440405711973"><ele>307.0</ele><time>2026-04-04T07:35:33.999Z</time></trkpt><trkpt lat="44.63488034129552" lon="10.170604534538517"><ele>307.0</ele><time>2026-04-04T07:35:34.999Z</time></trkpt><trkpt lat="44.6348745642313" lon="10.170772456591894"><ele>307.0</ele><time>2026-04-04T07:35:35.999Z</time></trkpt><trkpt lat="44.63484255759811" lon="10.17094749963465"><ele>306.5</ele><time>2026-04-04T07:35:36.999Z</time></trkpt><trkpt lat="44.634825140187814" lon="10.171141101017435"><ele>306.0</ele><time>2026-04-04T07:35:37.999Z</time></trkpt><trkpt lat="44.63480656982964" lon="10.171338499448375"><ele>305.5</ele><time>2026-04-04T07:35:38.999Z</time></trkpt><trkpt lat="44.634803845673126" lon="10.17153833247877"><ele>305.0</ele><time>2026-04-04T07:35:39.999Z</time></trkpt><trkpt lat="44.63478272313057" lon="10.171713011024007"><ele>304.8</ele><time>2026-04-04T07:35:40.999Z</time></trkpt><trkpt lat="44.63477301633209" lon="10.1718498311806"><ele>304.6</ele><time>2026-04-04T07:35:41.999Z</time></trkpt><trkpt lat="44.63475067333457" lon="10.172009930600353"><ele>304.4</ele><time>2026-04-04T07:35:43.999Z</time></trkpt><trkpt lat="44.63471886386625" lon="10.172125669285764"><ele>304.2</ele><time>2026-04-04T07:35:45.999Z</time></trkpt><trkpt lat="44.63458301390013" lon="10.172142672703858"><ele>304.0</ele><time>2026-04-04T07:35:53.999Z</time></trkpt><trkpt lat="44.634443695261325" lon="10.172079839384883"><ele>304.66666666666663</ele><time>2026-04-04T07:35:54.999Z</time></trkpt><trkpt lat="44.634308467646264" lon="10.172035273120422"><ele>305.3333333333333</ele><time>2026-04-04T07:35:55.999Z</time></trkpt><trkpt lat="44.63413571887479" lon="10.172000953949048"><ele>306.0</ele><time>2026-04-04T07:35:56.999Z</time></trkpt><trkpt lat="44.633968232798104" lon="10.17194020046024"><ele>306.0</ele><time>2026-04-04T07:35:57.999Z</time></trkpt><trkpt lat="44.63379573733442" lon="10.171883212160909"><ele>306.0</ele><time>2026-04-04T07:35:58.999Z</time></trkpt><trkpt lat="44.63365178269708" lon="10.171827843448424"><ele>306.0</ele><time>2026-04-04T07:36:00Z</time></trkpt><trkpt lat="44.63351479213407" lon="10.171751379105974"><ele>307.75</ele><time>2026-04-04T07:36:01Z</time></trkpt><trkpt lat="44.63337516626082" lon="10.171653438834209"><ele>309.5</ele><time>2026-04-04T07:36:02Z</time></trkpt><trkpt lat="44.633242865116564" lon="10.171580737195159"><ele>311.25</ele><time>2026-04-04T07:36:03Z</time></trkpt><trkpt lat="44.633113339044776" lon="10.171538974552663"><ele>313.0</ele><time>2026-04-04T07:36:04Z</time></trkpt><trkpt lat="44.63297263546376" lon="10.171533508678648"><ele>313.0</ele><time>2026-04-04T07:36:05Z</time></trkpt><trkpt lat="44.63282404349893" lon="10.171551026312686"><ele>313.0</ele><time>2026-04-04T07:36:06Z</time></trkpt><trkpt lat="44.63269374384306" lon="10.171614867851883"><ele>313.0</ele><time>2026-04-04T07:36:07Z</time></trkpt><trkpt lat="44.63256822402444" lon="10.171726661963483"><ele>313.0</ele><time>2026-04-04T07:36:08Z</time></trkpt><trkpt lat="44.63244099237146" lon="10.171843369958934"><ele>312.75</ele><time>2026-04-04T07:36:09Z</time></trkpt><trkpt lat="44.632320291403325" lon="10.171960429912387"><ele>312.5</ele><time>2026-04-04T07:36:10Z</time></trkpt><trkpt lat="44.63220770938758" lon="10.172056476093859"><ele>312.25</ele><time>2026-04-04T07:36:11Z</time></trkpt><trkpt lat="44.63209969819462" lon="10.17213325433556"><ele>312.0</ele><time>2026-04-04T07:36:12Z</time></trkpt><trkpt lat="44.63199437900756" lon="10.172138243015393"><ele>312.0</ele><time>2026-04-04T07:36:13Z</time></trkpt><trkpt lat="44.63187831281256" lon="10.17215048829518"><ele>312.0</ele><time>2026-04-04T07:36:14Z</time></trkpt><trkpt lat="44.631746205057645" lon="10.172166662978192"><ele>312.0</ele><time>2026-04-04T07:36:15Z</time></trkpt><trkpt lat="44.631614240741705" lon="10.17218076036362"><ele>312.0</ele><time>2026-04-04T07:36:16Z</time></trkpt><trkpt lat="44.63147644081769" lon="10.172203964852148"><ele>312.0</ele><time>2026-04-04T07:36:17Z</time></trkpt><trkpt lat="44.63136058461106" lon="10.172217286120977"><ele>312.0</ele><time>2026-04-04T07:36:18Z</time></trkpt><trkpt lat="44.631250271347504" lon="10.172233820672202"><ele>312.0</ele><time>2026-04-04T07:36:19Z</time></trkpt><trkpt lat="44.63112861845784" lon="10.172234819194017"><ele>312.0</ele><time>2026-04-04T07:36:20Z</time></trkpt><trkpt lat="44.6310000478864" lon="10.172203015662296"><ele>313.5</ele><time>2026-04-04T07:36:21Z</time></trkpt><trkpt lat="44.63089596547925" lon="10.172092453707675"><ele>315.0</ele><time>2026-04-04T07:36:22Z</time></trkpt><trkpt lat="44.63080934265364" lon="10.171974117773477"><ele>316.5</ele><time>2026-04-04T07:36:23Z</time></trkpt><trkpt lat="44.63072576179227" lon="10.171863905259588"><ele>318.0</ele><time>2026-04-04T07:36:24Z</time></trkpt><trkpt lat="44.63065554132643" lon="10.171728457108632"><ele>318.0</ele><time>2026-04-04T07:36:25Z</time></trkpt><trkpt lat="44.630580313146446" lon="10.171597206274154"><ele>318.0</ele><time>2026-04-04T07:36:26Z</time></trkpt><trkpt lat="44.63048966152651" lon="10.171485154210304"><ele>318.0</ele><time>2026-04-04T07:36:27Z</time></trkpt><trkpt lat="44.630385233717284" lon="10.17140524695805"><ele>318.0</ele><time>2026-04-04T07:36:28Z</time></trkpt><trkpt lat="44.630270858808586" lon="10.171369803521172"><ele>318.0</ele><time>2026-04-04T07:36:29Z</time></trkpt><trkpt lat="44.63014486267277" lon="10.171347218230467"><ele>318.0</ele><time>2026-04-04T07:36:30Z</time></trkpt><trkpt lat="44.63002193962625" lon="10.171336024278848"><ele>318.0</ele><time>2026-04-04T07:36:31Z</time></trkpt><trkpt lat="44.62988957226098" lon="10.171288693090581"><ele>318.0</ele><time>2026-04-04T07:36:32Z</time></trkpt><trkpt lat="44.62974155574351" lon="10.171257143525233"><ele>318.0</ele><time>2026-04-04T07:36:33Z</time></trkpt><trkpt lat="44.629591958176924" lon="10.17122570375714"><ele>318.0</ele><time>2026-04-04T07:36:34Z</time></trkpt><trkpt lat="44.62945486068577" lon="10.17119656683173"><ele>318.0</ele><time>2026-04-04T07:36:35Z</time></trkpt><trkpt lat="44.62932920316983" lon="10.171170378263751"><ele>318.0</ele><time>2026-04-04T07:36:36Z</time></trkpt><trkpt lat="44.62920613351171" lon="10.17116070795896"><ele>318.8</ele><time>2026-04-04T07:36:37Z</time></trkpt><trkpt lat="44.62909580580265" lon="10.171132721169977"><ele>319.6</ele><time>2026-04-04T07:36:38Z</time></trkpt><trkpt lat="44.628987380405015" lon="10.171109386904936"><ele>320.40000000000003</ele><time>2026-04-04T07:36:39Z</time></trkpt><trkpt lat="44.628898986261994" lon="10.17104946384198"><ele>321.20000000000005</ele><time>2026-04-04T07:36:40Z</time></trkpt><trkpt lat="44.62881541997204" lon="10.17098832954728"><ele>322.0</ele><time>2026-04-04T07:36:41Z</time></trkpt><trkpt lat="44.62873040746563" lon="10.170912559382035"><ele>322.0</ele><time>2026-04-04T07:36:42Z</time></trkpt><trkpt lat="44.62864497692611" lon="10.170816987490884"><ele>322.0</ele><time>2026-04-04T07:36:43Z</time></trkpt><trkpt lat="44.62855970146994" lon="10.170726821143065"><ele>322.0</ele><time>2026-04-04T07:36:44Z</time></trkpt><trkpt lat="44.6284939844536" lon="10.170593005274112"><ele>322.0</ele><time>2026-04-04T07:36:45Z</time></trkpt><trkpt lat="44.62841889560536" lon="10.170450068707854"><ele>322.6</ele><time>2026-04-04T07:36:46Z</time></trkpt><trkpt lat="44.628353532144516" lon="10.170306899634898"><ele>323.20000000000005</ele><time>2026-04-04T07:36:47Z</time></trkpt><trkpt lat="44.62829013568533" lon="10.170185178812634"><ele>323.8</ele><time>2026-04-04T07:36:48Z</time></trkpt><trkpt lat="44.628232006224266" lon="10.170077876230554"><ele>324.4</ele><time>2026-04-04T07:36:49Z</time></trkpt><trkpt lat="44.62817464148703" lon="10.169969019212505"><ele>325.0</ele><time>2026-04-04T07:36:50Z</time></trkpt><trkpt lat="44.62811527124495" lon="10.169856186466738"><ele>326.2</ele><time>2026-04-04T07:36:51Z</time></trkpt><trkpt lat="44.6280598016348" lon="10.169745825367896"><ele>327.4</ele><time>2026-04-04T07:36:52Z</time></trkpt><trkpt lat="44.62799693863238" lon="10.16964871963198"><ele>328.6</ele><time>2026-04-04T07:36:53Z</time></trkpt><trkpt lat="44.627923450713894" lon="10.169550969375159"><ele>329.8</ele><time>2026-04-04T07:36:54Z</time></trkpt><trkpt lat="44.62784444391644" lon="10.16945783856902"><ele>331.0</ele><time>2026-04-04T07:36:55Z</time></trkpt><trkpt lat="44.627765401526325" lon="10.169361317756522"><ele>331.0</ele><time>2026-04-04T07:36:56Z</time></trkpt><trkpt lat="44.62768473989236" lon="10.16926383890832"><ele>331.0</ele><time>2026-04-04T07:36:57Z</time></trkpt><trkpt lat="44.62760405208685" lon="10.169152421209258"><ele>331.0</ele><time>2026-04-04T07:36:58Z</time></trkpt><trkpt lat="44.627520936317794" lon="10.169055907179793"><ele>331.0</ele><time>2026-04-04T07:36:59Z</time></trkpt><trkpt lat="44.62744283018092" lon="10.168965838144269"><ele>331.0</ele><time>2026-04-04T07:37:00Z</time></trkpt><trkpt lat="44.62736661371942" lon="10.168881391653157"><ele>331.5</ele><time>2026-04-04T07:37:01Z</time></trkpt><trkpt lat="44.627281453443096" lon="10.168790609998531"><ele>332.0</ele><time>2026-04-04T07:37:02Z</time></trkpt><trkpt lat="44.62718983147712" lon="10.16869839207623"><ele>332.5</ele><time>2026-04-04T07:37:03Z</time></trkpt><trkpt lat="44.62707541122138" lon="10.168593743678734"><ele>333.0</ele><time>2026-04-04T07:37:04Z</time></trkpt><trkpt lat="44.62692478673574" lon="10.16848488247504"><ele>333.0</ele><time>2026-04-04T07:37:05Z</time></trkpt><trkpt lat="44.62674170202048" lon="10.168371652371796"><ele>333.0</ele><time>2026-04-04T07:37:06Z</time></trkpt><trkpt lat="44.626544348778516" lon="10.168259587899596"><ele>333.0</ele><time>2026-04-04T07:37:07Z</time></trkpt><trkpt lat="44.62632508703212" lon="10.168189006633698"><ele>334.5</ele><time>2026-04-04T07:37:08Z</time></trkpt><trkpt lat="44.62610532867089" lon="10.16807249650809"><ele>336.0</ele><time>2026-04-04T07:37:09Z</time></trkpt><trkpt lat="44.62587038413671" lon="10.167940568691634"><ele>336.0</ele><time>2026-04-04T07:37:10Z</time></trkpt><trkpt lat="44.62563809421693" lon="10.16779376118361"><ele>336.0</ele><time>2026-04-04T07:37:11Z</time></trkpt><trkpt lat="44.62541697194384" lon="10.167655521511096"><ele>338.5</ele><time>2026-04-04T07:37:12Z</time></trkpt><trkpt lat="44.62521710532632" lon="10.167521226040247"><ele>341.0</ele><time>2026-04-04T07:37:13Z</time></trkpt><trkpt lat="44.62499931267233" lon="10.167400220579852"><ele>339.6666666666667</ele><time>2026-04-04T07:37:14Z</time></trkpt><trkpt lat="44.62477740813361" lon="10.167299331135252"><ele>338.3333333333333</ele><time>2026-04-04T07:37:15Z</time></trkpt><trkpt lat="44.62457743705807" lon="10.167186451697983"><ele>337.0</ele><time>2026-04-04T07:37:16Z</time></trkpt><trkpt lat="44.62440306806883" lon="10.167089570886333"><ele>337.0</ele><time>2026-04-04T07:37:17Z</time></trkpt><trkpt lat="44.62425662479548" lon="10.167018971316809"><ele>337.0</ele><time>2026-04-04T07:37:18Z</time></trkpt><trkpt lat="44.62410191519113" lon="10.16697345725439"><ele>337.0</ele><time>2026-04-04T07:37:19Z</time></trkpt><trkpt lat="44.62392373553561" lon="10.16700855672421"><ele>337.0</ele><time>2026-04-04T07:37:20Z</time></trkpt><trkpt lat="44.62374743469992" lon="10.167137226578362"><ele>337.0</ele><time>2026-04-04T07:37:21Z</time></trkpt><trkpt lat="44.62357181146045" lon="10.167270423169427"><ele>337.0</ele><time>2026-04-04T07:37:22Z</time></trkpt><trkpt lat="44.62337501178671" lon="10.167275925423295"><ele>337.0</ele><time>2026-04-04T07:37:23Z</time></trkpt><trkpt lat="44.623153986629234" lon="10.167237646545463"><ele>337.0</ele><time>2026-04-04T07:37:24Z</time></trkpt><trkpt lat="44.62290581046236" lon="10.167169188823301"><ele>341.0</ele><time>2026-04-04T07:37:24.999Z</time></trkpt><trkpt lat="44.62262668763197" lon="10.167100165140939"><ele>345.0</ele><time>2026-04-04T07:37:25.999Z</time></trkpt><trkpt lat="44.622446684190294" lon="10.167071158398825"><ele>345.0</ele><time>2026-04-04T07:37:26.999Z</time></trkpt><trkpt lat="44.62224955704947" lon="10.167030014427837"><ele>345.0</ele><time>2026-04-04T07:37:27.999Z</time></trkpt><trkpt lat="44.62203424730236" lon="10.167036862349763"><ele>345.0</ele><time>2026-04-04T07:37:28.999Z</time></trkpt><trkpt lat="44.62183230045219" lon="10.167035828722764"><ele>347.0</ele><time>2026-04-04T07:37:29.999Z</time></trkpt><trkpt lat="44.62162499668758" lon="10.16700153745113"><ele>349.0</ele><time>2026-04-04T07:37:30.999Z</time></trkpt><trkpt lat="44.62141430407345" lon="10.166941285019401"><ele>351.0</ele><time>2026-04-04T07:37:31.999Z</time></trkpt><trkpt lat="44.62121932860987" lon="10.166810870905012"><ele>352.5</ele><time>2026-04-04T07:37:32.999Z</time></trkpt><trkpt lat="44.62100606149997" lon="10.166645722804082"><ele>354.0</ele><time>2026-04-04T07:37:33.999Z</time></trkpt><trkpt lat="44.62077564925158" lon="10.166463623485173"><ele>354.0</ele><time>2026-04-04T07:37:34.999Z</time></trkpt><trkpt lat="44.62054315937209" lon="10.166293325066466"><ele>354.0</ele><time>2026-04-04T07:37:35.999Z</time></trkpt><trkpt lat="44.62032410090522" lon="10.166111977481977"><ele>354.5</ele><time>2026-04-04T07:37:36.999Z</time></trkpt><trkpt lat="44.620110702239884" lon="10.165939635298733"><ele>355.0</ele><time>2026-04-04T07:37:37.999Z</time></trkpt><trkpt lat="44.61989288483662" lon="10.165779018619716"><ele>356.5</ele><time>2026-04-04T07:37:38.999Z</time></trkpt><trkpt lat="44.61967538151363" lon="10.165626418785644"><ele>358.0</ele><time>2026-04-04T07:37:39.999Z</time></trkpt><trkpt lat="44.61947332023155" lon="10.165447752419823"><ele>358.0</ele><time>2026-04-04T07:37:40.999Z</time></trkpt><trkpt lat="44.61929252411846" lon="10.16530933370744"><ele>358.0</ele><time>2026-04-04T07:37:41.999Z</time></trkpt><trkpt lat="44.619124253582974" lon="10.16517879812462"><ele>358.0</ele><time>2026-04-04T07:37:42.999Z</time></trkpt><trkpt lat="44.61897981784533" lon="10.165039147879806"><ele>356.0</ele><time>2026-04-04T07:37:43.999Z</time></trkpt><trkpt lat="44.61888355761957" lon="10.164862066457724"><ele>354.0</ele><time>2026-04-04T07:37:44.999Z</time></trkpt><trkpt lat="44.61884028115668" lon="10.164639255865541"><ele>352.0</ele><time>2026-04-04T07:37:45.999Z</time></trkpt><trkpt lat="44.61883272302527" lon="10.16436648936134"><ele>351.5</ele><time>2026-04-04T07:37:46.999Z</time></trkpt><trkpt lat="44.618869982910866" lon="10.164021082569285"><ele>351.0</ele><time>2026-04-04T07:37:47.999Z</time></trkpt><trkpt lat="44.61887382740522" lon="10.163665759973208"><ele>351.0</ele><time>2026-04-04T07:37:48.999Z</time></trkpt><trkpt lat="44.618899007466325" lon="10.163334305403518"><ele>351.0</ele><time>2026-04-04T07:37:49.999Z</time></trkpt><trkpt lat="44.618943944760986" lon="10.163022383899238"><ele>351.0</ele><time>2026-04-04T07:37:50.999Z</time></trkpt><trkpt lat="44.619008141347486" lon="10.162755537825884"><ele>351.0</ele><time>2026-04-04T07:37:51.999Z</time></trkpt><trkpt lat="44.61904539117408" lon="10.162504308587037"><ele>351.0</ele><time>2026-04-04T07:37:52.999Z</time></trkpt><trkpt lat="44.61902524603413" lon="10.1622331946789"><ele>349.3333333333333</ele><time>2026-04-04T07:37:53.999Z</time></trkpt><trkpt lat="44.618944191615824" lon="10.161969817987703"><ele>347.66666666666663</ele><time>2026-04-04T07:37:54.999Z</time></trkpt><trkpt lat="44.61884099355872" lon="10.161683276886567"><ele>346.0</ele><time>2026-04-04T07:37:55.999Z</time></trkpt><trkpt lat="44.61877059491199" lon="10.161339100212002"><ele>343.66666666666663</ele><time>2026-04-04T07:37:56.999Z</time></trkpt><trkpt lat="44.618707704402354" lon="10.160960359722036"><ele>341.3333333333333</ele><time>2026-04-04T07:37:57.999Z</time></trkpt><trkpt lat="44.61870855828895" lon="10.160728206597907"><ele>339.0</ele><time>2026-04-04T07:37:58.999Z</time></trkpt><trkpt lat="44.61867349781207" lon="10.160524687876169"><ele>343.3333333333333</ele><time>2026-04-04T07:37:59.999Z</time></trkpt><trkpt lat="44.618462606590434" lon="10.160393505493298"><ele>347.66666666666663</ele><time>2026-04-04T07:38:00.999Z</time></trkpt><trkpt lat="44.61830491353696" lon="10.160298232863065"><ele>352.0</ele><time>2026-04-04T07:38:01.999Z</time></trkpt><trkpt lat="44.61811433755016" lon="10.160278862837018"><ele>352.0</ele><time>2026-04-04T07:38:02.999Z</time></trkpt><trkpt lat="44.61797075734994" lon="10.160194997226522"><ele>352.0</ele><time>2026-04-04T07:38:03.999Z</time></trkpt><trkpt lat="44.617908679004366" lon="10.159994593402327"><ele>352.0</ele><time>2026-04-04T07:38:04.999Z</time></trkpt><trkpt lat="44.617865323949076" lon="10.159766809501136"><ele>352.0</ele><time>2026-04-04T07:38:06Z</time></trkpt><trkpt lat="44.617895505629015" lon="10.159551250286814"><ele>352.0</ele><time>2026-04-04T07:38:07Z</time></trkpt><trkpt lat="44.61793917328772" lon="10.15931933230106"><ele>352.0</ele><time>2026-04-04T07:38:08Z</time></trkpt><trkpt lat="44.61800642581291" lon="10.158997934611152"><ele>352.0</ele><time>2026-04-04T07:38:09Z</time></trkpt><trkpt lat="44.61807122522049" lon="10.158674864025992"><ele>352.0</ele><time>2026-04-04T07:38:10Z</time></trkpt><trkpt lat="44.618081221073176" lon="10.158399679049866"><ele>352.0</ele><time>2026-04-04T07:38:11Z</time></trkpt><trkpt lat="44.61808763917923" lon="10.158123318847085"><ele>349.3333333333333</ele><time>2026-04-04T07:38:12Z</time></trkpt><trkpt lat="44.618031635570716" lon="10.157815186447205"><ele>346.6666666666667</ele><time>2026-04-04T07:38:13Z</time></trkpt><trkpt lat="44.61793920831005" lon="10.157536898757423"><ele>344.0</ele><time>2026-04-04T07:38:14Z</time></trkpt><trkpt lat="44.61782012801961" lon="10.157346215535728"><ele>346.6666666666667</ele><time>2026-04-04T07:38:15Z</time></trkpt><trkpt lat="44.617661743748286" lon="10.157176139455952"><ele>349.3333333333333</ele><time>2026-04-04T07:38:16Z</time></trkpt><trkpt lat="44.6174967649969" lon="10.156988066908177"><ele>352.0</ele><time>2026-04-04T07:38:17Z</time></trkpt><trkpt lat="44.61734234666283" lon="10.156788363496084"><ele>352.0</ele><time>2026-04-04T07:38:18Z</time></trkpt><trkpt lat="44.617199740438025" lon="10.15658786598552"><ele>352.0</ele><time>2026-04-04T07:38:19Z</time></trkpt><trkpt lat="44.617072338534456" lon="10.156410815376862"><ele>352.0</ele><time>2026-04-04T07:38:20Z</time></trkpt><trkpt lat="44.616907381931156" lon="10.156283392115007"><ele>354.0</ele><time>2026-04-04T07:38:21Z</time></trkpt><trkpt lat="44.616711799757255" lon="10.156174942265347"><ele>356.0</ele><time>2026-04-04T07:38:22Z</time></trkpt><trkpt lat="44.61651172411764" lon="10.15606507299441"><ele>358.0</ele><time>2026-04-04T07:38:23Z</time></trkpt><trkpt lat="44.61634082844266" lon="10.155866599763623"><ele>358.3333333333333</ele><time>2026-04-04T07:38:24Z</time></trkpt><trkpt lat="44.61615556982592" lon="10.155679568809653"><ele>358.6666666666667</ele><time>2026-04-04T07:38:25Z</time></trkpt><trkpt lat="44.61599485094351" lon="10.155469972511229"><ele>359.0</ele><time>2026-04-04T07:38:26Z</time></trkpt><trkpt lat="44.61588471182419" lon="10.155218392552182"><ele>359.0</ele><time>2026-04-04T07:38:27Z</time></trkpt><trkpt lat="44.61578566005437" lon="10.154967269327699"><ele>359.0</ele><time>2026-04-04T07:38:28Z</time></trkpt><trkpt lat="44.6157342646336" lon="10.154715658494716"><ele>359.0</ele><time>2026-04-04T07:38:29Z</time></trkpt><trkpt lat="44.615720900919115" lon="10.154428895288978"><ele>361.5</ele><time>2026-04-04T07:38:30Z</time></trkpt><trkpt lat="44.61570538981916" lon="10.154092508617461"><ele>364.0</ele><time>2026-04-04T07:38:31Z</time></trkpt><trkpt lat="44.615688479861454" lon="10.153741117679902"><ele>364.0</ele><time>2026-04-04T07:38:32Z</time></trkpt><trkpt lat="44.61567129876433" lon="10.153363991858232"><ele>364.0</ele><time>2026-04-04T07:38:33Z</time></trkpt><trkpt lat="44.61565424639168" lon="10.152982707004561"><ele>364.0</ele><time>2026-04-04T07:38:34Z</time></trkpt><trkpt lat="44.61565250515818" lon="10.152659665099101"><ele>364.0</ele><time>2026-04-04T07:38:35Z</time></trkpt><trkpt lat="44.615689737996554" lon="10.152379434840554"><ele>364.0</ele><time>2026-04-04T07:38:36Z</time></trkpt><trkpt lat="44.615734803994165" lon="10.152105531180247"><ele>364.0</ele><time>2026-04-04T07:38:37Z</time></trkpt><trkpt lat="44.615773949341474" lon="10.151865424387351"><ele>364.0</ele><time>2026-04-04T07:38:38Z</time></trkpt><trkpt lat="44.615769358771665" lon="10.151567109461693"><ele>364.0</ele><time>2026-04-04T07:38:39Z</time></trkpt><trkpt lat="44.61571954927205" lon="10.1512330176644"><ele>364.3333333333333</ele><time>2026-04-04T07:38:40Z</time></trkpt><trkpt lat="44.61562241376982" lon="10.150937690794684"><ele>364.6666666666667</ele><time>2026-04-04T07:38:41Z</time></trkpt><trkpt lat="44.61551864972662" lon="10.150692256039157"><ele>365.0</ele><time>2026-04-04T07:38:42Z</time></trkpt><trkpt lat="44.61548733599707" lon="10.150421098008936"><ele>365.0</ele><time>2026-04-04T07:38:43Z</time></trkpt><trkpt lat="44.61550645308323" lon="10.150088014846157"><ele>365.0</ele><time>2026-04-04T07:38:44Z</time></trkpt><trkpt lat="44.61553419273285" lon="10.14970721613837"><ele>367.33333333333337</ele><time>2026-04-04T07:38:45Z</time></trkpt><trkpt lat="44.61555998890428" lon="10.14943395851309"><ele>369.6666666666667</ele><time>2026-04-04T07:38:46Z</time></trkpt><trkpt lat="44.61558828914332" lon="10.149166644619696"><ele>372.0</ele><time>2026-04-04T07:38:47Z</time></trkpt><trkpt lat="44.61567324797919" lon="10.148918828743744"><ele>376.0</ele><time>2026-04-04T07:38:48Z</time></trkpt><trkpt lat="44.61578248552975" lon="10.148698981972947"><ele>380.0</ele><time>2026-04-04T07:38:49Z</time></trkpt><trkpt lat="44.61587736804937" lon="10.148486442573112"><ele>384.0</ele><time>2026-04-04T07:38:50Z</time></trkpt><trkpt lat="44.61597369291853" lon="10.148313136018396"><ele>385.75</ele><time>2026-04-04T07:38:51Z</time></trkpt><trkpt lat="44.616034938773986" lon="10.148142961298852"><ele>387.5</ele><time>2026-04-04T07:38:52Z</time></trkpt><trkpt lat="44.61606136554088" lon="10.14800215105592"><ele>389.25</ele><time>2026-04-04T07:38:53Z</time></trkpt><trkpt lat="44.61606470622918" lon="10.147826320720416"><ele>391.0</ele><time>2026-04-04T07:38:54Z</time></trkpt><trkpt lat="44.61606081644819" lon="10.147543462873724"><ele>392.5</ele><time>2026-04-04T07:38:55Z</time></trkpt><trkpt lat="44.61601311904305" lon="10.147194915803434"><ele>394.0</ele><time>2026-04-04T07:38:56Z</time></trkpt><trkpt lat="44.6160211708798" lon="10.146792318260315"><ele>397.0</ele><time>2026-04-04T07:38:57Z</time></trkpt><trkpt lat="44.61604717802635" lon="10.146396056177606"><ele>400.0</ele><time>2026-04-04T07:38:58Z</time></trkpt><trkpt lat="44.61608191268751" lon="10.14597964134066"><ele>400.5</ele><time>2026-04-04T07:38:59Z</time></trkpt><trkpt lat="44.616125720865185" lon="10.145545168724823"><ele>401.0</ele><time>2026-04-04T07:39:00Z</time></trkpt><trkpt lat="44.61618105363167" lon="10.145167777326646"><ele>382.0</ele><time>2026-04-04T07:39:01Z</time></trkpt><trkpt lat="44.616228343672766" lon="10.144803095033593"><ele>363.0</ele><time>2026-04-04T07:39:02Z</time></trkpt><trkpt lat="44.61626512234916" lon="10.144473466326318"><ele>363.0</ele><time>2026-04-04T07:39:03Z</time></trkpt><trkpt lat="44.61628916449987" lon="10.144119363178374"><ele>363.0</ele><time>2026-04-04T07:39:04Z</time></trkpt><trkpt lat="44.61627550475284" lon="10.143730827816931"><ele>361.6666666666667</ele><time>2026-04-04T07:39:05Z</time></trkpt><trkpt lat="44.6162033160351" lon="10.143547885445551"><ele>360.33333333333337</ele><time>2026-04-04T07:39:07Z</time></trkpt><trkpt lat="44.61597806661511" lon="10.143304123213467"><ele>359.0</ele><time>2026-04-04T07:39:08Z</time></trkpt><trkpt lat="44.615844668603444" lon="10.143082380283332"><ele>366.33333333333337</ele><time>2026-04-04T07:39:09Z</time></trkpt><trkpt lat="44.615732203023136" lon="10.142832978171278"><ele>373.6666666666667</ele><time>2026-04-04T07:39:10Z</time></trkpt><trkpt lat="44.61569602255446" lon="10.142567089300226"><ele>381.0</ele><time>2026-04-04T07:39:11Z</time></trkpt><trkpt lat="44.615696664841536" lon="10.142301440088707"><ele>382.0</ele><time>2026-04-04T07:39:12Z</time></trkpt><trkpt lat="44.61575081260932" lon="10.141953493305543"><ele>383.0</ele><time>2026-04-04T07:39:13Z</time></trkpt><trkpt lat="44.615742121318405" lon="10.141631444629832"><ele>379.33333333333337</ele><time>2026-04-04T07:39:14Z</time></trkpt><trkpt lat="44.61570125210791" lon="10.141337237883343"><ele>375.6666666666667</ele><time>2026-04-04T07:39:15Z</time></trkpt><trkpt lat="44.615599435289006" lon="10.141048882099057"><ele>372.0</ele><time>2026-04-04T07:39:16Z</time></trkpt><trkpt lat="44.615477397349295" lon="10.140688665839393"><ele>368.5</ele><time>2026-04-04T07:39:17Z</time></trkpt><trkpt lat="44.61535619471561" lon="10.140367328866752"><ele>365.0</ele><time>2026-04-04T07:39:18Z</time></trkpt><trkpt lat="44.61526384939648" lon="10.140022895631896"><ele>375.0</ele><time>2026-04-04T07:39:19Z</time></trkpt><trkpt lat="44.615135177750346" lon="10.139679724404443"><ele>385.0</ele><time>2026-04-04T07:39:20Z</time></trkpt><trkpt lat="44.615000134824676" lon="10.139313171994695"><ele>377.5</ele><time>2026-04-04T07:39:21Z</time></trkpt><trkpt lat="44.61481605559862" lon="10.13896785792668"><ele>370.0</ele><time>2026-04-04T07:39:22Z</time></trkpt><trkpt lat="44.61464711287122" lon="10.138633822905886"><ele>370.0</ele><time>2026-04-04T07:39:23Z</time></trkpt><trkpt lat="44.61450157038439" lon="10.138306067556144"><ele>370.0</ele><time>2026-04-04T07:39:24Z</time></trkpt><trkpt lat="44.61439894379277" lon="10.13799880017604"><ele>381.0</ele><time>2026-04-04T07:39:25Z</time></trkpt><trkpt lat="44.61428725454655" lon="10.137699487877686"><ele>392.0</ele><time>2026-04-04T07:39:26Z</time></trkpt><trkpt lat="44.614184091078364" lon="10.137419625170592"><ele>382.0</ele><time>2026-04-04T07:39:27Z</time></trkpt><trkpt lat="44.61406255199035" lon="10.137086214555008"><ele>372.0</ele><time>2026-04-04T07:39:28Z</time></trkpt><trkpt lat="44.61388787215657" lon="10.13678257595215"><ele>367.5</ele><time>2026-04-04T07:39:29Z</time></trkpt><trkpt lat="44.6136961110439" lon="10.13647159658473"><ele>363.0</ele><time>2026-04-04T07:39:30Z</time></trkpt><trkpt lat="44.61351380555509" lon="10.13616171650837"><ele>368.5</ele><time>2026-04-04T07:39:31Z</time></trkpt><trkpt lat="44.61335893093716" lon="10.135884150849717"><ele>374.0</ele><time>2026-04-04T07:39:32Z</time></trkpt><trkpt lat="44.61323715402364" lon="10.135615489231458"><ele>374.0</ele><time>2026-04-04T07:39:33Z</time></trkpt><trkpt lat="44.61315323368789" lon="10.135368611312655"><ele>374.0</ele><time>2026-04-04T07:39:34Z</time></trkpt><trkpt lat="44.61305795170811" lon="10.135176922851285"><ele>374.0</ele><time>2026-04-04T07:39:34.999Z</time></trkpt><trkpt lat="44.61290588222979" lon="10.135000446068949"><ele>375.5</ele><time>2026-04-04T07:39:35.999Z</time></trkpt><trkpt lat="44.612629695600894" lon="10.134875083859402"><ele>377.0</ele><time>2026-04-04T07:39:36.999Z</time></trkpt><trkpt lat="44.612389780429346" lon="10.134702110179187"><ele>377.0</ele><time>2026-04-04T07:39:37.999Z</time></trkpt><trkpt lat="44.61216176697922" lon="10.13453730908426"><ele>377.0</ele><time>2026-04-04T07:39:38.999Z</time></trkpt><trkpt lat="44.61194743303547" lon="10.134382104916078"><ele>379.0</ele><time>2026-04-04T07:39:39.999Z</time></trkpt><trkpt lat="44.61178617907246" lon="10.134240259559407"><ele>381.0</ele><time>2026-04-04T07:39:40.999Z</time></trkpt><trkpt lat="44.611675239075296" lon="10.134065895419146"><ele>383.0</ele><time>2026-04-04T07:39:41.999Z</time></trkpt><trkpt lat="44.61151598886839" lon="10.133785127976694"><ele>383.0</ele><time>2026-04-04T07:39:42.999Z</time></trkpt><trkpt lat="44.61136296140566" lon="10.133503129414235"><ele>383.0</ele><time>2026-04-04T07:39:43.999Z</time></trkpt><trkpt lat="44.61120592689014" lon="10.133175138754375"><ele>387.33333333333337</ele><time>2026-04-04T07:39:44.999Z</time></trkpt><trkpt lat="44.61106930777211" lon="10.132888334628895"><ele>391.6666666666667</ele><time>2026-04-04T07:39:45.999Z</time></trkpt><trkpt lat="44.61096427381863" lon="10.132663846809836"><ele>396.0</ele><time>2026-04-04T07:39:46.999Z</time></trkpt><trkpt lat="44.61085774106759" lon="10.132412319774359"><ele>396.0</ele><time>2026-04-04T07:39:47.999Z</time></trkpt><trkpt lat="44.61077401232545" lon="10.13221521620904"><ele>396.0</ele><time>2026-04-04T07:39:48.999Z</time></trkpt><trkpt lat="44.610749795002974" lon="10.132011765707837"><ele>396.0</ele><time>2026-04-04T07:39:49.999Z</time></trkpt><trkpt lat="44.61076020833893" lon="10.131787630468109"><ele>391.3333333333333</ele><time>2026-04-04T07:39:50.999Z</time></trkpt><trkpt lat="44.61079504961022" lon="10.131487562021682"><ele>386.66666666666663</ele><time>2026-04-04T07:39:51.999Z</time></trkpt><trkpt lat="44.61074051236226" lon="10.1312475881145"><ele>382.0</ele><time>2026-04-04T07:39:52.999Z</time></trkpt><trkpt lat="44.61061982253167" lon="10.131028161779959"><ele>382.0</ele><time>2026-04-04T07:39:53.999Z</time></trkpt><trkpt lat="44.61047459484725" lon="10.130801781435936"><ele>382.0</ele><time>2026-04-04T07:39:54.999Z</time></trkpt><trkpt lat="44.610340140962" lon="10.130471072988948"><ele>380.0</ele><time>2026-04-04T07:39:55.999Z</time></trkpt><trkpt lat="44.610148386542825" lon="10.130169524582755"><ele>378.0</ele><time>2026-04-04T07:39:56.999Z</time></trkpt><trkpt lat="44.60994441209768" lon="10.129861624488258"><ele>378.0</ele><time>2026-04-04T07:39:57.999Z</time></trkpt><trkpt lat="44.60977111796575" lon="10.129589814897345"><ele>378.0</ele><time>2026-04-04T07:39:58.999Z</time></trkpt><trkpt lat="44.60963765253677" lon="10.129376525773816"><ele>378.0</ele><time>2026-04-04T07:39:59.999Z</time></trkpt><trkpt lat="44.60951542055013" lon="10.12921176181522"><ele>378.0</ele><time>2026-04-04T07:40:00.999Z</time></trkpt><trkpt lat="44.60939337432038" lon="10.129107888888656"><ele>378.0</ele><time>2026-04-04T07:40:01.999Z</time></trkpt><trkpt lat="44.609214643831336" lon="10.12904636740412"><ele>382.66666666666663</ele><time>2026-04-04T07:40:02.999Z</time></trkpt><trkpt lat="44.609008813071014" lon="10.129110698440423"><ele>387.3333333333333</ele><time>2026-04-04T07:40:03.999Z</time></trkpt><trkpt lat="44.60877873236286" lon="10.129193673483263"><ele>392.0</ele><time>2026-04-04T07:40:04.999Z</time></trkpt><trkpt lat="44.60854729691135" lon="10.129273137268878"><ele>392.0</ele><time>2026-04-04T07:40:05.999Z</time></trkpt><trkpt lat="44.60829859352527" lon="10.129254785395354"><ele>392.0</ele><time>2026-04-04T07:40:06.999Z</time></trkpt><trkpt lat="44.60809127383324" lon="10.129226684617082"><ele>392.0</ele><time>2026-04-04T07:40:07.999Z</time></trkpt><trkpt lat="44.60794471646301" lon="10.129134228145832"><ele>392.0</ele><time>2026-04-04T07:40:08.999Z</time></trkpt><trkpt lat="44.607838104939006" lon="10.128969215062735"><ele>392.0</ele><time>2026-04-04T07:40:09.999Z</time></trkpt><trkpt lat="44.607717692789095" lon="10.12874213254912"><ele>390.3333333333333</ele><time>2026-04-04T07:40:10.999Z</time></trkpt><trkpt lat="44.60758374028181" lon="10.128547510352766"><ele>388.66666666666663</ele><time>2026-04-04T07:40:12Z</time></trkpt><trkpt lat="44.607478034040895" lon="10.128380234310905"><ele>387.0</ele><time>2026-04-04T07:40:13Z</time></trkpt><trkpt lat="44.60731705594778" lon="10.128283804282193"><ele>387.0</ele><time>2026-04-04T07:40:14Z</time></trkpt><trkpt lat="44.60716722642441" lon="10.128229808682354"><ele>387.0</ele><time>2026-04-04T07:40:15Z</time></trkpt><trkpt lat="44.60704878968438" lon="10.1281787132577"><ele>387.0</ele><time>2026-04-04T07:40:16Z</time></trkpt><trkpt lat="44.60694597471494" lon="10.128126689775447"><ele>387.0</ele><time>2026-04-04T07:40:17Z</time></trkpt><trkpt lat="44.60685719161838" lon="10.128024969675364"><ele>388.25</ele><time>2026-04-04T07:40:18Z</time></trkpt><trkpt lat="44.60678490580608" lon="10.127891353964687"><ele>389.5</ele><time>2026-04-04T07:40:19Z</time></trkpt><trkpt lat="44.60672829252971" lon="10.127731578585827"><ele>390.75</ele><time>2026-04-04T07:40:20Z</time></trkpt><trkpt lat="44.606666427325536" lon="10.127574074060881"><ele>392.0</ele><time>2026-04-04T07:40:21Z</time></trkpt><trkpt lat="44.60662320410359" lon="10.127410244649989"><ele>390.75</ele><time>2026-04-04T07:40:22Z</time></trkpt><trkpt lat="44.606574971087205" lon="10.127242557644077"><ele>389.5</ele><time>2026-04-04T07:40:23Z</time></trkpt><trkpt lat="44.60652645935142" lon="10.127070748844128"><ele>388.25</ele><time>2026-04-04T07:40:24Z</time></trkpt><trkpt lat="44.606467865036485" lon="10.126899539912813"><ele>387.0</ele><time>2026-04-04T07:40:25Z</time></trkpt><trkpt lat="44.60639551380697" lon="10.126732687935881"><ele>386.66666666666663</ele><time>2026-04-04T07:40:26Z</time></trkpt><trkpt lat="44.6062818971002" lon="10.126556537277972"><ele>386.3333333333333</ele><time>2026-04-04T07:40:27Z</time></trkpt><trkpt lat="44.60612206264268" lon="10.126406119486866"><ele>386.0</ele><time>2026-04-04T07:40:28Z</time></trkpt><trkpt lat="44.605918517829124" lon="10.12625130302482"><ele>386.0</ele><time>2026-04-04T07:40:29Z</time></trkpt><trkpt lat="44.60572109821383" lon="10.126092241962152"><ele>386.0</ele><time>2026-04-04T07:40:30Z</time></trkpt><trkpt lat="44.60551563911293" lon="10.125889645184303"><ele>386.66666666666663</ele><time>2026-04-04T07:40:31Z</time></trkpt><trkpt lat="44.605313052227" lon="10.125705718345626"><ele>387.33333333333337</ele><time>2026-04-04T07:40:32Z</time></trkpt><trkpt lat="44.60514321633889" lon="10.125558863825965"><ele>388.0</ele><time>2026-04-04T07:40:33Z</time></trkpt><trkpt lat="44.604987933033485" lon="10.125418733618439"><ele>388.0</ele><time>2026-04-04T07:40:34Z</time></trkpt><trkpt lat="44.604848391454446" lon="10.125307828236805"><ele>388.0</ele><time>2026-04-04T07:40:35Z</time></trkpt><trkpt lat="44.60471975608291" lon="10.125192610475"><ele>388.0</ele><time>2026-04-04T07:40:36Z</time></trkpt><trkpt lat="44.604608261085154" lon="10.125098477499819"><ele>388.0</ele><time>2026-04-04T07:40:37Z</time></trkpt><trkpt lat="44.604502658359316" lon="10.125006520403565"><ele>389.25</ele><time>2026-04-04T07:40:38Z</time></trkpt><trkpt lat="44.604403319630705" lon="10.124926967208733"><ele>390.5</ele><time>2026-04-04T07:40:39Z</time></trkpt><trkpt lat="44.60430134630474" lon="10.124832427726721"><ele>391.75</ele><time>2026-04-04T07:40:40Z</time></trkpt><trkpt lat="44.604174933836546" lon="10.124716124452048"><ele>393.0</ele><time>2026-04-04T07:40:41Z</time></trkpt><trkpt lat="44.6040293438318" lon="10.124586137620966"><ele>393.0</ele><time>2026-04-04T07:40:42Z</time></trkpt><trkpt lat="44.60387843639638" lon="10.12445306677244"><ele>393.0</ele><time>2026-04-04T07:40:43Z</time></trkpt><trkpt lat="44.6037337542592" lon="10.124325204500117"><ele>393.0</ele><time>2026-04-04T07:40:44Z</time></trkpt><trkpt lat="44.6035970146355" lon="10.124205051778894"><ele>393.66666666666663</ele><time>2026-04-04T07:40:45Z</time></trkpt><trkpt lat="44.60347137232226" lon="10.124076091761603"><ele>394.3333333333333</ele><time>2026-04-04T07:40:46Z</time></trkpt><trkpt lat="44.603339033440285" lon="10.123976655739012"><ele>395.0</ele><time>2026-04-04T07:40:47Z</time></trkpt><trkpt lat="44.60320629697081" lon="10.123848878148754"><ele>395.0</ele><time>2026-04-04T07:40:48Z</time></trkpt><trkpt lat="44.60306255077068" lon="10.123726015339516"><ele>395.0</ele><time>2026-04-04T07:40:49Z</time></trkpt><trkpt lat="44.60292700435966" lon="10.12360631354403"><ele>395.0</ele><time>2026-04-04T07:40:50Z</time></trkpt><trkpt lat="44.60281440187163" lon="10.123496520604387"><ele>394.75</ele><time>2026-04-04T07:40:51Z</time></trkpt><trkpt lat="44.60268803205315" lon="10.123391456747665"><ele>394.5</ele><time>2026-04-04T07:40:52Z</time></trkpt><trkpt lat="44.60257282129272" lon="10.123290150238436"><ele>394.25</ele><time>2026-04-04T07:40:53Z</time></trkpt><trkpt lat="44.60247664576655" lon="10.123192180742699"><ele>394.0</ele><time>2026-04-04T07:40:54Z</time></trkpt><trkpt lat="44.602360807988966" lon="10.12309096455614"><ele>394.0</ele><time>2026-04-04T07:40:55Z</time></trkpt><trkpt lat="44.60223478797199" lon="10.122982847709892"><ele>394.0</ele><time>2026-04-04T07:40:56Z</time></trkpt><trkpt lat="44.60210503523026" lon="10.122874755984354"><ele>394.0</ele><time>2026-04-04T07:40:57Z</time></trkpt><trkpt lat="44.60198022785393" lon="10.122767807617066"><ele>394.0</ele><time>2026-04-04T07:40:58Z</time></trkpt><trkpt lat="44.60185724146161" lon="10.122658693309386"><ele>394.4</ele><time>2026-04-04T07:40:59Z</time></trkpt><trkpt lat="44.60174199314435" lon="10.122557616887299"><ele>394.79999999999995</ele><time>2026-04-04T07:41:00Z</time></trkpt><trkpt lat="44.6016414708656" lon="10.122464942892787"><ele>395.20000000000005</ele><time>2026-04-04T07:41:01Z</time></trkpt><trkpt lat="44.601554050001795" lon="10.122384148764796"><ele>395.6</ele><time>2026-04-04T07:41:02Z</time></trkpt><trkpt lat="44.601482828086844" lon="10.12231013926741"><ele>396.0</ele><time>2026-04-04T07:41:03Z</time></trkpt><trkpt lat="44.60141960521063" lon="10.122242924250578"><ele>396.0</ele><time>2026-04-04T07:41:04Z</time></trkpt><trkpt lat="44.601354768575185" lon="10.12216879941487"><ele>396.0</ele><time>2026-04-04T07:41:05Z</time></trkpt><trkpt lat="44.60129068994393" lon="10.12209053399696"><ele>396.0</ele><time>2026-04-04T07:41:06Z</time></trkpt><trkpt lat="44.60123547474389" lon="10.122016839815391"><ele>396.0</ele><time>2026-04-04T07:41:07Z</time></trkpt><trkpt lat="44.601184253409016" lon="10.121947418422364"><ele>396.0</ele><time>2026-04-04T07:41:08Z</time></trkpt><trkpt lat="44.60113401047994" lon="10.121875526866255"><ele>396.0</ele><time>2026-04-04T07:41:09Z</time></trkpt><trkpt lat="44.601106711681616" lon="10.12179338517563"><ele>396.8</ele><time>2026-04-04T07:41:10Z</time></trkpt><trkpt lat="44.60108998352005" lon="10.121644186526863"><ele>397.6</ele><time>2026-04-04T07:41:12Z</time></trkpt><trkpt lat="44.60110752768718" lon="10.121522768645006"><ele>398.4</ele><time>2026-04-04T07:41:14Z</time></trkpt><trkpt lat="44.601123881811354" lon="10.121383874188048"><ele>399.2</ele><time>2026-04-04T07:41:16Z</time></trkpt><trkpt lat="44.60103481785155" lon="10.121271585372138"><ele>400.0</ele><time>2026-04-04T07:41:18Z</time></trkpt><trkpt lat="44.60096877977444" lon="10.121335874627718"><ele>400.00000000000006</ele><time>2026-04-04T07:41:19Z</time></trkpt><trkpt lat="44.60095637365841" lon="10.12142659216698"><ele>400.0</ele><time>2026-04-04T07:41:20Z</time></trkpt><trkpt lat="44.60097420848357" lon="10.121540468258438"><ele>400.0</ele><time>2026-04-04T07:41:21Z</time></trkpt><trkpt lat="44.6010091694129" lon="10.121655837340466"><ele>400.0</ele><time>2026-04-04T07:41:22Z</time></trkpt><trkpt lat="44.60103958053019" lon="10.121768641575708"><ele>400.00000000000006</ele><time>2026-04-04T07:41:23Z</time></trkpt><trkpt lat="44.60106813482977" lon="10.121864608814963"><ele>400.0</ele><time>2026-04-04T07:41:24Z</time></trkpt><trkpt lat="44.60110491002959" lon="10.121938437053494"><ele>400.33333333333337</ele><time>2026-04-04T07:41:25Z</time></trkpt><trkpt lat="44.60114656354662" lon="10.122063512787575"><ele>400.6666666666667</ele><time>2026-04-04T07:41:27Z</time></trkpt><trkpt lat="44.601153431549584" lon="10.122163249030015"><ele>401.0</ele><time>2026-04-04T07:41:30Z</time></trkpt><trkpt lat="44.60122165102559" lon="10.122180439338939"><ele>401.33333333333337</ele><time>2026-04-04T07:41:34Z</time></trkpt><trkpt lat="44.60122800910523" lon="10.122284633313862"><ele>401.6666666666667</ele><time>2026-04-04T07:45:20Z</time></trkpt><trkpt lat="44.6013156719807" lon="10.12227514757434"><ele>402.0</ele><time>2026-04-04T07:45:23Z</time></trkpt><trkpt lat="44.601386619697784" lon="10.122302136146208"><ele>401.0</ele><time>2026-04-04T07:45:26Z</time></trkpt><trkpt lat="44.60145294192062" lon="10.122375863136957"><ele>400.0</ele><time>2026-04-04T07:45:28Z</time></trkpt><trkpt lat="44.60153243503267" lon="10.122444370413396"><ele>399.0</ele><time>2026-04-04T07:45:31Z</time></trkpt><trkpt lat="44.60160453498711" lon="10.122512537766696"><ele>398.0</ele><time>2026-04-04T07:45:33Z</time></trkpt><trkpt lat="44.60170808014321" lon="10.122614571006629"><ele>397.0</ele><time>2026-04-04T07:45:35Z</time></trkpt><trkpt lat="44.601787014096566" lon="10.122680010624729"><ele>397.00000000000006</ele><time>2026-04-04T07:45:36Z</time></trkpt><trkpt lat="44.601860089113885" lon="10.122739425582727"><ele>397.0</ele><time>2026-04-04T07:45:37Z</time></trkpt><trkpt lat="44.601932493638124" lon="10.122803798177834"><ele>397.0</ele><time>2026-04-04T07:45:38Z</time></trkpt><trkpt lat="44.60200491068571" lon="10.122863692932592"><ele>397.0</ele><time>2026-04-04T07:45:39Z</time></trkpt><trkpt lat="44.60207291860912" lon="10.122924656611286"><ele>397.00000000000006</ele><time>2026-04-04T07:45:40Z</time></trkpt><trkpt lat="44.60215358840791" lon="10.122990117298643"><ele>397.0</ele><time>2026-04-04T07:45:41Z</time></trkpt><trkpt lat="44.602202608101045" lon="10.12305332344001"><ele>397.00000000000006</ele><time>2026-04-04T07:45:42Z</time></trkpt><trkpt lat="44.60226734262836" lon="10.12311016976582"><ele>397.0</ele><time>2026-04-04T07:45:42.999Z</time></trkpt><trkpt lat="44.60233169532373" lon="10.1231716095908"><ele>397.0</ele><time>2026-04-04T07:45:43.999Z</time></trkpt><trkpt lat="44.60240547971564" lon="10.123233680891802"><ele>397.0</ele><time>2026-04-04T07:45:44.999Z</time></trkpt><trkpt lat="44.60248113002295" lon="10.123285439183471"><ele>397.00000000000006</ele><time>2026-04-04T07:45:45.999Z</time></trkpt><trkpt lat="44.602543075995214" lon="10.123340789606733"><ele>397.0</ele><time>2026-04-04T07:45:46.999Z</time></trkpt><trkpt lat="44.60261232952141" lon="10.12340477227406"><ele>397.00000000000006</ele><time>2026-04-04T07:45:47.999Z</time></trkpt><trkpt lat="44.60271476721774" lon="10.123494160577133"><ele>397.0</ele><time>2026-04-04T07:45:49.999Z</time></trkpt><trkpt lat="44.60277202416381" lon="10.123545163939147"><ele>397.0</ele><time>2026-04-04T07:45:50.999Z</time></trkpt><trkpt lat="44.60286559376201" lon="10.12362785266516"><ele>397.0</ele><time>2026-04-04T07:45:52.999Z</time></trkpt><trkpt lat="44.60292279073978" lon="10.123680590019566"><ele>397.00000000000006</ele><time>2026-04-04T07:45:53.999Z</time></trkpt><trkpt lat="44.60298467781228" lon="10.123726856150551"><ele>397.0</ele><time>2026-04-04T07:45:54.999Z</time></trkpt><trkpt lat="44.60308468802693" lon="10.12382542621873"><ele>396.7142857142857</ele><time>2026-04-04T07:45:56.999Z</time></trkpt><trkpt lat="44.60314715595973" lon="10.12388129883302"><ele>396.42857142857144</ele><time>2026-04-04T07:45:57.999Z</time></trkpt><trkpt lat="44.60321560025951" lon="10.12393428310776"><ele>396.1428571428571</ele><time>2026-04-04T07:45:58.999Z</time></trkpt><trkpt lat="44.60327736932675" lon="10.123981364732746"><ele>395.8571428571429</ele><time>2026-04-04T07:45:59.999Z</time></trkpt><trkpt lat="44.603333095825555" lon="10.124033083881484"><ele>395.5714285714286</ele><time>2026-04-04T07:46:00.999Z</time></trkpt><trkpt lat="44.60339346751223" lon="10.124090592849827"><ele>395.2857142857143</ele><time>2026-04-04T07:46:01.999Z</time></trkpt><trkpt lat="44.60345656169088" lon="10.124153210514153"><ele>395.0</ele><time>2026-04-04T07:46:02.999Z</time></trkpt><trkpt lat="44.60351971426348" lon="10.12420975799359"><ele>394.66666666666663</ele><time>2026-04-04T07:46:03.999Z</time></trkpt><trkpt lat="44.60358338874643" lon="10.124263038400043"><ele>394.3333333333333</ele><time>2026-04-04T07:46:04.999Z</time></trkpt><trkpt lat="44.603652867140454" lon="10.124325693518283"><ele>394.0</ele><time>2026-04-04T07:46:05.999Z</time></trkpt><trkpt lat="44.60372238984195" lon="10.124388069669738"><ele>393.66666666666663</ele><time>2026-04-04T07:46:06.999Z</time></trkpt><trkpt lat="44.60377823121059" lon="10.124436959937212"><ele>393.3333333333333</ele><time>2026-04-04T07:46:07.999Z</time></trkpt><trkpt lat="44.6038738350973" lon="10.124530794699432"><ele>393.0</ele><time>2026-04-04T07:46:09.999Z</time></trkpt><trkpt lat="44.60397936036059" lon="10.12461869320158"><ele>393.0</ele><time>2026-04-04T07:46:11.999Z</time></trkpt><trkpt lat="44.60401713556098" lon="10.12472320360585"><ele>393.0</ele><time>2026-04-04T07:46:13.999Z</time></trkpt><trkpt lat="44.603968657955576" lon="10.124849854485308"><ele>393.0</ele><time>2026-04-04T07:46:14.999Z</time></trkpt><trkpt lat="44.6038901660093" lon="10.124987568527247"><ele>393.0</ele><time>2026-04-04T07:46:16.999Z</time></trkpt><trkpt lat="44.60383925717267" lon="10.12507140962195"><ele>393.0</ele><time>2026-04-04T07:46:17.999Z</time></trkpt><trkpt lat="44.60378777569587" lon="10.125140768219602"><ele>393.79999999999995</ele><time>2026-04-04T07:46:18.999Z</time></trkpt><trkpt lat="44.603697960901656" lon="10.125195531741829"><ele>394.6</ele><time>2026-04-04T07:46:20.999Z</time></trkpt><trkpt lat="44.60362745316897" lon="10.125271439100594"><ele>395.4</ele><time>2026-04-04T07:47:05Z</time></trkpt><trkpt lat="44.6035652594481" lon="10.125339993515635"><ele>396.20000000000005</ele><time>2026-04-04T07:47:06Z</time></trkpt><trkpt lat="44.60347513546932" lon="10.12542485030853"><ele>397.0</ele><time>2026-04-04T07:47:07Z</time></trkpt><trkpt lat="44.603378536860355" lon="10.125484372410833"><ele>397.75</ele><time>2026-04-04T07:47:08Z</time></trkpt><trkpt lat="44.60326212125697" lon="10.125550024838725"><ele>398.5</ele><time>2026-04-04T07:47:09Z</time></trkpt><trkpt lat="44.603135662896946" lon="10.125617880533671"><ele>399.25</ele><time>2026-04-04T07:47:10Z</time></trkpt><trkpt lat="44.60303783211881" lon="10.1256699869113"><ele>400.0</ele><time>2026-04-04T07:47:11Z</time></trkpt><trkpt lat="44.60294471970039" lon="10.12577722293716"><ele>401.5</ele><time>2026-04-04T07:47:12Z</time></trkpt><trkpt lat="44.60285586064559" lon="10.125925161342499"><ele>403.0</ele><time>2026-04-04T07:47:13Z</time></trkpt><trkpt lat="44.60278335778942" lon="10.126085429982123"><ele>404.5</ele><time>2026-04-04T07:47:14Z</time></trkpt><trkpt lat="44.60271179179608" lon="10.126263102442342"><ele>406.0</ele><time>2026-04-04T07:47:15Z</time></trkpt><trkpt lat="44.60262853897738" lon="10.12645321236816"><ele>409.6666666666667</ele><time>2026-04-04T07:47:16Z</time></trkpt><trkpt lat="44.60254348307939" lon="10.126625109853705"><ele>413.33333333333337</ele><time>2026-04-04T07:47:17Z</time></trkpt><trkpt lat="44.60245273613053" lon="10.126803817176121"><ele>417.0</ele><time>2026-04-04T07:47:18Z</time></trkpt><trkpt lat="44.60236331084902" lon="10.12698608696052"><ele>417.0</ele><time>2026-04-04T07:47:19Z</time></trkpt><trkpt lat="44.60224957588864" lon="10.127150787414193"><ele>417.0</ele><time>2026-04-04T07:47:20Z</time></trkpt><trkpt lat="44.6021327380355" lon="10.127314631664039"><ele>417.0</ele><time>2026-04-04T07:47:21Z</time></trkpt><trkpt lat="44.60200766697013" lon="10.127473371626651"><ele>419.0</ele><time>2026-04-04T07:47:22Z</time></trkpt><trkpt lat="44.601873907322364" lon="10.127640704276322"><ele>421.0</ele><time>2026-04-04T07:47:23Z</time></trkpt><trkpt lat="44.60174441212667" lon="10.12781686581712"><ele>423.0</ele><time>2026-04-04T07:47:24Z</time></trkpt><trkpt lat="44.60161818205408" lon="10.12796747725771"><ele>423.0</ele><time>2026-04-04T07:47:25Z</time></trkpt><trkpt lat="44.60150672073862" lon="10.128121807426853"><ele>423.0</ele><time>2026-04-04T07:47:26Z</time></trkpt><trkpt lat="44.60141718551506" lon="10.12830082746776"><ele>423.0</ele><time>2026-04-04T07:47:27Z</time></trkpt><trkpt lat="44.601327234319875" lon="10.12850355559365"><ele>424.0</ele><time>2026-04-04T07:47:28Z</time></trkpt><trkpt lat="44.601227463884754" lon="10.128718827903405"><ele>425.0</ele><time>2026-04-04T07:47:29Z</time></trkpt><trkpt lat="44.60112331469627" lon="10.128914641981387"><ele>426.0</ele><time>2026-04-04T07:47:30Z</time></trkpt><trkpt lat="44.60103220548671" lon="10.1290991316965"><ele>430.66666666666663</ele><time>2026-04-04T07:47:31Z</time></trkpt><trkpt lat="44.600953415626414" lon="10.1293139270009"><ele>435.3333333333333</ele><time>2026-04-04T07:47:32Z</time></trkpt><trkpt lat="44.6008993559253" lon="10.129568451083498"><ele>440.0</ele><time>2026-04-04T07:47:33Z</time></trkpt><trkpt lat="44.60085384005411" lon="10.129844640596252"><ele>444.0</ele><time>2026-04-04T07:47:34Z</time></trkpt><trkpt lat="44.60080834937573" lon="10.130118541196426"><ele>448.0</ele><time>2026-04-04T07:47:35Z</time></trkpt><trkpt lat="44.6007605017475" lon="10.130387008995752"><ele>452.0</ele><time>2026-04-04T07:47:36Z</time></trkpt><trkpt lat="44.60069421860146" lon="10.130635360996248"><ele>456.3333333333333</ele><time>2026-04-04T07:47:37Z</time></trkpt><trkpt lat="44.60063714576412" lon="10.130824179383996"><ele>460.66666666666663</ele><time>2026-04-04T07:47:38Z</time></trkpt><trkpt lat="44.60053932433455" lon="10.13100222700325"><ele>465.0</ele><time>2026-04-04T07:47:39Z</time></trkpt><trkpt lat="44.600404780690035" lon="10.131170052534198"><ele>463.66666666666663</ele><time>2026-04-04T07:47:40Z</time></trkpt><trkpt lat="44.60023755168658" lon="10.131323059211125"><ele>462.3333333333333</ele><time>2026-04-04T07:47:41Z</time></trkpt><trkpt lat="44.600061458838525" lon="10.131481334802343"><ele>461.0</ele><time>2026-04-04T07:47:42Z</time></trkpt><trkpt lat="44.59988750480712" lon="10.131638515002376"><ele>464.0</ele><time>2026-04-04T07:47:43Z</time></trkpt><trkpt lat="44.599725422702136" lon="10.13180847301649"><ele>467.0</ele><time>2026-04-04T07:47:44Z</time></trkpt><trkpt lat="44.59954465417092" lon="10.131940191129605"><ele>470.0</ele><time>2026-04-04T07:47:45Z</time></trkpt><trkpt lat="44.5993653655732" lon="10.13207629252493"><ele>470.0</ele><time>2026-04-04T07:47:46Z</time></trkpt><trkpt lat="44.59917163649869" lon="10.132183830549652"><ele>470.0</ele><time>2026-04-04T07:47:47Z</time></trkpt><trkpt lat="44.59896303894086" lon="10.132309737401904"><ele>470.0</ele><time>2026-04-04T07:47:48Z</time></trkpt><trkpt lat="44.59875530420823" lon="10.132410707396454"><ele>474.66666666666663</ele><time>2026-04-04T07:47:49Z</time></trkpt><trkpt lat="44.59854564167998" lon="10.132520281616005"><ele>479.33333333333337</ele><time>2026-04-04T07:47:50Z</time></trkpt><trkpt lat="44.59833639618248" lon="10.132631017098442"><ele>484.0</ele><time>2026-04-04T07:47:51Z</time></trkpt><trkpt lat="44.598118451994914" lon="10.132738045925398"><ele>484.0</ele><time>2026-04-04T07:47:52Z</time></trkpt><trkpt lat="44.59791405128245" lon="10.132848598459594"><ele>484.0</ele><time>2026-04-04T07:47:53Z</time></trkpt><trkpt lat="44.59771648358071" lon="10.132947403715212"><ele>484.0</ele><time>2026-04-04T07:47:54Z</time></trkpt><trkpt lat="44.597534467428815" lon="10.133027219955363"><ele>484.0</ele><time>2026-04-04T07:47:55Z</time></trkpt><trkpt lat="44.5973741786938" lon="10.133107320643688"><ele>484.0</ele><time>2026-04-04T07:47:56Z</time></trkpt><trkpt lat="44.597223906851525" lon="10.133186801762594"><ele>484.0</ele><time>2026-04-04T07:47:57Z</time></trkpt><trkpt lat="44.59707959566027" lon="10.13329176257149"><ele>487.0</ele><time>2026-04-04T07:47:58Z</time></trkpt><trkpt lat="44.596953533659764" lon="10.13344944536531"><ele>490.0</ele><time>2026-04-04T07:47:59Z</time></trkpt><trkpt lat="44.59682999766594" lon="10.1336782598737"><ele>493.0</ele><time>2026-04-04T07:47:59.999Z</time></trkpt><trkpt lat="44.59671645496571" lon="10.133926677614449"><ele>498.6666666666667</ele><time>2026-04-04T07:48:00.999Z</time></trkpt><trkpt lat="44.596617169118694" lon="10.134149184867452"><ele>504.33333333333337</ele><time>2026-04-04T07:48:01.999Z</time></trkpt><trkpt lat="44.5964761976152" lon="10.134283784174622"><ele>510.0</ele><time>2026-04-04T07:48:02.999Z</time></trkpt><trkpt lat="44.59633740744061" lon="10.134356179841836"><ele>510.0</ele><time>2026-04-04T07:48:03.999Z</time></trkpt><trkpt lat="44.59617168607809" lon="10.134453668410481"><ele>510.0</ele><time>2026-04-04T07:48:04.999Z</time></trkpt><trkpt lat="44.59598900928594" lon="10.13456955641278"><ele>510.0</ele><time>2026-04-04T07:48:05.999Z</time></trkpt><trkpt lat="44.595823863820556" lon="10.13472093575539"><ele>514.5</ele><time>2026-04-04T07:48:06.999Z</time></trkpt><trkpt lat="44.595645003374614" lon="10.134913931313298"><ele>519.0</ele><time>2026-04-04T07:48:07.999Z</time></trkpt><trkpt lat="44.59544965062207" lon="10.135148750784289"><ele>513.0</ele><time>2026-04-04T07:48:08.999Z</time></trkpt><trkpt lat="44.59525494682965" lon="10.135378138132744"><ele>507.0</ele><time>2026-04-04T07:48:09.999Z</time></trkpt><trkpt lat="44.59510526600032" lon="10.1355546861803"><ele>507.0</ele><time>2026-04-04T07:48:10.999Z</time></trkpt><trkpt lat="44.59500749146098" lon="10.135670010904834"><ele>507.0</ele><time>2026-04-04T07:48:11.999Z</time></trkpt><trkpt lat="44.59479410528461" lon="10.13594960827539"><ele>507.0</ele><time>2026-04-04T07:48:12.999Z</time></trkpt><trkpt lat="44.59466715814067" lon="10.136109534065461"><ele>510.0</ele><time>2026-04-04T07:48:13.999Z</time></trkpt><trkpt lat="44.5945638502399" lon="10.136273192507584"><ele>513.0</ele><time>2026-04-04T07:48:14.999Z</time></trkpt><trkpt lat="44.59450910171055" lon="10.136480014222103"><ele>516.0</ele><time>2026-04-04T07:48:15.999Z</time></trkpt><trkpt lat="44.5944978781591" lon="10.136721635747454"><ele>523.3333333333334</ele><time>2026-04-04T07:48:16.999Z</time></trkpt><trkpt lat="44.59455561613949" lon="10.136960882552906"><ele>530.6666666666667</ele><time>2026-04-04T07:48:17.999Z</time></trkpt><trkpt lat="44.59462206585791" lon="10.13721265560258"><ele>538.0</ele><time>2026-04-04T07:48:18.999Z</time></trkpt><trkpt lat="44.59475528769763" lon="10.13747896353928"><ele>540.0</ele><time>2026-04-04T07:48:19.999Z</time></trkpt><trkpt lat="44.594882579926654" lon="10.137774382001895"><ele>542.0</ele><time>2026-04-04T07:48:20.999Z</time></trkpt><trkpt lat="44.59498426116372" lon="10.138092034034988"><ele>540.5</ele><time>2026-04-04T07:48:21.999Z</time></trkpt><trkpt lat="44.59507404769712" lon="10.138399598982302"><ele>539.0</ele><time>2026-04-04T07:48:22.999Z</time></trkpt><trkpt lat="44.59516267420014" lon="10.138695346520203"><ele>539.0</ele><time>2026-04-04T07:48:23.999Z</time></trkpt><trkpt lat="44.59524459005514" lon="10.138964671601716"><ele>539.0</ele><time>2026-04-04T07:48:24.999Z</time></trkpt><trkpt lat="44.595314198539185" lon="10.139211205726523"><ele>539.0</ele><time>2026-04-04T07:48:25.999Z</time></trkpt><trkpt lat="44.59532888452222" lon="10.1394425978518"><ele>538.0</ele><time>2026-04-04T07:48:26.999Z</time></trkpt><trkpt lat="44.59529621372456" lon="10.139665948665456"><ele>537.0</ele><time>2026-04-04T07:48:27.999Z</time></trkpt><trkpt lat="44.59522194342742" lon="10.13990161035445"><ele>536.0</ele><time>2026-04-04T07:48:28.999Z</time></trkpt><trkpt lat="44.59513599012343" lon="10.140193472517339"><ele>540.5</ele><time>2026-04-04T07:48:29.999Z</time></trkpt><trkpt lat="44.595047406788055" lon="10.140496712295098"><ele>545.0</ele><time>2026-04-04T07:48:30.999Z</time></trkpt><trkpt lat="44.59495262324323" lon="10.140809699483134"><ele>552.0</ele><time>2026-04-04T07:48:31.999Z</time></trkpt><trkpt lat="44.59485531440982" lon="10.141125697104552"><ele>559.0</ele><time>2026-04-04T07:48:32.999Z</time></trkpt><trkpt lat="44.59475396587979" lon="10.14142365340007"><ele>556.3333333333334</ele><time>2026-04-04T07:48:33.999Z</time></trkpt><trkpt lat="44.594631806983664" lon="10.141642240472796"><ele>553.6666666666666</ele><time>2026-04-04T07:48:34.999Z</time></trkpt><trkpt lat="44.59448182135046" lon="10.141837899862715"><ele>551.0</ele><time>2026-04-04T07:48:36Z</time></trkpt><trkpt lat="44.59436128543927" lon="10.14203183663673"><ele>551.0</ele><time>2026-04-04T07:48:37Z</time></trkpt><trkpt lat="44.59428799103577" lon="10.142218451349683"><ele>551.0</ele><time>2026-04-04T07:48:38Z</time></trkpt><trkpt lat="44.59425400828123" lon="10.142410644564594"><ele>551.0</ele><time>2026-04-04T07:48:39Z</time></trkpt><trkpt lat="44.5942671115644" lon="10.142666366892007"><ele>555.6666666666666</ele><time>2026-04-04T07:48:40Z</time></trkpt><trkpt lat="44.594280114452225" lon="10.142947176540691"><ele>560.3333333333334</ele><time>2026-04-04T07:48:41Z</time></trkpt><trkpt lat="44.59427733845304" lon="10.143161063308975"><ele>565.0</ele><time>2026-04-04T07:48:42Z</time></trkpt><trkpt lat="44.59420778229277" lon="10.143295729522274"><ele>567.75</ele><time>2026-04-04T07:48:43Z</time></trkpt><trkpt lat="44.59411528045673" lon="10.143366412533753"><ele>570.5</ele><time>2026-04-04T07:48:44Z</time></trkpt><trkpt lat="44.59398462758186" lon="10.143443879672958"><ele>573.25</ele><time>2026-04-04T07:48:45Z</time></trkpt><trkpt lat="44.593814939270636" lon="10.143567533119715"><ele>576.0</ele><time>2026-04-04T07:48:46Z</time></trkpt><trkpt lat="44.593628920609845" lon="10.14370223644275"><ele>576.0</ele><time>2026-04-04T07:48:47Z</time></trkpt><trkpt lat="44.59342530603896" lon="10.143855118861335"><ele>576.0</ele><time>2026-04-04T07:48:48Z</time></trkpt><trkpt lat="44.59322697207966" lon="10.144004879909145"><ele>581.3333333333334</ele><time>2026-04-04T07:48:49Z</time></trkpt><trkpt lat="44.59304150821673" lon="10.144139402976617"><ele>586.6666666666667</ele><time>2026-04-04T07:48:50Z</time></trkpt><trkpt lat="44.59288615895332" lon="10.144226381318191"><ele>592.0</ele><time>2026-04-04T07:48:51Z</time></trkpt><trkpt lat="44.59274444323335" lon="10.144253644216375"><ele>592.0</ele><time>2026-04-04T07:48:52Z</time></trkpt><trkpt lat="44.592623626322904" lon="10.144217125362893"><ele>592.0</ele><time>2026-04-04T07:48:53Z</time></trkpt><trkpt lat="44.59250353790528" lon="10.144145559091847"><ele>592.0</ele><time>2026-04-04T07:48:54Z</time></trkpt><trkpt lat="44.59234991835418" lon="10.144028987296315"><ele>592.0</ele><time>2026-04-04T07:48:55Z</time></trkpt><trkpt lat="44.59216608937967" lon="10.143887311866754"><ele>594.0</ele><time>2026-04-04T07:48:56Z</time></trkpt><trkpt lat="44.59198137062486" lon="10.143768585446713"><ele>596.0</ele><time>2026-04-04T07:48:57Z</time></trkpt><trkpt lat="44.59184026741904" lon="10.143657824821853"><ele>598.0</ele><time>2026-04-04T07:48:58Z</time></trkpt><trkpt lat="44.59172889467516" lon="10.143586940496032"><ele>598.0</ele><time>2026-04-04T07:48:59Z</time></trkpt><trkpt lat="44.59162987804283" lon="10.143543420634856"><ele>598.0</ele><time>2026-04-04T07:49:00Z</time></trkpt><trkpt lat="44.59154149685549" lon="10.14356309887847"><ele>598.0</ele><time>2026-04-04T07:49:01Z</time></trkpt><trkpt lat="44.59145307847225" lon="10.14364176061398"><ele>598.0</ele><time>2026-04-04T07:49:02Z</time></trkpt><trkpt lat="44.59137609500421" lon="10.143772525761618"><ele>598.0</ele><time>2026-04-04T07:49:03Z</time></trkpt><trkpt lat="44.59132524832603" lon="10.143950425189109"><ele>598.3333333333334</ele><time>2026-04-04T07:49:04Z</time></trkpt><trkpt lat="44.5913174070511" lon="10.144168970239226"><ele>598.6666666666666</ele><time>2026-04-04T07:49:05Z</time></trkpt><trkpt lat="44.59136781541678" lon="10.144427905569072"><ele>599.0</ele><time>2026-04-04T07:49:06Z</time></trkpt><trkpt lat="44.591425915548555" lon="10.144737003334988"><ele>602.6666666666666</ele><time>2026-04-04T07:49:07Z</time></trkpt><trkpt lat="44.59146396961003" lon="10.145029065426277"><ele>606.3333333333334</ele><time>2026-04-04T07:49:08Z</time></trkpt><trkpt lat="44.5915037262523" lon="10.145330936012842"><ele>610.0</ele><time>2026-04-04T07:49:09Z</time></trkpt><trkpt lat="44.59153900497485" lon="10.145585322548015"><ele>613.0</ele><time>2026-04-04T07:49:10Z</time></trkpt><trkpt lat="44.59150120621058" lon="10.145811556083391"><ele>616.0</ele><time>2026-04-04T07:49:11Z</time></trkpt><trkpt lat="44.59143523698171" lon="10.146073050405224"><ele>619.0</ele><time>2026-04-04T07:49:12Z</time></trkpt><trkpt lat="44.59136218273311" lon="10.14637670870611"><ele>627.5</ele><time>2026-04-04T07:49:13Z</time></trkpt><trkpt lat="44.59128236071133" lon="10.146673461353663"><ele>636.0</ele><time>2026-04-04T07:49:14Z</time></trkpt><trkpt lat="44.59117737266808" lon="10.146951262996186"><ele>628.6666666666666</ele><time>2026-04-04T07:49:15Z</time></trkpt><trkpt lat="44.59108608145314" lon="10.14719217758482"><ele>621.3333333333333</ele><time>2026-04-04T07:49:16Z</time></trkpt><trkpt lat="44.59103335053236" lon="10.147401167547702"><ele>614.0</ele><time>2026-04-04T07:49:17Z</time></trkpt><trkpt lat="44.59102353929572" lon="10.147596021168013"><ele>614.0</ele><time>2026-04-04T07:49:18Z</time></trkpt><trkpt lat="44.591064906059735" lon="10.147836192744242"><ele>614.0</ele><time>2026-04-04T07:49:19Z</time></trkpt><trkpt lat="44.591098624838715" lon="10.148077752992904"><ele>614.0</ele><time>2026-04-04T07:49:20Z</time></trkpt><trkpt lat="44.59104380460163" lon="10.148248591524535"><ele>618.3333333333333</ele><time>2026-04-04T07:49:21Z</time></trkpt><trkpt lat="44.59096491227974" lon="10.148369418130494"><ele>622.6666666666666</ele><time>2026-04-04T07:49:22Z</time></trkpt><trkpt lat="44.59083269952452" lon="10.14848522223359"><ele>627.0</ele><time>2026-04-04T07:49:23Z</time></trkpt><trkpt lat="44.59065236192689" lon="10.148626337954784"><ele>627.0</ele><time>2026-04-04T07:49:24Z</time></trkpt><trkpt lat="44.59047168025324" lon="10.148766049495958"><ele>627.0</ele><time>2026-04-04T07:49:25Z</time></trkpt><trkpt lat="44.59028051978456" lon="10.148929703636346"><ele>627.0</ele><time>2026-04-04T07:49:26Z</time></trkpt><trkpt lat="44.590116100696605" lon="10.149132228184307"><ele>630.3333333333334</ele><time>2026-04-04T07:49:27Z</time></trkpt><trkpt lat="44.589939989824046" lon="10.149224984433953"><ele>633.6666666666667</ele><time>2026-04-04T07:49:28Z</time></trkpt><trkpt lat="44.589762430975085" lon="10.149279752711418"><ele>637.0</ele><time>2026-04-04T07:49:29Z</time></trkpt><trkpt lat="44.58955048783156" lon="10.149342687989366"><ele>637.3333333333334</ele><time>2026-04-04T07:49:30Z</time></trkpt><trkpt lat="44.589342374914295" lon="10.149411247989942"><ele>637.6666666666666</ele><time>2026-04-04T07:49:31Z</time></trkpt><trkpt lat="44.58914048893628" lon="10.149519223171877"><ele>638.0</ele><time>2026-04-04T07:49:32Z</time></trkpt><trkpt lat="44.58893460756496" lon="10.149630113895645"><ele>638.0</ele><time>2026-04-04T07:49:33Z</time></trkpt><trkpt lat="44.58875545759717" lon="10.149735297267748"><ele>638.0</ele><time>2026-04-04T07:49:34Z</time></trkpt><trkpt lat="44.58862407125462" lon="10.149810550233836"><ele>638.0</ele><time>2026-04-04T07:49:35Z</time></trkpt><trkpt lat="44.58852126346714" lon="10.149887968626054"><ele>640.3333333333333</ele><time>2026-04-04T07:49:36Z</time></trkpt><trkpt lat="44.58843930412686" lon="10.150008264895295"><ele>642.6666666666666</ele><time>2026-04-04T07:49:37Z</time></trkpt><trkpt lat="44.58837019425094" lon="10.15022183354577"><ele>645.0</ele><time>2026-04-04T07:49:38Z</time></trkpt><trkpt lat="44.58830860823483" lon="10.150496439021147"><ele>650.0</ele><time>2026-04-04T07:49:39Z</time></trkpt><trkpt lat="44.58823148930883" lon="10.150777156025109"><ele>655.0</ele><time>2026-04-04T07:49:40Z</time></trkpt><trkpt lat="44.58814642797153" lon="10.151030969272922"><ele>660.0</ele><time>2026-04-04T07:49:41Z</time></trkpt><trkpt lat="44.58798054511652" lon="10.151213376217761"><ele>660.0</ele><time>2026-04-04T07:49:42Z</time></trkpt><trkpt lat="44.587796659408205" lon="10.15141809641947"><ele>660.0</ele><time>2026-04-04T07:49:43Z</time></trkpt><trkpt lat="44.58762286997557" lon="10.151613633051477"><ele>660.0</ele><time>2026-04-04T07:49:44Z</time></trkpt><trkpt lat="44.58749311428475" lon="10.151790547291577"><ele>660.0</ele><time>2026-04-04T07:49:45Z</time></trkpt><trkpt lat="44.58741131055874" lon="10.151941528627816"><ele>660.0</ele><time>2026-04-04T07:49:46Z</time></trkpt><trkpt lat="44.58737122057469" lon="10.15211469306032"><ele>660.0</ele><time>2026-04-04T07:49:47Z</time></trkpt><trkpt lat="44.587388644059686" lon="10.152365819452896"><ele>663.3333333333334</ele><time>2026-04-04T07:49:48Z</time></trkpt><trkpt lat="44.5873990683768" lon="10.152661308662768"><ele>666.6666666666667</ele><time>2026-04-04T07:49:49Z</time></trkpt><trkpt lat="44.58741265721477" lon="10.152977973123976"><ele>670.0</ele><time>2026-04-04T07:49:50Z</time></trkpt><trkpt lat="44.58740811067919" lon="10.153251103676176"><ele>671.3333333333334</ele><time>2026-04-04T07:49:51Z</time></trkpt><trkpt lat="44.587414202413775" lon="10.153477362659672"><ele>672.6666666666666</ele><time>2026-04-04T07:49:52Z</time></trkpt><trkpt lat="44.58747730754308" lon="10.153662616799059"><ele>674.0</ele><time>2026-04-04T07:49:53Z</time></trkpt><trkpt lat="44.58757960621865" lon="10.153883891723888"><ele>672.3333333333333</ele><time>2026-04-04T07:49:54Z</time></trkpt><trkpt lat="44.587709866991055" lon="10.154114777917977"><ele>670.6666666666666</ele><time>2026-04-04T07:49:55Z</time></trkpt><trkpt lat="44.58774191332741" lon="10.154378966145485"><ele>669.0</ele><time>2026-04-04T07:49:56Z</time></trkpt><trkpt lat="44.58775574730562" lon="10.154686483296109"><ele>670.5</ele><time>2026-04-04T07:49:57Z</time></trkpt><trkpt lat="44.58780079395626" lon="10.154993345117894"><ele>672.0</ele><time>2026-04-04T07:49:58Z</time></trkpt><trkpt lat="44.58786257570525" lon="10.155301813645204"><ele>682.0</ele><time>2026-04-04T07:49:59Z</time></trkpt><trkpt lat="44.58789526666806" lon="10.155546953689088"><ele>692.0</ele><time>2026-04-04T07:50:00Z</time></trkpt><trkpt lat="44.58787631767448" lon="10.155794948412538"><ele>702.0</ele><time>2026-04-04T07:50:01Z</time></trkpt><trkpt lat="44.58785215797169" lon="10.15610367877085"><ele>696.6666666666666</ele><time>2026-04-04T07:50:02Z</time></trkpt><trkpt lat="44.58784287273264" lon="10.156407028319725"><ele>691.3333333333333</ele><time>2026-04-04T07:50:03Z</time></trkpt><trkpt lat="44.587805189485884" lon="10.15666382442891"><ele>686.0</ele><time>2026-04-04T07:50:04Z</time></trkpt><trkpt lat="44.58775613331095" lon="10.15689567465584"><ele>686.0</ele><time>2026-04-04T07:50:05Z</time></trkpt><trkpt lat="44.58766024520109" lon="10.157079693321315"><ele>686.0</ele><time>2026-04-04T07:50:06Z</time></trkpt><trkpt lat="44.58756521144343" lon="10.157235784188885"><ele>686.0</ele><time>2026-04-04T07:50:07Z</time></trkpt><trkpt lat="44.587464387292805" lon="10.157343846742274"><ele>686.0</ele><time>2026-04-04T07:50:08Z</time></trkpt><trkpt lat="44.58732152728675" lon="10.157429921307214"><ele>688.25</ele><time>2026-04-04T07:50:09Z</time></trkpt><trkpt lat="44.587158661468735" lon="10.157551239082173"><ele>690.5</ele><time>2026-04-04T07:50:10Z</time></trkpt><trkpt lat="44.5870480618054" lon="10.157667410280375"><ele>692.75</ele><time>2026-04-04T07:50:11Z</time></trkpt><trkpt lat="44.5869775797445" lon="10.157793407209835"><ele>695.0</ele><time>2026-04-04T07:50:12Z</time></trkpt><trkpt lat="44.58693722214817" lon="10.157982955298314"><ele>697.0</ele><time>2026-04-04T07:50:13Z</time></trkpt><trkpt lat="44.586931655919315" lon="10.158218524365974"><ele>699.0</ele><time>2026-04-04T07:50:14Z</time></trkpt><trkpt lat="44.586912208160136" lon="10.15845318195256"><ele>701.0</ele><time>2026-04-04T07:50:15Z</time></trkpt><trkpt lat="44.58689238343437" lon="10.158669015315777"><ele>701.0</ele><time>2026-04-04T07:50:16Z</time></trkpt><trkpt lat="44.58682728443504" lon="10.158801147424818"><ele>701.0</ele><time>2026-04-04T07:50:17Z</time></trkpt><trkpt lat="44.58670775804776" lon="10.158880452879114"><ele>701.0</ele><time>2026-04-04T07:50:17.999Z</time></trkpt><trkpt lat="44.58656206043197" lon="10.159002573632462"><ele>701.0</ele><time>2026-04-04T07:50:18.999Z</time></trkpt><trkpt lat="44.58638973940711" lon="10.15910174214441"><ele>700.0</ele><time>2026-04-04T07:50:19.999Z</time></trkpt><trkpt lat="44.58622956344145" lon="10.15921653888255"><ele>699.0</ele><time>2026-04-04T07:50:20.999Z</time></trkpt><trkpt lat="44.58608568882397" lon="10.159323817816205"><ele>698.0</ele><time>2026-04-04T07:50:21.999Z</time></trkpt><trkpt lat="44.58595646807233" lon="10.159421713274483"><ele>698.0</ele><time>2026-04-04T07:50:22.999Z</time></trkpt><trkpt lat="44.58583473670351" lon="10.159513360018297"><ele>698.0</ele><time>2026-04-04T07:50:23.999Z</time></trkpt><trkpt lat="44.58569799287238" lon="10.159618916197429"><ele>698.0</ele><time>2026-04-04T07:50:24.999Z</time></trkpt><trkpt lat="44.58554008681019" lon="10.15972913551582"><ele>698.0</ele><time>2026-04-04T07:50:25.999Z</time></trkpt><trkpt lat="44.585384968422254" lon="10.15980268095065"><ele>698.0</ele><time>2026-04-04T07:50:26.999Z</time></trkpt><trkpt lat="44.585276449834986" lon="10.1598114215421"><ele>698.0</ele><time>2026-04-04T07:50:27.999Z</time></trkpt><trkpt lat="44.58521179222502" lon="10.159747587286027"><ele>698.0</ele><time>2026-04-04T07:50:28.999Z</time></trkpt><trkpt lat="44.58516234595646" lon="10.159638604422708"><ele>698.0</ele><time>2026-04-04T07:50:29.999Z</time></trkpt><trkpt lat="44.58514330613108" lon="10.159490038367078"><ele>698.75</ele><time>2026-04-04T07:50:30.999Z</time></trkpt><trkpt lat="44.585089672908275" lon="10.159320654767225"><ele>699.5</ele><time>2026-04-04T07:50:31.999Z</time></trkpt><trkpt lat="44.58505223487936" lon="10.159167998436919"><ele>700.25</ele><time>2026-04-04T07:50:32.999Z</time></trkpt><trkpt lat="44.58497802748006" lon="10.159088565151622"><ele>701.0</ele><time>2026-04-04T07:50:33.999Z</time></trkpt><trkpt lat="44.5848519804057" lon="10.159062016843146"><ele>701.0</ele><time>2026-04-04T07:50:34.999Z</time></trkpt><trkpt lat="44.58472326359713" lon="10.159113544836474"><ele>701.0</ele><time>2026-04-04T07:50:35.999Z</time></trkpt><trkpt lat="44.584632009036696" lon="10.159247822082918"><ele>701.0</ele><time>2026-04-04T07:50:36.999Z</time></trkpt><trkpt lat="44.58457619402526" lon="10.159451359593241"><ele>701.0</ele><time>2026-04-04T07:50:37.999Z</time></trkpt><trkpt lat="44.584536478101114" lon="10.159745999948306"><ele>701.3333333333333</ele><time>2026-04-04T07:50:38.999Z</time></trkpt><trkpt lat="44.58449246006929" lon="10.160043835312393"><ele>701.6666666666666</ele><time>2026-04-04T07:50:39.999Z</time></trkpt><trkpt lat="44.584406284108084" lon="10.160314169311013"><ele>702.0</ele><time>2026-04-04T07:50:40.999Z</time></trkpt><trkpt lat="44.584288269159174" lon="10.160627462146367"><ele>709.0</ele><time>2026-04-04T07:50:42Z</time></trkpt><trkpt lat="44.584138986654956" lon="10.160987500012416"><ele>716.0</ele><time>2026-04-04T07:50:43Z</time></trkpt><trkpt lat="44.583991586396806" lon="10.16134942062455"><ele>716.0</ele><time>2026-04-04T07:50:44Z</time></trkpt><trkpt lat="44.583917957765564" lon="10.161530930443547"><ele>716.0</ele><time>2026-04-04T07:50:45Z</time></trkpt><trkpt lat="44.583820423894856" lon="10.161769888443999"><ele>716.0</ele><time>2026-04-04T07:50:46Z</time></trkpt><trkpt lat="44.583737515945806" lon="10.161939087883532"><ele>717.25</ele><time>2026-04-04T07:50:47Z</time></trkpt><trkpt lat="44.58364519361494" lon="10.162067072468178"><ele>718.5</ele><time>2026-04-04T07:50:48Z</time></trkpt><trkpt lat="44.58352787005624" lon="10.16215522727889"><ele>719.75</ele><time>2026-04-04T07:50:49Z</time></trkpt><trkpt lat="44.58340239050262" lon="10.162329213652978"><ele>721.0</ele><time>2026-04-04T07:50:50Z</time></trkpt><trkpt lat="44.583240000356604" lon="10.162370485210696"><ele>721.0</ele><time>2026-04-04T07:50:51Z</time></trkpt><trkpt lat="44.5830763934114" lon="10.16233392443681"><ele>721.0</ele><time>2026-04-04T07:50:52Z</time></trkpt><trkpt lat="44.58292373703467" lon="10.162200888158996"><ele>721.0</ele><time>2026-04-04T07:50:53Z</time></trkpt><trkpt lat="44.58283343503731" lon="10.161910102890259"><ele>724.0</ele><time>2026-04-04T07:50:54Z</time></trkpt><trkpt lat="44.582665840518565" lon="10.161686358294231"><ele>727.0</ele><time>2026-04-04T07:50:55Z</time></trkpt><trkpt lat="44.582503199764226" lon="10.161468380448035"><ele>727.0</ele><time>2026-04-04T07:50:56Z</time></trkpt><trkpt lat="44.58234740662312" lon="10.161247367757204"><ele>727.0</ele><time>2026-04-04T07:50:57Z</time></trkpt><trkpt lat="44.582227074545926" lon="10.16098155504807"><ele>727.0</ele><time>2026-04-04T07:50:58Z</time></trkpt><trkpt lat="44.58212752056677" lon="10.160727560854646"><ele>731.3333333333334</ele><time>2026-04-04T07:50:59Z</time></trkpt><trkpt lat="44.58202163824096" lon="10.1604998048507"><ele>735.6666666666666</ele><time>2026-04-04T07:51:00Z</time></trkpt><trkpt lat="44.58189124528198" lon="10.160276976032293"><ele>740.0</ele><time>2026-04-04T07:51:01Z</time></trkpt><trkpt lat="44.581784963915396" lon="10.160070590293826"><ele>740.0</ele><time>2026-04-04T07:51:02Z</time></trkpt><trkpt lat="44.58170716179705" lon="10.15994263859614"><ele>740.0</ele><time>2026-04-04T07:51:03Z</time></trkpt><trkpt lat="44.581615819136466" lon="10.15987322155879"><ele>740.0</ele><time>2026-04-04T07:51:04Z</time></trkpt><trkpt lat="44.58149845002181" lon="10.159886865361878"><ele>740.0</ele><time>2026-04-04T07:51:05Z</time></trkpt><trkpt lat="44.581329563096325" lon="10.159979841615193"><ele>740.5</ele><time>2026-04-04T07:51:06Z</time></trkpt><trkpt lat="44.5811135091667" lon="10.160166425784539"><ele>741.0</ele><time>2026-04-04T07:51:07Z</time></trkpt><trkpt lat="44.58090074415271" lon="10.160269506859603"><ele>741.0</ele><time>2026-04-04T07:51:08Z</time></trkpt><trkpt lat="44.58066503919125" lon="10.16035237865238"><ele>741.0</ele><time>2026-04-04T07:51:09Z</time></trkpt><trkpt lat="44.58049257993388" lon="10.16045114235973"><ele>741.0</ele><time>2026-04-04T07:51:10Z</time></trkpt><trkpt lat="44.58032060307171" lon="10.16055376879569"><ele>739.0</ele><time>2026-04-04T07:51:11Z</time></trkpt><trkpt lat="44.58014413955729" lon="10.160651108093147"><ele>737.0</ele><time>2026-04-04T07:51:12Z</time></trkpt><trkpt lat="44.579992090796985" lon="10.160751285120176"><ele>735.0</ele><time>2026-04-04T07:51:13Z</time></trkpt><trkpt lat="44.57985379895883" lon="10.160884242895376"><ele>740.5</ele><time>2026-04-04T07:51:14Z</time></trkpt><trkpt lat="44.57974614484402" lon="10.161060522217545"><ele>746.0</ele><time>2026-04-04T07:51:15Z</time></trkpt><trkpt lat="44.579626178522396" lon="10.161128458244745"><ele>751.5</ele><time>2026-04-04T07:51:16Z</time></trkpt><trkpt lat="44.57953680456091" lon="10.161118448585905"><ele>757.0</ele><time>2026-04-04T07:51:17Z</time></trkpt><trkpt lat="44.579418456483786" lon="10.161061373011208"><ele>755.6666666666667</ele><time>2026-04-04T07:51:18Z</time></trkpt><trkpt lat="44.57932838323981" lon="10.160849758193343"><ele>754.3333333333334</ele><time>2026-04-04T07:51:19Z</time></trkpt><trkpt lat="44.579200235027706" lon="10.160638028414477"><ele>753.0</ele><time>2026-04-04T07:51:20Z</time></trkpt><trkpt lat="44.57909051159413" lon="10.16039879062185"><ele>753.0</ele><time>2026-04-04T07:51:21Z</time></trkpt><trkpt lat="44.578984835818524" lon="10.16020732326732"><ele>753.0</ele><time>2026-04-04T07:51:22Z</time></trkpt><trkpt lat="44.57889231042327" lon="10.160069571412507"><ele>753.0</ele><time>2026-04-04T07:51:23Z</time></trkpt><trkpt lat="44.57879476318017" lon="10.160007120493098"><ele>753.0</ele><time>2026-04-04T07:51:24Z</time></trkpt><trkpt lat="44.57865434167081" lon="10.160032774791429"><ele>757.0</ele><time>2026-04-04T07:51:25Z</time></trkpt><trkpt lat="44.578487311616286" lon="10.160129701547572"><ele>761.0</ele><time>2026-04-04T07:51:26Z</time></trkpt><trkpt lat="44.578307438837506" lon="10.160275316597867"><ele>765.0</ele><time>2026-04-04T07:51:27Z</time></trkpt><trkpt lat="44.57815010831802" lon="10.160367698384528"><ele>765.0</ele><time>2026-04-04T07:51:28Z</time></trkpt><trkpt lat="44.57800396006853" lon="10.160339158964712"><ele>765.0</ele><time>2026-04-04T07:51:29Z</time></trkpt><trkpt lat="44.57785944762842" lon="10.160241334414753"><ele>765.0</ele><time>2026-04-04T07:51:30Z</time></trkpt><trkpt lat="44.57770276136237" lon="10.160153714867901"><ele>765.75</ele><time>2026-04-04T07:51:31Z</time></trkpt><trkpt lat="44.57758708168285" lon="10.160087671375038"><ele>766.5</ele><time>2026-04-04T07:51:32Z</time></trkpt><trkpt lat="44.57748146202251" lon="10.160104684506676"><ele>767.25</ele><time>2026-04-04T07:51:33Z</time></trkpt><trkpt lat="44.577391599454515" lon="10.160206537059487"><ele>768.0</ele><time>2026-04-04T07:51:34Z</time></trkpt><trkpt lat="44.577310281719704" lon="10.160396625447296"><ele>768.0</ele><time>2026-04-04T07:51:35Z</time></trkpt><trkpt lat="44.57720505249976" lon="10.160677876758056"><ele>768.0</ele><time>2026-04-04T07:51:36Z</time></trkpt><trkpt lat="44.57708121886469" lon="10.16092207088552"><ele>768.0</ele><time>2026-04-04T07:51:37Z</time></trkpt><trkpt lat="44.576900000347514" lon="10.161093386541028"><ele>770.3333333333333</ele><time>2026-04-04T07:51:38Z</time></trkpt><trkpt lat="44.576794093724075" lon="10.16125547211822"><ele>772.6666666666666</ele><time>2026-04-04T07:51:39Z</time></trkpt><trkpt lat="44.57671739348978" lon="10.16140603555279"><ele>775.0</ele><time>2026-04-04T07:51:40Z</time></trkpt><trkpt lat="44.57664717636613" lon="10.161660166322475"><ele>780.6666666666666</ele><time>2026-04-04T07:51:41Z</time></trkpt><trkpt lat="44.576577107887495" lon="10.161943624174087"><ele>786.3333333333333</ele><time>2026-04-04T07:51:42Z</time></trkpt><trkpt lat="44.576503165216444" lon="10.162213861344695"><ele>792.0</ele><time>2026-04-04T07:51:43Z</time></trkpt><trkpt lat="44.57642033871837" lon="10.162457320967727"><ele>791.3333333333333</ele><time>2026-04-04T07:51:44Z</time></trkpt><trkpt lat="44.57634496248078" lon="10.162577946512204"><ele>790.6666666666666</ele><time>2026-04-04T07:51:45Z</time></trkpt><trkpt lat="44.57616081045279" lon="10.162747481286553"><ele>790.0</ele><time>2026-04-04T07:51:46Z</time></trkpt><trkpt lat="44.57602077089078" lon="10.162821319724394"><ele>790.0</ele><time>2026-04-04T07:51:47Z</time></trkpt><trkpt lat="44.57589134540842" lon="10.162949161736897"><ele>790.0</ele><time>2026-04-04T07:51:48Z</time></trkpt><trkpt lat="44.57576154524831" lon="10.163065123404325"><ele>790.0</ele><time>2026-04-04T07:51:49Z</time></trkpt><trkpt lat="44.5756597010284" lon="10.163285749373367"><ele>796.3333333333333</ele><time>2026-04-04T07:51:50Z</time></trkpt><trkpt lat="44.575561672451734" lon="10.163560121192235"><ele>802.6666666666667</ele><time>2026-04-04T07:51:51Z</time></trkpt><trkpt lat="44.57547538610398" lon="10.163814276599382"><ele>809.0</ele><time>2026-04-04T07:51:52Z</time></trkpt><trkpt lat="44.57541938962999" lon="10.164088287636256"><ele>809.3333333333334</ele><time>2026-04-04T07:51:53Z</time></trkpt><trkpt lat="44.575394733221955" lon="10.164396070559675"><ele>809.6666666666667</ele><time>2026-04-04T07:51:54Z</time></trkpt><trkpt lat="44.575345362562786" lon="10.164673605406954"><ele>810.0</ele><time>2026-04-04T07:51:55Z</time></trkpt><trkpt lat="44.575258852409135" lon="10.164907231795947"><ele>810.0</ele><time>2026-04-04T07:51:56Z</time></trkpt><trkpt lat="44.575184826607995" lon="10.165083898704028"><ele>810.0</ele><time>2026-04-04T07:51:57Z</time></trkpt><trkpt lat="44.57518423098119" lon="10.165231581089186"><ele>810.0</ele><time>2026-04-04T07:51:58Z</time></trkpt><trkpt lat="44.5752487309251" lon="10.165411889885961"><ele>810.0</ele><time>2026-04-04T07:51:59Z</time></trkpt><trkpt lat="44.57537385728338" lon="10.165600833716063"><ele>819.0</ele><time>2026-04-04T07:52:00Z</time></trkpt><trkpt lat="44.575489471558406" lon="10.165795351975463"><ele>828.0</ele><time>2026-04-04T07:52:01Z</time></trkpt><trkpt lat="44.57553553891054" lon="10.165975622623842"><ele>837.0</ele><time>2026-04-04T07:52:02Z</time></trkpt><trkpt lat="44.57550462456127" lon="10.166168314229196"><ele>837.0</ele><time>2026-04-04T07:52:03Z</time></trkpt><trkpt lat="44.57540544291637" lon="10.16631689868728"><ele>837.0</ele><time>2026-04-04T07:52:04Z</time></trkpt><trkpt lat="44.575272233064574" lon="10.166408068459669"><ele>837.0</ele><time>2026-04-04T07:52:05Z</time></trkpt><trkpt lat="44.575127158443635" lon="10.166433453373251"><ele>837.0</ele><time>2026-04-04T07:52:06Z</time></trkpt><trkpt lat="44.57501491558177" lon="10.166500734336145"><ele>835.3333333333333</ele><time>2026-04-04T07:52:07Z</time></trkpt><trkpt lat="44.57494186008615" lon="10.166682312414787"><ele>833.6666666666666</ele><time>2026-04-04T07:52:08Z</time></trkpt><trkpt lat="44.57488502554452" lon="10.166958756370228"><ele>832.0</ele><time>2026-04-04T07:52:09Z</time></trkpt><trkpt lat="44.574808675411674" lon="10.16725738575713"><ele>835.6666666666666</ele><time>2026-04-04T07:52:10Z</time></trkpt><trkpt lat="44.57473683788432" lon="10.167506116649214"><ele>839.3333333333333</ele><time>2026-04-04T07:52:11Z</time></trkpt><trkpt lat="44.57465454530135" lon="10.167697933883765"><ele>843.0</ele><time>2026-04-04T07:52:12Z</time></trkpt><trkpt lat="44.574523643139194" lon="10.167871013667137"><ele>838.3333333333333</ele><time>2026-04-04T07:52:13Z</time></trkpt><trkpt lat="44.57432689304672" lon="10.16799956372807"><ele>833.6666666666666</ele><time>2026-04-04T07:52:14Z</time></trkpt><trkpt lat="44.57411042451851" lon="10.168084105456737"><ele>829.0</ele><time>2026-04-04T07:52:15Z</time></trkpt><trkpt lat="44.573929818903416" lon="10.168185203061736"><ele>831.75</ele><time>2026-04-04T07:52:16Z</time></trkpt><trkpt lat="44.57378320420535" lon="10.168280591825448"><ele>834.5</ele><time>2026-04-04T07:52:17Z</time></trkpt><trkpt lat="44.57366819292634" lon="10.168371124668447"><ele>837.25</ele><time>2026-04-04T07:52:18Z</time></trkpt><trkpt lat="44.573596720507226" lon="10.16845887864348"><ele>840.0</ele><time>2026-04-04T07:52:19Z</time></trkpt><trkpt lat="44.57354697915596" lon="10.168592612857186"><ele>840.0</ele><time>2026-04-04T07:52:20Z</time></trkpt><trkpt lat="44.57354741049855" lon="10.168758520918846"><ele>840.0</ele><time>2026-04-04T07:52:21Z</time></trkpt><trkpt lat="44.57358532054501" lon="10.168921119918048"><ele>840.0</ele><time>2026-04-04T07:52:21.999Z</time></trkpt><trkpt lat="44.57365590381021" lon="10.169072969856018"><ele>840.0</ele><time>2026-04-04T07:52:22.999Z</time></trkpt><trkpt lat="44.57377749304679" lon="10.16926184296047"><ele>843.0</ele><time>2026-04-04T07:52:23.999Z</time></trkpt><trkpt lat="44.57390425044208" lon="10.16947468149783"><ele>846.0</ele><time>2026-04-04T07:52:24.999Z</time></trkpt><trkpt lat="44.574033748274886" lon="10.169726798547904"><ele>849.0</ele><time>2026-04-04T07:52:25.999Z</time></trkpt><trkpt lat="44.57416878388549" lon="10.169979041859374"><ele>849.0</ele><time>2026-04-04T07:52:26.999Z</time></trkpt><trkpt lat="44.574294154440956" lon="10.170218104264677"><ele>849.0</ele><time>2026-04-04T07:52:27.999Z</time></trkpt><trkpt lat="44.574413986063576" lon="10.170450804439758"><ele>849.0</ele><time>2026-04-04T07:52:28.999Z</time></trkpt><trkpt lat="44.574523660918004" lon="10.170668249639544"><ele>851.75</ele><time>2026-04-04T07:52:29.999Z</time></trkpt><trkpt lat="44.57461969479283" lon="10.170855136332321"><ele>854.5</ele><time>2026-04-04T07:52:30.999Z</time></trkpt><trkpt lat="44.574663049629415" lon="10.171015907677932"><ele>857.25</ele><time>2026-04-04T07:52:31.999Z</time></trkpt><trkpt lat="44.57465175405724" lon="10.171190682664058"><ele>860.0</ele><time>2026-04-04T07:52:32.999Z</time></trkpt><trkpt lat="44.57456985702408" lon="10.171345585088755"><ele>849.0</ele><time>2026-04-04T07:52:33.999Z</time></trkpt><trkpt lat="44.57449638183781" lon="10.171578628297285"><ele>838.0</ele><time>2026-04-04T07:52:34.999Z</time></trkpt><trkpt lat="44.57446037862064" lon="10.171834050677102"><ele>827.0</ele><time>2026-04-04T07:52:35.999Z</time></trkpt><trkpt lat="44.574431378069185" lon="10.17209918466548"><ele>827.0</ele><time>2026-04-04T07:52:36.999Z</time></trkpt><trkpt lat="44.57441808387422" lon="10.172316254104082"><ele>827.0</ele><time>2026-04-04T07:52:37.999Z</time></trkpt><trkpt lat="44.57442500231301" lon="10.172492370481574"><ele>827.0</ele><time>2026-04-04T07:52:38.999Z</time></trkpt><trkpt lat="44.574499558503994" lon="10.172642274146353"><ele>827.0</ele><time>2026-04-04T07:52:39.999Z</time></trkpt><trkpt lat="44.57463941250487" lon="10.172813963124915"><ele>827.0</ele><time>2026-04-04T07:52:40.999Z</time></trkpt><trkpt lat="44.57478502264556" lon="10.173009769549035"><ele>827.0</ele><time>2026-04-04T07:52:41.999Z</time></trkpt><trkpt lat="44.57486399713191" lon="10.17321533474231"><ele>827.0</ele><time>2026-04-04T07:52:42.999Z</time></trkpt><trkpt lat="44.574872621786284" lon="10.173464406361234"><ele>827.0</ele><time>2026-04-04T07:52:43.999Z</time></trkpt><trkpt lat="44.57489283285926" lon="10.17376634214195"><ele>827.0</ele><time>2026-04-04T07:52:44.999Z</time></trkpt><trkpt lat="44.574920129471316" lon="10.174061795799343"><ele>827.0</ele><time>2026-04-04T07:52:45.999Z</time></trkpt><trkpt lat="44.574937749746695" lon="10.174358696093464"><ele>826.0</ele><time>2026-04-04T07:52:46.999Z</time></trkpt><trkpt lat="44.574957268583454" lon="10.174653836140687"><ele>825.0</ele><time>2026-04-04T07:52:48Z</time></trkpt><trkpt lat="44.57497183635878" lon="10.174940350428699"><ele>824.0</ele><time>2026-04-04T07:52:49Z</time></trkpt><trkpt lat="44.574987084710365" lon="10.17521017529199"><ele>821.3333333333334</ele><time>2026-04-04T07:52:50Z</time></trkpt><trkpt lat="44.574999986670456" lon="10.17545612717364"><ele>818.6666666666667</ele><time>2026-04-04T07:52:51Z</time></trkpt><trkpt lat="44.575023710924576" lon="10.17566487287693"><ele>816.0</ele><time>2026-04-04T07:52:52Z</time></trkpt><trkpt lat="44.57509270885547" lon="10.175843720405386"><ele>812.0</ele><time>2026-04-04T07:52:53Z</time></trkpt><trkpt lat="44.575238590147045" lon="10.175957846388702"><ele>808.0</ele><time>2026-04-04T07:52:54Z</time></trkpt><trkpt lat="44.575388470623814" lon="10.176126486146606"><ele>804.0</ele><time>2026-04-04T07:52:55Z</time></trkpt><trkpt lat="44.57551483289765" lon="10.176259775504233"><ele>809.3333333333333</ele><time>2026-04-04T07:52:56Z</time></trkpt><trkpt lat="44.575580474865" lon="10.176443168294771"><ele>814.6666666666666</ele><time>2026-04-04T07:52:57Z</time></trkpt><trkpt lat="44.57560152542871" lon="10.176662831190836"><ele>820.0</ele><time>2026-04-04T07:52:58Z</time></trkpt><trkpt lat="44.575564597416054" lon="10.176909649506005"><ele>820.0</ele><time>2026-04-04T07:52:59Z</time></trkpt><trkpt lat="44.575476486484426" lon="10.177177726730505"><ele>820.0</ele><time>2026-04-04T07:53:00Z</time></trkpt><trkpt lat="44.575374585583454" lon="10.177469909679695"><ele>820.0</ele><time>2026-04-04T07:53:01Z</time></trkpt><trkpt lat="44.57528736043724" lon="10.177728770476948"><ele>809.6666666666666</ele><time>2026-04-04T07:53:02Z</time></trkpt><trkpt lat="44.5752387127342" lon="10.17797128718734"><ele>799.3333333333333</ele><time>2026-04-04T07:53:03Z</time></trkpt><trkpt lat="44.5751904775151" lon="10.17819557659421"><ele>789.0</ele><time>2026-04-04T07:53:04Z</time></trkpt><trkpt lat="44.57518096869213" lon="10.178467033311632"><ele>787.6666666666667</ele><time>2026-04-04T07:53:05Z</time></trkpt><trkpt lat="44.5751938146421" lon="10.178763547989343"><ele>786.3333333333334</ele><time>2026-04-04T07:53:06Z</time></trkpt><trkpt lat="44.57520777218288" lon="10.179071035244721"><ele>785.0</ele><time>2026-04-04T07:53:07Z</time></trkpt><trkpt lat="44.57521361714259" lon="10.179379811372803"><ele>782.3333333333334</ele><time>2026-04-04T07:53:08Z</time></trkpt><trkpt lat="44.575218452060795" lon="10.179674431509069"><ele>779.6666666666667</ele><time>2026-04-04T07:53:09Z</time></trkpt><trkpt lat="44.57522299658511" lon="10.179966494552264"><ele>777.0</ele><time>2026-04-04T07:53:10Z</time></trkpt><trkpt lat="44.575212159615226" lon="10.18024746949144"><ele>777.3333333333333</ele><time>2026-04-04T07:53:11Z</time></trkpt><trkpt lat="44.57517849367414" lon="10.180466039508255"><ele>777.6666666666666</ele><time>2026-04-04T07:53:12Z</time></trkpt><trkpt lat="44.575108671100885" lon="10.180622877322836"><ele>778.0</ele><time>2026-04-04T07:53:13Z</time></trkpt><trkpt lat="44.57499323191387" lon="10.180818121424839"><ele>778.0</ele><time>2026-04-04T07:53:14Z</time></trkpt><trkpt lat="44.574865566821444" lon="10.181050509682477"><ele>778.0</ele><time>2026-04-04T07:53:15Z</time></trkpt><trkpt lat="44.574770587206494" lon="10.181295363905441"><ele>778.0</ele><time>2026-04-04T07:53:16Z</time></trkpt><trkpt lat="44.57468351221429" lon="10.181522460768337"><ele>780.3333333333333</ele><time>2026-04-04T07:53:17Z</time></trkpt><trkpt lat="44.57458299333532" lon="10.181722456695939"><ele>782.6666666666667</ele><time>2026-04-04T07:53:18Z</time></trkpt><trkpt lat="44.57447023576617" lon="10.181896021631292"><ele>785.0</ele><time>2026-04-04T07:53:19Z</time></trkpt><trkpt lat="44.57439826154814" lon="10.182066787474199"><ele>774.3333333333334</ele><time>2026-04-04T07:53:20Z</time></trkpt><trkpt lat="44.57434498345834" lon="10.18224814108466"><ele>763.6666666666667</ele><time>2026-04-04T07:53:21Z</time></trkpt><trkpt lat="44.57431938744293" lon="10.182478734542817"><ele>753.0</ele><time>2026-04-04T07:53:22Z</time></trkpt><trkpt lat="44.574311609022736" lon="10.182723457745286"><ele>753.0</ele><time>2026-04-04T07:53:23Z</time></trkpt><trkpt lat="44.57431944349279" lon="10.182959649457528"><ele>753.0</ele><time>2026-04-04T07:53:24Z</time></trkpt><trkpt lat="44.574372638189686" lon="10.183219567063237"><ele>753.0</ele><time>2026-04-04T07:53:25Z</time></trkpt><trkpt lat="44.5744508260986" lon="10.183509555506493"><ele>753.0</ele><time>2026-04-04T07:53:26Z</time></trkpt><trkpt lat="44.57451749032603" lon="10.183805879987109"><ele>753.0</ele><time>2026-04-04T07:53:27Z</time></trkpt><trkpt lat="44.57457826427228" lon="10.184093303443403"><ele>753.0</ele><time>2026-04-04T07:53:28Z</time></trkpt><trkpt lat="44.57463891385699" lon="10.18436609196557"><ele>754.0</ele><time>2026-04-04T07:53:29Z</time></trkpt><trkpt lat="44.5746986067288" lon="10.18463494840655"><ele>755.0</ele><time>2026-04-04T07:53:30Z</time></trkpt><trkpt lat="44.57474868489151" lon="10.184909274194014"><ele>756.0</ele><time>2026-04-04T07:53:31Z</time></trkpt><trkpt lat="44.57479844841159" lon="10.185179346073062"><ele>756.0</ele><time>2026-04-04T07:53:32Z</time></trkpt><trkpt lat="44.574850494773145" lon="10.185441023646886"><ele>756.0</ele><time>2026-04-04T07:53:33Z</time></trkpt><trkpt lat="44.57491096572014" lon="10.185697067685608"><ele>756.0</ele><time>2026-04-04T07:53:34Z</time></trkpt><trkpt lat="44.57490091423772" lon="10.185912103981188"><ele>754.0</ele><time>2026-04-04T07:53:35Z</time></trkpt><trkpt lat="44.574845831181975" lon="10.186087973171537"><ele>752.0</ele><time>2026-04-04T07:53:36Z</time></trkpt><trkpt lat="44.57474402950865" lon="10.186288424900209"><ele>750.0</ele><time>2026-04-04T07:53:37Z</time></trkpt><trkpt lat="44.57468324995441" lon="10.186479578447422"><ele>749.3333333333334</ele><time>2026-04-04T07:53:38Z</time></trkpt><trkpt lat="44.574659343621384" lon="10.186645314459948"><ele>748.6666666666667</ele><time>2026-04-04T07:53:39Z</time></trkpt><trkpt lat="44.574679148830796" lon="10.186859035932331"><ele>748.0</ele><time>2026-04-04T07:53:40Z</time></trkpt><trkpt lat="44.57473649040501" lon="10.187124835735807"><ele>745.3333333333334</ele><time>2026-04-04T07:53:41Z</time></trkpt><trkpt lat="44.57478521090533" lon="10.1874162787097"><ele>742.6666666666666</ele><time>2026-04-04T07:53:42Z</time></trkpt><trkpt lat="44.57476725901585" lon="10.187701932336433"><ele>740.0</ele><time>2026-04-04T07:53:43Z</time></trkpt><trkpt lat="44.57470374909202" lon="10.187956345287613"><ele>738.3333333333333</ele><time>2026-04-04T07:53:44Z</time></trkpt><trkpt lat="44.57462686118962" lon="10.188237243590631"><ele>736.6666666666666</ele><time>2026-04-04T07:53:45Z</time></trkpt><trkpt lat="44.57457299668616" lon="10.188525143328546"><ele>735.0</ele><time>2026-04-04T07:53:46Z</time></trkpt><trkpt lat="44.57450652103963" lon="10.188844297603788"><ele>727.0</ele><time>2026-04-04T07:53:47Z</time></trkpt><trkpt lat="44.57450098825008" lon="10.189157916120942"><ele>719.0</ele><time>2026-04-04T07:53:48Z</time></trkpt><trkpt lat="44.57450461501719" lon="10.18943468618029"><ele>711.0</ele><time>2026-04-04T07:53:49Z</time></trkpt><trkpt lat="44.574483547283606" lon="10.189679698562419"><ele>711.3333333333334</ele><time>2026-04-04T07:53:50Z</time></trkpt><trkpt lat="44.5743913750159" lon="10.189883266097562"><ele>711.6666666666667</ele><time>2026-04-04T07:53:51Z</time></trkpt><trkpt lat="44.574278445738834" lon="10.19007555975058"><ele>712.0</ele><time>2026-04-04T07:53:52Z</time></trkpt><trkpt lat="44.57417351885442" lon="10.190286284713737"><ele>712.0</ele><time>2026-04-04T07:53:53Z</time></trkpt><trkpt lat="44.57408967184439" lon="10.190486479165706"><ele>712.0</ele><time>2026-04-04T07:53:54Z</time></trkpt><trkpt lat="44.574044382617544" lon="10.190719315589192"><ele>712.0</ele><time>2026-04-04T07:53:55Z</time></trkpt><trkpt lat="44.57400822077164" lon="10.19094144243129"><ele>713.0</ele><time>2026-04-04T07:53:56Z</time></trkpt><trkpt lat="44.573974089325276" lon="10.191114765927546"><ele>714.0</ele><time>2026-04-04T07:53:57Z</time></trkpt><trkpt lat="44.57394592870876" lon="10.191283536110705"><ele>715.0</ele><time>2026-04-04T07:53:58Z</time></trkpt><trkpt lat="44.57390873791088" lon="10.191449499803708"><ele>716.0</ele><time>2026-04-04T07:53:59Z</time></trkpt><trkpt lat="44.57386508426103" lon="10.19163738627459"><ele>716.6666666666666</ele><time>2026-04-04T07:54:00Z</time></trkpt><trkpt lat="44.573818772793075" lon="10.191848463036301"><ele>717.3333333333334</ele><time>2026-04-04T07:54:01Z</time></trkpt><trkpt lat="44.573779347049104" lon="10.192079513145487"><ele>718.0</ele><time>2026-04-04T07:54:02Z</time></trkpt><trkpt lat="44.573739706731864" lon="10.19231453074367"><ele>712.3333333333334</ele><time>2026-04-04T07:54:03Z</time></trkpt><trkpt lat="44.573669536248296" lon="10.192569282435043"><ele>706.6666666666666</ele><time>2026-04-04T07:54:04Z</time></trkpt><trkpt lat="44.57361070426961" lon="10.192842892030027"><ele>701.0</ele><time>2026-04-04T07:54:05Z</time></trkpt><trkpt lat="44.57355105126999" lon="10.193123547373654"><ele>701.6666666666666</ele><time>2026-04-04T07:54:06Z</time></trkpt><trkpt lat="44.57349184394055" lon="10.193415395420239"><ele>702.3333333333334</ele><time>2026-04-04T07:54:07Z</time></trkpt><trkpt lat="44.573435226525056" lon="10.19369627052173"><ele>703.0</ele><time>2026-04-04T07:54:08Z</time></trkpt><trkpt lat="44.573373649637915" lon="10.193960228891033"><ele>704.0</ele><time>2026-04-04T07:54:09Z</time></trkpt><trkpt lat="44.57329218670011" lon="10.194212547847831"><ele>705.0</ele><time>2026-04-04T07:54:10Z</time></trkpt><trkpt lat="44.57318524200224" lon="10.194441163111449"><ele>706.0</ele><time>2026-04-04T07:54:11Z</time></trkpt><trkpt lat="44.57306780008248" lon="10.194678070228715"><ele>707.6666666666667</ele><time>2026-04-04T07:54:12Z</time></trkpt><trkpt lat="44.57297849950788" lon="10.194892007238264"><ele>709.3333333333334</ele><time>2026-04-04T07:54:13Z</time></trkpt><trkpt lat="44.57292551019448" lon="10.195105930176561"><ele>711.0</ele><time>2026-04-04T07:54:14Z</time></trkpt><trkpt lat="44.572858374472766" lon="10.195284176709317"><ele>704.6666666666666</ele><time>2026-04-04T07:54:15Z</time></trkpt><trkpt lat="44.572741222028945" lon="10.1953854739953"><ele>698.3333333333333</ele><time>2026-04-04T07:54:16Z</time></trkpt><trkpt lat="44.572603381419334" lon="10.195472365517945"><ele>692.0</ele><time>2026-04-04T07:54:17Z</time></trkpt><trkpt lat="44.57243739737291" lon="10.195582299181336"><ele>692.0</ele><time>2026-04-04T07:54:18Z</time></trkpt><trkpt lat="44.57225832746487" lon="10.195669615864835"><ele>692.0</ele><time>2026-04-04T07:54:19Z</time></trkpt><trkpt lat="44.572112367897375" lon="10.195763555261236"><ele>692.0</ele><time>2026-04-04T07:54:20Z</time></trkpt><trkpt lat="44.57198483392647" lon="10.195894556591853"><ele>690.6666666666666</ele><time>2026-04-04T07:54:21Z</time></trkpt><trkpt lat="44.57187259791351" lon="10.196110650975333"><ele>689.3333333333334</ele><time>2026-04-04T07:54:22Z</time></trkpt><trkpt lat="44.57175001215038" lon="10.196358761739301"><ele>688.0</ele><time>2026-04-04T07:54:23Z</time></trkpt><trkpt lat="44.57162010148397" lon="10.196615594037144"><ele>690.6666666666667</ele><time>2026-04-04T07:54:24Z</time></trkpt><trkpt lat="44.57149288958901" lon="10.196848305515118"><ele>693.3333333333334</ele><time>2026-04-04T07:54:25Z</time></trkpt><trkpt lat="44.571384021343974" lon="10.197045160896334"><ele>696.0</ele><time>2026-04-04T07:54:26Z</time></trkpt><trkpt lat="44.57130020462986" lon="10.197209834589108"><ele>696.0</ele><time>2026-04-04T07:54:27Z</time></trkpt><trkpt lat="44.57127328882539" lon="10.197317366289909"><ele>696.0</ele><time>2026-04-04T07:54:28Z</time></trkpt><trkpt lat="44.57124336729564" lon="10.197425312007775"><ele>696.0</ele><time>2026-04-04T07:54:29Z</time></trkpt><trkpt lat="44.57115875268814" lon="10.197523333838655"><ele>696.0</ele><time>2026-04-04T07:54:30Z</time></trkpt><trkpt lat="44.5710351615232" lon="10.197673378617155"><ele>696.0</ele><time>2026-04-04T07:54:30.999Z</time></trkpt><trkpt lat="44.570901377340675" lon="10.197853536243679"><ele>693.25</ele><time>2026-04-04T07:54:31.999Z</time></trkpt><trkpt lat="44.57075861713494" lon="10.197949443387161"><ele>690.5</ele><time>2026-04-04T07:54:32.999Z</time></trkpt><trkpt lat="44.57064225900728" lon="10.19800370556997"><ele>687.75</ele><time>2026-04-04T07:54:33.999Z</time></trkpt><trkpt lat="44.57052834615933" lon="10.198007551234875"><ele>685.0</ele><time>2026-04-04T07:54:34.999Z</time></trkpt><trkpt lat="44.5704170556513" lon="10.197928771791997"><ele>683.6</ele><time>2026-04-04T07:54:35.999Z</time></trkpt><trkpt lat="44.57033497343764" lon="10.19780041999467"><ele>682.2</ele><time>2026-04-04T07:54:36.999Z</time></trkpt><trkpt lat="44.57022877702346" lon="10.19765830933586"><ele>680.8</ele><time>2026-04-04T07:54:37.999Z</time></trkpt><trkpt lat="44.570165638225205" lon="10.197576829682498"><ele>679.4</ele><time>2026-04-04T07:54:38.999Z</time></trkpt><trkpt lat="44.57008986527406" lon="10.19755366243046"><ele>678.0</ele><time>2026-04-04T07:54:39.999Z</time></trkpt><trkpt lat="44.5699891644406" lon="10.197598822405597"><ele>678.0</ele><time>2026-04-04T07:54:40.999Z</time></trkpt><trkpt lat="44.56985254168287" lon="10.197681629446297"><ele>678.0</ele><time>2026-04-04T07:54:41.999Z</time></trkpt><trkpt lat="44.56967174883885" lon="10.197736141653516"><ele>678.0</ele><time>2026-04-04T07:54:42.999Z</time></trkpt><trkpt lat="44.569486292079496" lon="10.197818845063379"><ele>673.6666666666666</ele><time>2026-04-04T07:54:43.999Z</time></trkpt><trkpt lat="44.569299740784885" lon="10.197884323143615"><ele>669.3333333333333</ele><time>2026-04-04T07:54:44.999Z</time></trkpt><trkpt lat="44.56913657615743" lon="10.197996146184892"><ele>665.0</ele><time>2026-04-04T07:54:45.999Z</time></trkpt><trkpt lat="44.568969885162915" lon="10.19807846048598"><ele>665.0</ele><time>2026-04-04T07:54:46.999Z</time></trkpt><trkpt lat="44.56881787258523" lon="10.198122715649019"><ele>665.0</ele><time>2026-04-04T07:54:47.999Z</time></trkpt><trkpt lat="44.568674283073626" lon="10.198186357738662"><ele>665.0</ele><time>2026-04-04T07:54:48.999Z</time></trkpt><trkpt lat="44.5685705798512" lon="10.198243966960618"><ele>665.0</ele><time>2026-04-04T07:54:49.999Z</time></trkpt><trkpt lat="44.56850999288636" lon="10.198360277595624"><ele>665.0</ele><time>2026-04-04T07:54:50.999Z</time></trkpt><trkpt lat="44.56846008358897" lon="10.198492419210707"><ele>665.0</ele><time>2026-04-04T07:54:51.999Z</time></trkpt><trkpt lat="44.56839958069899" lon="10.198659144167332"><ele>665.0</ele><time>2026-04-04T07:54:52.999Z</time></trkpt><trkpt lat="44.56831686482613" lon="10.198869092257793"><ele>665.0</ele><time>2026-04-04T07:54:54Z</time></trkpt><trkpt lat="44.5682290669567" lon="10.199078947917922"><ele>665.0</ele><time>2026-04-04T07:54:55Z</time></trkpt><trkpt lat="44.56817510581839" lon="10.199314846345006"><ele>665.0</ele><time>2026-04-04T07:54:56Z</time></trkpt><trkpt lat="44.56813192380167" lon="10.199548436166374"><ele>665.0</ele><time>2026-04-04T07:54:57Z</time></trkpt><trkpt lat="44.56808414460676" lon="10.199700858273095"><ele>665.0</ele><time>2026-04-04T07:54:58Z</time></trkpt><trkpt lat="44.56805629451172" lon="10.199791139974437"><ele>665.0</ele><time>2026-04-04T07:54:59Z</time></trkpt><trkpt lat="44.5679613094678" lon="10.199802176777387"><ele>665.0</ele><time>2026-04-04T07:55:01Z</time></trkpt><trkpt lat="44.567902256443894" lon="10.199673458888224"><ele>665.0</ele><time>2026-04-04T07:55:02Z</time></trkpt><trkpt lat="44.567848915374206" lon="10.199489297253347"><ele>665.0</ele><time>2026-04-04T07:55:03Z</time></trkpt><trkpt lat="44.567755988593284" lon="10.199280554074459"><ele>660.0</ele><time>2026-04-04T07:55:04Z</time></trkpt><trkpt lat="44.56766569521172" lon="10.19905456157379"><ele>655.0</ele><time>2026-04-04T07:55:05Z</time></trkpt><trkpt lat="44.56762399660703" lon="10.198952505582302"><ele>650.0</ele><time>2026-04-04T07:55:06Z</time></trkpt><trkpt lat="44.567563514152816" lon="10.198814145360636"><ele>645.0</ele><time>2026-04-04T07:55:07Z</time></trkpt><trkpt lat="44.56750980836132" lon="10.198735922219798"><ele>645.0</ele><time>2026-04-04T07:55:08Z</time></trkpt><trkpt lat="44.56737081734065" lon="10.198784384958554"><ele>645.0</ele><time>2026-04-04T07:55:10Z</time></trkpt><trkpt lat="44.56730128437656" lon="10.1989440596928"><ele>645.0</ele><time>2026-04-04T07:55:11Z</time></trkpt><trkpt lat="44.56726113207656" lon="10.199141717028837"><ele>645.0</ele><time>2026-04-04T07:55:12Z</time></trkpt><trkpt lat="44.56724078254157" lon="10.199291014332921"><ele>645.0</ele><time>2026-04-04T07:55:13Z</time></trkpt><trkpt lat="44.56725021936235" lon="10.199417044546307"><ele>645.0</ele><time>2026-04-04T07:55:14Z</time></trkpt><trkpt lat="44.567281564561355" lon="10.199520563481165"><ele>645.0</ele><time>2026-04-04T07:55:15Z</time></trkpt><trkpt lat="44.56731914105034" lon="10.199602831600757"><ele>645.0</ele><time>2026-04-04T07:55:16Z</time></trkpt><trkpt lat="44.56734963684337" lon="10.19972667797936"><ele>645.0</ele><time>2026-04-04T07:55:18Z</time></trkpt><trkpt lat="44.56727006651008" lon="10.199747604332815"><ele>645.0</ele><time>2026-04-04T07:55:21Z</time></trkpt><trkpt lat="44.56719757487215" lon="10.199597031311773"><ele>645.0</ele><time>2026-04-04T07:55:23Z</time></trkpt><trkpt lat="44.56710505926055" lon="10.199413970794504"><ele>645.0</ele><time>2026-04-04T07:55:24Z</time></trkpt><trkpt lat="44.566982786790064" lon="10.199236041827282"><ele>645.0</ele><time>2026-04-04T07:55:25Z</time></trkpt><trkpt lat="44.56684831616901" lon="10.199088380615143"><ele>639.0</ele><time>2026-04-04T07:55:26Z</time></trkpt><trkpt lat="44.56668944833501" lon="10.199005313574974"><ele>633.0</ele><time>2026-04-04T07:55:27Z</time></trkpt><trkpt lat="44.5665757085081" lon="10.198881327246937"><ele>627.0</ele><time>2026-04-04T07:55:28Z</time></trkpt><trkpt lat="44.5664702203811" lon="10.198678299722099"><ele>627.0</ele><time>2026-04-04T07:55:29Z</time></trkpt><trkpt lat="44.5663725757236" lon="10.198489013997632"><ele>627.0</ele><time>2026-04-04T07:55:30Z</time></trkpt><trkpt lat="44.56628954624979" lon="10.198311490305047"><ele>627.0</ele><time>2026-04-04T07:55:31Z</time></trkpt><trkpt lat="44.566235067051096" lon="10.198136768260012"><ele>625.4</ele><time>2026-04-04T07:55:32Z</time></trkpt><trkpt lat="44.56622316219283" lon="10.198002369111432"><ele>623.8000000000001</ele><time>2026-04-04T07:55:33Z</time></trkpt><trkpt lat="44.566240955394655" lon="10.197878921442083"><ele>622.2</ele><time>2026-04-04T07:55:34Z</time></trkpt><trkpt lat="44.56627488014522" lon="10.1977430973144"><ele>620.6</ele><time>2026-04-04T07:55:35Z</time></trkpt><trkpt lat="44.56633613754983" lon="10.197589853266438"><ele>619.0</ele><time>2026-04-04T07:55:36Z</time></trkpt><trkpt lat="44.56639298205909" lon="10.19744334516925"><ele>619.0</ele><time>2026-04-04T07:55:37Z</time></trkpt><trkpt lat="44.56641683938088" lon="10.197353628298544"><ele>619.0</ele><time>2026-04-04T07:55:38Z</time></trkpt><trkpt lat="44.5664553217782" lon="10.197264498739571"><ele>619.0</ele><time>2026-04-04T07:55:40Z</time></trkpt><trkpt lat="44.566178539470776" lon="10.197124486195973"><ele>619.0</ele><time>2026-04-04T07:55:42Z</time></trkpt><trkpt lat="44.56603189795905" lon="10.197097395037742"><ele>616.0</ele><time>2026-04-04T07:55:43Z</time></trkpt><trkpt lat="44.56592015966319" lon="10.19707722995047"><ele>613.0</ele><time>2026-04-04T07:55:44Z</time></trkpt><trkpt lat="44.56581822497788" lon="10.197116220998051"><ele>610.0</ele><time>2026-04-04T07:55:45Z</time></trkpt><trkpt lat="44.56570143269097" lon="10.19723220785857"><ele>607.0</ele><time>2026-04-04T07:55:46Z</time></trkpt><trkpt lat="44.56557560578475" lon="10.197363757838119"><ele>607.0</ele><time>2026-04-04T07:55:47Z</time></trkpt><trkpt lat="44.565446445332626" lon="10.197463251515526"><ele>607.0</ele><time>2026-04-04T07:55:48Z</time></trkpt><trkpt lat="44.56529451000051" lon="10.197553719766894"><ele>607.0</ele><time>2026-04-04T07:55:49Z</time></trkpt><trkpt lat="44.56515193636164" lon="10.197641297127209"><ele>604.25</ele><time>2026-04-04T07:55:50Z</time></trkpt><trkpt lat="44.565026031175954" lon="10.197737713529094"><ele>601.5</ele><time>2026-04-04T07:55:51Z</time></trkpt><trkpt lat="44.564920359266424" lon="10.197834102459842"><ele>598.75</ele><time>2026-04-04T07:55:52Z</time></trkpt><trkpt lat="44.56484969328526" lon="10.197939426385842"><ele>596.0</ele><time>2026-04-04T07:55:53Z</time></trkpt><trkpt lat="44.564816901952184" lon="10.19807852718255"><ele>595.5</ele><time>2026-04-04T07:55:54Z</time></trkpt><trkpt lat="44.56481398114492" lon="10.19825619463563"><ele>595.0</ele><time>2026-04-04T07:55:55Z</time></trkpt><trkpt lat="44.5648675623441" lon="10.198419532074867"><ele>594.5</ele><time>2026-04-04T07:55:56Z</time></trkpt><trkpt lat="44.56494493076445" lon="10.198537402650315"><ele>594.0</ele><time>2026-04-04T07:55:57Z</time></trkpt><trkpt lat="44.565059259825475" lon="10.198706433743553"><ele>594.0</ele><time>2026-04-04T07:55:58Z</time></trkpt><trkpt lat="44.565145441742686" lon="10.198835956802668"><ele>594.0</ele><time>2026-04-04T07:55:59Z</time></trkpt><trkpt lat="44.56518804660041" lon="10.198934396875757"><ele>594.0</ele><time>2026-04-04T07:56:00Z</time></trkpt><trkpt lat="44.56518651387139" lon="10.199059010758976"><ele>594.0</ele><time>2026-04-04T07:56:01Z</time></trkpt><trkpt lat="44.56507645241298" lon="10.199140402203644"><ele>594.0</ele><time>2026-04-04T07:56:02Z</time></trkpt><trkpt lat="44.56495912363247" lon="10.199263397032086"><ele>592.5</ele><time>2026-04-04T07:56:03Z</time></trkpt><trkpt lat="44.56487234711523" lon="10.199415898128985"><ele>591.0</ele><time>2026-04-04T07:56:04Z</time></trkpt><trkpt lat="44.56483716638338" lon="10.199552387896816"><ele>589.5</ele><time>2026-04-04T07:56:05Z</time></trkpt><trkpt lat="44.56484384015556" lon="10.199677616438624"><ele>588.0</ele><time>2026-04-04T07:56:06Z</time></trkpt><trkpt lat="44.564911403835836" lon="10.19981885171167"><ele>588.0</ele><time>2026-04-04T07:56:07Z</time></trkpt><trkpt lat="44.564951446950424" lon="10.199958978711308"><ele>588.0</ele><time>2026-04-04T07:56:08Z</time></trkpt><trkpt lat="44.56486701205542" lon="10.200121693156511"><ele>588.0</ele><time>2026-04-04T07:56:09Z</time></trkpt><trkpt lat="44.56479080823263" lon="10.200350945648456"><ele>588.0</ele><time>2026-04-04T07:56:10Z</time></trkpt><trkpt lat="44.564721598185265" lon="10.200552061328429"><ele>588.0</ele><time>2026-04-04T07:56:11Z</time></trkpt><trkpt lat="44.56467475019987" lon="10.200744616803108"><ele>588.0</ele><time>2026-04-04T07:56:12Z</time></trkpt><trkpt lat="44.56462249999283" lon="10.200924686265049"><ele>588.0</ele><time>2026-04-04T07:56:13Z</time></trkpt><trkpt lat="44.56459335166618" lon="10.201120715461983"><ele>588.0</ele><time>2026-04-04T07:56:14Z</time></trkpt><trkpt lat="44.564575132493474" lon="10.201316151238759"><ele>586.0</ele><time>2026-04-04T07:56:15Z</time></trkpt><trkpt lat="44.56457440037884" lon="10.201511454699382"><ele>584.0</ele><time>2026-04-04T07:56:16Z</time></trkpt><trkpt lat="44.56458245895852" lon="10.201705247313113"><ele>582.0</ele><time>2026-04-04T07:56:17Z</time></trkpt><trkpt lat="44.56455506439216" lon="10.2018826659896"><ele>580.0</ele><time>2026-04-04T07:56:18Z</time></trkpt><trkpt lat="44.5645026608391" lon="10.202062856768942"><ele>576.75</ele><time>2026-04-04T07:56:19Z</time></trkpt><trkpt lat="44.564472481679985" lon="10.202260738335545"><ele>573.5</ele><time>2026-04-04T07:56:20Z</time></trkpt><trkpt lat="44.56445317625679" lon="10.202449323019607"><ele>570.25</ele><time>2026-04-04T07:56:21Z</time></trkpt><trkpt lat="44.564489118343" lon="10.20264037496955"><ele>567.0</ele><time>2026-04-04T07:56:22Z</time></trkpt><trkpt lat="44.56455566106681" lon="10.20284651557051"><ele>567.0</ele><time>2026-04-04T07:56:23Z</time></trkpt><trkpt lat="44.564620110945434" lon="10.20304013697594"><ele>567.0</ele><time>2026-04-04T07:56:24Z</time></trkpt><trkpt lat="44.564636992502194" lon="10.203232075945598"><ele>567.0</ele><time>2026-04-04T07:56:25Z</time></trkpt><trkpt lat="44.56462615513745" lon="10.2034291469577"><ele>567.0</ele><time>2026-04-04T07:56:26Z</time></trkpt><trkpt lat="44.56459104536905" lon="10.203629861946386"><ele>564.5</ele><time>2026-04-04T07:56:27Z</time></trkpt><trkpt lat="44.56457121072084" lon="10.203834543840161"><ele>562.0</ele><time>2026-04-04T07:56:28Z</time></trkpt><trkpt lat="44.5645488217383" lon="10.204022807007215"><ele>559.5</ele><time>2026-04-04T07:56:29Z</time></trkpt><trkpt lat="44.564569861187195" lon="10.204190374987633"><ele>557.0</ele><time>2026-04-04T07:56:30Z</time></trkpt><trkpt lat="44.564642078544786" lon="10.204372459745576"><ele>555.5</ele><time>2026-04-04T07:56:31Z</time></trkpt><trkpt lat="44.56466395915744" lon="10.204536510670769"><ele>554.0</ele><time>2026-04-04T07:56:32Z</time></trkpt><trkpt lat="44.56464062937303" lon="10.204663731423796"><ele>552.5</ele><time>2026-04-04T07:56:33Z</time></trkpt><trkpt lat="44.564603081089835" lon="10.204819498192432"><ele>551.0</ele><time>2026-04-04T07:56:34Z</time></trkpt><trkpt lat="44.56457915620577" lon="10.205000901149248"><ele>550.0</ele><time>2026-04-04T07:56:35Z</time></trkpt><trkpt lat="44.5645635092887" lon="10.205118600907168"><ele>549.0</ele><time>2026-04-04T07:56:36Z</time></trkpt><trkpt lat="44.56455015259222" lon="10.20520950932471"><ele>548.0</ele><time>2026-04-04T07:56:37Z</time></trkpt><trkpt lat="44.56446188846034" lon="10.205146874645376"><ele>547.0</ele><time>2026-04-04T07:56:40Z</time></trkpt><trkpt lat="44.56445072173508" lon="10.205002748911385"><ele>546.0</ele><time>2026-04-04T07:56:41Z</time></trkpt><trkpt lat="44.56442895155748" lon="10.204864368442218"><ele>544.0</ele><time>2026-04-04T07:56:42Z</time></trkpt><trkpt lat="44.56435477605703" lon="10.20476273042771"><ele>542.0</ele><time>2026-04-04T07:56:43Z</time></trkpt><trkpt lat="44.56422910832305" lon="10.204724319383665"><ele>540.0</ele><time>2026-04-04T07:56:44Z</time></trkpt><trkpt lat="44.56407052567279" lon="10.204726360606497"><ele>538.0</ele><time>2026-04-04T07:56:45Z</time></trkpt><trkpt lat="44.56392134011012" lon="10.204732683554589"><ele>538.0</ele><time>2026-04-04T07:56:46Z</time></trkpt><trkpt lat="44.563797781542895" lon="10.20474963545348"><ele>538.0</ele><time>2026-04-04T07:56:46.999Z</time></trkpt><trkpt lat="44.56369972922176" lon="10.204747605991662"><ele>538.0</ele><time>2026-04-04T07:56:47.999Z</time></trkpt><trkpt lat="44.563605855165996" lon="10.204721777355283"><ele>538.0</ele><time>2026-04-04T07:56:48.999Z</time></trkpt><trkpt lat="44.56355645067619" lon="10.204524019032997"><ele>535.25</ele><time>2026-04-04T07:56:49.999Z</time></trkpt><trkpt lat="44.563534315128905" lon="10.204326237176247"><ele>532.5</ele><time>2026-04-04T07:56:50.999Z</time></trkpt><trkpt lat="44.56352376932768" lon="10.204129258873255"><ele>529.75</ele><time>2026-04-04T07:56:51.999Z</time></trkpt><trkpt lat="44.56349580173894" lon="10.2039743253436"><ele>527.0</ele><time>2026-04-04T07:56:52.999Z</time></trkpt><trkpt lat="44.563389717682774" lon="10.203847094500125"><ele>527.0</ele><time>2026-04-04T07:56:53.999Z</time></trkpt><trkpt lat="44.5632274820653" lon="10.203744960951301"><ele>527.0</ele><time>2026-04-04T07:56:54.999Z</time></trkpt><trkpt lat="44.56307232486999" lon="10.203611907584948"><ele>527.0</ele><time>2026-04-04T07:56:55.999Z</time></trkpt><trkpt lat="44.56292744367266" lon="10.203490667935053"><ele>523.5</ele><time>2026-04-04T07:56:56.999Z</time></trkpt><trkpt lat="44.562794025051524" lon="10.203380879778603"><ele>520.0</ele><time>2026-04-04T07:56:57.999Z</time></trkpt><trkpt lat="44.56269324752335" lon="10.203300728896155"><ele>516.5</ele><time>2026-04-04T07:56:58.999Z</time></trkpt><trkpt lat="44.56261086839143" lon="10.20325041624848"><ele>513.0</ele><time>2026-04-04T07:57:00Z</time></trkpt><trkpt lat="44.56246608681258" lon="10.20308973687052"><ele>513.0</ele><time>2026-04-04T07:57:01Z</time></trkpt><trkpt lat="44.56239964968533" lon="10.202962876458159"><ele>513.0</ele><time>2026-04-04T07:57:02Z</time></trkpt><trkpt lat="44.56234582733386" lon="10.202815673841528"><ele>513.0</ele><time>2026-04-04T07:57:03Z</time></trkpt><trkpt lat="44.56229406795593" lon="10.202741817161359"><ele>513.0</ele><time>2026-04-04T07:57:04Z</time></trkpt><trkpt lat="44.56217394484223" lon="10.202751737349434"><ele>513.0</ele><time>2026-04-04T07:57:06Z</time></trkpt><trkpt lat="44.562093112667654" lon="10.202870278126449"><ele>513.0</ele><time>2026-04-04T07:57:07Z</time></trkpt><trkpt lat="44.56204492022479" lon="10.20304317818352"><ele>513.0</ele><time>2026-04-04T07:57:08Z</time></trkpt><trkpt lat="44.561994159028984" lon="10.20312415889925"><ele>513.0</ele><time>2026-04-04T07:57:09Z</time></trkpt><trkpt lat="44.561916434747786" lon="10.203070603623935"><ele>513.0</ele><time>2026-04-04T07:57:10Z</time></trkpt><trkpt lat="44.561874345205496" lon="10.202940658981285"><ele>513.0</ele><time>2026-04-04T07:57:11Z</time></trkpt><trkpt lat="44.561846388641115" lon="10.202757459269725"><ele>506.0</ele><time>2026-04-04T07:57:12Z</time></trkpt><trkpt lat="44.56174822147699" lon="10.202579896646931"><ele>499.0</ele><time>2026-04-04T07:57:13Z</time></trkpt><trkpt lat="44.56163744737246" lon="10.202397946728533"><ele>492.0</ele><time>2026-04-04T07:57:14Z</time></trkpt><trkpt lat="44.5615517001598" lon="10.20220825297765"><ele>492.0</ele><time>2026-04-04T07:57:15Z</time></trkpt><trkpt lat="44.561482867656565" lon="10.202034876626222"><ele>492.00000000000006</ele><time>2026-04-04T07:57:16Z</time></trkpt><trkpt lat="44.56141572996095" lon="10.20192797584333"><ele>492.00000000000006</ele><time>2026-04-04T07:57:17Z</time></trkpt><trkpt lat="44.56136340087976" lon="10.20186696949065"><ele>492.0</ele><time>2026-04-04T07:57:18Z</time></trkpt><trkpt lat="44.56129195416437" lon="10.201888875777433"><ele>492.0</ele><time>2026-04-04T07:57:19Z</time></trkpt><trkpt lat="44.56121433029764" lon="10.202000904543189"><ele>491.75</ele><time>2026-04-04T07:57:20Z</time></trkpt><trkpt lat="44.5611561637737" lon="10.20218093606726"><ele>491.5</ele><time>2026-04-04T07:57:21Z</time></trkpt><trkpt lat="44.56114142764942" lon="10.202343179048365"><ele>491.25</ele><time>2026-04-04T07:57:22Z</time></trkpt><trkpt lat="44.56116688702693" lon="10.202515977135084"><ele>491.0</ele><time>2026-04-04T07:57:23Z</time></trkpt><trkpt lat="44.56123966795732" lon="10.202693419513256"><ele>490.99999999999994</ele><time>2026-04-04T07:57:24Z</time></trkpt><trkpt lat="44.561298077903366" lon="10.20282543373921"><ele>491.0</ele><time>2026-04-04T07:57:25Z</time></trkpt><trkpt lat="44.56126053937965" lon="10.20290590207794"><ele>491.0</ele><time>2026-04-04T07:57:26Z</time></trkpt><trkpt lat="44.56118304900561" lon="10.202940934306422"><ele>491.0</ele><time>2026-04-04T07:57:27Z</time></trkpt><trkpt lat="44.56109282678858" lon="10.202964105165924"><ele>490.99999999999994</ele><time>2026-04-04T07:57:28Z</time></trkpt><trkpt lat="44.56102824256797" lon="10.202935666898803"><ele>491.0</ele><time>2026-04-04T07:57:29Z</time></trkpt><trkpt lat="44.56097663936985" lon="10.202833415195341"><ele>486.4</ele><time>2026-04-04T07:57:30Z</time></trkpt><trkpt lat="44.56094148954159" lon="10.202662828486698"><ele>481.8</ele><time>2026-04-04T07:57:31Z</time></trkpt><trkpt lat="44.56088434263446" lon="10.202541509981339"><ele>477.19999999999993</ele><time>2026-04-04T07:57:32Z</time></trkpt><trkpt lat="44.5608272539823" lon="10.20246917745472"><ele>472.59999999999997</ele><time>2026-04-04T07:57:33Z</time></trkpt><trkpt lat="44.560762560986674" lon="10.20250559520277"><ele>468.0</ele><time>2026-04-04T07:57:34Z</time></trkpt><trkpt lat="44.56071468453882" lon="10.20262501439723"><ele>468.0</ele><time>2026-04-04T07:57:35Z</time></trkpt><trkpt lat="44.56069830682768" lon="10.202816224842048"><ele>468.0</ele><time>2026-04-04T07:57:36Z</time></trkpt><trkpt lat="44.56069873630655" lon="10.203055974464283"><ele>468.0</ele><time>2026-04-04T07:57:37Z</time></trkpt><trkpt lat="44.560722805389396" lon="10.203233876860347"><ele>468.0</ele><time>2026-04-04T07:57:38Z</time></trkpt><trkpt lat="44.56076720234993" lon="10.203336181685906"><ele>468.0</ele><time>2026-04-04T07:57:39Z</time></trkpt><trkpt lat="44.56066839400918" lon="10.203351669923256"><ele>467.99999999999994</ele><time>2026-04-04T07:57:41Z</time></trkpt><trkpt lat="44.560617388327174" lon="10.20329367403362"><ele>467.99999999999994</ele><time>2026-04-04T07:57:42Z</time></trkpt><trkpt lat="44.56060628797428" lon="10.203182027382956"><ele>468.0</ele><time>2026-04-04T07:57:43Z</time></trkpt><trkpt lat="44.56055315743748" lon="10.203070895922293"><ele>468.0</ele><time>2026-04-04T07:57:44Z</time></trkpt><trkpt lat="44.56043586333162" lon="10.203118225669611"><ele>465.75</ele><time>2026-04-04T07:57:46Z</time></trkpt><trkpt lat="44.56040979824253" lon="10.20326022764806"><ele>463.5</ele><time>2026-04-04T07:57:47Z</time></trkpt><trkpt lat="44.56044481881919" lon="10.20346245305732"><ele>461.25</ele><time>2026-04-04T07:57:48Z</time></trkpt><trkpt lat="44.560533779092566" lon="10.20366683540399"><ele>459.0</ele><time>2026-04-04T07:57:49Z</time></trkpt><trkpt lat="44.560644013288275" lon="10.203852659828497"><ele>455.25</ele><time>2026-04-04T07:57:50Z</time></trkpt><trkpt lat="44.56074021134285" lon="10.204018163327945"><ele>451.5</ele><time>2026-04-04T07:57:51Z</time></trkpt><trkpt lat="44.5608107076888" lon="10.204165739046307"><ele>447.75</ele><time>2026-04-04T07:57:52Z</time></trkpt><trkpt lat="44.560769824279745" lon="10.204316601524326"><ele>444.0</ele><time>2026-04-04T07:57:53Z</time></trkpt><trkpt lat="44.56066932917164" lon="10.204460287099188"><ele>444.0</ele><time>2026-04-04T07:57:54Z</time></trkpt><trkpt lat="44.56053973445262" lon="10.204647190559275"><ele>444.0</ele><time>2026-04-04T07:57:55Z</time></trkpt><trkpt lat="44.56042428739358" lon="10.204823546886544"><ele>444.0</ele><time>2026-04-04T07:57:56Z</time></trkpt><trkpt lat="44.5603179590013" lon="10.204967219492303"><ele>439.4</ele><time>2026-04-04T07:57:57Z</time></trkpt><trkpt lat="44.56022811332194" lon="10.205064793223613"><ele>434.79999999999995</ele><time>2026-04-04T07:57:58Z</time></trkpt><trkpt lat="44.56013632819088" lon="10.205118788128841"><ele>430.20000000000005</ele><time>2026-04-04T07:57:59Z</time></trkpt><trkpt lat="44.56005346015616" lon="10.205101266962131"><ele>425.6</ele><time>2026-04-04T07:58:00Z</time></trkpt><trkpt lat="44.559967975312254" lon="10.205010230589773"><ele>421.0</ele><time>2026-04-04T07:58:01Z</time></trkpt><trkpt lat="44.55990088347786" lon="10.20485412434095"><ele>421.8</ele><time>2026-04-04T07:58:02Z</time></trkpt><trkpt lat="44.55983428969293" lon="10.204648280320367"><ele>422.6</ele><time>2026-04-04T07:58:03Z</time></trkpt><trkpt lat="44.55978285615839" lon="10.204482998029487"><ele>423.4</ele><time>2026-04-04T07:58:04Z</time></trkpt><trkpt lat="44.55975697427343" lon="10.20437366902062"><ele>424.2</ele><time>2026-04-04T07:58:05Z</time></trkpt><trkpt lat="44.55972925639945" lon="10.204293847711277"><ele>425.0</ele><time>2026-04-04T07:58:07Z</time></trkpt><trkpt lat="44.55964752179907" lon="10.204216772709298"><ele>425.0</ele><time>2026-04-04T07:58:10Z</time></trkpt><trkpt lat="44.55957179826711" lon="10.204275964429142"><ele>425.0</ele><time>2026-04-04T07:58:14Z</time></trkpt><trkpt lat="44.55949512543413" lon="10.204548612105453"><ele>425.0</ele><time>2026-04-04T07:58:16Z</time></trkpt><trkpt lat="44.559680840149554" lon="10.204743887417807"><ele>423.66666666666663</ele><time>2026-04-04T07:58:17Z</time></trkpt><trkpt lat="44.55972223525723" lon="10.205004891553276"><ele>422.33333333333337</ele><time>2026-04-04T07:58:18Z</time></trkpt><trkpt lat="44.55976459524826" lon="10.20526956755666"><ele>421.0</ele><time>2026-04-04T07:58:19Z</time></trkpt><trkpt lat="44.559807982010824" lon="10.205536563424639"><ele>419.6666666666667</ele><time>2026-04-04T07:58:20Z</time></trkpt><trkpt lat="44.55984428971682" lon="10.205797018975035"><ele>418.33333333333337</ele><time>2026-04-04T07:58:21Z</time></trkpt><trkpt lat="44.55989631574372" lon="10.206117512780864"><ele>417.0</ele><time>2026-04-04T07:58:22Z</time></trkpt><trkpt lat="44.559947497679325" lon="10.206435432788025"><ele>415.33333333333337</ele><time>2026-04-04T07:58:23Z</time></trkpt><trkpt lat="44.559992338842804" lon="10.206714310062114"><ele>413.6666666666667</ele><time>2026-04-04T07:58:24Z</time></trkpt><trkpt lat="44.56004953077922" lon="10.206975266555398"><ele>412.0</ele><time>2026-04-04T07:58:25Z</time></trkpt><trkpt lat="44.56014245783852" lon="10.207250314601326"><ele>413.5</ele><time>2026-04-04T07:58:26Z</time></trkpt><trkpt lat="44.56027887147584" lon="10.207534856736116"><ele>415.0</ele><time>2026-04-04T07:58:27Z</time></trkpt><trkpt lat="44.56045237943965" lon="10.207822854681307"><ele>415.0</ele><time>2026-04-04T07:58:28Z</time></trkpt><trkpt lat="44.560640700002004" lon="10.208113208958784"><ele>415.0</ele><time>2026-04-04T07:58:29Z</time></trkpt><trkpt lat="44.56080988907281" lon="10.208388415159671"><ele>408.5</ele><time>2026-04-04T07:58:30Z</time></trkpt><trkpt lat="44.560974569858445" lon="10.208676415448089"><ele>402.0</ele><time>2026-04-04T07:58:31Z</time></trkpt><trkpt lat="44.56113652252576" lon="10.208953982570758"><ele>408.0</ele><time>2026-04-04T07:58:32Z</time></trkpt><trkpt lat="44.56127875596458" lon="10.209208142752509"><ele>414.0</ele><time>2026-04-04T07:58:33Z</time></trkpt><trkpt lat="44.56142522956238" lon="10.209472143778259"><ele>414.0</ele><time>2026-04-04T07:58:34Z</time></trkpt><trkpt lat="44.56156693806033" lon="10.209756736122808"><ele>414.0</ele><time>2026-04-04T07:58:35Z</time></trkpt><trkpt lat="44.56165212722469" lon="10.210077114346893"><ele>408.5</ele><time>2026-04-04T07:58:36Z</time></trkpt><trkpt lat="44.56173456274379" lon="10.210413681573055"><ele>403.0</ele><time>2026-04-04T07:58:37Z</time></trkpt><trkpt lat="44.561775923361104" lon="10.210770852545592"><ele>399.6666666666667</ele><time>2026-04-04T07:58:38Z</time></trkpt><trkpt lat="44.561803062135176" lon="10.211097619181203"><ele>396.33333333333337</ele><time>2026-04-04T07:58:39Z</time></trkpt><trkpt lat="44.561852082760545" lon="10.211362316347584"><ele>393.0</ele><time>2026-04-04T07:58:40Z</time></trkpt><trkpt lat="44.56189415479392" lon="10.21162137340514"><ele>390.0</ele><time>2026-04-04T07:58:41Z</time></trkpt><trkpt lat="44.56198857584164" lon="10.211856388589567"><ele>387.0</ele><time>2026-04-04T07:58:42Z</time></trkpt><trkpt lat="44.56214794620558" lon="10.212053945967712"><ele>384.0</ele><time>2026-04-04T07:58:43Z</time></trkpt><trkpt lat="44.562338810891795" lon="10.212236904351544"><ele>388.5</ele><time>2026-04-04T07:58:44Z</time></trkpt><trkpt lat="44.56251113468485" lon="10.212457442394678"><ele>393.0</ele><time>2026-04-04T07:58:45Z</time></trkpt><trkpt lat="44.562651313540286" lon="10.212719740610996"><ele>393.0</ele><time>2026-04-04T07:58:46Z</time></trkpt><trkpt lat="44.56275204717304" lon="10.212999978887702"><ele>393.0</ele><time>2026-04-04T07:58:47Z</time></trkpt><trkpt lat="44.56281479545201" lon="10.213292271301963"><ele>393.0</ele><time>2026-04-04T07:58:48Z</time></trkpt><trkpt lat="44.562847279782034" lon="10.213600806830968"><ele>388.0</ele><time>2026-04-04T07:58:49Z</time></trkpt><trkpt lat="44.562848819180346" lon="10.213923759968612"><ele>383.0</ele><time>2026-04-04T07:58:50Z</time></trkpt><trkpt lat="44.5628256520974" lon="10.214258215356958"><ele>382.0</ele><time>2026-04-04T07:58:51Z</time></trkpt><trkpt lat="44.562795136748534" lon="10.21458948259051"><ele>381.0</ele><time>2026-04-04T07:58:52Z</time></trkpt><trkpt lat="44.56278826334388" lon="10.214888787589322"><ele>380.0</ele><time>2026-04-04T07:58:53Z</time></trkpt><trkpt lat="44.56277298325121" lon="10.215154444517657"><ele>379.0</ele><time>2026-04-04T07:58:54Z</time></trkpt><trkpt lat="44.56280104926872" lon="10.21539063853128"><ele>378.0</ele><time>2026-04-04T07:58:55Z</time></trkpt><trkpt lat="44.562875686904036" lon="10.215614193593792"><ele>386.0</ele><time>2026-04-04T07:58:56Z</time></trkpt><trkpt lat="44.56300511530324" lon="10.215858056679238"><ele>394.0</ele><time>2026-04-04T07:58:57Z</time></trkpt><trkpt lat="44.56314857371998" lon="10.216125006685774"><ele>394.0</ele><time>2026-04-04T07:58:58Z</time></trkpt><trkpt lat="44.56328492487251" lon="10.21641395556429"><ele>394.0</ele><time>2026-04-04T07:58:59Z</time></trkpt><trkpt lat="44.56340916367571" lon="10.216701553357591"><ele>392.5</ele><time>2026-04-04T07:59:00Z</time></trkpt><trkpt lat="44.563506247887986" lon="10.21699980215667"><ele>391.0</ele><time>2026-04-04T07:59:01Z</time></trkpt><trkpt lat="44.56357956057545" lon="10.217324649734127"><ele>389.0</ele><time>2026-04-04T07:59:02Z</time></trkpt><trkpt lat="44.5636265020603" lon="10.217663227433619"><ele>387.0</ele><time>2026-04-04T07:59:03Z</time></trkpt><trkpt lat="44.5636651177659" lon="10.217979250194034"><ele>394.66666666666663</ele><time>2026-04-04T07:59:04Z</time></trkpt><trkpt lat="44.56370449218684" lon="10.218284630446437"><ele>402.3333333333333</ele><time>2026-04-04T07:59:05Z</time></trkpt><trkpt lat="44.563752656134" lon="10.218578845222721"><ele>410.0</ele><time>2026-04-04T07:59:06Z</time></trkpt><trkpt lat="44.563767895316616" lon="10.218854705994946"><ele>409.0</ele><time>2026-04-04T07:59:07Z</time></trkpt><trkpt lat="44.56375236653842" lon="10.21911079429623"><ele>408.0</ele><time>2026-04-04T07:59:08Z</time></trkpt><trkpt lat="44.56371769483527" lon="10.21937885162496"><ele>407.0</ele><time>2026-04-04T07:59:09Z</time></trkpt><trkpt lat="44.5636808751184" lon="10.2196562091432"><ele>396.0</ele><time>2026-04-04T07:59:10Z</time></trkpt><trkpt lat="44.563662272012934" lon="10.219912327759644"><ele>385.0</ele><time>2026-04-04T07:59:11Z</time></trkpt><trkpt lat="44.563656224672386" lon="10.220158844212875"><ele>374.0</ele><time>2026-04-04T07:59:12Z</time></trkpt><trkpt lat="44.56369690325461" lon="10.22042818149872"><ele>381.33333333333337</ele><time>2026-04-04T07:59:13Z</time></trkpt><trkpt lat="44.56378703530517" lon="10.220695470506396"><ele>388.6666666666667</ele><time>2026-04-04T07:59:14Z</time></trkpt><trkpt lat="44.56390215251152" lon="10.220971375485892"><ele>396.0</ele><time>2026-04-04T07:59:15Z</time></trkpt><trkpt lat="44.56401323180641" lon="10.221254414862807"><ele>392.0</ele><time>2026-04-04T07:59:16Z</time></trkpt><trkpt lat="44.56411527817541" lon="10.221533085095707"><ele>388.0</ele><time>2026-04-04T07:59:17Z</time></trkpt><trkpt lat="44.56420238471935" lon="10.22179317361095"><ele>384.0</ele><time>2026-04-04T07:59:18Z</time></trkpt><trkpt lat="44.56428945599012" lon="10.222029823576493"><ele>384.0</ele><time>2026-04-04T07:59:19Z</time></trkpt><trkpt lat="44.56439642491518" lon="10.22222663552942"><ele>384.0</ele><time>2026-04-04T07:59:20Z</time></trkpt><trkpt lat="44.56454793825509" lon="10.222389260344425"><ele>384.0</ele><time>2026-04-04T07:59:21Z</time></trkpt><trkpt lat="44.56471134744443" lon="10.222500548149982"><ele>383.0</ele><time>2026-04-04T07:59:22Z</time></trkpt><trkpt lat="44.56485391278695" lon="10.222648262963073"><ele>382.0</ele><time>2026-04-04T07:59:23Z</time></trkpt><trkpt lat="44.56494804940553" lon="10.222888690296449"><ele>381.0</ele><time>2026-04-04T07:59:24Z</time></trkpt><trkpt lat="44.565014618757075" lon="10.2231793929523"><ele>381.0</ele><time>2026-04-04T07:59:25Z</time></trkpt><trkpt lat="44.56507376104036" lon="10.22347917386042"><ele>381.0</ele><time>2026-04-04T07:59:26Z</time></trkpt><trkpt lat="44.565121894347676" lon="10.223748172844543"><ele>381.0</ele><time>2026-04-04T07:59:27Z</time></trkpt><trkpt lat="44.56514252566108" lon="10.224007803223301"><ele>378.5</ele><time>2026-04-04T07:59:28Z</time></trkpt><trkpt lat="44.565226127034414" lon="10.224274800105915"><ele>376.0</ele><time>2026-04-04T07:59:29Z</time></trkpt><trkpt lat="44.565041147837405" lon="10.22456533305795"><ele>374.0</ele><time>2026-04-04T07:59:30Z</time></trkpt><trkpt lat="44.56499078357954" lon="10.224846917817013"><ele>372.0</ele><time>2026-04-04T07:59:31Z</time></trkpt><trkpt lat="44.56496608496549" lon="10.22511010733242"><ele>370.0</ele><time>2026-04-04T07:59:32Z</time></trkpt><trkpt lat="44.56496323468639" lon="10.22533478679586"><ele>370.0</ele><time>2026-04-04T07:59:33Z</time></trkpt><trkpt lat="44.5650031773494" lon="10.225524047842928"><ele>370.0</ele><time>2026-04-04T07:59:34Z</time></trkpt><trkpt lat="44.565120206812054" lon="10.22572214394653"><ele>370.0</ele><time>2026-04-04T07:59:35Z</time></trkpt><trkpt lat="44.56530051171725" lon="10.225911145357554"><ele>370.0</ele><time>2026-04-04T07:59:36Z</time></trkpt><trkpt lat="44.565529865362265" lon="10.226115026509232"><ele>370.0</ele><time>2026-04-04T07:59:37Z</time></trkpt><trkpt lat="44.565699060784496" lon="10.226352304788787"><ele>364.5</ele><time>2026-04-04T07:59:38Z</time></trkpt><trkpt lat="44.565817904188314" lon="10.226542980796431"><ele>359.0</ele><time>2026-04-04T07:59:39Z</time></trkpt><trkpt lat="44.56602075470119" lon="10.226802718801746"><ele>359.0</ele><time>2026-04-04T07:59:40Z</time></trkpt><trkpt lat="44.566164436447906" lon="10.22698037934161"><ele>359.0</ele><time>2026-04-04T07:59:41Z</time></trkpt><trkpt lat="44.56624734071791" lon="10.227147073133798"><ele>359.0</ele><time>2026-04-04T07:59:42Z</time></trkpt><trkpt lat="44.56626733564868" lon="10.227308882270158"><ele>361.0</ele><time>2026-04-04T07:59:43Z</time></trkpt><trkpt lat="44.566267152747095" lon="10.22751770433557"><ele>363.0</ele><time>2026-04-04T07:59:44Z</time></trkpt><trkpt lat="44.56625662218145" lon="10.227753936411352"><ele>365.0</ele><time>2026-04-04T07:59:45Z</time></trkpt><trkpt lat="44.56624698620763" lon="10.22797805395112"><ele>363.0</ele><time>2026-04-04T07:59:46Z</time></trkpt><trkpt lat="44.566265117135416" lon="10.228194082471697"><ele>361.0</ele><time>2026-04-04T07:59:47Z</time></trkpt><trkpt lat="44.56626982365011" lon="10.228396676037322"><ele>359.0</ele><time>2026-04-04T07:59:48Z</time></trkpt><trkpt lat="44.56631173241947" lon="10.228590961374486"><ele>357.0</ele><time>2026-04-04T07:59:49Z</time></trkpt><trkpt lat="44.56641033798727" lon="10.22876951377789"><ele>357.0</ele><time>2026-04-04T07:59:50Z</time></trkpt><trkpt lat="44.56650569892841" lon="10.228898803667429"><ele>357.0</ele><time>2026-04-04T07:59:51Z</time></trkpt><trkpt lat="44.56656995030544" lon="10.22900103771914"><ele>357.0</ele><time>2026-04-04T07:59:52Z</time></trkpt><trkpt lat="44.56663265053764" lon="10.229043850950175"><ele>357.0</ele><time>2026-04-04T07:59:54Z</time></trkpt><trkpt lat="44.56669393758245" lon="10.22909265515402"><ele>357.0</ele><time>2026-04-04T07:59:57Z</time></trkpt><trkpt lat="44.56665444922888" lon="10.229171965164934"><ele>357.0</ele><time>2026-04-04T07:59:59Z</time></trkpt><trkpt lat="44.56657690416287" lon="10.229081174288073"><ele>357.0</ele><time>2026-04-04T08:00:01Z</time></trkpt><trkpt lat="44.56651339608691" lon="10.228946887635857"><ele>357.0</ele><time>2026-04-04T08:00:02Z</time></trkpt><trkpt lat="44.566418615158035" lon="10.228784794208483"><ele>357.0</ele><time>2026-04-04T08:00:03Z</time></trkpt><trkpt lat="44.566326577398165" lon="10.228620554559745"><ele>357.0</ele><time>2026-04-04T08:00:04Z</time></trkpt><trkpt lat="44.566199886205276" lon="10.228414205207566"><ele>355.0</ele><time>2026-04-04T08:00:05Z</time></trkpt><trkpt lat="44.56607376732177" lon="10.228224824595513"><ele>353.0</ele><time>2026-04-04T08:00:06Z</time></trkpt><trkpt lat="44.565954851567" lon="10.228081697344628"><ele>351.0</ele><time>2026-04-04T08:00:07Z</time></trkpt><trkpt lat="44.565848694661724" lon="10.227953448127133"><ele>351.0</ele><time>2026-04-04T08:00:08Z</time></trkpt><trkpt lat="44.56574726940057" lon="10.227821968944896"><ele>351.0</ele><time>2026-04-04T08:00:09Z</time></trkpt><trkpt lat="44.56564503144409" lon="10.2276871524353"><ele>351.0</ele><time>2026-04-04T08:00:10Z</time></trkpt><trkpt lat="44.565542974176296" lon="10.227558386470077"><ele>351.0</ele><time>2026-04-04T08:00:11Z</time></trkpt><trkpt lat="44.56542974317736" lon="10.227429981773591"><ele>350.75</ele><time>2026-04-04T08:00:12Z</time></trkpt><trkpt lat="44.56531487195365" lon="10.227293515165737"><ele>350.5</ele><time>2026-04-04T08:00:13Z</time></trkpt><trkpt lat="44.56519642361345" lon="10.227174409586308"><ele>350.25</ele><time>2026-04-04T08:00:14Z</time></trkpt><trkpt lat="44.565071861324654" lon="10.22708143640871"><ele>350.0</ele><time>2026-04-04T08:00:15Z</time></trkpt><trkpt lat="44.56493566579117" lon="10.227013634871538"><ele>350.0</ele><time>2026-04-04T08:00:16Z</time></trkpt><trkpt lat="44.564839561036194" lon="10.226892739457465"><ele>350.0</ele><time>2026-04-04T08:00:17Z</time></trkpt><trkpt lat="44.564767741934475" lon="10.226751574250718"><ele>350.0</ele><time>2026-04-04T08:00:18Z</time></trkpt><trkpt lat="44.564726958904345" lon="10.226629836366083"><ele>350.0</ele><time>2026-04-04T08:00:19Z</time></trkpt><trkpt lat="44.56468616938766" lon="10.226513608668526"><ele>350.0</ele><time>2026-04-04T08:00:20Z</time></trkpt><trkpt lat="44.56462186005041" lon="10.226418210001128"><ele>348.25</ele><time>2026-04-04T08:00:21Z</time></trkpt><trkpt lat="44.56455629342739" lon="10.226327526138608"><ele>346.5</ele><time>2026-04-04T08:00:22Z</time></trkpt><trkpt lat="44.56444570213305" lon="10.226305437265323"><ele>344.75</ele><time>2026-04-04T08:00:23Z</time></trkpt><trkpt lat="44.5643140892253" lon="10.226320296692807"><ele>343.0</ele><time>2026-04-04T08:00:24Z</time></trkpt><trkpt lat="44.56418340705909" lon="10.22639518614021"><ele>341.66666666666663</ele><time>2026-04-04T08:00:25Z</time></trkpt><trkpt lat="44.56404941175561" lon="10.226522575445081"><ele>340.3333333333333</ele><time>2026-04-04T08:00:26Z</time></trkpt><trkpt lat="44.5638602002108" lon="10.22658368206994"><ele>339.0</ele><time>2026-04-04T08:00:27Z</time></trkpt><trkpt lat="44.56366721574649" lon="10.226699882079938"><ele>338.0</ele><time>2026-04-04T08:00:28Z</time></trkpt><trkpt lat="44.56347948902878" lon="10.226813003171086"><ele>337.0</ele><time>2026-04-04T08:00:29Z</time></trkpt><trkpt lat="44.563298618806705" lon="10.226921992453992"><ele>336.0</ele><time>2026-04-04T08:00:30Z</time></trkpt><trkpt lat="44.563116573028914" lon="10.227032830343347"><ele>336.0</ele><time>2026-04-04T08:00:31Z</time></trkpt><trkpt lat="44.562932297441726" lon="10.227143448581778"><ele>336.0</ele><time>2026-04-04T08:00:32Z</time></trkpt><trkpt lat="44.56275489239761" lon="10.2272498481835"><ele>336.0</ele><time>2026-04-04T08:00:33Z</time></trkpt><trkpt lat="44.562592712821385" lon="10.227347650492085"><ele>336.3333333333333</ele><time>2026-04-04T08:00:34Z</time></trkpt><trkpt lat="44.56242718941733" lon="10.22744746954031"><ele>336.66666666666663</ele><time>2026-04-04T08:00:35Z</time></trkpt><trkpt lat="44.56228760680355" lon="10.227531644852442"><ele>337.0</ele><time>2026-04-04T08:00:36Z</time></trkpt><trkpt lat="44.56215005274576" lon="10.22761459695509"><ele>338.0</ele><time>2026-04-04T08:00:37Z</time></trkpt><trkpt lat="44.56202916767081" lon="10.227711009296874"><ele>339.0</ele><time>2026-04-04T08:00:38Z</time></trkpt><trkpt lat="44.56191152948967" lon="10.22778461632742"><ele>340.0</ele><time>2026-04-04T08:00:39Z</time></trkpt><trkpt lat="44.56177414711232" lon="10.227862383002917"><ele>341.0</ele><time>2026-04-04T08:00:40Z</time></trkpt><trkpt lat="44.561650066064814" lon="10.227948270124376"><ele>341.0</ele><time>2026-04-04T08:00:41Z</time></trkpt><trkpt lat="44.56154780142975" lon="10.228071243025926"><ele>341.0</ele><time>2026-04-04T08:00:42Z</time></trkpt><trkpt lat="44.56144828871862" lon="10.228248435047664"><ele>341.0</ele><time>2026-04-04T08:00:43Z</time></trkpt><trkpt lat="44.56137690527674" lon="10.228501021647933"><ele>341.33333333333337</ele><time>2026-04-04T08:00:44Z</time></trkpt><trkpt lat="44.561260250229125" lon="10.22868966913886"><ele>341.6666666666667</ele><time>2026-04-04T08:00:45Z</time></trkpt><trkpt lat="44.56115659178614" lon="10.228872037125255"><ele>342.0</ele><time>2026-04-04T08:00:46Z</time></trkpt><trkpt lat="44.56105141101927" lon="10.229030303378746"><ele>344.6666666666667</ele><time>2026-04-04T08:00:47Z</time></trkpt><trkpt lat="44.56093199350692" lon="10.229136853477055"><ele>347.33333333333337</ele><time>2026-04-04T08:00:48Z</time></trkpt><trkpt lat="44.56077849853161" lon="10.229241940429327"><ele>350.0</ele><time>2026-04-04T08:00:49Z</time></trkpt><trkpt lat="44.560615058897255" lon="10.229345268889487"><ele>350.0</ele><time>2026-04-04T08:00:50Z</time></trkpt><trkpt lat="44.5604450728882" lon="10.229446196309263"><ele>350.0</ele><time>2026-04-04T08:00:51Z</time></trkpt><trkpt lat="44.560277971268064" lon="10.229535357505544"><ele>350.0</ele><time>2026-04-04T08:00:52Z</time></trkpt><trkpt lat="44.56011642271138" lon="10.229596015146221"><ele>352.5</ele><time>2026-04-04T08:00:53Z</time></trkpt><trkpt lat="44.55997055346222" lon="10.229608441536948"><ele>355.0</ele><time>2026-04-04T08:00:54Z</time></trkpt><trkpt lat="44.5598397708997" lon="10.229594467212136"><ele>357.5</ele><time>2026-04-04T08:00:55Z</time></trkpt><trkpt lat="44.559685354357775" lon="10.229548368091173"><ele>360.0</ele><time>2026-04-04T08:00:56Z</time></trkpt><trkpt lat="44.55952917725965" lon="10.229483081923425"><ele>360.6666666666667</ele><time>2026-04-04T08:00:57Z</time></trkpt><trkpt lat="44.55935718424602" lon="10.229434895744616"><ele>361.33333333333337</ele><time>2026-04-04T08:00:58Z</time></trkpt><trkpt lat="44.55919224769087" lon="10.229395618783117"><ele>362.0</ele><time>2026-04-04T08:00:59Z</time></trkpt><trkpt lat="44.559014302707205" lon="10.229423740313896"><ele>362.0</ele><time>2026-04-04T08:01:00Z</time></trkpt><trkpt lat="44.55882816373599" lon="10.229495128588072"><ele>362.0</ele><time>2026-04-04T08:01:01Z</time></trkpt><trkpt lat="44.55864556363798" lon="10.229609772439302"><ele>362.0</ele><time>2026-04-04T08:01:02Z</time></trkpt><trkpt lat="44.558479356994326" lon="10.22976529519896"><ele>364.33333333333337</ele><time>2026-04-04T08:01:03Z</time></trkpt><trkpt lat="44.55834304855771" lon="10.229977913248662"><ele>366.6666666666667</ele><time>2026-04-04T08:01:04Z</time></trkpt><trkpt lat="44.558198857381704" lon="10.23018698583553"><ele>369.0</ele><time>2026-04-04T08:01:05Z</time></trkpt><trkpt lat="44.558063662825525" lon="10.230384529897414"><ele>369.0</ele><time>2026-04-04T08:01:06Z</time></trkpt><trkpt lat="44.557920098268" lon="10.230539414649657"><ele>369.0</ele><time>2026-04-04T08:01:07Z</time></trkpt><trkpt lat="44.557750985800375" lon="10.230626620637095"><ele>369.0</ele><time>2026-04-04T08:01:08Z</time></trkpt><trkpt lat="44.55756257082748" lon="10.230723230139704"><ele>369.0</ele><time>2026-04-04T08:01:09Z</time></trkpt><trkpt lat="44.55737558936394" lon="10.230830064869263"><ele>369.0</ele><time>2026-04-04T08:01:10Z</time></trkpt><trkpt lat="44.557186433481704" lon="10.230935632895974"><ele>369.0</ele><time>2026-04-04T08:01:11Z</time></trkpt><trkpt lat="44.55698547799421" lon="10.231018163674465"><ele>370.6666666666667</ele><time>2026-04-04T08:01:12Z</time></trkpt><trkpt lat="44.5567887299908" lon="10.231112029906468"><ele>372.33333333333337</ele><time>2026-04-04T08:01:13Z</time></trkpt><trkpt lat="44.55658869160082" lon="10.231195553789279"><ele>374.0</ele><time>2026-04-04T08:01:14Z</time></trkpt><trkpt lat="44.55638920797558" lon="10.231252236117959"><ele>375.0</ele><time>2026-04-04T08:01:15Z</time></trkpt><trkpt lat="44.5561974742599" lon="10.231269167480278"><ele>376.0</ele><time>2026-04-04T08:01:16Z</time></trkpt><trkpt lat="44.55601511682914" lon="10.23121159730687"><ele>377.0</ele><time>2026-04-04T08:01:17Z</time></trkpt><trkpt lat="44.55582064638877" lon="10.23114550461025"><ele>377.0</ele><time>2026-04-04T08:01:18Z</time></trkpt><trkpt lat="44.55562734788735" lon="10.23108007377822"><ele>377.0</ele><time>2026-04-04T08:01:19Z</time></trkpt><trkpt lat="44.55542937769507" lon="10.231098004913672"><ele>377.0</ele><time>2026-04-04T08:01:20Z</time></trkpt><trkpt lat="44.55521285333395" lon="10.231206639557735"><ele>380.5</ele><time>2026-04-04T08:01:21Z</time></trkpt><trkpt lat="44.554956082961944" lon="10.231281709436962"><ele>384.0</ele><time>2026-04-04T08:01:22Z</time></trkpt><trkpt lat="44.55468323246726" lon="10.231383949480628"><ele>385.0</ele><time>2026-04-04T08:01:23Z</time></trkpt><trkpt lat="44.55439747936352" lon="10.231487749676385"><ele>386.0</ele><time>2026-04-04T08:01:24Z</time></trkpt><trkpt lat="44.55413205948418" lon="10.23160200581949"><ele>386.0</ele><time>2026-04-04T08:01:25Z</time></trkpt><trkpt lat="44.55388400202672" lon="10.23169112943447"><ele>386.0</ele><time>2026-04-04T08:01:26Z</time></trkpt><trkpt lat="44.553643347134376" lon="10.23177829528964"><ele>389.0</ele><time>2026-04-04T08:01:27Z</time></trkpt><trkpt lat="44.55340037055895" lon="10.231869934414963"><ele>392.0</ele><time>2026-04-04T08:01:28Z</time></trkpt><trkpt lat="44.55316605708951" lon="10.23195675291383"><ele>392.0</ele><time>2026-04-04T08:01:29Z</time></trkpt><trkpt lat="44.552899095956064" lon="10.232073511896868"><ele>392.0</ele><time>2026-04-04T08:01:30Z</time></trkpt><trkpt lat="44.552812575598644" lon="10.232176018599702"><ele>392.0</ele><time>2026-04-04T08:01:31Z</time></trkpt><trkpt lat="44.55267281470506" lon="10.23235950479738"><ele>394.66666666666663</ele><time>2026-04-04T08:01:32Z</time></trkpt><trkpt lat="44.55257883505023" lon="10.232565039730671"><ele>397.33333333333337</ele><time>2026-04-04T08:01:33Z</time></trkpt><trkpt lat="44.552511832326935" lon="10.232842156906406"><ele>400.0</ele><time>2026-04-04T08:01:34Z</time></trkpt><trkpt lat="44.55245164975414" lon="10.23318606698928"><ele>400.0</ele><time>2026-04-04T08:01:35Z</time></trkpt><trkpt lat="44.55243549107287" lon="10.233526106896612"><ele>400.0</ele><time>2026-04-04T08:01:36Z</time></trkpt><trkpt lat="44.552440394361945" lon="10.233841508415653"><ele>400.33333333333337</ele><time>2026-04-04T08:01:37Z</time></trkpt><trkpt lat="44.55244982577715" lon="10.234111387572167"><ele>400.66666666666663</ele><time>2026-04-04T08:01:38Z</time></trkpt><trkpt lat="44.552452652195846" lon="10.234350638002452"><ele>401.0</ele><time>2026-04-04T08:01:39Z</time></trkpt><trkpt lat="44.55240315244782" lon="10.234549396691419"><ele>401.0</ele><time>2026-04-04T08:01:40Z</time></trkpt><trkpt lat="44.55235412871165" lon="10.234729432992637"><ele>401.0</ele><time>2026-04-04T08:01:41Z</time></trkpt><trkpt lat="44.55228816947289" lon="10.234896233884863"><ele>401.0</ele><time>2026-04-04T08:01:42Z</time></trkpt><trkpt lat="44.552204058211856" lon="10.235053912512287"><ele>401.0</ele><time>2026-04-04T08:01:43Z</time></trkpt><trkpt lat="44.5520876110953" lon="10.235216783948795"><ele>405.0</ele><time>2026-04-04T08:01:44Z</time></trkpt><trkpt lat="44.55191892071368" lon="10.235390963104901"><ele>409.0</ele><time>2026-04-04T08:01:45Z</time></trkpt><trkpt lat="44.55172352904452" lon="10.235572012055046"><ele>413.0</ele><time>2026-04-04T08:01:46Z</time></trkpt><trkpt lat="44.55154522711135" lon="10.235737225586181"><ele>413.0</ele><time>2026-04-04T08:01:47Z</time></trkpt><trkpt lat="44.55132791881211" lon="10.235920938514909"><ele>413.0</ele><time>2026-04-04T08:01:48Z</time></trkpt><trkpt lat="44.55112352586645" lon="10.23603286495063"><ele>415.5</ele><time>2026-04-04T08:01:49Z</time></trkpt><trkpt lat="44.55089607851619" lon="10.236104147603234"><ele>418.0</ele><time>2026-04-04T08:01:50Z</time></trkpt><trkpt lat="44.55067119463675" lon="10.236114219585332"><ele>418.0</ele><time>2026-04-04T08:01:51Z</time></trkpt><trkpt lat="44.550462993832134" lon="10.236089578775305"><ele>418.0</ele><time>2026-04-04T08:01:52Z</time></trkpt><trkpt lat="44.55025236149505" lon="10.236014255472375"><ele>418.0</ele><time>2026-04-04T08:01:53Z</time></trkpt><trkpt lat="44.55005107475295" lon="10.235899692878144"><ele>421.5</ele><time>2026-04-04T08:01:54Z</time></trkpt><trkpt lat="44.549856872827526" lon="10.235759520011833"><ele>425.0</ele><time>2026-04-04T08:01:55Z</time></trkpt><trkpt lat="44.54967686294314" lon="10.235537243124503"><ele>430.0</ele><time>2026-04-04T08:01:56Z</time></trkpt><trkpt lat="44.54948983663642" lon="10.235310412748797"><ele>435.0</ele><time>2026-04-04T08:01:57Z</time></trkpt><trkpt lat="44.549306601269" lon="10.235114416859481"><ele>435.0</ele><time>2026-04-04T08:01:58Z</time></trkpt><trkpt lat="44.549115550108475" lon="10.23491845632228"><ele>435.0</ele><time>2026-04-04T08:01:59Z</time></trkpt><trkpt lat="44.54886604984556" lon="10.234775636613385"><ele>440.5</ele><time>2026-04-04T08:02:00Z</time></trkpt><trkpt lat="44.548605157889945" lon="10.234665837937992"><ele>446.0</ele><time>2026-04-04T08:02:01Z</time></trkpt><trkpt lat="44.548381109020355" lon="10.234556027942045"><ele>446.0</ele><time>2026-04-04T08:02:02Z</time></trkpt><trkpt lat="44.54818966295615" lon="10.234366011237869"><ele>446.0</ele><time>2026-04-04T08:02:03Z</time></trkpt><trkpt lat="44.5480013318731" lon="10.2341459296475"><ele>452.5</ele><time>2026-04-04T08:02:04Z</time></trkpt><trkpt lat="44.547813552805565" lon="10.233903249227764"><ele>459.0</ele><time>2026-04-04T08:02:05Z</time></trkpt><trkpt lat="44.547605946724616" lon="10.233656243572192"><ele>459.0</ele><time>2026-04-04T08:02:06Z</time></trkpt><trkpt lat="44.54739221537254" lon="10.233441520626913"><ele>459.0</ele><time>2026-04-04T08:02:07Z</time></trkpt><trkpt lat="44.547215846191776" lon="10.233269082658202"><ele>459.0</ele><time>2026-04-04T08:02:08Z</time></trkpt><trkpt lat="44.547075886982796" lon="10.233145911819648"><ele>459.0</ele><time>2026-04-04T08:02:09Z</time></trkpt><trkpt lat="44.54694409113342" lon="10.233058439600077"><ele>459.0</ele><time>2026-04-04T08:02:10Z</time></trkpt><trkpt lat="44.54678043559651" lon="10.233014301154581"><ele>458.66666666666663</ele><time>2026-04-04T08:02:11Z</time></trkpt><trkpt lat="44.5465788203942" lon="10.233034710444445"><ele>458.3333333333333</ele><time>2026-04-04T08:02:12Z</time></trkpt><trkpt lat="44.54640575310853" lon="10.233113912694074"><ele>458.0</ele><time>2026-04-04T08:02:13Z</time></trkpt><trkpt lat="44.5462687104096" lon="10.233353649440733"><ele>466.3333333333333</ele><time>2026-04-04T08:02:14Z</time></trkpt><trkpt lat="44.546111518671566" lon="10.233584982289447"><ele>474.66666666666663</ele><time>2026-04-04T08:02:15Z</time></trkpt><trkpt lat="44.5459386688238" lon="10.233759568260709"><ele>483.0</ele><time>2026-04-04T08:02:16Z</time></trkpt><trkpt lat="44.54579085278" lon="10.233849698584336"><ele>483.0</ele><time>2026-04-04T08:02:17Z</time></trkpt><trkpt lat="44.54561594685917" lon="10.233864521930242"><ele>483.0</ele><time>2026-04-04T08:02:18Z</time></trkpt><trkpt lat="44.54539264273425" lon="10.233854838067211"><ele>483.0</ele><time>2026-04-04T08:02:19Z</time></trkpt><trkpt lat="44.54519556591473" lon="10.233890540301177"><ele>481.0</ele><time>2026-04-04T08:02:20Z</time></trkpt><trkpt lat="44.545025547591194" lon="10.233988372570384"><ele>479.0</ele><time>2026-04-04T08:02:21Z</time></trkpt><trkpt lat="44.544848261868225" lon="10.23416404300497"><ele>477.0</ele><time>2026-04-04T08:02:22Z</time></trkpt><trkpt lat="44.54469194254766" lon="10.234383270387541"><ele>481.0</ele><time>2026-04-04T08:02:23Z</time></trkpt><trkpt lat="44.54453075265868" lon="10.234523073924398"><ele>485.0</ele><time>2026-04-04T08:02:24Z</time></trkpt><trkpt lat="44.54438774710194" lon="10.234597342659207"><ele>489.0</ele><time>2026-04-04T08:02:25Z</time></trkpt><trkpt lat="44.54424440935653" lon="10.234624597583782"><ele>489.0</ele><time>2026-04-04T08:02:26Z</time></trkpt><trkpt lat="44.5441139496787" lon="10.234725222503734"><ele>489.0</ele><time>2026-04-04T08:02:27Z</time></trkpt><trkpt lat="44.544005744861536" lon="10.23463726334785"><ele>489.0</ele><time>2026-04-04T08:02:28Z</time></trkpt><trkpt lat="44.54389710879099" lon="10.234575731678296"><ele>489.0</ele><time>2026-04-04T08:02:29Z</time></trkpt><trkpt lat="44.54376826102816" lon="10.234490558745982"><ele>487.5</ele><time>2026-04-04T08:02:30Z</time></trkpt><trkpt lat="44.54364483342373" lon="10.2343984304232"><ele>486.0</ele><time>2026-04-04T08:02:31Z</time></trkpt><trkpt lat="44.543555822960755" lon="10.234265347120324"><ele>484.5</ele><time>2026-04-04T08:02:32Z</time></trkpt><trkpt lat="44.543455628770516" lon="10.234186391420737"><ele>483.0</ele><time>2026-04-04T08:02:33Z</time></trkpt><trkpt lat="44.5433862864344" lon="10.234076982878506"><ele>486.33333333333337</ele><time>2026-04-04T08:02:34Z</time></trkpt><trkpt lat="44.543261167762815" lon="10.23391473781728"><ele>489.6666666666667</ele><time>2026-04-04T08:02:35Z</time></trkpt><trkpt lat="44.543156187165415" lon="10.233734538778243"><ele>493.0</ele><time>2026-04-04T08:02:36Z</time></trkpt><trkpt lat="44.54301427078681" lon="10.233546134382602"><ele>493.0</ele><time>2026-04-04T08:02:37Z</time></trkpt><trkpt lat="44.54290440238683" lon="10.233429660891424"><ele>493.0</ele><time>2026-04-04T08:02:38Z</time></trkpt><trkpt lat="44.54264406111047" lon="10.233278753776633"><ele>493.0</ele><time>2026-04-04T08:02:39Z</time></trkpt><trkpt lat="44.542421262756775" lon="10.233207115110659"><ele>493.5</ele><time>2026-04-04T08:02:40Z</time></trkpt><trkpt lat="44.542185669678666" lon="10.233210191994297"><ele>494.0</ele><time>2026-04-04T08:02:41Z</time></trkpt><trkpt lat="44.54191999119765" lon="10.233284980853561"><ele>494.0</ele><time>2026-04-04T08:02:42Z</time></trkpt><trkpt lat="44.541653581161135" lon="10.233401538547684"><ele>494.0</ele><time>2026-04-04T08:02:43Z</time></trkpt><trkpt lat="44.54142796331111" lon="10.233517238904637"><ele>497.0</ele><time>2026-04-04T08:02:44Z</time></trkpt><trkpt lat="44.54118868279764" lon="10.233572620270815"><ele>500.0</ele><time>2026-04-04T08:02:45Z</time></trkpt><trkpt lat="44.54094197813371" lon="10.233634453751403"><ele>500.0</ele><time>2026-04-04T08:02:46Z</time></trkpt><trkpt lat="44.54070233030098" lon="10.233676228278455"><ele>500.0</ele><time>2026-04-04T08:02:47Z</time></trkpt><trkpt lat="44.540475904729256" lon="10.233673593118416"><ele>500.0</ele><time>2026-04-04T08:02:48Z</time></trkpt><trkpt lat="44.54024663973736" lon="10.233605193194999"><ele>500.0</ele><time>2026-04-04T08:02:49Z</time></trkpt><trkpt lat="44.53999865627249" lon="10.233517410407702"><ele>500.0</ele><time>2026-04-04T08:02:50Z</time></trkpt><trkpt lat="44.53976827539897" lon="10.2334198829824"><ele>500.0</ele><time>2026-04-04T08:02:51Z</time></trkpt><trkpt lat="44.539565531206044" lon="10.233310138317746"><ele>501.3333333333333</ele><time>2026-04-04T08:02:52Z</time></trkpt><trkpt lat="44.539383548780044" lon="10.233216470838052"><ele>502.66666666666663</ele><time>2026-04-04T08:02:53Z</time></trkpt><trkpt lat="44.53920267486618" lon="10.233169838328589"><ele>504.0</ele><time>2026-04-04T08:02:54Z</time></trkpt><trkpt lat="44.53901199440004" lon="10.233141699886822"><ele>504.0</ele><time>2026-04-04T08:02:55Z</time></trkpt><trkpt lat="44.53880035090282" lon="10.233197903958239"><ele>504.0</ele><time>2026-04-04T08:02:56Z</time></trkpt><trkpt lat="44.53858651210258" lon="10.233317879948856"><ele>504.0</ele><time>2026-04-04T08:02:57Z</time></trkpt><trkpt lat="44.5383959775613" lon="10.233457297938749"><ele>508.33333333333337</ele><time>2026-04-04T08:02:58Z</time></trkpt><trkpt lat="44.53822257439818" lon="10.233478931328584"><ele>512.6666666666667</ele><time>2026-04-04T08:02:59Z</time></trkpt><trkpt lat="44.53802423694654" lon="10.233532001009252"><ele>517.0</ele><time>2026-04-04T08:03:00Z</time></trkpt><trkpt lat="44.537795487859604" lon="10.233485224449717"><ele>518.5</ele><time>2026-04-04T08:03:01Z</time></trkpt><trkpt lat="44.53756244242255" lon="10.233453740738465"><ele>520.0</ele><time>2026-04-04T08:03:02Z</time></trkpt><trkpt lat="44.53731985426056" lon="10.233434757251072"><ele>520.0</ele><time>2026-04-04T08:03:03Z</time></trkpt><trkpt lat="44.53707154914266" lon="10.23342051812303"><ele>520.0</ele><time>2026-04-04T08:03:04Z</time></trkpt><trkpt lat="44.536832338242434" lon="10.233335367236615"><ele>522.0</ele><time>2026-04-04T08:03:05Z</time></trkpt><trkpt lat="44.53659170124965" lon="10.233298164483749"><ele>524.0</ele><time>2026-04-04T08:03:06Z</time></trkpt><trkpt lat="44.53638218787964" lon="10.233250483928698"><ele>522.6666666666666</ele><time>2026-04-04T08:03:07Z</time></trkpt><trkpt lat="44.536211689194" lon="10.233151782417055"><ele>521.3333333333334</ele><time>2026-04-04T08:03:08Z</time></trkpt><trkpt lat="44.53603068638629" lon="10.233002312874415"><ele>520.0</ele><time>2026-04-04T08:03:09Z</time></trkpt><trkpt lat="44.535836108195575" lon="10.232837368215215"><ele>525.0</ele><time>2026-04-04T08:03:10Z</time></trkpt><trkpt lat="44.535663182747" lon="10.23266166127606"><ele>530.0</ele><time>2026-04-04T08:03:11Z</time></trkpt><trkpt lat="44.535516411619675" lon="10.232443601273935"><ele>535.0</ele><time>2026-04-04T08:03:12Z</time></trkpt><trkpt lat="44.53536237758265" lon="10.232197042585291"><ele>535.0</ele><time>2026-04-04T08:03:13Z</time></trkpt><trkpt lat="44.53521790239029" lon="10.231940582579952"><ele>535.0</ele><time>2026-04-04T08:03:14Z</time></trkpt><trkpt lat="44.535065137586095" lon="10.23171097226291"><ele>543.0</ele><time>2026-04-04T08:03:15Z</time></trkpt><trkpt lat="44.534919715492585" lon="10.231470677901575"><ele>551.0</ele><time>2026-04-04T08:03:16Z</time></trkpt><trkpt lat="44.5347556712368" lon="10.231234321199857"><ele>551.0</ele><time>2026-04-04T08:03:17Z</time></trkpt><trkpt lat="44.534579321951554" lon="10.231007164241351"><ele>551.0</ele><time>2026-04-04T08:03:18Z</time></trkpt><trkpt lat="44.534382501250356" lon="10.230769081086207"><ele>553.0</ele><time>2026-04-04T08:03:19Z</time></trkpt><trkpt lat="44.53417268388319" lon="10.230550890363258"><ele>555.0</ele><time>2026-04-04T08:03:20Z</time></trkpt><trkpt lat="44.53394990055182" lon="10.23036504701131"><ele>552.5</ele><time>2026-04-04T08:03:21Z</time></trkpt><trkpt lat="44.5337201684373" lon="10.230192105410211"><ele>550.0</ele><time>2026-04-04T08:03:22Z</time></trkpt><trkpt lat="44.53349889457126" lon="10.23003286833745"><ele>550.0</ele><time>2026-04-04T08:03:23Z</time></trkpt><trkpt lat="44.53330378676209" lon="10.229892880635077"><ele>550.0</ele><time>2026-04-04T08:03:24Z</time></trkpt><trkpt lat="44.5331141557363" lon="10.229755333239043"><ele>550.0</ele><time>2026-04-04T08:03:25Z</time></trkpt><trkpt lat="44.53292971701778" lon="10.229626481675357"><ele>553.6666666666667</ele><time>2026-04-04T08:03:26Z</time></trkpt><trkpt lat="44.53274410334162" lon="10.229495438399766"><ele>557.3333333333334</ele><time>2026-04-04T08:03:27Z</time></trkpt><trkpt lat="44.53256523799541" lon="10.229308977091508"><ele>561.0</ele><time>2026-04-04T08:03:28Z</time></trkpt><trkpt lat="44.53238025395337" lon="10.229134425740602"><ele>561.0</ele><time>2026-04-04T08:03:29Z</time></trkpt><trkpt lat="44.53221793693668" lon="10.22897740846358"><ele>561.0</ele><time>2026-04-04T08:03:30Z</time></trkpt><trkpt lat="44.532068251914836" lon="10.22887684063159"><ele>561.0</ele><time>2026-04-04T08:03:31Z</time></trkpt><trkpt lat="44.53191967555138" lon="10.22879182793314"><ele>564.6666666666666</ele><time>2026-04-04T08:03:32Z</time></trkpt><trkpt lat="44.531731990508646" lon="10.228772103725122"><ele>568.3333333333333</ele><time>2026-04-04T08:03:33Z</time></trkpt><trkpt lat="44.531506093389304" lon="10.228787258827664"><ele>572.0</ele><time>2026-04-04T08:03:34Z</time></trkpt><trkpt lat="44.53127492193563" lon="10.228814626546013"><ele>569.0</ele><time>2026-04-04T08:03:35Z</time></trkpt><trkpt lat="44.531039418251" lon="10.22889327985987"><ele>566.0</ele><time>2026-04-04T08:03:36Z</time></trkpt><trkpt lat="44.53083631343321" lon="10.228738794398229"><ele>566.0</ele><time>2026-04-04T08:03:37Z</time></trkpt><trkpt lat="44.530653517068664" lon="10.22872906233027"><ele>566.0</ele><time>2026-04-04T08:03:38Z</time></trkpt><trkpt lat="44.530463551413455" lon="10.228778065732945"><ele>566.0</ele><time>2026-04-04T08:03:39Z</time></trkpt><trkpt lat="44.53027795199635" lon="10.228918331665433"><ele>561.0</ele><time>2026-04-04T08:03:40Z</time></trkpt><trkpt lat="44.53010447272021" lon="10.229076619458212"><ele>556.0</ele><time>2026-04-04T08:03:41Z</time></trkpt><trkpt lat="44.52995626392703" lon="10.229188683434932"><ele>551.0</ele><time>2026-04-04T08:03:42Z</time></trkpt><trkpt lat="44.52983592879947" lon="10.229231274970857"><ele>551.0</ele><time>2026-04-04T08:03:43Z</time></trkpt><trkpt lat="44.52972562691716" lon="10.229244309372623"><ele>551.0</ele><time>2026-04-04T08:03:44Z</time></trkpt><trkpt lat="44.52960668444351" lon="10.22916951907547"><ele>551.0</ele><time>2026-04-04T08:03:45Z</time></trkpt><trkpt lat="44.52945690500908" lon="10.229025738152963"><ele>551.0</ele><time>2026-04-04T08:03:46Z</time></trkpt><trkpt lat="44.52932669841525" lon="10.2287951697793"><ele>552.0</ele><time>2026-04-04T08:03:47Z</time></trkpt><trkpt lat="44.529181749911" lon="10.228568991825881"><ele>553.0</ele><time>2026-04-04T08:03:48Z</time></trkpt><trkpt lat="44.52904245501046" lon="10.22834506374346"><ele>554.0</ele><time>2026-04-04T08:03:49Z</time></trkpt><trkpt lat="44.52886732846323" lon="10.22817420376753"><ele>552.3333333333333</ele><time>2026-04-04T08:03:50Z</time></trkpt><trkpt lat="44.52869653046935" lon="10.228013792256538"><ele>550.6666666666666</ele><time>2026-04-04T08:03:51Z</time></trkpt><trkpt lat="44.52859747765005" lon="10.22784080229447"><ele>549.0</ele><time>2026-04-04T08:03:52Z</time></trkpt><trkpt lat="44.528535024239225" lon="10.227636560832533"><ele>549.0</ele><time>2026-04-04T08:03:53Z</time></trkpt><trkpt lat="44.52847311982793" lon="10.227356792493017"><ele>549.0</ele><time>2026-04-04T08:03:54Z</time></trkpt><trkpt lat="44.528418946168806" lon="10.227036518749197"><ele>549.0</ele><time>2026-04-04T08:03:55Z</time></trkpt><trkpt lat="44.52838197693257" lon="10.226758649871542"><ele>550.3333333333334</ele><time>2026-04-04T08:03:56Z</time></trkpt><trkpt lat="44.52831664194589" lon="10.226513757742005"><ele>551.6666666666667</ele><time>2026-04-04T08:03:57Z</time></trkpt><trkpt lat="44.52818348283424" lon="10.22626007012735"><ele>553.0</ele><time>2026-04-04T08:03:58Z</time></trkpt><trkpt lat="44.5280152729257" lon="10.225961406106297"><ele>550.5</ele><time>2026-04-04T08:03:59Z</time></trkpt><trkpt lat="44.52785179080709" lon="10.225678565800948"><ele>548.0</ele><time>2026-04-04T08:04:00Z</time></trkpt><trkpt lat="44.527678880795655" lon="10.22543864984083"><ele>551.3333333333333</ele><time>2026-04-04T08:04:01Z</time></trkpt><trkpt lat="44.527514779403454" lon="10.225279464633287"><ele>554.6666666666666</ele><time>2026-04-04T08:04:02Z</time></trkpt><trkpt lat="44.52743850780288" lon="10.225120975936859"><ele>558.0</ele><time>2026-04-04T08:04:03Z</time></trkpt><trkpt lat="44.52738632847577" lon="10.224892021935835"><ele>560.0</ele><time>2026-04-04T08:04:04Z</time></trkpt><trkpt lat="44.52733692907678" lon="10.224592649475369"><ele>562.0</ele><time>2026-04-04T08:04:05Z</time></trkpt><trkpt lat="44.527331353251085" lon="10.224340982059479"><ele>564.0</ele><time>2026-04-04T08:04:06Z</time></trkpt><trkpt lat="44.527266629756774" lon="10.22413751079604"><ele>564.0</ele><time>2026-04-04T08:04:07Z</time></trkpt><trkpt lat="44.52714738819958" lon="10.223986757576524"><ele>564.0</ele><time>2026-04-04T08:04:08Z</time></trkpt><trkpt lat="44.52700789712132" lon="10.22389684398076"><ele>564.0</ele><time>2026-04-04T08:04:09Z</time></trkpt><trkpt lat="44.52684722764898" lon="10.223809659635485"><ele>563.0</ele><time>2026-04-04T08:04:10Z</time></trkpt><trkpt lat="44.52670406677063" lon="10.223686254289051"><ele>562.0</ele><time>2026-04-04T08:04:11Z</time></trkpt><trkpt lat="44.52660596906291" lon="10.223533633951178"><ele>561.0</ele><time>2026-04-04T08:04:12Z</time></trkpt><trkpt lat="44.526568106360315" lon="10.223370254383326"><ele>560.0</ele><time>2026-04-04T08:04:13Z</time></trkpt><trkpt lat="44.52657285455885" lon="10.223215388527095"><ele>561.0</ele><time>2026-04-04T08:04:14Z</time></trkpt><trkpt lat="44.5265938382831" lon="10.223059061622301"><ele>562.0</ele><time>2026-04-04T08:04:15Z</time></trkpt><trkpt lat="44.52659595896097" lon="10.222888286530235"><ele>563.0</ele><time>2026-04-04T08:04:16Z</time></trkpt><trkpt lat="44.52658277112913" lon="10.222727417136419"><ele>564.0</ele><time>2026-04-04T08:04:17Z</time></trkpt><trkpt lat="44.52656030514063" lon="10.222589298698091"><ele>564.0</ele><time>2026-04-04T08:04:18Z</time></trkpt><trkpt lat="44.52654788941241" lon="10.22246852649696"><ele>564.0</ele><time>2026-04-04T08:04:19Z</time></trkpt><trkpt lat="44.52651741610407" lon="10.222362757721402"><ele>564.0</ele><time>2026-04-04T08:04:20Z</time></trkpt><trkpt lat="44.526477605678075" lon="10.222260088666308"><ele>564.0</ele><time>2026-04-04T08:04:21Z</time></trkpt><trkpt lat="44.52643438372827" lon="10.222168737228426"><ele>564.0</ele><time>2026-04-04T08:04:22Z</time></trkpt><trkpt lat="44.526385004031276" lon="10.222080617612978"><ele>564.0</ele><time>2026-04-04T08:04:23Z</time></trkpt><trkpt lat="44.52632501997583" lon="10.221977599547376"><ele>564.2</ele><time>2026-04-04T08:04:24Z</time></trkpt><trkpt lat="44.52626161489822" lon="10.221867859256152"><ele>564.4</ele><time>2026-04-04T08:04:25Z</time></trkpt><trkpt lat="44.526198935588546" lon="10.22176916431798"><ele>564.6</ele><time>2026-04-04T08:04:26Z</time></trkpt><trkpt lat="44.5261341191079" lon="10.221696510627833"><ele>564.8</ele><time>2026-04-04T08:04:27Z</time></trkpt><trkpt lat="44.52608252303301" lon="10.221634337456363"><ele>565.0</ele><time>2026-04-04T08:04:28Z</time></trkpt><trkpt lat="44.525946227688486" lon="10.22163462624034"><ele>563.0</ele><time>2026-04-04T08:04:29Z</time></trkpt><trkpt lat="44.52582397406406" lon="10.221655165234736"><ele>561.0</ele><time>2026-04-04T08:04:30Z</time></trkpt><trkpt lat="44.525691219067795" lon="10.221635338730792"><ele>559.0</ele><time>2026-04-04T08:04:31Z</time></trkpt><trkpt lat="44.52556025407568" lon="10.221631736568341"><ele>557.0</ele><time>2026-04-04T08:04:32Z</time></trkpt><trkpt lat="44.52544571227969" lon="10.221620671591209"><ele>556.8000000000001</ele><time>2026-04-04T08:04:33Z</time></trkpt><trkpt lat="44.52534804621044" lon="10.221595579253986"><ele>556.6</ele><time>2026-04-04T08:04:34Z</time></trkpt><trkpt lat="44.52524235733114" lon="10.22155894754312"><ele>556.4000000000001</ele><time>2026-04-04T08:04:35Z</time></trkpt><trkpt lat="44.525140018122734" lon="10.221498263785195"><ele>556.2</ele><time>2026-04-04T08:04:36Z</time></trkpt><trkpt lat="44.525041187018566" lon="10.221409827704885"><ele>556.0</ele><time>2026-04-04T08:04:37Z</time></trkpt><trkpt lat="44.52493984064751" lon="10.22131926160585"><ele>557.5</ele><time>2026-04-04T08:04:38Z</time></trkpt><trkpt lat="44.52483747929337" lon="10.22126677601283"><ele>559.0</ele><time>2026-04-04T08:04:39Z</time></trkpt><trkpt lat="44.52473740896538" lon="10.221212768441383"><ele>560.5</ele><time>2026-04-04T08:04:40Z</time></trkpt><trkpt lat="44.524620270324526" lon="10.221161767425704"><ele>562.0</ele><time>2026-04-04T08:04:41Z</time></trkpt><trkpt lat="44.52449296316804" lon="10.221199226315996"><ele>561.25</ele><time>2026-04-04T08:04:42Z</time></trkpt><trkpt lat="44.52437116756486" lon="10.221221035521372"><ele>560.5</ele><time>2026-04-04T08:04:43Z</time></trkpt><trkpt lat="44.52425487998134" lon="10.221312757872335"><ele>559.75</ele><time>2026-04-04T08:04:44Z</time></trkpt><trkpt lat="44.524172234573484" lon="10.221441270801572"><ele>559.0</ele><time>2026-04-04T08:04:45Z</time></trkpt><trkpt lat="44.52409144319557" lon="10.22155993711078"><ele>559.0</ele><time>2026-04-04T08:04:46Z</time></trkpt><trkpt lat="44.524002568641" lon="10.221679996405074"><ele>559.0</ele><time>2026-04-04T08:04:47Z</time></trkpt><trkpt lat="44.5239198386155" lon="10.221798360344655"><ele>559.0</ele><time>2026-04-04T08:04:48Z</time></trkpt><trkpt lat="44.523819408178575" lon="10.221840817657107"><ele>559.0</ele><time>2026-04-04T08:04:49Z</time></trkpt><trkpt lat="44.52369733925383" lon="10.221870690455626"><ele>560.75</ele><time>2026-04-04T08:04:50Z</time></trkpt><trkpt lat="44.52356160916397" lon="10.221890676204463"><ele>562.5</ele><time>2026-04-04T08:04:51Z</time></trkpt><trkpt lat="44.5234353416793" lon="10.221892938636902"><ele>564.25</ele><time>2026-04-04T08:04:52Z</time></trkpt><trkpt lat="44.52331340034343" lon="10.22187753768604"><ele>566.0</ele><time>2026-04-04T08:04:53Z</time></trkpt><trkpt lat="44.523177019786566" lon="10.221843512386586"><ele>566.0</ele><time>2026-04-04T08:04:54Z</time></trkpt><trkpt lat="44.52302609165467" lon="10.221781228770661"><ele>566.0</ele><time>2026-04-04T08:04:55Z</time></trkpt><trkpt lat="44.52284865614757" lon="10.2216942921843"><ele>566.0</ele><time>2026-04-04T08:04:56Z</time></trkpt><trkpt lat="44.522649652593195" lon="10.221601450165998"><ele>566.0</ele><time>2026-04-04T08:04:57Z</time></trkpt><trkpt lat="44.52247646989612" lon="10.22153452576812"><ele>566.0</ele><time>2026-04-04T08:04:58Z</time></trkpt><trkpt lat="44.5222706821677" lon="10.221492505362065"><ele>566.0</ele><time>2026-04-04T08:04:59Z</time></trkpt><trkpt lat="44.5220283211816" lon="10.221586269671748"><ele>566.0</ele><time>2026-04-04T08:05:00Z</time></trkpt><trkpt lat="44.521803002582494" lon="10.221700109233469"><ele>566.0</ele><time>2026-04-04T08:05:01Z</time></trkpt><trkpt lat="44.52159211606195" lon="10.221787033090589"><ele>566.0</ele><time>2026-04-04T08:05:02Z</time></trkpt><trkpt lat="44.52142079495521" lon="10.22178357589615"><ele>566.0</ele><time>2026-04-04T08:05:03Z</time></trkpt><trkpt lat="44.521288348044095" lon="10.22175861995258"><ele>566.0</ele><time>2026-04-04T08:05:04Z</time></trkpt><trkpt lat="44.52117505705332" lon="10.221722600826135"><ele>566.0</ele><time>2026-04-04T08:05:05Z</time></trkpt><trkpt lat="44.52106039960938" lon="10.221678147244514"><ele>567.75</ele><time>2026-04-04T08:05:06Z</time></trkpt><trkpt lat="44.52094486701743" lon="10.221630193302103"><ele>569.5</ele><time>2026-04-04T08:05:07Z</time></trkpt><trkpt lat="44.520816038063586" lon="10.221575317599006"><ele>571.25</ele><time>2026-04-04T08:05:08Z</time></trkpt><trkpt lat="44.52067390588342" lon="10.22151590239263"><ele>573.0</ele><time>2026-04-04T08:05:09Z</time></trkpt><trkpt lat="44.520482496148055" lon="10.221441331746277"><ele>576.0</ele><time>2026-04-04T08:05:10Z</time></trkpt><trkpt lat="44.520251660916834" lon="10.221354951208816"><ele>579.0</ele><time>2026-04-04T08:05:11Z</time></trkpt><trkpt lat="44.51998949715599" lon="10.221281975468319"><ele>579.0</ele><time>2026-04-04T08:05:12Z</time></trkpt><trkpt lat="44.51974202929234" lon="10.221167786032538"><ele>579.0</ele><time>2026-04-04T08:05:13Z</time></trkpt><trkpt lat="44.519500051932276" lon="10.220956748120445"><ele>577.0</ele><time>2026-04-04T08:05:14Z</time></trkpt><trkpt lat="44.519246752594164" lon="10.220726029726281"><ele>575.0</ele><time>2026-04-04T08:05:15Z</time></trkpt><trkpt lat="44.51899921962381" lon="10.220514408643242"><ele>580.0</ele><time>2026-04-04T08:05:16Z</time></trkpt><trkpt lat="44.51875095783321" lon="10.220353897163763"><ele>585.0</ele><time>2026-04-04T08:05:17Z</time></trkpt><trkpt lat="44.51851943189485" lon="10.22018877429027"><ele>585.0</ele><time>2026-04-04T08:05:18Z</time></trkpt><trkpt lat="44.5182951366778" lon="10.220049084094988"><ele>585.0</ele><time>2026-04-04T08:05:19Z</time></trkpt><trkpt lat="44.518081689808625" lon="10.219911707011665"><ele>587.6666666666666</ele><time>2026-04-04T08:05:20Z</time></trkpt><trkpt lat="44.51788241474592" lon="10.219791103991374"><ele>590.3333333333333</ele><time>2026-04-04T08:05:21Z</time></trkpt><trkpt lat="44.517680169465635" lon="10.219688987760582"><ele>593.0</ele><time>2026-04-04T08:05:22Z</time></trkpt><trkpt lat="44.517483908786566" lon="10.219589707729014"><ele>593.0</ele><time>2026-04-04T08:05:23Z</time></trkpt><trkpt lat="44.517322035357836" lon="10.219469800599919"><ele>593.0</ele><time>2026-04-04T08:05:24Z</time></trkpt><trkpt lat="44.51717608280295" lon="10.219357516540619"><ele>593.0</ele><time>2026-04-04T08:05:25Z</time></trkpt><trkpt lat="44.51705771498001" lon="10.219201031523214"><ele>591.6666666666666</ele><time>2026-04-04T08:05:26Z</time></trkpt><trkpt lat="44.516912597396086" lon="10.21901859360448"><ele>590.3333333333334</ele><time>2026-04-04T08:05:27Z</time></trkpt><trkpt lat="44.51676257390038" lon="10.218825859023086"><ele>589.0</ele><time>2026-04-04T08:05:28Z</time></trkpt><trkpt lat="44.51661520272653" lon="10.218657919508322"><ele>589.0</ele><time>2026-04-04T08:05:29Z</time></trkpt><trkpt lat="44.51649562821751" lon="10.218507042817727"><ele>589.0</ele><time>2026-04-04T08:05:30Z</time></trkpt><trkpt lat="44.51637764605476" lon="10.218401990368735"><ele>589.0</ele><time>2026-04-04T08:05:31Z</time></trkpt><trkpt lat="44.51622229196711" lon="10.218364620587618"><ele>589.3333333333334</ele><time>2026-04-04T08:05:32Z</time></trkpt><trkpt lat="44.516029684743216" lon="10.218427795726168"><ele>589.6666666666666</ele><time>2026-04-04T08:05:33Z</time></trkpt><trkpt lat="44.51581172999579" lon="10.218561661484108"><ele>590.0</ele><time>2026-04-04T08:05:34Z</time></trkpt><trkpt lat="44.51558317940773" lon="10.218675104053707"><ele>591.0</ele><time>2026-04-04T08:05:35Z</time></trkpt><trkpt lat="44.51535502215005" lon="10.218780184897264"><ele>592.0</ele><time>2026-04-04T08:05:36Z</time></trkpt><trkpt lat="44.515128406647776" lon="10.218880068536587"><ele>589.0</ele><time>2026-04-04T08:05:37Z</time></trkpt><trkpt lat="44.5149168947495" lon="10.218985180864575"><ele>586.0</ele><time>2026-04-04T08:05:38Z</time></trkpt><trkpt lat="44.51473118531938" lon="10.219091509900053"><ele>583.0</ele><time>2026-04-04T08:05:39Z</time></trkpt><trkpt lat="44.5145695285072" lon="10.219219661011747"><ele>582.75</ele><time>2026-04-04T08:05:40Z</time></trkpt><trkpt lat="44.51442113298068" lon="10.219353146215493"><ele>582.5</ele><time>2026-04-04T08:05:41Z</time></trkpt><trkpt lat="44.51429623966587" lon="10.219377788003392"><ele>582.25</ele><time>2026-04-04T08:05:42Z</time></trkpt><trkpt lat="44.51420809171798" lon="10.219343637448274"><ele>582.0</ele><time>2026-04-04T08:05:43Z</time></trkpt><trkpt lat="44.51409338716584" lon="10.219293678709372"><ele>582.0</ele><time>2026-04-04T08:05:44Z</time></trkpt><trkpt lat="44.51390451600982" lon="10.219217280183463"><ele>582.0</ele><time>2026-04-04T08:05:45Z</time></trkpt><trkpt lat="44.51371236441685" lon="10.219134140701216"><ele>582.0</ele><time>2026-04-04T08:05:46Z</time></trkpt><trkpt lat="44.51353636116061" lon="10.219040710275188"><ele>580.75</ele><time>2026-04-04T08:05:47Z</time></trkpt><trkpt lat="44.51340497132882" lon="10.21894617883169"><ele>579.5</ele><time>2026-04-04T08:05:48Z</time></trkpt><trkpt lat="44.51331481228614" lon="10.218835073868824"><ele>578.25</ele><time>2026-04-04T08:05:49Z</time></trkpt><trkpt lat="44.51327848380723" lon="10.218629781868344"><ele>577.0</ele><time>2026-04-04T08:05:50Z</time></trkpt><trkpt lat="44.5132102222606" lon="10.218353187896293"><ele>576.5</ele><time>2026-04-04T08:05:51Z</time></trkpt><trkpt lat="44.51311683490104" lon="10.218035314861407"><ele>576.0</ele><time>2026-04-04T08:05:52Z</time></trkpt><trkpt lat="44.51298689513687" lon="10.217775416958295"><ele>575.3333333333334</ele><time>2026-04-04T08:05:53Z</time></trkpt><trkpt lat="44.512847420534484" lon="10.217554027028319"><ele>574.6666666666667</ele><time>2026-04-04T08:05:54Z</time></trkpt><trkpt lat="44.51268706984815" lon="10.217377130350792"><ele>574.0</ele><time>2026-04-04T08:05:55Z</time></trkpt><trkpt lat="44.512504690936204" lon="10.217251330662565"><ele>574.0</ele><time>2026-04-04T08:05:56Z</time></trkpt><trkpt lat="44.512328484122484" lon="10.217161443189836"><ele>574.0</ele><time>2026-04-04T08:05:57Z</time></trkpt><trkpt lat="44.51221011727713" lon="10.216970836769383"><ele>574.0</ele><time>2026-04-04T08:05:58Z</time></trkpt><trkpt lat="44.512056539946364" lon="10.21675473863485"><ele>570.5</ele><time>2026-04-04T08:05:59Z</time></trkpt><trkpt lat="44.51191955499479" lon="10.21649618790641"><ele>567.0</ele><time>2026-04-04T08:06:00Z</time></trkpt><trkpt lat="44.511768924613314" lon="10.216246373705024"><ele>567.0</ele><time>2026-04-04T08:06:01Z</time></trkpt><trkpt lat="44.51162453194849" lon="10.216026529296746"><ele>567.0</ele><time>2026-04-04T08:06:02Z</time></trkpt><trkpt lat="44.511480326245206" lon="10.215840488657363"><ele>567.0</ele><time>2026-04-04T08:06:03Z</time></trkpt><trkpt lat="44.51132690280865" lon="10.215683343739224"><ele>566.3333333333334</ele><time>2026-04-04T08:06:04Z</time></trkpt><trkpt lat="44.51116457938574" lon="10.21554259084872"><ele>565.6666666666667</ele><time>2026-04-04T08:06:05Z</time></trkpt><trkpt lat="44.51100253429215" lon="10.21544555843629"><ele>565.0</ele><time>2026-04-04T08:06:06Z</time></trkpt><trkpt lat="44.51082932372037" lon="10.215410539057903"><ele>565.0</ele><time>2026-04-04T08:06:07Z</time></trkpt><trkpt lat="44.51065248964237" lon="10.215447647886121"><ele>565.0</ele><time>2026-04-04T08:06:08Z</time></trkpt><trkpt lat="44.510470503812016" lon="10.215561295845877"><ele>565.0</ele><time>2026-04-04T08:06:09Z</time></trkpt><trkpt lat="44.51027449584813" lon="10.215644562905055"><ele>562.3333333333334</ele><time>2026-04-04T08:06:10Z</time></trkpt><trkpt lat="44.510100234234415" lon="10.215719235656515"><ele>559.6666666666666</ele><time>2026-04-04T08:06:11Z</time></trkpt><trkpt lat="44.509937230595256" lon="10.215743617291377"><ele>557.0</ele><time>2026-04-04T08:06:12Z</time></trkpt><trkpt lat="44.50977010938714" lon="10.215717432599531"><ele>557.3333333333333</ele><time>2026-04-04T08:06:13Z</time></trkpt><trkpt lat="44.5095749450902" lon="10.215628580199372"><ele>557.6666666666666</ele><time>2026-04-04T08:06:14Z</time></trkpt><trkpt lat="44.50939088530197" lon="10.215509290860329"><ele>558.0</ele><time>2026-04-04T08:06:15Z</time></trkpt><trkpt lat="44.509214619637454" lon="10.215417189411978"><ele>558.0</ele><time>2026-04-04T08:06:16Z</time></trkpt><trkpt lat="44.50904751121622" lon="10.215350662342182"><ele>558.0</ele><time>2026-04-04T08:06:17Z</time></trkpt><trkpt lat="44.508877170624665" lon="10.215327976162666"><ele>558.0</ele><time>2026-04-04T08:06:18Z</time></trkpt><trkpt lat="44.50870390832828" lon="10.215310418410906"><ele>556.0</ele><time>2026-04-04T08:06:19Z</time></trkpt><trkpt lat="44.508530386337085" lon="10.21529424786315"><ele>554.0</ele><time>2026-04-04T08:06:20Z</time></trkpt><trkpt lat="44.50836714093114" lon="10.215270114950766"><ele>552.0</ele><time>2026-04-04T08:06:21Z</time></trkpt><trkpt lat="44.50821089702812" lon="10.215249049026058"><ele>552.0</ele><time>2026-04-04T08:06:22Z</time></trkpt><trkpt lat="44.50806575051995" lon="10.215232212586473"><ele>552.0</ele><time>2026-04-04T08:06:23Z</time></trkpt><trkpt lat="44.50790416493545" lon="10.215179785077414"><ele>552.0</ele><time>2026-04-04T08:06:24Z</time></trkpt><trkpt lat="44.50774310596113" lon="10.215113372919497"><ele>549.3333333333334</ele><time>2026-04-04T08:06:25Z</time></trkpt><trkpt lat="44.50758395736328" lon="10.2149762394606"><ele>546.6666666666667</ele><time>2026-04-04T08:06:26Z</time></trkpt><trkpt lat="44.5074396072243" lon="10.214751004947269"><ele>544.0</ele><time>2026-04-04T08:06:27Z</time></trkpt><trkpt lat="44.507298778212764" lon="10.214471980579644"><ele>544.0</ele><time>2026-04-04T08:06:28Z</time></trkpt><trkpt lat="44.50715676403442" lon="10.21421534361975"><ele>544.0</ele><time>2026-04-04T08:06:29Z</time></trkpt><trkpt lat="44.50705498124803" lon="10.214015385786437"><ele>544.0</ele><time>2026-04-04T08:06:30Z</time></trkpt><trkpt lat="44.50685773619835" lon="10.213628338888663"><ele>545.0</ele><time>2026-04-04T08:06:31Z</time></trkpt><trkpt lat="44.50670658881533" lon="10.213318810259388"><ele>546.0</ele><time>2026-04-04T08:06:32Z</time></trkpt><trkpt lat="44.50653660134968" lon="10.212976902468315"><ele>546.0</ele><time>2026-04-04T08:06:33Z</time></trkpt><trkpt lat="44.50636600883005" lon="10.212623415352548"><ele>546.0</ele><time>2026-04-04T08:06:34Z</time></trkpt><trkpt lat="44.50620023426368" lon="10.212298189365637"><ele>549.5</ele><time>2026-04-04T08:06:35Z</time></trkpt><trkpt lat="44.506053431964816" lon="10.21201654833347"><ele>553.0</ele><time>2026-04-04T08:06:36Z</time></trkpt><trkpt lat="44.5059125471646" lon="10.211762709708841"><ele>553.0</ele><time>2026-04-04T08:06:37Z</time></trkpt><trkpt lat="44.50578394962867" lon="10.211541620739615"><ele>553.0</ele><time>2026-04-04T08:06:38Z</time></trkpt><trkpt lat="44.50568299719153" lon="10.211375865836505"><ele>553.0</ele><time>2026-04-04T08:06:39Z</time></trkpt><trkpt lat="44.505600011273174" lon="10.211262313555899"><ele>552.25</ele><time>2026-04-04T08:06:40Z</time></trkpt><trkpt lat="44.505507331335835" lon="10.211188874199102"><ele>551.5</ele><time>2026-04-04T08:06:41Z</time></trkpt><trkpt lat="44.505401057547665" lon="10.211173627201424"><ele>550.75</ele><time>2026-04-04T08:06:42Z</time></trkpt><trkpt lat="44.50528941840198" lon="10.21124099885064"><ele>550.0</ele><time>2026-04-04T08:06:43Z</time></trkpt><trkpt lat="44.50519265517533" lon="10.211393493890743"><ele>555.6666666666667</ele><time>2026-04-04T08:06:44Z</time></trkpt><trkpt lat="44.50512539475897" lon="10.211631302739994"><ele>561.3333333333334</ele><time>2026-04-04T08:06:45Z</time></trkpt><trkpt lat="44.505077012995365" lon="10.211912217986237"><ele>567.0</ele><time>2026-04-04T08:06:46Z</time></trkpt><trkpt lat="44.50503230671837" lon="10.21220737656827"><ele>569.0</ele><time>2026-04-04T08:06:47Z</time></trkpt><trkpt lat="44.505008189405835" lon="10.212519765174422"><ele>571.0</ele><time>2026-04-04T08:06:48Z</time></trkpt><trkpt lat="44.50499805780056" lon="10.212845043388597"><ele>572.3333333333334</ele><time>2026-04-04T08:06:49Z</time></trkpt><trkpt lat="44.505000126338075" lon="10.213164930461053"><ele>573.6666666666666</ele><time>2026-04-04T08:06:50Z</time></trkpt><trkpt lat="44.505003883558125" lon="10.213437410936146"><ele>575.0</ele><time>2026-04-04T08:06:51Z</time></trkpt><trkpt lat="44.50501908657132" lon="10.21367169087599"><ele>575.0</ele><time>2026-04-04T08:06:52Z</time></trkpt><trkpt lat="44.50506476912986" lon="10.213887282689633"><ele>575.0</ele><time>2026-04-04T08:06:53Z</time></trkpt><trkpt lat="44.50507746675962" lon="10.214070527327939"><ele>575.0</ele><time>2026-04-04T08:06:54Z</time></trkpt><trkpt lat="44.50503303551927" lon="10.214196524178922"><ele>575.0</ele><time>2026-04-04T08:06:55Z</time></trkpt><trkpt lat="44.504935584188935" lon="10.2143149540489"><ele>575.6666666666666</ele><time>2026-04-04T08:06:56Z</time></trkpt><trkpt lat="44.50478820453947" lon="10.214449805395585"><ele>576.3333333333334</ele><time>2026-04-04T08:06:57Z</time></trkpt><trkpt lat="44.504622890008925" lon="10.21461812863356"><ele>577.0</ele><time>2026-04-04T08:06:58Z</time></trkpt><trkpt lat="44.50444241983827" lon="10.214741878133012"><ele>580.0</ele><time>2026-04-04T08:06:59Z</time></trkpt><trkpt lat="44.504232985583236" lon="10.214862064239542"><ele>583.0</ele><time>2026-04-04T08:07:00Z</time></trkpt><trkpt lat="44.50405780626157" lon="10.2149919669278"><ele>586.0</ele><time>2026-04-04T08:07:01Z</time></trkpt><trkpt lat="44.503929386507" lon="10.215139673068418"><ele>586.0</ele><time>2026-04-04T08:07:02Z</time></trkpt><trkpt lat="44.503826871175356" lon="10.215342683887904"><ele>586.0</ele><time>2026-04-04T08:07:03Z</time></trkpt><trkpt lat="44.503750234085494" lon="10.215619485251189"><ele>586.0</ele><time>2026-04-04T08:07:04Z</time></trkpt><trkpt lat="44.50362690681343" lon="10.215863225807645"><ele>592.0</ele><time>2026-04-04T08:07:05Z</time></trkpt><trkpt lat="44.50346053021593" lon="10.216080459458677"><ele>598.0</ele><time>2026-04-04T08:07:06Z</time></trkpt><trkpt lat="44.50328533586133" lon="10.21628868903089"><ele>598.0</ele><time>2026-04-04T08:07:07Z</time></trkpt><trkpt lat="44.50313818231948" lon="10.216471812529731"><ele>598.0</ele><time>2026-04-04T08:07:08Z</time></trkpt><trkpt lat="44.503029107353164" lon="10.216649089587234"><ele>598.0</ele><time>2026-04-04T08:07:09Z</time></trkpt><trkpt lat="44.50295361989005" lon="10.216818909446282"><ele>598.6666666666667</ele><time>2026-04-04T08:07:10Z</time></trkpt><trkpt lat="44.50293151103051" lon="10.217048411811112"><ele>599.3333333333334</ele><time>2026-04-04T08:07:11Z</time></trkpt><trkpt lat="44.5029590482457" lon="10.217342298273227"><ele>600.0</ele><time>2026-04-04T08:07:12Z</time></trkpt><trkpt lat="44.50300253318637" lon="10.217671593653932"><ele>601.5</ele><time>2026-04-04T08:07:13Z</time></trkpt><trkpt lat="44.503027576061754" lon="10.218032624176688"><ele>603.0</ele><time>2026-04-04T08:07:14Z</time></trkpt><trkpt lat="44.50304892613805" lon="10.218396941922524"><ele>603.5</ele><time>2026-04-04T08:07:15Z</time></trkpt><trkpt lat="44.50306761397772" lon="10.218880590786489"><ele>604.0</ele><time>2026-04-04T08:07:16Z</time></trkpt><trkpt lat="44.50298691866545" lon="10.219158940221627"><ele>610.6666666666667</ele><time>2026-04-04T08:07:18Z</time></trkpt><trkpt lat="44.502886466586524" lon="10.21937388022269"><ele>617.3333333333334</ele><time>2026-04-04T08:07:19Z</time></trkpt><trkpt lat="44.50278304840523" lon="10.219614410500878"><ele>624.0</ele><time>2026-04-04T08:07:20Z</time></trkpt><trkpt lat="44.502729082863944" lon="10.219824118450019"><ele>624.0</ele><time>2026-04-04T08:07:21Z</time></trkpt><trkpt lat="44.50268964391123" lon="10.220077400445106"><ele>624.0</ele><time>2026-04-04T08:07:22Z</time></trkpt><trkpt lat="44.50267722442123" lon="10.220391118514629"><ele>624.0</ele><time>2026-04-04T08:07:23Z</time></trkpt><trkpt lat="44.50267118091963" lon="10.220667015181961"><ele>625.6666666666666</ele><time>2026-04-04T08:07:23.999Z</time></trkpt><trkpt lat="44.50270434444651" lon="10.22088018248544"><ele>627.3333333333333</ele><time>2026-04-04T08:07:24.999Z</time></trkpt><trkpt lat="44.50281236256747" lon="10.221052638943476"><ele>629.0</ele><time>2026-04-04T08:07:25.999Z</time></trkpt><trkpt lat="44.50295838260984" lon="10.221251560775931"><ele>629.0</ele><time>2026-04-04T08:07:26.999Z</time></trkpt><trkpt lat="44.503071895126816" lon="10.221423776698003"><ele>629.0</ele><time>2026-04-04T08:07:27.999Z</time></trkpt><trkpt lat="44.5031587122631" lon="10.221607522014796"><ele>629.0</ele><time>2026-04-04T08:07:28.999Z</time></trkpt><trkpt lat="44.50320691692948" lon="10.221836691183587"><ele>629.0</ele><time>2026-04-04T08:07:30Z</time></trkpt><trkpt lat="44.50323943388066" lon="10.22206482439415"><ele>629.0</ele><time>2026-04-04T08:07:31Z</time></trkpt><trkpt lat="44.50324411615207" lon="10.222214659144552"><ele>629.0</ele><time>2026-04-04T08:07:32Z</time></trkpt><trkpt lat="44.503190439348444" lon="10.22230962290918"><ele>629.0</ele><time>2026-04-04T08:07:33Z</time></trkpt><trkpt lat="44.503107578710335" lon="10.222384178931218"><ele>630.6666666666666</ele><time>2026-04-04T08:07:34Z</time></trkpt><trkpt lat="44.502971962202245" lon="10.222346915997516"><ele>632.3333333333334</ele><time>2026-04-04T08:07:35Z</time></trkpt><trkpt lat="44.50279007444162" lon="10.222368867113481"><ele>634.0</ele><time>2026-04-04T08:07:36Z</time></trkpt><trkpt lat="44.5025953924438" lon="10.22238608864059"><ele>635.6666666666667</ele><time>2026-04-04T08:07:37Z</time></trkpt><trkpt lat="44.50240304610722" lon="10.222377853674624"><ele>637.3333333333334</ele><time>2026-04-04T08:07:38Z</time></trkpt><trkpt lat="44.50222414729764" lon="10.22234314409679"><ele>639.0</ele><time>2026-04-04T08:07:39Z</time></trkpt><trkpt lat="44.50203076927571" lon="10.222342981772067"><ele>641.6666666666666</ele><time>2026-04-04T08:07:40Z</time></trkpt><trkpt lat="44.50183293217088" lon="10.222367476283175"><ele>644.3333333333333</ele><time>2026-04-04T08:07:41Z</time></trkpt><trkpt lat="44.50163373781723" lon="10.222469708484937"><ele>647.0</ele><time>2026-04-04T08:07:42Z</time></trkpt><trkpt lat="44.501457869568725" lon="10.22250197679197"><ele>647.0</ele><time>2026-04-04T08:07:43Z</time></trkpt><trkpt lat="44.50130483404849" lon="10.222486916192329"><ele>647.0</ele><time>2026-04-04T08:07:44Z</time></trkpt><trkpt lat="44.501173528167946" lon="10.222320986625325"><ele>647.0</ele><time>2026-04-04T08:07:45Z</time></trkpt><trkpt lat="44.50099644957699" lon="10.222134927479704"><ele>651.3333333333333</ele><time>2026-04-04T08:07:46Z</time></trkpt><trkpt lat="44.50079693825888" lon="10.221974394327852"><ele>655.6666666666666</ele><time>2026-04-04T08:07:47Z</time></trkpt><trkpt lat="44.50061633776813" lon="10.221857925216685"><ele>660.0</ele><time>2026-04-04T08:07:48Z</time></trkpt><trkpt lat="44.50041767930987" lon="10.221816954134736"><ele>660.3333333333334</ele><time>2026-04-04T08:07:49Z</time></trkpt><trkpt lat="44.50021993845223" lon="10.221773281779003"><ele>660.6666666666667</ele><time>2026-04-04T08:07:50Z</time></trkpt><trkpt lat="44.50002096212391" lon="10.221734011780864"><ele>661.0</ele><time>2026-04-04T08:07:51Z</time></trkpt><trkpt lat="44.49980236872463" lon="10.221690870129715"><ele>661.0</ele><time>2026-04-04T08:07:52Z</time></trkpt><trkpt lat="44.49960001918854" lon="10.221650934394518"><ele>661.0</ele><time>2026-04-04T08:07:53Z</time></trkpt><trkpt lat="44.49942472658648" lon="10.22161633860789"><ele>661.0</ele><time>2026-04-04T08:07:54Z</time></trkpt><trkpt lat="44.49926009154052" lon="10.221601312478546"><ele>662.25</ele><time>2026-04-04T08:07:55Z</time></trkpt><trkpt lat="44.499129742509076" lon="10.221569921737224"><ele>663.5</ele><time>2026-04-04T08:07:56Z</time></trkpt><trkpt lat="44.4990164663178" lon="10.221619727258176"><ele>664.75</ele><time>2026-04-04T08:07:57Z</time></trkpt><trkpt lat="44.49892551571273" lon="10.221742007078193"><ele>666.0</ele><time>2026-04-04T08:07:58Z</time></trkpt><trkpt lat="44.49884787982178" lon="10.221964730697884"><ele>666.0</ele><time>2026-04-04T08:07:59Z</time></trkpt><trkpt lat="44.49876090166989" lon="10.222252875485198"><ele>666.0</ele><time>2026-04-04T08:08:00Z</time></trkpt><trkpt lat="44.49861075790392" lon="10.222482139042526"><ele>666.0</ele><time>2026-04-04T08:08:01Z</time></trkpt><trkpt lat="44.49844713663722" lon="10.222647767902645"><ele>667.3333333333334</ele><time>2026-04-04T08:08:02Z</time></trkpt><trkpt lat="44.498323423692845" lon="10.22281749330181"><ele>668.6666666666667</ele><time>2026-04-04T08:08:03Z</time></trkpt><trkpt lat="44.49821003223975" lon="10.223020508155045"><ele>670.0</ele><time>2026-04-04T08:08:04Z</time></trkpt><trkpt lat="44.498154175995715" lon="10.223296297742335"><ele>670.0</ele><time>2026-04-04T08:08:05Z</time></trkpt><trkpt lat="44.49813057751617" lon="10.223596880405577"><ele>670.0</ele><time>2026-04-04T08:08:06Z</time></trkpt><trkpt lat="44.49811446206556" lon="10.22386057400133"><ele>670.0</ele><time>2026-04-04T08:08:07Z</time></trkpt><trkpt lat="44.49804176260224" lon="10.224057712739482"><ele>669.6666666666667</ele><time>2026-04-04T08:08:08Z</time></trkpt><trkpt lat="44.49792914513469" lon="10.224237752297416"><ele>669.3333333333334</ele><time>2026-04-04T08:08:09Z</time></trkpt><trkpt lat="44.49778245150007" lon="10.224402583169772"><ele>669.0</ele><time>2026-04-04T08:08:10Z</time></trkpt><trkpt lat="44.49760296172189" lon="10.224511859566473"><ele>676.0</ele><time>2026-04-04T08:08:11Z</time></trkpt><trkpt lat="44.49739444638588" lon="10.22457187657043"><ele>683.0</ele><time>2026-04-04T08:08:12Z</time></trkpt><trkpt lat="44.497153667042696" lon="10.224609843182693"><ele>687.0</ele><time>2026-04-04T08:08:13Z</time></trkpt><trkpt lat="44.49692780534647" lon="10.224612095708828"><ele>691.0</ele><time>2026-04-04T08:08:14Z</time></trkpt><trkpt lat="44.49673363616723" lon="10.224575076267774"><ele>695.0</ele><time>2026-04-04T08:08:15Z</time></trkpt><trkpt lat="44.49657108218476" lon="10.224559672529942"><ele>695.0</ele><time>2026-04-04T08:08:16Z</time></trkpt><trkpt lat="44.49645299208801" lon="10.224556806837692"><ele>695.0</ele><time>2026-04-04T08:08:17Z</time></trkpt><trkpt lat="44.49631453163586" lon="10.22462051546684"><ele>695.0</ele><time>2026-04-04T08:08:18Z</time></trkpt><trkpt lat="44.49617001986318" lon="10.224782626791445"><ele>695.0</ele><time>2026-04-04T08:08:19Z</time></trkpt><trkpt lat="44.49606663554944" lon="10.225024831981429"><ele>695.0</ele><time>2026-04-04T08:08:20Z</time></trkpt><trkpt lat="44.49597076896894" lon="10.22531197442835"><ele>695.0</ele><time>2026-04-04T08:08:21Z</time></trkpt><trkpt lat="44.49589133073396" lon="10.225608235592212"><ele>693.0</ele><time>2026-04-04T08:08:22Z</time></trkpt><trkpt lat="44.495846229386004" lon="10.22590208719839"><ele>691.0</ele><time>2026-04-04T08:08:23Z</time></trkpt><trkpt lat="44.49583259785441" lon="10.226206902565593"><ele>689.0</ele><time>2026-04-04T08:08:24Z</time></trkpt><trkpt lat="44.49582671856817" lon="10.226500234577626"><ele>689.0</ele><time>2026-04-04T08:08:25Z</time></trkpt><trkpt lat="44.49582147094975" lon="10.226769117996657"><ele>689.0</ele><time>2026-04-04T08:08:26Z</time></trkpt><trkpt lat="44.49585500922241" lon="10.227021475995082"><ele>689.0</ele><time>2026-04-04T08:08:27Z</time></trkpt><trkpt lat="44.49593078422085" lon="10.227278672812954"><ele>690.3333333333333</ele><time>2026-04-04T08:08:28Z</time></trkpt><trkpt lat="44.49600895121535" lon="10.227512673996578"><ele>691.6666666666666</ele><time>2026-04-04T08:08:29Z</time></trkpt><trkpt lat="44.4960883343826" lon="10.227725784602136"><ele>693.0</ele><time>2026-04-04T08:08:30Z</time></trkpt><trkpt lat="44.496201747829495" lon="10.227901757067558"><ele>691.3333333333334</ele><time>2026-04-04T08:08:31Z</time></trkpt><trkpt lat="44.49636903192314" lon="10.228050708260048"><ele>689.6666666666667</ele><time>2026-04-04T08:08:32Z</time></trkpt><trkpt lat="44.496515375858415" lon="10.228195127544758"><ele>688.0</ele><time>2026-04-04T08:08:33Z</time></trkpt><trkpt lat="44.496571911363525" lon="10.228366128512265"><ele>688.0</ele><time>2026-04-04T08:08:34Z</time></trkpt><trkpt lat="44.49658612548299" lon="10.228552587943742"><ele>688.0</ele><time>2026-04-04T08:08:35Z</time></trkpt><trkpt lat="44.49655649442772" lon="10.22879331436532"><ele>688.0</ele><time>2026-04-04T08:08:36Z</time></trkpt><trkpt lat="44.496498931284876" lon="10.229076034697961"><ele>687.5</ele><time>2026-04-04T08:08:37Z</time></trkpt><trkpt lat="44.496449542498944" lon="10.229372604323022"><ele>687.0</ele><time>2026-04-04T08:08:38Z</time></trkpt><trkpt lat="44.49637651002493" lon="10.229684535024226"><ele>686.3333333333334</ele><time>2026-04-04T08:08:39Z</time></trkpt><trkpt lat="44.496322734870766" lon="10.229982366640778"><ele>685.6666666666667</ele><time>2026-04-04T08:08:40Z</time></trkpt><trkpt lat="44.49627482328273" lon="10.230242361703935"><ele>685.0</ele><time>2026-04-04T08:08:41Z</time></trkpt><trkpt lat="44.496243521932364" lon="10.230482759861093"><ele>685.3333333333334</ele><time>2026-04-04T08:08:42Z</time></trkpt><trkpt lat="44.49623697518664" lon="10.230731735319655"><ele>685.6666666666666</ele><time>2026-04-04T08:08:43Z</time></trkpt><trkpt lat="44.49627156208772" lon="10.231031382386483"><ele>686.0</ele><time>2026-04-04T08:08:44Z</time></trkpt><trkpt lat="44.49632118394743" lon="10.231329473737654"><ele>688.3333333333333</ele><time>2026-04-04T08:08:45Z</time></trkpt><trkpt lat="44.49636670250245" lon="10.231589881142286"><ele>690.6666666666666</ele><time>2026-04-04T08:08:46Z</time></trkpt><trkpt lat="44.49640813201973" lon="10.231835702643247"><ele>693.0</ele><time>2026-04-04T08:08:47Z</time></trkpt><trkpt lat="44.49643028486375" lon="10.23204801218095"><ele>693.0</ele><time>2026-04-04T08:08:48Z</time></trkpt><trkpt lat="44.496403615156304" lon="10.23227072677502"><ele>693.0</ele><time>2026-04-04T08:08:49Z</time></trkpt><trkpt lat="44.49636472691564" lon="10.232584866966212"><ele>693.0</ele><time>2026-04-04T08:08:50Z</time></trkpt><trkpt lat="44.49635632856898" lon="10.232675619038039"><ele>693.25</ele><time>2026-04-04T08:08:51Z</time></trkpt><trkpt lat="44.496346674552186" lon="10.23286644850439"><ele>693.5</ele><time>2026-04-04T08:08:52Z</time></trkpt><trkpt lat="44.49634801702626" lon="10.233051518368448"><ele>693.75</ele><time>2026-04-04T08:08:53Z</time></trkpt><trkpt lat="44.4963889015429" lon="10.233212102382263"><ele>694.0</ele><time>2026-04-04T08:08:54Z</time></trkpt><trkpt lat="44.49645547520936" lon="10.233343355016704"><ele>694.5</ele><time>2026-04-04T08:08:55Z</time></trkpt><trkpt lat="44.496521819299744" lon="10.233477564099491"><ele>695.0</ele><time>2026-04-04T08:08:56Z</time></trkpt><trkpt lat="44.496592844351724" lon="10.233621991136301"><ele>695.5</ele><time>2026-04-04T08:08:57Z</time></trkpt><trkpt lat="44.49665128878992" lon="10.233785050981838"><ele>696.0</ele><time>2026-04-04T08:08:58Z</time></trkpt><trkpt lat="44.4966953701522" lon="10.233973079463347"><ele>697.75</ele><time>2026-04-04T08:08:59Z</time></trkpt><trkpt lat="44.49673204702262" lon="10.234160523532971"><ele>699.5</ele><time>2026-04-04T08:09:00Z</time></trkpt><trkpt lat="44.496737279398104" lon="10.234334392111089"><ele>701.25</ele><time>2026-04-04T08:09:01Z</time></trkpt><trkpt lat="44.49674001193405" lon="10.234495285736903"><ele>703.0</ele><time>2026-04-04T08:09:02Z</time></trkpt><trkpt lat="44.496713698046555" lon="10.234652754158274"><ele>703.25</ele><time>2026-04-04T08:09:03Z</time></trkpt><trkpt lat="44.49667459979724" lon="10.234829613358407"><ele>703.5</ele><time>2026-04-04T08:09:04Z</time></trkpt><trkpt lat="44.496634256283855" lon="10.23502160044866"><ele>703.75</ele><time>2026-04-04T08:09:05Z</time></trkpt><trkpt lat="44.496597744682646" lon="10.235195352229818"><ele>704.0</ele><time>2026-04-04T08:09:06Z</time></trkpt><trkpt lat="44.49657488833379" lon="10.235348707603041"><ele>704.0</ele><time>2026-04-04T08:09:07Z</time></trkpt><trkpt lat="44.49654281255637" lon="10.235492451400582"><ele>704.0</ele><time>2026-04-04T08:09:08Z</time></trkpt><trkpt lat="44.4965076890942" lon="10.235653277787671"><ele>704.0</ele><time>2026-04-04T08:09:09Z</time></trkpt><trkpt lat="44.49643260253879" lon="10.235776842625427"><ele>704.0</ele><time>2026-04-04T08:09:10Z</time></trkpt><trkpt lat="44.496347112065564" lon="10.23583923349971"><ele>704.0</ele><time>2026-04-04T08:09:11Z</time></trkpt><trkpt lat="44.49625124200676" lon="10.235892635018562"><ele>705.5</ele><time>2026-04-04T08:09:12Z</time></trkpt><trkpt lat="44.49613014580789" lon="10.235945874755144"><ele>707.0</ele><time>2026-04-04T08:09:13Z</time></trkpt><trkpt lat="44.49598772125208" lon="10.236008954052137"><ele>708.5</ele><time>2026-04-04T08:09:14Z</time></trkpt><trkpt lat="44.49585200127133" lon="10.236070696376345"><ele>710.0</ele><time>2026-04-04T08:09:15Z</time></trkpt><trkpt lat="44.49572572276074" lon="10.236133451817572"><ele>710.0</ele><time>2026-04-04T08:09:16Z</time></trkpt><trkpt lat="44.49562739858721" lon="10.236215628585725"><ele>710.0</ele><time>2026-04-04T08:09:17Z</time></trkpt><trkpt lat="44.49552890310751" lon="10.236294607317792"><ele>710.0</ele><time>2026-04-04T08:09:18Z</time></trkpt><trkpt lat="44.49544236017363" lon="10.236415584273002"><ele>710.0</ele><time>2026-04-04T08:09:19Z</time></trkpt><trkpt lat="44.49538254326935" lon="10.236566545828504"><ele>711.0</ele><time>2026-04-04T08:09:20Z</time></trkpt><trkpt lat="44.49532270959025" lon="10.23676017446888"><ele>712.0</ele><time>2026-04-04T08:09:21Z</time></trkpt><trkpt lat="44.49526324787495" lon="10.23694978468855"><ele>713.0</ele><time>2026-04-04T08:09:22Z</time></trkpt><trkpt lat="44.49520196870617" lon="10.237133030665845"><ele>714.0</ele><time>2026-04-04T08:09:23Z</time></trkpt><trkpt lat="44.49513946711524" lon="10.237310369316315"><ele>714.0</ele><time>2026-04-04T08:09:23.999Z</time></trkpt><trkpt lat="44.49508915088862" lon="10.237472425243599"><ele>714.0</ele><time>2026-04-04T08:09:24.999Z</time></trkpt><trkpt lat="44.49504146578557" lon="10.237630163353952"><ele>714.0</ele><time>2026-04-04T08:09:25.999Z</time></trkpt><trkpt lat="44.49500821909432" lon="10.237772817505235"><ele>714.0</ele><time>2026-04-04T08:09:26.999Z</time></trkpt><trkpt lat="44.494965879918475" lon="10.237908046041422"><ele>714.0</ele><time>2026-04-04T08:09:27.999Z</time></trkpt><trkpt lat="44.49488772497727" lon="10.238119984121521"><ele>714.0</ele><time>2026-04-04T08:09:28.999Z</time></trkpt><trkpt lat="44.494767827524996" lon="10.238313326386185"><ele>714.0</ele><time>2026-04-04T08:09:29.999Z</time></trkpt><trkpt lat="44.49479526358464" lon="10.238416558246842"><ele>714.0</ele><time>2026-04-04T08:09:30.999Z</time></trkpt><trkpt lat="44.49474941254435" lon="10.238570736386247"><ele>714.0</ele><time>2026-04-04T08:09:31.999Z</time></trkpt><trkpt lat="44.49470551805113" lon="10.238721265703854"><ele>714.0</ele><time>2026-04-04T08:09:32.999Z</time></trkpt><trkpt lat="44.49466436064612" lon="10.238866516714122"><ele>714.0</ele><time>2026-04-04T08:09:33.999Z</time></trkpt><trkpt lat="44.494627439680066" lon="10.238993496984008"><ele>714.0</ele><time>2026-04-04T08:09:34.999Z</time></trkpt><trkpt lat="44.49458362778477" lon="10.239079528690457"><ele>714.0</ele><time>2026-04-04T08:09:36Z</time></trkpt><trkpt lat="44.49455362105406" lon="10.239166676615932"><ele>714.0</ele><time>2026-04-04T08:09:37Z</time></trkpt><trkpt lat="44.4945307358167" lon="10.239281240745681"><ele>714.0</ele><time>2026-04-04T08:09:38Z</time></trkpt><trkpt lat="44.494466904408114" lon="10.239376038734198"><ele>714.0</ele><time>2026-04-04T08:09:39Z</time></trkpt><trkpt lat="44.494408371849055" lon="10.239484455511427"><ele>714.0</ele><time>2026-04-04T08:09:40Z</time></trkpt><trkpt lat="44.494352272976045" lon="10.239566296283382"><ele>714.0</ele><time>2026-04-04T08:09:41Z</time></trkpt><trkpt lat="44.4942963260985" lon="10.239613627382743"><ele>714.0</ele><time>2026-04-04T08:09:42Z</time></trkpt><trkpt lat="44.494237013513825" lon="10.239647274836534"><ele>714.0</ele><time>2026-04-04T08:09:43Z</time></trkpt><trkpt lat="44.49416084913962" lon="10.23966053955584"><ele>714.0</ele><time>2026-04-04T08:09:46Z</time></trkpt><trkpt lat="44.494079123332284" lon="10.239656475276"><ele>714.0</ele><time>2026-04-04T08:09:47Z</time></trkpt><trkpt lat="44.49395485446351" lon="10.239608347990723"><ele>714.0</ele><time>2026-04-04T08:09:48Z</time></trkpt><trkpt lat="44.49377443117732" lon="10.23952105327516"><ele>713.0</ele><time>2026-04-04T08:09:49Z</time></trkpt><trkpt lat="44.493600377586695" lon="10.239464576842563"><ele>712.0</ele><time>2026-04-04T08:09:50Z</time></trkpt><trkpt lat="44.49344374335838" lon="10.239390246369714"><ele>711.0</ele><time>2026-04-04T08:09:51Z</time></trkpt><trkpt lat="44.49327495025664" lon="10.239349525590685"><ele>711.0</ele><time>2026-04-04T08:09:52Z</time></trkpt><trkpt lat="44.49308770613527" lon="10.239377200049981"><ele>711.0</ele><time>2026-04-04T08:09:53Z</time></trkpt><trkpt lat="44.49292042044407" lon="10.239446159799536"><ele>711.0</ele><time>2026-04-04T08:09:54Z</time></trkpt><trkpt lat="44.49272969383024" lon="10.239432476578576"><ele>709.0</ele><time>2026-04-04T08:09:55Z</time></trkpt><trkpt lat="44.49256993669314" lon="10.239425947286112"><ele>707.0</ele><time>2026-04-04T08:09:56Z</time></trkpt><trkpt lat="44.49224024671041" lon="10.239546320851632"><ele>707.3333333333333</ele><time>2026-04-04T08:09:57Z</time></trkpt><trkpt lat="44.49203133564522" lon="10.2395721338392"><ele>707.6666666666666</ele><time>2026-04-04T08:09:58Z</time></trkpt><trkpt lat="44.4918413629773" lon="10.23958707314215"><ele>708.0</ele><time>2026-04-04T08:09:59Z</time></trkpt><trkpt lat="44.49166646341614" lon="10.239621995798823"><ele>708.0</ele><time>2026-04-04T08:10:00Z</time></trkpt><trkpt lat="44.49150217162285" lon="10.239709628008798"><ele>708.0</ele><time>2026-04-04T08:10:01Z</time></trkpt><trkpt lat="44.49134233880597" lon="10.239838583483438"><ele>708.0</ele><time>2026-04-04T08:10:02Z</time></trkpt><trkpt lat="44.491206071949605" lon="10.240002986934234"><ele>703.3333333333334</ele><time>2026-04-04T08:10:03Z</time></trkpt><trkpt lat="44.49108545162813" lon="10.240162615473178"><ele>698.6666666666667</ele><time>2026-04-04T08:10:04Z</time></trkpt><trkpt lat="44.49096947322312" lon="10.240236173229334"><ele>694.0</ele><time>2026-04-04T08:10:05Z</time></trkpt><trkpt lat="44.49080258692656" lon="10.240275685734236"><ele>694.0</ele><time>2026-04-04T08:10:06Z</time></trkpt><trkpt lat="44.49058996840683" lon="10.240284189990277"><ele>694.0</ele><time>2026-04-04T08:10:07Z</time></trkpt><trkpt lat="44.490408907021326" lon="10.240278741508371"><ele>694.0</ele><time>2026-04-04T08:10:08Z</time></trkpt><trkpt lat="44.490223113043406" lon="10.240239778435715"><ele>691.0</ele><time>2026-04-04T08:10:09Z</time></trkpt><trkpt lat="44.49004881657395" lon="10.240163270619853"><ele>688.0</ele><time>2026-04-04T08:10:10Z</time></trkpt><trkpt lat="44.48987863836921" lon="10.240100384764744"><ele>685.0</ele><time>2026-04-04T08:10:11Z</time></trkpt><trkpt lat="44.48969862363385" lon="10.240097037929884"><ele>684.3333333333334</ele><time>2026-04-04T08:10:12Z</time></trkpt><trkpt lat="44.48950256333282" lon="10.240154392080962"><ele>683.6666666666666</ele><time>2026-04-04T08:10:13Z</time></trkpt><trkpt lat="44.48930709533456" lon="10.240257896286263"><ele>683.0</ele><time>2026-04-04T08:10:14Z</time></trkpt><trkpt lat="44.48910831516902" lon="10.240351525451356"><ele>683.0</ele><time>2026-04-04T08:10:15Z</time></trkpt><trkpt lat="44.48891801486878" lon="10.240417081479052"><ele>683.0</ele><time>2026-04-04T08:10:16Z</time></trkpt><trkpt lat="44.48873956498573" lon="10.240474857764529"><ele>683.0</ele><time>2026-04-04T08:10:17Z</time></trkpt><trkpt lat="44.48856675879122" lon="10.240524599479613"><ele>683.0</ele><time>2026-04-04T08:10:18Z</time></trkpt><trkpt lat="44.488397882818035" lon="10.240536739039793"><ele>683.0</ele><time>2026-04-04T08:10:19Z</time></trkpt><trkpt lat="44.4882420404665" lon="10.240574158502243"><ele>683.0</ele><time>2026-04-04T08:10:20Z</time></trkpt><trkpt lat="44.48809065938127" lon="10.240600550060332"><ele>678.75</ele><time>2026-04-04T08:10:21Z</time></trkpt><trkpt lat="44.48794409306636" lon="10.24063690323328"><ele>674.5</ele><time>2026-04-04T08:10:22Z</time></trkpt><trkpt lat="44.487814057191045" lon="10.240636790423318"><ele>670.25</ele><time>2026-04-04T08:10:23Z</time></trkpt><trkpt lat="44.48771159240239" lon="10.240639571729275"><ele>666.0</ele><time>2026-04-04T08:10:24Z</time></trkpt><trkpt lat="44.48763413310082" lon="10.24064294052357"><ele>664.75</ele><time>2026-04-04T08:10:25Z</time></trkpt><trkpt lat="44.48754911705664" lon="10.240697830556298"><ele>663.5</ele><time>2026-04-04T08:10:27Z</time></trkpt><trkpt lat="44.4875542459863" lon="10.240892653095116"><ele>662.25</ele><time>2026-04-04T08:10:29Z</time></trkpt><trkpt lat="44.487634296827615" lon="10.240972126884216"><ele>661.0</ele><time>2026-04-04T08:10:30Z</time></trkpt><trkpt lat="44.48778953156943" lon="10.240935808263004"><ele>661.0</ele><time>2026-04-04T08:10:31Z</time></trkpt><trkpt lat="44.48789653744642" lon="10.240906009899122"><ele>661.0</ele><time>2026-04-04T08:10:32Z</time></trkpt><trkpt lat="44.48799315753318" lon="10.240891318528286"><ele>661.0</ele><time>2026-04-04T08:10:33Z</time></trkpt><trkpt lat="44.48810745412503" lon="10.240902805536678"><ele>661.0</ele><time>2026-04-04T08:10:34Z</time></trkpt><trkpt lat="44.488226390756644" lon="10.240928099641545"><ele>661.0</ele><time>2026-04-04T08:10:35Z</time></trkpt><trkpt lat="44.488339559716614" lon="10.240971367031289"><ele>662.0</ele><time>2026-04-04T08:10:36Z</time></trkpt><trkpt lat="44.48844058867211" lon="10.24100091582876"><ele>663.0</ele><time>2026-04-04T08:10:37Z</time></trkpt><trkpt lat="44.48852109656916" lon="10.24103336622215"><ele>664.0</ele><time>2026-04-04T08:10:38Z</time></trkpt><trkpt lat="44.48856262471579" lon="10.241150702764923"><ele>665.0</ele><time>2026-04-04T08:10:40Z</time></trkpt><trkpt lat="44.488530053982856" lon="10.241253540714704"><ele>666.0</ele><time>2026-04-04T08:10:41Z</time></trkpt><trkpt lat="44.48844223299835" lon="10.241323299820019"><ele>666.0</ele><time>2026-04-04T08:10:42Z</time></trkpt><trkpt lat="44.48831115644378" lon="10.241269428869067"><ele>666.0</ele><time>2026-04-04T08:10:43Z</time></trkpt><trkpt lat="44.48816092996086" lon="10.241282997009192"><ele>666.0</ele><time>2026-04-04T08:10:44Z</time></trkpt><trkpt lat="44.48796281892097" lon="10.241301131348708"><ele>664.3333333333334</ele><time>2026-04-04T08:10:45Z</time></trkpt><trkpt lat="44.48775276852406" lon="10.241342221025164"><ele>662.6666666666667</ele><time>2026-04-04T08:10:46Z</time></trkpt><trkpt lat="44.487578916453124" lon="10.241405064002075"><ele>661.0</ele><time>2026-04-04T08:10:47Z</time></trkpt><trkpt lat="44.48742837086141" lon="10.241417254165379"><ele>661.0</ele><time>2026-04-04T08:10:48Z</time></trkpt><trkpt lat="44.48729976084637" lon="10.24139931223018"><ele>661.0</ele><time>2026-04-04T08:10:49Z</time></trkpt><trkpt lat="44.48720015876794" lon="10.241363981530581"><ele>661.0</ele><time>2026-04-04T08:10:50Z</time></trkpt><trkpt lat="44.48704817431166" lon="10.241265079244362"><ele>661.0</ele><time>2026-04-04T08:10:51Z</time></trkpt><trkpt lat="44.4869626411934" lon="10.24115174200871"><ele>657.1999999999999</ele><time>2026-04-04T08:10:52Z</time></trkpt><trkpt lat="44.48688665813556" lon="10.241102203087513"><ele>653.4</ele><time>2026-04-04T08:10:53Z</time></trkpt><trkpt lat="44.48681844248384" lon="10.24106247673413"><ele>649.6</ele><time>2026-04-04T08:10:54Z</time></trkpt><trkpt lat="44.48672431193479" lon="10.24107588215815"><ele>645.8</ele><time>2026-04-04T08:10:55Z</time></trkpt><trkpt lat="44.48662456213427" lon="10.24116735603138"><ele>642.0</ele><time>2026-04-04T08:10:56Z</time></trkpt><trkpt lat="44.48656700052842" lon="10.241300062745848"><ele>642.0</ele><time>2026-04-04T08:10:57Z</time></trkpt><trkpt lat="44.48654285833759" lon="10.241442151760461"><ele>642.0</ele><time>2026-04-04T08:10:58Z</time></trkpt><trkpt lat="44.486552435311516" lon="10.241591877748588"><ele>642.0</ele><time>2026-04-04T08:10:59Z</time></trkpt><trkpt lat="44.48660367493242" lon="10.241729575869968"><ele>642.0</ele><time>2026-04-04T08:11:00Z</time></trkpt><trkpt lat="44.486686559504406" lon="10.241845162345138"><ele>642.0</ele><time>2026-04-04T08:11:01Z</time></trkpt><trkpt lat="44.486759073770656" lon="10.241942581125938"><ele>640.6</ele><time>2026-04-04T08:11:02Z</time></trkpt><trkpt lat="44.48678934146988" lon="10.242069978308857"><ele>639.2</ele><time>2026-04-04T08:11:03Z</time></trkpt><trkpt lat="44.486784562964296" lon="10.24218470926607"><ele>637.8</ele><time>2026-04-04T08:11:04Z</time></trkpt><trkpt lat="44.48674397113712" lon="10.242307226045853"><ele>636.4</ele><time>2026-04-04T08:11:05Z</time></trkpt><trkpt lat="44.48666130268049" lon="10.242401953065801"><ele>635.0</ele><time>2026-04-04T08:11:06Z</time></trkpt><trkpt lat="44.486596827236355" lon="10.242499478071794"><ele>633.8333333333333</ele><time>2026-04-04T08:11:07Z</time></trkpt><trkpt lat="44.48654429927694" lon="10.242584948698749"><ele>632.6666666666666</ele><time>2026-04-04T08:11:08Z</time></trkpt><trkpt lat="44.48653336703142" lon="10.24270279299724"><ele>631.5</ele><time>2026-04-04T08:11:09Z</time></trkpt><trkpt lat="44.48656705099742" lon="10.242791275140839"><ele>630.3333333333334</ele><time>2026-04-04T08:11:10Z</time></trkpt><trkpt lat="44.48663756135389" lon="10.242832940970024"><ele>629.1666666666667</ele><time>2026-04-04T08:11:11Z</time></trkpt><trkpt lat="44.486738537397535" lon="10.242815601733827"><ele>628.0</ele><time>2026-04-04T08:11:12Z</time></trkpt><trkpt lat="44.48684637457481" lon="10.242761532907386"><ele>628.0</ele><time>2026-04-04T08:11:13Z</time></trkpt><trkpt lat="44.48695295423525" lon="10.242699765800795"><ele>628.0</ele><time>2026-04-04T08:11:14Z</time></trkpt><trkpt lat="44.48704078744657" lon="10.242638877371526"><ele>628.0</ele><time>2026-04-04T08:11:15Z</time></trkpt><trkpt lat="44.48712517087127" lon="10.242585430421892"><ele>628.0</ele><time>2026-04-04T08:11:16Z</time></trkpt><trkpt lat="44.487186950911685" lon="10.242555234377154"><ele>628.0</ele><time>2026-04-04T08:11:17Z</time></trkpt><trkpt lat="44.487264878916484" lon="10.242588289484374"><ele>628.5</ele><time>2026-04-04T08:11:17.999Z</time></trkpt><trkpt lat="44.487306496265916" lon="10.242682114112734"><ele>629.0</ele><time>2026-04-04T08:11:18.999Z</time></trkpt><trkpt lat="44.48730041986473" lon="10.242812314615827"><ele>629.5</ele><time>2026-04-04T08:11:19.999Z</time></trkpt><trkpt lat="44.48720753200722" lon="10.242928093864371"><ele>630.0</ele><time>2026-04-04T08:11:20.999Z</time></trkpt><trkpt lat="44.48710014001326" lon="10.243091389039073"><ele>627.3333333333334</ele><time>2026-04-04T08:11:21.999Z</time></trkpt><trkpt lat="44.48697153376216" lon="10.243311795831229"><ele>624.6666666666667</ele><time>2026-04-04T08:11:22.999Z</time></trkpt><trkpt lat="44.4868348358919" lon="10.243576541036685"><ele>622.0</ele><time>2026-04-04T08:11:23.999Z</time></trkpt><trkpt lat="44.486707124047356" lon="10.243805346544088"><ele>620.6666666666667</ele><time>2026-04-04T08:11:24.999Z</time></trkpt><trkpt lat="44.48657447017329" lon="10.244038160509772"><ele>619.3333333333334</ele><time>2026-04-04T08:11:25.999Z</time></trkpt><trkpt lat="44.48644278088534" lon="10.24423982372959"><ele>618.0</ele><time>2026-04-04T08:11:26.999Z</time></trkpt><trkpt lat="44.486335171879134" lon="10.244463368562092"><ele>616.0</ele><time>2026-04-04T08:11:27.999Z</time></trkpt><trkpt lat="44.48622730135924" lon="10.2446567492673"><ele>614.0</ele><time>2026-04-04T08:11:28.999Z</time></trkpt><trkpt lat="44.486123753224966" lon="10.244833236016474"><ele>612.0</ele><time>2026-04-04T08:11:29.999Z</time></trkpt><trkpt lat="44.48602674559081" lon="10.244989975601309"><ele>611.3333333333334</ele><time>2026-04-04T08:11:30.999Z</time></trkpt><trkpt lat="44.48582127812174" lon="10.24500825900327"><ele>610.6666666666667</ele><time>2026-04-04T08:11:31.999Z</time></trkpt><trkpt lat="44.485601601942506" lon="10.245084252151853"><ele>610.0</ele><time>2026-04-04T08:11:32.999Z</time></trkpt><trkpt lat="44.48540923210698" lon="10.245118629276464"><ele>606.6666666666667</ele><time>2026-04-04T08:11:33.999Z</time></trkpt><trkpt lat="44.48524844082485" lon="10.245092508429423"><ele>603.3333333333334</ele><time>2026-04-04T08:11:34.999Z</time></trkpt><trkpt lat="44.48509308258991" lon="10.244976353273106"><ele>600.0</ele><time>2026-04-04T08:11:35.999Z</time></trkpt><trkpt lat="44.48489592550671" lon="10.244789237074007"><ele>598.3333333333334</ele><time>2026-04-04T08:11:36.999Z</time></trkpt><trkpt lat="44.484705006012284" lon="10.244617652795476"><ele>596.6666666666667</ele><time>2026-04-04T08:11:37.999Z</time></trkpt><trkpt lat="44.48454419985835" lon="10.244440069638056"><ele>595.0</ele><time>2026-04-04T08:11:38.999Z</time></trkpt><trkpt lat="44.484388135897255" lon="10.24428989087693"><ele>594.6666666666667</ele><time>2026-04-04T08:11:39.999Z</time></trkpt><trkpt lat="44.484214224870016" lon="10.244179506832037"><ele>594.3333333333334</ele><time>2026-04-04T08:11:40.999Z</time></trkpt><trkpt lat="44.48402354556853" lon="10.244122942297958"><ele>594.0</ele><time>2026-04-04T08:11:42Z</time></trkpt><trkpt lat="44.483846301815426" lon="10.244090849868126"><ele>598.0</ele><time>2026-04-04T08:11:43Z</time></trkpt><trkpt lat="44.48372098528698" lon="10.24402297115032"><ele>602.0</ele><time>2026-04-04T08:11:44Z</time></trkpt><trkpt lat="44.483605027731" lon="10.244004589206476"><ele>606.0</ele><time>2026-04-04T08:11:45Z</time></trkpt><trkpt lat="44.4834920300291" lon="10.243987364112375"><ele>610.0</ele><time>2026-04-04T08:11:46Z</time></trkpt><trkpt lat="44.48339830128301" lon="10.244042781549236"><ele>610.0</ele><time>2026-04-04T08:11:47Z</time></trkpt><trkpt lat="44.483312460562814" lon="10.244168755683084"><ele>610.0</ele><time>2026-04-04T08:11:48Z</time></trkpt><trkpt lat="44.48325831458817" lon="10.244361683387414"><ele>610.0</ele><time>2026-04-04T08:11:49Z</time></trkpt><trkpt lat="44.48328030526008" lon="10.244598762950135"><ele>610.0</ele><time>2026-04-04T08:11:50Z</time></trkpt><trkpt lat="44.48328979257327" lon="10.244885994841521"><ele>609.0</ele><time>2026-04-04T08:11:51Z</time></trkpt><trkpt lat="44.48329958021992" lon="10.245184918714955"><ele>608.0</ele><time>2026-04-04T08:11:52Z</time></trkpt><trkpt lat="44.48331666975782" lon="10.245436371483702"><ele>607.0</ele><time>2026-04-04T08:11:53Z</time></trkpt><trkpt lat="44.483320882821516" lon="10.245700294289376"><ele>607.0</ele><time>2026-04-04T08:11:54Z</time></trkpt><trkpt lat="44.483296780008025" lon="10.245986823580875"><ele>607.0</ele><time>2026-04-04T08:11:55Z</time></trkpt><trkpt lat="44.48324334268272" lon="10.246218863608865"><ele>607.0</ele><time>2026-04-04T08:11:56Z</time></trkpt><trkpt lat="44.483152628529865" lon="10.24646209451683"><ele>603.5</ele><time>2026-04-04T08:11:57Z</time></trkpt><trkpt lat="44.48300578748155" lon="10.246691117785208"><ele>600.0</ele><time>2026-04-04T08:11:58Z</time></trkpt><trkpt lat="44.48284313812656" lon="10.246947914345842"><ele>609.5</ele><time>2026-04-04T08:11:59Z</time></trkpt><trkpt lat="44.48270660856552" lon="10.247222918290145"><ele>619.0</ele><time>2026-04-04T08:12:00Z</time></trkpt><trkpt lat="44.482558539945465" lon="10.247505118097415"><ele>619.0</ele><time>2026-04-04T08:12:01Z</time></trkpt><trkpt lat="44.48240407102852" lon="10.247831654817446"><ele>619.0</ele><time>2026-04-04T08:12:02Z</time></trkpt><trkpt lat="44.48227379104837" lon="10.248127341261712"><ele>622.3333333333334</ele><time>2026-04-04T08:12:03Z</time></trkpt><trkpt lat="44.48215476900893" lon="10.248386923006167"><ele>625.6666666666666</ele><time>2026-04-04T08:12:04Z</time></trkpt><trkpt lat="44.48203241555011" lon="10.248619337454155"><ele>629.0</ele><time>2026-04-04T08:12:05Z</time></trkpt><trkpt lat="44.48190391280483" lon="10.248820360482007"><ele>629.0</ele><time>2026-04-04T08:12:06Z</time></trkpt><trkpt lat="44.481750674948685" lon="10.248947100032447"><ele>629.0</ele><time>2026-04-04T08:12:07Z</time></trkpt><trkpt lat="44.481559003255406" lon="10.249057271969093"><ele>629.0</ele><time>2026-04-04T08:12:08Z</time></trkpt><trkpt lat="44.481366420413785" lon="10.249183903640848"><ele>628.6666666666666</ele><time>2026-04-04T08:12:09Z</time></trkpt><trkpt lat="44.4811979025212" lon="10.249268394407578"><ele>628.3333333333334</ele><time>2026-04-04T08:12:10Z</time></trkpt><trkpt lat="44.48107180023726" lon="10.24939974273307"><ele>628.0</ele><time>2026-04-04T08:12:11Z</time></trkpt><trkpt lat="44.48099701197665" lon="10.249603902655002"><ele>624.6666666666667</ele><time>2026-04-04T08:12:12Z</time></trkpt><trkpt lat="44.48092388610088" lon="10.249877420029577"><ele>621.3333333333334</ele><time>2026-04-04T08:12:13Z</time></trkpt><trkpt lat="44.480813945797664" lon="10.250100648761236"><ele>618.0</ele><time>2026-04-04T08:12:14Z</time></trkpt><trkpt lat="44.480691181689075" lon="10.250303619207335"><ele>618.0</ele><time>2026-04-04T08:12:15Z</time></trkpt><trkpt lat="44.48056423764913" lon="10.250436215016144"><ele>618.0</ele><time>2026-04-04T08:12:16Z</time></trkpt><trkpt lat="44.48042636666603" lon="10.25050082563721"><ele>618.0</ele><time>2026-04-04T08:12:17Z</time></trkpt><trkpt lat="44.480274199010175" lon="10.250463713708111"><ele>616.3333333333334</ele><time>2026-04-04T08:12:18Z</time></trkpt><trkpt lat="44.48006083806372" lon="10.250485642752254"><ele>614.6666666666667</ele><time>2026-04-04T08:12:19Z</time></trkpt><trkpt lat="44.479849413261505" lon="10.250585013082787"><ele>613.0</ele><time>2026-04-04T08:12:20Z</time></trkpt><trkpt lat="44.47961789701702" lon="10.250695628441186"><ele>615.5</ele><time>2026-04-04T08:12:21Z</time></trkpt><trkpt lat="44.479370717552925" lon="10.250829504845008"><ele>618.0</ele><time>2026-04-04T08:12:22Z</time></trkpt><trkpt lat="44.47911909941308" lon="10.250971870059026"><ele>618.0</ele><time>2026-04-04T08:12:23Z</time></trkpt><trkpt lat="44.47887225601274" lon="10.251158481537454"><ele>618.0</ele><time>2026-04-04T08:12:24Z</time></trkpt><trkpt lat="44.47862601281209" lon="10.251398363281082"><ele>617.5</ele><time>2026-04-04T08:12:25Z</time></trkpt><trkpt lat="44.478404919194084" lon="10.251661419743918"><ele>617.0</ele><time>2026-04-04T08:12:26Z</time></trkpt><trkpt lat="44.47818882754152" lon="10.251910367585946"><ele>617.0</ele><time>2026-04-04T08:12:27Z</time></trkpt><trkpt lat="44.4779928022924" lon="10.252137418199558"><ele>617.0</ele><time>2026-04-04T08:12:28Z</time></trkpt><trkpt lat="44.47781205058169" lon="10.252350658167197"><ele>616.6666666666666</ele><time>2026-04-04T08:12:29Z</time></trkpt><trkpt lat="44.47766238875367" lon="10.25257826379767"><ele>616.3333333333334</ele><time>2026-04-04T08:12:30Z</time></trkpt><trkpt lat="44.477546134369234" lon="10.252852830464983"><ele>616.0</ele><time>2026-04-04T08:12:31Z</time></trkpt><trkpt lat="44.47746387816612" lon="10.253191601409934"><ele>616.0</ele><time>2026-04-04T08:12:32Z</time></trkpt><trkpt lat="44.4773762603248" lon="10.253522596845007"><ele>616.0</ele><time>2026-04-04T08:12:33Z</time></trkpt><trkpt lat="44.47723354819875" lon="10.253755480688348"><ele>614.0</ele><time>2026-04-04T08:12:34Z</time></trkpt><trkpt lat="44.47712495450585" lon="10.253988435027523"><ele>612.0</ele><time>2026-04-04T08:12:35Z</time></trkpt><trkpt lat="44.47703340728221" lon="10.25420820248427"><ele>610.0</ele><time>2026-04-04T08:12:36Z</time></trkpt><trkpt lat="44.476979650386305" lon="10.254515685368984"><ele>615.5</ele><time>2026-04-04T08:12:37Z</time></trkpt><trkpt lat="44.47692725666744" lon="10.254849587906243"><ele>621.0</ele><time>2026-04-04T08:12:38Z</time></trkpt><trkpt lat="44.47685042715215" lon="10.255137280485359"><ele>621.0</ele><time>2026-04-04T08:12:39Z</time></trkpt><trkpt lat="44.47674534751212" lon="10.255403665291292"><ele>621.0</ele><time>2026-04-04T08:12:40Z</time></trkpt><trkpt lat="44.47660707949651" lon="10.255636213285495"><ele>621.0</ele><time>2026-04-04T08:12:41Z</time></trkpt><trkpt lat="44.476413704724266" lon="10.255728103140738"><ele>622.3333333333334</ele><time>2026-04-04T08:12:42Z</time></trkpt><trkpt lat="44.476257176313226" lon="10.255807604878786"><ele>623.6666666666667</ele><time>2026-04-04T08:12:43Z</time></trkpt><trkpt lat="44.47604494448392" lon="10.25591006643548"><ele>625.0</ele><time>2026-04-04T08:12:44Z</time></trkpt><trkpt lat="44.47582678916393" lon="10.256012684093296"><ele>625.0</ele><time>2026-04-04T08:12:45Z</time></trkpt><trkpt lat="44.47560717217334" lon="10.256099136288494"><ele>625.0</ele><time>2026-04-04T08:12:46Z</time></trkpt><trkpt lat="44.47540632168906" lon="10.25612160757127"><ele>625.0</ele><time>2026-04-04T08:12:47Z</time></trkpt><trkpt lat="44.47521293211051" lon="10.256131407407015"><ele>625.5</ele><time>2026-04-04T08:12:48Z</time></trkpt><trkpt lat="44.47506224958411" lon="10.256156302262513"><ele>626.0</ele><time>2026-04-04T08:12:49Z</time></trkpt><trkpt lat="44.4749429254006" lon="10.256207733920842"><ele>626.5</ele><time>2026-04-04T08:12:50Z</time></trkpt><trkpt lat="44.47484290904075" lon="10.256303115696152"><ele>627.0</ele><time>2026-04-04T08:12:51Z</time></trkpt><trkpt lat="44.47478111418236" lon="10.256503559052774"><ele>627.0</ele><time>2026-04-04T08:12:52Z</time></trkpt><trkpt lat="44.47477115040427" lon="10.256748372390385"><ele>627.0</ele><time>2026-04-04T08:12:53Z</time></trkpt><trkpt lat="44.47480683184697" lon="10.257015767320917"><ele>627.0</ele><time>2026-04-04T08:12:54Z</time></trkpt><trkpt lat="44.474901465053684" lon="10.25731253612824"><ele>626.0</ele><time>2026-04-04T08:12:55Z</time></trkpt><trkpt lat="44.47496909880574" lon="10.2575893939208"><ele>625.0</ele><time>2026-04-04T08:12:56Z</time></trkpt><trkpt lat="44.47494587728636" lon="10.257812388869933"><ele>624.0</ele><time>2026-04-04T08:12:57Z</time></trkpt><trkpt lat="44.4748651584384" lon="10.257999792931548"><ele>626.6666666666666</ele><time>2026-04-04T08:12:58Z</time></trkpt><trkpt lat="44.474757779984465" lon="10.258196969862157"><ele>629.3333333333333</ele><time>2026-04-04T08:12:59Z</time></trkpt><trkpt lat="44.4746126536246" lon="10.25841548786363"><ele>632.0</ele><time>2026-04-04T08:13:00Z</time></trkpt><trkpt lat="44.47451689840226" lon="10.258672349781932"><ele>632.0</ele><time>2026-04-04T08:13:01Z</time></trkpt><trkpt lat="44.47431034655277" lon="10.258920579158996"><ele>632.0</ele><time>2026-04-04T08:13:02Z</time></trkpt><trkpt lat="44.474084825604145" lon="10.259171328668423"><ele>628.0</ele><time>2026-04-04T08:13:03Z</time></trkpt><trkpt lat="44.47394664853654" lon="10.259441996783943"><ele>624.0</ele><time>2026-04-04T08:13:04Z</time></trkpt><trkpt lat="44.4738133692516" lon="10.259652489660821"><ele>620.0</ele><time>2026-04-04T08:13:05Z</time></trkpt><trkpt lat="44.47364855317974" lon="10.259808303196492"><ele>619.5</ele><time>2026-04-04T08:13:06Z</time></trkpt><trkpt lat="44.473425976440964" lon="10.25993980532862"><ele>619.0</ele><time>2026-04-04T08:13:07Z</time></trkpt><trkpt lat="44.47318498465138" lon="10.260097338146412"><ele>619.0</ele><time>2026-04-04T08:13:08Z</time></trkpt><trkpt lat="44.472946627212096" lon="10.260267621399645"><ele>619.0</ele><time>2026-04-04T08:13:09Z</time></trkpt><trkpt lat="44.472749203575056" lon="10.260427207568856"><ele>619.0</ele><time>2026-04-04T08:13:10Z</time></trkpt><trkpt lat="44.47260974701413" lon="10.260609104531294"><ele>619.0</ele><time>2026-04-04T08:13:11Z</time></trkpt><trkpt lat="44.47250682806915" lon="10.260820851234893"><ele>619.0</ele><time>2026-04-04T08:13:12Z</time></trkpt><trkpt lat="44.47241720375615" lon="10.260983659615654"><ele>619.0</ele><time>2026-04-04T08:13:13Z</time></trkpt><trkpt lat="44.47234409870533" lon="10.261093086078207"><ele>619.0</ele><time>2026-04-04T08:13:14Z</time></trkpt><trkpt lat="44.47228563948902" lon="10.261175469594544"><ele>619.0</ele><time>2026-04-04T08:13:15Z</time></trkpt><trkpt lat="44.4722314376738" lon="10.261252425814645"><ele>619.0</ele><time>2026-04-04T08:13:16Z</time></trkpt><trkpt lat="44.47216704278451" lon="10.261350471099556"><ele>619.0</ele><time>2026-04-04T08:13:17Z</time></trkpt><trkpt lat="44.47208762969751" lon="10.261437519817127"><ele>618.75</ele><time>2026-04-04T08:13:18Z</time></trkpt><trkpt lat="44.471990595281056" lon="10.261486185402905"><ele>618.5</ele><time>2026-04-04T08:13:19Z</time></trkpt><trkpt lat="44.47188491563218" lon="10.261500656509096"><ele>618.25</ele><time>2026-04-04T08:13:20Z</time></trkpt><trkpt lat="44.47175753031336" lon="10.261495133177243"><ele>618.0</ele><time>2026-04-04T08:13:21Z</time></trkpt><trkpt lat="44.47157479527579" lon="10.261521399806284"><ele>618.0</ele><time>2026-04-04T08:13:22Z</time></trkpt><trkpt lat="44.47140425207734" lon="10.261624043591622"><ele>618.0</ele><time>2026-04-04T08:13:23Z</time></trkpt><trkpt lat="44.47121681836231" lon="10.261787376648051"><ele>618.0</ele><time>2026-04-04T08:13:24Z</time></trkpt><trkpt lat="44.47099615323687" lon="10.26179711217619"><ele>622.3333333333334</ele><time>2026-04-04T08:13:25Z</time></trkpt><trkpt lat="44.47077567755237" lon="10.261872810768574"><ele>626.6666666666667</ele><time>2026-04-04T08:13:26Z</time></trkpt><trkpt lat="44.47060989715367" lon="10.26199408964953"><ele>631.0</ele><time>2026-04-04T08:13:26.999Z</time></trkpt><trkpt lat="44.47046952256739" lon="10.262180010714685"><ele>631.5</ele><time>2026-04-04T08:13:27.999Z</time></trkpt><trkpt lat="44.47034115428678" lon="10.262209930079424"><ele>632.0</ele><time>2026-04-04T08:13:28.999Z</time></trkpt><trkpt lat="44.470232981747124" lon="10.262169840175893"><ele>632.5</ele><time>2026-04-04T08:13:29.999Z</time></trkpt><trkpt lat="44.470088640742944" lon="10.262073809538636"><ele>633.0</ele><time>2026-04-04T08:13:30.999Z</time></trkpt><trkpt lat="44.46987575711246" lon="10.261937844957796"><ele>633.0</ele><time>2026-04-04T08:13:31.999Z</time></trkpt><trkpt lat="44.469678789425984" lon="10.261848898598139"><ele>633.0</ele><time>2026-04-04T08:13:32.999Z</time></trkpt><trkpt lat="44.46949780218359" lon="10.261826416031091"><ele>633.0</ele><time>2026-04-04T08:13:33.999Z</time></trkpt><trkpt lat="44.469295536174826" lon="10.261873226041798"><ele>632.3333333333334</ele><time>2026-04-04T08:13:34.999Z</time></trkpt><trkpt lat="44.4691200666232" lon="10.261946631877201"><ele>631.6666666666667</ele><time>2026-04-04T08:13:35.999Z</time></trkpt><trkpt lat="44.46897527670535" lon="10.262038565961674"><ele>631.0</ele><time>2026-04-04T08:13:36.999Z</time></trkpt><trkpt lat="44.468843554138374" lon="10.262226676307293"><ele>631.5</ele><time>2026-04-04T08:13:37.999Z</time></trkpt><trkpt lat="44.46871379514171" lon="10.262511089030319"><ele>632.0</ele><time>2026-04-04T08:13:38.999Z</time></trkpt><trkpt lat="44.468575256200566" lon="10.262827931184882"><ele>632.0</ele><time>2026-04-04T08:13:39.999Z</time></trkpt><trkpt lat="44.468457921326895" lon="10.263086405456054"><ele>632.0</ele><time>2026-04-04T08:13:40.999Z</time></trkpt><trkpt lat="44.46833150419707" lon="10.263217981647779"><ele>632.0</ele><time>2026-04-04T08:13:41.999Z</time></trkpt><trkpt lat="44.46823372212451" lon="10.263289908398056"><ele>629.0</ele><time>2026-04-04T08:13:42.999Z</time></trkpt><trkpt lat="44.46813479598098" lon="10.263286877972504"><ele>626.0</ele><time>2026-04-04T08:13:43.999Z</time></trkpt><trkpt lat="44.468014233355376" lon="10.263239790502952"><ele>623.0</ele><time>2026-04-04T08:13:44.999Z</time></trkpt><trkpt lat="44.467887928127155" lon="10.263073229386682"><ele>620.0</ele><time>2026-04-04T08:13:45.999Z</time></trkpt><trkpt lat="44.467704648048446" lon="10.26289366902867"><ele>620.0</ele><time>2026-04-04T08:13:46.999Z</time></trkpt><trkpt lat="44.46753970425494" lon="10.262713635237054"><ele>620.0</ele><time>2026-04-04T08:13:48Z</time></trkpt><trkpt lat="44.46744647138897" lon="10.262556605689285"><ele>620.0</ele><time>2026-04-04T08:13:49Z</time></trkpt><trkpt lat="44.46739739738102" lon="10.262360025956083"><ele>620.3333333333333</ele><time>2026-04-04T08:13:50Z</time></trkpt><trkpt lat="44.467396971887766" lon="10.262109653322042"><ele>620.6666666666666</ele><time>2026-04-04T08:13:51Z</time></trkpt><trkpt lat="44.467433701481134" lon="10.26181959569151"><ele>621.0</ele><time>2026-04-04T08:13:52Z</time></trkpt><trkpt lat="44.467475025719764" lon="10.261544772642795"><ele>620.75</ele><time>2026-04-04T08:13:53Z</time></trkpt><trkpt lat="44.467499528106586" lon="10.261303788911766"><ele>620.5</ele><time>2026-04-04T08:13:54Z</time></trkpt><trkpt lat="44.467523881389376" lon="10.261105052757037"><ele>620.25</ele><time>2026-04-04T08:13:55Z</time></trkpt><trkpt lat="44.467497879928644" lon="10.260924561566705"><ele>620.0</ele><time>2026-04-04T08:13:56Z</time></trkpt><trkpt lat="44.4673818044185" lon="10.260737884361678"><ele>623.0</ele><time>2026-04-04T08:13:57Z</time></trkpt><trkpt lat="44.467191315626906" lon="10.260590510216003"><ele>626.0</ele><time>2026-04-04T08:13:58Z</time></trkpt><trkpt lat="44.46700106278291" lon="10.260481503214852"><ele>629.0</ele><time>2026-04-04T08:13:59Z</time></trkpt><trkpt lat="44.46691273679243" lon="10.2602804391537"><ele>625.6666666666666</ele><time>2026-04-04T08:14:00Z</time></trkpt><trkpt lat="44.46681435943825" lon="10.260021895063185"><ele>622.3333333333334</ele><time>2026-04-04T08:14:01Z</time></trkpt><trkpt lat="44.46670626625674" lon="10.259808553947218"><ele>619.0</ele><time>2026-04-04T08:14:02Z</time></trkpt><trkpt lat="44.466588879691194" lon="10.259614774671208"><ele>619.0</ele><time>2026-04-04T08:14:03Z</time></trkpt><trkpt lat="44.46640083525007" lon="10.259459597883843"><ele>619.0</ele><time>2026-04-04T08:14:04Z</time></trkpt><trkpt lat="44.46618626070001" lon="10.259346114160994"><ele>619.0</ele><time>2026-04-04T08:14:05Z</time></trkpt><trkpt lat="44.46598607234018" lon="10.259187155906478"><ele>620.5</ele><time>2026-04-04T08:14:06Z</time></trkpt><trkpt lat="44.46580863208339" lon="10.258973959593693"><ele>622.0</ele><time>2026-04-04T08:14:07Z</time></trkpt><trkpt lat="44.46564145729616" lon="10.25877330308525"><ele>622.0</ele><time>2026-04-04T08:14:08Z</time></trkpt><trkpt lat="44.46548284986593" lon="10.258625772360036"><ele>622.0</ele><time>2026-04-04T08:14:09Z</time></trkpt><trkpt lat="44.46534950029178" lon="10.258527455535543"><ele>622.0</ele><time>2026-04-04T08:14:10Z</time></trkpt><trkpt lat="44.4651712670515" lon="10.258509141723534"><ele>618.0</ele><time>2026-04-04T08:14:11Z</time></trkpt><trkpt lat="44.464968967081795" lon="10.258525692800463"><ele>614.0</ele><time>2026-04-04T08:14:12Z</time></trkpt><trkpt lat="44.464812943902416" lon="10.258488559788255"><ele>610.0</ele><time>2026-04-04T08:14:13Z</time></trkpt><trkpt lat="44.464668311009" lon="10.258377493001593"><ele>607.0</ele><time>2026-04-04T08:14:14Z</time></trkpt><trkpt lat="44.46452388780358" lon="10.258163067933467"><ele>604.0</ele><time>2026-04-04T08:14:15Z</time></trkpt><trkpt lat="44.4643889616596" lon="10.25788604633171"><ele>604.0</ele><time>2026-04-04T08:14:16Z</time></trkpt><trkpt lat="44.46426327920984" lon="10.257579775682146"><ele>604.0</ele><time>2026-04-04T08:14:17Z</time></trkpt><trkpt lat="44.46410775975466" lon="10.257306467223035"><ele>602.0</ele><time>2026-04-04T08:14:18Z</time></trkpt><trkpt lat="44.46395511971749" lon="10.257095179238187"><ele>600.0</ele><time>2026-04-04T08:14:19Z</time></trkpt><trkpt lat="44.463819558691576" lon="10.256887834984806"><ele>598.0</ele><time>2026-04-04T08:14:20Z</time></trkpt><trkpt lat="44.46367474421256" lon="10.256695961765748"><ele>598.0</ele><time>2026-04-04T08:14:21Z</time></trkpt><trkpt lat="44.463508135647224" lon="10.256520803614633"><ele>598.0</ele><time>2026-04-04T08:14:22Z</time></trkpt><trkpt lat="44.463294888114305" lon="10.256419489292782"><ele>598.0</ele><time>2026-04-04T08:14:23Z</time></trkpt><trkpt lat="44.46306801758409" lon="10.256370648125088"><ele>599.6666666666667</ele><time>2026-04-04T08:14:24Z</time></trkpt><trkpt lat="44.46289923148875" lon="10.256237876093872"><ele>601.3333333333334</ele><time>2026-04-04T08:14:25Z</time></trkpt><trkpt lat="44.46271690439499" lon="10.256088056931183"><ele>603.0</ele><time>2026-04-04T08:14:26Z</time></trkpt><trkpt lat="44.462524450181654" lon="10.255962994127254"><ele>603.0</ele><time>2026-04-04T08:14:27Z</time></trkpt><trkpt lat="44.46233456265997" lon="10.255851399646783"><ele>603.0</ele><time>2026-04-04T08:14:28Z</time></trkpt><trkpt lat="44.462160314451175" lon="10.255761518907612"><ele>603.0</ele><time>2026-04-04T08:14:29Z</time></trkpt><trkpt lat="44.46202558785167" lon="10.255621878943236"><ele>602.6666666666666</ele><time>2026-04-04T08:14:30Z</time></trkpt><trkpt lat="44.461881611542054" lon="10.255474887716918"><ele>602.3333333333333</ele><time>2026-04-04T08:14:31Z</time></trkpt><trkpt lat="44.46175456736033" lon="10.255329837288055"><ele>602.0</ele><time>2026-04-04T08:14:32Z</time></trkpt><trkpt lat="44.46166903197308" lon="10.255179112286259"><ele>602.0</ele><time>2026-04-04T08:14:33Z</time></trkpt><trkpt lat="44.46156487287014" lon="10.255023963066337"><ele>602.0</ele><time>2026-04-04T08:14:34Z</time></trkpt><trkpt lat="44.461551918356484" lon="10.254766530099072"><ele>602.0</ele><time>2026-04-04T08:14:35Z</time></trkpt><trkpt lat="44.461529520506026" lon="10.25453072833731"><ele>603.0</ele><time>2026-04-04T08:14:36Z</time></trkpt><trkpt lat="44.461436491348195" lon="10.254325332136608"><ele>604.0</ele><time>2026-04-04T08:14:37Z</time></trkpt><trkpt lat="44.46129131741955" lon="10.254141183810008"><ele>605.0</ele><time>2026-04-04T08:14:38Z</time></trkpt><trkpt lat="44.46115775560729" lon="10.253935206853157"><ele>605.0</ele><time>2026-04-04T08:14:39Z</time></trkpt><trkpt lat="44.46103451519505" lon="10.253724976190531"><ele>605.0</ele><time>2026-04-04T08:14:40Z</time></trkpt><trkpt lat="44.46090687689166" lon="10.253518185523767"><ele>605.0</ele><time>2026-04-04T08:14:41Z</time></trkpt><trkpt lat="44.46078396991256" lon="10.253340761994266"><ele>605.0</ele><time>2026-04-04T08:14:42Z</time></trkpt><trkpt lat="44.460705914083505" lon="10.253171930651856"><ele>605.0</ele><time>2026-04-04T08:14:43Z</time></trkpt><trkpt lat="44.46063988270156" lon="10.253033944781773"><ele>605.0</ele><time>2026-04-04T08:14:44Z</time></trkpt><trkpt lat="44.460620355725396" lon="10.25288214290654"><ele>605.0</ele><time>2026-04-04T08:14:45Z</time></trkpt><trkpt lat="44.460662591431976" lon="10.252720837187361"><ele>605.0</ele><time>2026-04-04T08:14:46Z</time></trkpt><trkpt lat="44.460757607071685" lon="10.252539486048489"><ele>605.0</ele><time>2026-04-04T08:14:47Z</time></trkpt><trkpt lat="44.46085208009825" lon="10.252343673114822"><ele>605.0</ele><time>2026-04-04T08:14:48Z</time></trkpt><trkpt lat="44.460914718417676" lon="10.252145743162043"><ele>605.0</ele><time>2026-04-04T08:14:49Z</time></trkpt><trkpt lat="44.460951106832354" lon="10.251961894826774"><ele>605.0</ele><time>2026-04-04T08:14:50Z</time></trkpt><trkpt lat="44.460939843973904" lon="10.25180093876955"><ele>605.0</ele><time>2026-04-04T08:14:51Z</time></trkpt><trkpt lat="44.46088505666519" lon="10.251654053977791"><ele>605.0</ele><time>2026-04-04T08:14:52Z</time></trkpt><trkpt lat="44.46077170101667" lon="10.251518259036121"><ele>606.0</ele><time>2026-04-04T08:14:53Z</time></trkpt><trkpt lat="44.46063501798614" lon="10.251381538905415"><ele>607.0</ele><time>2026-04-04T08:14:54Z</time></trkpt><trkpt lat="44.46050732326011" lon="10.251240666816885"><ele>608.0</ele><time>2026-04-04T08:14:55Z</time></trkpt><trkpt lat="44.46038024207586" lon="10.251084259876022"><ele>608.0</ele><time>2026-04-04T08:14:56Z</time></trkpt><trkpt lat="44.4602636733525" lon="10.250911371848085"><ele>608.0</ele><time>2026-04-04T08:14:57Z</time></trkpt><trkpt lat="44.46012877840474" lon="10.250779482067733"><ele>608.0</ele><time>2026-04-04T08:14:58Z</time></trkpt><trkpt lat="44.459999053507026" lon="10.250636661131896"><ele>606.0</ele><time>2026-04-04T08:14:59Z</time></trkpt><trkpt lat="44.45985733454361" lon="10.250529495518615"><ele>604.0</ele><time>2026-04-04T08:15:00Z</time></trkpt><trkpt lat="44.45969352907807" lon="10.250467938946036"><ele>602.0</ele><time>2026-04-04T08:15:01Z</time></trkpt><trkpt lat="44.45955577629857" lon="10.250362246565462"><ele>602.0</ele><time>2026-04-04T08:15:02Z</time></trkpt><trkpt lat="44.459442041177674" lon="10.250242775244322"><ele>602.0</ele><time>2026-04-04T08:15:03Z</time></trkpt><trkpt lat="44.45933166686926" lon="10.250087373810647"><ele>602.0</ele><time>2026-04-04T08:15:04Z</time></trkpt><trkpt lat="44.459297278776134" lon="10.249874355347986"><ele>603.6666666666666</ele><time>2026-04-04T08:15:05Z</time></trkpt><trkpt lat="44.45923261187852" lon="10.249666554689753"><ele>605.3333333333334</ele><time>2026-04-04T08:15:06Z</time></trkpt><trkpt lat="44.459184123484604" lon="10.2494551485173"><ele>607.0</ele><time>2026-04-04T08:15:07Z</time></trkpt><trkpt lat="44.45911526793968" lon="10.249283955494027"><ele>607.0</ele><time>2026-04-04T08:15:08Z</time></trkpt><trkpt lat="44.459051537407454" lon="10.249127464757846"><ele>607.0</ele><time>2026-04-04T08:15:09Z</time></trkpt><trkpt lat="44.45896196401537" lon="10.248996473375033"><ele>607.0</ele><time>2026-04-04T08:15:10Z</time></trkpt><trkpt lat="44.45882802180394" lon="10.248866299983625"><ele>607.0</ele><time>2026-04-04T08:15:11Z</time></trkpt><trkpt lat="44.458657952035324" lon="10.24878934879766"><ele>605.6666666666667</ele><time>2026-04-04T08:15:12Z</time></trkpt><trkpt lat="44.45847054221145" lon="10.248723867671817"><ele>604.3333333333334</ele><time>2026-04-04T08:15:13Z</time></trkpt><trkpt lat="44.458321544137966" lon="10.248599472794249"><ele>603.0</ele><time>2026-04-04T08:15:14Z</time></trkpt><trkpt lat="44.458192762573724" lon="10.248470016151979"><ele>603.0</ele><time>2026-04-04T08:15:15Z</time></trkpt><trkpt lat="44.45807796761729" lon="10.248348087463397"><ele>603.0</ele><time>2026-04-04T08:15:16Z</time></trkpt><trkpt lat="44.45797971666045" lon="10.2482346047188"><ele>603.0</ele><time>2026-04-04T08:15:17Z</time></trkpt><trkpt lat="44.45789778631841" lon="10.248127195341752"><ele>603.0</ele><time>2026-04-04T08:15:18Z</time></trkpt><trkpt lat="44.45782420538294" lon="10.247993700579233"><ele>602.5</ele><time>2026-04-04T08:15:19Z</time></trkpt><trkpt lat="44.457752839607515" lon="10.247828345654186"><ele>602.0</ele><time>2026-04-04T08:15:20Z</time></trkpt><trkpt lat="44.457678985963604" lon="10.247668275823475"><ele>601.5</ele><time>2026-04-04T08:15:21Z</time></trkpt><trkpt lat="44.4576218267497" lon="10.247498765966174"><ele>601.0</ele><time>2026-04-04T08:15:22Z</time></trkpt><trkpt lat="44.4575779907709" lon="10.247329918356854"><ele>601.0</ele><time>2026-04-04T08:15:23Z</time></trkpt><trkpt lat="44.45751166955964" lon="10.247183851642475"><ele>601.0</ele><time>2026-04-04T08:15:24Z</time></trkpt><trkpt lat="44.4574771264388" lon="10.24702938804527"><ele>601.0</ele><time>2026-04-04T08:15:25Z</time></trkpt><trkpt lat="44.45745934271425" lon="10.246861632713001"><ele>601.0</ele><time>2026-04-04T08:15:26Z</time></trkpt><trkpt lat="44.45746997033646" lon="10.246699304366155"><ele>601.0</ele><time>2026-04-04T08:15:27Z</time></trkpt><trkpt lat="44.457463853922235" lon="10.2465330375195"><ele>601.0</ele><time>2026-04-04T08:15:28Z</time></trkpt><trkpt lat="44.4574392633639" lon="10.246373368683944"><ele>601.0</ele><time>2026-04-04T08:15:29Z</time></trkpt><trkpt lat="44.45737559867858" lon="10.24622268968872"><ele>601.0</ele><time>2026-04-04T08:15:29.999Z</time></trkpt><trkpt lat="44.45724684624457" lon="10.246067115001427"><ele>598.6666666666667</ele><time>2026-04-04T08:15:30.999Z</time></trkpt><trkpt lat="44.45710637610114" lon="10.245844780957842"><ele>596.3333333333334</ele><time>2026-04-04T08:15:31.999Z</time></trkpt><trkpt lat="44.45695647290409" lon="10.245637602297986"><ele>594.0</ele><time>2026-04-04T08:15:32.999Z</time></trkpt><trkpt lat="44.45682365887227" lon="10.245454071116566"><ele>594.0</ele><time>2026-04-04T08:15:33.999Z</time></trkpt><trkpt lat="44.45669664269535" lon="10.245278549641245"><ele>594.0</ele><time>2026-04-04T08:15:34.999Z</time></trkpt><trkpt lat="44.456553458917796" lon="10.245100121851713"><ele>594.0</ele><time>2026-04-04T08:15:35.999Z</time></trkpt><trkpt lat="44.456448059628904" lon="10.244938436302869"><ele>593.0</ele><time>2026-04-04T08:15:36.999Z</time></trkpt><trkpt lat="44.45639903502716" lon="10.244752873419248"><ele>592.0</ele><time>2026-04-04T08:15:37.999Z</time></trkpt><trkpt lat="44.456380349725094" lon="10.244548692575604"><ele>591.0</ele><time>2026-04-04T08:15:38.999Z</time></trkpt><trkpt lat="44.4563963420344" lon="10.244312897445063"><ele>591.0</ele><time>2026-04-04T08:15:39.999Z</time></trkpt><trkpt lat="44.456414571680185" lon="10.244024037625481"><ele>591.0</ele><time>2026-04-04T08:15:40.999Z</time></trkpt><trkpt lat="44.45642597825362" lon="10.24373920871544"><ele>591.0</ele><time>2026-04-04T08:15:41.999Z</time></trkpt><trkpt lat="44.45644829047027" lon="10.243441424594911"><ele>591.0</ele><time>2026-04-04T08:15:42.999Z</time></trkpt><trkpt lat="44.456466340513096" lon="10.24315035943144"><ele>591.0</ele><time>2026-04-04T08:15:43.999Z</time></trkpt><trkpt lat="44.456479425209125" lon="10.242871476649853"><ele>591.0</ele><time>2026-04-04T08:15:44.999Z</time></trkpt><trkpt lat="44.456477878656074" lon="10.242590213122034"><ele>591.0</ele><time>2026-04-04T08:15:45.999Z</time></trkpt><trkpt lat="44.456449457912385" lon="10.242318210094687"><ele>591.0</ele><time>2026-04-04T08:15:46.999Z</time></trkpt><trkpt lat="44.456388607574006" lon="10.242057864617953"><ele>591.0</ele><time>2026-04-04T08:15:47.999Z</time></trkpt><trkpt lat="44.45629418820411" lon="10.241813717788228"><ele>591.0</ele><time>2026-04-04T08:15:48.999Z</time></trkpt><trkpt lat="44.456177609630224" lon="10.24158965142207"><ele>591.0</ele><time>2026-04-04T08:15:49.999Z</time></trkpt><trkpt lat="44.45603779501344" lon="10.241387866598636"><ele>591.0</ele><time>2026-04-04T08:15:50.999Z</time></trkpt><trkpt lat="44.455876631537464" lon="10.241223400987844"><ele>591.0</ele><time>2026-04-04T08:15:51.999Z</time></trkpt><trkpt lat="44.45569944308764" lon="10.241095992756854"><ele>591.0</ele><time>2026-04-04T08:15:52.999Z</time></trkpt><trkpt lat="44.45550560708788" lon="10.241010570288458"><ele>591.0</ele><time>2026-04-04T08:15:54Z</time></trkpt><trkpt lat="44.455281860367904" lon="10.240960389617856"><ele>588.0</ele><time>2026-04-04T08:15:55Z</time></trkpt><trkpt lat="44.4550162022496" lon="10.240880284716205"><ele>585.0</ele><time>2026-04-04T08:15:56Z</time></trkpt><trkpt lat="44.45474352254035" lon="10.240830474317393"><ele>582.5</ele><time>2026-04-04T08:15:57Z</time></trkpt><trkpt lat="44.454504987417415" lon="10.240789885591743"><ele>580.0</ele><time>2026-04-04T08:15:58Z</time></trkpt><trkpt lat="44.45414446689173" lon="10.240745040083464"><ele>580.0</ele><time>2026-04-04T08:15:59Z</time></trkpt><trkpt lat="44.454068706832075" lon="10.240735078201537"><ele>580.0</ele><time>2026-04-04T08:16:00Z</time></trkpt><trkpt lat="44.453871942986005" lon="10.240692760346011"><ele>580.0</ele><time>2026-04-04T08:16:01Z</time></trkpt><trkpt lat="44.45368759079118" lon="10.240613702235704"><ele>578.0</ele><time>2026-04-04T08:16:02Z</time></trkpt><trkpt lat="44.453502462873686" lon="10.240499215579172"><ele>576.0</ele><time>2026-04-04T08:16:03Z</time></trkpt><trkpt lat="44.45332247639193" lon="10.240363366339798"><ele>574.0</ele><time>2026-04-04T08:16:04Z</time></trkpt><trkpt lat="44.45315141317875" lon="10.240225567636658"><ele>574.0</ele><time>2026-04-04T08:16:05Z</time></trkpt><trkpt lat="44.453004963695854" lon="10.240136409709542"><ele>574.0</ele><time>2026-04-04T08:16:06Z</time></trkpt><trkpt lat="44.45289511466459" lon="10.24008059216919"><ele>574.0</ele><time>2026-04-04T08:16:07Z</time></trkpt><trkpt lat="44.45278641859642" lon="10.24007046681396"><ele>574.0</ele><time>2026-04-04T08:16:08Z</time></trkpt><trkpt lat="44.45265087263852" lon="10.240119767216695"><ele>573.5</ele><time>2026-04-04T08:16:09Z</time></trkpt><trkpt lat="44.452531013971814" lon="10.240196759140456"><ele>573.0</ele><time>2026-04-04T08:16:10Z</time></trkpt><trkpt lat="44.452443799454734" lon="10.2403368199985"><ele>572.5</ele><time>2026-04-04T08:16:11Z</time></trkpt><trkpt lat="44.452376238552255" lon="10.240471539982984"><ele>572.0</ele><time>2026-04-04T08:16:12Z</time></trkpt><trkpt lat="44.452339711345154" lon="10.240624843025115"><ele>570.75</ele><time>2026-04-04T08:16:13Z</time></trkpt><trkpt lat="44.4523300411053" lon="10.240784899682536"><ele>569.5</ele><time>2026-04-04T08:16:14Z</time></trkpt><trkpt lat="44.45232417938441" lon="10.240954606035084"><ele>568.25</ele><time>2026-04-04T08:16:15Z</time></trkpt><trkpt lat="44.452300643408805" lon="10.24113305012467"><ele>567.0</ele><time>2026-04-04T08:16:16Z</time></trkpt><trkpt lat="44.452237014943705" lon="10.241297694828251"><ele>567.0</ele><time>2026-04-04T08:16:17Z</time></trkpt><trkpt lat="44.45213164655183" lon="10.24144488898743"><ele>567.0</ele><time>2026-04-04T08:16:18Z</time></trkpt><trkpt lat="44.45198027034097" lon="10.241565145874395"><ele>567.0</ele><time>2026-04-04T08:16:19Z</time></trkpt><trkpt lat="44.45179100969621" lon="10.241701099684974"><ele>564.6666666666666</ele><time>2026-04-04T08:16:20Z</time></trkpt><trkpt lat="44.45161476222636" lon="10.241899687083675"><ele>562.3333333333333</ele><time>2026-04-04T08:16:21Z</time></trkpt><trkpt lat="44.45146761806684" lon="10.242132857515825"><ele>560.0</ele><time>2026-04-04T08:16:22Z</time></trkpt><trkpt lat="44.45130940625965" lon="10.242338999922715"><ele>559.0</ele><time>2026-04-04T08:16:23Z</time></trkpt><trkpt lat="44.45117557428747" lon="10.242515273373701"><ele>558.0</ele><time>2026-04-04T08:16:24Z</time></trkpt><trkpt lat="44.45105099576033" lon="10.242667550976456"><ele>557.0</ele><time>2026-04-04T08:16:25Z</time></trkpt><trkpt lat="44.45092879674304" lon="10.242793302299143"><ele>557.0</ele><time>2026-04-04T08:16:26Z</time></trkpt><trkpt lat="44.45079306112274" lon="10.242914696419026"><ele>557.0</ele><time>2026-04-04T08:16:27Z</time></trkpt><trkpt lat="44.450637092076455" lon="10.243044429807322"><ele>557.0</ele><time>2026-04-04T08:16:28Z</time></trkpt><trkpt lat="44.4504630095043" lon="10.243175489936108"><ele>552.0</ele><time>2026-04-04T08:16:29Z</time></trkpt><trkpt lat="44.450285129748934" lon="10.24330216528896"><ele>547.0</ele><time>2026-04-04T08:16:30Z</time></trkpt><trkpt lat="44.4501054542478" lon="10.243431806546523"><ele>542.0</ele><time>2026-04-04T08:16:31Z</time></trkpt><trkpt lat="44.44992675442255" lon="10.243564459593745"><ele>542.0</ele><time>2026-04-04T08:16:32Z</time></trkpt><trkpt lat="44.44975048205774" lon="10.243726066088689"><ele>542.0</ele><time>2026-04-04T08:16:33Z</time></trkpt><trkpt lat="44.449565262264024" lon="10.243881192604674"><ele>542.0</ele><time>2026-04-04T08:16:34Z</time></trkpt><trkpt lat="44.44938332429908" lon="10.244060289534684"><ele>540.5</ele><time>2026-04-04T08:16:35Z</time></trkpt><trkpt lat="44.44920421414521" lon="10.244255655227477"><ele>539.0</ele><time>2026-04-04T08:16:36Z</time></trkpt><trkpt lat="44.449034919733144" lon="10.244465658297914"><ele>539.0</ele><time>2026-04-04T08:16:37Z</time></trkpt><trkpt lat="44.44886661390592" lon="10.244697314635765"><ele>539.0</ele><time>2026-04-04T08:16:38Z</time></trkpt><trkpt lat="44.44868985462431" lon="10.244912206493598"><ele>538.0</ele><time>2026-04-04T08:16:39Z</time></trkpt><trkpt lat="44.4485313692307" lon="10.245160075467378"><ele>537.0</ele><time>2026-04-04T08:16:40Z</time></trkpt><trkpt lat="44.448368751174264" lon="10.245402558971177"><ele>537.0</ele><time>2026-04-04T08:16:41Z</time></trkpt><trkpt lat="44.448196810145795" lon="10.245617394334593"><ele>537.0</ele><time>2026-04-04T08:16:42Z</time></trkpt><trkpt lat="44.44803815222303" lon="10.245843781130176"><ele>536.5</ele><time>2026-04-04T08:16:43Z</time></trkpt><trkpt lat="44.44788079614664" lon="10.246068077808133"><ele>536.0</ele><time>2026-04-04T08:16:44Z</time></trkpt><trkpt lat="44.44772170517331" lon="10.24629484743099"><ele>532.0</ele><time>2026-04-04T08:16:45Z</time></trkpt><trkpt lat="44.447567339431934" lon="10.24651488167043"><ele>528.0</ele><time>2026-04-04T08:16:46Z</time></trkpt><trkpt lat="44.44741669278903" lon="10.246718703085255"><ele>524.0</ele><time>2026-04-04T08:16:47Z</time></trkpt><trkpt lat="44.44726028395655" lon="10.246906037874552"><ele>526.0</ele><time>2026-04-04T08:16:48Z</time></trkpt><trkpt lat="44.447090934075426" lon="10.247061740337353"><ele>528.0</ele><time>2026-04-04T08:16:49Z</time></trkpt><trkpt lat="44.44690591237482" lon="10.247168329896207"><ele>530.0</ele><time>2026-04-04T08:16:50Z</time></trkpt><trkpt lat="44.44670947572931" lon="10.247234298080368"><ele>530.0</ele><time>2026-04-04T08:16:51Z</time></trkpt><trkpt lat="44.44650770465647" lon="10.247253355453967"><ele>530.0</ele><time>2026-04-04T08:16:52Z</time></trkpt><trkpt lat="44.44630141043911" lon="10.247216872340768"><ele>530.0</ele><time>2026-04-04T08:16:53Z</time></trkpt><trkpt lat="44.44611505627534" lon="10.24712960791053"><ele>527.6666666666666</ele><time>2026-04-04T08:16:54Z</time></trkpt><trkpt lat="44.445934415366054" lon="10.24700017793313"><ele>525.3333333333334</ele><time>2026-04-04T08:16:55Z</time></trkpt><trkpt lat="44.44576718834093" lon="10.24682015205371"><ele>523.0</ele><time>2026-04-04T08:16:56Z</time></trkpt><trkpt lat="44.44561875344979" lon="10.246594498676675"><ele>527.0</ele><time>2026-04-04T08:16:57Z</time></trkpt><trkpt lat="44.44551442382012" lon="10.24633431493054"><ele>531.0</ele><time>2026-04-04T08:16:58Z</time></trkpt><trkpt lat="44.4454074351418" lon="10.246038585420507"><ele>519.5</ele><time>2026-04-04T08:16:59Z</time></trkpt><trkpt lat="44.445288421179626" lon="10.245725674197272"><ele>508.0</ele><time>2026-04-04T08:17:00Z</time></trkpt><trkpt lat="44.445175897891176" lon="10.245395071665829"><ele>507.5</ele><time>2026-04-04T08:17:01Z</time></trkpt><trkpt lat="44.44506222879786" lon="10.245062274255778"><ele>507.0</ele><time>2026-04-04T08:17:02Z</time></trkpt><trkpt lat="44.44493813350474" lon="10.244714105044084"><ele>506.5</ele><time>2026-04-04T08:17:03Z</time></trkpt><trkpt lat="44.444817477133114" lon="10.244380520242212"><ele>506.0</ele><time>2026-04-04T08:17:04Z</time></trkpt><trkpt lat="44.444750739600266" lon="10.244120497995462"><ele>500.0</ele><time>2026-04-04T08:17:05Z</time></trkpt><trkpt lat="44.44453792888972" lon="10.243633206396467"><ele>494.0</ele><time>2026-04-04T08:17:06Z</time></trkpt><trkpt lat="44.44440517021614" lon="10.24327293917148"><ele>496.5</ele><time>2026-04-04T08:17:07Z</time></trkpt><trkpt lat="44.444269659646224" lon="10.242909038392904"><ele>499.0</ele><time>2026-04-04T08:17:08Z</time></trkpt><trkpt lat="44.44413810916565" lon="10.242542646492472"><ele>504.0</ele><time>2026-04-04T08:17:09Z</time></trkpt><trkpt lat="44.444009412194745" lon="10.2421882978649"><ele>509.0</ele><time>2026-04-04T08:17:10Z</time></trkpt><trkpt lat="44.44388671844107" lon="10.241854642819526"><ele>502.5</ele><time>2026-04-04T08:17:11Z</time></trkpt><trkpt lat="44.4437808138138" lon="10.241517062740563"><ele>496.0</ele><time>2026-04-04T08:17:12Z</time></trkpt><trkpt lat="44.44366330968619" lon="10.241193409460092"><ele>496.0</ele><time>2026-04-04T08:17:13Z</time></trkpt><trkpt lat="44.44354173921313" lon="10.240880585224904"><ele>496.0</ele><time>2026-04-04T08:17:14Z</time></trkpt><trkpt lat="44.44343648846363" lon="10.240575769732354"><ele>497.0</ele><time>2026-04-04T08:17:15Z</time></trkpt><trkpt lat="44.44333517237768" lon="10.240296907163165"><ele>498.0</ele><time>2026-04-04T08:17:16Z</time></trkpt><trkpt lat="44.44323738591295" lon="10.240038638250414"><ele>499.0</ele><time>2026-04-04T08:17:17Z</time></trkpt><trkpt lat="44.44312332684536" lon="10.239815208865005"><ele>500.33333333333337</ele><time>2026-04-04T08:17:18Z</time></trkpt><trkpt lat="44.44297790442963" lon="10.239628335707948"><ele>501.66666666666663</ele><time>2026-04-04T08:17:19Z</time></trkpt><trkpt lat="44.44279087863075" lon="10.239473777055636"><ele>503.0</ele><time>2026-04-04T08:17:20Z</time></trkpt><trkpt lat="44.44257499272386" lon="10.239369623878153"><ele>503.0</ele><time>2026-04-04T08:17:21Z</time></trkpt><trkpt lat="44.44234748279377" lon="10.239313819394255"><ele>503.0</ele><time>2026-04-04T08:17:22Z</time></trkpt><trkpt lat="44.44209951081588" lon="10.23930883786821"><ele>497.5</ele><time>2026-04-04T08:17:23Z</time></trkpt><trkpt lat="44.44185639977233" lon="10.239307471199664"><ele>492.0</ele><time>2026-04-04T08:17:24Z</time></trkpt><trkpt lat="44.441638503187" lon="10.23929435200649"><ele>492.0</ele><time>2026-04-04T08:17:25Z</time></trkpt><trkpt lat="44.4414324717161" lon="10.239269140907718"><ele>492.0</ele><time>2026-04-04T08:17:26Z</time></trkpt><trkpt lat="44.44123426335142" lon="10.239236325651973"><ele>492.0</ele><time>2026-04-04T08:17:27Z</time></trkpt><trkpt lat="44.4410643694747" lon="10.239181363949319"><ele>488.0</ele><time>2026-04-04T08:17:28Z</time></trkpt><trkpt lat="44.440941340051026" lon="10.239084653474904"><ele>484.0</ele><time>2026-04-04T08:17:29Z</time></trkpt><trkpt lat="44.44083390001382" lon="10.238943914403833"><ele>480.0</ele><time>2026-04-04T08:17:30Z</time></trkpt><trkpt lat="44.44075699508469" lon="10.238741112324313"><ele>480.0</ele><time>2026-04-04T08:17:31Z</time></trkpt><trkpt lat="44.44074168468466" lon="10.238498530269826"><ele>480.0</ele><time>2026-04-04T08:17:32Z</time></trkpt><trkpt lat="44.440767846233385" lon="10.238243978557525"><ele>480.0</ele><time>2026-04-04T08:17:33Z</time></trkpt><trkpt lat="44.440777997891715" lon="10.238024328870688"><ele>481.0</ele><time>2026-04-04T08:17:33.999Z</time></trkpt><trkpt lat="44.440702944375204" lon="10.237821130668072"><ele>482.0</ele><time>2026-04-04T08:17:34.999Z</time></trkpt><trkpt lat="44.440553974487" lon="10.237676511987862"><ele>483.0</ele><time>2026-04-04T08:17:35.999Z</time></trkpt><trkpt lat="44.44042071991147" lon="10.237539129490953"><ele>475.0</ele><time>2026-04-04T08:17:36.999Z</time></trkpt><trkpt lat="44.44035696703791" lon="10.237350390396935"><ele>467.0</ele><time>2026-04-04T08:17:37.999Z</time></trkpt><trkpt lat="44.440362798918" lon="10.2370668508335"><ele>459.0</ele><time>2026-04-04T08:17:38.999Z</time></trkpt><trkpt lat="44.44041003470038" lon="10.23674377876976"><ele>459.66666666666663</ele><time>2026-04-04T08:17:39.999Z</time></trkpt><trkpt lat="44.4404466150753" lon="10.236436505637112"><ele>460.3333333333333</ele><time>2026-04-04T08:17:40.999Z</time></trkpt><trkpt lat="44.44046569591815" lon="10.236165896889272"><ele>461.0</ele><time>2026-04-04T08:17:41.999Z</time></trkpt><trkpt lat="44.44045966922928" lon="10.235946432910918"><ele>461.0</ele><time>2026-04-04T08:17:42.999Z</time></trkpt><trkpt lat="44.440442749073064" lon="10.235800126975995"><ele>461.0</ele><time>2026-04-04T08:17:43.999Z</time></trkpt><trkpt lat="44.440390852420926" lon="10.235713732477068"><ele>461.0</ele><time>2026-04-04T08:17:44.999Z</time></trkpt><trkpt lat="44.44031180891753" lon="10.23565453607061"><ele>461.0</ele><time>2026-04-04T08:17:45.999Z</time></trkpt><trkpt lat="44.44016542600494" lon="10.235704432262112"><ele>461.0</ele><time>2026-04-04T08:17:46.999Z</time></trkpt><trkpt lat="44.43996731778123" lon="10.235707746817889"><ele>461.0</ele><time>2026-04-04T08:17:47.999Z</time></trkpt><trkpt lat="44.43977077107858" lon="10.23572914377314"><ele>461.0</ele><time>2026-04-04T08:17:48.999Z</time></trkpt><trkpt lat="44.43964154758838" lon="10.235742640095713"><ele>461.0</ele><time>2026-04-04T08:17:49.999Z</time></trkpt><trkpt lat="44.43951104418419" lon="10.235756317978204"><ele>461.5</ele><time>2026-04-04T08:17:50.999Z</time></trkpt><trkpt lat="44.43920978362722" lon="10.235800863972004"><ele>462.0</ele><time>2026-04-04T08:17:51.999Z</time></trkpt><trkpt lat="44.43901728371599" lon="10.235821895777983"><ele>462.0</ele><time>2026-04-04T08:17:52.999Z</time></trkpt><trkpt lat="44.438828565406844" lon="10.23584423002209"><ele>462.0</ele><time>2026-04-04T08:17:53.999Z</time></trkpt><trkpt lat="44.43864596030758" lon="10.235859031177416"><ele>462.0</ele><time>2026-04-04T08:17:54.999Z</time></trkpt><trkpt lat="44.43847156204606" lon="10.235870520144667"><ele>463.66666666666663</ele><time>2026-04-04T08:17:55.999Z</time></trkpt><trkpt lat="44.43831074402226" lon="10.23589985492848"><ele>465.3333333333333</ele><time>2026-04-04T08:17:56.999Z</time></trkpt><trkpt lat="44.438150969124145" lon="10.235941790665798"><ele>467.0</ele><time>2026-04-04T08:17:57.999Z</time></trkpt><trkpt lat="44.43799476491016" lon="10.236007781990109"><ele>469.0</ele><time>2026-04-04T08:17:58.999Z</time></trkpt><trkpt lat="44.43781741564333" lon="10.236092409901778"><ele>471.0</ele><time>2026-04-04T08:18:00Z</time></trkpt><trkpt lat="44.43762581174149" lon="10.236198569223667"><ele>473.0</ele><time>2026-04-04T08:18:01Z</time></trkpt><trkpt lat="44.43744122838551" lon="10.236249467725662"><ele>473.0</ele><time>2026-04-04T08:18:02Z</time></trkpt><trkpt lat="44.43729990863401" lon="10.236258263597515"><ele>473.0</ele><time>2026-04-04T08:18:03Z</time></trkpt><trkpt lat="44.437190532831785" lon="10.236210690041641"><ele>473.0</ele><time>2026-04-04T08:18:04Z</time></trkpt><trkpt lat="44.43709177337911" lon="10.236106109461957"><ele>473.0</ele><time>2026-04-04T08:18:05Z</time></trkpt><trkpt lat="44.436948985541235" lon="10.235974225302668"><ele>474.3333333333333</ele><time>2026-04-04T08:18:06Z</time></trkpt><trkpt lat="44.436779462169795" lon="10.23588282237005"><ele>475.66666666666663</ele><time>2026-04-04T08:18:07Z</time></trkpt><trkpt lat="44.4366288709438" lon="10.235835957952483"><ele>477.0</ele><time>2026-04-04T08:18:08Z</time></trkpt><trkpt lat="44.43646562134525" lon="10.235884754077242"><ele>477.0</ele><time>2026-04-04T08:18:09Z</time></trkpt><trkpt lat="44.43633990905649" lon="10.235901823256565"><ele>477.00000000000006</ele><time>2026-04-04T08:18:10Z</time></trkpt><trkpt lat="44.436283954667324" lon="10.235827938666374"><ele>477.00000000000006</ele><time>2026-04-04T08:18:11Z</time></trkpt><trkpt lat="44.436255645865174" lon="10.235715635169196"><ele>477.0</ele><time>2026-04-04T08:18:12Z</time></trkpt><trkpt lat="44.436264400662985" lon="10.235549513581974"><ele>477.0</ele><time>2026-04-04T08:18:13Z</time></trkpt><trkpt lat="44.43629195058175" lon="10.235315816343862"><ele>480.66666666666663</ele><time>2026-04-04T08:18:14Z</time></trkpt><trkpt lat="44.43634850448976" lon="10.234995314740859"><ele>484.3333333333333</ele><time>2026-04-04T08:18:15Z</time></trkpt><trkpt lat="44.436375769143986" lon="10.234789164760432"><ele>488.0</ele><time>2026-04-04T08:18:16Z</time></trkpt><trkpt lat="44.43644581728634" lon="10.23461502148295"><ele>489.5</ele><time>2026-04-04T08:18:17Z</time></trkpt><trkpt lat="44.436566408635784" lon="10.234459486921814"><ele>491.0</ele><time>2026-04-04T08:18:18Z</time></trkpt><trkpt lat="44.436667907123955" lon="10.234310152691856"><ele>492.5</ele><time>2026-04-04T08:18:19Z</time></trkpt><trkpt lat="44.43671297845796" lon="10.234155905766436"><ele>494.0</ele><time>2026-04-04T08:18:20Z</time></trkpt><trkpt lat="44.436701354592586" lon="10.233993894480243"><ele>497.66666666666663</ele><time>2026-04-04T08:18:21Z</time></trkpt><trkpt lat="44.436619297784105" lon="10.23388692583991"><ele>501.33333333333337</ele><time>2026-04-04T08:18:22Z</time></trkpt><trkpt lat="44.43646636315397" lon="10.233777306538519"><ele>505.0</ele><time>2026-04-04T08:18:23Z</time></trkpt><trkpt lat="44.43626500304421" lon="10.23373488332775"><ele>505.0</ele><time>2026-04-04T08:18:24Z</time></trkpt><trkpt lat="44.43604417822765" lon="10.233717151875721"><ele>505.0</ele><time>2026-04-04T08:18:25Z</time></trkpt><trkpt lat="44.43582673769373" lon="10.233703405838432"><ele>505.0</ele><time>2026-04-04T08:18:26Z</time></trkpt><trkpt lat="44.435633169994574" lon="10.233691170936568"><ele>505.0</ele><time>2026-04-04T08:18:27Z</time></trkpt><trkpt lat="44.43547120779446" lon="10.233671865683684"><ele>505.0</ele><time>2026-04-04T08:18:28Z</time></trkpt><trkpt lat="44.43534660723533" lon="10.233634707486189"><ele>505.0</ele><time>2026-04-04T08:18:29Z</time></trkpt><trkpt lat="44.43525250103128" lon="10.233554311876548"><ele>505.0</ele><time>2026-04-04T08:18:30Z</time></trkpt><trkpt lat="44.43516611703725" lon="10.233429208683903"><ele>505.0</ele><time>2026-04-04T08:18:31Z</time></trkpt><trkpt lat="44.43512899581283" lon="10.23317839227007"><ele>505.0</ele><time>2026-04-04T08:18:32Z</time></trkpt><trkpt lat="44.435071736367256" lon="10.23293305669509"><ele>505.0</ele><time>2026-04-04T08:18:33Z</time></trkpt><trkpt lat="44.43503348656513" lon="10.23270996173632"><ele>508.0</ele><time>2026-04-04T08:18:34Z</time></trkpt><trkpt lat="44.434987792034725" lon="10.232495997846236"><ele>511.0</ele><time>2026-04-04T08:18:35Z</time></trkpt><trkpt lat="44.43494070987513" lon="10.23229328318928"><ele>514.0</ele><time>2026-04-04T08:18:36Z</time></trkpt><trkpt lat="44.4348883573104" lon="10.232074675009601"><ele>515.5</ele><time>2026-04-04T08:18:37Z</time></trkpt><trkpt lat="44.43484303781228" lon="10.231790001795234"><ele>517.0</ele><time>2026-04-04T08:18:38Z</time></trkpt><trkpt lat="44.43480174160675" lon="10.231682715536328"><ele>518.5</ele><time>2026-04-04T08:18:39Z</time></trkpt><trkpt lat="44.43476235501095" lon="10.231479540771716"><ele>520.0</ele><time>2026-04-04T08:18:40Z</time></trkpt><trkpt lat="44.4347154657215" lon="10.231254232179198"><ele>520.3333333333334</ele><time>2026-04-04T08:18:41Z</time></trkpt><trkpt lat="44.43465928405887" lon="10.231013850406233"><ele>520.6666666666666</ele><time>2026-04-04T08:18:42Z</time></trkpt><trkpt lat="44.434586439760956" lon="10.230764798684685"><ele>521.0</ele><time>2026-04-04T08:18:43Z</time></trkpt><trkpt lat="44.434513796400495" lon="10.230484250225688"><ele>521.0</ele><time>2026-04-04T08:18:44Z</time></trkpt><trkpt lat="44.434416879174094" lon="10.230216936621522"><ele>521.0</ele><time>2026-04-04T08:18:45Z</time></trkpt><trkpt lat="44.43431627585287" lon="10.22989069645015"><ele>525.5</ele><time>2026-04-04T08:18:46Z</time></trkpt><trkpt lat="44.43422770079658" lon="10.229536702573604"><ele>530.0</ele><time>2026-04-04T08:18:47Z</time></trkpt><trkpt lat="44.434162093235045" lon="10.229237202777338"><ele>531.3333333333333</ele><time>2026-04-04T08:18:48Z</time></trkpt><trkpt lat="44.43409698480455" lon="10.228973251476392"><ele>532.6666666666666</ele><time>2026-04-04T08:18:49Z</time></trkpt><trkpt lat="44.43402922115943" lon="10.2287006971788"><ele>534.0</ele><time>2026-04-04T08:18:50Z</time></trkpt><trkpt lat="44.43401635500852" lon="10.228423782346198"><ele>534.0</ele><time>2026-04-04T08:18:51Z</time></trkpt><trkpt lat="44.43398857427006" lon="10.22818141232307"><ele>534.0</ele><time>2026-04-04T08:18:52Z</time></trkpt><trkpt lat="44.43396209074699" lon="10.22795191056018"><ele>534.0</ele><time>2026-04-04T08:18:53Z</time></trkpt><trkpt lat="44.43388466281101" lon="10.22770260522789"><ele>534.0</ele><time>2026-04-04T08:18:54Z</time></trkpt><trkpt lat="44.43377024491007" lon="10.227418082373875"><ele>534.0</ele><time>2026-04-04T08:18:55Z</time></trkpt><trkpt lat="44.433662218180864" lon="10.227110979722086"><ele>537.3333333333334</ele><time>2026-04-04T08:18:56Z</time></trkpt><trkpt lat="44.43356148416044" lon="10.226807389792512"><ele>540.6666666666667</ele><time>2026-04-04T08:18:57Z</time></trkpt><trkpt lat="44.433477654048446" lon="10.226556128953861"><ele>544.0</ele><time>2026-04-04T08:18:58Z</time></trkpt><trkpt lat="44.43344445154376" lon="10.226380812067848"><ele>545.8</ele><time>2026-04-04T08:18:59Z</time></trkpt><trkpt lat="44.43344588163784" lon="10.226258239806349"><ele>547.5999999999999</ele><time>2026-04-04T08:19:00Z</time></trkpt><trkpt lat="44.4334947392202" lon="10.226141109184507"><ele>549.4</ele><time>2026-04-04T08:19:01Z</time></trkpt><trkpt lat="44.433582710144684" lon="10.226065137550819"><ele>551.1999999999999</ele><time>2026-04-04T08:19:02Z</time></trkpt><trkpt lat="44.43369753592704" lon="10.226059013827896"><ele>553.0</ele><time>2026-04-04T08:19:03Z</time></trkpt><trkpt lat="44.43385571027183" lon="10.226101201582535"><ele>553.3333333333334</ele><time>2026-04-04T08:19:04Z</time></trkpt><trkpt lat="44.43405376940426" lon="10.226200794439064"><ele>553.6666666666666</ele><time>2026-04-04T08:19:05Z</time></trkpt><trkpt lat="44.43424384328787" lon="10.2262783180482"><ele>554.0</ele><time>2026-04-04T08:19:06Z</time></trkpt><trkpt lat="44.434372625084784" lon="10.22631674953254"><ele>554.0</ele><time>2026-04-04T08:19:07Z</time></trkpt><trkpt lat="44.43444024187571" lon="10.226331259368559"><ele>554.0</ele><time>2026-04-04T08:19:08Z</time></trkpt><trkpt lat="44.43452085832467" lon="10.226347066505419"><ele>554.0</ele><time>2026-04-04T08:19:10Z</time></trkpt><trkpt lat="44.43463422458422" lon="10.226344695374134"><ele>554.0</ele><time>2026-04-04T08:19:12Z</time></trkpt><trkpt lat="44.434730032228074" lon="10.226253499195163"><ele>554.0</ele><time>2026-04-04T08:19:14Z</time></trkpt><trkpt lat="44.43477907628904" lon="10.22616939006799"><ele>554.8333333333333</ele><time>2026-04-04T08:19:15Z</time></trkpt><trkpt lat="44.43480760946418" lon="10.226082092003466"><ele>555.6666666666666</ele><time>2026-04-04T08:19:16Z</time></trkpt><trkpt lat="44.4348198639452" lon="10.225953263267321"><ele>556.5</ele><time>2026-04-04T08:19:17Z</time></trkpt><trkpt lat="44.43481870666072" lon="10.225856990009195"><ele>557.3333333333334</ele><time>2026-04-04T08:19:18Z</time></trkpt><trkpt lat="44.434796166948516" lon="10.225750979267191"><ele>558.1666666666667</ele><time>2026-04-04T08:19:21Z</time></trkpt><trkpt lat="44.434774323426296" lon="10.225612958786346"><ele>559.0</ele><time>2026-04-04T08:19:22Z</time></trkpt><trkpt lat="44.434724868145764" lon="10.225388575655183"><ele>560.0</ele><time>2026-04-04T08:19:23Z</time></trkpt><trkpt lat="44.4346783728978" lon="10.225145962619603"><ele>561.0</ele><time>2026-04-04T08:19:24Z</time></trkpt><trkpt lat="44.43462919627032" lon="10.22489299784655"><ele>562.0</ele><time>2026-04-04T08:19:25Z</time></trkpt><trkpt lat="44.43459428802607" lon="10.224690266132951"><ele>564.3333333333334</ele><time>2026-04-04T08:19:26Z</time></trkpt><trkpt lat="44.43457210709791" lon="10.224477646874627"><ele>566.6666666666666</ele><time>2026-04-04T08:19:27Z</time></trkpt><trkpt lat="44.43460750127858" lon="10.224263402477453"><ele>569.0</ele><time>2026-04-04T08:19:28Z</time></trkpt><trkpt lat="44.434696316726786" lon="10.22405424140241"><ele>572.0</ele><time>2026-04-04T08:19:29Z</time></trkpt><trkpt lat="44.434832449612934" lon="10.223821856266989"><ele>575.0</ele><time>2026-04-04T08:19:30Z</time></trkpt><trkpt lat="44.43495887926803" lon="10.223584484491829"><ele>578.0</ele><time>2026-04-04T08:19:31Z</time></trkpt><trkpt lat="44.43506534217623" lon="10.223389495092595"><ele>578.0</ele><time>2026-04-04T08:19:32Z</time></trkpt><trkpt lat="44.43510636916739" lon="10.223157303292096"><ele>578.0</ele><time>2026-04-04T08:19:33Z</time></trkpt><trkpt lat="44.43513387455736" lon="10.222922768291264"><ele>578.0</ele><time>2026-04-04T08:19:34Z</time></trkpt><trkpt lat="44.43525269448489" lon="10.222778458977231"><ele>579.3333333333333</ele><time>2026-04-04T08:19:35Z</time></trkpt><trkpt lat="44.435402674155185" lon="10.222584258275372"><ele>580.6666666666666</ele><time>2026-04-04T08:19:36Z</time></trkpt><trkpt lat="44.43557143785507" lon="10.222398440349862"><ele>582.0</ele><time>2026-04-04T08:19:37Z</time></trkpt><trkpt lat="44.43571410015056" lon="10.222152541086162"><ele>587.6666666666666</ele><time>2026-04-04T08:19:38Z</time></trkpt><trkpt lat="44.43584439253318" lon="10.221948531613469"><ele>593.3333333333333</ele><time>2026-04-04T08:19:39Z</time></trkpt><trkpt lat="44.43598691380596" lon="10.221798106395335"><ele>599.0</ele><time>2026-04-04T08:19:40Z</time></trkpt><trkpt lat="44.43616996513557" lon="10.221713675805361"><ele>596.6666666666666</ele><time>2026-04-04T08:19:41Z</time></trkpt><trkpt lat="44.43637457554396" lon="10.221664683628864"><ele>594.3333333333334</ele><time>2026-04-04T08:19:42Z</time></trkpt><trkpt lat="44.436603983833315" lon="10.221665018976928"><ele>592.0</ele><time>2026-04-04T08:19:42.999Z</time></trkpt><trkpt lat="44.43681503182228" lon="10.221639413895451"><ele>592.0</ele><time>2026-04-04T08:19:43.999Z</time></trkpt><trkpt lat="44.436978374794094" lon="10.221584535693522"><ele>592.0</ele><time>2026-04-04T08:19:44.999Z</time></trkpt><trkpt lat="44.43711956792791" lon="10.22144206567337"><ele>592.0</ele><time>2026-04-04T08:19:45.999Z</time></trkpt><trkpt lat="44.43724055949568" lon="10.221291350473376"><ele>595.0</ele><time>2026-04-04T08:19:46.999Z</time></trkpt><trkpt lat="44.43734294141054" lon="10.221166924579418"><ele>598.0</ele><time>2026-04-04T08:19:47.999Z</time></trkpt><trkpt lat="44.437416016729074" lon="10.220964397819856"><ele>601.0</ele><time>2026-04-04T08:19:48.999Z</time></trkpt><trkpt lat="44.43747237683826" lon="10.220716447051025"><ele>604.0</ele><time>2026-04-04T08:19:49.999Z</time></trkpt><trkpt lat="44.43749186267086" lon="10.220455879264797"><ele>607.0</ele><time>2026-04-04T08:19:50.999Z</time></trkpt><trkpt lat="44.43748299745523" lon="10.220249290994627"><ele>610.0</ele><time>2026-04-04T08:19:51.999Z</time></trkpt><trkpt lat="44.43751032340837" lon="10.220110688875893"><ele>613.0</ele><time>2026-04-04T08:19:52.999Z</time></trkpt><trkpt lat="44.437600603808406" lon="10.220021352486581"><ele>613.0</ele><time>2026-04-04T08:19:53.999Z</time></trkpt><trkpt lat="44.437769737172395" lon="10.220000773152803"><ele>613.0</ele><time>2026-04-04T08:19:54.999Z</time></trkpt><trkpt lat="44.437955775040585" lon="10.219963724329324"><ele>613.0</ele><time>2026-04-04T08:19:55.999Z</time></trkpt><trkpt lat="44.43814949423384" lon="10.219990028125672"><ele>612.0</ele><time>2026-04-04T08:19:56.999Z</time></trkpt><trkpt lat="44.43832518906305" lon="10.219994976459715"><ele>611.0</ele><time>2026-04-04T08:19:57.999Z</time></trkpt><trkpt lat="44.438457366625364" lon="10.220000985379272"><ele>610.0</ele><time>2026-04-04T08:19:58.999Z</time></trkpt><trkpt lat="44.43853326441246" lon="10.219990224342958"><ele>609.0</ele><time>2026-04-04T08:19:59.999Z</time></trkpt><trkpt lat="44.438564242663105" lon="10.219900033006299"><ele>611.75</ele><time>2026-04-04T08:20:00.999Z</time></trkpt><trkpt lat="44.43858902760441" lon="10.219809353353277"><ele>614.5</ele><time>2026-04-04T08:20:01.999Z</time></trkpt><trkpt lat="44.4385547863641" lon="10.219672816138496"><ele>617.25</ele><time>2026-04-04T08:20:02.999Z</time></trkpt><trkpt lat="44.43845321032313" lon="10.219580891875529"><ele>620.0</ele><time>2026-04-04T08:20:03.999Z</time></trkpt><trkpt lat="44.43828935256968" lon="10.219544029446382"><ele>620.0</ele><time>2026-04-04T08:20:04.999Z</time></trkpt><trkpt lat="44.43809799032582" lon="10.219491384410833"><ele>620.0</ele><time>2026-04-04T08:20:06Z</time></trkpt><trkpt lat="44.43790904616145" lon="10.219427729172699"><ele>620.0</ele><time>2026-04-04T08:20:07Z</time></trkpt><trkpt lat="44.43770245919276" lon="10.21933270046904"><ele>620.25</ele><time>2026-04-04T08:20:08Z</time></trkpt><trkpt lat="44.43752519159109" lon="10.219242322985561"><ele>620.5</ele><time>2026-04-04T08:20:09Z</time></trkpt><trkpt lat="44.43741142607128" lon="10.219142269144612"><ele>620.75</ele><time>2026-04-04T08:20:10Z</time></trkpt><trkpt lat="44.437339723447366" lon="10.219024667231801"><ele>621.0</ele><time>2026-04-04T08:20:11Z</time></trkpt><trkpt lat="44.437311150969606" lon="10.218840930086916"><ele>621.0</ele><time>2026-04-04T08:20:12Z</time></trkpt><trkpt lat="44.43728465592254" lon="10.218580652127388"><ele>621.0</ele><time>2026-04-04T08:20:13Z</time></trkpt><trkpt lat="44.437258492862384" lon="10.218350128035016"><ele>621.0</ele><time>2026-04-04T08:20:14Z</time></trkpt><trkpt lat="44.43721489978515" lon="10.21815406884178"><ele>621.6666666666666</ele><time>2026-04-04T08:20:15Z</time></trkpt><trkpt lat="44.437165869996235" lon="10.217961989246833"><ele>622.3333333333333</ele><time>2026-04-04T08:20:16Z</time></trkpt><trkpt lat="44.43705517005232" lon="10.2177825253806"><ele>623.0</ele><time>2026-04-04T08:20:17Z</time></trkpt><trkpt lat="44.43688476301662" lon="10.217630979909337"><ele>623.0</ele><time>2026-04-04T08:20:18Z</time></trkpt><trkpt lat="44.43669885856802" lon="10.217504773172362"><ele>623.0</ele><time>2026-04-04T08:20:19Z</time></trkpt><trkpt lat="44.436513200485045" lon="10.217355953107981"><ele>623.0</ele><time>2026-04-04T08:20:20Z</time></trkpt><trkpt lat="44.43632953422938" lon="10.217190694135219"><ele>625.3333333333333</ele><time>2026-04-04T08:20:21Z</time></trkpt><trkpt lat="44.43617003938354" lon="10.217044945172283"><ele>627.6666666666666</ele><time>2026-04-04T08:20:22Z</time></trkpt><trkpt lat="44.43604632685269" lon="10.21688864339424"><ele>630.0</ele><time>2026-04-04T08:20:23Z</time></trkpt><trkpt lat="44.43594691859532" lon="10.216735960888865"><ele>630.0</ele><time>2026-04-04T08:20:24Z</time></trkpt><trkpt lat="44.435889767764685" lon="10.216519018390297"><ele>630.0</ele><time>2026-04-04T08:20:25Z</time></trkpt><trkpt lat="44.43588434693166" lon="10.216255585337075"><ele>630.0</ele><time>2026-04-04T08:20:26Z</time></trkpt><trkpt lat="44.435916742602366" lon="10.215960064651531"><ele>629.6666666666666</ele><time>2026-04-04T08:20:27Z</time></trkpt><trkpt lat="44.435954871444515" lon="10.215644639691364"><ele>629.3333333333333</ele><time>2026-04-04T08:20:28Z</time></trkpt><trkpt lat="44.43596103321529" lon="10.215348213792216"><ele>629.0</ele><time>2026-04-04T08:20:29Z</time></trkpt><trkpt lat="44.43594301503576" lon="10.21505075898066"><ele>631.0</ele><time>2026-04-04T08:20:30Z</time></trkpt><trkpt lat="44.435931820947964" lon="10.214781199909057"><ele>633.0</ele><time>2026-04-04T08:20:31Z</time></trkpt><trkpt lat="44.4359657719473" lon="10.214653941101023"><ele>635.0</ele><time>2026-04-04T08:20:32Z</time></trkpt><trkpt lat="44.43603342580552" lon="10.214326833133653"><ele>635.0</ele><time>2026-04-04T08:20:33Z</time></trkpt><trkpt lat="44.43613801124237" lon="10.214106556530485"><ele>635.0</ele><time>2026-04-04T08:20:34Z</time></trkpt><trkpt lat="44.436248280903136" lon="10.213880971514913"><ele>635.0</ele><time>2026-04-04T08:20:35Z</time></trkpt><trkpt lat="44.43636932360524" lon="10.213628644852468"><ele>636.6666666666666</ele><time>2026-04-04T08:20:36Z</time></trkpt><trkpt lat="44.43649574529305" lon="10.213382546973653"><ele>638.3333333333334</ele><time>2026-04-04T08:20:37Z</time></trkpt><trkpt lat="44.43661939655303" lon="10.213136179296475"><ele>640.0</ele><time>2026-04-04T08:20:38Z</time></trkpt><trkpt lat="44.43674672116975" lon="10.212892583791236"><ele>640.0</ele><time>2026-04-04T08:20:39Z</time></trkpt><trkpt lat="44.436882556080015" lon="10.212666675674193"><ele>640.0</ele><time>2026-04-04T08:20:40Z</time></trkpt><trkpt lat="44.437024925269355" lon="10.212469395375305"><ele>640.0</ele><time>2026-04-04T08:20:41Z</time></trkpt><trkpt lat="44.43714493985362" lon="10.212279747267972"><ele>637.6666666666667</ele><time>2026-04-04T08:20:42Z</time></trkpt><trkpt lat="44.43725037585325" lon="10.21206082325943"><ele>635.3333333333334</ele><time>2026-04-04T08:20:43Z</time></trkpt><trkpt lat="44.437341613556036" lon="10.211815138745727"><ele>633.0</ele><time>2026-04-04T08:20:44Z</time></trkpt><trkpt lat="44.43741758042087" lon="10.211549971429278"><ele>635.0</ele><time>2026-04-04T08:20:45Z</time></trkpt><trkpt lat="44.4374915697081" lon="10.21128626663052"><ele>637.0</ele><time>2026-04-04T08:20:46Z</time></trkpt><trkpt lat="44.437570767068294" lon="10.211040083974337"><ele>639.0</ele><time>2026-04-04T08:20:47Z</time></trkpt><trkpt lat="44.43763510159192" lon="10.21082558377842"><ele>640.6666666666666</ele><time>2026-04-04T08:20:48Z</time></trkpt><trkpt lat="44.43767793915105" lon="10.21057226373523"><ele>642.3333333333333</ele><time>2026-04-04T08:20:49Z</time></trkpt><trkpt lat="44.43769420935523" lon="10.210267055323119"><ele>644.0</ele><time>2026-04-04T08:20:50Z</time></trkpt><trkpt lat="44.43769100370677" lon="10.209948498029206"><ele>646.0</ele><time>2026-04-04T08:20:51Z</time></trkpt><trkpt lat="44.43770160842678" lon="10.209618470337162"><ele>648.0</ele><time>2026-04-04T08:20:52Z</time></trkpt><trkpt lat="44.43771470322469" lon="10.209293106192675"><ele>649.0</ele><time>2026-04-04T08:20:53Z</time></trkpt><trkpt lat="44.43772013862071" lon="10.20897975262919"><ele>650.0</ele><time>2026-04-04T08:20:54Z</time></trkpt><trkpt lat="44.43773676677882" lon="10.208705559798338"><ele>651.0</ele><time>2026-04-04T08:20:55Z</time></trkpt><trkpt lat="44.43777415986126" lon="10.208478142238755"><ele>651.0</ele><time>2026-04-04T08:20:56Z</time></trkpt><trkpt lat="44.43787287705648" lon="10.20825537002431"><ele>651.0</ele><time>2026-04-04T08:20:57Z</time></trkpt><trkpt lat="44.438034238576215" lon="10.20805124612789"><ele>651.0</ele><time>2026-04-04T08:20:58Z</time></trkpt><trkpt lat="44.4382170523584" lon="10.207875561103426"><ele>649.6666666666666</ele><time>2026-04-04T08:20:59Z</time></trkpt><trkpt lat="44.43837808509425" lon="10.207698722327704"><ele>648.3333333333333</ele><time>2026-04-04T08:21:00Z</time></trkpt><trkpt lat="44.43848942247044" lon="10.207538625776742"><ele>647.0</ele><time>2026-04-04T08:21:01Z</time></trkpt><trkpt lat="44.438564553358084" lon="10.20737121696088"><ele>647.0</ele><time>2026-04-04T08:21:02Z</time></trkpt><trkpt lat="44.43859058374986" lon="10.207155786823341"><ele>647.0</ele><time>2026-04-04T08:21:03Z</time></trkpt><trkpt lat="44.438570244679774" lon="10.206880704977294"><ele>647.0</ele><time>2026-04-04T08:21:04Z</time></trkpt><trkpt lat="44.438597558328965" lon="10.206565172600358"><ele>646.5</ele><time>2026-04-04T08:21:05Z</time></trkpt><trkpt lat="44.43863229254699" lon="10.20624090090753"><ele>646.0</ele><time>2026-04-04T08:21:06Z</time></trkpt><trkpt lat="44.43868409551411" lon="10.205924054027998"><ele>648.0</ele><time>2026-04-04T08:21:07Z</time></trkpt><trkpt lat="44.43872379800958" lon="10.205582641866286"><ele>650.0</ele><time>2026-04-04T08:21:08Z</time></trkpt><trkpt lat="44.43874981306352" lon="10.20522093080425"><ele>650.0</ele><time>2026-04-04T08:21:09Z</time></trkpt><trkpt lat="44.43878472333758" lon="10.20486236162536"><ele>650.0</ele><time>2026-04-04T08:21:10Z</time></trkpt><trkpt lat="44.438827903413355" lon="10.20454815134417"><ele>648.3333333333333</ele><time>2026-04-04T08:21:11Z</time></trkpt><trkpt lat="44.43886506256844" lon="10.204273860558803"><ele>646.6666666666666</ele><time>2026-04-04T08:21:12Z</time></trkpt><trkpt lat="44.43887386191003" lon="10.204033547901737"><ele>645.0</ele><time>2026-04-04T08:21:13Z</time></trkpt><trkpt lat="44.43882591128987" lon="10.203808782913013"><ele>646.3333333333334</ele><time>2026-04-04T08:21:14Z</time></trkpt><trkpt lat="44.43873708853799" lon="10.203564510314676"><ele>647.6666666666667</ele><time>2026-04-04T08:21:15Z</time></trkpt><trkpt lat="44.43862433499321" lon="10.203292685948446"><ele>649.0</ele><time>2026-04-04T08:21:16Z</time></trkpt><trkpt lat="44.438519777841385" lon="10.20300695883427"><ele>649.0</ele><time>2026-04-04T08:21:17Z</time></trkpt><trkpt lat="44.43843339953268" lon="10.202747502214125"><ele>649.0</ele><time>2026-04-04T08:21:18Z</time></trkpt><trkpt lat="44.43842349422092" lon="10.20250024953773"><ele>649.0</ele><time>2026-04-04T08:21:19Z</time></trkpt><trkpt lat="44.43839381061331" lon="10.202277318395517"><ele>647.3333333333334</ele><time>2026-04-04T08:21:20Z</time></trkpt><trkpt lat="44.438363120578536" lon="10.202046985154478"><ele>645.6666666666666</ele><time>2026-04-04T08:21:21Z</time></trkpt><trkpt lat="44.43829534735076" lon="10.20181476586128"><ele>644.0</ele><time>2026-04-04T08:21:22Z</time></trkpt><trkpt lat="44.43818470865493" lon="10.201607191192611"><ele>645.6666666666666</ele><time>2026-04-04T08:21:23Z</time></trkpt><trkpt lat="44.438050888964874" lon="10.201449309159585"><ele>647.3333333333334</ele><time>2026-04-04T08:21:24Z</time></trkpt><trkpt lat="44.43791274414416" lon="10.201303318273919"><ele>649.0</ele><time>2026-04-04T08:21:25Z</time></trkpt><trkpt lat="44.43778145081833" lon="10.201155720296663"><ele>649.0</ele><time>2026-04-04T08:21:26Z</time></trkpt><trkpt lat="44.43765093831292" lon="10.201017998681078"><ele>649.0</ele><time>2026-04-04T08:21:27Z</time></trkpt><trkpt lat="44.4375183290118" lon="10.200889792582371"><ele>649.0</ele><time>2026-04-04T08:21:28Z</time></trkpt><trkpt lat="44.43738063245876" lon="10.200759735682027"><ele>650.3333333333334</ele><time>2026-04-04T08:21:29Z</time></trkpt><trkpt lat="44.43725011413732" lon="10.200618618134321"><ele>651.6666666666666</ele><time>2026-04-04T08:21:30Z</time></trkpt><trkpt lat="44.437147842322844" lon="10.20044673546626"><ele>653.0</ele><time>2026-04-04T08:21:31Z</time></trkpt><trkpt lat="44.43705914902946" lon="10.20027230420735"><ele>653.0</ele><time>2026-04-04T08:21:32Z</time></trkpt><trkpt lat="44.43696490305748" lon="10.200080348661205"><ele>653.0</ele><time>2026-04-04T08:21:33Z</time></trkpt><trkpt lat="44.43687331329069" lon="10.199889678495364"><ele>653.0</ele><time>2026-04-04T08:21:34Z</time></trkpt><trkpt lat="44.436779320013706" lon="10.19971073126321"><ele>651.3333333333333</ele><time>2026-04-04T08:21:35Z</time></trkpt><trkpt lat="44.43668109813813" lon="10.199532404227359"><ele>649.6666666666666</ele><time>2026-04-04T08:21:36Z</time></trkpt><trkpt lat="44.43657419501214" lon="10.199372944528017"><ele>648.0</ele><time>2026-04-04T08:21:37Z</time></trkpt><trkpt lat="44.43645785571378" lon="10.199235503189662"><ele>648.0</ele><time>2026-04-04T08:21:38Z</time></trkpt><trkpt lat="44.43634918646154" lon="10.19910876092375"><ele>648.0</ele><time>2026-04-04T08:21:39Z</time></trkpt><trkpt lat="44.436252958688776" lon="10.198992065696807"><ele>648.0</ele><time>2026-04-04T08:21:40Z</time></trkpt><trkpt lat="44.43618021760402" lon="10.198856170441559"><ele>648.0</ele><time>2026-04-04T08:21:41Z</time></trkpt><trkpt lat="44.43612151088583" lon="10.19871316115463"><ele>648.5</ele><time>2026-04-04T08:21:42Z</time></trkpt><trkpt lat="44.43609038081347" lon="10.19852934016251"><ele>649.0</ele><time>2026-04-04T08:21:43Z</time></trkpt><trkpt lat="44.436131762551156" lon="10.198320587057648"><ele>649.5</ele><time>2026-04-04T08:21:44Z</time></trkpt><trkpt lat="44.436163529668235" lon="10.198143988898533"><ele>650.0</ele><time>2026-04-04T08:21:45Z</time></trkpt><trkpt lat="44.436331144100976" lon="10.198007030680003"><ele>650.0</ele><time>2026-04-04T08:21:46Z</time></trkpt><trkpt lat="44.43644393837228" lon="10.19786449988224"><ele>650.0</ele><time>2026-04-04T08:21:47Z</time></trkpt><trkpt lat="44.43653560742757" lon="10.197711065639421"><ele>650.0</ele><time>2026-04-04T08:21:48Z</time></trkpt><trkpt lat="44.436631274458286" lon="10.197551579281159"><ele>650.0</ele><time>2026-04-04T08:21:49Z</time></trkpt><trkpt lat="44.436730068877175" lon="10.197391995630376"><ele>651.3333333333333</ele><time>2026-04-04T08:21:50Z</time></trkpt><trkpt lat="44.43683549171796" lon="10.197237246474998"><ele>652.6666666666666</ele><time>2026-04-04T08:21:51Z</time></trkpt><trkpt lat="44.43693767622432" lon="10.197074863983866"><ele>654.0</ele><time>2026-04-04T08:21:51.999Z</time></trkpt><trkpt lat="44.43703384717971" lon="10.196909923516873"><ele>654.0</ele><time>2026-04-04T08:21:52.999Z</time></trkpt><trkpt lat="44.43712858782601" lon="10.196755227575379"><ele>654.0</ele><time>2026-04-04T08:21:53.999Z</time></trkpt><trkpt lat="44.437213141566914" lon="10.196595244524401"><ele>654.0</ele><time>2026-04-04T08:21:54.999Z</time></trkpt><trkpt lat="44.437287699576956" lon="10.19640478484793"><ele>654.0</ele><time>2026-04-04T08:21:55.999Z</time></trkpt><trkpt lat="44.43732135667138" lon="10.196197666507103"><ele>652.0</ele><time>2026-04-04T08:21:56.999Z</time></trkpt><trkpt lat="44.437327066356445" lon="10.19594065523055"><ele>650.0</ele><time>2026-04-04T08:21:57.999Z</time></trkpt><trkpt lat="44.43733867134481" lon="10.195705741612985"><ele>648.0</ele><time>2026-04-04T08:21:58.999Z</time></trkpt><trkpt lat="44.43733994179757" lon="10.195475076537754"><ele>648.0</ele><time>2026-04-04T08:21:59.999Z</time></trkpt><trkpt lat="44.43734927206293" lon="10.195247996893842"><ele>648.0</ele><time>2026-04-04T08:22:00.999Z</time></trkpt><trkpt lat="44.437349153961925" lon="10.195024587404598"><ele>648.0</ele><time>2026-04-04T08:22:01.999Z</time></trkpt><trkpt lat="44.43734958241006" lon="10.194816966515349"><ele>648.3333333333334</ele><time>2026-04-04T08:22:02.999Z</time></trkpt><trkpt lat="44.43735348453564" lon="10.19460731959429"><ele>648.6666666666667</ele><time>2026-04-04T08:22:03.999Z</time></trkpt><trkpt lat="44.43736358129097" lon="10.194391192391592"><ele>649.0</ele><time>2026-04-04T08:22:04.999Z</time></trkpt><trkpt lat="44.437371016360295" lon="10.194176135932276"><ele>650.0</ele><time>2026-04-04T08:22:05.999Z</time></trkpt><trkpt lat="44.437378693162806" lon="10.193979535609687"><ele>651.0</ele><time>2026-04-04T08:22:06.999Z</time></trkpt><trkpt lat="44.43740573185102" lon="10.193788065102105"><ele>652.0</ele><time>2026-04-04T08:22:07.999Z</time></trkpt><trkpt lat="44.43744358200172" lon="10.19360194110647"><ele>653.0</ele><time>2026-04-04T08:22:08.999Z</time></trkpt><trkpt lat="44.437494669158184" lon="10.193402493347786"><ele>653.0</ele><time>2026-04-04T08:22:09.999Z</time></trkpt><trkpt lat="44.437555357532794" lon="10.193181884137466"><ele>653.0</ele><time>2026-04-04T08:22:10.999Z</time></trkpt><trkpt lat="44.43763792952632" lon="10.192946913287116"><ele>653.0</ele><time>2026-04-04T08:22:12Z</time></trkpt><trkpt lat="44.43776196733871" lon="10.192635491152974"><ele>654.3333333333333</ele><time>2026-04-04T08:22:13Z</time></trkpt><trkpt lat="44.437859979569744" lon="10.192356628492332"><ele>655.6666666666666</ele><time>2026-04-04T08:22:14Z</time></trkpt><trkpt lat="44.43795523624851" lon="10.192090171831302"><ele>657.0</ele><time>2026-04-04T08:22:15Z</time></trkpt><trkpt lat="44.43801838827088" lon="10.19184882833084"><ele>656.6666666666666</ele><time>2026-04-04T08:22:16Z</time></trkpt><trkpt lat="44.4380491042662" lon="10.191597775628004"><ele>656.3333333333333</ele><time>2026-04-04T08:22:17Z</time></trkpt><trkpt lat="44.43802007976594" lon="10.191299752153146"><ele>656.0</ele><time>2026-04-04T08:22:18Z</time></trkpt><trkpt lat="44.437943943013984" lon="10.190978975855955"><ele>654.0</ele><time>2026-04-04T08:22:19Z</time></trkpt><trkpt lat="44.43781991939649" lon="10.190635699602282"><ele>652.0</ele><time>2026-04-04T08:22:20Z</time></trkpt><trkpt lat="44.43770645822152" lon="10.190290741265237"><ele>652.0</ele><time>2026-04-04T08:22:21Z</time></trkpt><trkpt lat="44.43761850580959" lon="10.189981771978944"><ele>652.0</ele><time>2026-04-04T08:22:22Z</time></trkpt><trkpt lat="44.437539595111524" lon="10.189725181734625"><ele>652.0</ele><time>2026-04-04T08:22:23Z</time></trkpt><trkpt lat="44.43747475740613" lon="10.18950051104453"><ele>649.3333333333334</ele><time>2026-04-04T08:22:24Z</time></trkpt><trkpt lat="44.43746780757089" lon="10.189297397148126"><ele>646.6666666666666</ele><time>2026-04-04T08:22:25Z</time></trkpt><trkpt lat="44.43749020259313" lon="10.189066834798846"><ele>644.0</ele><time>2026-04-04T08:22:26Z</time></trkpt><trkpt lat="44.437560965675054" lon="10.188776723062634"><ele>644.0</ele><time>2026-04-04T08:22:27Z</time></trkpt><trkpt lat="44.43762667617586" lon="10.188463290919415"><ele>644.0</ele><time>2026-04-04T08:22:28Z</time></trkpt><trkpt lat="44.43770871143132" lon="10.188171692014315"><ele>642.0</ele><time>2026-04-04T08:22:29Z</time></trkpt><trkpt lat="44.4377748445448" lon="10.187917688703687"><ele>640.0</ele><time>2026-04-04T08:22:30Z</time></trkpt><trkpt lat="44.4378221693457" lon="10.187713461293834"><ele>638.0</ele><time>2026-04-04T08:22:31Z</time></trkpt><trkpt lat="44.43783695215719" lon="10.187523915793765"><ele>632.6666666666666</ele><time>2026-04-04T08:22:32Z</time></trkpt><trkpt lat="44.437796025547705" lon="10.187335599299054"><ele>627.3333333333334</ele><time>2026-04-04T08:22:33Z</time></trkpt><trkpt lat="44.43767291572211" lon="10.187137179588484"><ele>622.0</ele><time>2026-04-04T08:22:34Z</time></trkpt><trkpt lat="44.437509992227966" lon="10.186975287464083"><ele>622.0</ele><time>2026-04-04T08:22:35Z</time></trkpt><trkpt lat="44.4373517342612" lon="10.186877745711834"><ele>622.0</ele><time>2026-04-04T08:22:36Z</time></trkpt><trkpt lat="44.437211245319" lon="10.186784640255782"><ele>622.0</ele><time>2026-04-04T08:22:37Z</time></trkpt><trkpt lat="44.43708821414237" lon="10.186677149558763"><ele>623.0</ele><time>2026-04-04T08:22:38Z</time></trkpt><trkpt lat="44.436961959600325" lon="10.18654874965228"><ele>624.0</ele><time>2026-04-04T08:22:39Z</time></trkpt><trkpt lat="44.43682660715907" lon="10.186383897841484"><ele>625.0</ele><time>2026-04-04T08:22:40Z</time></trkpt><trkpt lat="44.43670469017803" lon="10.186205790563058"><ele>625.0</ele><time>2026-04-04T08:22:41Z</time></trkpt><trkpt lat="44.43660217820296" lon="10.186013278753984"><ele>625.0</ele><time>2026-04-04T08:22:42Z</time></trkpt><trkpt lat="44.43651472597742" lon="10.185833662491751"><ele>625.0</ele><time>2026-04-04T08:22:43Z</time></trkpt><trkpt lat="44.43650726107031" lon="10.185617300216753"><ele>623.3333333333334</ele><time>2026-04-04T08:22:44Z</time></trkpt><trkpt lat="44.43651994292951" lon="10.18533996273105"><ele>621.6666666666666</ele><time>2026-04-04T08:22:45Z</time></trkpt><trkpt lat="44.436480918094105" lon="10.185082268818404"><ele>620.0</ele><time>2026-04-04T08:22:46Z</time></trkpt><trkpt lat="44.43646399247438" lon="10.184851412242582"><ele>620.6666666666666</ele><time>2026-04-04T08:22:47Z</time></trkpt><trkpt lat="44.43648235267594" lon="10.184643995316057"><ele>621.3333333333334</ele><time>2026-04-04T08:22:48Z</time></trkpt><trkpt lat="44.43655998854769" lon="10.184484411388105"><ele>622.0</ele><time>2026-04-04T08:22:49Z</time></trkpt><trkpt lat="44.43669822760613" lon="10.184324712810103"><ele>622.0</ele><time>2026-04-04T08:22:50Z</time></trkpt><trkpt lat="44.43686191236324" lon="10.184130759436997"><ele>622.0</ele><time>2026-04-04T08:22:51Z</time></trkpt><trkpt lat="44.43702130934892" lon="10.183967941268692"><ele>622.0</ele><time>2026-04-04T08:22:52Z</time></trkpt><trkpt lat="44.43715055626165" lon="10.183727207445868"><ele>617.3333333333334</ele><time>2026-04-04T08:22:53Z</time></trkpt><trkpt lat="44.4372715892018" lon="10.183458857080813"><ele>612.6666666666666</ele><time>2026-04-04T08:22:54Z</time></trkpt><trkpt lat="44.43737066393683" lon="10.183224142447552"><ele>608.0</ele><time>2026-04-04T08:22:55Z</time></trkpt><trkpt lat="44.437439622000355" lon="10.1829826446142"><ele>607.3333333333333</ele><time>2026-04-04T08:22:56Z</time></trkpt><trkpt lat="44.43746927570805" lon="10.182698688843134"><ele>606.6666666666666</ele><time>2026-04-04T08:22:57Z</time></trkpt><trkpt lat="44.43746463042247" lon="10.182452481814085"><ele>606.0</ele><time>2026-04-04T08:22:58Z</time></trkpt><trkpt lat="44.43741468721814" lon="10.18226692944169"><ele>608.0</ele><time>2026-04-04T08:22:59Z</time></trkpt><trkpt lat="44.437334480948685" lon="10.182092829450953"><ele>610.0</ele><time>2026-04-04T08:23:00Z</time></trkpt><trkpt lat="44.43716611592963" lon="10.181939844390714"><ele>612.0</ele><time>2026-04-04T08:23:01Z</time></trkpt><trkpt lat="44.43696487272109" lon="10.181786848197142"><ele>612.0</ele><time>2026-04-04T08:23:02Z</time></trkpt><trkpt lat="44.43680778759794" lon="10.18163158012927"><ele>612.0</ele><time>2026-04-04T08:23:03Z</time></trkpt><trkpt lat="44.436715108868775" lon="10.181400789034775"><ele>612.0</ele><time>2026-04-04T08:23:04Z</time></trkpt><trkpt lat="44.436622182418574" lon="10.181121884203467"><ele>608.0</ele><time>2026-04-04T08:23:05Z</time></trkpt><trkpt lat="44.43651963966363" lon="10.180800406453933"><ele>604.0</ele><time>2026-04-04T08:23:06Z</time></trkpt><trkpt lat="44.436422282046586" lon="10.180476281308607"><ele>602.0</ele><time>2026-04-04T08:23:07Z</time></trkpt><trkpt lat="44.43634474328279" lon="10.180188185179178"><ele>600.0</ele><time>2026-04-04T08:23:08Z</time></trkpt><trkpt lat="44.43630321438437" lon="10.179914033846746"><ele>598.0</ele><time>2026-04-04T08:23:09Z</time></trkpt><trkpt lat="44.43631102014407" lon="10.179650753150886"><ele>598.3333333333334</ele><time>2026-04-04T08:23:10Z</time></trkpt><trkpt lat="44.43628609039615" lon="10.179395524376963"><ele>598.6666666666666</ele><time>2026-04-04T08:23:11Z</time></trkpt><trkpt lat="44.43624890245578" lon="10.179130868494873"><ele>599.0</ele><time>2026-04-04T08:23:12Z</time></trkpt><trkpt lat="44.43616179025218" lon="10.178822114309039"><ele>599.0</ele><time>2026-04-04T08:23:13Z</time></trkpt><trkpt lat="44.436100515986986" lon="10.17853833591799"><ele>599.0</ele><time>2026-04-04T08:23:14Z</time></trkpt><trkpt lat="44.436041041899124" lon="10.178272428354257"><ele>599.0</ele><time>2026-04-04T08:23:15Z</time></trkpt><trkpt lat="44.435934077860516" lon="10.178005288772916"><ele>593.0</ele><time>2026-04-04T08:23:16Z</time></trkpt><trkpt lat="44.43579563318047" lon="10.177734856611135"><ele>587.0</ele><time>2026-04-04T08:23:17Z</time></trkpt><trkpt lat="44.43562780928435" lon="10.17744786024662"><ele>591.0</ele><time>2026-04-04T08:23:18Z</time></trkpt><trkpt lat="44.43547140450788" lon="10.177147181437716"><ele>595.0</ele><time>2026-04-04T08:23:19Z</time></trkpt><trkpt lat="44.43531916076603" lon="10.17686629068843"><ele>595.0</ele><time>2026-04-04T08:23:20Z</time></trkpt><trkpt lat="44.435174394434476" lon="10.17660877388267"><ele>595.0</ele><time>2026-04-04T08:23:21Z</time></trkpt><trkpt lat="44.43508255499146" lon="10.176331442789895"><ele>592.3333333333334</ele><time>2026-04-04T08:23:22Z</time></trkpt><trkpt lat="44.43500690238462" lon="10.176116036570326"><ele>589.6666666666666</ele><time>2026-04-04T08:23:23Z</time></trkpt><trkpt lat="44.43498197585545" lon="10.175905967262683"><ele>587.0</ele><time>2026-04-04T08:23:24Z</time></trkpt><trkpt lat="44.43498791013888" lon="10.175650048564695"><ele>584.3333333333333</ele><time>2026-04-04T08:23:25Z</time></trkpt><trkpt lat="44.43497764451726" lon="10.175392925274467"><ele>581.6666666666666</ele><time>2026-04-04T08:23:26Z</time></trkpt><trkpt lat="44.434948647607094" lon="10.17513788143215"><ele>579.0</ele><time>2026-04-04T08:23:27Z</time></trkpt><trkpt lat="44.43486206108064" lon="10.174825651106026"><ele>576.5</ele><time>2026-04-04T08:23:28Z</time></trkpt><trkpt lat="44.43475640328471" lon="10.174488361661721"><ele>574.0</ele><time>2026-04-04T08:23:29Z</time></trkpt><trkpt lat="44.43466548416364" lon="10.17417910675849"><ele>575.6666666666667</ele><time>2026-04-04T08:23:30Z</time></trkpt><trkpt lat="44.43459321769946" lon="10.173891384661724"><ele>577.3333333333334</ele><time>2026-04-04T08:23:31Z</time></trkpt><trkpt lat="44.43451704111895" lon="10.173626870022028"><ele>579.0</ele><time>2026-04-04T08:23:32Z</time></trkpt><trkpt lat="44.43442698159024" lon="10.173401871134198"><ele>579.0</ele><time>2026-04-04T08:23:33Z</time></trkpt><trkpt lat="44.434300753259116" lon="10.173202672005079"><ele>579.0</ele><time>2026-04-04T08:23:34Z</time></trkpt><trkpt lat="44.43413420567857" lon="10.173007545231338"><ele>579.0</ele><time>2026-04-04T08:23:35Z</time></trkpt><trkpt lat="44.43399181780105" lon="10.172832673712723"><ele>578.0</ele><time>2026-04-04T08:23:36Z</time></trkpt><trkpt lat="44.433869784055084" lon="10.172656923269125"><ele>577.0</ele><time>2026-04-04T08:23:37Z</time></trkpt><trkpt lat="44.43377619956369" lon="10.17246429802934"><ele>576.0</ele><time>2026-04-04T08:23:38Z</time></trkpt><trkpt lat="44.43375155305439" lon="10.172196903693836"><ele>571.0</ele><time>2026-04-04T08:23:39Z</time></trkpt><trkpt lat="44.43368783685544" lon="10.171894846133853"><ele>566.0</ele><time>2026-04-04T08:23:40Z</time></trkpt><trkpt lat="44.433642412716004" lon="10.17157135600328"><ele>567.3333333333333</ele><time>2026-04-04T08:23:41Z</time></trkpt><trkpt lat="44.43358359486177" lon="10.171255440049276"><ele>568.6666666666666</ele><time>2026-04-04T08:23:42Z</time></trkpt><trkpt lat="44.43353644147528" lon="10.170967305000834"><ele>570.0</ele><time>2026-04-04T08:23:43Z</time></trkpt><trkpt lat="44.4334914255857" lon="10.170719076757338"><ele>571.75</ele><time>2026-04-04T08:23:44Z</time></trkpt><trkpt lat="44.43344031839016" lon="10.170542766610263"><ele>573.5</ele><time>2026-04-04T08:23:45Z</time></trkpt><trkpt lat="44.43335558401947" lon="10.170414742067868"><ele>575.25</ele><time>2026-04-04T08:23:46Z</time></trkpt><trkpt lat="44.43321860874451" lon="10.170298907749887"><ele>577.0</ele><time>2026-04-04T08:23:47Z</time></trkpt><trkpt lat="44.43306955610202" lon="10.17018150114626"><ele>576.0</ele><time>2026-04-04T08:23:48Z</time></trkpt><trkpt lat="44.43294547888155" lon="10.170054508252768"><ele>575.0</ele><time>2026-04-04T08:23:49Z</time></trkpt><trkpt lat="44.43286120111552" lon="10.169859610508283"><ele>574.0</ele><time>2026-04-04T08:23:50Z</time></trkpt><trkpt lat="44.432795427306985" lon="10.169644818457437"><ele>577.25</ele><time>2026-04-04T08:23:51Z</time></trkpt><trkpt lat="44.4327271812417" lon="10.169501755841894"><ele>580.5</ele><time>2026-04-04T08:23:52Z</time></trkpt><trkpt lat="44.43265168793568" lon="10.169428992201833"><ele>583.75</ele><time>2026-04-04T08:23:53Z</time></trkpt><trkpt lat="44.432522452262454" lon="10.169422171135304"><ele>587.0</ele><time>2026-04-04T08:23:54Z</time></trkpt><trkpt lat="44.432340611878644" lon="10.169449297529113"><ele>587.0</ele><time>2026-04-04T08:23:54.999Z</time></trkpt><trkpt lat="44.432170284437596" lon="10.169447410723746"><ele>587.0</ele><time>2026-04-04T08:23:55.999Z</time></trkpt><trkpt lat="44.43203669940539" lon="10.169411409538814"><ele>587.0</ele><time>2026-04-04T08:23:56.999Z</time></trkpt><trkpt lat="44.431928158374305" lon="10.169380602565383"><ele>587.0</ele><time>2026-04-04T08:23:57.999Z</time></trkpt><trkpt lat="44.431822153559466" lon="10.169319955305474"><ele>586.25</ele><time>2026-04-04T08:23:58.999Z</time></trkpt><trkpt lat="44.43172741069005" lon="10.169218350935068"><ele>585.5</ele><time>2026-04-04T08:23:59.999Z</time></trkpt><trkpt lat="44.4316411664495" lon="10.169095825202712"><ele>584.75</ele><time>2026-04-04T08:24:00.999Z</time></trkpt><trkpt lat="44.431554090627394" lon="10.16894415905071"><ele>584.0</ele><time>2026-04-04T08:24:01.999Z</time></trkpt><trkpt lat="44.431487222802005" lon="10.168768833085087"><ele>583.0</ele><time>2026-04-04T08:24:02.999Z</time></trkpt><trkpt lat="44.43142692658019" lon="10.168582278370048"><ele>582.0</ele><time>2026-04-04T08:24:03.999Z</time></trkpt><trkpt lat="44.4313656938297" lon="10.168393712079437"><ele>581.0</ele><time>2026-04-04T08:24:04.999Z</time></trkpt><trkpt lat="44.43130809224934" lon="10.168221814059182"><ele>580.0</ele><time>2026-04-04T08:24:05.999Z</time></trkpt><trkpt lat="44.43124184085692" lon="10.168074506261565"><ele>580.0</ele><time>2026-04-04T08:24:06.999Z</time></trkpt><trkpt lat="44.43122123809929" lon="10.16789989340026"><ele>580.0</ele><time>2026-04-04T08:24:07.999Z</time></trkpt><trkpt lat="44.43121419200309" lon="10.167715305330919"><ele>580.0</ele><time>2026-04-04T08:24:08.999Z</time></trkpt><trkpt lat="44.43124139758464" lon="10.167515506348696"><ele>580.0</ele><time>2026-04-04T08:24:09.999Z</time></trkpt><trkpt lat="44.431291876817646" lon="10.167344172765985"><ele>585.5</ele><time>2026-04-04T08:24:10.999Z</time></trkpt><trkpt lat="44.43135218680833" lon="10.167184380646981"><ele>591.0</ele><time>2026-04-04T08:24:11.999Z</time></trkpt><trkpt lat="44.43142144192014" lon="10.167026880134696"><ele>596.5</ele><time>2026-04-04T08:24:12.999Z</time></trkpt><trkpt lat="44.431492767232506" lon="10.166861824428173"><ele>602.0</ele><time>2026-04-04T08:24:13.999Z</time></trkpt><trkpt lat="44.431559639492995" lon="10.166707927012055"><ele>602.0</ele><time>2026-04-04T08:24:14.999Z</time></trkpt><trkpt lat="44.43161920978906" lon="10.166570752339316"><ele>602.0</ele><time>2026-04-04T08:24:15.999Z</time></trkpt><trkpt lat="44.43166574782983" lon="10.16642926817895"><ele>602.0</ele><time>2026-04-04T08:24:16.999Z</time></trkpt><trkpt lat="44.43168563734579" lon="10.166262301413175"><ele>602.0</ele><time>2026-04-04T08:24:18Z</time></trkpt><trkpt lat="44.43168118827714" lon="10.166091633769609"><ele>603.0</ele><time>2026-04-04T08:24:19Z</time></trkpt><trkpt lat="44.431640578328135" lon="10.165924602595219"><ele>604.0</ele><time>2026-04-04T08:24:20Z</time></trkpt><trkpt lat="44.43157250043936" lon="10.16576095877042"><ele>605.0</ele><time>2026-04-04T08:24:21Z</time></trkpt><trkpt lat="44.43148445903076" lon="10.165614877907599"><ele>606.0</ele><time>2026-04-04T08:24:22Z</time></trkpt><trkpt lat="44.43142899357429" lon="10.165458547079957"><ele>606.75</ele><time>2026-04-04T08:24:23Z</time></trkpt><trkpt lat="44.43137832873622" lon="10.1652802204315"><ele>607.5</ele><time>2026-04-04T08:24:24Z</time></trkpt><trkpt lat="44.431338974386165" lon="10.165095212694933"><ele>608.25</ele><time>2026-04-04T08:24:25Z</time></trkpt><trkpt lat="44.431300574554804" lon="10.164890631623225"><ele>609.0</ele><time>2026-04-04T08:24:26Z</time></trkpt><trkpt lat="44.43126701041597" lon="10.164627075831218"><ele>609.0</ele><time>2026-04-04T08:24:27Z</time></trkpt><trkpt lat="44.43124472902909" lon="10.164363609057295"><ele>609.0</ele><time>2026-04-04T08:24:28Z</time></trkpt><trkpt lat="44.43121814276637" lon="10.164043361619997"><ele>609.0</ele><time>2026-04-04T08:24:29Z</time></trkpt><trkpt lat="44.43116755173647" lon="10.163728382500416"><ele>613.0</ele><time>2026-04-04T08:24:30Z</time></trkpt><trkpt lat="44.43108526338729" lon="10.16347191423113"><ele>617.0</ele><time>2026-04-04T08:24:31Z</time></trkpt><trkpt lat="44.43092480184613" lon="10.163222395720936"><ele>621.0</ele><time>2026-04-04T08:24:32Z</time></trkpt><trkpt lat="44.43076294116139" lon="10.163098147418328"><ele>625.6666666666666</ele><time>2026-04-04T08:24:33Z</time></trkpt><trkpt lat="44.43069124885252" lon="10.162931176120724"><ele>630.3333333333333</ele><time>2026-04-04T08:24:34Z</time></trkpt><trkpt lat="44.43063392315778" lon="10.162676902531585"><ele>635.0</ele><time>2026-04-04T08:24:35Z</time></trkpt><trkpt lat="44.43056810677594" lon="10.162342608172448"><ele>638.6666666666666</ele><time>2026-04-04T08:24:36Z</time></trkpt><trkpt lat="44.43048068094145" lon="10.16202735703942"><ele>642.3333333333334</ele><time>2026-04-04T08:24:37Z</time></trkpt><trkpt lat="44.43040121598637" lon="10.161779736705995"><ele>646.0</ele><time>2026-04-04T08:24:38Z</time></trkpt><trkpt lat="44.430358283791044" lon="10.16157243078391"><ele>639.0</ele><time>2026-04-04T08:24:39Z</time></trkpt><trkpt lat="44.43035050713889" lon="10.161382062546851"><ele>632.0</ele><time>2026-04-04T08:24:40Z</time></trkpt><trkpt lat="44.430375201580475" lon="10.161106718914342"><ele>625.0</ele><time>2026-04-04T08:24:41Z</time></trkpt><trkpt lat="44.43041432881187" lon="10.16089837058504"><ele>625.0</ele><time>2026-04-04T08:24:42Z</time></trkpt><trkpt lat="44.430444572864545" lon="10.160706184851"><ele>625.0</ele><time>2026-04-04T08:24:43Z</time></trkpt><trkpt lat="44.4304658475962" lon="10.160535188394329"><ele>625.0</ele><time>2026-04-04T08:24:44Z</time></trkpt><trkpt lat="44.4304803954702" lon="10.160330687753264"><ele>625.0</ele><time>2026-04-04T08:24:45Z</time></trkpt><trkpt lat="44.430485840937244" lon="10.160185099085426"><ele>628.3333333333334</ele><time>2026-04-04T08:24:46Z</time></trkpt><trkpt lat="44.430449550103766" lon="10.160004505804709"><ele>631.6666666666666</ele><time>2026-04-04T08:24:47Z</time></trkpt><trkpt lat="44.4303482788434" lon="10.15983590487791"><ele>635.0</ele><time>2026-04-04T08:24:48Z</time></trkpt><trkpt lat="44.4302083485592" lon="10.159719127556755"><ele>638.75</ele><time>2026-04-04T08:24:49Z</time></trkpt><trkpt lat="44.4300702717917" lon="10.1596888186636"><ele>642.5</ele><time>2026-04-04T08:24:50Z</time></trkpt><trkpt lat="44.42992970887325" lon="10.159710610072564"><ele>646.25</ele><time>2026-04-04T08:24:51Z</time></trkpt><trkpt lat="44.42980307880911" lon="10.159740898898951"><ele>650.0</ele><time>2026-04-04T08:24:52Z</time></trkpt><trkpt lat="44.429719295849054" lon="10.159682986361993"><ele>650.0</ele><time>2026-04-04T08:24:53Z</time></trkpt><trkpt lat="44.429663671573714" lon="10.159593152446968"><ele>650.0</ele><time>2026-04-04T08:24:54Z</time></trkpt><trkpt lat="44.42962769151601" lon="10.159487519309959"><ele>650.0</ele><time>2026-04-04T08:24:55Z</time></trkpt><trkpt lat="44.42961529128458" lon="10.15936158226867"><ele>650.0</ele><time>2026-04-04T08:24:56Z</time></trkpt><trkpt lat="44.429638569407615" lon="10.159231814367992"><ele>650.0</ele><time>2026-04-04T08:24:57Z</time></trkpt><trkpt lat="44.42963524071645" lon="10.159087942766623"><ele>649.75</ele><time>2026-04-04T08:24:58Z</time></trkpt><trkpt lat="44.429619458474995" lon="10.158956654478573"><ele>649.5</ele><time>2026-04-04T08:24:59Z</time></trkpt><trkpt lat="44.42953619047629" lon="10.158838245641354"><ele>649.25</ele><time>2026-04-04T08:25:00Z</time></trkpt><trkpt lat="44.42939343375966" lon="10.158764490045634"><ele>649.0</ele><time>2026-04-04T08:25:01Z</time></trkpt><trkpt lat="44.42918907153577" lon="10.158652199245104"><ele>649.0</ele><time>2026-04-04T08:25:02Z</time></trkpt><trkpt lat="44.42898063368667" lon="10.158546772461941"><ele>649.0</ele><time>2026-04-04T08:25:03Z</time></trkpt><trkpt lat="44.42879233479159" lon="10.158390764567143"><ele>649.0</ele><time>2026-04-04T08:25:04Z</time></trkpt><trkpt lat="44.42864561044347" lon="10.158191679182174"><ele>651.6666666666667</ele><time>2026-04-04T08:25:05Z</time></trkpt><trkpt lat="44.42850139514435" lon="10.157952536374763"><ele>654.3333333333334</ele><time>2026-04-04T08:25:06Z</time></trkpt><trkpt lat="44.42835723200701" lon="10.157739869604564"><ele>657.0</ele><time>2026-04-04T08:25:07Z</time></trkpt><trkpt lat="44.42823361440498" lon="10.157553364886033"><ele>653.6666666666666</ele><time>2026-04-04T08:25:08Z</time></trkpt><trkpt lat="44.42813187428844" lon="10.157324769857269"><ele>650.3333333333333</ele><time>2026-04-04T08:25:09Z</time></trkpt><trkpt lat="44.4280181749069" lon="10.157029630058314"><ele>647.0</ele><time>2026-04-04T08:25:10Z</time></trkpt><trkpt lat="44.427888946865494" lon="10.156739583986251"><ele>654.0</ele><time>2026-04-04T08:25:11Z</time></trkpt><trkpt lat="44.42776092627898" lon="10.156408603627884"><ele>661.0</ele><time>2026-04-04T08:25:12Z</time></trkpt><trkpt lat="44.42760500412102" lon="10.156108129190061"><ele>661.0</ele><time>2026-04-04T08:25:13Z</time></trkpt><trkpt lat="44.42740432200336" lon="10.155815963362667"><ele>661.0</ele><time>2026-04-04T08:25:14Z</time></trkpt><trkpt lat="44.42723404779949" lon="10.15557346262495"><ele>661.6666666666667</ele><time>2026-04-04T08:25:15Z</time></trkpt><trkpt lat="44.42708010669768" lon="10.155362029411595"><ele>662.3333333333334</ele><time>2026-04-04T08:25:16Z</time></trkpt><trkpt lat="44.42689674251378" lon="10.15517570360809"><ele>663.0</ele><time>2026-04-04T08:25:17Z</time></trkpt><trkpt lat="44.42666372417767" lon="10.155012307177957"><ele>658.3333333333334</ele><time>2026-04-04T08:25:18Z</time></trkpt><trkpt lat="44.426444032075075" lon="10.154856517597839"><ele>653.6666666666667</ele><time>2026-04-04T08:25:19Z</time></trkpt><trkpt lat="44.42626143022052" lon="10.154731521174629"><ele>649.0</ele><time>2026-04-04T08:25:20Z</time></trkpt><trkpt lat="44.426169279831285" lon="10.154564647475292"><ele>649.0</ele><time>2026-04-04T08:25:21Z</time></trkpt><trkpt lat="44.4261066383393" lon="10.154366878106112"><ele>649.0</ele><time>2026-04-04T08:25:22Z</time></trkpt><trkpt lat="44.426026438088336" lon="10.154096081010403"><ele>649.0</ele><time>2026-04-04T08:25:23Z</time></trkpt><trkpt lat="44.4259404620504" lon="10.153815578960753"><ele>655.6666666666667</ele><time>2026-04-04T08:25:24Z</time></trkpt><trkpt lat="44.42589195651685" lon="10.153527931399989"><ele>662.3333333333334</ele><time>2026-04-04T08:25:25Z</time></trkpt><trkpt lat="44.425856497919625" lon="10.153277326734589"><ele>669.0</ele><time>2026-04-04T08:25:26Z</time></trkpt><trkpt lat="44.425807532061604" lon="10.153100200628824"><ele>667.3333333333334</ele><time>2026-04-04T08:25:27Z</time></trkpt><trkpt lat="44.425716775487366" lon="10.152953530634287"><ele>665.6666666666667</ele><time>2026-04-04T08:25:28Z</time></trkpt><trkpt lat="44.42556466270353" lon="10.152844670325175"><ele>664.0</ele><time>2026-04-04T08:25:29Z</time></trkpt><trkpt lat="44.425369462364024" lon="10.152789410238203"><ele>664.0</ele><time>2026-04-04T08:25:30Z</time></trkpt><trkpt lat="44.42516473722963" lon="10.152745814731988"><ele>664.0</ele><time>2026-04-04T08:25:31Z</time></trkpt><trkpt lat="44.42506870873421" lon="10.15264542626608"><ele>664.0</ele><time>2026-04-04T08:25:32Z</time></trkpt><trkpt lat="44.42501193098397" lon="10.15253547842702"><ele>664.0</ele><time>2026-04-04T08:25:33Z</time></trkpt><trkpt lat="44.425017891821184" lon="10.152368585063762"><ele>672.0</ele><time>2026-04-04T08:25:34Z</time></trkpt><trkpt lat="44.42499586452363" lon="10.152120586887923"><ele>680.0</ele><time>2026-04-04T08:25:35Z</time></trkpt><trkpt lat="44.42492091020948" lon="10.151891787578082"><ele>688.0</ele><time>2026-04-04T08:25:36Z</time></trkpt><trkpt lat="44.42479414549501" lon="10.15168457390691"><ele>683.5</ele><time>2026-04-04T08:25:37Z</time></trkpt><trkpt lat="44.42460671607278" lon="10.151464825204892"><ele>679.0</ele><time>2026-04-04T08:25:38Z</time></trkpt><trkpt lat="44.424452716280804" lon="10.151163714468131"><ele>679.0</ele><time>2026-04-04T08:25:39Z</time></trkpt><trkpt lat="44.424311249993345" lon="10.150913127298491"><ele>679.0</ele><time>2026-04-04T08:25:40Z</time></trkpt><trkpt lat="44.42419311533039" lon="10.150688931594216"><ele>679.0</ele><time>2026-04-04T08:25:41Z</time></trkpt><trkpt lat="44.424116767674604" lon="10.150485759441306"><ele>681.6666666666667</ele><time>2026-04-04T08:25:42Z</time></trkpt><trkpt lat="44.42407718154197" lon="10.150245279493811"><ele>684.3333333333334</ele><time>2026-04-04T08:25:43Z</time></trkpt><trkpt lat="44.42411021146677" lon="10.150005920336076"><ele>687.0</ele><time>2026-04-04T08:25:44Z</time></trkpt><trkpt lat="44.424174532354364" lon="10.149687307449849"><ele>687.3333333333334</ele><time>2026-04-04T08:25:45Z</time></trkpt><trkpt lat="44.424210981947695" lon="10.14936678409686"><ele>687.6666666666667</ele><time>2026-04-04T08:25:46Z</time></trkpt><trkpt lat="44.42421233607793" lon="10.149094037277832"><ele>688.0</ele><time>2026-04-04T08:25:47Z</time></trkpt><trkpt lat="44.42422358020791" lon="10.148861268408972"><ele>688.0</ele><time>2026-04-04T08:25:48Z</time></trkpt><trkpt lat="44.42427511965684" lon="10.148688841095934"><ele>688.0</ele><time>2026-04-04T08:25:49Z</time></trkpt><trkpt lat="44.42436888473043" lon="10.148579093519176"><ele>688.0</ele><time>2026-04-04T08:25:50Z</time></trkpt><trkpt lat="44.42448588724371" lon="10.148501507140397"><ele>688.0</ele><time>2026-04-04T08:25:51Z</time></trkpt><trkpt lat="44.42461896313682" lon="10.148455510293505"><ele>690.5</ele><time>2026-04-04T08:25:52Z</time></trkpt><trkpt lat="44.42477239465416" lon="10.148426139433578"><ele>693.0</ele><time>2026-04-04T08:25:52.999Z</time></trkpt><trkpt lat="44.42492097496186" lon="10.148392860452775"><ele>695.5</ele><time>2026-04-04T08:25:53.999Z</time></trkpt><trkpt lat="44.42505355240024" lon="10.148336260980688"><ele>698.0</ele><time>2026-04-04T08:25:54.999Z</time></trkpt><trkpt lat="44.425198802689174" lon="10.148227451836975"><ele>695.6666666666666</ele><time>2026-04-04T08:25:55.999Z</time></trkpt><trkpt lat="44.42533163253989" lon="10.148075354683153"><ele>693.3333333333334</ele><time>2026-04-04T08:25:56.999Z</time></trkpt><trkpt lat="44.42543158038403" lon="10.14786325901823"><ele>691.0</ele><time>2026-04-04T08:25:57.999Z</time></trkpt><trkpt lat="44.42549222817057" lon="10.147607689873084"><ele>692.3333333333334</ele><time>2026-04-04T08:25:58.999Z</time></trkpt><trkpt lat="44.42552179021346" lon="10.147350585081112"><ele>693.6666666666666</ele><time>2026-04-04T08:25:59.999Z</time></trkpt><trkpt lat="44.42551683494159" lon="10.147130511794069"><ele>695.0</ele><time>2026-04-04T08:26:00.999Z</time></trkpt><trkpt lat="44.42547070462035" lon="10.14690035702872"><ele>695.0</ele><time>2026-04-04T08:26:01.999Z</time></trkpt><trkpt lat="44.42539351904477" lon="10.146700705862907"><ele>695.0</ele><time>2026-04-04T08:26:02.999Z</time></trkpt><trkpt lat="44.425272683928696" lon="10.146547351276181"><ele>695.0</ele><time>2026-04-04T08:26:03.999Z</time></trkpt><trkpt lat="44.425126332878115" lon="10.146387687138485"><ele>696.3333333333333</ele><time>2026-04-04T08:26:04.999Z</time></trkpt><trkpt lat="44.42495210509777" lon="10.14625894559718"><ele>697.6666666666666</ele><time>2026-04-04T08:26:05.999Z</time></trkpt><trkpt lat="44.424742857134845" lon="10.14614278826231"><ele>699.0</ele><time>2026-04-04T08:26:06.999Z</time></trkpt><trkpt lat="44.42453584727568" lon="10.146017743213154"><ele>699.0</ele><time>2026-04-04T08:26:07.999Z</time></trkpt><trkpt lat="44.42434623248248" lon="10.145891104584017"><ele>699.0</ele><time>2026-04-04T08:26:08.999Z</time></trkpt><trkpt lat="44.42417269005616" lon="10.145790624438426"><ele>699.0</ele><time>2026-04-04T08:26:09.999Z</time></trkpt><trkpt lat="44.42396803961396" lon="10.145715644815784"><ele>703.6666666666666</ele><time>2026-04-04T08:26:10.999Z</time></trkpt><trkpt lat="44.4237471145997" lon="10.145672213336008"><ele>708.3333333333333</ele><time>2026-04-04T08:26:11.999Z</time></trkpt><trkpt lat="44.42353221295488" lon="10.145610921610446"><ele>713.0</ele><time>2026-04-04T08:26:12.999Z</time></trkpt><trkpt lat="44.42334453008092" lon="10.145569155082763"><ele>713.0</ele><time>2026-04-04T08:26:13.999Z</time></trkpt><trkpt lat="44.42318510157785" lon="10.145519443124815"><ele>713.0</ele><time>2026-04-04T08:26:14.999Z</time></trkpt><trkpt lat="44.4230727042334" lon="10.14542670334427"><ele>713.0</ele><time>2026-04-04T08:26:15.999Z</time></trkpt><trkpt lat="44.42295079810163" lon="10.145287174417748"><ele>710.6666666666666</ele><time>2026-04-04T08:26:16.999Z</time></trkpt><trkpt lat="44.422782320827956" lon="10.145103251716575"><ele>708.3333333333334</ele><time>2026-04-04T08:26:17.999Z</time></trkpt><trkpt lat="44.42262806650897" lon="10.14492887428552"><ele>706.0</ele><time>2026-04-04T08:26:18.999Z</time></trkpt><trkpt lat="44.42249949438068" lon="10.14473420919168"><ele>706.0</ele><time>2026-04-04T08:26:19.999Z</time></trkpt><trkpt lat="44.42240771920866" lon="10.144537955001965"><ele>706.0</ele><time>2026-04-04T08:26:20.999Z</time></trkpt><trkpt lat="44.42235855715382" lon="10.1443213294651"><ele>706.0</ele><time>2026-04-04T08:26:21.999Z</time></trkpt><trkpt lat="44.42230163173262" lon="10.144034918258718"><ele>711.6666666666667</ele><time>2026-04-04T08:26:22.999Z</time></trkpt><trkpt lat="44.42223487233954" lon="10.143731711345517"><ele>717.3333333333334</ele><time>2026-04-04T08:26:24Z</time></trkpt><trkpt lat="44.42217507956976" lon="10.143475774584461"><ele>723.0</ele><time>2026-04-04T08:26:25Z</time></trkpt><trkpt lat="44.422153577911125" lon="10.143255191069748"><ele>724.0</ele><time>2026-04-04T08:26:26Z</time></trkpt><trkpt lat="44.4221659214606" lon="10.142986552098572"><ele>725.0</ele><time>2026-04-04T08:26:27Z</time></trkpt><trkpt lat="44.42213484233293" lon="10.142693790871894"><ele>726.0</ele><time>2026-04-04T08:26:28Z</time></trkpt><trkpt lat="44.422104169791545" lon="10.14239817670352"><ele>716.3333333333334</ele><time>2026-04-04T08:26:29Z</time></trkpt><trkpt lat="44.42206415642652" lon="10.142134271522682"><ele>706.6666666666667</ele><time>2026-04-04T08:26:30Z</time></trkpt><trkpt lat="44.4219689824541" lon="10.141880616784468"><ele>697.0</ele><time>2026-04-04T08:26:31Z</time></trkpt><trkpt lat="44.421824781969995" lon="10.141597308318353"><ele>699.0</ele><time>2026-04-04T08:26:32Z</time></trkpt><trkpt lat="44.42167635450063" lon="10.141235731409758"><ele>701.0</ele><time>2026-04-04T08:26:33Z</time></trkpt><trkpt lat="44.42155167581872" lon="10.140928846572653"><ele>701.0</ele><time>2026-04-04T08:26:34Z</time></trkpt><trkpt lat="44.42147144962384" lon="10.14075906612903"><ele>701.0</ele><time>2026-04-04T08:26:35Z</time></trkpt><trkpt lat="44.421361955502114" lon="10.140531775046286"><ele>701.0</ele><time>2026-04-04T08:26:36Z</time></trkpt><trkpt lat="44.421232624886365" lon="10.140345335691924"><ele>699.6666666666666</ele><time>2026-04-04T08:26:37Z</time></trkpt><trkpt lat="44.42104794027772" lon="10.140203299629743"><ele>698.3333333333334</ele><time>2026-04-04T08:26:38Z</time></trkpt><trkpt lat="44.42082281535252" lon="10.140104966339297"><ele>697.0</ele><time>2026-04-04T08:26:39Z</time></trkpt><trkpt lat="44.42058568605882" lon="10.140055894077014"><ele>698.0</ele><time>2026-04-04T08:26:40Z</time></trkpt><trkpt lat="44.42037645990993" lon="10.1400134174618"><ele>699.0</ele><time>2026-04-04T08:26:41Z</time></trkpt><trkpt lat="44.420177081338" lon="10.139890844123572"><ele>700.0</ele><time>2026-04-04T08:26:42Z</time></trkpt><trkpt lat="44.41997042298631" lon="10.139728619702991"><ele>700.0</ele><time>2026-04-04T08:26:43Z</time></trkpt><trkpt lat="44.41975812504367" lon="10.139546591881846"><ele>700.0</ele><time>2026-04-04T08:26:44Z</time></trkpt><trkpt lat="44.419543476443515" lon="10.139358636975441"><ele>693.5</ele><time>2026-04-04T08:26:45Z</time></trkpt><trkpt lat="44.41932776946557" lon="10.139166789717335"><ele>687.0</ele><time>2026-04-04T08:26:46Z</time></trkpt><trkpt lat="44.41911571384043" lon="10.138981665113318"><ele>687.0</ele><time>2026-04-04T08:26:47Z</time></trkpt><trkpt lat="44.41891027253385" lon="10.13879690840913"><ele>687.0</ele><time>2026-04-04T08:26:48Z</time></trkpt><trkpt lat="44.41872867843336" lon="10.138621792631282"><ele>685.5</ele><time>2026-04-04T08:26:49Z</time></trkpt><trkpt lat="44.41852868241368" lon="10.138478577806241"><ele>684.0</ele><time>2026-04-04T08:26:50Z</time></trkpt><trkpt lat="44.41836617056214" lon="10.138221407177012"><ele>687.0</ele><time>2026-04-04T08:26:51Z</time></trkpt><trkpt lat="44.41821736667933" lon="10.137904570016175"><ele>690.0</ele><time>2026-04-04T08:26:52Z</time></trkpt><trkpt lat="44.4180869443319" lon="10.137621079757029"><ele>692.3333333333334</ele><time>2026-04-04T08:26:53Z</time></trkpt><trkpt lat="44.41796058429364" lon="10.137369075584692"><ele>694.6666666666667</ele><time>2026-04-04T08:26:54Z</time></trkpt><trkpt lat="44.417826458002075" lon="10.137167237185569"><ele>697.0</ele><time>2026-04-04T08:26:55Z</time></trkpt><trkpt lat="44.41765647372854" lon="10.137040065291876"><ele>697.0</ele><time>2026-04-04T08:26:56Z</time></trkpt><trkpt lat="44.41745662352076" lon="10.137000383982496"><ele>697.0</ele><time>2026-04-04T08:26:57Z</time></trkpt><trkpt lat="44.417226619160814" lon="10.137039815864842"><ele>697.0</ele><time>2026-04-04T08:26:58Z</time></trkpt><trkpt lat="44.41697470977575" lon="10.137078420304631"><ele>695.5</ele><time>2026-04-04T08:26:59Z</time></trkpt><trkpt lat="44.416728360425424" lon="10.13708373358816"><ele>694.0</ele><time>2026-04-04T08:27:00Z</time></trkpt><trkpt lat="44.416509539654776" lon="10.13709429533253"><ele>693.0</ele><time>2026-04-04T08:27:01Z</time></trkpt><trkpt lat="44.41630560048768" lon="10.13707511439417"><ele>692.0</ele><time>2026-04-04T08:27:02Z</time></trkpt><trkpt lat="44.416116377710416" lon="10.137052969402617"><ele>691.0</ele><time>2026-04-04T08:27:03Z</time></trkpt><trkpt lat="44.41593744643454" lon="10.13701260328105"><ele>691.0</ele><time>2026-04-04T08:27:04Z</time></trkpt><trkpt lat="44.41576565529158" lon="10.136934142602078"><ele>691.0</ele><time>2026-04-04T08:27:05Z</time></trkpt><trkpt lat="44.41558347589522" lon="10.13683649831207"><ele>691.0</ele><time>2026-04-04T08:27:06Z</time></trkpt><trkpt lat="44.415387912315495" lon="10.136719140244324"><ele>689.3333333333334</ele><time>2026-04-04T08:27:07Z</time></trkpt><trkpt lat="44.41519601943008" lon="10.136590497030701"><ele>687.6666666666666</ele><time>2026-04-04T08:27:08Z</time></trkpt><trkpt lat="44.415007357856275" lon="10.136464787388892"><ele>686.0</ele><time>2026-04-04T08:27:09Z</time></trkpt><trkpt lat="44.41481431248473" lon="10.136335670697976"><ele>687.0</ele><time>2026-04-04T08:27:10Z</time></trkpt><trkpt lat="44.414633521529524" lon="10.136215762091325"><ele>688.0</ele><time>2026-04-04T08:27:11Z</time></trkpt><trkpt lat="44.4144496160336" lon="10.136149224993378"><ele>689.0</ele><time>2026-04-04T08:27:12Z</time></trkpt><trkpt lat="44.41426900564281" lon="10.136102009253934"><ele>689.0</ele><time>2026-04-04T08:27:13Z</time></trkpt><trkpt lat="44.414064687886885" lon="10.136135410909827"><ele>689.0</ele><time>2026-04-04T08:27:14Z</time></trkpt><trkpt lat="44.413917889140414" lon="10.136101076401099"><ele>689.0</ele><time>2026-04-04T08:27:15Z</time></trkpt><trkpt lat="44.41382066439425" lon="10.136037537951797"><ele>690.75</ele><time>2026-04-04T08:27:16Z</time></trkpt><trkpt lat="44.41373417833078" lon="10.135925812823114"><ele>692.5</ele><time>2026-04-04T08:27:17Z</time></trkpt><trkpt lat="44.413628150364545" lon="10.135760595737189"><ele>694.25</ele><time>2026-04-04T08:27:18Z</time></trkpt><trkpt lat="44.413526408098754" lon="10.135601092728626"><ele>696.0</ele><time>2026-04-04T08:27:19Z</time></trkpt><trkpt lat="44.413457820402165" lon="10.135531209441897"><ele>696.0</ele><time>2026-04-04T08:27:20Z</time></trkpt><trkpt lat="44.413363357379374" lon="10.13550804036605"><ele>696.0</ele><time>2026-04-04T08:27:21Z</time></trkpt><trkpt lat="44.4132422834751" lon="10.135598880518657"><ele>696.0</ele><time>2026-04-04T08:27:22Z</time></trkpt><trkpt lat="44.41311874259048" lon="10.135771295522646"><ele>696.0</ele><time>2026-04-04T08:27:23Z</time></trkpt><trkpt lat="44.413003238475376" lon="10.135999475550195"><ele>695.5</ele><time>2026-04-04T08:27:24Z</time></trkpt><trkpt lat="44.412914283552645" lon="10.136211770761287"><ele>695.0</ele><time>2026-04-04T08:27:25Z</time></trkpt><trkpt lat="44.41282434714553" lon="10.136296936833292"><ele>694.5</ele><time>2026-04-04T08:27:26Z</time></trkpt><trkpt lat="44.41271084753409" lon="10.136323790264512"><ele>694.0</ele><time>2026-04-04T08:27:27Z</time></trkpt><trkpt lat="44.41253458801194" lon="10.136368690758166"><ele>694.0</ele><time>2026-04-04T08:27:28Z</time></trkpt><trkpt lat="44.41234252729032" lon="10.136418161955623"><ele>694.0</ele><time>2026-04-04T08:27:29Z</time></trkpt><trkpt lat="44.41216987282391" lon="10.136466579930229"><ele>694.0</ele><time>2026-04-04T08:27:30Z</time></trkpt><trkpt lat="44.412031007618104" lon="10.13650965463696"><ele>694.0</ele><time>2026-04-04T08:27:31Z</time></trkpt><trkpt lat="44.411854984098774" lon="10.136540374528353"><ele>694.0</ele><time>2026-04-04T08:27:32Z</time></trkpt><trkpt lat="44.41177324191398" lon="10.13650987327457"><ele>694.0</ele><time>2026-04-04T08:27:33Z</time></trkpt><trkpt lat="44.41169902734378" lon="10.136395684660542"><ele>694.0</ele><time>2026-04-04T08:27:34Z</time></trkpt><trkpt lat="44.41159663103899" lon="10.136184911668115"><ele>694.0</ele><time>2026-04-04T08:27:35Z</time></trkpt><trkpt lat="44.4114812321864" lon="10.13594801935638"><ele>694.0</ele><time>2026-04-04T08:27:36Z</time></trkpt><trkpt lat="44.41139087257786" lon="10.135784457359255"><ele>694.0</ele><time>2026-04-04T08:27:37Z</time></trkpt><trkpt lat="44.4113583380042" lon="10.135691367695301"><ele>694.0</ele><time>2026-04-04T08:27:38Z</time></trkpt><trkpt lat="44.4114684908098" lon="10.135579554736143"><ele>694.0</ele><time>2026-04-04T08:27:40Z</time></trkpt><trkpt lat="44.41155635830361" lon="10.135610252490522"><ele>694.0</ele><time>2026-04-04T08:27:41Z</time></trkpt><trkpt lat="44.411628824997095" lon="10.135740841714908"><ele>694.0</ele><time>2026-04-04T08:27:42Z</time></trkpt><trkpt lat="44.41172252419264" lon="10.13592316617938"><ele>694.0</ele><time>2026-04-04T08:27:43Z</time></trkpt><trkpt lat="44.4118083664399" lon="10.136058485621515"><ele>694.0</ele><time>2026-04-04T08:27:44Z</time></trkpt><trkpt lat="44.41187932968374" lon="10.136110764691825"><ele>694.0</ele><time>2026-04-04T08:27:45Z</time></trkpt><trkpt lat="44.41194056150674" lon="10.136064318154418"><ele>694.0</ele><time>2026-04-04T08:27:46Z</time></trkpt><trkpt lat="44.411993104487834" lon="10.13594557748048"><ele>694.0</ele><time>2026-04-04T08:27:47Z</time></trkpt><trkpt lat="44.411975536018005" lon="10.135795331242157"><ele>694.0</ele><time>2026-04-04T08:27:48Z</time></trkpt><trkpt lat="44.41189506219223" lon="10.135672774685071"><ele>698.6666666666667</ele><time>2026-04-04T08:27:49Z</time></trkpt><trkpt lat="44.41175098246587" lon="10.135510177192119"><ele>703.3333333333334</ele><time>2026-04-04T08:27:50Z</time></trkpt><trkpt lat="44.41159300336071" lon="10.13532587740542"><ele>708.0</ele><time>2026-04-04T08:27:51Z</time></trkpt><trkpt lat="44.41143482815281" lon="10.135130978626615"><ele>707.3333333333334</ele><time>2026-04-04T08:27:52Z</time></trkpt><trkpt lat="44.41126279075568" lon="10.134909937727643"><ele>706.6666666666667</ele><time>2026-04-04T08:27:52.999Z</time></trkpt><trkpt lat="44.4111069426252" lon="10.134706117017874"><ele>706.0</ele><time>2026-04-04T08:27:53.999Z</time></trkpt><trkpt lat="44.41098591513892" lon="10.134550216149583"><ele>706.0</ele><time>2026-04-04T08:27:54.999Z</time></trkpt><trkpt lat="44.4109098263342" lon="10.134439997592986"><ele>706.0</ele><time>2026-04-04T08:27:55.999Z</time></trkpt><trkpt lat="44.410892869089274" lon="10.134302965781913"><ele>706.0</ele><time>2026-04-04T08:27:57.999Z</time></trkpt><trkpt lat="44.410971419121296" lon="10.134230554374394"><ele>706.0</ele><time>2026-04-04T08:27:58.999Z</time></trkpt><trkpt lat="44.41110411989968" lon="10.134248556548611"><ele>706.0</ele><time>2026-04-04T08:27:59.999Z</time></trkpt><trkpt lat="44.411295446475805" lon="10.134320545898694"><ele>711.0</ele><time>2026-04-04T08:28:00.999Z</time></trkpt><trkpt lat="44.411502932338784" lon="10.1344306678687"><ele>716.0</ele><time>2026-04-04T08:28:01.999Z</time></trkpt><trkpt lat="44.41169923137536" lon="10.134571676278098"><ele>721.0</ele><time>2026-04-04T08:28:02.999Z</time></trkpt><trkpt lat="44.41176121326598" lon="10.134659158793063"><ele>721.0</ele><time>2026-04-04T08:28:03.999Z</time></trkpt><trkpt lat="44.41195694383459" lon="10.134742149970041"><ele>721.0</ele><time>2026-04-04T08:28:04.999Z</time></trkpt><trkpt lat="44.4121286852993" lon="10.134796696769149"><ele>721.0</ele><time>2026-04-04T08:28:05.999Z</time></trkpt><trkpt lat="44.412231174751916" lon="10.134813658252021"><ele>721.1999999999999</ele><time>2026-04-04T08:28:06.999Z</time></trkpt><trkpt lat="44.41229830765945" lon="10.134807388716887"><ele>721.4</ele><time>2026-04-04T08:28:07.999Z</time></trkpt><trkpt lat="44.41234990605426" lon="10.134734283284681"><ele>721.6</ele><time>2026-04-04T08:28:08.999Z</time></trkpt><trkpt lat="44.41237934594691" lon="10.13462608337679"><ele>721.8</ele><time>2026-04-04T08:28:09.999Z</time></trkpt><trkpt lat="44.41241587694492" lon="10.134420371549385"><ele>722.0</ele><time>2026-04-04T08:28:10.999Z</time></trkpt><trkpt lat="44.412423333621234" lon="10.13414735911355"><ele>724.6666666666666</ele><time>2026-04-04T08:28:11.999Z</time></trkpt><trkpt lat="44.412427885602625" lon="10.133897926575658"><ele>727.3333333333334</ele><time>2026-04-04T08:28:12.999Z</time></trkpt><trkpt lat="44.41238855325044" lon="10.133654653033334"><ele>730.0</ele><time>2026-04-04T08:28:13.999Z</time></trkpt><trkpt lat="44.41231083246064" lon="10.133428654732096"><ele>730.0</ele><time>2026-04-04T08:28:14.999Z</time></trkpt><trkpt lat="44.41223757827154" lon="10.133294969540746"><ele>730.0</ele><time>2026-04-04T08:28:15.999Z</time></trkpt><trkpt lat="44.41212111496561" lon="10.133218762212698"><ele>730.0</ele><time>2026-04-04T08:28:16.999Z</time></trkpt><trkpt lat="44.41195262311545" lon="10.133155617040178"><ele>730.0</ele><time>2026-04-04T08:28:17.999Z</time></trkpt><trkpt lat="44.41181904538413" lon="10.133014900334905"><ele>731.25</ele><time>2026-04-04T08:28:18.999Z</time></trkpt><trkpt lat="44.411745100588924" lon="10.13282688329341"><ele>732.5</ele><time>2026-04-04T08:28:19.999Z</time></trkpt><trkpt lat="44.41172095025794" lon="10.13263422323561"><ele>733.75</ele><time>2026-04-04T08:28:20.999Z</time></trkpt><trkpt lat="44.411748869185175" lon="10.132498638980353"><ele>735.0</ele><time>2026-04-04T08:28:21.999Z</time></trkpt><trkpt lat="44.41179829548748" lon="10.132421052720312"><ele>734.3333333333334</ele><time>2026-04-04T08:28:22.999Z</time></trkpt><trkpt lat="44.4119118263955" lon="10.132320663170491"><ele>733.6666666666667</ele><time>2026-04-04T08:28:23.999Z</time></trkpt><trkpt lat="44.41206110200467" lon="10.132163341013174"><ele>733.0</ele><time>2026-04-04T08:28:24.999Z</time></trkpt><trkpt lat="44.41218722407727" lon="10.132007448798765"><ele>736.3333333333334</ele><time>2026-04-04T08:28:25.999Z</time></trkpt><trkpt lat="44.41226670658866" lon="10.1318022885286"><ele>739.6666666666666</ele><time>2026-04-04T08:28:26.999Z</time></trkpt><trkpt lat="44.41227685513989" lon="10.131557375442432"><ele>743.0</ele><time>2026-04-04T08:28:27.999Z</time></trkpt><trkpt lat="44.41231943083765" lon="10.131377858338452"><ele>744.0</ele><time>2026-04-04T08:28:28.999Z</time></trkpt><trkpt lat="44.41244204368889" lon="10.131329901643593"><ele>745.0</ele><time>2026-04-04T08:28:30Z</time></trkpt><trkpt lat="44.41259114672944" lon="10.131201174704426"><ele>746.0</ele><time>2026-04-04T08:28:31Z</time></trkpt><trkpt lat="44.41273809207019" lon="10.131013075530056"><ele>746.0</ele><time>2026-04-04T08:28:32Z</time></trkpt><trkpt lat="44.412896729146844" lon="10.130865052482797"><ele>746.0</ele><time>2026-04-04T08:28:33Z</time></trkpt><trkpt lat="44.41298403361344" lon="10.130756538526557"><ele>746.0</ele><time>2026-04-04T08:28:34Z</time></trkpt><trkpt lat="44.41301110020718" lon="10.130596810299483"><ele>746.0</ele><time>2026-04-04T08:28:35Z</time></trkpt><trkpt lat="44.41297243581564" lon="10.130426124191665"><ele>748.3333333333333</ele><time>2026-04-04T08:28:36Z</time></trkpt><trkpt lat="44.41288865417623" lon="10.130257868179141"><ele>750.6666666666666</ele><time>2026-04-04T08:28:37Z</time></trkpt><trkpt lat="44.41275546758418" lon="10.130111223144466"><ele>753.0</ele><time>2026-04-04T08:28:38Z</time></trkpt><trkpt lat="44.412631751612196" lon="10.129877285068986"><ele>755.6666666666666</ele><time>2026-04-04T08:28:39Z</time></trkpt><trkpt lat="44.4125319926167" lon="10.129680224374129"><ele>758.3333333333333</ele><time>2026-04-04T08:28:40Z</time></trkpt><trkpt lat="44.41246854767557" lon="10.129500072888517"><ele>761.0</ele><time>2026-04-04T08:28:41Z</time></trkpt><trkpt lat="44.412296867153636" lon="10.129254709003684"><ele>761.0</ele><time>2026-04-04T08:28:42Z</time></trkpt><trkpt lat="44.41227399855234" lon="10.129140131133155"><ele>761.0</ele><time>2026-04-04T08:28:43Z</time></trkpt><trkpt lat="44.41231730065572" lon="10.129035514311221"><ele>761.0</ele><time>2026-04-04T08:28:44Z</time></trkpt><trkpt lat="44.412412366816845" lon="10.128873045316709"><ele>761.0</ele><time>2026-04-04T08:28:45Z</time></trkpt><trkpt lat="44.41251145537308" lon="10.128648179964497"><ele>762.3333333333333</ele><time>2026-04-04T08:28:46Z</time></trkpt><trkpt lat="44.41259561132977" lon="10.128397403723675"><ele>763.6666666666666</ele><time>2026-04-04T08:28:47Z</time></trkpt><trkpt lat="44.41262419721442" lon="10.128139337808243"><ele>765.0</ele><time>2026-04-04T08:28:48Z</time></trkpt><trkpt lat="44.412627555844765" lon="10.127893839419169"><ele>767.6666666666667</ele><time>2026-04-04T08:28:49Z</time></trkpt><trkpt lat="44.41269247958586" lon="10.127726695084903"><ele>770.3333333333334</ele><time>2026-04-04T08:28:50Z</time></trkpt><trkpt lat="44.41278665597881" lon="10.127511086458306"><ele>773.0</ele><time>2026-04-04T08:28:51Z</time></trkpt><trkpt lat="44.41288580291703" lon="10.127314159840013"><ele>774.0</ele><time>2026-04-04T08:28:52Z</time></trkpt><trkpt lat="44.41291790725605" lon="10.127109759428429"><ele>775.0</ele><time>2026-04-04T08:28:53Z</time></trkpt><trkpt lat="44.41290972248123" lon="10.126869135490056"><ele>776.0</ele><time>2026-04-04T08:28:54Z</time></trkpt><trkpt lat="44.412885324234075" lon="10.126645435226953"><ele>777.6666666666667</ele><time>2026-04-04T08:28:55Z</time></trkpt><trkpt lat="44.41283731195646" lon="10.126454358547011"><ele>779.3333333333333</ele><time>2026-04-04T08:28:56Z</time></trkpt><trkpt lat="44.412735477501464" lon="10.126246146216543"><ele>781.0</ele><time>2026-04-04T08:28:57Z</time></trkpt><trkpt lat="44.412604784638575" lon="10.126065432410266"><ele>781.0</ele><time>2026-04-04T08:28:58Z</time></trkpt><trkpt lat="44.4124850838697" lon="10.125918742862112"><ele>781.0</ele><time>2026-04-04T08:28:59Z</time></trkpt><trkpt lat="44.41234515502771" lon="10.125789606460174"><ele>781.0</ele><time>2026-04-04T08:29:00Z</time></trkpt><trkpt lat="44.41217043368559" lon="10.12567763063045"><ele>784.3333333333333</ele><time>2026-04-04T08:29:01Z</time></trkpt><trkpt lat="44.41199475290888" lon="10.125535380546932"><ele>787.6666666666667</ele><time>2026-04-04T08:29:02Z</time></trkpt><trkpt lat="44.41181651965763" lon="10.125385803765312"><ele>791.0</ele><time>2026-04-04T08:29:03Z</time></trkpt><trkpt lat="44.41163247026401" lon="10.125209211540382"><ele>791.0</ele><time>2026-04-04T08:29:04Z</time></trkpt><trkpt lat="44.41143355007563" lon="10.12507436202835"><ele>791.0</ele><time>2026-04-04T08:29:05Z</time></trkpt><trkpt lat="44.411287352971335" lon="10.124972378495208"><ele>791.0</ele><time>2026-04-04T08:29:06Z</time></trkpt><trkpt lat="44.41116348892377" lon="10.124928838567413"><ele>790.8333333333334</ele><time>2026-04-04T08:29:07Z</time></trkpt><trkpt lat="44.411066866142846" lon="10.12493111354314"><ele>790.6666666666667</ele><time>2026-04-04T08:29:08Z</time></trkpt><trkpt lat="44.411005021544824" lon="10.124953702143506"><ele>790.5</ele><time>2026-04-04T08:29:09Z</time></trkpt><trkpt lat="44.410936418653264" lon="10.124932669635795"><ele>790.3333333333333</ele><time>2026-04-04T08:29:11Z</time></trkpt><trkpt lat="44.41086636307342" lon="10.124937438097591"><ele>790.1666666666666</ele><time>2026-04-04T08:29:13Z</time></trkpt><trkpt lat="44.4107300524258" lon="10.124961279835661"><ele>790.0</ele><time>2026-04-04T08:29:15Z</time></trkpt><trkpt lat="44.41063159687893" lon="10.12499573060674"><ele>790.0</ele><time>2026-04-04T08:29:16Z</time></trkpt><trkpt lat="44.41053159494636" lon="10.125046045097495"><ele>790.0</ele><time>2026-04-04T08:29:17Z</time></trkpt><trkpt lat="44.41042533955716" lon="10.125108461318943"><ele>790.0</ele><time>2026-04-04T08:29:18Z</time></trkpt><trkpt lat="44.41031764359816" lon="10.125171557976008"><ele>790.0</ele><time>2026-04-04T08:29:19Z</time></trkpt><trkpt lat="44.4102037560387" lon="10.125237735929725"><ele>791.5</ele><time>2026-04-04T08:29:20Z</time></trkpt><trkpt lat="44.41006869667734" lon="10.125312704932467"><ele>793.0</ele><time>2026-04-04T08:29:21Z</time></trkpt><trkpt lat="44.40994320050852" lon="10.12537255777571"><ele>794.5</ele><time>2026-04-04T08:29:22Z</time></trkpt><trkpt lat="44.40980540581222" lon="10.125423381935718"><ele>796.0</ele><time>2026-04-04T08:29:23Z</time></trkpt><trkpt lat="44.40966866981042" lon="10.125461767914356"><ele>797.5</ele><time>2026-04-04T08:29:24Z</time></trkpt><trkpt lat="44.40954479932921" lon="10.125482467718207"><ele>799.0</ele><time>2026-04-04T08:29:25Z</time></trkpt><trkpt lat="44.409411663001464" lon="10.125490249584821"><ele>800.5</ele><time>2026-04-04T08:29:26Z</time></trkpt><trkpt lat="44.409269580639766" lon="10.125483521423439"><ele>802.0</ele><time>2026-04-04T08:29:27Z</time></trkpt><trkpt lat="44.409119701708555" lon="10.125464154985963"><ele>802.0</ele><time>2026-04-04T08:29:28Z</time></trkpt><trkpt lat="44.40896659475329" lon="10.125441831386768"><ele>802.0</ele><time>2026-04-04T08:29:29Z</time></trkpt><trkpt lat="44.40882030691192" lon="10.125420945477233"><ele>802.0</ele><time>2026-04-04T08:29:30Z</time></trkpt><trkpt lat="44.40868524888757" lon="10.12540165118327"><ele>802.0</ele><time>2026-04-04T08:29:31Z</time></trkpt><trkpt lat="44.40856862989032" lon="10.125384793131106"><ele>802.3333333333333</ele><time>2026-04-04T08:29:32Z</time></trkpt><trkpt lat="44.40847109481412" lon="10.125370693794792"><ele>802.6666666666666</ele><time>2026-04-04T08:29:33Z</time></trkpt><trkpt lat="44.408390111140896" lon="10.12535898705795"><ele>803.0</ele><time>2026-04-04T08:29:34Z</time></trkpt><trkpt lat="44.408312280495636" lon="10.125288182656675"><ele>803.3333333333333</ele><time>2026-04-04T08:29:37Z</time></trkpt><trkpt lat="44.408301050350026" lon="10.12515320589778"><ele>803.6666666666666</ele><time>2026-04-04T08:29:39Z</time></trkpt><trkpt lat="44.40832125584211" lon="10.125052739433887"><ele>804.0</ele><time>2026-04-04T08:29:40Z</time></trkpt><trkpt lat="44.4083695219449" lon="10.124960059210538"><ele>804.0</ele><time>2026-04-04T08:29:41Z</time></trkpt><trkpt lat="44.40845694800647" lon="10.12490779132183"><ele>804.0</ele><time>2026-04-04T08:29:42Z</time></trkpt><trkpt lat="44.40856962407562" lon="10.124918207026017"><ele>804.0</ele><time>2026-04-04T08:29:43Z</time></trkpt><trkpt lat="44.40868822989992" lon="10.124953340279195"><ele>804.0</ele><time>2026-04-04T08:29:44Z</time></trkpt><trkpt lat="44.40879532455742" lon="10.124976188962162"><ele>804.0</ele><time>2026-04-04T08:29:45Z</time></trkpt><trkpt lat="44.40889889961958" lon="10.12499540369934"><ele>803.6</ele><time>2026-04-04T08:29:46Z</time></trkpt><trkpt lat="44.40900963522665" lon="10.125004972177473"><ele>803.2</ele><time>2026-04-04T08:29:47Z</time></trkpt><trkpt lat="44.40910212446013" lon="10.125020004394663"><ele>802.8000000000001</ele><time>2026-04-04T08:29:48Z</time></trkpt><trkpt lat="44.4091810695835" lon="10.124999768419764"><ele>802.4000000000001</ele><time>2026-04-04T08:29:49Z</time></trkpt><trkpt lat="44.409263646942556" lon="10.125007452570129"><ele>802.0</ele><time>2026-04-04T08:29:50Z</time></trkpt><trkpt lat="44.40935244427731" lon="10.124961644804017"><ele>802.6</ele><time>2026-04-04T08:29:51Z</time></trkpt><trkpt lat="44.409424320611" lon="10.124850430989548"><ele>803.2</ele><time>2026-04-04T08:29:52Z</time></trkpt><trkpt lat="44.4094999376402" lon="10.124761003868231"><ele>803.8</ele><time>2026-04-04T08:29:53Z</time></trkpt><trkpt lat="44.409556709189545" lon="10.124645517071473"><ele>804.4</ele><time>2026-04-04T08:29:54Z</time></trkpt><trkpt lat="44.40962144110328" lon="10.124546715542792"><ele>805.0</ele><time>2026-04-04T08:29:55Z</time></trkpt><trkpt lat="44.409676291260666" lon="10.124436633695503"><ele>805.0</ele><time>2026-04-04T08:29:56Z</time></trkpt><trkpt lat="44.40974951691918" lon="10.124335409329925"><ele>805.0</ele><time>2026-04-04T08:29:57Z</time></trkpt><trkpt lat="44.40980985212474" lon="10.124251574960148"><ele>805.0</ele><time>2026-04-04T08:29:57.999Z</time></trkpt><trkpt lat="44.40987164406065" lon="10.124155934104765"><ele>805.0</ele><time>2026-04-04T08:29:58.999Z</time></trkpt><trkpt lat="44.40993527756481" lon="10.124061327116808"><ele>805.0</ele><time>2026-04-04T08:29:59.999Z</time></trkpt><trkpt lat="44.40999657586957" lon="10.123978128552876"><ele>806.8333333333333</ele><time>2026-04-04T08:30:00.999Z</time></trkpt><trkpt lat="44.410057146956696" lon="10.123884043570857"><ele>808.6666666666666</ele><time>2026-04-04T08:30:01.999Z</time></trkpt><trkpt lat="44.41011950497991" lon="10.123795206310982"><ele>810.5</ele><time>2026-04-04T08:30:02.999Z</time></trkpt><trkpt lat="44.41018563758259" lon="10.123727155059765"><ele>812.3333333333333</ele><time>2026-04-04T08:30:03.999Z</time></trkpt><trkpt lat="44.41024856711148" lon="10.123648298094336"><ele>814.1666666666666</ele><time>2026-04-04T08:30:04.999Z</time></trkpt><trkpt lat="44.41031369068782" lon="10.123583331293728"><ele>816.0</ele><time>2026-04-04T08:30:05.999Z</time></trkpt><trkpt lat="44.41037259886642" lon="10.123521873762403"><ele>816.0</ele><time>2026-04-04T08:30:06.999Z</time></trkpt><trkpt lat="44.41047220701246" lon="10.123456491930677"><ele>816.0</ele><time>2026-04-04T08:30:08.999Z</time></trkpt><trkpt lat="44.41055425536849" lon="10.123375195005053"><ele>816.0</ele><time>2026-04-04T08:30:10.999Z</time></trkpt><trkpt lat="44.4106442433357" lon="10.123312475179771"><ele>816.0</ele><time>2026-04-04T08:30:12.999Z</time></trkpt><trkpt lat="44.410674073420864" lon="10.123181379577632"><ele>816.0</ele><time>2026-04-04T08:30:14.999Z</time></trkpt><trkpt lat="44.41068868715468" lon="10.123020210858375"><ele>816.1999999999999</ele><time>2026-04-04T08:30:16.999Z</time></trkpt><trkpt lat="44.41065765287213" lon="10.122874359914531"><ele>816.4</ele><time>2026-04-04T08:30:18.999Z</time></trkpt><trkpt lat="44.41061600236421" lon="10.122729591924308"><ele>816.6</ele><time>2026-04-04T08:30:20.999Z</time></trkpt><trkpt lat="44.41059117111519" lon="10.122575029442103"><ele>816.8</ele><time>2026-04-04T08:30:22.999Z</time></trkpt><trkpt lat="44.41056482390491" lon="10.122424008332857"><ele>817.0</ele><time>2026-04-04T08:30:24.999Z</time></trkpt><trkpt lat="44.41053927676262" lon="10.122341932107915"><ele>818.2</ele><time>2026-04-04T08:30:25.999Z</time></trkpt><trkpt lat="44.41053290898082" lon="10.122169890953998"><ele>819.4000000000001</ele><time>2026-04-04T08:30:27.999Z</time></trkpt><trkpt lat="44.410558970458695" lon="10.122001011782265"><ele>820.5999999999999</ele><time>2026-04-04T08:30:29.999Z</time></trkpt><trkpt lat="44.41059491503146" lon="10.121904565447526"><ele>821.8</ele><time>2026-04-04T08:30:30.999Z</time></trkpt><trkpt lat="44.41065804676286" lon="10.121798017633708"><ele>823.0</ele><time>2026-04-04T08:30:31.999Z</time></trkpt><trkpt lat="44.4107424776056" lon="10.121671053549074"><ele>823.0</ele><time>2026-04-04T08:30:32.999Z</time></trkpt><trkpt lat="44.41081892999133" lon="10.121580389209928"><ele>823.0</ele><time>2026-04-04T08:30:33.999Z</time></trkpt><trkpt lat="44.41090111332143" lon="10.121486531975396"><ele>823.0</ele><time>2026-04-04T08:30:34.999Z</time></trkpt><trkpt lat="44.410995343268354" lon="10.121414432668827"><ele>823.0</ele><time>2026-04-04T08:30:36Z</time></trkpt><trkpt lat="44.41110148045197" lon="10.121400370019176"><ele>823.0</ele><time>2026-04-04T08:30:37Z</time></trkpt><trkpt lat="44.41121720254134" lon="10.121453078576293"><ele>825.25</ele><time>2026-04-04T08:30:38Z</time></trkpt><trkpt lat="44.41133965988422" lon="10.121551751766912"><ele>827.5</ele><time>2026-04-04T08:30:39Z</time></trkpt><trkpt lat="44.41146514846506" lon="10.121646026673185"><ele>829.75</ele><time>2026-04-04T08:30:40Z</time></trkpt><trkpt lat="44.411582865919" lon="10.121742567460258"><ele>832.0</ele><time>2026-04-04T08:30:41Z</time></trkpt><trkpt lat="44.411684673152166" lon="10.121846882224482"><ele>832.0</ele><time>2026-04-04T08:30:42Z</time></trkpt><trkpt lat="44.411774862558694" lon="10.121970706684245"><ele>832.0</ele><time>2026-04-04T08:30:43Z</time></trkpt><trkpt lat="44.41185026881098" lon="10.122098420947003"><ele>832.0</ele><time>2026-04-04T08:30:44Z</time></trkpt><trkpt lat="44.41192715984145" lon="10.122179456757863"><ele>832.0</ele><time>2026-04-04T08:30:45Z</time></trkpt><trkpt lat="44.41201953568717" lon="10.122328627160199"><ele>832.0</ele><time>2026-04-04T08:30:46Z</time></trkpt><trkpt lat="44.41211247961579" lon="10.12240563315409"><ele>832.0</ele><time>2026-04-04T08:30:47Z</time></trkpt><trkpt lat="44.4122157183071" lon="10.122425097254816"><ele>832.0</ele><time>2026-04-04T08:30:48Z</time></trkpt><trkpt lat="44.41231570435036" lon="10.12244112541926"><ele>832.0</ele><time>2026-04-04T08:30:49Z</time></trkpt><trkpt lat="44.41240955144307" lon="10.122420440492775"><ele>832.0</ele><time>2026-04-04T08:30:50Z</time></trkpt><trkpt lat="44.412474321786206" lon="10.122362963852634"><ele>834.6</ele><time>2026-04-04T08:30:51Z</time></trkpt><trkpt lat="44.41254202581747" lon="10.122275582282464"><ele>837.2</ele><time>2026-04-04T08:30:53Z</time></trkpt><trkpt lat="44.41258389707482" lon="10.122198124580482"><ele>839.8</ele><time>2026-04-04T08:30:56Z</time></trkpt><trkpt lat="44.412641123362334" lon="10.12208277213742"><ele>842.4</ele><time>2026-04-04T08:32:08.999Z</time></trkpt><trkpt lat="44.41272724164263" lon="10.121925834156116"><ele>845.0</ele><time>2026-04-04T08:32:10.999Z</time></trkpt><trkpt lat="44.41278074419111" lon="10.121836441579187"><ele>845.0</ele><time>2026-04-04T08:32:11.999Z</time></trkpt><trkpt lat="44.41285844834565" lon="10.121743115750897"><ele>845.0</ele><time>2026-04-04T08:32:12.999Z</time></trkpt><trkpt lat="44.412943917396156" lon="10.121651726822085"><ele>845.0</ele><time>2026-04-04T08:32:13.999Z</time></trkpt><trkpt lat="44.41304213707565" lon="10.12160277825831"><ele>845.0</ele><time>2026-04-04T08:32:14.999Z</time></trkpt><trkpt lat="44.41313878738115" lon="10.121647926912978"><ele>845.0</ele><time>2026-04-04T08:32:15.999Z</time></trkpt><trkpt lat="44.41321735392376" lon="10.121739036301989"><ele>846.0</ele><time>2026-04-04T08:32:16.999Z</time></trkpt><trkpt lat="44.41332696264218" lon="10.1218441288857"><ele>847.0</ele><time>2026-04-04T08:32:17.999Z</time></trkpt><trkpt lat="44.41342847203088" lon="10.12193757792434"><ele>848.0</ele><time>2026-04-04T08:32:18.999Z</time></trkpt><trkpt lat="44.41348882191613" lon="10.122054692464237"><ele>849.0</ele><time>2026-04-04T08:32:19.999Z</time></trkpt><trkpt lat="44.4134757040432" lon="10.122202798766875"><ele>849.0</ele><time>2026-04-04T08:32:20.999Z</time></trkpt><trkpt lat="44.413465203444495" lon="10.122337931791314"><ele>849.0</ele><time>2026-04-04T08:32:21.999Z</time></trkpt><trkpt lat="44.41347089110828" lon="10.122495465848132"><ele>849.0</ele><time>2026-04-04T08:32:22.999Z</time></trkpt><trkpt lat="44.41349750401998" lon="10.12263537241543"><ele>849.0</ele><time>2026-04-04T08:32:23.999Z</time></trkpt><trkpt lat="44.41354236297555" lon="10.122747998006572"><ele>849.0</ele><time>2026-04-04T08:32:24.999Z</time></trkpt><trkpt lat="44.413599936457" lon="10.122874787337484"><ele>847.25</ele><time>2026-04-04T08:32:25.999Z</time></trkpt><trkpt lat="44.41369718962091" lon="10.122981097858391"><ele>845.5</ele><time>2026-04-04T08:32:26.999Z</time></trkpt><trkpt lat="44.413824525811286" lon="10.123047994083255"><ele>843.75</ele><time>2026-04-04T08:32:27.999Z</time></trkpt><trkpt lat="44.413986398246735" lon="10.123105298246077"><ele>842.0</ele><time>2026-04-04T08:32:28.999Z</time></trkpt><trkpt lat="44.41414105514475" lon="10.123172230662172"><ele>844.0</ele><time>2026-04-04T08:32:29.999Z</time></trkpt><trkpt lat="44.414285726308556" lon="10.12325930237068"><ele>846.0</ele><time>2026-04-04T08:32:30.999Z</time></trkpt><trkpt lat="44.41440396395453" lon="10.123363394590925"><ele>848.0</ele><time>2026-04-04T08:32:31.999Z</time></trkpt><trkpt lat="44.41449394025539" lon="10.123464003290247"><ele>850.0</ele><time>2026-04-04T08:32:32.999Z</time></trkpt><trkpt lat="44.41457806867295" lon="10.12355608000413"><ele>852.25</ele><time>2026-04-04T08:32:33.999Z</time></trkpt><trkpt lat="44.414679846547315" lon="10.123656043158409"><ele>854.5</ele><time>2026-04-04T08:32:34.999Z</time></trkpt><trkpt lat="44.41479197157754" lon="10.123711614642621"><ele>856.75</ele><time>2026-04-04T08:32:35.999Z</time></trkpt><trkpt lat="44.41491342014378" lon="10.123731054268209"><ele>859.0</ele><time>2026-04-04T08:32:36.999Z</time></trkpt><trkpt lat="44.41508074455904" lon="10.123749693377501"><ele>859.0</ele><time>2026-04-04T08:32:37.999Z</time></trkpt><trkpt lat="44.41524238698145" lon="10.12373974214947"><ele>859.0</ele><time>2026-04-04T08:32:38.999Z</time></trkpt><trkpt lat="44.41538542239425" lon="10.123735747265014"><ele>859.0</ele><time>2026-04-04T08:32:39.999Z</time></trkpt><trkpt lat="44.415513454599754" lon="10.123745325149594"><ele>859.0</ele><time>2026-04-04T08:32:40.999Z</time></trkpt><trkpt lat="44.415613760187576" lon="10.123809582040911"><ele>860.8000000000001</ele><time>2026-04-04T08:32:42Z</time></trkpt><trkpt lat="44.4157065034536" lon="10.123891606835187"><ele>862.6000000000001</ele><time>2026-04-04T08:32:43Z</time></trkpt><trkpt lat="44.415796979827206" lon="10.12394900398868"><ele>864.4</ele><time>2026-04-04T08:32:44Z</time></trkpt><trkpt lat="44.41589336650147" lon="10.123943415043957"><ele>866.2</ele><time>2026-04-04T08:32:45Z</time></trkpt><trkpt lat="44.41597773127002" lon="10.123870196147386"><ele>868.0</ele><time>2026-04-04T08:32:46Z</time></trkpt><trkpt lat="44.41600108550663" lon="10.123728733224807"><ele>868.0</ele><time>2026-04-04T08:32:47Z</time></trkpt><trkpt lat="44.416008104104876" lon="10.123597408767024"><ele>868.0</ele><time>2026-04-04T08:32:48Z</time></trkpt><trkpt lat="44.4159413109444" lon="10.123447306977255"><ele>868.0</ele><time>2026-04-04T08:32:49Z</time></trkpt><trkpt lat="44.415853744407286" lon="10.123328800974141"><ele>868.0</ele><time>2026-04-04T08:32:50Z</time></trkpt><trkpt lat="44.41575925243803" lon="10.123201616130254"><ele>869.75</ele><time>2026-04-04T08:32:51Z</time></trkpt><trkpt lat="44.41568682399155" lon="10.12306446388603"><ele>871.5</ele><time>2026-04-04T08:32:52Z</time></trkpt><trkpt lat="44.41564177472127" lon="10.122880131853552"><ele>873.25</ele><time>2026-04-04T08:32:53Z</time></trkpt><trkpt lat="44.41559735119321" lon="10.122704851810752"><ele>875.0</ele><time>2026-04-04T08:32:54Z</time></trkpt><trkpt lat="44.41554929310667" lon="10.122515919283904"><ele>875.25</ele><time>2026-04-04T08:32:55Z</time></trkpt><trkpt lat="44.4155141226985" lon="10.122315829906162"><ele>875.5</ele><time>2026-04-04T08:32:56Z</time></trkpt><trkpt lat="44.415476839342375" lon="10.122123508553061"><ele>875.75</ele><time>2026-04-04T08:32:57Z</time></trkpt><trkpt lat="44.415430244959985" lon="10.121960581836767"><ele>876.0</ele><time>2026-04-04T08:32:58Z</time></trkpt><trkpt lat="44.41536526881284" lon="10.121809722231658"><ele>876.0</ele><time>2026-04-04T08:32:59Z</time></trkpt><trkpt lat="44.41522942508664" lon="10.121682330760345"><ele>876.0</ele><time>2026-04-04T08:33:00Z</time></trkpt><trkpt lat="44.41510268711624" lon="10.121592956682116"><ele>876.0</ele><time>2026-04-04T08:33:01Z</time></trkpt><trkpt lat="44.41500330131337" lon="10.121511874882483"><ele>876.0</ele><time>2026-04-04T08:33:02Z</time></trkpt><trkpt lat="44.41497608237914" lon="10.121400006655891"><ele>877.75</ele><time>2026-04-04T08:33:03Z</time></trkpt><trkpt lat="44.414951242110384" lon="10.121253810882619"><ele>879.5</ele><time>2026-04-04T08:33:04Z</time></trkpt><trkpt lat="44.414944802590234" lon="10.121112349239082"><ele>881.25</ele><time>2026-04-04T08:33:05Z</time></trkpt><trkpt lat="44.41492703035918" lon="10.121003316697648"><ele>883.0</ele><time>2026-04-04T08:33:06Z</time></trkpt><trkpt lat="44.4148984590649" lon="10.120748549395358"><ele>883.0</ele><time>2026-04-04T08:33:07Z</time></trkpt><trkpt lat="44.414899308328174" lon="10.120605312310104"><ele>883.0</ele><time>2026-04-04T08:33:08Z</time></trkpt><trkpt lat="44.41497019433958" lon="10.12045256845477"><ele>883.0</ele><time>2026-04-04T08:33:09Z</time></trkpt><trkpt lat="44.41503045304255" lon="10.12026845604653"><ele>883.0</ele><time>2026-04-04T08:33:10Z</time></trkpt><trkpt lat="44.41511597220676" lon="10.120087924242961"><ele>883.6666666666666</ele><time>2026-04-04T08:33:11Z</time></trkpt><trkpt lat="44.415195756465266" lon="10.119894788870715"><ele>884.3333333333333</ele><time>2026-04-04T08:33:12Z</time></trkpt><trkpt lat="44.415280896958365" lon="10.119690345790739"><ele>885.0</ele><time>2026-04-04T08:33:13Z</time></trkpt><trkpt lat="44.41536419006236" lon="10.119486031694278"><ele>885.0</ele><time>2026-04-04T08:33:14Z</time></trkpt><trkpt lat="44.41543275310096" lon="10.11930914144812"><ele>885.0</ele><time>2026-04-04T08:33:15Z</time></trkpt><trkpt lat="44.41549323343245" lon="10.119150631148349"><ele>885.0</ele><time>2026-04-04T08:33:16Z</time></trkpt><trkpt lat="44.41555719730718" lon="10.118987348862168"><ele>885.0</ele><time>2026-04-04T08:33:17Z</time></trkpt><trkpt lat="44.41561139329077" lon="10.118833996220904"><ele>886.25</ele><time>2026-04-04T08:33:18Z</time></trkpt><trkpt lat="44.4156208948" lon="10.11869263117929"><ele>887.5</ele><time>2026-04-04T08:33:19Z</time></trkpt><trkpt lat="44.41563201382021" lon="10.118543968197086"><ele>888.75</ele><time>2026-04-04T08:33:20Z</time></trkpt><trkpt lat="44.41553347480314" lon="10.11843495583626"><ele>890.0</ele><time>2026-04-04T08:33:21Z</time></trkpt><trkpt lat="44.41544206561367" lon="10.118306585603055"><ele>892.3333333333334</ele><time>2026-04-04T08:33:22Z</time></trkpt><trkpt lat="44.41533547435763" lon="10.118153868098549"><ele>894.6666666666667</ele><time>2026-04-04T08:33:23Z</time></trkpt><trkpt lat="44.415221718739794" lon="10.118015045996009"><ele>897.0</ele><time>2026-04-04T08:33:24Z</time></trkpt><trkpt lat="44.41511260931863" lon="10.117878495220793"><ele>897.0</ele><time>2026-04-04T08:33:25Z</time></trkpt><trkpt lat="44.41503002798191" lon="10.11776059675373"><ele>897.0</ele><time>2026-04-04T08:33:26Z</time></trkpt><trkpt lat="44.41501336214643" lon="10.11761751092971"><ele>897.0</ele><time>2026-04-04T08:33:27Z</time></trkpt><trkpt lat="44.41501947953802" lon="10.11749696634937"><ele>897.0</ele><time>2026-04-04T08:33:28Z</time></trkpt><trkpt lat="44.41510807722666" lon="10.117413749997459"><ele>897.0</ele><time>2026-04-04T08:33:29Z</time></trkpt><trkpt lat="44.41523653858803" lon="10.11739307545067"><ele>897.0</ele><time>2026-04-04T08:33:30Z</time></trkpt><trkpt lat="44.415366724254795" lon="10.117455004209063"><ele>897.0</ele><time>2026-04-04T08:33:31Z</time></trkpt><trkpt lat="44.4155010470826" lon="10.117502772182018"><ele>897.0</ele><time>2026-04-04T08:33:32Z</time></trkpt><trkpt lat="44.415642474883825" lon="10.117469732373818"><ele>897.0</ele><time>2026-04-04T08:33:33Z</time></trkpt><trkpt lat="44.41578406376505" lon="10.117365164443793"><ele>900.5</ele><time>2026-04-04T08:33:34Z</time></trkpt><trkpt lat="44.415899971348836" lon="10.117243320908083"><ele>904.0</ele><time>2026-04-04T08:33:35Z</time></trkpt><trkpt lat="44.416010159742584" lon="10.117106433954794"><ele>907.5</ele><time>2026-04-04T08:33:36Z</time></trkpt><trkpt lat="44.416123962041446" lon="10.116978297342602"><ele>911.0</ele><time>2026-04-04T08:33:37Z</time></trkpt><trkpt lat="44.41623907629508" lon="10.116850265440233"><ele>911.5</ele><time>2026-04-04T08:33:38Z</time></trkpt><trkpt lat="44.416346853871964" lon="10.116717973827463"><ele>912.0</ele><time>2026-04-04T08:33:39Z</time></trkpt><trkpt lat="44.41644746598564" lon="10.11659020702736"><ele>912.5</ele><time>2026-04-04T08:33:40Z</time></trkpt><trkpt lat="44.41652768263101" lon="10.11646184613325"><ele>913.0</ele><time>2026-04-04T08:33:41Z</time></trkpt><trkpt lat="44.41656911790114" lon="10.116289717644998"><ele>915.0</ele><time>2026-04-04T08:33:42Z</time></trkpt><trkpt lat="44.41657248111234" lon="10.116079924307632"><ele>917.0</ele><time>2026-04-04T08:33:43Z</time></trkpt><trkpt lat="44.41656732810181" lon="10.115848014525547"><ele>919.0</ele><time>2026-04-04T08:33:44Z</time></trkpt><trkpt lat="44.41656108656858" lon="10.115621342236949"><ele>919.6666666666666</ele><time>2026-04-04T08:33:45Z</time></trkpt><trkpt lat="44.41656830279226" lon="10.115391234598599"><ele>920.3333333333333</ele><time>2026-04-04T08:33:46Z</time></trkpt><trkpt lat="44.416581092845995" lon="10.115170636783327"><ele>921.0</ele><time>2026-04-04T08:33:47Z</time></trkpt><trkpt lat="44.416587301965954" lon="10.114967659716175"><ele>922.4</ele><time>2026-04-04T08:33:48Z</time></trkpt><trkpt lat="44.41659923445907" lon="10.11478705492717"><ele>923.8</ele><time>2026-04-04T08:33:49Z</time></trkpt><trkpt lat="44.41660865156257" lon="10.114621811598498"><ele>925.1999999999999</ele><time>2026-04-04T08:33:50Z</time></trkpt><trkpt lat="44.4166080059205" lon="10.114501808994742"><ele>926.5999999999999</ele><time>2026-04-04T08:33:51Z</time></trkpt><trkpt lat="44.41660195963932" lon="10.114389526896954"><ele>928.0</ele><time>2026-04-04T08:33:52Z</time></trkpt><trkpt lat="44.416592391130436" lon="10.114294895283855"><ele>927.9999999999999</ele><time>2026-04-04T08:33:53Z</time></trkpt><trkpt lat="44.41654963039616" lon="10.11413327709186"><ele>928.0</ele><time>2026-04-04T08:33:55Z</time></trkpt><trkpt lat="44.41650458843572" lon="10.11405494137434"><ele>928.0</ele><time>2026-04-04T08:33:56Z</time></trkpt><trkpt lat="44.416452768374405" lon="10.113983803051681"><ele>928.0</ele><time>2026-04-04T08:33:57Z</time></trkpt><trkpt lat="44.41639021675946" lon="10.113913251583627"><ele>927.9999999999999</ele><time>2026-04-04T08:33:58Z</time></trkpt><trkpt lat="44.416319677011316" lon="10.113825633164511"><ele>928.0</ele><time>2026-04-04T08:33:59Z</time></trkpt><trkpt lat="44.416238582875785" lon="10.11370264035425"><ele>928.5</ele><time>2026-04-04T08:34:00Z</time></trkpt><trkpt lat="44.41615429332607" lon="10.113552022208806"><ele>929.0</ele><time>2026-04-04T08:34:01Z</time></trkpt><trkpt lat="44.4160838158555" lon="10.113353625509488"><ele>929.5</ele><time>2026-04-04T08:34:02Z</time></trkpt><trkpt lat="44.416036488373265" lon="10.113175095343"><ele>930.0</ele><time>2026-04-04T08:34:03Z</time></trkpt><trkpt lat="44.416009028433784" lon="10.113027043271366"><ele>933.0</ele><time>2026-04-04T08:34:04Z</time></trkpt><trkpt lat="44.41596018455495" lon="10.112932104341361"><ele>936.0</ele><time>2026-04-04T08:34:05Z</time></trkpt><trkpt lat="44.41587869237886" lon="10.11288570427498"><ele>939.0</ele><time>2026-04-04T08:34:06Z</time></trkpt><trkpt lat="44.415757109936294" lon="10.112872791008636"><ele>942.0</ele><time>2026-04-04T08:34:06.999Z</time></trkpt><trkpt lat="44.41562543639242" lon="10.112920453161301"><ele>945.0</ele><time>2026-04-04T08:34:07.999Z</time></trkpt><trkpt lat="44.41549874964613" lon="10.113030640183329"><ele>946.6666666666667</ele><time>2026-04-04T08:34:08.999Z</time></trkpt><trkpt lat="44.415387095866265" lon="10.113188645041681"><ele>948.3333333333334</ele><time>2026-04-04T08:34:09.999Z</time></trkpt><trkpt lat="44.415244775589315" lon="10.113325349062412"><ele>950.0</ele><time>2026-04-04T08:34:10.999Z</time></trkpt><trkpt lat="44.415092592943864" lon="10.11347372871535"><ele>950.3333333333334</ele><time>2026-04-04T08:34:11.999Z</time></trkpt><trkpt lat="44.41493925195995" lon="10.113619568775855"><ele>950.6666666666667</ele><time>2026-04-04T08:34:12.999Z</time></trkpt><trkpt lat="44.41478436385027" lon="10.113783198370198"><ele>951.0</ele><time>2026-04-04T08:34:13.999Z</time></trkpt><trkpt lat="44.414642900055554" lon="10.113962046936505"><ele>949.0</ele><time>2026-04-04T08:34:14.999Z</time></trkpt><trkpt lat="44.41451222774006" lon="10.114136408667461"><ele>947.0</ele><time>2026-04-04T08:34:15.999Z</time></trkpt><trkpt lat="44.41439913544126" lon="10.114283215855268"><ele>945.0</ele><time>2026-04-04T08:34:16.999Z</time></trkpt><trkpt lat="44.414273034434046" lon="10.114421380794022"><ele>945.0</ele><time>2026-04-04T08:34:17.999Z</time></trkpt><trkpt lat="44.414124682045156" lon="10.114541893240558"><ele>945.0</ele><time>2026-04-04T08:34:18.999Z</time></trkpt><trkpt lat="44.41397378701308" lon="10.114633395835082"><ele>945.0</ele><time>2026-04-04T08:34:19.999Z</time></trkpt><trkpt lat="44.41384421169562" lon="10.114684493882217"><ele>945.4</ele><time>2026-04-04T08:34:20.999Z</time></trkpt><trkpt lat="44.41374218054316" lon="10.114680375489314"><ele>945.8</ele><time>2026-04-04T08:34:21.999Z</time></trkpt><trkpt lat="44.41363977070219" lon="10.114637533618803"><ele>946.2</ele><time>2026-04-04T08:34:22.999Z</time></trkpt><trkpt lat="44.413571390359735" lon="10.114573331342056"><ele>946.6</ele><time>2026-04-04T08:34:23.999Z</time></trkpt><trkpt lat="44.41353477846361" lon="10.114447073137676"><ele>947.0</ele><time>2026-04-04T08:34:24.999Z</time></trkpt><trkpt lat="44.41352576973351" lon="10.114294021411098"><ele>947.0</ele><time>2026-04-04T08:34:25.999Z</time></trkpt><trkpt lat="44.41355308836079" lon="10.114099261199566"><ele>947.0</ele><time>2026-04-04T08:34:26.999Z</time></trkpt><trkpt lat="44.41361767867331" lon="10.113907843265576"><ele>947.0</ele><time>2026-04-04T08:34:27.999Z</time></trkpt><trkpt lat="44.4137108279607" lon="10.113743889196014"><ele>947.0</ele><time>2026-04-04T08:34:28.999Z</time></trkpt><trkpt lat="44.413839141613984" lon="10.113597491072266"><ele>948.0</ele><time>2026-04-04T08:34:29.999Z</time></trkpt><trkpt lat="44.4139426793779" lon="10.113458655554018"><ele>949.0</ele><time>2026-04-04T08:34:30.999Z</time></trkpt><trkpt lat="44.41400850900861" lon="10.113302139384853"><ele>950.0</ele><time>2026-04-04T08:34:31.999Z</time></trkpt><trkpt lat="44.41404960419565" lon="10.113121187115613"><ele>951.0</ele><time>2026-04-04T08:34:32.999Z</time></trkpt><trkpt lat="44.41408610598973" lon="10.112934804736753"><ele>953.0</ele><time>2026-04-04T08:34:33.999Z</time></trkpt><trkpt lat="44.41412734810694" lon="10.112747502649736"><ele>955.0</ele><time>2026-04-04T08:34:34.999Z</time></trkpt><trkpt lat="44.41417728041778" lon="10.112558897370231"><ele>957.0</ele><time>2026-04-04T08:34:35.999Z</time></trkpt><trkpt lat="44.41424799057345" lon="10.112371594602138"><ele>959.0</ele><time>2026-04-04T08:34:36.999Z</time></trkpt><trkpt lat="44.41436527891165" lon="10.112195737530813"><ele>962.0</ele><time>2026-04-04T08:34:37.999Z</time></trkpt><trkpt lat="44.41450278131469" lon="10.112028688986273"><ele>965.0</ele><time>2026-04-04T08:34:38.999Z</time></trkpt><trkpt lat="44.414644674136134" lon="10.111860965876836"><ele>968.0</ele><time>2026-04-04T08:34:39.999Z</time></trkpt><trkpt lat="44.414773439468085" lon="10.111721895329648"><ele>968.0</ele><time>2026-04-04T08:34:40.999Z</time></trkpt><trkpt lat="44.41490298306414" lon="10.11163619015878"><ele>968.0</ele><time>2026-04-04T08:34:41.999Z</time></trkpt><trkpt lat="44.415033039789435" lon="10.111617664121304"><ele>968.0</ele><time>2026-04-04T08:34:42.999Z</time></trkpt><trkpt lat="44.415200478399456" lon="10.111650673036989"><ele>968.0</ele><time>2026-04-04T08:34:43.999Z</time></trkpt><trkpt lat="44.4153680097629" lon="10.11167426763751"><ele>968.3333333333334</ele><time>2026-04-04T08:34:44.999Z</time></trkpt><trkpt lat="44.4155635938584" lon="10.111639150477902"><ele>968.6666666666667</ele><time>2026-04-04T08:34:45.999Z</time></trkpt><trkpt lat="44.41575589336881" lon="10.111575821678231"><ele>969.0</ele><time>2026-04-04T08:34:46.999Z</time></trkpt><trkpt lat="44.41594384188601" lon="10.111501431820233"><ele>973.0</ele><time>2026-04-04T08:34:48Z</time></trkpt><trkpt lat="44.41613255222112" lon="10.111436363073857"><ele>977.0</ele><time>2026-04-04T08:34:49Z</time></trkpt><trkpt lat="44.416307072604766" lon="10.111379481701611"><ele>981.0</ele><time>2026-04-04T08:34:50Z</time></trkpt><trkpt lat="44.416456012673564" lon="10.111322721276158"><ele>981.0</ele><time>2026-04-04T08:34:51Z</time></trkpt><trkpt lat="44.41658818280831" lon="10.111213901968"><ele>981.0</ele><time>2026-04-04T08:34:52Z</time></trkpt><trkpt lat="44.416738311801595" lon="10.111050270341275"><ele>981.0</ele><time>2026-04-04T08:34:53Z</time></trkpt><trkpt lat="44.41689613138028" lon="10.11088753517415"><ele>981.0</ele><time>2026-04-04T08:34:54Z</time></trkpt><trkpt lat="44.41706072632872" lon="10.110751670431751"><ele>981.0</ele><time>2026-04-04T08:34:55Z</time></trkpt><trkpt lat="44.41719717397615" lon="10.110659987750527"><ele>981.0</ele><time>2026-04-04T08:34:56Z</time></trkpt><trkpt lat="44.41728851504727" lon="10.11060272320288"><ele>981.0</ele><time>2026-04-04T08:34:57Z</time></trkpt><trkpt lat="44.41732475198801" lon="10.11053031903484"><ele>983.75</ele><time>2026-04-04T08:34:58Z</time></trkpt><trkpt lat="44.41734629023134" lon="10.110414333519122"><ele>986.5</ele><time>2026-04-04T08:34:59Z</time></trkpt><trkpt lat="44.417324612131985" lon="10.110256092425479"><ele>989.25</ele><time>2026-04-04T08:35:00Z</time></trkpt><trkpt lat="44.41724340977074" lon="10.110107838328261"><ele>992.0</ele><time>2026-04-04T08:35:01Z</time></trkpt><trkpt lat="44.41712857943517" lon="10.110003651825336"><ele>992.0</ele><time>2026-04-04T08:35:02Z</time></trkpt><trkpt lat="44.416980669804516" lon="10.10996433896665"><ele>992.0</ele><time>2026-04-04T08:35:03Z</time></trkpt><trkpt lat="44.416809732906344" lon="10.109975338122306"><ele>992.0</ele><time>2026-04-04T08:35:04Z</time></trkpt><trkpt lat="44.41661551008464" lon="10.110003562492487"><ele>992.0</ele><time>2026-04-04T08:35:05Z</time></trkpt><trkpt lat="44.416424343210394" lon="10.110021407662302"><ele>992.0</ele><time>2026-04-04T08:35:06Z</time></trkpt><trkpt lat="44.41624854743174" lon="10.110053208546562"><ele>992.0</ele><time>2026-04-04T08:35:07Z</time></trkpt><trkpt lat="44.41602729957127" lon="10.110050298426271"><ele>994.0</ele><time>2026-04-04T08:35:08Z</time></trkpt><trkpt lat="44.415824342783374" lon="10.110069318372336"><ele>996.0</ele><time>2026-04-04T08:35:09Z</time></trkpt><trkpt lat="44.415628684306554" lon="10.110093287023044"><ele>998.0</ele><time>2026-04-04T08:35:10Z</time></trkpt><trkpt lat="44.41545003827688" lon="10.110124915623535"><ele>1000.25</ele><time>2026-04-04T08:35:11Z</time></trkpt><trkpt lat="44.415292611918865" lon="10.110170114736135"><ele>1002.5</ele><time>2026-04-04T08:35:12Z</time></trkpt><trkpt lat="44.41514885603041" lon="10.11022472642514"><ele>1004.75</ele><time>2026-04-04T08:35:13Z</time></trkpt><trkpt lat="44.415013302931094" lon="10.11026406328077"><ele>1007.0</ele><time>2026-04-04T08:35:14Z</time></trkpt><trkpt lat="44.41490107333099" lon="10.110248215344543"><ele>1007.0</ele><time>2026-04-04T08:35:15Z</time></trkpt><trkpt lat="44.41482985187566" lon="10.11015699396547"><ele>1007.0</ele><time>2026-04-04T08:35:16Z</time></trkpt><trkpt lat="44.41474807655247" lon="10.110080329972646"><ele>1007.0</ele><time>2026-04-04T08:35:17Z</time></trkpt><trkpt lat="44.41466392297735" lon="10.10995255284818"><ele>1007.0</ele><time>2026-04-04T08:35:18Z</time></trkpt><trkpt lat="44.41457984236589" lon="10.109807012957464"><ele>1007.6666666666667</ele><time>2026-04-04T08:35:19Z</time></trkpt><trkpt lat="44.41451919148941" lon="10.10962628499442"><ele>1008.3333333333333</ele><time>2026-04-04T08:35:20Z</time></trkpt><trkpt lat="44.41448727703568" lon="10.109413563702551"><ele>1009.0</ele><time>2026-04-04T08:35:21Z</time></trkpt><trkpt lat="44.41446240558064" lon="10.10916826863686"><ele>1013.0</ele><time>2026-04-04T08:35:22Z</time></trkpt><trkpt lat="44.41442395021034" lon="10.108946265005493"><ele>1017.0</ele><time>2026-04-04T08:35:23Z</time></trkpt><trkpt lat="44.41438408438546" lon="10.108730936688913"><ele>1021.0</ele><time>2026-04-04T08:35:24Z</time></trkpt><trkpt lat="44.414343721575015" lon="10.108546326260228"><ele>1021.0</ele><time>2026-04-04T08:35:25Z</time></trkpt><trkpt lat="44.41429765042454" lon="10.108341280233557"><ele>1021.0</ele><time>2026-04-04T08:35:26Z</time></trkpt><trkpt lat="44.414266450385036" lon="10.10813320830691"><ele>1021.0</ele><time>2026-04-04T08:35:27Z</time></trkpt><trkpt lat="44.41423723523431" lon="10.107952842979982"><ele>1021.0</ele><time>2026-04-04T08:35:28Z</time></trkpt><trkpt lat="44.41419719801548" lon="10.107772043281958"><ele>1023.4</ele><time>2026-04-04T08:35:29Z</time></trkpt><trkpt lat="44.41418454318081" lon="10.107641158693038"><ele>1025.8</ele><time>2026-04-04T08:35:30Z</time></trkpt><trkpt lat="44.4142143750013" lon="10.107551589981544"><ele>1028.1999999999998</ele><time>2026-04-04T08:35:31Z</time></trkpt><trkpt lat="44.414259755249425" lon="10.107447582465822"><ele>1030.6</ele><time>2026-04-04T08:35:32Z</time></trkpt><trkpt lat="44.414394015137894" lon="10.10741886057218"><ele>1033.0</ele><time>2026-04-04T08:35:33Z</time></trkpt><trkpt lat="44.414514315019964" lon="10.10742389744582"><ele>1033.0</ele><time>2026-04-04T08:35:34Z</time></trkpt><trkpt lat="44.41461225600081" lon="10.107530043217121"><ele>1033.0</ele><time>2026-04-04T08:35:35Z</time></trkpt><trkpt lat="44.41464221250476" lon="10.107670332520868"><ele>1033.0</ele><time>2026-04-04T08:35:36Z</time></trkpt><trkpt lat="44.41462720490529" lon="10.107818699243344"><ele>1033.0</ele><time>2026-04-04T08:35:37Z</time></trkpt><trkpt lat="44.414588854084485" lon="10.107984097406888"><ele>1033.0</ele><time>2026-04-04T08:35:38Z</time></trkpt><trkpt lat="44.41461576970247" lon="10.108158562785869"><ele>1033.0</ele><time>2026-04-04T08:35:39Z</time></trkpt><trkpt lat="44.414644114776294" lon="10.108354890493313"><ele>1033.0</ele><time>2026-04-04T08:35:40Z</time></trkpt><trkpt lat="44.414689057140464" lon="10.108563351251926"><ele>1033.0</ele><time>2026-04-04T08:35:41Z</time></trkpt><trkpt lat="44.41474280921491" lon="10.108742056794714"><ele>1035.0</ele><time>2026-04-04T08:35:42Z</time></trkpt><trkpt lat="44.41479562508282" lon="10.108860149268848"><ele>1037.0</ele><time>2026-04-04T08:35:43Z</time></trkpt><trkpt lat="44.41488000343125" lon="10.108918388086185"><ele>1039.0</ele><time>2026-04-04T08:35:44Z</time></trkpt><trkpt lat="44.41499370932799" lon="10.10890723381126"><ele>1041.0</ele><time>2026-04-04T08:35:45Z</time></trkpt><trkpt lat="44.41511091904066" lon="10.10892522718501"><ele>1043.0</ele><time>2026-04-04T08:35:46Z</time></trkpt><trkpt lat="44.41523906961094" lon="10.10891319246101"><ele>1043.0</ele><time>2026-04-04T08:35:47Z</time></trkpt><trkpt lat="44.41535478162237" lon="10.10885007921037"><ele>1043.0</ele><time>2026-04-04T08:35:48Z</time></trkpt><trkpt lat="44.41544483870433" lon="10.10872634352943"><ele>1043.0</ele><time>2026-04-04T08:35:49Z</time></trkpt><trkpt lat="44.415536145091686" lon="10.10857752503649"><ele>1043.0</ele><time>2026-04-04T08:35:50Z</time></trkpt><trkpt lat="44.41564589013359" lon="10.108424837300731"><ele>1041.3333333333335</ele><time>2026-04-04T08:35:51Z</time></trkpt><trkpt lat="44.415768234569086" lon="10.108287334364297"><ele>1039.6666666666667</ele><time>2026-04-04T08:35:52Z</time></trkpt><trkpt lat="44.41588064008248" lon="10.10814107894513"><ele>1038.0</ele><time>2026-04-04T08:35:53Z</time></trkpt><trkpt lat="44.41598818569497" lon="10.107976800338124"><ele>1036.6666666666667</ele><time>2026-04-04T08:35:54Z</time></trkpt><trkpt lat="44.41608624379942" lon="10.107800206877295"><ele>1035.3333333333335</ele><time>2026-04-04T08:35:55Z</time></trkpt><trkpt lat="44.416196384175755" lon="10.107654865432522"><ele>1034.0</ele><time>2026-04-04T08:35:56Z</time></trkpt><trkpt lat="44.4163239551813" lon="10.107565987550846"><ele>1034.0</ele><time>2026-04-04T08:35:57Z</time></trkpt><trkpt lat="44.41642739719254" lon="10.107461733051602"><ele>1034.0</ele><time>2026-04-04T08:35:58Z</time></trkpt><trkpt lat="44.416502834907256" lon="10.107298820642137"><ele>1034.0</ele><time>2026-04-04T08:35:59Z</time></trkpt><trkpt lat="44.41657648220083" lon="10.107105005970388"><ele>1034.0</ele><time>2026-04-04T08:36:00Z</time></trkpt><trkpt lat="44.41664410008612" lon="10.106900813871814"><ele>1037.75</ele><time>2026-04-04T08:36:01Z</time></trkpt><trkpt lat="44.416720446969926" lon="10.106700465590722"><ele>1041.5</ele><time>2026-04-04T08:36:02Z</time></trkpt><trkpt lat="44.41678739455358" lon="10.10652139854189"><ele>1045.25</ele><time>2026-04-04T08:36:03Z</time></trkpt><trkpt lat="44.416841109692015" lon="10.106361114895215"><ele>1049.0</ele><time>2026-04-04T08:36:04Z</time></trkpt><trkpt lat="44.41689845957329" lon="10.106210797110718"><ele>1053.0</ele><time>2026-04-04T08:36:05Z</time></trkpt><trkpt lat="44.41695531214319" lon="10.106074517078534"><ele>1057.0</ele><time>2026-04-04T08:36:06Z</time></trkpt><trkpt lat="44.41703649609182" lon="10.10599036394688"><ele>1061.0</ele><time>2026-04-04T08:36:07Z</time></trkpt><trkpt lat="44.417146081743134" lon="10.105939863650374"><ele>1065.0</ele><time>2026-04-04T08:36:08Z</time></trkpt><trkpt lat="44.41726368889435" lon="10.105977483790578"><ele>1065.0</ele><time>2026-04-04T08:36:08.999Z</time></trkpt><trkpt lat="44.417368379844135" lon="10.106092547029915"><ele>1065.0</ele><time>2026-04-04T08:36:09.999Z</time></trkpt><trkpt lat="44.417476969037416" lon="10.106186399329264"><ele>1065.0</ele><time>2026-04-04T08:36:10.999Z</time></trkpt><trkpt lat="44.41759069844778" lon="10.106260467655611"><ele>1065.0</ele><time>2026-04-04T08:36:11.999Z</time></trkpt><trkpt lat="44.417696336721505" lon="10.10635397898575"><ele>1065.0</ele><time>2026-04-04T08:36:12.999Z</time></trkpt><trkpt lat="44.417803111284236" lon="10.106481198736052"><ele>1065.0</ele><time>2026-04-04T08:36:13.999Z</time></trkpt><trkpt lat="44.41792716903766" lon="10.106614226494067"><ele>1065.0</ele><time>2026-04-04T08:36:14.999Z</time></trkpt><trkpt lat="44.4179878763314" lon="10.106649521748452"><ele>1065.0</ele><time>2026-04-04T08:36:15.999Z</time></trkpt><trkpt lat="44.41808970516091" lon="10.106705369613458"><ele>1064.75</ele><time>2026-04-04T08:36:16.999Z</time></trkpt><trkpt lat="44.41820007771236" lon="10.106697049653652"><ele>1064.5</ele><time>2026-04-04T08:36:17.999Z</time></trkpt><trkpt lat="44.418317088547944" lon="10.10670666480495"><ele>1064.25</ele><time>2026-04-04T08:36:18.999Z</time></trkpt><trkpt lat="44.418439208963484" lon="10.106728240741118"><ele>1064.0</ele><time>2026-04-04T08:36:19.999Z</time></trkpt><trkpt lat="44.41855799414347" lon="10.106850036964998"><ele>1064.0</ele><time>2026-04-04T08:36:20.999Z</time></trkpt><trkpt lat="44.41868802724371" lon="10.1069740493021"><ele>1064.0</ele><time>2026-04-04T08:36:21.999Z</time></trkpt><trkpt lat="44.418810811280295" lon="10.10710786465414"><ele>1064.0</ele><time>2026-04-04T08:36:22.999Z</time></trkpt><trkpt lat="44.418929732952684" lon="10.107240183300098"><ele>1065.75</ele><time>2026-04-04T08:36:23.999Z</time></trkpt><trkpt lat="44.41902998952658" lon="10.10737888119429"><ele>1067.5</ele><time>2026-04-04T08:36:24.999Z</time></trkpt><trkpt lat="44.419102143026734" lon="10.107538203839896"><ele>1069.25</ele><time>2026-04-04T08:36:25.999Z</time></trkpt><trkpt lat="44.41914705985431" lon="10.10772084092297"><ele>1071.0</ele><time>2026-04-04T08:36:26.999Z</time></trkpt><trkpt lat="44.4192051631699" lon="10.107925407868738"><ele>1071.0</ele><time>2026-04-04T08:36:27.999Z</time></trkpt><trkpt lat="44.419268949258246" lon="10.108139882747995"><ele>1071.0</ele><time>2026-04-04T08:36:28.999Z</time></trkpt><trkpt lat="44.4193282292465" lon="10.108335074627702"><ele>1071.0</ele><time>2026-04-04T08:36:29.999Z</time></trkpt><trkpt lat="44.41938645344909" lon="10.108526790125442"><ele>1067.5</ele><time>2026-04-04T08:36:30.999Z</time></trkpt><trkpt lat="44.419437973853945" lon="10.108711147821783"><ele>1064.0</ele><time>2026-04-04T08:36:31.999Z</time></trkpt><trkpt lat="44.419480228100014" lon="10.108875753874587"><ele>1060.5</ele><time>2026-04-04T08:36:32.999Z</time></trkpt><trkpt lat="44.419519206864585" lon="10.109014806401625"><ele>1057.0</ele><time>2026-04-04T08:36:33.999Z</time></trkpt><trkpt lat="44.41955968881498" lon="10.109140121477397"><ele>1056.2</ele><time>2026-04-04T08:36:34.999Z</time></trkpt><trkpt lat="44.419612615773204" lon="10.109250695690358"><ele>1055.4</ele><time>2026-04-04T08:36:35.999Z</time></trkpt><trkpt lat="44.41967866554816" lon="10.109358169852577"><ele>1054.6</ele><time>2026-04-04T08:36:36.999Z</time></trkpt><trkpt lat="44.419786468279725" lon="10.109401011660033"><ele>1053.8</ele><time>2026-04-04T08:36:37.999Z</time></trkpt><trkpt lat="44.41987833964239" lon="10.109347452038886"><ele>1053.0</ele><time>2026-04-04T08:36:38.999Z</time></trkpt><trkpt lat="44.41993451403747" lon="10.109235506952624"><ele>1059.75</ele><time>2026-04-04T08:36:39.999Z</time></trkpt><trkpt lat="44.41996089805283" lon="10.10910809222307"><ele>1066.5</ele><time>2026-04-04T08:36:40.999Z</time></trkpt><trkpt lat="44.41995728136017" lon="10.10895239166742"><ele>1073.25</ele><time>2026-04-04T08:36:41.999Z</time></trkpt><trkpt lat="44.41993487996685" lon="10.10878210253427"><ele>1080.0</ele><time>2026-04-04T08:36:42.999Z</time></trkpt><trkpt lat="44.41985544723502" lon="10.108624534494233"><ele>1081.5</ele><time>2026-04-04T08:36:43.999Z</time></trkpt><trkpt lat="44.419784454162716" lon="10.108466147547523"><ele>1083.0</ele><time>2026-04-04T08:36:44.999Z</time></trkpt><trkpt lat="44.41973372358293" lon="10.108302592307632"><ele>1084.5</ele><time>2026-04-04T08:36:45.999Z</time></trkpt><trkpt lat="44.41970098874967" lon="10.108129582650106"><ele>1086.0</ele><time>2026-04-04T08:36:46.999Z</time></trkpt><trkpt lat="44.419716433910054" lon="10.107981760502781"><ele>1088.3999999999999</ele><time>2026-04-04T08:36:47.999Z</time></trkpt><trkpt lat="44.41975979997262" lon="10.107861917369547"><ele>1090.8</ele><time>2026-04-04T08:36:48.999Z</time></trkpt><trkpt lat="44.419835737654836" lon="10.107779481688944"><ele>1093.1999999999998</ele><time>2026-04-04T08:36:49.999Z</time></trkpt><trkpt lat="44.41993365411662" lon="10.107760817544436"><ele>1095.6</ele><time>2026-04-04T08:36:50.999Z</time></trkpt><trkpt lat="44.420048916745124" lon="10.107848642756391"><ele>1098.0</ele><time>2026-04-04T08:36:51.999Z</time></trkpt><trkpt lat="44.42020178235854" lon="10.107909055002125"><ele>1098.0</ele><time>2026-04-04T08:36:52.999Z</time></trkpt><trkpt lat="44.42036096929097" lon="10.107959359268271"><ele>1098.0</ele><time>2026-04-04T08:36:54Z</time></trkpt><trkpt lat="44.42050177038168" lon="10.108064804258643"><ele>1098.0</ele><time>2026-04-04T08:36:55Z</time></trkpt><trkpt lat="44.42062807414579" lon="10.108215062371483"><ele>1099.6666666666667</ele><time>2026-04-04T08:36:56Z</time></trkpt><trkpt lat="44.42074361581334" lon="10.108398422837777"><ele>1101.3333333333335</ele><time>2026-04-04T08:36:57Z</time></trkpt><trkpt lat="44.42080319405492" lon="10.108567357826566"><ele>1103.0</ele><time>2026-04-04T08:36:58Z</time></trkpt><trkpt lat="44.42085708683445" lon="10.108756211495031"><ele>1103.0</ele><time>2026-04-04T08:36:59Z</time></trkpt><trkpt lat="44.42092501290925" lon="10.108900010027531"><ele>1103.0</ele><time>2026-04-04T08:37:00Z</time></trkpt><trkpt lat="44.42102972644031" lon="10.109005518283857"><ele>1103.0</ele><time>2026-04-04T08:37:01Z</time></trkpt><trkpt lat="44.421157214789616" lon="10.109117398846504"><ele>1103.0</ele><time>2026-04-04T08:37:02Z</time></trkpt><trkpt lat="44.421221746677084" lon="10.109158409512748"><ele>1103.0</ele><time>2026-04-04T08:37:03Z</time></trkpt><trkpt lat="44.4211323892265" lon="10.108960830624925"><ele>1103.0</ele><time>2026-04-04T08:37:19Z</time></trkpt><trkpt lat="44.42114204449111" lon="10.108855504898326"><ele>1103.0</ele><time>2026-04-04T08:37:21Z</time></trkpt><trkpt lat="44.42115210054997" lon="10.108713787667654"><ele>1103.0</ele><time>2026-04-04T08:37:24Z</time></trkpt><trkpt lat="44.42112983430433" lon="10.108628901565504"><ele>1103.0</ele><time>2026-04-04T08:37:25Z</time></trkpt><trkpt lat="44.42107675126136" lon="10.108505230329472"><ele>1103.0000000000002</ele><time>2026-04-04T08:37:27Z</time></trkpt><trkpt lat="44.42103612584848" lon="10.108379592461004"><ele>1103.0</ele><time>2026-04-04T08:37:29Z</time></trkpt><trkpt lat="44.420975780527606" lon="10.108337480526917"><ele>1103.0</ele><time>2026-04-04T08:37:31Z</time></trkpt><trkpt lat="44.420947763623076" lon="10.108250621534902"><ele>1103.0</ele><time>2026-04-04T08:37:56Z</time></trkpt><trkpt lat="44.42092303014311" lon="10.108165048896446"><ele>1103.0</ele><time>2026-04-04T08:37:57Z</time></trkpt><trkpt lat="44.420890692412854" lon="10.1080774943325"><ele>1103.0000000000002</ele><time>2026-04-04T08:37:58Z</time></trkpt><trkpt lat="44.420855386116926" lon="10.108004493795518"><ele>1103.0</ele><time>2026-04-04T08:37:59Z</time></trkpt><trkpt lat="44.420813040442624" lon="10.107938222403757"><ele>1105.3333333333335</ele><time>2026-04-04T08:38:00Z</time></trkpt><trkpt lat="44.42074224882941" lon="10.107821055622834"><ele>1107.6666666666667</ele><time>2026-04-04T08:38:02Z</time></trkpt><trkpt lat="44.420706554160255" lon="10.107748192411512"><ele>1110.0</ele><time>2026-04-04T08:38:03Z</time></trkpt><trkpt lat="44.4206565776376" lon="10.107617521552168"><ele>1112.3333333333333</ele><time>2026-04-04T08:38:05Z</time></trkpt><trkpt lat="44.42062776315479" lon="10.10753310710599"><ele>1114.6666666666665</ele><time>2026-04-04T08:38:06Z</time></trkpt><trkpt lat="44.42059928999039" lon="10.107394525436778"><ele>1117.0</ele><time>2026-04-04T08:38:07.999Z</time></trkpt><trkpt lat="44.420583485635255" lon="10.107231404387473"><ele>1117.3333333333333</ele><time>2026-04-04T08:38:09.999Z</time></trkpt><trkpt lat="44.42051827888911" lon="10.107075896221508"><ele>1117.6666666666665</ele><time>2026-04-04T08:38:11.999Z</time></trkpt><trkpt lat="44.420470457656826" lon="10.107014010414854"><ele>1118.0</ele><time>2026-04-04T08:38:12.999Z</time></trkpt><trkpt lat="44.42042030046969" lon="10.106959314468604"><ele>1118.3333333333333</ele><time>2026-04-04T08:38:13.999Z</time></trkpt><trkpt lat="44.42037002234698" lon="10.10690267874046"><ele>1118.6666666666667</ele><time>2026-04-04T08:38:14.999Z</time></trkpt><trkpt lat="44.420320187979236" lon="10.106847091139553"><ele>1119.0</ele><time>2026-04-04T08:38:15.999Z</time></trkpt><trkpt lat="44.42024417179009" lon="10.106768921884509"><ele>1119.0</ele><time>2026-04-04T08:38:17.999Z</time></trkpt><trkpt lat="44.42018968103197" lon="10.106719914071554"><ele>1119.0</ele><time>2026-04-04T08:38:18.999Z</time></trkpt><trkpt lat="44.42012036963224" lon="10.106661612341993"><ele>1119.0</ele><time>2026-04-04T08:38:19.999Z</time></trkpt><trkpt lat="44.42005594599928" lon="10.106627344529397"><ele>1119.0</ele><time>2026-04-04T08:38:20.999Z</time></trkpt><trkpt lat="44.41997461632514" lon="10.10659919608165"><ele>1119.0</ele><time>2026-04-04T08:38:21.999Z</time></trkpt><trkpt lat="44.41990804375363" lon="10.106581061123306"><ele>1119.0</ele><time>2026-04-04T08:38:22.999Z</time></trkpt><trkpt lat="44.419800867932295" lon="10.106549281856223"><ele>1120.75</ele><time>2026-04-04T08:38:24.999Z</time></trkpt><trkpt lat="44.41969210439558" lon="10.106489365399483"><ele>1122.5</ele><time>2026-04-04T08:38:26.999Z</time></trkpt><trkpt lat="44.41961670206179" lon="10.10636493381765"><ele>1124.25</ele><time>2026-04-04T08:38:28.999Z</time></trkpt><trkpt lat="44.41953816343818" lon="10.106265241030526"><ele>1126.0</ele><time>2026-04-04T08:38:30.999Z</time></trkpt><trkpt lat="44.41944405653758" lon="10.106154644601437"><ele>1126.0</ele><time>2026-04-04T08:38:32.999Z</time></trkpt><trkpt lat="44.41939453956787" lon="10.106097664234085"><ele>1126.0</ele><time>2026-04-04T08:38:33.999Z</time></trkpt><trkpt lat="44.419289640743344" lon="10.10600120546046"><ele>1126.0</ele><time>2026-04-04T08:38:35.999Z</time></trkpt><trkpt lat="44.419235332526384" lon="10.105947048206962"><ele>1126.0</ele><time>2026-04-04T08:38:36.999Z</time></trkpt><trkpt lat="44.4191395298865" lon="10.105834971741073"><ele>1126.0</ele><time>2026-04-04T08:38:38.999Z</time></trkpt><trkpt lat="44.41907201401152" lon="10.105800033175836"><ele>1124.6666666666665</ele><time>2026-04-04T08:38:39.999Z</time></trkpt><trkpt lat="44.41900812780537" lon="10.105742507365845"><ele>1123.3333333333333</ele><time>2026-04-04T08:38:40.999Z</time></trkpt><trkpt lat="44.418952839288586" lon="10.105677098858893"><ele>1122.0</ele><time>2026-04-04T08:38:41.999Z</time></trkpt><trkpt lat="44.41887931414956" lon="10.105632645451747"><ele>1120.6666666666667</ele><time>2026-04-04T08:38:43.999Z</time></trkpt><trkpt lat="44.41881067482078" lon="10.10557958622963"><ele>1119.3333333333335</ele><time>2026-04-04T08:38:44.999Z</time></trkpt><trkpt lat="44.4187569939396" lon="10.105527124705347"><ele>1118.0</ele><time>2026-04-04T08:38:45.999Z</time></trkpt><trkpt lat="44.41866008610284" lon="10.105417251433911"><ele>1118.0</ele><time>2026-04-04T08:38:47.999Z</time></trkpt><trkpt lat="44.4185673897271" lon="10.105315602594201"><ele>1118.0</ele><time>2026-04-04T08:38:49.999Z</time></trkpt><trkpt lat="44.41851772601955" lon="10.105260101741639"><ele>1118.0</ele><time>2026-04-04T08:38:50.999Z</time></trkpt><trkpt lat="44.418473174771755" lon="10.105196363942271"><ele>1118.0</ele><time>2026-04-04T08:38:51.999Z</time></trkpt><trkpt lat="44.418376169363796" lon="10.105128089840031"><ele>1118.0</ele><time>2026-04-04T08:38:53.999Z</time></trkpt><trkpt lat="44.418309356916836" lon="10.105043280492142"><ele>1118.0</ele><time>2026-04-04T08:38:55.999Z</time></trkpt><trkpt lat="44.4182541623025" lon="10.104995119041405"><ele>1120.6</ele><time>2026-04-04T08:38:57.999Z</time></trkpt><trkpt lat="44.41823551561635" lon="10.104858218192796"><ele>1123.1999999999998</ele><time>2026-04-04T08:39:01Z</time></trkpt><trkpt lat="44.418249614539256" lon="10.104716544454456"><ele>1125.8</ele><time>2026-04-04T08:39:03Z</time></trkpt><trkpt lat="44.41829615469696" lon="10.10456720806517"><ele>1128.3999999999999</ele><time>2026-04-04T08:39:05Z</time></trkpt><trkpt lat="44.41834024324397" lon="10.104433707502084"><ele>1131.0</ele><time>2026-04-04T08:39:07Z</time></trkpt><trkpt lat="44.41839526313932" lon="10.104271241879388"><ele>1131.0</ele><time>2026-04-04T08:39:09Z</time></trkpt><trkpt lat="44.418422767395406" lon="10.104173401523969"><ele>1131.0</ele><time>2026-04-04T08:39:11Z</time></trkpt><trkpt lat="44.4184426838566" lon="10.104050601648964"><ele>1131.0</ele><time>2026-04-04T08:39:13Z</time></trkpt><trkpt lat="44.418446081228666" lon="10.10391192648128"><ele>1131.0</ele><time>2026-04-04T08:39:15Z</time></trkpt><trkpt lat="44.41844203779137" lon="10.103763521797527"><ele>1131.0</ele><time>2026-04-04T08:39:17Z</time></trkpt><trkpt lat="44.41843431409826" lon="10.103640402345235"><ele>1134.0</ele><time>2026-04-04T08:39:19Z</time></trkpt><trkpt lat="44.41841446537115" lon="10.103524414663523"><ele>1137.0</ele><time>2026-04-04T08:39:21Z</time></trkpt><trkpt lat="44.418366363050495" lon="10.10345429259157"><ele>1140.0</ele><time>2026-04-04T08:39:22Z</time></trkpt><trkpt lat="44.41828059165872" lon="10.103361145036986"><ele>1143.0</ele><time>2026-04-04T08:39:24Z</time></trkpt><trkpt lat="44.41819396497663" lon="10.103281381505813"><ele>1146.0</ele><time>2026-04-04T08:39:26Z</time></trkpt><trkpt lat="44.41811348906555" lon="10.103168799714116"><ele>1147.2857142857142</ele><time>2026-04-04T08:39:28Z</time></trkpt><trkpt lat="44.41805868368009" lon="10.103122727510327"><ele>1148.5714285714287</ele><time>2026-04-04T08:39:29Z</time></trkpt><trkpt lat="44.418000661101615" lon="10.103083274634036"><ele>1149.857142857143</ele><time>2026-04-04T08:39:30Z</time></trkpt><trkpt lat="44.4179168288671" lon="10.103038577980843"><ele>1151.142857142857</ele><time>2026-04-04T08:39:31Z</time></trkpt><trkpt lat="44.417846030675676" lon="10.103012987870526"><ele>1152.4285714285716</ele><time>2026-04-04T08:39:32Z</time></trkpt><trkpt lat="44.41777329796111" lon="10.103000982937116"><ele>1153.7142857142858</ele><time>2026-04-04T08:39:33Z</time></trkpt><trkpt lat="44.4177059910227" lon="10.10301303035165"><ele>1155.0</ele><time>2026-04-04T08:39:34Z</time></trkpt><trkpt lat="44.417649935342595" lon="10.103072775413196"><ele>1155.0</ele><time>2026-04-04T08:39:35Z</time></trkpt><trkpt lat="44.41757745141127" lon="10.103065787143237"><ele>1155.0</ele><time>2026-04-04T08:39:36Z</time></trkpt><trkpt lat="44.417513121896114" lon="10.103045646390328"><ele>1155.0</ele><time>2026-04-04T08:39:37Z</time></trkpt><trkpt lat="44.41744184995724" lon="10.10294156083931"><ele>1155.0</ele><time>2026-04-04T08:39:39Z</time></trkpt><trkpt lat="44.41735148146552" lon="10.102863725892782"><ele>1155.0</ele><time>2026-04-04T08:39:41Z</time></trkpt><trkpt lat="44.41727551284423" lon="10.102731628687435"><ele>1155.0</ele><time>2026-04-04T08:39:43Z</time></trkpt><trkpt lat="44.417229726872286" lon="10.102660306518588"><ele>1155.0</ele><time>2026-04-04T08:39:44Z</time></trkpt><trkpt lat="44.41717321617018" lon="10.102606238977607"><ele>1155.0</ele><time>2026-04-04T08:39:45Z</time></trkpt><trkpt lat="44.417124511769984" lon="10.102536670624707"><ele>1155.0</ele><time>2026-04-04T08:39:46Z</time></trkpt><trkpt lat="44.417072258864934" lon="10.102478733104322"><ele>1155.0</ele><time>2026-04-04T08:39:47Z</time></trkpt><trkpt lat="44.41697158234015" lon="10.102368884221363"><ele>1155.0</ele><time>2026-04-04T08:39:49Z</time></trkpt><trkpt lat="44.416896696063816" lon="10.102281057847968"><ele>1156.5</ele><time>2026-04-04T08:39:51Z</time></trkpt><trkpt lat="44.41683082331765" lon="10.102210299799596"><ele>1158.0</ele><time>2026-04-04T08:39:53Z</time></trkpt><trkpt lat="44.41673479633876" lon="10.102154593351242"><ele>1159.5</ele><time>2026-04-04T08:39:55Z</time></trkpt><trkpt lat="44.41667176955963" lon="10.1021407091443"><ele>1161.0</ele><time>2026-04-04T08:39:56Z</time></trkpt><trkpt lat="44.41659431500114" lon="10.102164339249455"><ele>1162.5</ele><time>2026-04-04T08:39:57Z</time></trkpt><trkpt lat="44.41652491930395" lon="10.102223148099156"><ele>1164.0</ele><time>2026-04-04T08:39:58Z</time></trkpt><trkpt lat="44.416464825498565" lon="10.102278241274053"><ele>1164.0</ele><time>2026-04-04T08:39:59Z</time></trkpt><trkpt lat="44.416373303275506" lon="10.102357044010962"><ele>1164.0</ele><time>2026-04-04T08:40:01Z</time></trkpt><trkpt lat="44.4163018611962" lon="10.102418557280203"><ele>1164.0</ele><time>2026-04-04T08:40:03Z</time></trkpt><trkpt lat="44.4162299276766" lon="10.10247656386571"><ele>1164.0</ele><time>2026-04-04T08:40:05Z</time></trkpt><trkpt lat="44.41614260554759" lon="10.102523391509866"><ele>1164.0</ele><time>2026-04-04T08:40:07Z</time></trkpt><trkpt lat="44.41607840974542" lon="10.102523915204232"><ele>1164.0</ele><time>2026-04-04T08:40:09Z</time></trkpt><trkpt lat="44.41599126350798" lon="10.102477840434515"><ele>1161.0</ele><time>2026-04-04T08:40:11Z</time></trkpt><trkpt lat="44.41587983075039" lon="10.102418692984513"><ele>1158.0</ele><time>2026-04-04T08:40:12.999Z</time></trkpt><trkpt lat="44.415782577807796" lon="10.102399778440688"><ele>1155.0</ele><time>2026-04-04T08:40:14.999Z</time></trkpt><trkpt lat="44.41569693561172" lon="10.102382014952717"><ele>1152.0</ele><time>2026-04-04T08:40:16.999Z</time></trkpt><trkpt lat="44.41560594657051" lon="10.102335225073496"><ele>1149.0</ele><time>2026-04-04T08:40:18.999Z</time></trkpt><trkpt lat="44.41554947765193" lon="10.102199995948"><ele>1143.8</ele><time>2026-04-04T08:40:20.999Z</time></trkpt><trkpt lat="44.415458694418234" lon="10.10209683221978"><ele>1138.6000000000001</ele><time>2026-04-04T08:40:22.999Z</time></trkpt><trkpt lat="44.41537984513597" lon="10.101992179485265"><ele>1133.4</ele><time>2026-04-04T08:40:24.999Z</time></trkpt><trkpt lat="44.41528934019014" lon="10.101880990351992"><ele>1128.2</ele><time>2026-04-04T08:40:26.999Z</time></trkpt><trkpt lat="44.41522895595804" lon="10.101834406066269"><ele>1123.0</ele><time>2026-04-04T08:40:27.999Z</time></trkpt><trkpt lat="44.41518734901556" lon="10.101765841754764"><ele>1123.0</ele><time>2026-04-04T08:40:28.999Z</time></trkpt><trkpt lat="44.41512582851773" lon="10.10172907728226"><ele>1123.0</ele><time>2026-04-04T08:40:29.999Z</time></trkpt><trkpt lat="44.415030458455426" lon="10.101634197551748"><ele>1123.0</ele><time>2026-04-04T08:40:31.999Z</time></trkpt><trkpt lat="44.41496317140279" lon="10.101590460324722"><ele>1123.0</ele><time>2026-04-04T08:40:32.999Z</time></trkpt><trkpt lat="44.41484637398669" lon="10.101543708183039"><ele>1123.0</ele><time>2026-04-04T08:40:34.999Z</time></trkpt><trkpt lat="44.414738810365314" lon="10.10151682055949"><ele>1123.5</ele><time>2026-04-04T08:40:36.999Z</time></trkpt><trkpt lat="44.41465122776798" lon="10.101506269490681"><ele>1124.0</ele><time>2026-04-04T08:40:38.999Z</time></trkpt><trkpt lat="44.414579757383386" lon="10.101482483192102"><ele>1124.5</ele><time>2026-04-04T08:40:40.999Z</time></trkpt><trkpt lat="44.4145157437818" lon="10.101460704863008"><ele>1125.0</ele><time>2026-04-04T08:40:43.999Z</time></trkpt><trkpt lat="44.414458572540475" lon="10.101548366618031"><ele>1125.5</ele><time>2026-04-04T08:46:19Z</time></trkpt><trkpt lat="44.414405815114925" lon="10.101475675157669"><ele>1126.0</ele><time>2026-04-04T08:46:22Z</time></trkpt><trkpt lat="44.414309919444825" lon="10.10143423654383"><ele>1126.0</ele><time>2026-04-04T08:46:24Z</time></trkpt><trkpt lat="44.41423766318101" lon="10.101407942461096"><ele>1126.0</ele><time>2026-04-04T08:46:25.999Z</time></trkpt><trkpt lat="44.41414787505626" lon="10.101374867228147"><ele>1126.0</ele><time>2026-04-04T08:46:27.999Z</time></trkpt><trkpt lat="44.41407238960934" lon="10.101346818195927"><ele>1126.0</ele><time>2026-04-04T08:46:29.999Z</time></trkpt><trkpt lat="44.413986103518084" lon="10.101324394759557"><ele>1126.0</ele><time>2026-04-04T08:46:31.999Z</time></trkpt><trkpt lat="44.41388972136371" lon="10.101323787238522"><ele>1126.0</ele><time>2026-04-04T08:46:33.999Z</time></trkpt><trkpt lat="44.41380801343742" lon="10.101287498862808"><ele>1123.0</ele><time>2026-04-04T08:46:35.999Z</time></trkpt><trkpt lat="44.41372175056058" lon="10.101207776916194"><ele>1120.0</ele><time>2026-04-04T08:46:37.999Z</time></trkpt><trkpt lat="44.413633167490424" lon="10.101113559713971"><ele>1117.0</ele><time>2026-04-04T08:46:39.999Z</time></trkpt><trkpt lat="44.41355570075804" lon="10.101017935771672"><ele>1114.0</ele><time>2026-04-04T08:46:41.999Z</time></trkpt><trkpt lat="44.413491992344284" lon="10.100966835621959"><ele>1111.0</ele><time>2026-04-04T08:46:43.999Z</time></trkpt><trkpt lat="44.41342004149194" lon="10.100943038384187"><ele>1111.0</ele><time>2026-04-04T08:46:45.999Z</time></trkpt><trkpt lat="44.413342975941625" lon="10.100903749082129"><ele>1111.0</ele><time>2026-04-04T08:46:48.999Z</time></trkpt><trkpt lat="44.41326301835713" lon="10.100849109961235"><ele>1111.0</ele><time>2026-04-04T08:46:50.999Z</time></trkpt><trkpt lat="44.41315912638776" lon="10.100828523895409"><ele>1111.0</ele><time>2026-04-04T08:46:52.999Z</time></trkpt><trkpt lat="44.41305683639167" lon="10.100804111831211"><ele>1111.0</ele><time>2026-04-04T08:46:54.999Z</time></trkpt><trkpt lat="44.4129530775629" lon="10.100802269287167"><ele>1110.6</ele><time>2026-04-04T08:46:56.999Z</time></trkpt><trkpt lat="44.41284935445309" lon="10.100817786484926"><ele>1110.1999999999998</ele><time>2026-04-04T08:46:58.999Z</time></trkpt><trkpt lat="44.41276514501549" lon="10.100889167147933"><ele>1109.8000000000002</ele><time>2026-04-04T08:47:00.999Z</time></trkpt><trkpt lat="44.41269256068066" lon="10.100992353787682"><ele>1109.4</ele><time>2026-04-04T08:47:02.999Z</time></trkpt><trkpt lat="44.41262845656585" lon="10.101021692984109"><ele>1109.0</ele><time>2026-04-04T08:47:03.999Z</time></trkpt><trkpt lat="44.41253489721048" lon="10.101069323528222"><ele>1109.0</ele><time>2026-04-04T08:47:05.999Z</time></trkpt><trkpt lat="44.41244693695929" lon="10.101072435154196"><ele>1109.0</ele><time>2026-04-04T08:47:07.999Z</time></trkpt><trkpt lat="44.41232165440079" lon="10.101075661203438"><ele>1109.0</ele><time>2026-04-04T08:47:09.999Z</time></trkpt><trkpt lat="44.41219925137734" lon="10.101088728359121"><ele>1109.0</ele><time>2026-04-04T08:47:11.999Z</time></trkpt><trkpt lat="44.412091502797736" lon="10.10113170328496"><ele>1109.0</ele><time>2026-04-04T08:47:13.999Z</time></trkpt><trkpt lat="44.41197498020619" lon="10.10116756343682"><ele>1108.8</ele><time>2026-04-04T08:47:15.999Z</time></trkpt><trkpt lat="44.41185641389241" lon="10.101200043600082"><ele>1108.6000000000001</ele><time>2026-04-04T08:47:17.999Z</time></trkpt><trkpt lat="44.41176096451032" lon="10.101246450202911"><ele>1108.4</ele><time>2026-04-04T08:47:19.999Z</time></trkpt><trkpt lat="44.4116676588922" lon="10.101300843944463"><ele>1108.2</ele><time>2026-04-04T08:47:21.999Z</time></trkpt><trkpt lat="44.411565616076764" lon="10.101324511744291"><ele>1108.0</ele><time>2026-04-04T08:47:24Z</time></trkpt><trkpt lat="44.41146078250721" lon="10.101335716518664"><ele>1108.0</ele><time>2026-04-04T08:47:26Z</time></trkpt><trkpt lat="44.4113672825138" lon="10.101308386057967"><ele>1108.0</ele><time>2026-04-04T08:47:28Z</time></trkpt><trkpt lat="44.41128639784528" lon="10.101307498583376"><ele>1108.0</ele><time>2026-04-04T08:47:30Z</time></trkpt><trkpt lat="44.411209958378954" lon="10.101296454002192"><ele>1108.0</ele><time>2026-04-04T08:47:32Z</time></trkpt><trkpt lat="44.41112906330603" lon="10.101270459450646"><ele>1108.0</ele><time>2026-04-04T08:47:34Z</time></trkpt><trkpt lat="44.411050321279866" lon="10.101265950644834"><ele>1108.0</ele><time>2026-04-04T08:47:36Z</time></trkpt><trkpt lat="44.41100455738134" lon="10.10135141769997"><ele>1107.6</ele><time>2026-04-04T08:47:39Z</time></trkpt><trkpt lat="44.41095514412542" lon="10.101414200700939"><ele>1107.1999999999998</ele><time>2026-04-04T08:47:41Z</time></trkpt><trkpt lat="44.410865710651336" lon="10.101469515461298"><ele>1106.8</ele><time>2026-04-04T08:47:43Z</time></trkpt><trkpt lat="44.410757511907" lon="10.10152928986163"><ele>1106.3999999999999</ele><time>2026-04-04T08:47:45Z</time></trkpt><trkpt lat="44.41066150218593" lon="10.101564071669989"><ele>1106.0</ele><time>2026-04-04T08:47:47Z</time></trkpt><trkpt lat="44.410561918776075" lon="10.10158066583598"><ele>1103.1666666666667</ele><time>2026-04-04T08:47:49Z</time></trkpt><trkpt lat="44.41047844472324" lon="10.10159545376656"><ele>1100.3333333333335</ele><time>2026-04-04T08:47:51Z</time></trkpt><trkpt lat="44.410400710883565" lon="10.101609147051805"><ele>1097.5</ele><time>2026-04-04T08:47:54Z</time></trkpt><trkpt lat="44.41031290515176" lon="10.101642620749073"><ele>1094.6666666666667</ele><time>2026-04-04T08:47:56Z</time></trkpt><trkpt lat="44.41023699891221" lon="10.101666977819372"><ele>1091.8333333333333</ele><time>2026-04-04T08:47:58Z</time></trkpt><trkpt lat="44.41015365421356" lon="10.101695182970412"><ele>1089.0</ele><time>2026-04-04T08:48:00Z</time></trkpt><trkpt lat="44.41009167614672" lon="10.101723933725282"><ele>1089.0</ele><time>2026-04-04T08:48:02Z</time></trkpt><trkpt lat="44.410028747836854" lon="10.10175371608159"><ele>1089.0</ele><time>2026-04-04T08:48:04Z</time></trkpt><trkpt lat="44.409972591658445" lon="10.101829217149008"><ele>1089.0</ele><time>2026-04-04T08:48:06Z</time></trkpt><trkpt lat="44.40992261061161" lon="10.10195350276723"><ele>1089.0</ele><time>2026-04-04T08:48:08Z</time></trkpt><trkpt lat="44.40987331932595" lon="10.102071115426893"><ele>1089.0</ele><time>2026-04-04T08:48:10Z</time></trkpt><trkpt lat="44.40980411402072" lon="10.102093613765653"><ele>1089.0</ele><time>2026-04-04T08:48:12Z</time></trkpt><trkpt lat="44.40971877762241" lon="10.102024673638512"><ele>1089.0</ele><time>2026-04-04T08:48:14Z</time></trkpt><trkpt lat="44.409659695839764" lon="10.101903298043888"><ele>1089.0</ele><time>2026-04-04T08:48:16Z</time></trkpt><trkpt lat="44.409633404118864" lon="10.101820272717521"><ele>1089.0</ele><time>2026-04-04T08:48:17Z</time></trkpt><trkpt lat="44.409571493461286" lon="10.10168663038387"><ele>1089.0</ele><time>2026-04-04T08:48:19Z</time></trkpt><trkpt lat="44.4095489741274" lon="10.10157309811801"><ele>1089.0</ele><time>2026-04-04T08:48:21Z</time></trkpt><trkpt lat="44.4094948287189" lon="10.101501768495154"><ele>1089.0</ele><time>2026-04-04T08:48:23Z</time></trkpt><trkpt lat="44.40942183482141" lon="10.10153662327938"><ele>1088.6666666666667</ele><time>2026-04-04T08:48:25Z</time></trkpt><trkpt lat="44.40934527723207" lon="10.10163990300214"><ele>1088.3333333333333</ele><time>2026-04-04T08:48:27Z</time></trkpt><trkpt lat="44.40926246102905" lon="10.101707525405384"><ele>1088.0</ele><time>2026-04-04T08:48:29Z</time></trkpt><trkpt lat="44.40917210420699" lon="10.10179221830725"><ele>1087.6666666666665</ele><time>2026-04-04T08:48:31Z</time></trkpt><trkpt lat="44.40912564331425" lon="10.101854162116368"><ele>1087.3333333333333</ele><time>2026-04-04T08:48:32Z</time></trkpt><trkpt lat="44.40907725984401" lon="10.101919404713604"><ele>1087.0</ele><time>2026-04-04T08:48:33Z</time></trkpt><trkpt lat="44.40899060837491" lon="10.101981805611748"><ele>1087.0</ele><time>2026-04-04T08:48:35Z</time></trkpt><trkpt lat="44.408899302518655" lon="10.10201246668499"><ele>1087.0</ele><time>2026-04-04T08:48:37Z</time></trkpt><trkpt lat="44.408800206269234" lon="10.102013216774644"><ele>1087.0</ele><time>2026-04-04T08:48:39Z</time></trkpt><trkpt lat="44.40869641461512" lon="10.10197867741959"><ele>1087.0</ele><time>2026-04-04T08:48:41Z</time></trkpt><trkpt lat="44.408596307287816" lon="10.10192446499543"><ele>1087.0</ele><time>2026-04-04T08:48:43Z</time></trkpt><trkpt lat="44.40850564053386" lon="10.101861666316244"><ele>1086.8</ele><time>2026-04-04T08:48:44.999Z</time></trkpt><trkpt lat="44.40844209543158" lon="10.101799022658938"><ele>1086.6</ele><time>2026-04-04T08:48:46.999Z</time></trkpt><trkpt lat="44.40835319318088" lon="10.101704554124865"><ele>1086.3999999999999</ele><time>2026-04-04T08:48:48.999Z</time></trkpt><trkpt lat="44.40827408830696" lon="10.101577938137483"><ele>1086.2</ele><time>2026-04-04T08:48:50.999Z</time></trkpt><trkpt lat="44.40823856051873" lon="10.101503986335583"><ele>1086.0</ele><time>2026-04-04T08:48:51.999Z</time></trkpt><trkpt lat="44.408206567452176" lon="10.101361614736728"><ele>1090.0</ele><time>2026-04-04T08:48:53.999Z</time></trkpt><trkpt lat="44.408197469113034" lon="10.101215965020126"><ele>1094.0</ele><time>2026-04-04T08:48:55.999Z</time></trkpt><trkpt lat="44.40814492863037" lon="10.101086421129414"><ele>1098.0</ele><time>2026-04-04T08:48:57.999Z</time></trkpt><trkpt lat="44.408138551049284" lon="10.10092086440333"><ele>1102.0</ele><time>2026-04-04T08:48:59.999Z</time></trkpt><trkpt lat="44.40815072828924" lon="10.10079065081415"><ele>1106.0</ele><time>2026-04-04T08:49:01.999Z</time></trkpt><trkpt lat="44.40814426868245" lon="10.100659180193283"><ele>1109.0</ele><time>2026-04-04T08:49:03.999Z</time></trkpt><trkpt lat="44.40812165518959" lon="10.100561569785228"><ele>1112.0</ele><time>2026-04-04T08:49:05.999Z</time></trkpt><trkpt lat="44.408092206398884" lon="10.10046902509054"><ele>1115.0</ele><time>2026-04-04T08:49:07.999Z</time></trkpt><trkpt lat="44.4080425012726" lon="10.100414334935147"><ele>1118.0</ele><time>2026-04-04T08:49:09.999Z</time></trkpt><trkpt lat="44.40793785704031" lon="10.100407798600411"><ele>1121.0</ele><time>2026-04-04T08:49:11.999Z</time></trkpt><trkpt lat="44.40785336263927" lon="10.100421788133277"><ele>1124.0</ele><time>2026-04-04T08:49:13.999Z</time></trkpt><trkpt lat="44.4077694316435" lon="10.100456674339974"><ele>1124.0</ele><time>2026-04-04T08:49:15.999Z</time></trkpt><trkpt lat="44.40768883672182" lon="10.100481591981664"><ele>1124.0</ele><time>2026-04-04T08:49:17.999Z</time></trkpt><trkpt lat="44.40758359742866" lon="10.100473994607144"><ele>1124.0</ele><time>2026-04-04T08:49:20.999Z</time></trkpt><trkpt lat="44.407502316770966" lon="10.100411448557319"><ele>1124.0</ele><time>2026-04-04T08:49:22.999Z</time></trkpt><trkpt lat="44.407411751255616" lon="10.100367315745181"><ele>1124.0</ele><time>2026-04-04T08:49:24.999Z</time></trkpt><trkpt lat="44.4073220993932" lon="10.100350335834845"><ele>1124.0</ele><time>2026-04-04T08:49:26.999Z</time></trkpt><trkpt lat="44.40723541477526" lon="10.10036733783927"><ele>1124.0</ele><time>2026-04-04T08:49:28.999Z</time></trkpt><trkpt lat="44.40715333135435" lon="10.100367083113735"><ele>1124.0</ele><time>2026-04-04T08:49:31Z</time></trkpt><trkpt lat="44.40706767475685" lon="10.100318665715767"><ele>1124.0</ele><time>2026-04-04T08:49:33Z</time></trkpt><trkpt lat="44.40696517382218" lon="10.100263591872903"><ele>1124.0</ele><time>2026-04-04T08:49:35Z</time></trkpt><trkpt lat="44.406883183151656" lon="10.10019752632996"><ele>1125.0</ele><time>2026-04-04T08:49:37Z</time></trkpt><trkpt lat="44.40678839958243" lon="10.10013066745989"><ele>1126.0</ele><time>2026-04-04T08:49:39Z</time></trkpt><trkpt lat="44.406717371250096" lon="10.100053652632557"><ele>1127.0</ele><time>2026-04-04T08:49:41Z</time></trkpt><trkpt lat="44.40665137456643" lon="10.099953304439746"><ele>1128.0</ele><time>2026-04-04T08:49:43Z</time></trkpt><trkpt lat="44.40662631021181" lon="10.09985009971426"><ele>1129.0</ele><time>2026-04-04T08:49:45Z</time></trkpt><trkpt lat="44.406623946584524" lon="10.099754217825476"><ele>1130.0</ele><time>2026-04-04T08:49:47Z</time></trkpt><trkpt lat="44.4066218121983" lon="10.099660043999345"><ele>1130.0</ele><time>2026-04-04T08:49:49Z</time></trkpt><trkpt lat="44.406617086417675" lon="10.099526762998423"><ele>1130.0</ele><time>2026-04-04T08:49:51Z</time></trkpt><trkpt lat="44.40662596773112" lon="10.09941673150632"><ele>1130.0</ele><time>2026-04-04T08:49:53Z</time></trkpt><trkpt lat="44.40663308187338" lon="10.099310733853017"><ele>1130.0</ele><time>2026-04-04T08:49:55Z</time></trkpt><trkpt lat="44.40662901879979" lon="10.09917439229284"><ele>1130.0</ele><time>2026-04-04T08:49:57Z</time></trkpt><trkpt lat="44.406650918766125" lon="10.099015730373557"><ele>1131.8</ele><time>2026-04-04T08:49:59Z</time></trkpt><trkpt lat="44.406675582763604" lon="10.098931972748082"><ele>1133.6</ele><time>2026-04-04T08:50:00Z</time></trkpt><trkpt lat="44.40673760387819" lon="10.098816747888726"><ele>1135.4</ele><time>2026-04-04T08:50:02Z</time></trkpt><trkpt lat="44.40677929215581" lon="10.09869585923661"><ele>1137.2</ele><time>2026-04-04T08:50:04Z</time></trkpt><trkpt lat="44.40681181266665" lon="10.098539823587863"><ele>1139.0</ele><time>2026-04-04T08:50:06Z</time></trkpt><trkpt lat="44.40684082986208" lon="10.098396933932474"><ele>1139.0</ele><time>2026-04-04T08:50:08Z</time></trkpt><trkpt lat="44.40687625600204" lon="10.098289567199165"><ele>1139.0</ele><time>2026-04-04T08:50:10Z</time></trkpt><trkpt lat="44.40692082695488" lon="10.09818590012804"><ele>1139.0</ele><time>2026-04-04T08:50:12Z</time></trkpt><trkpt lat="44.40693091990055" lon="10.098088361227052"><ele>1139.0</ele><time>2026-04-04T08:50:14Z</time></trkpt><trkpt lat="44.406882099076434" lon="10.098021919387815"><ele>1139.0</ele><time>2026-04-04T08:50:16Z</time></trkpt><trkpt lat="44.406818216367675" lon="10.097975014883687"><ele>1139.0</ele><time>2026-04-04T08:50:18Z</time></trkpt><trkpt lat="44.40677111453916" lon="10.097883859615218"><ele>1141.6000000000001</ele><time>2026-04-04T08:50:20Z</time></trkpt><trkpt lat="44.40670045101459" lon="10.097742772074426"><ele>1144.2</ele><time>2026-04-04T08:50:22Z</time></trkpt><trkpt lat="44.40663590607301" lon="10.097701393464916"><ele>1146.8000000000002</ele><time>2026-04-04T08:50:23Z</time></trkpt><trkpt lat="44.40658752600177" lon="10.09762641987737"><ele>1149.4</ele><time>2026-04-04T08:50:25Z</time></trkpt><trkpt lat="44.40655042631211" lon="10.09752608435151"><ele>1152.0</ele><time>2026-04-04T08:50:28Z</time></trkpt><trkpt lat="44.4065033953966" lon="10.097383883549734"><ele>1153.4</ele><time>2026-04-04T08:50:30Z</time></trkpt><trkpt lat="44.406460926190405" lon="10.097301236078517"><ele>1154.8000000000002</ele><time>2026-04-04T08:50:31Z</time></trkpt><trkpt lat="44.40638223284545" lon="10.097208753729392"><ele>1156.2</ele><time>2026-04-04T08:50:33Z</time></trkpt><trkpt lat="44.40630830650071" lon="10.097130084536994"><ele>1157.6000000000001</ele><time>2026-04-04T08:50:35Z</time></trkpt><trkpt lat="44.40623401827443" lon="10.097027475132053"><ele>1159.0</ele><time>2026-04-04T08:50:37Z</time></trkpt><trkpt lat="44.40620293136685" lon="10.096902388307127"><ele>1159.0</ele><time>2026-04-04T08:50:39Z</time></trkpt><trkpt lat="44.40616880971429" lon="10.096791835194919"><ele>1159.0</ele><time>2026-04-04T08:50:41Z</time></trkpt><trkpt lat="44.406102263201824" lon="10.096701074565482"><ele>1159.0</ele><time>2026-04-04T08:50:43Z</time></trkpt><trkpt lat="44.406012840914386" lon="10.09662643896529"><ele>1159.0</ele><time>2026-04-04T08:50:45Z</time></trkpt><trkpt lat="44.405916609943326" lon="10.09653724056374"><ele>1159.0</ele><time>2026-04-04T08:50:47Z</time></trkpt><trkpt lat="44.405837700807226" lon="10.096482329708284"><ele>1162.4</ele><time>2026-04-04T08:50:49Z</time></trkpt><trkpt lat="44.405760496294874" lon="10.096409263889756"><ele>1165.8000000000002</ele><time>2026-04-04T08:50:51Z</time></trkpt><trkpt lat="44.4056775533304" lon="10.09632515462021"><ele>1169.1999999999998</ele><time>2026-04-04T08:50:53Z</time></trkpt><trkpt lat="44.40562882435463" lon="10.096269251472147"><ele>1172.6</ele><time>2026-04-04T08:50:54Z</time></trkpt><trkpt lat="44.40556593210788" lon="10.096146587546928"><ele>1176.0</ele><time>2026-04-04T08:50:56Z</time></trkpt><trkpt lat="44.405486208162955" lon="10.096094979564963"><ele>1177.0</ele><time>2026-04-04T08:50:58Z</time></trkpt><trkpt lat="44.405406339260765" lon="10.096052873656031"><ele>1178.0</ele><time>2026-04-04T08:50:59.999Z</time></trkpt><trkpt lat="44.40533937456864" lon="10.096070843232265"><ele>1179.0</ele><time>2026-04-04T08:51:01.999Z</time></trkpt><trkpt lat="44.40528029799711" lon="10.0961678896369"><ele>1180.0</ele><time>2026-04-04T08:51:03.999Z</time></trkpt><trkpt lat="44.40521979176797" lon="10.096241919644786"><ele>1181.0</ele><time>2026-04-04T08:51:05.999Z</time></trkpt><trkpt lat="44.40515732925949" lon="10.096313062026649"><ele>1182.0</ele><time>2026-04-04T08:51:07.999Z</time></trkpt><trkpt lat="44.40509546379627" lon="10.096382352859662"><ele>1182.0</ele><time>2026-04-04T08:51:09.999Z</time></trkpt><trkpt lat="44.405023257646974" lon="10.096415072434189"><ele>1182.0</ele><time>2026-04-04T08:51:11.999Z</time></trkpt><trkpt lat="44.404957858991466" lon="10.096376851290158"><ele>1182.0</ele><time>2026-04-04T08:51:13.999Z</time></trkpt><trkpt lat="44.40487914246648" lon="10.096328337917614"><ele>1182.0</ele><time>2026-04-04T08:51:15.999Z</time></trkpt><trkpt lat="44.40480993906324" lon="10.096263080400451"><ele>1182.0</ele><time>2026-04-04T08:51:17.999Z</time></trkpt><trkpt lat="44.40475375098849" lon="10.096192156408238"><ele>1182.0</ele><time>2026-04-04T08:51:19.999Z</time></trkpt><trkpt lat="44.40468905491853" lon="10.096119872245488"><ele>1182.6</ele><time>2026-04-04T08:51:21.999Z</time></trkpt><trkpt lat="44.40459883301954" lon="10.09602754732546"><ele>1183.2</ele><time>2026-04-04T08:51:23.999Z</time></trkpt><trkpt lat="44.40455421459305" lon="10.09593642318239"><ele>1183.8</ele><time>2026-04-04T08:51:25.999Z</time></trkpt><trkpt lat="44.40452612001454" lon="10.095827893641149"><ele>1184.4</ele><time>2026-04-04T08:51:28.999Z</time></trkpt><trkpt lat="44.404447319435285" lon="10.09577754910096"><ele>1185.0</ele><time>2026-04-04T08:51:30.999Z</time></trkpt><trkpt lat="44.404353678703664" lon="10.095771162608804"><ele>1185.0</ele><time>2026-04-04T08:51:32.999Z</time></trkpt><trkpt lat="44.40428532323019" lon="10.095766304451894"><ele>1185.0</ele><time>2026-04-04T08:51:34.999Z</time></trkpt><trkpt lat="44.40421717682162" lon="10.095714391633727"><ele>1185.0</ele><time>2026-04-04T08:51:38Z</time></trkpt><trkpt lat="44.404174447215034" lon="10.095624849240577"><ele>1185.0</ele><time>2026-04-04T08:51:54Z</time></trkpt><trkpt lat="44.40413046150346" lon="10.095550792526199"><ele>1185.0</ele><time>2026-04-04T08:56:40Z</time></trkpt><trkpt lat="44.40409604567261" lon="10.095421934872288"><ele>1185.0</ele><time>2026-04-04T08:56:43Z</time></trkpt><trkpt lat="44.40406702045659" lon="10.095311472810401"><ele>1185.8333333333333</ele><time>2026-04-04T08:56:48Z</time></trkpt><trkpt lat="44.40405650503728" lon="10.095209137776047"><ele>1186.6666666666667</ele><time>2026-04-04T08:56:51Z</time></trkpt><trkpt lat="44.40400327268389" lon="10.09515544168707"><ele>1187.5</ele><time>2026-04-04T08:56:54Z</time></trkpt><trkpt lat="44.40397179787144" lon="10.095032485940783"><ele>1188.3333333333335</ele><time>2026-04-04T08:56:57Z</time></trkpt><trkpt lat="44.40396459596676" lon="10.09492562841171"><ele>1189.1666666666667</ele><time>2026-04-04T08:56:59Z</time></trkpt><trkpt lat="44.40394073590889" lon="10.094810522101223"><ele>1190.0</ele><time>2026-04-04T08:57:01Z</time></trkpt><trkpt lat="44.40391266952294" lon="10.094677496144975"><ele>1190.5714285714287</ele><time>2026-04-04T08:57:03Z</time></trkpt><trkpt lat="44.403861119750395" lon="10.094582257029078"><ele>1191.142857142857</ele><time>2026-04-04T08:57:05Z</time></trkpt><trkpt lat="44.40382221944488" lon="10.094499803718737"><ele>1191.7142857142858</ele><time>2026-04-04T08:57:07Z</time></trkpt><trkpt lat="44.4037694425138" lon="10.094406541389219"><ele>1192.2857142857142</ele><time>2026-04-04T08:57:09Z</time></trkpt><trkpt lat="44.40370801780046" lon="10.09438073538212"><ele>1192.857142857143</ele><time>2026-04-04T08:57:10.999Z</time></trkpt><trkpt lat="44.40363956438799" lon="10.094364817706893"><ele>1193.4285714285716</ele><time>2026-04-04T08:57:12.999Z</time></trkpt><trkpt lat="44.403601978335026" lon="10.094290076370482"><ele>1194.0</ele><time>2026-04-04T08:57:14.999Z</time></trkpt><trkpt lat="44.40361549920105" lon="10.094173461259388"><ele>1195.8</ele><time>2026-04-04T08:57:16.999Z</time></trkpt><trkpt lat="44.40362176628008" lon="10.094035949616448"><ele>1197.6000000000001</ele><time>2026-04-04T08:57:18.999Z</time></trkpt><trkpt lat="44.40359172833404" lon="10.09389358583735"><ele>1199.4</ele><time>2026-04-04T08:57:21.999Z</time></trkpt><trkpt lat="44.403572181495484" lon="10.093783722967549"><ele>1201.2</ele><time>2026-04-04T08:57:23.999Z</time></trkpt><trkpt lat="44.40356721253992" lon="10.093651140020865"><ele>1203.0</ele><time>2026-04-04T08:57:25.999Z</time></trkpt><trkpt lat="44.403557745742816" lon="10.093543293764478"><ele>1203.0</ele><time>2026-04-04T08:57:27.999Z</time></trkpt><trkpt lat="44.403524934833186" lon="10.093416985483659"><ele>1203.0</ele><time>2026-04-04T08:57:29.999Z</time></trkpt><trkpt lat="44.40348238759609" lon="10.093267774920733"><ele>1203.0</ele><time>2026-04-04T08:57:31.999Z</time></trkpt><trkpt lat="44.403459779822114" lon="10.093132726071316"><ele>1203.0</ele><time>2026-04-04T08:57:33.999Z</time></trkpt><trkpt lat="44.40339284376639" lon="10.093038521009971"><ele>1203.0</ele><time>2026-04-04T08:57:35.999Z</time></trkpt><trkpt lat="44.403294041230396" lon="10.093002489409384"><ele>1202.3333333333333</ele><time>2026-04-04T08:57:37.999Z</time></trkpt><trkpt lat="44.4032120781316" lon="10.092934855515258"><ele>1201.6666666666667</ele><time>2026-04-04T08:57:39.999Z</time></trkpt><trkpt lat="44.40314985918346" lon="10.092838536540139"><ele>1201.0</ele><time>2026-04-04T08:57:41.999Z</time></trkpt><trkpt lat="44.40309931647062" lon="10.092724662205327"><ele>1200.3333333333335</ele><time>2026-04-04T08:57:43.999Z</time></trkpt><trkpt lat="44.40306516822185" lon="10.092606779314007"><ele>1199.6666666666667</ele><time>2026-04-04T08:57:45.999Z</time></trkpt><trkpt lat="44.40302518209527" lon="10.092526110546626"><ele>1199.0</ele><time>2026-04-04T08:57:47.999Z</time></trkpt><trkpt lat="44.40297058732914" lon="10.092475518583152"><ele>1201.1666666666667</ele><time>2026-04-04T08:57:49.999Z</time></trkpt><trkpt lat="44.4029058355047" lon="10.092392800310739"><ele>1203.3333333333335</ele><time>2026-04-04T08:57:52.999Z</time></trkpt><trkpt lat="44.40284978379071" lon="10.092336978499219"><ele>1205.5</ele><time>2026-04-04T08:57:55Z</time></trkpt><trkpt lat="44.40279897196129" lon="10.092276716033684"><ele>1207.6666666666667</ele><time>2026-04-04T08:57:57Z</time></trkpt><trkpt lat="44.40275100102983" lon="10.092184911804733"><ele>1209.8333333333333</ele><time>2026-04-04T08:58:00Z</time></trkpt><trkpt lat="44.40271779251776" lon="10.092070589963255"><ele>1212.0</ele><time>2026-04-04T08:58:03Z</time></trkpt><trkpt lat="44.402651179405886" lon="10.091990882476257"><ele>1212.0</ele><time>2026-04-04T08:58:06Z</time></trkpt><trkpt lat="44.40262085833394" lon="10.091909034416563"><ele>1212.0</ele><time>2026-04-04T08:58:08Z</time></trkpt><trkpt lat="44.402596114858284" lon="10.091802751794264"><ele>1212.0</ele><time>2026-04-04T08:58:11Z</time></trkpt><trkpt lat="44.40256687935919" lon="10.09172264762797"><ele>1212.0</ele><time>2026-04-04T08:58:15Z</time></trkpt><trkpt lat="44.40250498332079" lon="10.091672062415757"><ele>1212.0</ele><time>2026-04-04T08:58:18Z</time></trkpt><trkpt lat="44.4024300754564" lon="10.091635155794792"><ele>1212.0</ele><time>2026-04-04T08:58:20Z</time></trkpt><trkpt lat="44.402362737797475" lon="10.091566045350774"><ele>1212.0</ele><time>2026-04-04T08:58:22Z</time></trkpt><trkpt lat="44.40231046799726" lon="10.09150724989274"><ele>1213.4285714285716</ele><time>2026-04-04T08:58:24Z</time></trkpt><trkpt lat="44.40225882266105" lon="10.091436295775988"><ele>1214.857142857143</ele><time>2026-04-04T08:58:26Z</time></trkpt><trkpt lat="44.40221544157761" lon="10.091372302024027"><ele>1216.2857142857142</ele><time>2026-04-04T08:58:28Z</time></trkpt><trkpt lat="44.40218577429146" lon="10.091286552185842"><ele>1217.7142857142858</ele><time>2026-04-04T08:58:30Z</time></trkpt><trkpt lat="44.402166831600205" lon="10.091171198767904"><ele>1219.142857142857</ele><time>2026-04-04T08:58:32Z</time></trkpt><trkpt lat="44.40215754055192" lon="10.091081281746472"><ele>1220.5714285714287</ele><time>2026-04-04T08:58:34Z</time></trkpt><trkpt lat="44.402225877093436" lon="10.090997589672046"><ele>1222.0</ele><time>2026-04-04T08:59:25.999Z</time></trkpt><trkpt lat="44.402290781169846" lon="10.090950795183451"><ele>1222.0</ele><time>2026-04-04T08:59:27.999Z</time></trkpt><trkpt lat="44.40237388137738" lon="10.09089580114613"><ele>1222.0</ele><time>2026-04-04T08:59:29.999Z</time></trkpt><trkpt lat="44.402459810054445" lon="10.090845305732097"><ele>1222.0</ele><time>2026-04-04T08:59:31.999Z</time></trkpt><trkpt lat="44.40252482216781" lon="10.090828083598847"><ele>1222.0</ele><time>2026-04-04T08:59:33.999Z</time></trkpt><trkpt lat="44.402578198428095" lon="10.090763308331908"><ele>1222.0</ele><time>2026-04-04T08:59:36.999Z</time></trkpt><trkpt lat="44.402653665927986" lon="10.090707913102987"><ele>1222.0</ele><time>2026-04-04T08:59:38.999Z</time></trkpt><trkpt lat="44.402726248742624" lon="10.090686551700646"><ele>1223.8333333333333</ele><time>2026-04-04T08:59:40.999Z</time></trkpt><trkpt lat="44.40278726469634" lon="10.090619324787165"><ele>1225.6666666666665</ele><time>2026-04-04T08:59:42.999Z</time></trkpt><trkpt lat="44.402845431048725" lon="10.090558650816424"><ele>1227.5</ele><time>2026-04-04T08:59:44.999Z</time></trkpt><trkpt lat="44.40290858622345" lon="10.09048099211155"><ele>1229.3333333333333</ele><time>2026-04-04T08:59:46.999Z</time></trkpt><trkpt lat="44.40297706589602" lon="10.090416179085018"><ele>1231.1666666666667</ele><time>2026-04-04T08:59:48.999Z</time></trkpt><trkpt lat="44.40303842553174" lon="10.090315227699184"><ele>1233.0</ele><time>2026-04-04T08:59:50.999Z</time></trkpt><trkpt lat="44.403052433696" lon="10.090224327219863"><ele>1237.2</ele><time>2026-04-04T08:59:52.999Z</time></trkpt><trkpt lat="44.40312301891104" lon="10.090096437737158"><ele>1241.4</ele><time>2026-04-04T08:59:54.999Z</time></trkpt><trkpt lat="44.40316452667962" lon="10.089981393770927"><ele>1245.6000000000001</ele><time>2026-04-04T08:59:56.999Z</time></trkpt><trkpt lat="44.403189778880666" lon="10.089878458421799"><ele>1249.8</ele><time>2026-04-04T08:59:58.999Z</time></trkpt><trkpt lat="44.40321764566366" lon="10.089765189551162"><ele>1254.0</ele><time>2026-04-04T09:00:01Z</time></trkpt><trkpt lat="44.40325740517397" lon="10.08964559569872"><ele>1254.1666666666667</ele><time>2026-04-04T09:00:03Z</time></trkpt><trkpt lat="44.403269221265184" lon="10.089542652518528"><ele>1254.3333333333333</ele><time>2026-04-04T09:00:04Z</time></trkpt><trkpt lat="44.40330630069523" lon="10.089459906722341"><ele>1254.5</ele><time>2026-04-04T09:00:05Z</time></trkpt><trkpt lat="44.403324815481355" lon="10.089310975272442"><ele>1254.6666666666665</ele><time>2026-04-04T09:00:07Z</time></trkpt><trkpt lat="44.40331378042907" lon="10.089166156784525"><ele>1254.8333333333333</ele><time>2026-04-04T09:00:09Z</time></trkpt><trkpt lat="44.40330708212758" lon="10.089041604891309"><ele>1255.0</ele><time>2026-04-04T09:00:11Z</time></trkpt><trkpt lat="44.40328339639268" lon="10.08894929764608"><ele>1255.0</ele><time>2026-04-04T09:00:23Z</time></trkpt><trkpt lat="44.40330452650399" lon="10.089053208584465"><ele>1255.0</ele><time>2026-04-04T09:01:17.999Z</time></trkpt><trkpt lat="44.40332792393667" lon="10.08916251901244"><ele>1255.0</ele><time>2026-04-04T09:01:20.999Z</time></trkpt><trkpt lat="44.40332746112518" lon="10.089270684445331"><ele>1255.0</ele><time>2026-04-04T09:01:22.999Z</time></trkpt><trkpt lat="44.40332060352718" lon="10.08937367632131"><ele>1255.0</ele><time>2026-04-04T09:01:24.999Z</time></trkpt><trkpt lat="44.40329563530645" lon="10.089515760665341"><ele>1255.0</ele><time>2026-04-04T09:01:27.999Z</time></trkpt><trkpt lat="44.40326723376266" lon="10.089631180404083"><ele>1254.8333333333333</ele><time>2026-04-04T09:01:29.999Z</time></trkpt><trkpt lat="44.40322996362045" lon="10.08974397950859"><ele>1254.6666666666665</ele><time>2026-04-04T09:01:32.999Z</time></trkpt><trkpt lat="44.403197332610766" lon="10.089858815605746"><ele>1254.5</ele><time>2026-04-04T09:01:35.999Z</time></trkpt><trkpt lat="44.40317118973442" lon="10.089943148251438"><ele>1254.3333333333333</ele><time>2026-04-04T09:01:38.999Z</time></trkpt><trkpt lat="44.40314327239094" lon="10.090034999894957"><ele>1254.1666666666667</ele><time>2026-04-04T09:01:41.999Z</time></trkpt><trkpt lat="44.40309460407626" lon="10.090139566792413"><ele>1254.0</ele><time>2026-04-04T09:01:45.999Z</time></trkpt><trkpt lat="44.40305083085531" lon="10.09023368128586"><ele>1254.0</ele><time>2026-04-04T09:01:48.999Z</time></trkpt><trkpt lat="44.40301679847859" lon="10.090331811990842"><ele>1254.0</ele><time>2026-04-04T09:01:51.999Z</time></trkpt><trkpt lat="44.40297072943292" lon="10.09041011983567"><ele>1254.0</ele><time>2026-04-04T09:01:54.999Z</time></trkpt><trkpt lat="44.402896118559646" lon="10.0904861244375"><ele>1254.0</ele><time>2026-04-04T09:01:57.999Z</time></trkpt><trkpt lat="44.40285083241161" lon="10.090556692202805"><ele>1254.0</ele><time>2026-04-04T09:01:59.999Z</time></trkpt><trkpt lat="44.40277969164496" lon="10.090628547556806"><ele>1254.0</ele><time>2026-04-04T09:02:02.999Z</time></trkpt><trkpt lat="44.40270979239416" lon="10.090666962175408"><ele>1251.0</ele><time>2026-04-04T09:02:06Z</time></trkpt><trkpt lat="44.40263452470085" lon="10.090718874442846"><ele>1248.0</ele><time>2026-04-04T09:02:10Z</time></trkpt><trkpt lat="44.4025722804731" lon="10.090757140825819"><ele>1245.0</ele><time>2026-04-04T09:02:13Z</time></trkpt><trkpt lat="44.40251824625493" lon="10.090812675879237"><ele>1242.0</ele><time>2026-04-04T09:02:16Z</time></trkpt><trkpt lat="44.402440830617344" lon="10.09085920499798"><ele>1239.0</ele><time>2026-04-04T09:02:19Z</time></trkpt><trkpt lat="44.402375185214076" lon="10.090888073928035"><ele>1236.0</ele><time>2026-04-04T09:02:21Z</time></trkpt><trkpt lat="44.40231266932937" lon="10.090911227716155"><ele>1233.0</ele><time>2026-04-04T09:02:23Z</time></trkpt><trkpt lat="44.40224771721913" lon="10.090965156905527"><ele>1231.1666666666667</ele><time>2026-04-04T09:02:25Z</time></trkpt><trkpt lat="44.402178374575094" lon="10.091034635710319"><ele>1229.3333333333333</ele><time>2026-04-04T09:02:28Z</time></trkpt><trkpt lat="44.40214309909564" lon="10.091124384081603"><ele>1227.5</ele><time>2026-04-04T09:02:31Z</time></trkpt><trkpt lat="44.40216625409536" lon="10.091249162552838"><ele>1225.6666666666665</ele><time>2026-04-04T09:02:34Z</time></trkpt><trkpt lat="44.402196459310524" lon="10.091332523342734"><ele>1223.8333333333333</ele><time>2026-04-04T09:02:36Z</time></trkpt><trkpt lat="44.4022402542684" lon="10.091406835518193"><ele>1222.0</ele><time>2026-04-04T09:02:38Z</time></trkpt><trkpt lat="44.40229607489206" lon="10.091489479767516"><ele>1222.0</ele><time>2026-04-04T09:02:40Z</time></trkpt><trkpt lat="44.402356400847914" lon="10.091557604605718"><ele>1222.0</ele><time>2026-04-04T09:02:42Z</time></trkpt><trkpt lat="44.402418194382605" lon="10.091606765261037"><ele>1222.0</ele><time>2026-04-04T09:02:44Z</time></trkpt><trkpt lat="44.40249080420047" lon="10.091656284683559"><ele>1222.0</ele><time>2026-04-04T09:02:46Z</time></trkpt><trkpt lat="44.40256876223679" lon="10.09172277038203"><ele>1222.0</ele><time>2026-04-04T09:02:49Z</time></trkpt><trkpt lat="44.40259499792243" lon="10.09180343622867"><ele>1222.0</ele><time>2026-04-04T09:02:55Z</time></trkpt><trkpt lat="44.40262561170529" lon="10.091911987162275"><ele>1220.3333333333333</ele><time>2026-04-04T09:03:05Z</time></trkpt><trkpt lat="44.40265332546686" lon="10.091992993639467"><ele>1218.6666666666665</ele><time>2026-04-04T09:03:08Z</time></trkpt><trkpt lat="44.40271415313992" lon="10.092053772620398"><ele>1217.0</ele><time>2026-04-04T09:03:11Z</time></trkpt><trkpt lat="44.402754508336514" lon="10.092169345788019"><ele>1215.3333333333333</ele><time>2026-04-04T09:03:14Z</time></trkpt><trkpt lat="44.40281320989041" lon="10.092277482237739"><ele>1213.6666666666667</ele><time>2026-04-04T09:03:17Z</time></trkpt><trkpt lat="44.40287436211908" lon="10.092353615496023"><ele>1212.0</ele><time>2026-04-04T09:03:18.999Z</time></trkpt><trkpt lat="44.402931582302706" lon="10.092409920263806"><ele>1211.7142857142858</ele><time>2026-04-04T09:03:20.999Z</time></trkpt><trkpt lat="44.40298326642754" lon="10.0924736629115"><ele>1211.4285714285713</ele><time>2026-04-04T09:03:22.999Z</time></trkpt><trkpt lat="44.403027304848116" lon="10.092537394420399"><ele>1211.142857142857</ele><time>2026-04-04T09:03:24.999Z</time></trkpt><trkpt lat="44.40306507439676" lon="10.092617975763005"><ele>1210.857142857143</ele><time>2026-04-04T09:03:26.999Z</time></trkpt><trkpt lat="44.40310773621477" lon="10.092713609660764"><ele>1210.5714285714287</ele><time>2026-04-04T09:03:28.999Z</time></trkpt><trkpt lat="44.40313574096547" lon="10.092810929190502"><ele>1210.2857142857142</ele><time>2026-04-04T09:03:30.999Z</time></trkpt><trkpt lat="44.403195750070196" lon="10.092887962726943"><ele>1210.0</ele><time>2026-04-04T09:03:32.999Z</time></trkpt><trkpt lat="44.40325846384372" lon="10.092982037030419"><ele>1210.0</ele><time>2026-04-04T09:03:34.999Z</time></trkpt><trkpt lat="44.40334333351582" lon="10.093019561697666"><ele>1210.0</ele><time>2026-04-04T09:03:36.999Z</time></trkpt><trkpt lat="44.403404640348086" lon="10.093057224300715"><ele>1210.0</ele><time>2026-04-04T09:03:38.999Z</time></trkpt><trkpt lat="44.40346086274235" lon="10.093135623396474"><ele>1210.0</ele><time>2026-04-04T09:03:40.999Z</time></trkpt><trkpt lat="44.40349193272057" lon="10.09325225556822"><ele>1210.0</ele><time>2026-04-04T09:03:42.999Z</time></trkpt><trkpt lat="44.403517524979044" lon="10.093382148233403"><ele>1210.0</ele><time>2026-04-04T09:03:44.999Z</time></trkpt><trkpt lat="44.403543070147336" lon="10.093489541611786"><ele>1209.0</ele><time>2026-04-04T09:03:46.999Z</time></trkpt><trkpt lat="44.40355752071338" lon="10.093588693988538"><ele>1208.0</ele><time>2026-04-04T09:03:48.999Z</time></trkpt><trkpt lat="44.40356247527318" lon="10.09369847321647"><ele>1207.0</ele><time>2026-04-04T09:03:50.999Z</time></trkpt><trkpt lat="44.40356906785675" lon="10.093793233157289"><ele>1206.0</ele><time>2026-04-04T09:03:52.999Z</time></trkpt><trkpt lat="44.403579787647686" lon="10.093897966535092"><ele>1205.0</ele><time>2026-04-04T09:03:54.999Z</time></trkpt><trkpt lat="44.40361508696224" lon="10.093974260989732"><ele>1204.0</ele><time>2026-04-04T09:03:56.999Z</time></trkpt><trkpt lat="44.40362967186867" lon="10.094063516355481"><ele>1203.0</ele><time>2026-04-04T09:03:58.999Z</time></trkpt><trkpt lat="44.4036253461197" lon="10.094179271352168"><ele>1202.3333333333333</ele><time>2026-04-04T09:04:00.999Z</time></trkpt><trkpt lat="44.403621984862994" lon="10.0942919293092"><ele>1201.6666666666667</ele><time>2026-04-04T09:04:02.999Z</time></trkpt><trkpt lat="44.40366897037705" lon="10.094370823745914"><ele>1201.0</ele><time>2026-04-04T09:04:04.999Z</time></trkpt><trkpt lat="44.403735769579214" lon="10.094379132143406"><ele>1200.3333333333335</ele><time>2026-04-04T09:04:06.999Z</time></trkpt><trkpt lat="44.4038067123663" lon="10.094450342586365"><ele>1199.6666666666667</ele><time>2026-04-04T09:04:09.999Z</time></trkpt><trkpt lat="44.403845614591276" lon="10.09454991719776"><ele>1199.0</ele><time>2026-04-04T09:04:12Z</time></trkpt><trkpt lat="44.403885908036415" lon="10.094638811901001"><ele>1199.0</ele><time>2026-04-04T09:04:14Z</time></trkpt><trkpt lat="44.40393155847201" lon="10.094722524783291"><ele>1199.0</ele><time>2026-04-04T09:04:16Z</time></trkpt><trkpt lat="44.40395144001256" lon="10.09484534499939"><ele>1199.0</ele><time>2026-04-04T09:04:18Z</time></trkpt><trkpt lat="44.403961705578766" lon="10.094946775859514"><ele>1199.0</ele><time>2026-04-04T09:04:20Z</time></trkpt><trkpt lat="44.40396792449425" lon="10.09504676550754"><ele>1199.0</ele><time>2026-04-04T09:04:22Z</time></trkpt><trkpt lat="44.403988293780394" lon="10.095141242515508"><ele>1199.0</ele><time>2026-04-04T09:04:24Z</time></trkpt><trkpt lat="44.404047102889336" lon="10.095205658454367"><ele>1197.5</ele><time>2026-04-04T09:04:27Z</time></trkpt><trkpt lat="44.40406301974175" lon="10.095295839974355"><ele>1196.0</ele><time>2026-04-04T09:04:30Z</time></trkpt><trkpt lat="44.40410383931851" lon="10.095416634222614"><ele>1194.5</ele><time>2026-04-04T09:04:33Z</time></trkpt><trkpt lat="44.40412892908936" lon="10.095522397078112"><ele>1193.0</ele><time>2026-04-04T09:04:35Z</time></trkpt><trkpt lat="44.404157516630065" lon="10.095649568560823"><ele>1191.5</ele><time>2026-04-04T09:04:37Z</time></trkpt><trkpt lat="44.404213545743254" lon="10.095763227832872"><ele>1190.0</ele><time>2026-04-04T09:04:39Z</time></trkpt><trkpt lat="44.40430437626561" lon="10.095804301801252"><ele>1189.0</ele><time>2026-04-04T09:04:42Z</time></trkpt><trkpt lat="44.40439817638792" lon="10.095800732946827"><ele>1188.0</ele><time>2026-04-04T09:04:44Z</time></trkpt><trkpt lat="44.404501904749594" lon="10.095841482574258"><ele>1187.0</ele><time>2026-04-04T09:04:46Z</time></trkpt><trkpt lat="44.40454960287778" lon="10.095923848709138"><ele>1186.0</ele><time>2026-04-04T09:04:48Z</time></trkpt><trkpt lat="44.40457200355772" lon="10.09604351149144"><ele>1185.0</ele><time>2026-04-04T09:04:50Z</time></trkpt><trkpt lat="44.40465596729477" lon="10.096126500921867"><ele>1184.5</ele><time>2026-04-04T09:04:52Z</time></trkpt><trkpt lat="44.404736696100194" lon="10.096216073784783"><ele>1184.0</ele><time>2026-04-04T09:04:54Z</time></trkpt><trkpt lat="44.4047984899599" lon="10.09629098131777"><ele>1183.5</ele><time>2026-04-04T09:04:56Z</time></trkpt><trkpt lat="44.40485655474213" lon="10.096356026245589"><ele>1183.0</ele><time>2026-04-04T09:04:57.999Z</time></trkpt><trkpt lat="44.40492946155739" lon="10.09641700948998"><ele>1182.5</ele><time>2026-04-04T09:05:00.999Z</time></trkpt><trkpt lat="44.40502476489093" lon="10.096443109690458"><ele>1182.0</ele><time>2026-04-04T09:05:03.999Z</time></trkpt><trkpt lat="44.405085348031065" lon="10.096400809273701"><ele>1182.0</ele><time>2026-04-04T09:05:05.999Z</time></trkpt><trkpt lat="44.4051445355646" lon="10.096329958294106"><ele>1182.0</ele><time>2026-04-04T09:05:08.999Z</time></trkpt><trkpt lat="44.40519736217931" lon="10.09626276893823"><ele>1182.0</ele><time>2026-04-04T09:05:10.999Z</time></trkpt><trkpt lat="44.40525188011272" lon="10.096192708875284"><ele>1182.0</ele><time>2026-04-04T09:05:12.999Z</time></trkpt><trkpt lat="44.405301895930954" lon="10.096114134390165"><ele>1182.0</ele><time>2026-04-04T09:05:14.999Z</time></trkpt><trkpt lat="44.40538889994231" lon="10.0960831643961"><ele>1182.0</ele><time>2026-04-04T09:05:17.999Z</time></trkpt><trkpt lat="44.405467637610435" lon="10.096131764513718"><ele>1181.0</ele><time>2026-04-04T09:05:19.999Z</time></trkpt><trkpt lat="44.40552879206933" lon="10.096165077407518"><ele>1180.0</ele><time>2026-04-04T09:05:21.999Z</time></trkpt><trkpt lat="44.405592720483675" lon="10.096218153255673"><ele>1179.0</ele><time>2026-04-04T09:05:23.999Z</time></trkpt><trkpt lat="44.405642145583585" lon="10.096300839945801"><ele>1178.0</ele><time>2026-04-04T09:05:25.999Z</time></trkpt><trkpt lat="44.4056957493888" lon="10.096372783375982"><ele>1177.0</ele><time>2026-04-04T09:05:27.999Z</time></trkpt><trkpt lat="44.40576898800392" lon="10.096423737253637"><ele>1176.0</ele><time>2026-04-04T09:05:29.999Z</time></trkpt><trkpt lat="44.405839130442715" lon="10.096469567015248"><ele>1176.0</ele><time>2026-04-04T09:05:31.999Z</time></trkpt><trkpt lat="44.40592090710139" lon="10.09653282697236"><ele>1176.0</ele><time>2026-04-04T09:05:33.999Z</time></trkpt><trkpt lat="44.40601558907459" lon="10.096611264173465"><ele>1176.0</ele><time>2026-04-04T09:05:35.999Z</time></trkpt><trkpt lat="44.40610255934927" lon="10.096711980930953"><ele>1176.0</ele><time>2026-04-04T09:05:37.999Z</time></trkpt><trkpt lat="44.40615744764605" lon="10.096827453069434"><ele>1176.0</ele><time>2026-04-04T09:05:39.999Z</time></trkpt><trkpt lat="44.40620417438318" lon="10.09691692618149"><ele>1173.3999999999999</ele><time>2026-04-04T09:05:41.999Z</time></trkpt><trkpt lat="44.40622236193472" lon="10.09700416090006"><ele>1170.8</ele><time>2026-04-04T09:05:42.999Z</time></trkpt><trkpt lat="44.40628040826451" lon="10.09713822397891"><ele>1168.1999999999998</ele><time>2026-04-04T09:05:44.999Z</time></trkpt><trkpt lat="44.40637302380087" lon="10.097210976010155"><ele>1165.6</ele><time>2026-04-04T09:05:46.999Z</time></trkpt><trkpt lat="44.406458717468006" lon="10.097317504343179"><ele>1163.0</ele><time>2026-04-04T09:05:48.999Z</time></trkpt><trkpt lat="44.4065151824568" lon="10.097426945857968"><ele>1161.1666666666667</ele><time>2026-04-04T09:05:50.999Z</time></trkpt><trkpt lat="44.406546482572146" lon="10.097539578709803"><ele>1159.3333333333335</ele><time>2026-04-04T09:05:52.999Z</time></trkpt><trkpt lat="44.40657236454356" lon="10.097631273295276"><ele>1157.5</ele><time>2026-04-04T09:05:54.999Z</time></trkpt><trkpt lat="44.406630887195746" lon="10.097706349545623"><ele>1155.6666666666667</ele><time>2026-04-04T09:05:56.999Z</time></trkpt><trkpt lat="44.40670278020124" lon="10.097787766777378"><ele>1153.8333333333333</ele><time>2026-04-04T09:05:58.999Z</time></trkpt><trkpt lat="44.406764491845394" lon="10.097880202596993"><ele>1152.0</ele><time>2026-04-04T09:06:00.999Z</time></trkpt><trkpt lat="44.40681192238445" lon="10.097998546257182"><ele>1152.0</ele><time>2026-04-04T09:06:02.999Z</time></trkpt><trkpt lat="44.4068746278829" lon="10.098027977341179"><ele>1152.0</ele><time>2026-04-04T09:06:04.999Z</time></trkpt><trkpt lat="44.40691785215187" lon="10.098102917594128"><ele>1152.0</ele><time>2026-04-04T09:06:06.999Z</time></trkpt><trkpt lat="44.406882623149464" lon="10.098230168568854"><ele>1152.0</ele><time>2026-04-04T09:06:09.999Z</time></trkpt><trkpt lat="44.40683302144443" lon="10.098334108196052"><ele>1152.0</ele><time>2026-04-04T09:06:11.999Z</time></trkpt><trkpt lat="44.406808825797896" lon="10.098416539978103"><ele>1152.0</ele><time>2026-04-04T09:06:13.999Z</time></trkpt><trkpt lat="44.406785678076574" lon="10.098515458515733"><ele>1149.8333333333333</ele><time>2026-04-04T09:06:15.999Z</time></trkpt><trkpt lat="44.40676525558037" lon="10.098619319549497"><ele>1147.6666666666667</ele><time>2026-04-04T09:06:18Z</time></trkpt><trkpt lat="44.40674147134419" lon="10.098713810037875"><ele>1145.5</ele><time>2026-04-04T09:06:20Z</time></trkpt><trkpt lat="44.406697219053655" lon="10.098824936794022"><ele>1143.3333333333335</ele><time>2026-04-04T09:06:22Z</time></trkpt><trkpt lat="44.406654659200775" lon="10.09892625034185"><ele>1141.1666666666667</ele><time>2026-04-04T09:06:24Z</time></trkpt><trkpt lat="44.40660933519367" lon="10.099030388483035"><ele>1139.0</ele><time>2026-04-04T09:06:26Z</time></trkpt><trkpt lat="44.406593894971415" lon="10.0991425384503"><ele>1137.5</ele><time>2026-04-04T09:06:28Z</time></trkpt><trkpt lat="44.40659671512698" lon="10.099292969115076"><ele>1136.0</ele><time>2026-04-04T09:06:30Z</time></trkpt><trkpt lat="44.40660629821364" lon="10.09940169529396"><ele>1134.5</ele><time>2026-04-04T09:06:32Z</time></trkpt><trkpt lat="44.40659167889249" lon="10.09949626545544"><ele>1133.0</ele><time>2026-04-04T09:06:34Z</time></trkpt><trkpt lat="44.40659145349206" lon="10.099593744749907"><ele>1131.5</ele><time>2026-04-04T09:06:36Z</time></trkpt><trkpt lat="44.406598315451895" lon="10.099707261563012"><ele>1130.0</ele><time>2026-04-04T09:06:38Z</time></trkpt><trkpt lat="44.40659051407271" lon="10.099819686055396"><ele>1127.8333333333335</ele><time>2026-04-04T09:06:41Z</time></trkpt><trkpt lat="44.40661378231253" lon="10.09995602275282"><ele>1125.6666666666667</ele><time>2026-04-04T09:06:44Z</time></trkpt><trkpt lat="44.406659627009006" lon="10.10003409090089"><ele>1123.5</ele><time>2026-04-04T09:06:46Z</time></trkpt><trkpt lat="44.406717391543886" lon="10.10010405649228"><ele>1121.3333333333333</ele><time>2026-04-04T09:06:48Z</time></trkpt><trkpt lat="44.40678967044527" lon="10.100163509460511"><ele>1119.1666666666665</ele><time>2026-04-04T09:06:50Z</time></trkpt><trkpt lat="44.40685423333274" lon="10.100187946345367"><ele>1117.0</ele><time>2026-04-04T09:06:52Z</time></trkpt><trkpt lat="44.406923411911535" lon="10.100227613800882"><ele>1117.0</ele><time>2026-04-04T09:06:54Z</time></trkpt><trkpt lat="44.40698360124779" lon="10.100267120728821"><ele>1117.0</ele><time>2026-04-04T09:06:56Z</time></trkpt><trkpt lat="44.40705621231149" lon="10.100310775812195"><ele>1117.0</ele><time>2026-04-04T09:06:58Z</time></trkpt><trkpt lat="44.40712255026869" lon="10.100338230364219"><ele>1117.0</ele><time>2026-04-04T09:07:00Z</time></trkpt><trkpt lat="44.40719524792997" lon="10.100363121786044"><ele>1117.0</ele><time>2026-04-04T09:07:02Z</time></trkpt><trkpt lat="44.407290030928316" lon="10.100367863232691"><ele>1117.0</ele><time>2026-04-04T09:07:05Z</time></trkpt><trkpt lat="44.40735663004092" lon="10.100353350753437"><ele>1118.1666666666665</ele><time>2026-04-04T09:07:07Z</time></trkpt><trkpt lat="44.40744463906951" lon="10.100374877116773"><ele>1119.3333333333333</ele><time>2026-04-04T09:07:10Z</time></trkpt><trkpt lat="44.407510335814585" lon="10.100421733343211"><ele>1120.5</ele><time>2026-04-04T09:07:12Z</time></trkpt><trkpt lat="44.407583194085554" lon="10.100451416883487"><ele>1121.6666666666667</ele><time>2026-04-04T09:07:14Z</time></trkpt><trkpt lat="44.407657602155275" lon="10.10047402597861"><ele>1122.8333333333335</ele><time>2026-04-04T09:07:16Z</time></trkpt><trkpt lat="44.40774004615627" lon="10.100456892314606"><ele>1124.0</ele><time>2026-04-04T09:07:19Z</time></trkpt><trkpt lat="44.40783611441312" lon="10.100431552604581"><ele>1124.0</ele><time>2026-04-04T09:07:22Z</time></trkpt><trkpt lat="44.40792464742812" lon="10.100418538081405"><ele>1124.0</ele><time>2026-04-04T09:07:24.999Z</time></trkpt><trkpt lat="44.40800030743817" lon="10.100421614953799"><ele>1124.0</ele><time>2026-04-04T09:07:26.999Z</time></trkpt><trkpt lat="44.408076159943235" lon="10.100472743100003"><ele>1124.0</ele><time>2026-04-04T09:07:28.999Z</time></trkpt><trkpt lat="44.408115315325645" lon="10.100574236772358"><ele>1124.0</ele><time>2026-04-04T09:07:31.999Z</time></trkpt><trkpt lat="44.4081268566286" lon="10.100687367681868"><ele>1124.0</ele><time>2026-04-04T09:07:33.999Z</time></trkpt><trkpt lat="44.40812859388303" lon="10.100822320904099"><ele>1120.4</ele><time>2026-04-04T09:07:35.999Z</time></trkpt><trkpt lat="44.40812556215648" lon="10.100911396466541"><ele>1116.8000000000002</ele><time>2026-04-04T09:07:37.999Z</time></trkpt><trkpt lat="44.40812683211035" lon="10.101032175208069"><ele>1113.1999999999998</ele><time>2026-04-04T09:07:39.999Z</time></trkpt><trkpt lat="44.40815619679278" lon="10.101186796677501"><ele>1109.6</ele><time>2026-04-04T09:07:41.999Z</time></trkpt><trkpt lat="44.40818446876791" lon="10.101309049680953"><ele>1106.0</ele><time>2026-04-04T09:07:43.999Z</time></trkpt><trkpt lat="44.40820331744446" lon="10.101456199470014"><ele>1106.0</ele><time>2026-04-04T09:07:45.999Z</time></trkpt><trkpt lat="44.40823498554539" lon="10.101560251809184"><ele>1106.0</ele><time>2026-04-04T09:07:47.999Z</time></trkpt><trkpt lat="44.4082979708024" lon="10.101675895430702"><ele>1106.0</ele><time>2026-04-04T09:07:49.999Z</time></trkpt><trkpt lat="44.40836392008735" lon="10.10177038831988"><ele>1106.0</ele><time>2026-04-04T09:07:51.999Z</time></trkpt><trkpt lat="44.40842518341848" lon="10.101841965450642"><ele>1106.0</ele><time>2026-04-04T09:07:53.999Z</time></trkpt><trkpt lat="44.408505853975704" lon="10.101920308112557"><ele>1102.2</ele><time>2026-04-04T09:07:55.999Z</time></trkpt><trkpt lat="44.40857036572537" lon="10.101957510992484"><ele>1098.3999999999999</ele><time>2026-04-04T09:07:56.999Z</time></trkpt><trkpt lat="44.408681101600386" lon="10.102012101825473"><ele>1094.6</ele><time>2026-04-04T09:07:58.999Z</time></trkpt><trkpt lat="44.40879031517655" lon="10.10204297449865"><ele>1090.8</ele><time>2026-04-04T09:08:00.999Z</time></trkpt><trkpt lat="44.40889436982233" lon="10.102044467962946"><ele>1087.0</ele><time>2026-04-04T09:08:02.999Z</time></trkpt><trkpt lat="44.408994719662296" lon="10.101989140934737"><ele>1087.0</ele><time>2026-04-04T09:08:04.999Z</time></trkpt><trkpt lat="44.40908144497399" lon="10.101919709905731"><ele>1087.0</ele><time>2026-04-04T09:08:06.999Z</time></trkpt><trkpt lat="44.409167381798284" lon="10.101792572040674"><ele>1087.0</ele><time>2026-04-04T09:08:08.999Z</time></trkpt><trkpt lat="44.40921866056856" lon="10.1017295388347"><ele>1087.0</ele><time>2026-04-04T09:08:09.999Z</time></trkpt><trkpt lat="44.40933417085983" lon="10.101642415858434"><ele>1087.0</ele><time>2026-04-04T09:08:11.999Z</time></trkpt><trkpt lat="44.40940147241596" lon="10.101559205106176"><ele>1087.0</ele><time>2026-04-04T09:08:13.999Z</time></trkpt><trkpt lat="44.409465785320336" lon="10.101537817448436"><ele>1087.0</ele><time>2026-04-04T09:08:15.999Z</time></trkpt><trkpt lat="44.409527726896506" lon="10.101606115198102"><ele>1087.0</ele><time>2026-04-04T09:08:17.999Z</time></trkpt><trkpt lat="44.40955669166682" lon="10.101724941623058"><ele>1087.0</ele><time>2026-04-04T09:08:19.999Z</time></trkpt><trkpt lat="44.40958789266934" lon="10.101826212600143"><ele>1087.0</ele><time>2026-04-04T09:08:21.999Z</time></trkpt><trkpt lat="44.40962770377723" lon="10.101927304907559"><ele>1087.0</ele><time>2026-04-04T09:08:24Z</time></trkpt><trkpt lat="44.40968563706421" lon="10.102033543570583"><ele>1087.4</ele><time>2026-04-04T09:08:26Z</time></trkpt><trkpt lat="44.40975928373565" lon="10.102105078487002"><ele>1087.8000000000002</ele><time>2026-04-04T09:08:28Z</time></trkpt><trkpt lat="44.409832509928485" lon="10.10209717065674"><ele>1088.2</ele><time>2026-04-04T09:08:30Z</time></trkpt><trkpt lat="44.40990401383855" lon="10.101959513914784"><ele>1088.6000000000001</ele><time>2026-04-04T09:08:32Z</time></trkpt><trkpt lat="44.40995217858177" lon="10.10183613785537"><ele>1089.0</ele><time>2026-04-04T09:08:34Z</time></trkpt><trkpt lat="44.41002832707065" lon="10.101730138174684"><ele>1089.0</ele><time>2026-04-04T09:08:36Z</time></trkpt><trkpt lat="44.41012171426787" lon="10.101692196722658"><ele>1089.0</ele><time>2026-04-04T09:08:38Z</time></trkpt><trkpt lat="44.41021039350671" lon="10.101681993742783"><ele>1089.0</ele><time>2026-04-04T09:08:40Z</time></trkpt><trkpt lat="44.410323503263065" lon="10.101647126995612"><ele>1089.0</ele><time>2026-04-04T09:08:42Z</time></trkpt><trkpt lat="44.41044585158184" lon="10.1016427492372"><ele>1089.0</ele><time>2026-04-04T09:08:44Z</time></trkpt><trkpt lat="44.410506061095965" lon="10.101611180946344"><ele>1088.0</ele><time>2026-04-04T09:08:46Z</time></trkpt><trkpt lat="44.41060012882311" lon="10.101597140794322"><ele>1087.0</ele><time>2026-04-04T09:08:48Z</time></trkpt><trkpt lat="44.4106834481173" lon="10.101583319483158"><ele>1086.0</ele><time>2026-04-04T09:08:50Z</time></trkpt><trkpt lat="44.41074660199683" lon="10.101556355165885"><ele>1085.0</ele><time>2026-04-04T09:08:52Z</time></trkpt><trkpt lat="44.41081270849355" lon="10.101524050770779"><ele>1084.0</ele><time>2026-04-04T09:08:54Z</time></trkpt><trkpt lat="44.41087539463224" lon="10.101473984323333"><ele>1083.0</ele><time>2026-04-04T09:08:56Z</time></trkpt><trkpt lat="44.410953918225054" lon="10.101395465450388"><ele>1087.6</ele><time>2026-04-04T09:08:59Z</time></trkpt><trkpt lat="44.41104149869581" lon="10.101295427163537"><ele>1092.1999999999998</ele><time>2026-04-04T09:09:01Z</time></trkpt><trkpt lat="44.41113794026692" lon="10.101278606016432"><ele>1096.8</ele><time>2026-04-04T09:09:03Z</time></trkpt><trkpt lat="44.41122374077007" lon="10.101331022804798"><ele>1101.3999999999999</ele><time>2026-04-04T09:09:05Z</time></trkpt><trkpt lat="44.41131073211498" lon="10.101358441344127"><ele>1106.0</ele><time>2026-04-04T09:09:07Z</time></trkpt><trkpt lat="44.41140529686938" lon="10.101351429959433"><ele>1106.3999999999999</ele><time>2026-04-04T09:09:09Z</time></trkpt><trkpt lat="44.41150425550476" lon="10.101372016764074"><ele>1106.8</ele><time>2026-04-04T09:09:11Z</time></trkpt><trkpt lat="44.41160922201414" lon="10.101369811380321"><ele>1107.1999999999998</ele><time>2026-04-04T09:09:13Z</time></trkpt><trkpt lat="44.41172782662434" lon="10.101312434851907"><ele>1107.6</ele><time>2026-04-04T09:09:15Z</time></trkpt><trkpt lat="44.41179073368523" lon="10.101266046621229"><ele>1108.0</ele><time>2026-04-04T09:09:16Z</time></trkpt><trkpt lat="44.41185089047564" lon="10.101235035779112"><ele>1108.0</ele><time>2026-04-04T09:09:17Z</time></trkpt><trkpt lat="44.41193394985" lon="10.101195115137909"><ele>1108.0</ele><time>2026-04-04T09:09:19Z</time></trkpt><trkpt lat="44.411996544045785" lon="10.101182495924172"><ele>1108.0</ele><time>2026-04-04T09:09:20Z</time></trkpt><trkpt lat="44.41205882552179" lon="10.10116002337305"><ele>1108.0</ele><time>2026-04-04T09:09:21Z</time></trkpt><trkpt lat="44.41212727685192" lon="10.101138852345803"><ele>1108.0</ele><time>2026-04-04T09:09:22Z</time></trkpt><trkpt lat="44.41224601867858" lon="10.101111091000448"><ele>1108.0</ele><time>2026-04-04T09:09:24Z</time></trkpt><trkpt lat="44.412369361703625" lon="10.1011091749837"><ele>1108.2</ele><time>2026-04-04T09:09:26Z</time></trkpt><trkpt lat="44.41248637274361" lon="10.101110535733524"><ele>1108.4</ele><time>2026-04-04T09:09:28Z</time></trkpt><trkpt lat="44.412608051700275" lon="10.101082040374864"><ele>1108.6000000000001</ele><time>2026-04-04T09:09:29.999Z</time></trkpt><trkpt lat="44.41268179612008" lon="10.10103378118462"><ele>1108.8</ele><time>2026-04-04T09:09:30.999Z</time></trkpt><trkpt lat="44.41274108764078" lon="10.100965183886544"><ele>1109.0</ele><time>2026-04-04T09:09:31.999Z</time></trkpt><trkpt lat="44.4127956437423" lon="10.100881481436302"><ele>1109.0</ele><time>2026-04-04T09:09:32.999Z</time></trkpt><trkpt lat="44.41285122425029" lon="10.100833168647045"><ele>1109.0</ele><time>2026-04-04T09:09:33.999Z</time></trkpt><trkpt lat="44.41295706288844" lon="10.100830517844122"><ele>1109.0</ele><time>2026-04-04T09:09:35.999Z</time></trkpt><trkpt lat="44.413025862752114" lon="10.100830137087813"><ele>1109.0</ele><time>2026-04-04T09:09:36.999Z</time></trkpt><trkpt lat="44.4131512437684" lon="10.100846343346502"><ele>1109.0</ele><time>2026-04-04T09:09:38.999Z</time></trkpt><trkpt lat="44.413220663429534" lon="10.100872393170679"><ele>1109.0</ele><time>2026-04-04T09:09:39.999Z</time></trkpt><trkpt lat="44.413289950960056" lon="10.100895123955508"><ele>1109.4</ele><time>2026-04-04T09:09:40.999Z</time></trkpt><trkpt lat="44.41335505435793" lon="10.10092403567631"><ele>1109.8000000000002</ele><time>2026-04-04T09:09:41.999Z</time></trkpt><trkpt lat="44.41344945866033" lon="10.100995175055676"><ele>1110.1999999999998</ele><time>2026-04-04T09:09:43.999Z</time></trkpt><trkpt lat="44.41352441451601" lon="10.101040507931023"><ele>1110.6</ele><time>2026-04-04T09:09:45.999Z</time></trkpt><trkpt lat="44.41359122192787" lon="10.101130255115988"><ele>1111.0</ele><time>2026-04-04T09:09:47.999Z</time></trkpt><trkpt lat="44.41368336514461" lon="10.10122693940513"><ele>1111.0</ele><time>2026-04-04T09:09:49.999Z</time></trkpt><trkpt lat="44.413772108857565" lon="10.101314411769012"><ele>1111.0</ele><time>2026-04-04T09:09:51.999Z</time></trkpt><trkpt lat="44.4138853238509" lon="10.101359664587447"><ele>1111.0</ele><time>2026-04-04T09:09:53.999Z</time></trkpt><trkpt lat="44.413956314246846" lon="10.10136309921184"><ele>1111.0</ele><time>2026-04-04T09:09:54.999Z</time></trkpt><trkpt lat="44.414080049491695" lon="10.101366882691407"><ele>1111.0</ele><time>2026-04-04T09:09:56.999Z</time></trkpt><trkpt lat="44.41417720434738" lon="10.101430917337908"><ele>1114.0</ele><time>2026-04-04T09:09:58.999Z</time></trkpt><trkpt lat="44.41428698732383" lon="10.101464000217176"><ele>1117.0</ele><time>2026-04-04T09:10:00.999Z</time></trkpt><trkpt lat="44.41440113169283" lon="10.101500082921712"><ele>1120.0</ele><time>2026-04-04T09:10:02.999Z</time></trkpt><trkpt lat="44.41452001031462" lon="10.101499118286327"><ele>1123.0</ele><time>2026-04-04T09:10:04.999Z</time></trkpt><trkpt lat="44.41457814681993" lon="10.1015372746103"><ele>1126.0</ele><time>2026-04-04T09:10:05.999Z</time></trkpt><trkpt lat="44.41465282462786" lon="10.101553245259359"><ele>1125.3999999999999</ele><time>2026-04-04T09:10:06.999Z</time></trkpt><trkpt lat="44.414762032178864" lon="10.101564043189791"><ele>1124.8</ele><time>2026-04-04T09:10:08.999Z</time></trkpt><trkpt lat="44.41488805200394" lon="10.101606040297646"><ele>1124.1999999999998</ele><time>2026-04-04T09:10:10.999Z</time></trkpt><trkpt lat="44.41495951994663" lon="10.101638184977272"><ele>1123.6</ele><time>2026-04-04T09:10:11.999Z</time></trkpt><trkpt lat="44.41502740184331" lon="10.101684041765822"><ele>1123.0</ele><time>2026-04-04T09:10:12.999Z</time></trkpt><trkpt lat="44.41508201223486" lon="10.101750292011461"><ele>1123.0</ele><time>2026-04-04T09:10:13.999Z</time></trkpt><trkpt lat="44.41519584729119" lon="10.10183126424148"><ele>1123.0</ele><time>2026-04-04T09:10:15.999Z</time></trkpt><trkpt lat="44.415293323370484" lon="10.101932050620654"><ele>1123.0</ele><time>2026-04-04T09:10:17.999Z</time></trkpt><trkpt lat="44.415342724980775" lon="10.101987814506856"><ele>1123.0</ele><time>2026-04-04T09:10:18.999Z</time></trkpt><trkpt lat="44.415415619279734" lon="10.102095896437474"><ele>1123.0</ele><time>2026-04-04T09:10:20.999Z</time></trkpt><trkpt lat="44.41549885240978" lon="10.10218522322489"><ele>1124.6</ele><time>2026-04-04T09:10:22.999Z</time></trkpt><trkpt lat="44.415559686323334" lon="10.102307432348953"><ele>1126.1999999999998</ele><time>2026-04-04T09:10:24.999Z</time></trkpt><trkpt lat="44.41563559651587" lon="10.102414629287797"><ele>1127.8</ele><time>2026-04-04T09:10:26.999Z</time></trkpt><trkpt lat="44.415743622881536" lon="10.102446125261743"><ele>1129.3999999999999</ele><time>2026-04-04T09:10:28.999Z</time></trkpt><trkpt lat="44.41580840308568" lon="10.10245090570511"><ele>1131.0</ele><time>2026-04-04T09:10:30Z</time></trkpt><trkpt lat="44.41590730826204" lon="10.102473783976421"><ele>1131.0</ele><time>2026-04-04T09:10:32Z</time></trkpt><trkpt lat="44.415995494376304" lon="10.102547520856232"><ele>1131.0</ele><time>2026-04-04T09:10:34Z</time></trkpt><trkpt lat="44.41607455076555" lon="10.102573747826108"><ele>1131.0</ele><time>2026-04-04T09:10:36Z</time></trkpt><trkpt lat="44.41612256953312" lon="10.102637362341424"><ele>1131.0</ele><time>2026-04-04T09:14:34.999Z</time></trkpt><trkpt lat="44.41620544857647" lon="10.102631610286739"><ele>1131.0</ele><time>2026-04-04T09:14:36.999Z</time></trkpt><trkpt lat="44.41629853032321" lon="10.10259221590508"><ele>1131.0</ele><time>2026-04-04T09:14:38.999Z</time></trkpt><trkpt lat="44.41636427521401" lon="10.102545518537918"><ele>1133.0</ele><time>2026-04-04T09:14:40.999Z</time></trkpt><trkpt lat="44.41641284376115" lon="10.102485681371567"><ele>1135.0</ele><time>2026-04-04T09:14:42Z</time></trkpt><trkpt lat="44.41647783934111" lon="10.102321618304838"><ele>1137.0</ele><time>2026-04-04T09:14:44Z</time></trkpt><trkpt lat="44.41657712824578" lon="10.102236128284172"><ele>1139.0</ele><time>2026-04-04T09:14:46Z</time></trkpt><trkpt lat="44.41668179181787" lon="10.102185427310745"><ele>1141.0</ele><time>2026-04-04T09:14:48Z</time></trkpt><trkpt lat="44.41679185775774" lon="10.102221872420852"><ele>1141.0</ele><time>2026-04-04T09:14:50Z</time></trkpt><trkpt lat="44.41685356140001" lon="10.102287608289728"><ele>1141.0</ele><time>2026-04-04T09:14:51Z</time></trkpt><trkpt lat="44.41694010431464" lon="10.10235990116485"><ele>1141.0</ele><time>2026-04-04T09:14:53Z</time></trkpt><trkpt lat="44.41700407321268" lon="10.102487174081803"><ele>1141.0</ele><time>2026-04-04T09:14:55Z</time></trkpt><trkpt lat="44.41709756477044" lon="10.102566122762644"><ele>1141.0</ele><time>2026-04-04T09:14:57Z</time></trkpt><trkpt lat="44.417181056862084" lon="10.102660510234545"><ele>1143.8</ele><time>2026-04-04T09:14:59Z</time></trkpt><trkpt lat="44.41725378953008" lon="10.10278665777331"><ele>1146.6</ele><time>2026-04-04T09:15:01Z</time></trkpt><trkpt lat="44.41731340213719" lon="10.102835973426602"><ele>1149.4</ele><time>2026-04-04T09:15:02Z</time></trkpt><trkpt lat="44.41738630834015" lon="10.102960836881255"><ele>1152.2</ele><time>2026-04-04T09:15:04Z</time></trkpt><trkpt lat="44.41744435784689" lon="10.103027443943384"><ele>1155.0</ele><time>2026-04-04T09:15:06Z</time></trkpt><trkpt lat="44.41752844221947" lon="10.103095844535051"><ele>1155.0</ele><time>2026-04-04T09:15:08Z</time></trkpt><trkpt lat="44.417627763190495" lon="10.103104055885865"><ele>1155.0</ele><time>2026-04-04T09:15:10Z</time></trkpt><trkpt lat="44.41771350384998" lon="10.103081952799748"><ele>1155.0</ele><time>2026-04-04T09:15:11Z</time></trkpt><trkpt lat="44.41778067086045" lon="10.103048417493907"><ele>1155.0</ele><time>2026-04-04T09:15:12Z</time></trkpt><trkpt lat="44.41789383217711" lon="10.103076891736164"><ele>1155.0</ele><time>2026-04-04T09:15:14Z</time></trkpt><trkpt lat="44.41797187439783" lon="10.103116083159385"><ele>1156.6</ele><time>2026-04-04T09:15:15Z</time></trkpt><trkpt lat="44.418068905705724" lon="10.103173902069559"><ele>1158.2</ele><time>2026-04-04T09:15:17Z</time></trkpt><trkpt lat="44.418159191232064" lon="10.103284106596876"><ele>1159.8</ele><time>2026-04-04T09:15:19Z</time></trkpt><trkpt lat="44.41824812474283" lon="10.103377550014853"><ele>1161.4</ele><time>2026-04-04T09:15:21Z</time></trkpt><trkpt lat="44.418307947979436" lon="10.103433087490874"><ele>1163.0</ele><time>2026-04-04T09:15:22Z</time></trkpt><trkpt lat="44.418382430643355" lon="10.103547280223495"><ele>1159.6</ele><time>2026-04-04T09:15:24Z</time></trkpt><trkpt lat="44.4184073286113" lon="10.103662767837891"><ele>1156.1999999999998</ele><time>2026-04-04T09:15:26Z</time></trkpt><trkpt lat="44.4184104146248" lon="10.103808840054198"><ele>1152.8</ele><time>2026-04-04T09:15:28Z</time></trkpt><trkpt lat="44.418413270661674" lon="10.103970202567067"><ele>1149.3999999999999</ele><time>2026-04-04T09:15:30Z</time></trkpt><trkpt lat="44.4184058708543" lon="10.104108376347344"><ele>1146.0</ele><time>2026-04-04T09:15:32Z</time></trkpt><trkpt lat="44.418380858485726" lon="10.104230660112758"><ele>1143.0</ele><time>2026-04-04T09:15:34Z</time></trkpt><trkpt lat="44.41834339071379" lon="10.104317597360343"><ele>1140.0</ele><time>2026-04-04T09:15:36Z</time></trkpt><trkpt lat="44.418290797446915" lon="10.104470658165395"><ele>1137.0</ele><time>2026-04-04T09:15:38Z</time></trkpt><trkpt lat="44.41826352766123" lon="10.104555175810354"><ele>1134.0</ele><time>2026-04-04T09:15:39Z</time></trkpt><trkpt lat="44.418212245711594" lon="10.104734153400683"><ele>1131.0</ele><time>2026-04-04T09:15:41Z</time></trkpt><trkpt lat="44.418197535126666" lon="10.104879936058724"><ele>1128.3999999999999</ele><time>2026-04-04T09:15:43Z</time></trkpt><trkpt lat="44.418214179103686" lon="10.105008412366633"><ele>1125.8</ele><time>2026-04-04T09:15:46Z</time></trkpt><trkpt lat="44.41824108731403" lon="10.105094855572956"><ele>1123.1999999999998</ele><time>2026-04-04T09:15:48Z</time></trkpt><trkpt lat="44.41834899003381" lon="10.105169642830516"><ele>1120.6</ele><time>2026-04-04T09:15:49.999Z</time></trkpt><trkpt lat="44.418453088734374" lon="10.105238535056728"><ele>1118.0</ele><time>2026-04-04T09:15:51.999Z</time></trkpt><trkpt lat="44.418507850058496" lon="10.105287842138491"><ele>1118.0</ele><time>2026-04-04T09:15:52.999Z</time></trkpt><trkpt lat="44.418619630846536" lon="10.105373837778151"><ele>1118.0</ele><time>2026-04-04T09:15:54.999Z</time></trkpt><trkpt lat="44.41865710341269" lon="10.105448062617011"><ele>1118.0</ele><time>2026-04-04T09:15:55.999Z</time></trkpt><trkpt lat="44.418750963667016" lon="10.10552983956937"><ele>1118.0</ele><time>2026-04-04T09:15:57.999Z</time></trkpt><trkpt lat="44.41883389310748" lon="10.105638418920575"><ele>1118.0</ele><time>2026-04-04T09:15:59.999Z</time></trkpt><trkpt lat="44.418944091138535" lon="10.105705331869727"><ele>1119.6</ele><time>2026-04-04T09:16:01.999Z</time></trkpt><trkpt lat="44.4190450404877" lon="10.105803944280542"><ele>1121.1999999999998</ele><time>2026-04-04T09:16:03.999Z</time></trkpt><trkpt lat="44.41913555490604" lon="10.10588732511703"><ele>1122.8</ele><time>2026-04-04T09:16:05.999Z</time></trkpt><trkpt lat="44.41919365585784" lon="10.1059435082823"><ele>1124.3999999999999</ele><time>2026-04-04T09:16:06.999Z</time></trkpt><trkpt lat="44.419245085953555" lon="10.105994692185382"><ele>1126.0</ele><time>2026-04-04T09:16:07.999Z</time></trkpt><trkpt lat="44.41934645454198" lon="10.10609557704543"><ele>1126.0</ele><time>2026-04-04T09:16:09.999Z</time></trkpt><trkpt lat="44.41945178799412" lon="10.106179998295582"><ele>1126.0</ele><time>2026-04-04T09:16:11.999Z</time></trkpt><trkpt lat="44.419492100352684" lon="10.106256079289691"><ele>1126.0</ele><time>2026-04-04T09:16:12.999Z</time></trkpt><trkpt lat="44.41958240503919" lon="10.106375142124762"><ele>1126.0</ele><time>2026-04-04T09:16:14.999Z</time></trkpt><trkpt lat="44.419618202920844" lon="10.106455259259185"><ele>1126.0</ele><time>2026-04-04T09:16:15.999Z</time></trkpt><trkpt lat="44.41971196576568" lon="10.106542181936067"><ele>1124.6</ele><time>2026-04-04T09:16:17.999Z</time></trkpt><trkpt lat="44.41980191629175" lon="10.10661136930381"><ele>1123.1999999999998</ele><time>2026-04-04T09:16:19.999Z</time></trkpt><trkpt lat="44.4199119988193" lon="10.106629467245197"><ele>1121.8000000000002</ele><time>2026-04-04T09:16:21.999Z</time></trkpt><trkpt lat="44.4200321558226" lon="10.106665021032574"><ele>1120.4</ele><time>2026-04-04T09:16:23.999Z</time></trkpt><trkpt lat="44.420129503368685" lon="10.106716809648645"><ele>1119.0</ele><time>2026-04-04T09:16:25.999Z</time></trkpt><trkpt lat="44.42019534219983" lon="10.106806972554763"><ele>1119.0</ele><time>2026-04-04T09:16:27.999Z</time></trkpt><trkpt lat="44.42026905960325" lon="10.106864804816073"><ele>1119.0</ele><time>2026-04-04T09:16:29.999Z</time></trkpt><trkpt lat="44.420329296209616" lon="10.106892036368668"><ele>1119.0</ele><time>2026-04-04T09:16:30.999Z</time></trkpt><trkpt lat="44.42039078924679" lon="10.106986088249547"><ele>1119.0</ele><time>2026-04-04T09:16:32.999Z</time></trkpt><trkpt lat="44.42047362056258" lon="10.107076414804935"><ele>1119.0</ele><time>2026-04-04T09:16:34.999Z</time></trkpt><trkpt lat="44.420529503229226" lon="10.107164981562763"><ele>1119.0</ele><time>2026-04-04T09:16:36.999Z</time></trkpt><trkpt lat="44.420579949680516" lon="10.107284739163815"><ele>1118.6000000000001</ele><time>2026-04-04T09:16:38.999Z</time></trkpt><trkpt lat="44.42057537947078" lon="10.107439089638278"><ele>1118.2</ele><time>2026-04-04T09:16:40.999Z</time></trkpt><trkpt lat="44.42060736295458" lon="10.10760642069613"><ele>1117.8000000000002</ele><time>2026-04-04T09:16:42.999Z</time></trkpt><trkpt lat="44.420644373371026" lon="10.107687602933124"><ele>1117.4</ele><time>2026-04-04T09:16:43.999Z</time></trkpt><trkpt lat="44.42072492369828" lon="10.107839020829557"><ele>1117.0</ele><time>2026-04-04T09:16:45.999Z</time></trkpt><trkpt lat="44.420766170052495" lon="10.10792433741667"><ele>1117.0000000000002</ele><time>2026-04-04T09:16:46.999Z</time></trkpt><trkpt lat="44.42081980652091" lon="10.108001288234217"><ele>1117.0</ele><time>2026-04-04T09:16:48Z</time></trkpt><trkpt lat="44.42084229966097" lon="10.108093864838532"><ele>1117.0</ele><time>2026-04-04T09:16:49Z</time></trkpt><trkpt lat="44.42089113583885" lon="10.108174306747472"><ele>1117.0</ele><time>2026-04-04T09:16:50Z</time></trkpt><trkpt lat="44.4209223459448" lon="10.108251573358586"><ele>1117.0</ele><time>2026-04-04T09:16:51Z</time></trkpt><trkpt lat="44.42095369703552" lon="10.108334978115488"><ele>1117.0000000000002</ele><time>2026-04-04T09:16:52Z</time></trkpt><trkpt lat="44.420998696844144" lon="10.108406793885079"><ele>1117.0</ele><time>2026-04-04T09:16:53Z</time></trkpt><trkpt lat="44.42104400633989" lon="10.108480901522544"><ele>1114.6666666666665</ele><time>2026-04-04T09:16:54Z</time></trkpt><trkpt lat="44.4210678668868" lon="10.108572766880823"><ele>1112.3333333333333</ele><time>2026-04-04T09:16:55Z</time></trkpt><trkpt lat="44.421105865500095" lon="10.108657058720603"><ele>1110.0</ele><time>2026-04-04T09:16:56Z</time></trkpt><trkpt lat="44.42115432162842" lon="10.108801613797485"><ele>1107.6666666666667</ele><time>2026-04-04T09:16:58Z</time></trkpt><trkpt lat="44.421137352381095" lon="10.108902914198845"><ele>1105.3333333333335</ele><time>2026-04-04T09:17:00Z</time></trkpt><trkpt lat="44.42108226373839" lon="10.108945625009348"><ele>1103.0</ele><time>2026-04-04T09:17:04Z</time></trkpt><trkpt lat="44.42121628868575" lon="10.109187408096492"><ele>1100.8333333333335</ele><time>2026-04-04T09:17:18Z</time></trkpt><trkpt lat="44.42130326657789" lon="10.109246442614332"><ele>1098.6666666666667</ele><time>2026-04-04T09:17:20Z</time></trkpt><trkpt lat="44.42137499656646" lon="10.1093233618558"><ele>1096.5</ele><time>2026-04-04T09:17:22Z</time></trkpt><trkpt lat="44.421456731429515" lon="10.109392978880988"><ele>1094.3333333333333</ele><time>2026-04-04T09:17:44Z</time></trkpt><trkpt lat="44.42151504807935" lon="10.109456950744674"><ele>1092.1666666666665</ele><time>2026-04-04T09:17:45Z</time></trkpt><trkpt lat="44.421572868658025" lon="10.109526655760495"><ele>1090.0</ele><time>2026-04-04T09:17:46Z</time></trkpt><trkpt lat="44.42164319543525" lon="10.109595558593975"><ele>1093.0</ele><time>2026-04-04T09:17:47Z</time></trkpt><trkpt lat="44.421722398885315" lon="10.1096907090472"><ele>1096.0</ele><time>2026-04-04T09:17:48Z</time></trkpt><trkpt lat="44.42179529041677" lon="10.109807800551572"><ele>1099.0</ele><time>2026-04-04T09:17:49Z</time></trkpt><trkpt lat="44.421865115354954" lon="10.109923584839073"><ele>1102.0</ele><time>2026-04-04T09:17:50Z</time></trkpt><trkpt lat="44.42193680506789" lon="10.110043953727011"><ele>1105.0</ele><time>2026-04-04T09:17:51Z</time></trkpt><trkpt lat="44.421959311630104" lon="10.110192922629414"><ele>1105.0</ele><time>2026-04-04T09:17:52Z</time></trkpt><trkpt lat="44.421979803828144" lon="10.110340859839663"><ele>1105.0</ele><time>2026-04-04T09:17:53Z</time></trkpt><trkpt lat="44.42199935571196" lon="10.110502655756578"><ele>1105.0</ele><time>2026-04-04T09:17:53.999Z</time></trkpt><trkpt lat="44.422016716194236" lon="10.110677621277684"><ele>1105.0</ele><time>2026-04-04T09:17:54.999Z</time></trkpt><trkpt lat="44.42203641354543" lon="10.11085855220351"><ele>1103.0</ele><time>2026-04-04T09:17:55.999Z</time></trkpt><trkpt lat="44.42205795170749" lon="10.111043285779223"><ele>1101.0</ele><time>2026-04-04T09:17:56.999Z</time></trkpt><trkpt lat="44.422078198082986" lon="10.11122608517862"><ele>1099.0</ele><time>2026-04-04T09:17:57.999Z</time></trkpt><trkpt lat="44.42208870423518" lon="10.11139282212586"><ele>1097.0</ele><time>2026-04-04T09:17:58.999Z</time></trkpt><trkpt lat="44.42209396176199" lon="10.111522861125952"><ele>1095.2</ele><time>2026-04-04T09:17:59.999Z</time></trkpt><trkpt lat="44.42211334928873" lon="10.111641980105267"><ele>1093.4</ele><time>2026-04-04T09:18:00.999Z</time></trkpt><trkpt lat="44.42217296130818" lon="10.111740742900336"><ele>1091.6</ele><time>2026-04-04T09:18:01.999Z</time></trkpt><trkpt lat="44.422268362435666" lon="10.111780538285952"><ele>1089.8</ele><time>2026-04-04T09:18:02.999Z</time></trkpt><trkpt lat="44.42238385776439" lon="10.111831739177326"><ele>1088.0</ele><time>2026-04-04T09:18:03.999Z</time></trkpt><trkpt lat="44.42251411076161" lon="10.111931105990472"><ele>1097.5</ele><time>2026-04-04T09:18:04.999Z</time></trkpt><trkpt lat="44.42264429317737" lon="10.111976364380741"><ele>1107.0</ele><time>2026-04-04T09:18:05.999Z</time></trkpt><trkpt lat="44.42277192454441" lon="10.112061437000522"><ele>1116.5</ele><time>2026-04-04T09:18:06.999Z</time></trkpt><trkpt lat="44.42289713266025" lon="10.112110258147455"><ele>1126.0</ele><time>2026-04-04T09:18:07.999Z</time></trkpt><trkpt lat="44.42300127788523" lon="10.112192293692653"><ele>1131.5</ele><time>2026-04-04T09:18:08.999Z</time></trkpt><trkpt lat="44.42305673003128" lon="10.11235970950466"><ele>1137.0</ele><time>2026-04-04T09:18:09.999Z</time></trkpt><trkpt lat="44.423108736966675" lon="10.112537939916644"><ele>1142.5</ele><time>2026-04-04T09:18:10.999Z</time></trkpt><trkpt lat="44.42311714833786" lon="10.112710017001161"><ele>1148.0</ele><time>2026-04-04T09:18:11.999Z</time></trkpt><trkpt lat="44.42311602303453" lon="10.112908485959547"><ele>1148.0</ele><time>2026-04-04T09:18:12.999Z</time></trkpt><trkpt lat="44.42314854181869" lon="10.113098455610396"><ele>1148.0</ele><time>2026-04-04T09:18:13.999Z</time></trkpt><trkpt lat="44.42318253000788" lon="10.113284721025112"><ele>1148.0</ele><time>2026-04-04T09:18:14.999Z</time></trkpt><trkpt lat="44.423254492005725" lon="10.1134579222286"><ele>1148.0</ele><time>2026-04-04T09:18:15.999Z</time></trkpt><trkpt lat="44.423356957384605" lon="10.113621441396827"><ele>1143.3333333333335</ele><time>2026-04-04T09:18:16.999Z</time></trkpt><trkpt lat="44.42346144028791" lon="10.113792858378227"><ele>1138.6666666666667</ele><time>2026-04-04T09:18:17.999Z</time></trkpt><trkpt lat="44.42355456099252" lon="10.113963539527766"><ele>1134.0</ele><time>2026-04-04T09:18:18.999Z</time></trkpt><trkpt lat="44.42364556720805" lon="10.1141204509871"><ele>1134.2</ele><time>2026-04-04T09:18:19.999Z</time></trkpt><trkpt lat="44.42375074897153" lon="10.114199602337301"><ele>1134.4</ele><time>2026-04-04T09:18:20.999Z</time></trkpt><trkpt lat="44.42384568719111" lon="10.114263158675888"><ele>1134.6</ele><time>2026-04-04T09:18:21.999Z</time></trkpt><trkpt lat="44.423937968352725" lon="10.114267153604922"><ele>1134.8</ele><time>2026-04-04T09:18:22.999Z</time></trkpt><trkpt lat="44.424020322306575" lon="10.114207461384689"><ele>1135.0</ele><time>2026-04-04T09:18:23.999Z</time></trkpt><trkpt lat="44.42411652203887" lon="10.114133724371008"><ele>1140.25</ele><time>2026-04-04T09:18:24.999Z</time></trkpt><trkpt lat="44.424230905815115" lon="10.114036532081293"><ele>1145.5</ele><time>2026-04-04T09:18:25.999Z</time></trkpt><trkpt lat="44.42435415383678" lon="10.113932293914015"><ele>1150.75</ele><time>2026-04-04T09:18:26.999Z</time></trkpt><trkpt lat="44.42448018976137" lon="10.113827016992312"><ele>1156.0</ele><time>2026-04-04T09:18:27.999Z</time></trkpt><trkpt lat="44.42461177741375" lon="10.113734405111712"><ele>1154.5</ele><time>2026-04-04T09:18:28.999Z</time></trkpt><trkpt lat="44.42473690097695" lon="10.113632235226719"><ele>1153.0</ele><time>2026-04-04T09:18:29.999Z</time></trkpt><trkpt lat="44.424857393006945" lon="10.113552335876568"><ele>1151.5</ele><time>2026-04-04T09:18:30.999Z</time></trkpt><trkpt lat="44.424981601730494" lon="10.113509676058856"><ele>1150.0</ele><time>2026-04-04T09:18:31.999Z</time></trkpt><trkpt lat="44.425112774548076" lon="10.113551504223965"><ele>1150.0</ele><time>2026-04-04T09:18:32.999Z</time></trkpt><trkpt lat="44.4252486707447" lon="10.113627821127958"><ele>1150.0</ele><time>2026-04-04T09:18:33.999Z</time></trkpt><trkpt lat="44.42540360400196" lon="10.113692877492818"><ele>1150.0</ele><time>2026-04-04T09:18:34.999Z</time></trkpt><trkpt lat="44.42554977211375" lon="10.113780828775976"><ele>1153.3333333333333</ele><time>2026-04-04T09:18:35.999Z</time></trkpt><trkpt lat="44.42570313184926" lon="10.113816292208838"><ele>1156.6666666666667</ele><time>2026-04-04T09:18:36.999Z</time></trkpt><trkpt lat="44.42586266663436" lon="10.113830658603515"><ele>1160.0</ele><time>2026-04-04T09:18:37.999Z</time></trkpt><trkpt lat="44.42601853100441" lon="10.11385931546561"><ele>1160.0</ele><time>2026-04-04T09:18:38.999Z</time></trkpt><trkpt lat="44.42617376561636" lon="10.113878031473742"><ele>1160.0</ele><time>2026-04-04T09:18:39.999Z</time></trkpt><trkpt lat="44.42631047241432" lon="10.113898533109317"><ele>1160.0</ele><time>2026-04-04T09:18:40.999Z</time></trkpt><trkpt lat="44.42643233458593" lon="10.113957631567361"><ele>1160.0</ele><time>2026-04-04T09:18:41.999Z</time></trkpt><trkpt lat="44.42652823245803" lon="10.114041132887435"><ele>1158.2</ele><time>2026-04-04T09:18:42.999Z</time></trkpt><trkpt lat="44.42660626157257" lon="10.114128402285795"><ele>1156.4</ele><time>2026-04-04T09:18:43.999Z</time></trkpt><trkpt lat="44.42668315015321" lon="10.114176581007502"><ele>1154.6</ele><time>2026-04-04T09:18:44.999Z</time></trkpt><trkpt lat="44.42679211764982" lon="10.114231401515985"><ele>1152.8</ele><time>2026-04-04T09:18:45.999Z</time></trkpt><trkpt lat="44.42690850914665" lon="10.114271867522646"><ele>1151.0</ele><time>2026-04-04T09:18:46.999Z</time></trkpt><trkpt lat="44.42702553199448" lon="10.114332173835155"><ele>1151.0</ele><time>2026-04-04T09:18:47.999Z</time></trkpt><trkpt lat="44.427126759576545" lon="10.114444384663637"><ele>1151.0</ele><time>2026-04-04T09:18:48.999Z</time></trkpt><trkpt lat="44.42720676138506" lon="10.114587432172064"><ele>1151.0</ele><time>2026-04-04T09:18:49.999Z</time></trkpt><trkpt lat="44.42727280143454" lon="10.114728102662056"><ele>1151.0</ele><time>2026-04-04T09:18:50.999Z</time></trkpt><trkpt lat="44.42734783923087" lon="10.114839986019906"><ele>1150.6</ele><time>2026-04-04T09:18:51.999Z</time></trkpt><trkpt lat="44.42745150657788" lon="10.114925980371936"><ele>1150.1999999999998</ele><time>2026-04-04T09:18:52.999Z</time></trkpt><trkpt lat="44.42755591907133" lon="10.114982038990803"><ele>1149.8000000000002</ele><time>2026-04-04T09:18:54Z</time></trkpt><trkpt lat="44.42762890916574" lon="10.114968170698443"><ele>1149.4</ele><time>2026-04-04T09:18:55Z</time></trkpt><trkpt lat="44.427710141164255" lon="10.114980937394089"><ele>1149.0</ele><time>2026-04-04T09:18:57Z</time></trkpt><trkpt lat="44.427771087093156" lon="10.114957657773532"><ele>1150.0</ele><time>2026-04-04T09:19:00Z</time></trkpt><trkpt lat="44.427839509976145" lon="10.114884837227939"><ele>1151.0</ele><time>2026-04-04T09:19:03Z</time></trkpt><trkpt lat="44.427880010040106" lon="10.114717155152132"><ele>1152.0</ele><time>2026-04-04T09:19:05Z</time></trkpt><trkpt lat="44.42786792280234" lon="10.114612174836378"><ele>1153.0</ele><time>2026-04-04T09:19:06Z</time></trkpt><trkpt lat="44.42783025514999" lon="10.114496137509867"><ele>1154.0</ele><time>2026-04-04T09:19:07Z</time></trkpt><trkpt lat="44.42778046983971" lon="10.114347586003413"><ele>1154.0</ele><time>2026-04-04T09:19:08Z</time></trkpt><trkpt lat="44.427692935226105" lon="10.114237432174473"><ele>1154.0</ele><time>2026-04-04T09:19:09Z</time></trkpt><trkpt lat="44.42761455679572" lon="10.114136612788492"><ele>1154.0</ele><time>2026-04-04T09:19:10Z</time></trkpt><trkpt lat="44.42755107201536" lon="10.114031731687334"><ele>1154.0</ele><time>2026-04-04T09:19:11Z</time></trkpt><trkpt lat="44.427507018250814" lon="10.113917708674334"><ele>1154.0</ele><time>2026-04-04T09:19:12Z</time></trkpt><trkpt lat="44.42747487571813" lon="10.113783829957228"><ele>1152.25</ele><time>2026-04-04T09:19:13Z</time></trkpt><trkpt lat="44.42746127503624" lon="10.113628031224808"><ele>1150.5</ele><time>2026-04-04T09:19:14Z</time></trkpt><trkpt lat="44.42749714634171" lon="10.113453834038381"><ele>1148.75</ele><time>2026-04-04T09:19:15Z</time></trkpt><trkpt lat="44.427546551898615" lon="10.113293488524901"><ele>1147.0</ele><time>2026-04-04T09:19:16Z</time></trkpt><trkpt lat="44.4275906935863" lon="10.113146008489476"><ele>1145.4</ele><time>2026-04-04T09:19:17Z</time></trkpt><trkpt lat="44.427614364340634" lon="10.113014965708446"><ele>1143.8000000000002</ele><time>2026-04-04T09:19:18Z</time></trkpt><trkpt lat="44.427606972224076" lon="10.112896036633675"><ele>1142.2</ele><time>2026-04-04T09:19:19Z</time></trkpt><trkpt lat="44.42755781794633" lon="10.112767850010407"><ele>1140.6000000000001</ele><time>2026-04-04T09:19:20Z</time></trkpt><trkpt lat="44.4274830431201" lon="10.11263066580769"><ele>1139.0</ele><time>2026-04-04T09:19:21Z</time></trkpt><trkpt lat="44.42741308709076" lon="10.112459285051056"><ele>1138.0</ele><time>2026-04-04T09:19:22Z</time></trkpt><trkpt lat="44.427333952181385" lon="10.112294779984218"><ele>1137.0</ele><time>2026-04-04T09:19:23Z</time></trkpt><trkpt lat="44.427238450271105" lon="10.112138258121378"><ele>1136.0</ele><time>2026-04-04T09:19:24Z</time></trkpt><trkpt lat="44.4271612740529" lon="10.111951068951115"><ele>1135.0</ele><time>2026-04-04T09:19:25Z</time></trkpt><trkpt lat="44.427064769050055" lon="10.111773620512048"><ele>1135.0</ele><time>2026-04-04T09:19:26Z</time></trkpt><trkpt lat="44.42697536843993" lon="10.11158198731853"><ele>1135.0</ele><time>2026-04-04T09:19:27Z</time></trkpt><trkpt lat="44.42688652881196" lon="10.111386204906141"><ele>1135.0</ele><time>2026-04-04T09:19:28Z</time></trkpt><trkpt lat="44.42680400550779" lon="10.111192478005844"><ele>1131.6666666666665</ele><time>2026-04-04T09:19:29Z</time></trkpt><trkpt lat="44.42672591773695" lon="10.111010021462983"><ele>1128.3333333333333</ele><time>2026-04-04T09:19:30Z</time></trkpt><trkpt lat="44.426663218573516" lon="10.110815072219783"><ele>1125.0</ele><time>2026-04-04T09:19:31Z</time></trkpt><trkpt lat="44.42661557617161" lon="10.110622107816939"><ele>1121.75</ele><time>2026-04-04T09:19:32Z</time></trkpt><trkpt lat="44.42656708276702" lon="10.110430369271416"><ele>1118.5</ele><time>2026-04-04T09:19:33Z</time></trkpt><trkpt lat="44.4264950721728" lon="10.110264494776867"><ele>1115.25</ele><time>2026-04-04T09:19:34Z</time></trkpt><trkpt lat="44.42641011535533" lon="10.11011408778955"><ele>1112.0</ele><time>2026-04-04T09:19:35Z</time></trkpt><trkpt lat="44.426341714087755" lon="10.109963633675708"><ele>1114.2</ele><time>2026-04-04T09:19:36Z</time></trkpt><trkpt lat="44.42629936704609" lon="10.109803526886799"><ele>1116.4</ele><time>2026-04-04T09:19:37Z</time></trkpt><trkpt lat="44.426287241865325" lon="10.109647573919542"><ele>1118.6</ele><time>2026-04-04T09:19:38Z</time></trkpt><trkpt lat="44.426288043706556" lon="10.109509470319356"><ele>1120.8</ele><time>2026-04-04T09:19:39Z</time></trkpt><trkpt lat="44.42628325496746" lon="10.109398602785687"><ele>1123.0</ele><time>2026-04-04T09:19:40Z</time></trkpt><trkpt lat="44.426297452859444" lon="10.10929743616059"><ele>1119.2</ele><time>2026-04-04T09:19:41Z</time></trkpt><trkpt lat="44.42632828625315" lon="10.109199818354313"><ele>1115.4</ele><time>2026-04-04T09:19:42Z</time></trkpt><trkpt lat="44.42641159194251" lon="10.109130262110739"><ele>1111.6000000000001</ele><time>2026-04-04T09:19:43Z</time></trkpt><trkpt lat="44.42652525424908" lon="10.109122512353897"><ele>1107.8</ele><time>2026-04-04T09:19:44Z</time></trkpt><trkpt lat="44.426608722950384" lon="10.109228291665291"><ele>1104.0</ele><time>2026-04-04T09:19:45Z</time></trkpt><trkpt lat="44.426670355219876" lon="10.10936984109809"><ele>1104.0</ele><time>2026-04-04T09:19:46Z</time></trkpt><trkpt lat="44.42675852584481" lon="10.109497642096137"><ele>1104.0</ele><time>2026-04-04T09:19:47Z</time></trkpt><trkpt lat="44.42684325956332" lon="10.109610571003289"><ele>1104.0</ele><time>2026-04-04T09:19:48Z</time></trkpt><trkpt lat="44.426966491547674" lon="10.10968661819773"><ele>1104.0</ele><time>2026-04-04T09:19:49Z</time></trkpt><trkpt lat="44.42709188009369" lon="10.109695317615099"><ele>1101.4</ele><time>2026-04-04T09:19:50Z</time></trkpt><trkpt lat="44.42719354639289" lon="10.10971658092856"><ele>1098.8000000000002</ele><time>2026-04-04T09:19:51Z</time></trkpt><trkpt lat="44.42727760804716" lon="10.10963171083113"><ele>1096.1999999999998</ele><time>2026-04-04T09:19:52Z</time></trkpt><trkpt lat="44.427347054843914" lon="10.109522723866556"><ele>1093.6</ele><time>2026-04-04T09:19:53Z</time></trkpt><trkpt lat="44.42739829232933" lon="10.109362103768335"><ele>1091.0</ele><time>2026-04-04T09:19:54Z</time></trkpt><trkpt lat="44.42744390807517" lon="10.10918544872316"><ele>1088.75</ele><time>2026-04-04T09:19:55Z</time></trkpt><trkpt lat="44.427439075202024" lon="10.109019223207266"><ele>1086.5</ele><time>2026-04-04T09:19:56Z</time></trkpt><trkpt lat="44.42739089671452" lon="10.10888250413035"><ele>1084.25</ele><time>2026-04-04T09:19:57Z</time></trkpt><trkpt lat="44.4273260907917" lon="10.108622381100936"><ele>1082.0</ele><time>2026-04-04T09:19:58Z</time></trkpt><trkpt lat="44.42728667575232" lon="10.1084037587472"><ele>1077.6666666666667</ele><time>2026-04-04T09:19:59Z</time></trkpt><trkpt lat="44.42723706271445" lon="10.108195365970369"><ele>1073.3333333333333</ele><time>2026-04-04T09:20:00Z</time></trkpt><trkpt lat="44.427183610040935" lon="10.108005379682023"><ele>1069.0</ele><time>2026-04-04T09:20:01Z</time></trkpt><trkpt lat="44.42714571715928" lon="10.107800597367627"><ele>1066.0</ele><time>2026-04-04T09:20:02Z</time></trkpt><trkpt lat="44.42713592684025" lon="10.107588774598037"><ele>1063.0</ele><time>2026-04-04T09:20:03Z</time></trkpt><trkpt lat="44.42714849731436" lon="10.107376063151348"><ele>1060.0</ele><time>2026-04-04T09:20:03.999Z</time></trkpt><trkpt lat="44.42717679886524" lon="10.107151844258565"><ele>1060.0</ele><time>2026-04-04T09:20:04.999Z</time></trkpt><trkpt lat="44.42719687589309" lon="10.106921387909836"><ele>1060.0</ele><time>2026-04-04T09:20:05.999Z</time></trkpt><trkpt lat="44.42720371971051" lon="10.1066959662603"><ele>1060.0</ele><time>2026-04-04T09:20:06.999Z</time></trkpt><trkpt lat="44.42720720634481" lon="10.106479673089538"><ele>1058.5</ele><time>2026-04-04T09:20:07.999Z</time></trkpt><trkpt lat="44.42721976722208" lon="10.106274178845249"><ele>1057.0</ele><time>2026-04-04T09:20:08.999Z</time></trkpt><trkpt lat="44.42724345652814" lon="10.106076941377536"><ele>1055.5</ele><time>2026-04-04T09:20:09.999Z</time></trkpt><trkpt lat="44.427290163249765" lon="10.105913545025274"><ele>1054.0</ele><time>2026-04-04T09:20:10.999Z</time></trkpt><trkpt lat="44.4273704435542" lon="10.105775241300972"><ele>1051.6000000000001</ele><time>2026-04-04T09:20:11.999Z</time></trkpt><trkpt lat="44.42746619623133" lon="10.105665727847736"><ele>1049.2</ele><time>2026-04-04T09:20:12.999Z</time></trkpt><trkpt lat="44.42756201308628" lon="10.105550101474746"><ele>1046.8000000000002</ele><time>2026-04-04T09:20:13.999Z</time></trkpt><trkpt lat="44.427636055366925" lon="10.10543565579332"><ele>1044.4</ele><time>2026-04-04T09:20:14.999Z</time></trkpt><trkpt lat="44.42769167768727" lon="10.105339481797785"><ele>1042.0</ele><time>2026-04-04T09:20:15.999Z</time></trkpt><trkpt lat="44.42772519975045" lon="10.105202646123061"><ele>1042.0</ele><time>2026-04-04T09:20:17.999Z</time></trkpt><trkpt lat="44.42767147587188" lon="10.105077052330087"><ele>1042.0</ele><time>2026-04-04T09:20:19.999Z</time></trkpt><trkpt lat="44.4276082632454" lon="10.105060904946061"><ele>1042.0</ele><time>2026-04-04T09:20:21.999Z</time></trkpt><trkpt lat="44.42749488491384" lon="10.105043873922483"><ele>1042.0</ele><time>2026-04-04T09:20:23.999Z</time></trkpt><trkpt lat="44.42740202349068" lon="10.105078031251681"><ele>1042.0</ele><time>2026-04-04T09:20:24.999Z</time></trkpt><trkpt lat="44.427299262640275" lon="10.105128329298761"><ele>1042.0</ele><time>2026-04-04T09:20:25.999Z</time></trkpt><trkpt lat="44.42718868074854" lon="10.105182696841382"><ele>1042.0</ele><time>2026-04-04T09:20:26.999Z</time></trkpt><trkpt lat="44.427080049676434" lon="10.10523507993601"><ele>1042.0</ele><time>2026-04-04T09:20:27.999Z</time></trkpt><trkpt lat="44.426963045169764" lon="10.105283174785713"><ele>1042.0</ele><time>2026-04-04T09:20:28.999Z</time></trkpt><trkpt lat="44.42684365617208" lon="10.105320059836341"><ele>1042.6</ele><time>2026-04-04T09:20:29.999Z</time></trkpt><trkpt lat="44.426729209647334" lon="10.105343972924073"><ele>1043.2</ele><time>2026-04-04T09:20:30.999Z</time></trkpt><trkpt lat="44.42661298446611" lon="10.105366643713099"><ele>1043.8</ele><time>2026-04-04T09:20:31.999Z</time></trkpt><trkpt lat="44.426513069936426" lon="10.105376574435347"><ele>1044.4</ele><time>2026-04-04T09:20:32.999Z</time></trkpt><trkpt lat="44.42643844845486" lon="10.10536046859965"><ele>1045.0</ele><time>2026-04-04T09:20:33.999Z</time></trkpt><trkpt lat="44.42637026163889" lon="10.105288436000361"><ele>1045.0</ele><time>2026-04-04T09:20:34.999Z</time></trkpt><trkpt lat="44.42631211451654" lon="10.105153210354125"><ele>1045.0</ele><time>2026-04-04T09:20:35.999Z</time></trkpt><trkpt lat="44.42629348287722" lon="10.104952646190982"><ele>1045.0</ele><time>2026-04-04T09:20:36.999Z</time></trkpt><trkpt lat="44.42629066226812" lon="10.104744713578773"><ele>1045.0</ele><time>2026-04-04T09:20:37.999Z</time></trkpt><trkpt lat="44.42627035452328" lon="10.104547957650505"><ele>1047.5</ele><time>2026-04-04T09:20:38.999Z</time></trkpt><trkpt lat="44.426243346170985" lon="10.104362729247269"><ele>1050.0</ele><time>2026-04-04T09:20:39.999Z</time></trkpt><trkpt lat="44.4262315772542" lon="10.104176614268933"><ele>1052.5</ele><time>2026-04-04T09:20:40.999Z</time></trkpt><trkpt lat="44.42624915676353" lon="10.103970311238463"><ele>1055.0</ele><time>2026-04-04T09:20:41.999Z</time></trkpt><trkpt lat="44.42629160248836" lon="10.103759597131576"><ele>1049.75</ele><time>2026-04-04T09:20:42.999Z</time></trkpt><trkpt lat="44.42634197633838" lon="10.103554846063885"><ele>1044.5</ele><time>2026-04-04T09:20:43.999Z</time></trkpt><trkpt lat="44.42639318912929" lon="10.103363362078918"><ele>1039.25</ele><time>2026-04-04T09:20:44.999Z</time></trkpt><trkpt lat="44.42644652082944" lon="10.103187330796091"><ele>1034.0</ele><time>2026-04-04T09:20:45.999Z</time></trkpt><trkpt lat="44.42650237859629" lon="10.103032900132913"><ele>1034.0</ele><time>2026-04-04T09:20:46.999Z</time></trkpt><trkpt lat="44.42656607424755" lon="10.102886609567085"><ele>1034.0</ele><time>2026-04-04T09:20:47.999Z</time></trkpt><trkpt lat="44.42664131488707" lon="10.102742343721332"><ele>1034.0</ele><time>2026-04-04T09:20:48.999Z</time></trkpt><trkpt lat="44.42671914513237" lon="10.102589745257417"><ele>1034.0</ele><time>2026-04-04T09:20:49.999Z</time></trkpt><trkpt lat="44.426792497407185" lon="10.102342978950517"><ele>1033.0</ele><time>2026-04-04T09:20:50.999Z</time></trkpt><trkpt lat="44.42685144362294" lon="10.10213024198626"><ele>1032.0</ele><time>2026-04-04T09:20:52.999Z</time></trkpt><trkpt lat="44.42687203524345" lon="10.101983930316845"><ele>1031.0</ele><time>2026-04-04T09:20:53.999Z</time></trkpt><trkpt lat="44.42686847106534" lon="10.101832148660327"><ele>1030.0</ele><time>2026-04-04T09:20:54.999Z</time></trkpt><trkpt lat="44.42684042985789" lon="10.101655365835043"><ele>1026.25</ele><time>2026-04-04T09:20:55.999Z</time></trkpt><trkpt lat="44.426790612481724" lon="10.101471288855087"><ele>1022.5</ele><time>2026-04-04T09:20:56.999Z</time></trkpt><trkpt lat="44.42673501333523" lon="10.101287939106912"><ele>1018.75</ele><time>2026-04-04T09:20:57.999Z</time></trkpt><trkpt lat="44.42666935755918" lon="10.101108368991474"><ele>1015.0</ele><time>2026-04-04T09:20:58.999Z</time></trkpt><trkpt lat="44.426564813366056" lon="10.10095841868336"><ele>1015.0</ele><time>2026-04-04T09:21:00Z</time></trkpt><trkpt lat="44.42645670195126" lon="10.100820612167077"><ele>1015.0</ele><time>2026-04-04T09:21:01Z</time></trkpt><trkpt lat="44.42635994912483" lon="10.100699645122612"><ele>1015.0</ele><time>2026-04-04T09:21:02Z</time></trkpt><trkpt lat="44.42627427034454" lon="10.100595954440019"><ele>1015.0</ele><time>2026-04-04T09:21:03Z</time></trkpt><trkpt lat="44.42620700194596" lon="10.100515776376636"><ele>1014.0</ele><time>2026-04-04T09:21:04Z</time></trkpt><trkpt lat="44.426100789907586" lon="10.100459398862997"><ele>1013.0</ele><time>2026-04-04T09:21:06Z</time></trkpt><trkpt lat="44.425968673377106" lon="10.100396732789656"><ele>1012.0</ele><time>2026-04-04T09:21:08Z</time></trkpt><trkpt lat="44.425895523605405" lon="10.100348234472872"><ele>1011.0</ele><time>2026-04-04T09:21:09Z</time></trkpt><trkpt lat="44.42584819967467" lon="10.100258729715147"><ele>1010.0</ele><time>2026-04-04T09:21:10Z</time></trkpt><trkpt lat="44.425811804210504" lon="10.100166764358038"><ele>1010.0</ele><time>2026-04-04T09:21:11Z</time></trkpt><trkpt lat="44.42576689437928" lon="10.10008355036024"><ele>1009.9999999999999</ele><time>2026-04-04T09:21:12Z</time></trkpt><trkpt lat="44.425740002378" lon="10.100001382173604"><ele>1010.0</ele><time>2026-04-04T09:21:13Z</time></trkpt><trkpt lat="44.425702104465984" lon="10.099921898596259"><ele>1010.0</ele><time>2026-04-04T09:21:14Z</time></trkpt><trkpt lat="44.42565946178416" lon="10.099847169669129"><ele>1009.9999999999999</ele><time>2026-04-04T09:21:15Z</time></trkpt><trkpt lat="44.425599907335304" lon="10.099763435753001"><ele>1010.0</ele><time>2026-04-04T09:21:16Z</time></trkpt><trkpt lat="44.42553195591339" lon="10.099697158785931"><ele>1010.0</ele><time>2026-04-04T09:21:17Z</time></trkpt><trkpt lat="44.42543356188411" lon="10.099690294059336"><ele>1007.0</ele><time>2026-04-04T09:21:18Z</time></trkpt><trkpt lat="44.425317303739966" lon="10.099659408527156"><ele>1004.0</ele><time>2026-04-04T09:21:19Z</time></trkpt><trkpt lat="44.42517621924556" lon="10.099646343013406"><ele>1001.0</ele><time>2026-04-04T09:21:20Z</time></trkpt><trkpt lat="44.425035634695824" lon="10.099629888694016"><ele>998.0</ele><time>2026-04-04T09:21:21Z</time></trkpt><trkpt lat="44.424915617866766" lon="10.099609430334334"><ele>998.0</ele><time>2026-04-04T09:21:22Z</time></trkpt><trkpt lat="44.4248184808788" lon="10.099468573541348"><ele>998.0</ele><time>2026-04-04T09:21:23Z</time></trkpt><trkpt lat="44.42472451661438" lon="10.099320474899073"><ele>998.0</ele><time>2026-04-04T09:21:24Z</time></trkpt><trkpt lat="44.42461502960824" lon="10.099179535484312"><ele>998.0</ele><time>2026-04-04T09:21:25Z</time></trkpt><trkpt lat="44.42452935448665" lon="10.099019749672633"><ele>998.25</ele><time>2026-04-04T09:21:26Z</time></trkpt><trkpt lat="44.4244473760024" lon="10.098890438562382"><ele>998.5</ele><time>2026-04-04T09:21:27Z</time></trkpt><trkpt lat="44.424372655524365" lon="10.098799757489548"><ele>998.75</ele><time>2026-04-04T09:21:28Z</time></trkpt><trkpt lat="44.42427724354998" lon="10.098758737737134"><ele>999.0</ele><time>2026-04-04T09:21:29Z</time></trkpt><trkpt lat="44.42414851067088" lon="10.098711652680601"><ele>999.0</ele><time>2026-04-04T09:21:30Z</time></trkpt><trkpt lat="44.42402758292666" lon="10.098647598871944"><ele>999.0000000000001</ele><time>2026-04-04T09:21:31Z</time></trkpt><trkpt lat="44.42393603605318" lon="10.098563116248275"><ele>999.0000000000001</ele><time>2026-04-04T09:21:32Z</time></trkpt><trkpt lat="44.423861820858335" lon="10.098464062556523"><ele>999.0</ele><time>2026-04-04T09:21:33Z</time></trkpt><trkpt lat="44.42380979185837" lon="10.09834230465876"><ele>999.0</ele><time>2026-04-04T09:21:34Z</time></trkpt><trkpt lat="44.42378038631471" lon="10.098175610366795"><ele>1003.75</ele><time>2026-04-04T09:21:35Z</time></trkpt><trkpt lat="44.423764649687435" lon="10.09797969882447"><ele>1008.5</ele><time>2026-04-04T09:21:36Z</time></trkpt><trkpt lat="44.42374840539601" lon="10.097791203755133"><ele>1013.25</ele><time>2026-04-04T09:21:37Z</time></trkpt><trkpt lat="44.42372906699073" lon="10.097609701000913"><ele>1018.0</ele><time>2026-04-04T09:21:38Z</time></trkpt><trkpt lat="44.4237121144044" lon="10.097417668835526"><ele>1018.25</ele><time>2026-04-04T09:21:39Z</time></trkpt><trkpt lat="44.42370256400283" lon="10.097218154165164"><ele>1018.5</ele><time>2026-04-04T09:21:40Z</time></trkpt><trkpt lat="44.42370097219633" lon="10.097020094365943"><ele>1018.75</ele><time>2026-04-04T09:21:41Z</time></trkpt><trkpt lat="44.42370595125749" lon="10.096833902906557"><ele>1019.0</ele><time>2026-04-04T09:21:42Z</time></trkpt><trkpt lat="44.423712471716826" lon="10.096654093571937"><ele>1017.5</ele><time>2026-04-04T09:21:43Z</time></trkpt><trkpt lat="44.423718570651936" lon="10.096474518218532"><ele>1016.0</ele><time>2026-04-04T09:21:44Z</time></trkpt><trkpt lat="44.42372282798521" lon="10.096294005734213"><ele>1014.5</ele><time>2026-04-04T09:21:45Z</time></trkpt><trkpt lat="44.423722137456615" lon="10.096120574221446"><ele>1013.0</ele><time>2026-04-04T09:21:46Z</time></trkpt><trkpt lat="44.423726691236325" lon="10.09593054425486"><ele>1013.25</ele><time>2026-04-04T09:21:47Z</time></trkpt><trkpt lat="44.42373716751573" lon="10.095707400875062"><ele>1013.5</ele><time>2026-04-04T09:21:48Z</time></trkpt><trkpt lat="44.423760626348596" lon="10.095586926254866"><ele>1013.75</ele><time>2026-04-04T09:21:49Z</time></trkpt><trkpt lat="44.423773965314425" lon="10.095413120059934"><ele>1014.0</ele><time>2026-04-04T09:21:50Z</time></trkpt><trkpt lat="44.423770279182875" lon="10.095232397831591"><ele>1014.0</ele><time>2026-04-04T09:21:51Z</time></trkpt><trkpt lat="44.42374406561093" lon="10.095053357955283"><ele>1014.0</ele><time>2026-04-04T09:21:52Z</time></trkpt><trkpt lat="44.42369120574852" lon="10.09487878151985"><ele>1014.0</ele><time>2026-04-04T09:21:53Z</time></trkpt><trkpt lat="44.42362400689654" lon="10.094702670512135"><ele>1014.0</ele><time>2026-04-04T09:21:54Z</time></trkpt><trkpt lat="44.42355789732486" lon="10.09452870168894"><ele>1012.5</ele><time>2026-04-04T09:21:55Z</time></trkpt><trkpt lat="44.42350500999435" lon="10.09433887185814"><ele>1011.0</ele><time>2026-04-04T09:21:56Z</time></trkpt><trkpt lat="44.4234806410155" lon="10.094154777793404"><ele>1009.5</ele><time>2026-04-04T09:21:57Z</time></trkpt><trkpt lat="44.423454912029904" lon="10.093987979681742"><ele>1008.0</ele><time>2026-04-04T09:21:58Z</time></trkpt><trkpt lat="44.42341977613879" lon="10.09383959516052"><ele>1005.2</ele><time>2026-04-04T09:21:59Z</time></trkpt><trkpt lat="44.42337111846586" lon="10.093714710753193"><ele>1002.4</ele><time>2026-04-04T09:22:00Z</time></trkpt><trkpt lat="44.423304390376714" lon="10.09363273638209"><ele>999.6000000000001</ele><time>2026-04-04T09:22:01Z</time></trkpt><trkpt lat="44.42320505645122" lon="10.093597826622663"><ele>996.8000000000001</ele><time>2026-04-04T09:22:02Z</time></trkpt><trkpt lat="44.42308556006726" lon="10.09359081857921"><ele>994.0</ele><time>2026-04-04T09:22:03Z</time></trkpt><trkpt lat="44.4229344453529" lon="10.093606390483398"><ele>994.0</ele><time>2026-04-04T09:22:04Z</time></trkpt><trkpt lat="44.42277018658749" lon="10.093605035273777"><ele>994.0</ele><time>2026-04-04T09:22:05Z</time></trkpt><trkpt lat="44.42259893210134" lon="10.093635781169153"><ele>994.0</ele><time>2026-04-04T09:22:06Z</time></trkpt><trkpt lat="44.42243033781364" lon="10.093679897025208"><ele>994.0</ele><time>2026-04-04T09:22:07Z</time></trkpt><trkpt lat="44.42226389399214" lon="10.093718900335881"><ele>994.0</ele><time>2026-04-04T09:22:08Z</time></trkpt><trkpt lat="44.42209729365748" lon="10.093720284887159"><ele>994.0</ele><time>2026-04-04T09:22:08.999Z</time></trkpt><trkpt lat="44.42193750013467" lon="10.093684109279769"><ele>993.75</ele><time>2026-04-04T09:22:09.999Z</time></trkpt><trkpt lat="44.42179115226129" lon="10.093689317341703"><ele>993.5</ele><time>2026-04-04T09:22:10.999Z</time></trkpt><trkpt lat="44.42167318173843" lon="10.093705658377097"><ele>993.25</ele><time>2026-04-04T09:22:11.999Z</time></trkpt><trkpt lat="44.421542568049716" lon="10.093788803614837"><ele>993.0</ele><time>2026-04-04T09:22:12.999Z</time></trkpt><trkpt lat="44.42140874239218" lon="10.093928535964949"><ele>995.0</ele><time>2026-04-04T09:22:13.999Z</time></trkpt><trkpt lat="44.42126169220015" lon="10.094076136160496"><ele>997.0</ele><time>2026-04-04T09:22:14.999Z</time></trkpt><trkpt lat="44.42111658212247" lon="10.094209556056233"><ele>999.0</ele><time>2026-04-04T09:22:15.999Z</time></trkpt><trkpt lat="44.42098681659969" lon="10.094263826240335"><ele>999.0</ele><time>2026-04-04T09:22:16.999Z</time></trkpt><trkpt lat="44.42081317298677" lon="10.094297038680558"><ele>999.0</ele><time>2026-04-04T09:22:17.999Z</time></trkpt><trkpt lat="44.42062590385085" lon="10.09432118026035"><ele>999.0</ele><time>2026-04-04T09:22:18.999Z</time></trkpt><trkpt lat="44.42044846546" lon="10.09435710293769"><ele>998.0</ele><time>2026-04-04T09:22:19.999Z</time></trkpt><trkpt lat="44.42030724132429" lon="10.094444048363618"><ele>997.0</ele><time>2026-04-04T09:22:20.999Z</time></trkpt><trkpt lat="44.42014585644037" lon="10.09451072202139"><ele>996.0</ele><time>2026-04-04T09:22:21.999Z</time></trkpt><trkpt lat="44.4199936348579" lon="10.09459398927688"><ele>996.0</ele><time>2026-04-04T09:22:22.999Z</time></trkpt><trkpt lat="44.4198654348929" lon="10.094642954382387"><ele>996.0</ele><time>2026-04-04T09:22:23.999Z</time></trkpt><trkpt lat="44.41977189294381" lon="10.09466287439093"><ele>996.0</ele><time>2026-04-04T09:22:24.999Z</time></trkpt><trkpt lat="44.419619611935204" lon="10.094634723345786"><ele>996.0</ele><time>2026-04-04T09:22:25.999Z</time></trkpt><trkpt lat="44.41952571144704" lon="10.094543677751926"><ele>999.6666666666667</ele><time>2026-04-04T09:22:26.999Z</time></trkpt><trkpt lat="44.41941500229106" lon="10.094450550745082"><ele>1003.3333333333334</ele><time>2026-04-04T09:22:27.999Z</time></trkpt><trkpt lat="44.419293351143054" lon="10.094307754918068"><ele>1007.0</ele><time>2026-04-04T09:22:28.999Z</time></trkpt><trkpt lat="44.419157027740205" lon="10.094181371469002"><ele>1006.0</ele><time>2026-04-04T09:22:29.999Z</time></trkpt><trkpt lat="44.41902467533306" lon="10.094077282813323"><ele>1005.0</ele><time>2026-04-04T09:22:30.999Z</time></trkpt><trkpt lat="44.41890351082475" lon="10.09398640667571"><ele>1004.0</ele><time>2026-04-04T09:22:31.999Z</time></trkpt><trkpt lat="44.41879223080692" lon="10.093913184473115"><ele>1003.0</ele><time>2026-04-04T09:22:32.999Z</time></trkpt><trkpt lat="44.41870490572577" lon="10.09382980467851"><ele>1006.0</ele><time>2026-04-04T09:22:33.999Z</time></trkpt><trkpt lat="44.418653712242076" lon="10.093738092036817"><ele>1009.0</ele><time>2026-04-04T09:22:34.999Z</time></trkpt><trkpt lat="44.418629983644166" lon="10.093624162103337"><ele>1012.0</ele><time>2026-04-04T09:22:35.999Z</time></trkpt><trkpt lat="44.41862447513616" lon="10.093483010707473"><ele>1015.0</ele><time>2026-04-04T09:22:36.999Z</time></trkpt><trkpt lat="44.41864556283145" lon="10.093317576359153"><ele>1018.0</ele><time>2026-04-04T09:22:37.999Z</time></trkpt><trkpt lat="44.41866795530458" lon="10.093162702367163"><ele>1018.0</ele><time>2026-04-04T09:22:38.999Z</time></trkpt><trkpt lat="44.418684064416375" lon="10.093031446986382"><ele>1018.0</ele><time>2026-04-04T09:22:39.999Z</time></trkpt><trkpt lat="44.41869789366941" lon="10.092905113258338"><ele>1018.0</ele><time>2026-04-04T09:22:40.999Z</time></trkpt><trkpt lat="44.41873207358571" lon="10.092784155671811"><ele>1018.0</ele><time>2026-04-04T09:22:41.999Z</time></trkpt><trkpt lat="44.418790545152255" lon="10.092692322967302"><ele>1018.0</ele><time>2026-04-04T09:22:42.999Z</time></trkpt><trkpt lat="44.418868343220765" lon="10.092652221657591"><ele>1017.0</ele><time>2026-04-04T09:22:43.999Z</time></trkpt><trkpt lat="44.418953785728775" lon="10.092655164722295"><ele>1016.0</ele><time>2026-04-04T09:22:44.999Z</time></trkpt><trkpt lat="44.41904126133833" lon="10.092709422559878"><ele>1015.0</ele><time>2026-04-04T09:22:45.999Z</time></trkpt><trkpt lat="44.4191318113132" lon="10.092804378514627"><ele>1014.0</ele><time>2026-04-04T09:22:46.999Z</time></trkpt><trkpt lat="44.41922962863525" lon="10.092866344512233"><ele>1013.0</ele><time>2026-04-04T09:22:47.999Z</time></trkpt><trkpt lat="44.41932463542787" lon="10.092857268882403"><ele>1013.0</ele><time>2026-04-04T09:22:48.999Z</time></trkpt><trkpt lat="44.419424714794324" lon="10.092792508790518"><ele>1013.0</ele><time>2026-04-04T09:22:49.999Z</time></trkpt><trkpt lat="44.41952113011671" lon="10.092700397033132"><ele>1013.0</ele><time>2026-04-04T09:22:50.999Z</time></trkpt><trkpt lat="44.419581761354564" lon="10.0925707267814"><ele>1013.0</ele><time>2026-04-04T09:22:51.999Z</time></trkpt><trkpt lat="44.41964208251379" lon="10.092457647763032"><ele>1013.0</ele><time>2026-04-04T09:22:52.999Z</time></trkpt><trkpt lat="44.41964935293893" lon="10.092311809147471"><ele>1014.0</ele><time>2026-04-04T09:22:53.999Z</time></trkpt><trkpt lat="44.41964153167251" lon="10.092159171949199"><ele>1015.0</ele><time>2026-04-04T09:22:54.999Z</time></trkpt><trkpt lat="44.41963507264083" lon="10.092017937324574"><ele>1016.0</ele><time>2026-04-04T09:22:55.999Z</time></trkpt><trkpt lat="44.41964095810536" lon="10.091879610146899"><ele>1017.0</ele><time>2026-04-04T09:22:56.999Z</time></trkpt><trkpt lat="44.41965399790234" lon="10.091713755916096"><ele>1018.0</ele><time>2026-04-04T09:22:57.999Z</time></trkpt><trkpt lat="44.419679522198756" lon="10.09154920426585"><ele>1018.0</ele><time>2026-04-04T09:22:58.999Z</time></trkpt><trkpt lat="44.419716770816535" lon="10.09139499094808"><ele>1018.0</ele><time>2026-04-04T09:22:59.999Z</time></trkpt><trkpt lat="44.41978158079091" lon="10.091253366105736"><ele>1018.0</ele><time>2026-04-04T09:23:00.999Z</time></trkpt><trkpt lat="44.41986632856226" lon="10.091118194147295"><ele>1018.0</ele><time>2026-04-04T09:23:01.999Z</time></trkpt><trkpt lat="44.41997098144767" lon="10.091010635490797"><ele>1018.0</ele><time>2026-04-04T09:23:02.999Z</time></trkpt><trkpt lat="44.42009394308754" lon="10.09093549996456"><ele>1018.0</ele><time>2026-04-04T09:23:03.999Z</time></trkpt><trkpt lat="44.420206321952676" lon="10.090908755914317"><ele>1018.0</ele><time>2026-04-04T09:23:04.999Z</time></trkpt><trkpt lat="44.420304991921476" lon="10.090894226904203"><ele>1018.0</ele><time>2026-04-04T09:23:06Z</time></trkpt><trkpt lat="44.420389060811196" lon="10.090892376275486"><ele>1018.0</ele><time>2026-04-04T09:23:07Z</time></trkpt><trkpt lat="44.42046733591028" lon="10.090903745496805"><ele>1017.2857142857142</ele><time>2026-04-04T09:23:08Z</time></trkpt><trkpt lat="44.42054741026659" lon="10.090915968183133"><ele>1016.5714285714286</ele><time>2026-04-04T09:23:09Z</time></trkpt><trkpt lat="44.42062096894792" lon="10.090915533761274"><ele>1015.8571428571429</ele><time>2026-04-04T09:23:10Z</time></trkpt><trkpt lat="44.420687410729684" lon="10.09091256983726"><ele>1015.1428571428571</ele><time>2026-04-04T09:23:11Z</time></trkpt><trkpt lat="44.420754158132766" lon="10.090905354990465"><ele>1014.4285714285716</ele><time>2026-04-04T09:23:12Z</time></trkpt><trkpt lat="44.420826517289136" lon="10.090899198431025"><ele>1013.7142857142858</ele><time>2026-04-04T09:23:13Z</time></trkpt><trkpt lat="44.42090762390618" lon="10.090877740952642"><ele>1013.0</ele><time>2026-04-04T09:23:14Z</time></trkpt><trkpt lat="44.42099547418292" lon="10.090824483133911"><ele>1013.0</ele><time>2026-04-04T09:23:15Z</time></trkpt><trkpt lat="44.42109209899064" lon="10.09076085885033"><ele>1013.0</ele><time>2026-04-04T09:23:16Z</time></trkpt><trkpt lat="44.42119925044096" lon="10.090682177394983"><ele>1013.0</ele><time>2026-04-04T09:23:17Z</time></trkpt><trkpt lat="44.421316821374084" lon="10.090601499160362"><ele>1013.0</ele><time>2026-04-04T09:23:18Z</time></trkpt><trkpt lat="44.42142855231711" lon="10.090517500790577"><ele>1012.4</ele><time>2026-04-04T09:23:19Z</time></trkpt><trkpt lat="44.42152309946849" lon="10.090429710840954"><ele>1011.8</ele><time>2026-04-04T09:23:20Z</time></trkpt><trkpt lat="44.42159757961481" lon="10.090332392630017"><ele>1011.2</ele><time>2026-04-04T09:23:21Z</time></trkpt><trkpt lat="44.421630867925046" lon="10.090215745606148"><ele>1010.6</ele><time>2026-04-04T09:23:22Z</time></trkpt><trkpt lat="44.421629055613536" lon="10.090074288383658"><ele>1010.0</ele><time>2026-04-04T09:23:23Z</time></trkpt><trkpt lat="44.42159013187615" lon="10.089912357944112"><ele>1010.0</ele><time>2026-04-04T09:23:24Z</time></trkpt><trkpt lat="44.42153013468629" lon="10.089740707195372"><ele>1010.0</ele><time>2026-04-04T09:23:25Z</time></trkpt><trkpt lat="44.42146221653998" lon="10.089576451230458"><ele>1010.0</ele><time>2026-04-04T09:23:26Z</time></trkpt><trkpt lat="44.42143653302656" lon="10.089391137919742"><ele>1010.0</ele><time>2026-04-04T09:23:27Z</time></trkpt><trkpt lat="44.421440672121285" lon="10.089209746010276"><ele>1013.5</ele><time>2026-04-04T09:23:28Z</time></trkpt><trkpt lat="44.42147538596708" lon="10.089049472844286"><ele>1017.0</ele><time>2026-04-04T09:23:29Z</time></trkpt><trkpt lat="44.42151605652165" lon="10.088896486947425"><ele>1020.5</ele><time>2026-04-04T09:23:30Z</time></trkpt><trkpt lat="44.421553623259705" lon="10.088729008097047"><ele>1024.0</ele><time>2026-04-04T09:23:31Z</time></trkpt><trkpt lat="44.42157096004157" lon="10.088563285918642"><ele>1024.0</ele><time>2026-04-04T09:23:32Z</time></trkpt><trkpt lat="44.42158610577437" lon="10.088422054186672"><ele>1024.0</ele><time>2026-04-04T09:23:33Z</time></trkpt><trkpt lat="44.42162537507074" lon="10.088302389141706"><ele>1024.0</ele><time>2026-04-04T09:23:34Z</time></trkpt><trkpt lat="44.42168710861587" lon="10.088198095428995"><ele>1024.0</ele><time>2026-04-04T09:23:35Z</time></trkpt><trkpt lat="44.42175966126303" lon="10.088105502442385"><ele>1024.0</ele><time>2026-04-04T09:23:36Z</time></trkpt><trkpt lat="44.421867218043474" lon="10.08805799160943"><ele>1029.4</ele><time>2026-04-04T09:23:38Z</time></trkpt><trkpt lat="44.42193249394187" lon="10.088066598550176"><ele>1034.8000000000002</ele><time>2026-04-04T09:23:39Z</time></trkpt><trkpt lat="44.422007675345725" lon="10.088087106238548"><ele>1040.1999999999998</ele><time>2026-04-04T09:23:40Z</time></trkpt><trkpt lat="44.42209295151163" lon="10.088109544983427"><ele>1045.6</ele><time>2026-04-04T09:23:41Z</time></trkpt><trkpt lat="44.42220060744811" lon="10.08814121606446"><ele>1051.0</ele><time>2026-04-04T09:23:42Z</time></trkpt><trkpt lat="44.42231806505849" lon="10.088182478361222"><ele>1044.5</ele><time>2026-04-04T09:23:43Z</time></trkpt><trkpt lat="44.42243841989149" lon="10.088297175742948"><ele>1038.0</ele><time>2026-04-04T09:23:44Z</time></trkpt><trkpt lat="44.42254776802647" lon="10.088422331028562"><ele>1031.5</ele><time>2026-04-04T09:23:45Z</time></trkpt><trkpt lat="44.42265792675106" lon="10.08857347798879"><ele>1025.0</ele><time>2026-04-04T09:23:46Z</time></trkpt><trkpt lat="44.422774300199066" lon="10.088718044857828"><ele>1025.0</ele><time>2026-04-04T09:23:47Z</time></trkpt><trkpt lat="44.42290129584905" lon="10.088843727650001"><ele>1025.0</ele><time>2026-04-04T09:23:48Z</time></trkpt><trkpt lat="44.423037373378634" lon="10.088931036604166"><ele>1025.0</ele><time>2026-04-04T09:23:49Z</time></trkpt><trkpt lat="44.423175848080255" lon="10.08903369782019"><ele>1022.5</ele><time>2026-04-04T09:23:50Z</time></trkpt><trkpt lat="44.423299075421504" lon="10.089163978264047"><ele>1020.0</ele><time>2026-04-04T09:23:51Z</time></trkpt><trkpt lat="44.423426420645676" lon="10.08928606709042"><ele>1017.5</ele><time>2026-04-04T09:23:52Z</time></trkpt><trkpt lat="44.42355070961805" lon="10.089366739812197"><ele>1015.0</ele><time>2026-04-04T09:23:53Z</time></trkpt><trkpt lat="44.42366717099183" lon="10.089436919990016"><ele>1015.0</ele><time>2026-04-04T09:23:54Z</time></trkpt><trkpt lat="44.42375218180385" lon="10.089491388701198"><ele>1015.0</ele><time>2026-04-04T09:23:55Z</time></trkpt><trkpt lat="44.423838526090954" lon="10.089486043923156"><ele>1015.0</ele><time>2026-04-04T09:23:56Z</time></trkpt><trkpt lat="44.42392720579591" lon="10.08945690935326"><ele>1015.0</ele><time>2026-04-04T09:23:57Z</time></trkpt><trkpt lat="44.42403567183939" lon="10.089424796153327"><ele>1015.0</ele><time>2026-04-04T09:23:58Z</time></trkpt><trkpt lat="44.42414093204975" lon="10.08933519281801"><ele>1015.75</ele><time>2026-04-04T09:23:59Z</time></trkpt><trkpt lat="44.424249331344775" lon="10.089243329481937"><ele>1016.5</ele><time>2026-04-04T09:24:00Z</time></trkpt><trkpt lat="44.42434895400436" lon="10.08914977437393"><ele>1017.25</ele><time>2026-04-04T09:24:01Z</time></trkpt><trkpt lat="44.424456729699436" lon="10.089055062620423"><ele>1018.0</ele><time>2026-04-04T09:24:02Z</time></trkpt><trkpt lat="44.42454514824926" lon="10.088978027819712"><ele>1018.6666666666666</ele><time>2026-04-04T09:24:03Z</time></trkpt><trkpt lat="44.42459304697839" lon="10.088884219033496"><ele>1019.3333333333333</ele><time>2026-04-04T09:24:04Z</time></trkpt><trkpt lat="44.42465039779245" lon="10.088810996579832"><ele>1020.0</ele><time>2026-04-04T09:24:05Z</time></trkpt><trkpt lat="44.42466932944301" lon="10.088708274201725"><ele>1020.6666666666667</ele><time>2026-04-04T09:24:06Z</time></trkpt><trkpt lat="44.42466414392133" lon="10.088588447487922"><ele>1021.3333333333334</ele><time>2026-04-04T09:24:07Z</time></trkpt><trkpt lat="44.42466810268483" lon="10.088481304039371"><ele>1022.0</ele><time>2026-04-04T09:24:08Z</time></trkpt><trkpt lat="44.42475473792735" lon="10.088368793627309"><ele>1022.0</ele><time>2026-04-04T09:24:10Z</time></trkpt><trkpt lat="44.42484858350238" lon="10.08834120303538"><ele>1022.0</ele><time>2026-04-04T09:24:11Z</time></trkpt><trkpt lat="44.42493029757387" lon="10.088351075336849"><ele>1022.0</ele><time>2026-04-04T09:24:12Z</time></trkpt><trkpt lat="44.42501424574961" lon="10.08841171945225"><ele>1022.0</ele><time>2026-04-04T09:24:12.999Z</time></trkpt><trkpt lat="44.42507918527515" lon="10.088540589038594"><ele>1022.0</ele><time>2026-04-04T09:24:13.999Z</time></trkpt><trkpt lat="44.42516681573382" lon="10.088658764876827"><ele>1022.0</ele><time>2026-04-04T09:24:14.999Z</time></trkpt><trkpt lat="44.42523434126506" lon="10.088786012261927"><ele>1022.0</ele><time>2026-04-04T09:24:15.999Z</time></trkpt><trkpt lat="44.42530783890213" lon="10.088894038702437"><ele>1022.0</ele><time>2026-04-04T09:24:16.999Z</time></trkpt><trkpt lat="44.42539823618366" lon="10.08897716700122"><ele>1022.0</ele><time>2026-04-04T09:24:17.999Z</time></trkpt><trkpt lat="44.425517157126116" lon="10.089041796849328"><ele>1026.0</ele><time>2026-04-04T09:24:18.999Z</time></trkpt><trkpt lat="44.42564872724737" lon="10.089091289490616"><ele>1030.0</ele><time>2026-04-04T09:24:19.999Z</time></trkpt><trkpt lat="44.42577486477095" lon="10.089142807793435"><ele>1034.0</ele><time>2026-04-04T09:24:20.999Z</time></trkpt><trkpt lat="44.42588829869369" lon="10.08920753926121"><ele>1038.0</ele><time>2026-04-04T09:24:21.999Z</time></trkpt><trkpt lat="44.42598253002729" lon="10.089311681601743"><ele>1033.25</ele><time>2026-04-04T09:24:22.999Z</time></trkpt><trkpt lat="44.426075286824975" lon="10.089434953048269"><ele>1028.5</ele><time>2026-04-04T09:24:23.999Z</time></trkpt><trkpt lat="44.426167667189524" lon="10.089547138567681"><ele>1023.75</ele><time>2026-04-04T09:24:24.999Z</time></trkpt><trkpt lat="44.426262659308726" lon="10.08964311447267"><ele>1019.0</ele><time>2026-04-04T09:24:25.999Z</time></trkpt><trkpt lat="44.42635766053782" lon="10.089725459383235"><ele>1019.0</ele><time>2026-04-04T09:24:26.999Z</time></trkpt><trkpt lat="44.42645021819431" lon="10.089802097323249"><ele>1019.0000000000001</ele><time>2026-04-04T09:24:27.999Z</time></trkpt><trkpt lat="44.42653744914338" lon="10.089880192560686"><ele>1019.0000000000001</ele><time>2026-04-04T09:24:28.999Z</time></trkpt><trkpt lat="44.42663489402886" lon="10.089959470337716"><ele>1019.0</ele><time>2026-04-04T09:24:29.999Z</time></trkpt><trkpt lat="44.42674423424429" lon="10.090006204496682"><ele>1019.0</ele><time>2026-04-04T09:24:30.999Z</time></trkpt><trkpt lat="44.426872421288294" lon="10.09002582536732"><ele>1018.25</ele><time>2026-04-04T09:24:31.999Z</time></trkpt><trkpt lat="44.42699767414011" lon="10.090052921115296"><ele>1017.5</ele><time>2026-04-04T09:24:32.999Z</time></trkpt><trkpt lat="44.42712401247794" lon="10.090120834098453"><ele>1016.75</ele><time>2026-04-04T09:24:33.999Z</time></trkpt><trkpt lat="44.42723983163381" lon="10.090214550751316"><ele>1016.0</ele><time>2026-04-04T09:24:34.999Z</time></trkpt><trkpt lat="44.4273392806947" lon="10.090335437946946"><ele>1016.0</ele><time>2026-04-04T09:24:35.999Z</time></trkpt><trkpt lat="44.42742387737889" lon="10.090484673196027"><ele>1016.0</ele><time>2026-04-04T09:24:36.999Z</time></trkpt><trkpt lat="44.42746058646586" lon="10.090668668939285"><ele>1016.0</ele><time>2026-04-04T09:24:37.999Z</time></trkpt><trkpt lat="44.42752276007788" lon="10.09083078257091"><ele>1016.0</ele><time>2026-04-04T09:24:38.999Z</time></trkpt><trkpt lat="44.42756792568164" lon="10.091001927110614"><ele>1008.0</ele><time>2026-04-04T09:24:39.999Z</time></trkpt><trkpt lat="44.427633194343954" lon="10.09114215041321"><ele>1000.0</ele><time>2026-04-04T09:24:40.999Z</time></trkpt><trkpt lat="44.427719221337476" lon="10.091272285817329"><ele>992.0</ele><time>2026-04-04T09:24:41.999Z</time></trkpt><trkpt lat="44.42780207961215" lon="10.091386752321718"><ele>984.0</ele><time>2026-04-04T09:24:42.999Z</time></trkpt><trkpt lat="44.42787736102751" lon="10.091490410536357"><ele>984.0</ele><time>2026-04-04T09:24:43.999Z</time></trkpt><trkpt lat="44.42794313722412" lon="10.091586526408372"><ele>984.0</ele><time>2026-04-04T09:24:44.999Z</time></trkpt><trkpt lat="44.428002520178396" lon="10.091676563044812"><ele>984.0</ele><time>2026-04-04T09:24:45.999Z</time></trkpt><trkpt lat="44.42804978399104" lon="10.09175037067154"><ele>984.0</ele><time>2026-04-04T09:24:46.999Z</time></trkpt><trkpt lat="44.42810882876655" lon="10.091847108986864"><ele>984.0</ele><time>2026-04-04T09:24:47.999Z</time></trkpt><trkpt lat="44.428164130142214" lon="10.091957115026545"><ele>984.0</ele><time>2026-04-04T09:24:48.999Z</time></trkpt><trkpt lat="44.4282138719944" lon="10.092077766586529"><ele>986.8000000000001</ele><time>2026-04-04T09:24:49.999Z</time></trkpt><trkpt lat="44.42826276532206" lon="10.092189983992105"><ele>989.6000000000001</ele><time>2026-04-04T09:24:50.999Z</time></trkpt><trkpt lat="44.42831497378975" lon="10.092273928480969"><ele>992.4</ele><time>2026-04-04T09:24:51.999Z</time></trkpt><trkpt lat="44.42837740347857" lon="10.092345316899774"><ele>995.2</ele><time>2026-04-04T09:24:52.999Z</time></trkpt><trkpt lat="44.42847143890879" lon="10.092378120085865"><ele>998.0</ele><time>2026-04-04T09:24:53.999Z</time></trkpt><trkpt lat="44.4285852732675" lon="10.092389105442003"><ele>998.0</ele><time>2026-04-04T09:24:54.999Z</time></trkpt><trkpt lat="44.428711302307306" lon="10.092370419318609"><ele>998.0</ele><time>2026-04-04T09:24:55.999Z</time></trkpt><trkpt lat="44.428833771572506" lon="10.092339074449082"><ele>998.0</ele><time>2026-04-04T09:24:56.999Z</time></trkpt><trkpt lat="44.42894397636053" lon="10.092267625457898"><ele>998.0</ele><time>2026-04-04T09:24:57.999Z</time></trkpt><trkpt lat="44.42904491103367" lon="10.092179726607236"><ele>1000.5</ele><time>2026-04-04T09:24:58.999Z</time></trkpt><trkpt lat="44.42915325693884" lon="10.092106233230968"><ele>1003.0</ele><time>2026-04-04T09:24:59.999Z</time></trkpt><trkpt lat="44.42928972215561" lon="10.092070159193021"><ele>1005.5</ele><time>2026-04-04T09:25:00.999Z</time></trkpt><trkpt lat="44.429422152139516" lon="10.092071537793647"><ele>1008.0</ele><time>2026-04-04T09:25:01.999Z</time></trkpt><trkpt lat="44.42954559564706" lon="10.092053575471667"><ele>1004.0</ele><time>2026-04-04T09:25:02.999Z</time></trkpt><trkpt lat="44.42966737365452" lon="10.091989262114767"><ele>1000.0</ele><time>2026-04-04T09:25:03.999Z</time></trkpt><trkpt lat="44.42979026594828" lon="10.091896739286069"><ele>996.0</ele><time>2026-04-04T09:25:04.999Z</time></trkpt><trkpt lat="44.42992308801573" lon="10.091807418336693"><ele>992.0</ele><time>2026-04-04T09:25:05.999Z</time></trkpt><trkpt lat="44.43006508153443" lon="10.091733128963202"><ele>992.0</ele><time>2026-04-04T09:25:06.999Z</time></trkpt><trkpt lat="44.43021613544333" lon="10.091669290896323"><ele>992.0</ele><time>2026-04-04T09:25:07.999Z</time></trkpt><trkpt lat="44.430365917689436" lon="10.091613243011624"><ele>992.0</ele><time>2026-04-04T09:25:08.999Z</time></trkpt><trkpt lat="44.43052286373846" lon="10.091557225662795"><ele>994.25</ele><time>2026-04-04T09:25:09.999Z</time></trkpt><trkpt lat="44.430677870805866" lon="10.091497336353356"><ele>996.5</ele><time>2026-04-04T09:25:10.999Z</time></trkpt><trkpt lat="44.430830493835586" lon="10.091452208336717"><ele>998.75</ele><time>2026-04-04T09:25:12Z</time></trkpt><trkpt lat="44.430952917613084" lon="10.091393142831462"><ele>1001.0</ele><time>2026-04-04T09:25:13Z</time></trkpt><trkpt lat="44.43107037783743" lon="10.091328434003797"><ele>1001.0</ele><time>2026-04-04T09:25:14Z</time></trkpt><trkpt lat="44.43117549301044" lon="10.091225940748666"><ele>1001.0</ele><time>2026-04-04T09:25:15Z</time></trkpt><trkpt lat="44.431264167518385" lon="10.091082653695715"><ele>1001.0</ele><time>2026-04-04T09:25:16Z</time></trkpt><trkpt lat="44.431333020816766" lon="10.090903726598697"><ele>1001.0</ele><time>2026-04-04T09:25:17Z</time></trkpt><trkpt lat="44.43138025758543" lon="10.090706346997063"><ele>993.6666666666667</ele><time>2026-04-04T09:25:18Z</time></trkpt><trkpt lat="44.43141988305388" lon="10.090488452369755"><ele>986.3333333333333</ele><time>2026-04-04T09:25:19Z</time></trkpt><trkpt lat="44.43145166192405" lon="10.090276731313224"><ele>979.0</ele><time>2026-04-04T09:25:20Z</time></trkpt><trkpt lat="44.43147634292327" lon="10.09007105083556"><ele>985.0</ele><time>2026-04-04T09:25:21Z</time></trkpt><trkpt lat="44.431498722580166" lon="10.089873837240162"><ele>991.0</ele><time>2026-04-04T09:25:22Z</time></trkpt><trkpt lat="44.43150724919774" lon="10.089685614684017"><ele>997.0</ele><time>2026-04-04T09:25:23Z</time></trkpt><trkpt lat="44.431503287760094" lon="10.08952099161449"><ele>1003.0</ele><time>2026-04-04T09:25:24Z</time></trkpt><trkpt lat="44.43151045395781" lon="10.089409976026827"><ele>1002.9999999999999</ele><time>2026-04-04T09:25:25Z</time></trkpt><trkpt lat="44.43153653276532" lon="10.089327696185562"><ele>1003.0</ele><time>2026-04-04T09:25:26Z</time></trkpt><trkpt lat="44.43157531869773" lon="10.089257356539663"><ele>1003.0</ele><time>2026-04-04T09:25:27Z</time></trkpt><trkpt lat="44.431641972731335" lon="10.089175613324603"><ele>1003.0</ele><time>2026-04-04T09:25:28Z</time></trkpt><trkpt lat="44.43171424400918" lon="10.089110392739885"><ele>1002.9999999999999</ele><time>2026-04-04T09:25:29Z</time></trkpt><trkpt lat="44.431811544664846" lon="10.089097162804638"><ele>1003.0</ele><time>2026-04-04T09:25:30Z</time></trkpt><trkpt lat="44.431937751568036" lon="10.08912008528041"><ele>1003.0</ele><time>2026-04-04T09:25:31Z</time></trkpt><trkpt lat="44.43208436580385" lon="10.089164476629355"><ele>1003.0</ele><time>2026-04-04T09:25:32Z</time></trkpt><trkpt lat="44.43223468474329" lon="10.08923689382401"><ele>1003.0</ele><time>2026-04-04T09:25:33Z</time></trkpt><trkpt lat="44.43238194418483" lon="10.089317854064864"><ele>1001.25</ele><time>2026-04-04T09:25:34Z</time></trkpt><trkpt lat="44.432533183445464" lon="10.089383240739723"><ele>999.5</ele><time>2026-04-04T09:25:35Z</time></trkpt><trkpt lat="44.43266999930442" lon="10.089421840809914"><ele>997.75</ele><time>2026-04-04T09:25:36Z</time></trkpt><trkpt lat="44.4327882264021" lon="10.089441474429904"><ele>996.0</ele><time>2026-04-04T09:25:37Z</time></trkpt><trkpt lat="44.43287934693189" lon="10.089473978045794"><ele>996.0</ele><time>2026-04-04T09:25:38Z</time></trkpt><trkpt lat="44.43293761324326" lon="10.089560578139219"><ele>995.9999999999999</ele><time>2026-04-04T09:25:39Z</time></trkpt><trkpt lat="44.432979402332286" lon="10.089695348846695"><ele>995.9999999999999</ele><time>2026-04-04T09:25:40Z</time></trkpt><trkpt lat="44.43304075508116" lon="10.089851826584539"><ele>996.0</ele><time>2026-04-04T09:25:41Z</time></trkpt><trkpt lat="44.43313466118981" lon="10.08996384957319"><ele>996.0</ele><time>2026-04-04T09:25:42Z</time></trkpt><trkpt lat="44.43324359673072" lon="10.0900420377775"><ele>996.75</ele><time>2026-04-04T09:25:43Z</time></trkpt><trkpt lat="44.43337464747463" lon="10.090097842981754"><ele>997.5</ele><time>2026-04-04T09:25:44Z</time></trkpt><trkpt lat="44.43351149262491" lon="10.090154715152373"><ele>998.25</ele><time>2026-04-04T09:25:45Z</time></trkpt><trkpt lat="44.4336486487278" lon="10.090205575024992"><ele>999.0</ele><time>2026-04-04T09:25:46Z</time></trkpt><trkpt lat="44.433785876652784" lon="10.090264465288087"><ele>1003.5</ele><time>2026-04-04T09:25:47Z</time></trkpt><trkpt lat="44.43388996631567" lon="10.090340266781784"><ele>1008.0</ele><time>2026-04-04T09:25:48Z</time></trkpt><trkpt lat="44.43399914826343" lon="10.090395837223054"><ele>1012.5</ele><time>2026-04-04T09:25:49Z</time></trkpt><trkpt lat="44.43410716300356" lon="10.090404287158794"><ele>1017.0</ele><time>2026-04-04T09:25:50Z</time></trkpt><trkpt lat="44.434232674713684" lon="10.090376297437864"><ele>1017.0</ele><time>2026-04-04T09:25:51Z</time></trkpt><trkpt lat="44.43434721135439" lon="10.090338834811616"><ele>1017.0</ele><time>2026-04-04T09:25:52Z</time></trkpt><trkpt lat="44.43445510479236" lon="10.090342638862053"><ele>1017.0</ele><time>2026-04-04T09:25:53Z</time></trkpt><trkpt lat="44.43456084025717" lon="10.090400992293802"><ele>1017.0</ele><time>2026-04-04T09:25:54Z</time></trkpt><trkpt lat="44.43462531617504" lon="10.090542202441759"><ele>1017.8</ele><time>2026-04-04T09:25:55Z</time></trkpt><trkpt lat="44.43467669758162" lon="10.090696806302915"><ele>1018.6</ele><time>2026-04-04T09:25:56Z</time></trkpt><trkpt lat="44.43474318722614" lon="10.090823410609474"><ele>1019.3999999999999</ele><time>2026-04-04T09:25:57Z</time></trkpt><trkpt lat="44.43479825295322" lon="10.090925687286454"><ele>1020.1999999999999</ele><time>2026-04-04T09:25:58Z</time></trkpt><trkpt lat="44.434874444858785" lon="10.090972544151514"><ele>1021.0</ele><time>2026-04-04T09:25:59Z</time></trkpt><trkpt lat="44.434967966134586" lon="10.09094224547459"><ele>1021.0</ele><time>2026-04-04T09:26:00Z</time></trkpt><trkpt lat="44.43506822962248" lon="10.090883669892152"><ele>1021.0</ele><time>2026-04-04T09:26:01Z</time></trkpt><trkpt lat="44.43517448553264" lon="10.09080271039945"><ele>1021.0</ele><time>2026-04-04T09:26:02Z</time></trkpt><trkpt lat="44.435278225137154" lon="10.09069977862155"><ele>1021.0</ele><time>2026-04-04T09:26:03Z</time></trkpt><trkpt lat="44.43533578864148" lon="10.090560202687278"><ele>1021.0</ele><time>2026-04-04T09:26:04Z</time></trkpt><trkpt lat="44.43539819747563" lon="10.090494291111618"><ele>1020.9999999999999</ele><time>2026-04-04T09:26:05Z</time></trkpt><trkpt lat="44.43549511396155" lon="10.090478437532317"><ele>1020.9999999999999</ele><time>2026-04-04T09:26:06Z</time></trkpt><trkpt lat="44.43560532077924" lon="10.090459082931453"><ele>1021.0</ele><time>2026-04-04T09:26:07Z</time></trkpt><trkpt lat="44.43569773499127" lon="10.090443443848464"><ele>1021.0</ele><time>2026-04-04T09:26:08Z</time></trkpt><trkpt lat="44.43577194788049" lon="10.090498604416005"><ele>1022.75</ele><time>2026-04-04T09:26:09Z</time></trkpt><trkpt lat="44.43583406364744" lon="10.09061913964099"><ele>1024.5</ele><time>2026-04-04T09:26:10Z</time></trkpt><trkpt lat="44.435927719836194" lon="10.090717125187766"><ele>1026.25</ele><time>2026-04-04T09:26:11Z</time></trkpt><trkpt lat="44.436073425215646" lon="10.090787450246387"><ele>1028.0</ele><time>2026-04-04T09:26:12Z</time></trkpt><trkpt lat="44.436232672545735" lon="10.090872952849729"><ele>1022.3333333333334</ele><time>2026-04-04T09:26:13Z</time></trkpt><trkpt lat="44.436407018451234" lon="10.090946440941773"><ele>1016.6666666666667</ele><time>2026-04-04T09:26:14Z</time></trkpt><trkpt lat="44.43660778693985" lon="10.09101611569433"><ele>1011.0</ele><time>2026-04-04T09:26:15Z</time></trkpt><trkpt lat="44.43678158805706" lon="10.091074552702628"><ele>1011.0</ele><time>2026-04-04T09:26:16Z</time></trkpt><trkpt lat="44.43692003524095" lon="10.09113243063108"><ele>1010.9999999999999</ele><time>2026-04-04T09:26:16.999Z</time></trkpt><trkpt lat="44.437022308902684" lon="10.09118310537737"><ele>1010.9999999999999</ele><time>2026-04-04T09:26:17.999Z</time></trkpt><trkpt lat="44.43709732240098" lon="10.091218872499041"><ele>1011.0</ele><time>2026-04-04T09:26:18.999Z</time></trkpt><trkpt lat="44.43720775073193" lon="10.091204226658652"><ele>1011.0</ele><time>2026-04-04T09:26:20.999Z</time></trkpt><trkpt lat="44.43725487218926" lon="10.091120693189396"><ele>1009.0</ele><time>2026-04-04T09:26:21.999Z</time></trkpt><trkpt lat="44.43727166136272" lon="10.09096293041826"><ele>1007.0</ele><time>2026-04-04T09:26:22.999Z</time></trkpt><trkpt lat="44.43726360786727" lon="10.090759140923126"><ele>1005.0</ele><time>2026-04-04T09:26:23.999Z</time></trkpt><trkpt lat="44.43727965879391" lon="10.090553748440062"><ele>1003.0</ele><time>2026-04-04T09:26:24.999Z</time></trkpt><trkpt lat="44.43734035191669" lon="10.090393784728082"><ele>1009.0</ele><time>2026-04-04T09:26:25.999Z</time></trkpt><trkpt lat="44.4374230944859" lon="10.0902809782712"><ele>1015.0</ele><time>2026-04-04T09:26:26.999Z</time></trkpt><trkpt lat="44.437537466576174" lon="10.090230678828693"><ele>1021.0</ele><time>2026-04-04T09:26:27.999Z</time></trkpt><trkpt lat="44.437668380998794" lon="10.090257288480345"><ele>1027.0</ele><time>2026-04-04T09:26:28.999Z</time></trkpt><trkpt lat="44.437791656450834" lon="10.090338736179204"><ele>1027.0</ele><time>2026-04-04T09:26:29.999Z</time></trkpt><trkpt lat="44.43792529845594" lon="10.090417461497394"><ele>1027.0</ele><time>2026-04-04T09:26:30.999Z</time></trkpt><trkpt lat="44.43805349758618" lon="10.090464936123807"><ele>1027.0</ele><time>2026-04-04T09:26:31.999Z</time></trkpt><trkpt lat="44.438152379577254" lon="10.090484505963124"><ele>1027.0</ele><time>2026-04-04T09:26:32.999Z</time></trkpt><trkpt lat="44.43825846154381" lon="10.090491372643319"><ele>1025.2</ele><time>2026-04-04T09:26:33.999Z</time></trkpt><trkpt lat="44.43836582914256" lon="10.09046581720356"><ele>1023.4000000000001</ele><time>2026-04-04T09:26:34.999Z</time></trkpt><trkpt lat="44.438452833823284" lon="10.090427037632713"><ele>1021.5999999999999</ele><time>2026-04-04T09:26:35.999Z</time></trkpt><trkpt lat="44.43851301622734" lon="10.090352544572815"><ele>1019.8</ele><time>2026-04-04T09:26:36.999Z</time></trkpt><trkpt lat="44.438541073494065" lon="10.09024139194703"><ele>1018.0</ele><time>2026-04-04T09:26:37.999Z</time></trkpt><trkpt lat="44.43852688027409" lon="10.0900989985558"><ele>1018.0</ele><time>2026-04-04T09:26:38.999Z</time></trkpt><trkpt lat="44.43847659809601" lon="10.08994699293713"><ele>1018.0</ele><time>2026-04-04T09:26:39.999Z</time></trkpt><trkpt lat="44.43843902827673" lon="10.089823929123577"><ele>1018.0</ele><time>2026-04-04T09:26:40.999Z</time></trkpt><trkpt lat="44.43845673946676" lon="10.089681832939938"><ele>1018.0</ele><time>2026-04-04T09:26:41.999Z</time></trkpt><trkpt lat="44.43852934361882" lon="10.08952053021543"><ele>1019.25</ele><time>2026-04-04T09:26:42.999Z</time></trkpt><trkpt lat="44.43858104243524" lon="10.089375426668026"><ele>1020.5</ele><time>2026-04-04T09:26:43.999Z</time></trkpt><trkpt lat="44.43862198316297" lon="10.089226276922375"><ele>1021.75</ele><time>2026-04-04T09:26:44.999Z</time></trkpt><trkpt lat="44.43863303164313" lon="10.089056435990335"><ele>1023.0</ele><time>2026-04-04T09:26:45.999Z</time></trkpt><trkpt lat="44.43865682738848" lon="10.088880602425085"><ele>1024.0</ele><time>2026-04-04T09:26:46.999Z</time></trkpt><trkpt lat="44.43865451697128" lon="10.088691005397127"><ele>1025.0</ele><time>2026-04-04T09:26:47.999Z</time></trkpt><trkpt lat="44.43863359852309" lon="10.088484407488759"><ele>1026.0</ele><time>2026-04-04T09:26:48.999Z</time></trkpt><trkpt lat="44.43863087508714" lon="10.088331442870203"><ele>1027.0</ele><time>2026-04-04T09:26:49.999Z</time></trkpt><trkpt lat="44.43864575817623" lon="10.088170196679707"><ele>1028.0</ele><time>2026-04-04T09:26:50.999Z</time></trkpt><trkpt lat="44.438668644567045" lon="10.088000052348018"><ele>1029.0</ele><time>2026-04-04T09:26:51.999Z</time></trkpt><trkpt lat="44.4386689159256" lon="10.08785149617411"><ele>1030.0</ele><time>2026-04-04T09:26:52.999Z</time></trkpt><trkpt lat="44.43867221851493" lon="10.087721131680446"><ele>1031.0</ele><time>2026-04-04T09:26:53.999Z</time></trkpt><trkpt lat="44.43871714916993" lon="10.087636541374003"><ele>1032.0</ele><time>2026-04-04T09:26:54.999Z</time></trkpt><trkpt lat="44.43878514486287" lon="10.087593080363286"><ele>1028.8</ele><time>2026-04-04T09:26:55.999Z</time></trkpt><trkpt lat="44.43887027979258" lon="10.087586279961332"><ele>1025.6</ele><time>2026-04-04T09:26:56.999Z</time></trkpt><trkpt lat="44.43898115356246" lon="10.08760758660549"><ele>1022.3999999999999</ele><time>2026-04-04T09:26:57.999Z</time></trkpt><trkpt lat="44.43910364901299" lon="10.087621010093216"><ele>1019.1999999999999</ele><time>2026-04-04T09:26:58.999Z</time></trkpt><trkpt lat="44.4392222149332" lon="10.087601988549482"><ele>1016.0</ele><time>2026-04-04T09:26:59.999Z</time></trkpt><trkpt lat="44.439313159287856" lon="10.08754294154865"><ele>1016.0</ele><time>2026-04-04T09:27:00.999Z</time></trkpt><trkpt lat="44.439378259542316" lon="10.087437253755095"><ele>1016.0</ele><time>2026-04-04T09:27:01.999Z</time></trkpt><trkpt lat="44.439438282593386" lon="10.087267584178129"><ele>1016.0</ele><time>2026-04-04T09:27:02.999Z</time></trkpt><trkpt lat="44.43950196538367" lon="10.087078574191606"><ele>1016.0</ele><time>2026-04-04T09:27:03.999Z</time></trkpt><trkpt lat="44.43956480174312" lon="10.086929647610669"><ele>1016.4</ele><time>2026-04-04T09:27:04.999Z</time></trkpt><trkpt lat="44.43963678605781" lon="10.086804467881034"><ele>1016.8</ele><time>2026-04-04T09:27:05.999Z</time></trkpt><trkpt lat="44.43973168363021" lon="10.0866982337028"><ele>1017.1999999999999</ele><time>2026-04-04T09:27:06.999Z</time></trkpt><trkpt lat="44.439812601845645" lon="10.086629635784186"><ele>1017.5999999999999</ele><time>2026-04-04T09:27:07.999Z</time></trkpt><trkpt lat="44.43990133235341" lon="10.086577634534557"><ele>1018.0</ele><time>2026-04-04T09:27:08.999Z</time></trkpt><trkpt lat="44.440083453706734" lon="10.086505951562573"><ele>1018.0</ele><time>2026-04-04T09:27:09.999Z</time></trkpt><trkpt lat="44.44019083651574" lon="10.086557940598908"><ele>1018.0</ele><time>2026-04-04T09:27:10.999Z</time></trkpt><trkpt lat="44.44029830165244" lon="10.086644853880236"><ele>1018.0</ele><time>2026-04-04T09:27:11.999Z</time></trkpt><trkpt lat="44.44042972679314" lon="10.086717344860102"><ele>1018.0</ele><time>2026-04-04T09:27:12.999Z</time></trkpt><trkpt lat="44.44054449153367" lon="10.086815029041746"><ele>1015.4999999999999</ele><time>2026-04-04T09:27:13.999Z</time></trkpt><trkpt lat="44.44063957441974" lon="10.086888681734763"><ele>1013.0</ele><time>2026-04-04T09:27:14.999Z</time></trkpt><trkpt lat="44.44071185760452" lon="10.086920352993932"><ele>1010.5</ele><time>2026-04-04T09:27:15.999Z</time></trkpt><trkpt lat="44.44077738504111" lon="10.086872902868594"><ele>1008.0</ele><time>2026-04-04T09:27:16.999Z</time></trkpt><trkpt lat="44.4408217137144" lon="10.0867916078039"><ele>1005.4999999999999</ele><time>2026-04-04T09:27:18Z</time></trkpt><trkpt lat="44.44083431708417" lon="10.086660473574836"><ele>1003.0</ele><time>2026-04-04T09:27:19Z</time></trkpt><trkpt lat="44.44087009651813" lon="10.086476458022526"><ele>1003.0</ele><time>2026-04-04T09:27:20Z</time></trkpt><trkpt lat="44.44090246304572" lon="10.08626566028715"><ele>1003.0</ele><time>2026-04-04T09:27:21Z</time></trkpt><trkpt lat="44.440965435167996" lon="10.086064977291255"><ele>1003.0</ele><time>2026-04-04T09:27:22Z</time></trkpt><trkpt lat="44.44104216782201" lon="10.085893099797882"><ele>1000.3333333333333</ele><time>2026-04-04T09:27:23Z</time></trkpt><trkpt lat="44.44112499406277" lon="10.085724221895534"><ele>997.6666666666667</ele><time>2026-04-04T09:27:24Z</time></trkpt><trkpt lat="44.44121522642088" lon="10.085550973044008"><ele>995.0</ele><time>2026-04-04T09:27:25Z</time></trkpt><trkpt lat="44.441319508103405" lon="10.085380123832449"><ele>995.0</ele><time>2026-04-04T09:27:26Z</time></trkpt><trkpt lat="44.44144069819157" lon="10.08522257338229"><ele>995.0</ele><time>2026-04-04T09:27:27Z</time></trkpt><trkpt lat="44.44156186662656" lon="10.0850852165721"><ele>995.0</ele><time>2026-04-04T09:27:28Z</time></trkpt><trkpt lat="44.441665373099944" lon="10.084959189665938"><ele>999.0</ele><time>2026-04-04T09:27:29Z</time></trkpt><trkpt lat="44.4417657115093" lon="10.084845888307713"><ele>1003.0</ele><time>2026-04-04T09:27:30Z</time></trkpt><trkpt lat="44.44188321504319" lon="10.084818078042987"><ele>1007.0</ele><time>2026-04-04T09:27:31Z</time></trkpt><trkpt lat="44.44198755241952" lon="10.084813664447598"><ele>1011.0</ele><time>2026-04-04T09:27:32Z</time></trkpt><trkpt lat="44.442101157301195" lon="10.084755521616394"><ele>1003.75</ele><time>2026-04-04T09:27:33Z</time></trkpt><trkpt lat="44.442172488019544" lon="10.084617482795622"><ele>996.5</ele><time>2026-04-04T09:27:34Z</time></trkpt><trkpt lat="44.44224747671333" lon="10.084482184654725"><ele>989.25</ele><time>2026-04-04T09:27:35Z</time></trkpt><trkpt lat="44.44230421291117" lon="10.084321951232184"><ele>982.0</ele><time>2026-04-04T09:27:36Z</time></trkpt><trkpt lat="44.44237190657028" lon="10.084161737653803"><ele>990.75</ele><time>2026-04-04T09:27:37Z</time></trkpt><trkpt lat="44.44244468693105" lon="10.084020868756983"><ele>999.5</ele><time>2026-04-04T09:27:38Z</time></trkpt><trkpt lat="44.442536632279186" lon="10.083910428253605"><ele>1008.25</ele><time>2026-04-04T09:27:39Z</time></trkpt><trkpt lat="44.44264871668092" lon="10.083837321102708"><ele>1017.0</ele><time>2026-04-04T09:27:40Z</time></trkpt><trkpt lat="44.44277477684508" lon="10.083783515489587"><ele>1017.0</ele><time>2026-04-04T09:27:41Z</time></trkpt><trkpt lat="44.44292483015077" lon="10.083788900320231"><ele>1017.0</ele><time>2026-04-04T09:27:42Z</time></trkpt><trkpt lat="44.44309157794755" lon="10.08383316170674"><ele>1017.0</ele><time>2026-04-04T09:27:43Z</time></trkpt><trkpt lat="44.44322628610013" lon="10.083843248854176"><ele>1010.75</ele><time>2026-04-04T09:27:44Z</time></trkpt><trkpt lat="44.44337044194814" lon="10.083847300477132"><ele>1004.5</ele><time>2026-04-04T09:27:45Z</time></trkpt><trkpt lat="44.443509640711525" lon="10.083811779100786"><ele>998.25</ele><time>2026-04-04T09:27:46Z</time></trkpt><trkpt lat="44.443655845751515" lon="10.083774929870218"><ele>992.0</ele><time>2026-04-04T09:27:47Z</time></trkpt><trkpt lat="44.4437663361351" lon="10.083726360402691"><ele>992.5</ele><time>2026-04-04T09:27:48Z</time></trkpt><trkpt lat="44.44386068476497" lon="10.08372914230425"><ele>993.0</ele><time>2026-04-04T09:27:49Z</time></trkpt><trkpt lat="44.44395777135474" lon="10.083821496789879"><ele>993.5</ele><time>2026-04-04T09:27:50Z</time></trkpt><trkpt lat="44.44404889285053" lon="10.083951175861243"><ele>994.0</ele><time>2026-04-04T09:27:51Z</time></trkpt><trkpt lat="44.44407478269362" lon="10.084123749719938"><ele>987.0</ele><time>2026-04-04T09:27:52Z</time></trkpt><trkpt lat="44.444118161000986" lon="10.08432593051706"><ele>980.0</ele><time>2026-04-04T09:27:53Z</time></trkpt><trkpt lat="44.444159196386074" lon="10.084552288845893"><ele>973.0</ele><time>2026-04-04T09:27:54Z</time></trkpt><trkpt lat="44.44421399106747" lon="10.084742600522262"><ele>973.0</ele><time>2026-04-04T09:27:55Z</time></trkpt><trkpt lat="44.44426084435891" lon="10.084924881665863"><ele>973.0</ele><time>2026-04-04T09:27:56Z</time></trkpt><trkpt lat="44.444271563777335" lon="10.085092438072955"><ele>973.0</ele><time>2026-04-04T09:27:57Z</time></trkpt><trkpt lat="44.44426735623273" lon="10.085260822781626"><ele>973.0</ele><time>2026-04-04T09:27:58Z</time></trkpt><trkpt lat="44.444233948950924" lon="10.085479587125166"><ele>967.6666666666666</ele><time>2026-04-04T09:27:59Z</time></trkpt><trkpt lat="44.44420003059579" lon="10.085724989692945"><ele>962.3333333333333</ele><time>2026-04-04T09:28:00Z</time></trkpt><trkpt lat="44.44418817792963" lon="10.085970651570909"><ele>957.0</ele><time>2026-04-04T09:28:01Z</time></trkpt><trkpt lat="44.44416634242615" lon="10.0862290936115"><ele>955.3333333333333</ele><time>2026-04-04T09:28:02Z</time></trkpt><trkpt lat="44.44416044133773" lon="10.086471883486187"><ele>953.6666666666666</ele><time>2026-04-04T09:28:03Z</time></trkpt><trkpt lat="44.44412052705625" lon="10.086691752243807"><ele>952.0</ele><time>2026-04-04T09:28:04Z</time></trkpt><trkpt lat="44.44407236547052" lon="10.086902199311764"><ele>950.6666666666666</ele><time>2026-04-04T09:28:05Z</time></trkpt><trkpt lat="44.44402018750993" lon="10.087123663735955"><ele>949.3333333333333</ele><time>2026-04-04T09:28:06Z</time></trkpt><trkpt lat="44.44400430344681" lon="10.087342560890177"><ele>948.0</ele><time>2026-04-04T09:28:07Z</time></trkpt><trkpt lat="44.44399274362996" lon="10.087568381781772"><ele>947.3333333333333</ele><time>2026-04-04T09:28:08Z</time></trkpt><trkpt lat="44.44399620070149" lon="10.087832089514611"><ele>946.6666666666666</ele><time>2026-04-04T09:28:09Z</time></trkpt><trkpt lat="44.444000211737894" lon="10.088058444575392"><ele>946.0</ele><time>2026-04-04T09:28:10Z</time></trkpt><trkpt lat="44.44397188922151" lon="10.08825217190274"><ele>944.4</ele><time>2026-04-04T09:28:11Z</time></trkpt><trkpt lat="44.44397804205023" lon="10.088419487083957"><ele>942.8</ele><time>2026-04-04T09:28:12Z</time></trkpt><trkpt lat="44.443978394571786" lon="10.08854538175867"><ele>941.1999999999999</ele><time>2026-04-04T09:28:13Z</time></trkpt><trkpt lat="44.44400255285541" lon="10.08866879228269"><ele>939.5999999999999</ele><time>2026-04-04T09:28:14Z</time></trkpt><trkpt lat="44.44406272274681" lon="10.08880395054708"><ele>938.0</ele><time>2026-04-04T09:28:15Z</time></trkpt><trkpt lat="44.44415142907915" lon="10.08895081372338"><ele>938.0</ele><time>2026-04-04T09:28:16Z</time></trkpt><trkpt lat="44.44423584526511" lon="10.089067617383344"><ele>938.0</ele><time>2026-04-04T09:28:17Z</time></trkpt><trkpt lat="44.44429196268581" lon="10.089176210955081"><ele>938.0</ele><time>2026-04-04T09:28:18Z</time></trkpt><trkpt lat="44.44435159844631" lon="10.089277149807282"><ele>938.0</ele><time>2026-04-04T09:28:19Z</time></trkpt><trkpt lat="44.444428127518776" lon="10.089370695983364"><ele>938.0</ele><time>2026-04-04T09:28:20Z</time></trkpt><trkpt lat="44.44453548703122" lon="10.089449056872924"><ele>940.5</ele><time>2026-04-04T09:28:21Z</time></trkpt><trkpt lat="44.44466676154442" lon="10.089518468765066"><ele>943.0</ele><time>2026-04-04T09:28:22Z</time></trkpt><trkpt lat="44.444791163444016" lon="10.089601223524484"><ele>945.5</ele><time>2026-04-04T09:28:23Z</time></trkpt><trkpt lat="44.44492728209726" lon="10.08971045440365"><ele>948.0</ele><time>2026-04-04T09:28:24Z</time></trkpt><trkpt lat="44.445047524015784" lon="10.089770879341245"><ele>948.0</ele><time>2026-04-04T09:28:25Z</time></trkpt><trkpt lat="44.44515862389085" lon="10.08986501442251"><ele>948.0</ele><time>2026-04-04T09:28:26Z</time></trkpt><trkpt lat="44.44525306200828" lon="10.089987538249854"><ele>948.0</ele><time>2026-04-04T09:28:27Z</time></trkpt><trkpt lat="44.44528712084491" lon="10.09019810099048"><ele>948.0</ele><time>2026-04-04T09:28:28Z</time></trkpt><trkpt lat="44.4452582323714" lon="10.090380359606959"><ele>941.0</ele><time>2026-04-04T09:28:29Z</time></trkpt><trkpt lat="44.44525882637579" lon="10.090600629413462"><ele>934.0</ele><time>2026-04-04T09:28:29.999Z</time></trkpt><trkpt lat="44.445283845163" lon="10.090854860001063"><ele>927.0</ele><time>2026-04-04T09:28:30.999Z</time></trkpt><trkpt lat="44.44531550497249" lon="10.091108822394057"><ele>923.0</ele><time>2026-04-04T09:28:31.999Z</time></trkpt><trkpt lat="44.44530701136319" lon="10.091324489179062"><ele>919.0</ele><time>2026-04-04T09:28:32.999Z</time></trkpt><trkpt lat="44.44529260958734" lon="10.091527504337801"><ele>915.0</ele><time>2026-04-04T09:28:33.999Z</time></trkpt><trkpt lat="44.44527613889175" lon="10.091759683653184"><ele>913.6666666666667</ele><time>2026-04-04T09:28:34.999Z</time></trkpt><trkpt lat="44.445271348645434" lon="10.091990812595942"><ele>912.3333333333334</ele><time>2026-04-04T09:28:35.999Z</time></trkpt><trkpt lat="44.4452600327327" lon="10.092219006740088"><ele>911.0</ele><time>2026-04-04T09:28:36.999Z</time></trkpt><trkpt lat="44.4452563662684" lon="10.092441972398467"><ele>910.75</ele><time>2026-04-04T09:28:37.999Z</time></trkpt><trkpt lat="44.44526240911893" lon="10.092660832686269"><ele>910.5</ele><time>2026-04-04T09:28:38.999Z</time></trkpt><trkpt lat="44.44527415653637" lon="10.092841918783364"><ele>910.25</ele><time>2026-04-04T09:28:39.999Z</time></trkpt><trkpt lat="44.44527976967224" lon="10.092993349464885"><ele>910.0</ele><time>2026-04-04T09:28:40.999Z</time></trkpt><trkpt lat="44.445290502799516" lon="10.093124235267835"><ele>910.0</ele><time>2026-04-04T09:28:41.999Z</time></trkpt><trkpt lat="44.44533343555926" lon="10.093250208568557"><ele>910.0</ele><time>2026-04-04T09:28:42.999Z</time></trkpt><trkpt lat="44.445431599663884" lon="10.093367260488916"><ele>910.0</ele><time>2026-04-04T09:28:43.999Z</time></trkpt><trkpt lat="44.4455620570031" lon="10.093489622524842"><ele>910.0</ele><time>2026-04-04T09:28:44.999Z</time></trkpt><trkpt lat="44.44572057508433" lon="10.093589325771196"><ele>914.25</ele><time>2026-04-04T09:28:45.999Z</time></trkpt><trkpt lat="44.445861362948264" lon="10.093671070563357"><ele>918.5</ele><time>2026-04-04T09:28:46.999Z</time></trkpt><trkpt lat="44.445994111090236" lon="10.093760064116756"><ele>922.75</ele><time>2026-04-04T09:28:47.999Z</time></trkpt><trkpt lat="44.44609249216209" lon="10.093878883854682"><ele>927.0</ele><time>2026-04-04T09:28:48.999Z</time></trkpt><trkpt lat="44.44616612652658" lon="10.094037252217905"><ele>926.0</ele><time>2026-04-04T09:28:49.999Z</time></trkpt><trkpt lat="44.44623613258218" lon="10.094222716937939"><ele>925.0</ele><time>2026-04-04T09:28:50.999Z</time></trkpt><trkpt lat="44.44630146108072" lon="10.094449148642571"><ele>924.0</ele><time>2026-04-04T09:28:51.999Z</time></trkpt><trkpt lat="44.44637645928208" lon="10.094642243334725"><ele>924.0</ele><time>2026-04-04T09:28:52.999Z</time></trkpt><trkpt lat="44.44644227849361" lon="10.09481365428181"><ele>924.0</ele><time>2026-04-04T09:28:53.999Z</time></trkpt><trkpt lat="44.446517551236546" lon="10.09493783764242"><ele>924.0</ele><time>2026-04-04T09:28:54.999Z</time></trkpt><trkpt lat="44.44660035853367" lon="10.095027559130155"><ele>924.0</ele><time>2026-04-04T09:28:55.999Z</time></trkpt><trkpt lat="44.446700511566924" lon="10.09504013885318"><ele>924.0</ele><time>2026-04-04T09:28:56.999Z</time></trkpt><trkpt lat="44.44680344884254" lon="10.095029471765352"><ele>924.0</ele><time>2026-04-04T09:28:57.999Z</time></trkpt><trkpt lat="44.44693074472607" lon="10.094958001508607"><ele>924.0</ele><time>2026-04-04T09:28:58.999Z</time></trkpt><trkpt lat="44.447109388337346" lon="10.094894661616099"><ele>924.0</ele><time>2026-04-04T09:28:59.999Z</time></trkpt><trkpt lat="44.447288732297594" lon="10.094817438996628"><ele>923.6666666666667</ele><time>2026-04-04T09:29:00.999Z</time></trkpt><trkpt lat="44.44747450756263" lon="10.094743082156977"><ele>923.3333333333334</ele><time>2026-04-04T09:29:01.999Z</time></trkpt><trkpt lat="44.44765107636776" lon="10.094670078677481"><ele>923.0</ele><time>2026-04-04T09:29:02.999Z</time></trkpt><trkpt lat="44.44778836278242" lon="10.094631881939778"><ele>923.0</ele><time>2026-04-04T09:29:03.999Z</time></trkpt><trkpt lat="44.4479022096787" lon="10.094620452559807"><ele>923.0</ele><time>2026-04-04T09:29:04.999Z</time></trkpt><trkpt lat="44.44802285192284" lon="10.094685193613957"><ele>923.0</ele><time>2026-04-04T09:29:05.999Z</time></trkpt><trkpt lat="44.448135030416275" lon="10.0948332429097"><ele>923.0</ele><time>2026-04-04T09:29:06.999Z</time></trkpt><trkpt lat="44.44824970858696" lon="10.094950011202616"><ele>918.25</ele><time>2026-04-04T09:29:07.999Z</time></trkpt><trkpt lat="44.448347584936556" lon="10.09503220268504"><ele>913.5</ele><time>2026-04-04T09:29:08.999Z</time></trkpt><trkpt lat="44.448476558607126" lon="10.095013096918695"><ele>908.75</ele><time>2026-04-04T09:29:09.999Z</time></trkpt><trkpt lat="44.44864634489965" lon="10.09501432525539"><ele>904.0</ele><time>2026-04-04T09:29:10.999Z</time></trkpt><trkpt lat="44.44882125677363" lon="10.094975697521559"><ele>904.0</ele><time>2026-04-04T09:29:11.999Z</time></trkpt><trkpt lat="44.44896721970878" lon="10.094991780886089"><ele>904.0</ele><time>2026-04-04T09:29:12.999Z</time></trkpt><trkpt lat="44.4490852128364" lon="10.095051672432731"><ele>904.0</ele><time>2026-04-04T09:29:13.999Z</time></trkpt><trkpt lat="44.449184989684824" lon="10.095169419476449"><ele>904.0</ele><time>2026-04-04T09:29:14.999Z</time></trkpt><trkpt lat="44.44924046279771" lon="10.09539786170499"><ele>904.0</ele><time>2026-04-04T09:29:15.999Z</time></trkpt><trkpt lat="44.44928907701465" lon="10.095647560203522"><ele>904.0</ele><time>2026-04-04T09:29:16.999Z</time></trkpt><trkpt lat="44.44931591060512" lon="10.09591804637167"><ele>904.0</ele><time>2026-04-04T09:29:17.999Z</time></trkpt><trkpt lat="44.449329511878176" lon="10.096160219142746"><ele>900.5</ele><time>2026-04-04T09:29:18.999Z</time></trkpt><trkpt lat="44.44934200728514" lon="10.09637946470422"><ele>897.0</ele><time>2026-04-04T09:29:19.999Z</time></trkpt><trkpt lat="44.44937359186781" lon="10.096559020950579"><ele>893.5</ele><time>2026-04-04T09:29:20.999Z</time></trkpt><trkpt lat="44.44940781746371" lon="10.09671547254325"><ele>890.0</ele><time>2026-04-04T09:29:21.999Z</time></trkpt><trkpt lat="44.44948436865846" lon="10.096846008481334"><ele>889.25</ele><time>2026-04-04T09:29:22.999Z</time></trkpt><trkpt lat="44.449592491459164" lon="10.096935983194314"><ele>888.5</ele><time>2026-04-04T09:29:24Z</time></trkpt><trkpt lat="44.44973772359821" lon="10.096982336792147"><ele>887.75</ele><time>2026-04-04T09:29:25Z</time></trkpt><trkpt lat="44.44986992842233" lon="10.096942437153125"><ele>887.0</ele><time>2026-04-04T09:29:26Z</time></trkpt><trkpt lat="44.44999698157667" lon="10.096893781978622"><ele>887.0</ele><time>2026-04-04T09:29:27Z</time></trkpt><trkpt lat="44.450137462537775" lon="10.096796807749211"><ele>887.0</ele><time>2026-04-04T09:29:28Z</time></trkpt><trkpt lat="44.45028483857965" lon="10.096720209839166"><ele>887.0</ele><time>2026-04-04T09:29:29Z</time></trkpt><trkpt lat="44.45041134223072" lon="10.096626086287438"><ele>884.75</ele><time>2026-04-04T09:29:30Z</time></trkpt><trkpt lat="44.45051968466815" lon="10.096520946233627"><ele>882.5</ele><time>2026-04-04T09:29:31Z</time></trkpt><trkpt lat="44.45059680041385" lon="10.096342161834716"><ele>880.25</ele><time>2026-04-04T09:29:32Z</time></trkpt><trkpt lat="44.45068821503684" lon="10.096178506789986"><ele>878.0</ele><time>2026-04-04T09:29:33Z</time></trkpt><trkpt lat="44.450734165149655" lon="10.095983439195544"><ele>878.6666666666667</ele><time>2026-04-04T09:29:34Z</time></trkpt><trkpt lat="44.45075642009969" lon="10.095745529920762"><ele>879.3333333333333</ele><time>2026-04-04T09:29:35Z</time></trkpt><trkpt lat="44.450763777961335" lon="10.095481996914375"><ele>880.0</ele><time>2026-04-04T09:29:36Z</time></trkpt><trkpt lat="44.45077475516087" lon="10.095253465342457"><ele>880.0</ele><time>2026-04-04T09:29:37Z</time></trkpt><trkpt lat="44.450800051193006" lon="10.095025962832363"><ele>880.0</ele><time>2026-04-04T09:29:38Z</time></trkpt><trkpt lat="44.450829916766644" lon="10.094798782351472"><ele>880.0</ele><time>2026-04-04T09:29:39Z</time></trkpt><trkpt lat="44.45087490799846" lon="10.094574185170163"><ele>880.3333333333333</ele><time>2026-04-04T09:29:40Z</time></trkpt><trkpt lat="44.450926843308494" lon="10.094319063416942"><ele>880.6666666666667</ele><time>2026-04-04T09:29:41Z</time></trkpt><trkpt lat="44.451059788244905" lon="10.09412540056309"><ele>881.0</ele><time>2026-04-04T09:29:43Z</time></trkpt><trkpt lat="44.45117265299475" lon="10.093961586351677"><ele>882.75</ele><time>2026-04-04T09:29:44Z</time></trkpt><trkpt lat="44.451280732854336" lon="10.093869531739836"><ele>884.5</ele><time>2026-04-04T09:29:45Z</time></trkpt><trkpt lat="44.451328156799484" lon="10.09372832539347"><ele>886.25</ele><time>2026-04-04T09:29:46Z</time></trkpt><trkpt lat="44.45136645520817" lon="10.093526208037607"><ele>888.0</ele><time>2026-04-04T09:29:47Z</time></trkpt><trkpt lat="44.451420355894584" lon="10.09331064870282"><ele>886.0</ele><time>2026-04-04T09:29:48Z</time></trkpt><trkpt lat="44.45148103340698" lon="10.093122374420101"><ele>884.0</ele><time>2026-04-04T09:29:49Z</time></trkpt><trkpt lat="44.45156853829256" lon="10.09298374341931"><ele>882.0</ele><time>2026-04-04T09:29:50Z</time></trkpt><trkpt lat="44.45168407792961" lon="10.092913950942851"><ele>880.0</ele><time>2026-04-04T09:29:51Z</time></trkpt><trkpt lat="44.45180674504053" lon="10.092886751837666"><ele>880.0</ele><time>2026-04-04T09:29:52Z</time></trkpt><trkpt lat="44.45193326124748" lon="10.092927694765041"><ele>880.0</ele><time>2026-04-04T09:29:53Z</time></trkpt><trkpt lat="44.45208932541042" lon="10.092980280214572"><ele>880.0</ele><time>2026-04-04T09:29:54Z</time></trkpt><trkpt lat="44.4522518891063" lon="10.093074337070853"><ele>878.0</ele><time>2026-04-04T09:29:55Z</time></trkpt><trkpt lat="44.452405038993504" lon="10.093122493984891"><ele>876.0</ele><time>2026-04-04T09:29:56Z</time></trkpt><trkpt lat="44.452548621451974" lon="10.093127441582117"><ele>874.0</ele><time>2026-04-04T09:29:57Z</time></trkpt><trkpt lat="44.45268738629849" lon="10.093110353534561"><ele>872.0</ele><time>2026-04-04T09:29:58Z</time></trkpt><trkpt lat="44.452809334782266" lon="10.093049645436714"><ele>872.0</ele><time>2026-04-04T09:29:59Z</time></trkpt><trkpt lat="44.452925675616314" lon="10.092987657878382"><ele>872.0</ele><time>2026-04-04T09:30:00Z</time></trkpt><trkpt lat="44.45301824693541" lon="10.092898625570689"><ele>872.0</ele><time>2026-04-04T09:30:01Z</time></trkpt><trkpt lat="44.45309853715368" lon="10.092776886026725"><ele>872.0</ele><time>2026-04-04T09:30:02Z</time></trkpt><trkpt lat="44.453203520226204" lon="10.092607724656752"><ele>870.0</ele><time>2026-04-04T09:30:03Z</time></trkpt><trkpt lat="44.45331220011822" lon="10.092429033970983"><ele>868.0</ele><time>2026-04-04T09:30:04Z</time></trkpt><trkpt lat="44.45342963742429" lon="10.092254585305591"><ele>866.0</ele><time>2026-04-04T09:30:05Z</time></trkpt><trkpt lat="44.45349873984706" lon="10.0920489086445"><ele>866.0</ele><time>2026-04-04T09:30:06Z</time></trkpt><trkpt lat="44.4535932734973" lon="10.09190382151103"><ele>866.0</ele><time>2026-04-04T09:30:07Z</time></trkpt><trkpt lat="44.45368734456765" lon="10.091796885919372"><ele>866.0</ele><time>2026-04-04T09:30:08Z</time></trkpt><trkpt lat="44.4537927244175" lon="10.091734008838557"><ele>866.0</ele><time>2026-04-04T09:30:09Z</time></trkpt><trkpt lat="44.45385413717038" lon="10.09165292550885"><ele>864.3333333333334</ele><time>2026-04-04T09:30:10Z</time></trkpt><trkpt lat="44.453897702131506" lon="10.091563203387107"><ele>862.6666666666667</ele><time>2026-04-04T09:30:11Z</time></trkpt><trkpt lat="44.45395573303487" lon="10.091474862586093"><ele>861.0</ele><time>2026-04-04T09:30:12Z</time></trkpt><trkpt lat="44.454024799296455" lon="10.091419900079886"><ele>859.3333333333333</ele><time>2026-04-04T09:30:14Z</time></trkpt><trkpt lat="44.45410085472826" lon="10.091431382802877"><ele>857.6666666666666</ele><time>2026-04-04T09:30:15Z</time></trkpt><trkpt lat="44.45422012735707" lon="10.09149363918124"><ele>856.0</ele><time>2026-04-04T09:30:16Z</time></trkpt><trkpt lat="44.454337894677295" lon="10.091570108844525"><ele>853.0</ele><time>2026-04-04T09:30:17Z</time></trkpt><trkpt lat="44.45446496200257" lon="10.091649192774602"><ele>850.0</ele><time>2026-04-04T09:30:18Z</time></trkpt><trkpt lat="44.45459433044859" lon="10.091727194722761"><ele>847.0</ele><time>2026-04-04T09:30:19Z</time></trkpt><trkpt lat="44.454720659122444" lon="10.091806443352628"><ele>844.0</ele><time>2026-04-04T09:30:20Z</time></trkpt><trkpt lat="44.45484707900538" lon="10.091880476397147"><ele>842.75</ele><time>2026-04-04T09:30:21Z</time></trkpt><trkpt lat="44.4549708051159" lon="10.09194749514293"><ele>841.5</ele><time>2026-04-04T09:30:22Z</time></trkpt><trkpt lat="44.455096799959584" lon="10.09200101149733"><ele>840.25</ele><time>2026-04-04T09:30:23Z</time></trkpt><trkpt lat="44.4552193400278" lon="10.092052305924021"><ele>839.0</ele><time>2026-04-04T09:30:24Z</time></trkpt><trkpt lat="44.45535021311139" lon="10.092110400889371"><ele>839.25</ele><time>2026-04-04T09:30:25Z</time></trkpt><trkpt lat="44.455480944801835" lon="10.092173964169584"><ele>839.5</ele><time>2026-04-04T09:30:26Z</time></trkpt><trkpt lat="44.4556091533304" lon="10.092237930266734"><ele>839.75</ele><time>2026-04-04T09:30:27Z</time></trkpt><trkpt lat="44.455732744514606" lon="10.092292500826858"><ele>840.0</ele><time>2026-04-04T09:30:28Z</time></trkpt><trkpt lat="44.45585341452685" lon="10.092358565305778"><ele>840.0</ele><time>2026-04-04T09:30:29Z</time></trkpt><trkpt lat="44.45595557647278" lon="10.092405817452969"><ele>840.0</ele><time>2026-04-04T09:30:30Z</time></trkpt><trkpt lat="44.45604911035147" lon="10.092448289101212"><ele>840.0</ele><time>2026-04-04T09:30:31Z</time></trkpt><trkpt lat="44.456138253865326" lon="10.092490371613062"><ele>840.0</ele><time>2026-04-04T09:30:32Z</time></trkpt><trkpt lat="44.456224397445496" lon="10.092526420106564"><ele>840.0</ele><time>2026-04-04T09:30:33Z</time></trkpt><trkpt lat="44.45630909055856" lon="10.092560365397823"><ele>837.0</ele><time>2026-04-04T09:30:33.999Z</time></trkpt><trkpt lat="44.456387767014604" lon="10.092616604258838"><ele>834.0</ele><time>2026-04-04T09:30:34.999Z</time></trkpt><trkpt lat="44.45647521151385" lon="10.092674321855279"><ele>831.0</ele><time>2026-04-04T09:30:35.999Z</time></trkpt><trkpt lat="44.4565738278796" lon="10.092701752227144"><ele>828.0</ele><time>2026-04-04T09:30:36.999Z</time></trkpt><trkpt lat="44.45667472692524" lon="10.09264976441775"><ele>825.0</ele><time>2026-04-04T09:30:37.999Z</time></trkpt><trkpt lat="44.456785926669866" lon="10.092613314829466"><ele>825.0</ele><time>2026-04-04T09:30:38.999Z</time></trkpt><trkpt lat="44.45685890464068" lon="10.092545894468124"><ele>825.0</ele><time>2026-04-04T09:30:39.999Z</time></trkpt><trkpt lat="44.45690062709285" lon="10.092476596009428"><ele>825.0</ele><time>2026-04-04T09:30:40.999Z</time></trkpt><trkpt lat="44.456942620720106" lon="10.092383501196812"><ele>825.0</ele><time>2026-04-04T09:30:41.999Z</time></trkpt><trkpt lat="44.45699584605863" lon="10.09221775178975"><ele>825.0</ele><time>2026-04-04T09:30:42.999Z</time></trkpt><trkpt lat="44.45704729319598" lon="10.09204267688449"><ele>824.5</ele><time>2026-04-04T09:30:43.999Z</time></trkpt><trkpt lat="44.4570986380944" lon="10.091847132921718"><ele>824.0</ele><time>2026-04-04T09:30:44.999Z</time></trkpt><trkpt lat="44.4571390591269" lon="10.091654898494141"><ele>823.5</ele><time>2026-04-04T09:30:45.999Z</time></trkpt><trkpt lat="44.45718657159205" lon="10.091487574166543"><ele>823.0</ele><time>2026-04-04T09:30:46.999Z</time></trkpt><trkpt lat="44.457280688149616" lon="10.09134007172204"><ele>824.8333333333333</ele><time>2026-04-04T09:30:47.999Z</time></trkpt><trkpt lat="44.45734311977101" lon="10.091267662998982"><ele>826.6666666666666</ele><time>2026-04-04T09:30:48.999Z</time></trkpt><trkpt lat="44.45742686565012" lon="10.091216592620121"><ele>828.5</ele><time>2026-04-04T09:30:49.999Z</time></trkpt><trkpt lat="44.45750672542202" lon="10.091204647789356"><ele>830.3333333333333</ele><time>2026-04-04T09:30:50.999Z</time></trkpt><trkpt lat="44.45758204741693" lon="10.091200391536061"><ele>832.1666666666666</ele><time>2026-04-04T09:30:51.999Z</time></trkpt><trkpt lat="44.457664428218784" lon="10.091182850410949"><ele>834.0</ele><time>2026-04-04T09:30:52.999Z</time></trkpt><trkpt lat="44.457753133106635" lon="10.091153038976408"><ele>834.0</ele><time>2026-04-04T09:30:53.999Z</time></trkpt><trkpt lat="44.45786237103516" lon="10.091125640124059"><ele>834.0</ele><time>2026-04-04T09:30:54.999Z</time></trkpt><trkpt lat="44.45798553429024" lon="10.091108896146666"><ele>834.0</ele><time>2026-04-04T09:30:55.999Z</time></trkpt><trkpt lat="44.45810319989859" lon="10.09109993185744"><ele>834.0</ele><time>2026-04-04T09:30:56.999Z</time></trkpt><trkpt lat="44.45821755654523" lon="10.0911082571765"><ele>834.75</ele><time>2026-04-04T09:30:57.999Z</time></trkpt><trkpt lat="44.45832590121618" lon="10.091150269078005"><ele>835.5</ele><time>2026-04-04T09:30:58.999Z</time></trkpt><trkpt lat="44.45844048311469" lon="10.091259727257865"><ele>836.25</ele><time>2026-04-04T09:30:59.999Z</time></trkpt><trkpt lat="44.45854513036876" lon="10.09140549924804"><ele>837.0</ele><time>2026-04-04T09:31:00.999Z</time></trkpt><trkpt lat="44.45865424024408" lon="10.091532322449781"><ele>835.3333333333333</ele><time>2026-04-04T09:31:01.999Z</time></trkpt><trkpt lat="44.45878523630436" lon="10.091632421275428"><ele>833.6666666666666</ele><time>2026-04-04T09:31:02.999Z</time></trkpt><trkpt lat="44.458937462290436" lon="10.09170321467794"><ele>832.0</ele><time>2026-04-04T09:31:03.999Z</time></trkpt><trkpt lat="44.459077144068495" lon="10.091783191206302"><ele>832.0</ele><time>2026-04-04T09:31:04.999Z</time></trkpt><trkpt lat="44.45921254851249" lon="10.09190622267803"><ele>832.0</ele><time>2026-04-04T09:31:05.999Z</time></trkpt><trkpt lat="44.459326990385016" lon="10.092063631991621"><ele>832.0</ele><time>2026-04-04T09:31:06.999Z</time></trkpt><trkpt lat="44.45944607204775" lon="10.092225866124862"><ele>832.0</ele><time>2026-04-04T09:31:07.999Z</time></trkpt><trkpt lat="44.459549239666174" lon="10.092359521059524"><ele>832.0</ele><time>2026-04-04T09:31:08.999Z</time></trkpt><trkpt lat="44.45962266524139" lon="10.09250184647942"><ele>832.0</ele><time>2026-04-04T09:31:09.999Z</time></trkpt><trkpt lat="44.45965626810004" lon="10.092709110044474"><ele>832.0</ele><time>2026-04-04T09:31:10.999Z</time></trkpt><trkpt lat="44.459712212330075" lon="10.092954580198322"><ele>831.3333333333333</ele><time>2026-04-04T09:31:11.999Z</time></trkpt><trkpt lat="44.45975682260738" lon="10.093207321244691"><ele>830.6666666666667</ele><time>2026-04-04T09:31:12.999Z</time></trkpt><trkpt lat="44.45980536359864" lon="10.093446044927742"><ele>830.0</ele><time>2026-04-04T09:31:13.999Z</time></trkpt><trkpt lat="44.459854660818266" lon="10.093689306380265"><ele>827.3333333333334</ele><time>2026-04-04T09:31:14.999Z</time></trkpt><trkpt lat="44.459909403544714" lon="10.093917265930244"><ele>824.6666666666667</ele><time>2026-04-04T09:31:15.999Z</time></trkpt><trkpt lat="44.45997322000928" lon="10.09412532793798"><ele>822.0</ele><time>2026-04-04T09:31:16.999Z</time></trkpt><trkpt lat="44.45999488433552" lon="10.09433838549876"><ele>820.0</ele><time>2026-04-04T09:31:17.999Z</time></trkpt><trkpt lat="44.46000380500543" lon="10.09453786780769"><ele>818.0</ele><time>2026-04-04T09:31:18.999Z</time></trkpt><trkpt lat="44.46003862266983" lon="10.094706381589141"><ele>816.0</ele><time>2026-04-04T09:31:19.999Z</time></trkpt><trkpt lat="44.46008439339844" lon="10.094855645393528"><ele>814.0</ele><time>2026-04-04T09:31:20.999Z</time></trkpt><trkpt lat="44.46016095593255" lon="10.094995239057512"><ele>814.4000000000001</ele><time>2026-04-04T09:31:21.999Z</time></trkpt><trkpt lat="44.46025797342667" lon="10.095119816376322"><ele>814.8</ele><time>2026-04-04T09:31:22.999Z</time></trkpt><trkpt lat="44.46035030994772" lon="10.095226121636657"><ele>815.2</ele><time>2026-04-04T09:31:23.999Z</time></trkpt><trkpt lat="44.460429334276796" lon="10.095320092859172"><ele>815.5999999999999</ele><time>2026-04-04T09:31:24.999Z</time></trkpt><trkpt lat="44.46048814314147" lon="10.095390319536865"><ele>816.0</ele><time>2026-04-04T09:31:25.999Z</time></trkpt><trkpt lat="44.46053657773674" lon="10.095454564112876"><ele>816.0</ele><time>2026-04-04T09:31:26.999Z</time></trkpt><trkpt lat="44.46059603654317" lon="10.095504584477244"><ele>816.0</ele><time>2026-04-04T09:31:27.999Z</time></trkpt><trkpt lat="44.46067463030413" lon="10.095549406434127"><ele>816.0</ele><time>2026-04-04T09:31:28.999Z</time></trkpt><trkpt lat="44.460779009206185" lon="10.09557056617462"><ele>816.0</ele><time>2026-04-04T09:31:30Z</time></trkpt><trkpt lat="44.46090317545397" lon="10.09551807077816"><ele>816.0</ele><time>2026-04-04T09:31:31Z</time></trkpt><trkpt lat="44.4610498306284" lon="10.095465561938639"><ele>816.0</ele><time>2026-04-04T09:31:32Z</time></trkpt><trkpt lat="44.46121185036324" lon="10.095429851960013"><ele>816.0</ele><time>2026-04-04T09:31:33Z</time></trkpt><trkpt lat="44.461364091229406" lon="10.095369191228261"><ele>816.0</ele><time>2026-04-04T09:31:34Z</time></trkpt><trkpt lat="44.46150741059933" lon="10.095313922776855"><ele>813.6666666666667</ele><time>2026-04-04T09:31:35Z</time></trkpt><trkpt lat="44.461640733742925" lon="10.095252673983895"><ele>811.3333333333334</ele><time>2026-04-04T09:31:36Z</time></trkpt><trkpt lat="44.461775554237974" lon="10.095184002879549"><ele>809.0</ele><time>2026-04-04T09:31:37Z</time></trkpt><trkpt lat="44.46193734805015" lon="10.095123160735177"><ele>809.0</ele><time>2026-04-04T09:31:38Z</time></trkpt><trkpt lat="44.462101509823135" lon="10.095042349355106"><ele>809.0</ele><time>2026-04-04T09:31:39Z</time></trkpt><trkpt lat="44.46225411353603" lon="10.094965382636449"><ele>809.0</ele><time>2026-04-04T09:31:40Z</time></trkpt><trkpt lat="44.4623884163587" lon="10.094902743557258"><ele>811.3333333333334</ele><time>2026-04-04T09:31:41Z</time></trkpt><trkpt lat="44.462524560389255" lon="10.094848873593243"><ele>813.6666666666667</ele><time>2026-04-04T09:31:42Z</time></trkpt><trkpt lat="44.46267077093863" lon="10.094773389785878"><ele>816.0</ele><time>2026-04-04T09:31:43Z</time></trkpt><trkpt lat="44.462813524547" lon="10.094674470681062"><ele>816.0</ele><time>2026-04-04T09:31:44Z</time></trkpt><trkpt lat="44.462918432415144" lon="10.094566870296372"><ele>816.0</ele><time>2026-04-04T09:31:45Z</time></trkpt><trkpt lat="44.463088863394844" lon="10.094431273936024"><ele>816.0</ele><time>2026-04-04T09:31:46Z</time></trkpt><trkpt lat="44.46321955315643" lon="10.094333669912531"><ele>818.6666666666667</ele><time>2026-04-04T09:31:47Z</time></trkpt><trkpt lat="44.46337738716833" lon="10.094234291079637"><ele>821.3333333333334</ele><time>2026-04-04T09:31:48Z</time></trkpt><trkpt lat="44.463546187564255" lon="10.09415231191001"><ele>824.0</ele><time>2026-04-04T09:31:49Z</time></trkpt><trkpt lat="44.46368835296222" lon="10.09406408918295"><ele>819.75</ele><time>2026-04-04T09:31:50Z</time></trkpt><trkpt lat="44.463823549611035" lon="10.093975528948391"><ele>815.5</ele><time>2026-04-04T09:31:51Z</time></trkpt><trkpt lat="44.46393733475312" lon="10.093925557638082"><ele>811.25</ele><time>2026-04-04T09:31:52Z</time></trkpt><trkpt lat="44.46404022735414" lon="10.09389360470305"><ele>807.0</ele><time>2026-04-04T09:31:53Z</time></trkpt><trkpt lat="44.464134871963125" lon="10.093850914899726"><ele>807.0</ele><time>2026-04-04T09:31:54Z</time></trkpt><trkpt lat="44.46422128631867" lon="10.093786132846157"><ele>807.0</ele><time>2026-04-04T09:31:55Z</time></trkpt><trkpt lat="44.46430085782417" lon="10.093725765110527"><ele>807.0</ele><time>2026-04-04T09:31:56Z</time></trkpt><trkpt lat="44.46437090031084" lon="10.093682090030487"><ele>807.0</ele><time>2026-04-04T09:31:57Z</time></trkpt><trkpt lat="44.464444770527116" lon="10.09363802376268"><ele>807.0</ele><time>2026-04-04T09:31:58Z</time></trkpt><trkpt lat="44.464522203457776" lon="10.093577531476864"><ele>807.0</ele><time>2026-04-04T09:31:59Z</time></trkpt><trkpt lat="44.464591643473746" lon="10.093492607409715"><ele>802.75</ele><time>2026-04-04T09:32:00Z</time></trkpt><trkpt lat="44.46463356071002" lon="10.093368720635521"><ele>798.5</ele><time>2026-04-04T09:32:01Z</time></trkpt><trkpt lat="44.46465857474243" lon="10.09321061346377"><ele>794.25</ele><time>2026-04-04T09:32:02Z</time></trkpt><trkpt lat="44.464682219452456" lon="10.093046907366217"><ele>790.0</ele><time>2026-04-04T09:32:03Z</time></trkpt><trkpt lat="44.46474718912345" lon="10.092875718604693"><ele>790.0</ele><time>2026-04-04T09:32:04Z</time></trkpt><trkpt lat="44.46483264363308" lon="10.092705789291493"><ele>790.0</ele><time>2026-04-04T09:32:05Z</time></trkpt><trkpt lat="44.464901123153574" lon="10.092537655942767"><ele>790.0</ele><time>2026-04-04T09:32:06Z</time></trkpt><trkpt lat="44.464932328242945" lon="10.09237652416853"><ele>790.0</ele><time>2026-04-04T09:32:07Z</time></trkpt><trkpt lat="44.464950339623044" lon="10.092247057228532"><ele>791.8</ele><time>2026-04-04T09:32:08Z</time></trkpt><trkpt lat="44.46499264781274" lon="10.092150291131942"><ele>793.6</ele><time>2026-04-04T09:32:09Z</time></trkpt><trkpt lat="44.46507130904414" lon="10.092084677289005"><ele>795.4000000000001</ele><time>2026-04-04T09:32:10Z</time></trkpt><trkpt lat="44.465173372740125" lon="10.092039947233804"><ele>797.2</ele><time>2026-04-04T09:32:11Z</time></trkpt><trkpt lat="44.46527446739329" lon="10.09201108396365"><ele>799.0</ele><time>2026-04-04T09:32:12Z</time></trkpt><trkpt lat="44.465372681844514" lon="10.092015514579586"><ele>796.6</ele><time>2026-04-04T09:32:13Z</time></trkpt><trkpt lat="44.46545709194943" lon="10.092075826715034"><ele>794.2</ele><time>2026-04-04T09:32:14Z</time></trkpt><trkpt lat="44.465549626864416" lon="10.092116223297769"><ele>791.8000000000001</ele><time>2026-04-04T09:32:15Z</time></trkpt><trkpt lat="44.465659331745435" lon="10.092086181508586"><ele>789.4000000000001</ele><time>2026-04-04T09:32:16Z</time></trkpt><trkpt lat="44.4657659036303" lon="10.091981244665543"><ele>787.0</ele><time>2026-04-04T09:32:17Z</time></trkpt><trkpt lat="44.465839309780016" lon="10.091815420991155"><ele>787.0</ele><time>2026-04-04T09:32:18Z</time></trkpt><trkpt lat="44.46588112755332" lon="10.091651457112478"><ele>787.0</ele><time>2026-04-04T09:32:19Z</time></trkpt><trkpt lat="44.465940300033694" lon="10.091550033849154"><ele>787.0</ele><time>2026-04-04T09:32:20Z</time></trkpt><trkpt lat="44.46602399802251" lon="10.091508842625647"><ele>787.0</ele><time>2026-04-04T09:32:21Z</time></trkpt><trkpt lat="44.46611953854418" lon="10.0915389786659"><ele>787.0</ele><time>2026-04-04T09:32:22Z</time></trkpt><trkpt lat="44.46620298147841" lon="10.091617883762284"><ele>787.0</ele><time>2026-04-04T09:32:23Z</time></trkpt><trkpt lat="44.46622862072894" lon="10.091778349007589"><ele>787.0</ele><time>2026-04-04T09:32:24Z</time></trkpt><trkpt lat="44.46625360392715" lon="10.091933317040773"><ele>787.0</ele><time>2026-04-04T09:32:25Z</time></trkpt><trkpt lat="44.46629489873034" lon="10.092081782162877"><ele>787.0</ele><time>2026-04-04T09:32:26Z</time></trkpt><trkpt lat="44.46632611450293" lon="10.092247139887059"><ele>789.0</ele><time>2026-04-04T09:32:27Z</time></trkpt><trkpt lat="44.46638306026501" lon="10.092392821098715"><ele>791.0</ele><time>2026-04-04T09:32:28Z</time></trkpt><trkpt lat="44.466480855979704" lon="10.092518159457015"><ele>793.0</ele><time>2026-04-04T09:32:29Z</time></trkpt><trkpt lat="44.466593569957226" lon="10.092636358563487"><ele>795.0</ele><time>2026-04-04T09:32:30Z</time></trkpt><trkpt lat="44.466702665856054" lon="10.092789901919879"><ele>790.75</ele><time>2026-04-04T09:32:31Z</time></trkpt><trkpt lat="44.46675532707358" lon="10.09298887624138"><ele>786.5</ele><time>2026-04-04T09:32:32Z</time></trkpt><trkpt lat="44.466828188207906" lon="10.093141027747404"><ele>782.25</ele><time>2026-04-04T09:32:33Z</time></trkpt><trkpt lat="44.46690291712603" lon="10.093274074683551"><ele>778.0</ele><time>2026-04-04T09:32:34Z</time></trkpt><trkpt lat="44.46701860200857" lon="10.093384134329561"><ele>775.8</ele><time>2026-04-04T09:32:35Z</time></trkpt><trkpt lat="44.46712446886286" lon="10.093454393207493"><ele>773.5999999999999</ele><time>2026-04-04T09:32:36Z</time></trkpt><trkpt lat="44.467206482629315" lon="10.093509454466462"><ele>771.4000000000001</ele><time>2026-04-04T09:32:37Z</time></trkpt><trkpt lat="44.46728381217811" lon="10.093517802751489"><ele>769.2</ele><time>2026-04-04T09:32:38Z</time></trkpt><trkpt lat="44.46735101014894" lon="10.093469968266598"><ele>767.0</ele><time>2026-04-04T09:32:39Z</time></trkpt><trkpt lat="44.46741913142709" lon="10.09336912127635"><ele>769.5</ele><time>2026-04-04T09:32:39.999Z</time></trkpt><trkpt lat="44.46745535152503" lon="10.09321066288376"><ele>772.0</ele><time>2026-04-04T09:32:40.999Z</time></trkpt><trkpt lat="44.46747074496634" lon="10.093025307912782"><ele>774.5</ele><time>2026-04-04T09:32:41.999Z</time></trkpt><trkpt lat="44.46749872741008" lon="10.092851089684695"><ele>777.0</ele><time>2026-04-04T09:32:42.999Z</time></trkpt><trkpt lat="44.46757244296227" lon="10.09267717852166"><ele>777.0</ele><time>2026-04-04T09:32:43.999Z</time></trkpt><trkpt lat="44.467669778714985" lon="10.092526590323404"><ele>777.0</ele><time>2026-04-04T09:32:44.999Z</time></trkpt><trkpt lat="44.46777037095592" lon="10.09241189045172"><ele>777.0</ele><time>2026-04-04T09:32:45.999Z</time></trkpt><trkpt lat="44.467865492711205" lon="10.092342267698065"><ele>777.0</ele><time>2026-04-04T09:32:46.999Z</time></trkpt><trkpt lat="44.46798380966446" lon="10.092310565517405"><ele>774.25</ele><time>2026-04-04T09:32:47.999Z</time></trkpt><trkpt lat="44.468108955259005" lon="10.092287481972075"><ele>771.5</ele><time>2026-04-04T09:32:48.999Z</time></trkpt><trkpt lat="44.46824975038441" lon="10.092242588524629"><ele>768.75</ele><time>2026-04-04T09:32:49.999Z</time></trkpt><trkpt lat="44.46836800435851" lon="10.092179366251486"><ele>766.0</ele><time>2026-04-04T09:32:50.999Z</time></trkpt><trkpt lat="44.46844398410548" lon="10.092052963209758"><ele>766.0</ele><time>2026-04-04T09:32:51.999Z</time></trkpt><trkpt lat="44.46851205662533" lon="10.091930694902993"><ele>766.0</ele><time>2026-04-04T09:32:52.999Z</time></trkpt><trkpt lat="44.4685689234784" lon="10.091813949174123"><ele>766.0</ele><time>2026-04-04T09:32:53.999Z</time></trkpt><trkpt lat="44.46863875235087" lon="10.091759347541327"><ele>766.0</ele><time>2026-04-04T09:32:54.999Z</time></trkpt><trkpt lat="44.46873135723593" lon="10.091750844257056"><ele>766.0</ele><time>2026-04-04T09:32:55.999Z</time></trkpt><trkpt lat="44.468851146738125" lon="10.09180720870561"><ele>766.6666666666667</ele><time>2026-04-04T09:32:56.999Z</time></trkpt><trkpt lat="44.46897778406891" lon="10.091943047178885"><ele>767.3333333333334</ele><time>2026-04-04T09:32:57.999Z</time></trkpt><trkpt lat="44.46913248413171" lon="10.092062022987681"><ele>768.0</ele><time>2026-04-04T09:32:58.999Z</time></trkpt><trkpt lat="44.46929619822787" lon="10.092205870883499"><ele>768.0</ele><time>2026-04-04T09:32:59.999Z</time></trkpt><trkpt lat="44.46946824531312" lon="10.092344114577687"><ele>768.0</ele><time>2026-04-04T09:33:00.999Z</time></trkpt><trkpt lat="44.46962354265777" lon="10.092477900450506"><ele>768.0</ele><time>2026-04-04T09:33:01.999Z</time></trkpt><trkpt lat="44.46976015844328" lon="10.092583982884252"><ele>764.25</ele><time>2026-04-04T09:33:02.999Z</time></trkpt><trkpt lat="44.46988369665428" lon="10.0926821431115"><ele>760.5</ele><time>2026-04-04T09:33:03.999Z</time></trkpt><trkpt lat="44.469999468255295" lon="10.09277244396547"><ele>756.75</ele><time>2026-04-04T09:33:04.999Z</time></trkpt><trkpt lat="44.47012992016974" lon="10.092873215843525"><ele>753.0</ele><time>2026-04-04T09:33:05.999Z</time></trkpt><trkpt lat="44.47025619927001" lon="10.09299673744854"><ele>753.0</ele><time>2026-04-04T09:33:06.999Z</time></trkpt><trkpt lat="44.47036440827939" lon="10.093103189165346"><ele>753.0</ele><time>2026-04-04T09:33:07.999Z</time></trkpt><trkpt lat="44.47045839800336" lon="10.093170783505238"><ele>753.0</ele><time>2026-04-04T09:33:08.999Z</time></trkpt><trkpt lat="44.47056284495659" lon="10.09318596622348"><ele>753.0</ele><time>2026-04-04T09:33:09.999Z</time></trkpt><trkpt lat="44.47069504842987" lon="10.093153234091787"><ele>751.3333333333334</ele><time>2026-04-04T09:33:10.999Z</time></trkpt><trkpt lat="44.47083260681059" lon="10.093053240017758"><ele>749.6666666666667</ele><time>2026-04-04T09:33:11.999Z</time></trkpt><trkpt lat="44.47095294311026" lon="10.092920063639761"><ele>748.0</ele><time>2026-04-04T09:33:12.999Z</time></trkpt><trkpt lat="44.47105735474124" lon="10.092730678362129"><ele>748.0</ele><time>2026-04-04T09:33:13.999Z</time></trkpt><trkpt lat="44.47112730439399" lon="10.092551223795084"><ele>748.0</ele><time>2026-04-04T09:33:14.999Z</time></trkpt><trkpt lat="44.47117474045531" lon="10.092397211344775"><ele>748.0</ele><time>2026-04-04T09:33:15.999Z</time></trkpt><trkpt lat="44.47120522385334" lon="10.092261182956525"><ele>748.0</ele><time>2026-04-04T09:33:16.999Z</time></trkpt><trkpt lat="44.47123194513057" lon="10.092131038988773"><ele>746.4</ele><time>2026-04-04T09:33:17.999Z</time></trkpt><trkpt lat="44.471262846141144" lon="10.092006258961959"><ele>744.8</ele><time>2026-04-04T09:33:18.999Z</time></trkpt><trkpt lat="44.47129745154927" lon="10.0918959506346"><ele>743.2</ele><time>2026-04-04T09:33:19.999Z</time></trkpt><trkpt lat="44.47134650370233" lon="10.091799648768491"><ele>741.6</ele><time>2026-04-04T09:33:20.999Z</time></trkpt><trkpt lat="44.47141279947334" lon="10.09169398556386"><ele>740.0</ele><time>2026-04-04T09:33:21.999Z</time></trkpt><trkpt lat="44.47147123236934" lon="10.091586808017583"><ele>740.0</ele><time>2026-04-04T09:33:22.999Z</time></trkpt><trkpt lat="44.471537814136816" lon="10.091487512083537"><ele>740.0</ele><time>2026-04-04T09:33:23.999Z</time></trkpt><trkpt lat="44.47159578932266" lon="10.091378886526483"><ele>740.0</ele><time>2026-04-04T09:33:24.999Z</time></trkpt><trkpt lat="44.47165025456185" lon="10.091265270964179"><ele>740.0</ele><time>2026-04-04T09:33:25.999Z</time></trkpt><trkpt lat="44.4716932494427" lon="10.091132674652792"><ele>740.0</ele><time>2026-04-04T09:33:26.999Z</time></trkpt><trkpt lat="44.47171602019663" lon="10.090979979904484"><ele>740.0</ele><time>2026-04-04T09:33:27.999Z</time></trkpt><trkpt lat="44.4717093569618" lon="10.090823625379173"><ele>740.0</ele><time>2026-04-04T09:33:28.999Z</time></trkpt><trkpt lat="44.47170182470047" lon="10.090686528434842"><ele>740.0</ele><time>2026-04-04T09:33:29.999Z</time></trkpt><trkpt lat="44.4717114106364" lon="10.090577593043871"><ele>740.0</ele><time>2026-04-04T09:33:30.999Z</time></trkpt><trkpt lat="44.47173951654395" lon="10.09049310929455"><ele>740.0</ele><time>2026-04-04T09:33:31.999Z</time></trkpt><trkpt lat="44.47178242100463" lon="10.09042509584522"><ele>740.0</ele><time>2026-04-04T09:33:44Z</time></trkpt><trkpt lat="44.47173167725777" lon="10.090518124053693"><ele>741.8333333333333</ele><time>2026-04-04T09:33:50Z</time></trkpt><trkpt lat="44.47170954084112" lon="10.090644164538334"><ele>743.6666666666666</ele><time>2026-04-04T09:33:52Z</time></trkpt><trkpt lat="44.471704016973554" lon="10.090740009176717"><ele>745.5</ele><time>2026-04-04T09:34:22Z</time></trkpt><trkpt lat="44.47173562198908" lon="10.090658399171028"><ele>747.3333333333334</ele><time>2026-04-04T09:35:35.999Z</time></trkpt><trkpt lat="44.471743943634834" lon="10.090536100115308"><ele>749.1666666666667</ele><time>2026-04-04T09:35:36.999Z</time></trkpt><trkpt lat="44.47176732011085" lon="10.09040407201344"><ele>751.0</ele><time>2026-04-04T09:35:37.999Z</time></trkpt><trkpt lat="44.471806114247535" lon="10.090312902923047"><ele>751.0</ele><time>2026-04-04T09:35:38.999Z</time></trkpt><trkpt lat="44.47185639011571" lon="10.090175971873961"><ele>751.0</ele><time>2026-04-04T09:35:39.999Z</time></trkpt><trkpt lat="44.471912000642384" lon="10.090041287362078"><ele>751.0</ele><time>2026-04-04T09:35:40.999Z</time></trkpt><trkpt lat="44.47196984107663" lon="10.089939541998627"><ele>751.0</ele><time>2026-04-04T09:35:42Z</time></trkpt><trkpt lat="44.472038578861245" lon="10.089845297122908"><ele>751.0</ele><time>2026-04-04T09:35:43Z</time></trkpt><trkpt lat="44.47211335067227" lon="10.089764895107812"><ele>745.8</ele><time>2026-04-04T09:35:44Z</time></trkpt><trkpt lat="44.47218855203035" lon="10.089696211638367"><ele>740.5999999999999</ele><time>2026-04-04T09:35:45Z</time></trkpt><trkpt lat="44.472254557108" lon="10.08963753924705"><ele>735.4</ele><time>2026-04-04T09:35:46Z</time></trkpt><trkpt lat="44.472332113031605" lon="10.08955898000387"><ele>730.2</ele><time>2026-04-04T09:35:47Z</time></trkpt><trkpt lat="44.47237989545969" lon="10.089443647727542"><ele>725.0</ele><time>2026-04-04T09:35:48Z</time></trkpt><trkpt lat="44.47243079634287" lon="10.08932694442039"><ele>725.0</ele><time>2026-04-04T09:35:49Z</time></trkpt><trkpt lat="44.47246679927525" lon="10.089200532938618"><ele>725.0</ele><time>2026-04-04T09:35:50Z</time></trkpt><trkpt lat="44.47248241096094" lon="10.089082258739872"><ele>725.0</ele><time>2026-04-04T09:35:51Z</time></trkpt><trkpt lat="44.4724970291291" lon="10.088950699145146"><ele>725.0</ele><time>2026-04-04T09:35:52Z</time></trkpt><trkpt lat="44.472529003647594" lon="10.08880921376362"><ele>725.0</ele><time>2026-04-04T09:35:53Z</time></trkpt><trkpt lat="44.47257172141222" lon="10.088666955131917"><ele>726.75</ele><time>2026-04-04T09:35:54Z</time></trkpt><trkpt lat="44.4726126643624" lon="10.088514485434755"><ele>728.5</ele><time>2026-04-04T09:35:55Z</time></trkpt><trkpt lat="44.472646315497414" lon="10.088359923111993"><ele>730.25</ele><time>2026-04-04T09:35:56Z</time></trkpt><trkpt lat="44.47268634379634" lon="10.088206177528585"><ele>732.0</ele><time>2026-04-04T09:35:57Z</time></trkpt><trkpt lat="44.472736305946285" lon="10.088059745088668"><ele>732.2</ele><time>2026-04-04T09:35:58Z</time></trkpt><trkpt lat="44.4727963257599" lon="10.087929860353283"><ele>732.4000000000001</ele><time>2026-04-04T09:35:59Z</time></trkpt><trkpt lat="44.472854335903264" lon="10.087794295563345"><ele>732.5999999999999</ele><time>2026-04-04T09:36:00Z</time></trkpt><trkpt lat="44.472902224601235" lon="10.087664612250729"><ele>732.8</ele><time>2026-04-04T09:36:01Z</time></trkpt><trkpt lat="44.47293397038639" lon="10.087537639376986"><ele>733.0</ele><time>2026-04-04T09:36:02Z</time></trkpt><trkpt lat="44.472966534042065" lon="10.087415414502765"><ele>729.4</ele><time>2026-04-04T09:36:03Z</time></trkpt><trkpt lat="44.472992381800445" lon="10.08729919526452"><ele>725.8</ele><time>2026-04-04T09:36:04Z</time></trkpt><trkpt lat="44.473022635774825" lon="10.087175633145677"><ele>722.2</ele><time>2026-04-04T09:36:06Z</time></trkpt><trkpt lat="44.47313624081238" lon="10.087270891817594"><ele>718.6</ele><time>2026-04-04T09:36:10Z</time></trkpt><trkpt lat="44.473130621189895" lon="10.08741792861973"><ele>715.0</ele><time>2026-04-04T09:36:11Z</time></trkpt><trkpt lat="44.47311619297772" lon="10.087588443507217"><ele>715.0</ele><time>2026-04-04T09:36:12Z</time></trkpt><trkpt lat="44.47311313998369" lon="10.087716268393006"><ele>715.0</ele><time>2026-04-04T09:36:13Z</time></trkpt><trkpt lat="44.47309412526633" lon="10.087845467667341"><ele>715.0</ele><time>2026-04-04T09:36:14Z</time></trkpt><trkpt lat="44.473074762957765" lon="10.087939097060307"><ele>715.0</ele><time>2026-04-04T09:36:15Z</time></trkpt><trkpt lat="44.473037962619614" lon="10.088031943536658"><ele>715.0</ele><time>2026-04-04T09:36:16Z</time></trkpt><trkpt lat="44.47300269701088" lon="10.088231087358112"><ele>713.6</ele><time>2026-04-04T09:36:18Z</time></trkpt><trkpt lat="44.47297525194167" lon="10.088358115732559"><ele>712.2</ele><time>2026-04-04T09:36:19Z</time></trkpt><trkpt lat="44.47295482833524" lon="10.088475154968547"><ele>710.8</ele><time>2026-04-04T09:36:20Z</time></trkpt><trkpt lat="44.472977738500724" lon="10.088582436721698"><ele>709.4</ele><time>2026-04-04T09:36:21Z</time></trkpt><trkpt lat="44.473033098434755" lon="10.08866736459992"><ele>708.0</ele><time>2026-04-04T09:36:22Z</time></trkpt><trkpt lat="44.47314284274964" lon="10.088661714833053"><ele>708.0</ele><time>2026-04-04T09:36:23Z</time></trkpt><trkpt lat="44.47322086094701" lon="10.088622732927293"><ele>708.0</ele><time>2026-04-04T09:36:24Z</time></trkpt><trkpt lat="44.473265510996576" lon="10.08850062574872"><ele>708.0</ele><time>2026-04-04T09:36:25Z</time></trkpt><trkpt lat="44.47327612849298" lon="10.088362804811588"><ele>708.0</ele><time>2026-04-04T09:36:26Z</time></trkpt><trkpt lat="44.473275081783015" lon="10.088203569093094"><ele>708.0</ele><time>2026-04-04T09:36:27Z</time></trkpt><trkpt lat="44.47330366243286" lon="10.08807468834748"><ele>708.0</ele><time>2026-04-04T09:36:28Z</time></trkpt><trkpt lat="44.4733720471104" lon="10.088023709194653"><ele>708.0</ele><time>2026-04-04T09:36:29Z</time></trkpt><trkpt lat="44.4734835329105" lon="10.088070248676994"><ele>708.0</ele><time>2026-04-04T09:36:30Z</time></trkpt><trkpt lat="44.47358715096778" lon="10.088190886701982"><ele>708.0</ele><time>2026-04-04T09:36:31Z</time></trkpt><trkpt lat="44.47370698505306" lon="10.088316936302876"><ele>707.0</ele><time>2026-04-04T09:36:32Z</time></trkpt><trkpt lat="44.4738116013443" lon="10.088428812437561"><ele>706.0</ele><time>2026-04-04T09:36:33Z</time></trkpt><trkpt lat="44.473937196263954" lon="10.088515122172707"><ele>705.0</ele><time>2026-04-04T09:36:34Z</time></trkpt><trkpt lat="44.47408379326898" lon="10.088552617094862"><ele>704.0</ele><time>2026-04-04T09:36:35Z</time></trkpt><trkpt lat="44.474224829270746" lon="10.088600875876049"><ele>704.0</ele><time>2026-04-04T09:36:36Z</time></trkpt><trkpt lat="44.47432983516466" lon="10.088699323671213"><ele>704.0</ele><time>2026-04-04T09:36:37Z</time></trkpt><trkpt lat="44.47443207108517" lon="10.088788759137008"><ele>704.0</ele><time>2026-04-04T09:36:38Z</time></trkpt><trkpt lat="44.47452055448686" lon="10.088860280054606"><ele>704.0</ele><time>2026-04-04T09:36:39Z</time></trkpt><trkpt lat="44.474620386850745" lon="10.088859933876659"><ele>704.0</ele><time>2026-04-04T09:36:40Z</time></trkpt><trkpt lat="44.47474038009942" lon="10.088803309660355"><ele>702.5</ele><time>2026-04-04T09:36:41Z</time></trkpt><trkpt lat="44.4748742166477" lon="10.088728037882179"><ele>701.0</ele><time>2026-04-04T09:36:42Z</time></trkpt><trkpt lat="44.47499479243251" lon="10.08867704619713"><ele>699.5</ele><time>2026-04-04T09:36:43Z</time></trkpt><trkpt lat="44.475095624614084" lon="10.088623419328979"><ele>698.0</ele><time>2026-04-04T09:36:44Z</time></trkpt><trkpt lat="44.475192035613105" lon="10.088569579017209"><ele>698.0</ele><time>2026-04-04T09:36:45Z</time></trkpt><trkpt lat="44.47527891207474" lon="10.088517333175451"><ele>698.0</ele><time>2026-04-04T09:36:46Z</time></trkpt><trkpt lat="44.47538101631359" lon="10.088509487627624"><ele>698.0</ele><time>2026-04-04T09:36:47.999Z</time></trkpt><trkpt lat="44.47544325463887" lon="10.08856925363863"><ele>698.0</ele><time>2026-04-04T09:36:49.999Z</time></trkpt><trkpt lat="44.475398545383456" lon="10.088660943559569"><ele>698.0</ele><time>2026-04-04T09:36:51.999Z</time></trkpt><trkpt lat="44.475359093307304" lon="10.088733098900757"><ele>698.0</ele><time>2026-04-04T09:36:52.999Z</time></trkpt><trkpt lat="44.47533310171156" lon="10.088821954244597"><ele>698.0</ele><time>2026-04-04T09:36:53.999Z</time></trkpt><trkpt lat="44.475308105547704" lon="10.088925667963512"><ele>698.0</ele><time>2026-04-04T09:36:55.999Z</time></trkpt><trkpt lat="44.47515793342258" lon="10.088866868367786"><ele>698.0</ele><time>2026-04-04T09:36:59.999Z</time></trkpt><trkpt lat="44.4750327841914" lon="10.088890833509335"><ele>698.0</ele><time>2026-04-04T09:37:01.999Z</time></trkpt><trkpt lat="44.47497234046313" lon="10.088918605044912"><ele>698.0</ele><time>2026-04-04T09:37:02.999Z</time></trkpt><trkpt lat="44.474857988968786" lon="10.088952726965172"><ele>698.0</ele><time>2026-04-04T09:37:04.999Z</time></trkpt><trkpt lat="44.474795280397856" lon="10.088974952557216"><ele>698.0</ele><time>2026-04-04T09:37:05.999Z</time></trkpt><trkpt lat="44.47472939167573" lon="10.0889910173152"><ele>698.0</ele><time>2026-04-04T09:37:06.999Z</time></trkpt><trkpt lat="44.474654601581854" lon="10.089022378312634"><ele>698.0</ele><time>2026-04-04T09:37:07.999Z</time></trkpt><trkpt lat="44.47455994398835" lon="10.089079214177186"><ele>698.0</ele><time>2026-04-04T09:37:08.999Z</time></trkpt><trkpt lat="44.47445715637634" lon="10.089127833593073"><ele>698.0</ele><time>2026-04-04T09:37:09.999Z</time></trkpt><trkpt lat="44.47436004256569" lon="10.089158876405051"><ele>695.75</ele><time>2026-04-04T09:37:10.999Z</time></trkpt><trkpt lat="44.47426240158593" lon="10.089189516717191"><ele>693.5</ele><time>2026-04-04T09:37:11.999Z</time></trkpt><trkpt lat="44.47415726570847" lon="10.089194464401352"><ele>691.25</ele><time>2026-04-04T09:37:12.999Z</time></trkpt><trkpt lat="44.4740399246818" lon="10.089160126893143"><ele>689.0</ele><time>2026-04-04T09:37:13.999Z</time></trkpt><trkpt lat="44.473907118827306" lon="10.089133999633434"><ele>689.0</ele><time>2026-04-04T09:37:14.999Z</time></trkpt><trkpt lat="44.47380808954264" lon="10.08914848051536"><ele>689.0</ele><time>2026-04-04T09:37:15.999Z</time></trkpt><trkpt lat="44.47368874402876" lon="10.089217564508216"><ele>689.0</ele><time>2026-04-04T09:37:16.999Z</time></trkpt><trkpt lat="44.47356598385195" lon="10.089309971971911"><ele>689.0</ele><time>2026-04-04T09:37:17.999Z</time></trkpt><trkpt lat="44.47345057413703" lon="10.089386911199371"><ele>690.25</ele><time>2026-04-04T09:37:18.999Z</time></trkpt><trkpt lat="44.473346642413304" lon="10.089459690727438"><ele>691.5</ele><time>2026-04-04T09:37:19.999Z</time></trkpt><trkpt lat="44.473260209348844" lon="10.089553597417748"><ele>692.75</ele><time>2026-04-04T09:37:20.999Z</time></trkpt><trkpt lat="44.47319260236126" lon="10.08967441414787"><ele>694.0</ele><time>2026-04-04T09:37:21.999Z</time></trkpt><trkpt lat="44.47314356431849" lon="10.089836537756543"><ele>690.5</ele><time>2026-04-04T09:37:22.999Z</time></trkpt><trkpt lat="44.47309981579138" lon="10.08999394368392"><ele>687.0</ele><time>2026-04-04T09:37:23.999Z</time></trkpt><trkpt lat="44.47308721112987" lon="10.090167037913586"><ele>683.5</ele><time>2026-04-04T09:37:24.999Z</time></trkpt><trkpt lat="44.47309857295973" lon="10.090335821661307"><ele>680.0</ele><time>2026-04-04T09:37:25.999Z</time></trkpt><trkpt lat="44.47313630509407" lon="10.090541415911128"><ele>680.0</ele><time>2026-04-04T09:37:26.999Z</time></trkpt><trkpt lat="44.47313452137091" lon="10.090724728832004"><ele>680.0</ele><time>2026-04-04T09:37:27.999Z</time></trkpt><trkpt lat="44.473111888377304" lon="10.090899255302663"><ele>680.0</ele><time>2026-04-04T09:37:28.999Z</time></trkpt><trkpt lat="44.47308031645358" lon="10.091123493733006"><ele>680.0</ele><time>2026-04-04T09:37:29.999Z</time></trkpt><trkpt lat="44.47305514653388" lon="10.09133246196344"><ele>677.6666666666666</ele><time>2026-04-04T09:37:30.999Z</time></trkpt><trkpt lat="44.47304040537821" lon="10.091541576791085"><ele>675.3333333333334</ele><time>2026-04-04T09:37:31.999Z</time></trkpt><trkpt lat="44.47304824722047" lon="10.091761741522141"><ele>673.0</ele><time>2026-04-04T09:37:32.999Z</time></trkpt><trkpt lat="44.47306929098207" lon="10.091974779561461"><ele>672.0</ele><time>2026-04-04T09:37:33.999Z</time></trkpt><trkpt lat="44.47307595332367" lon="10.092171441190182"><ele>671.0</ele><time>2026-04-04T09:37:34.999Z</time></trkpt><trkpt lat="44.47304334721284" lon="10.092344671047206"><ele>670.0</ele><time>2026-04-04T09:37:35.999Z</time></trkpt><trkpt lat="44.47300379147668" lon="10.092522512954147"><ele>669.0</ele><time>2026-04-04T09:37:36.999Z</time></trkpt><trkpt lat="44.47299560383501" lon="10.09270706949317"><ele>669.0</ele><time>2026-04-04T09:37:37.999Z</time></trkpt><trkpt lat="44.47304399676909" lon="10.092896926725032"><ele>669.0</ele><time>2026-04-04T09:37:38.999Z</time></trkpt><trkpt lat="44.47307856712266" lon="10.093081402048918"><ele>669.0</ele><time>2026-04-04T09:37:39.999Z</time></trkpt><trkpt lat="44.47311480138477" lon="10.093193652458767"><ele>669.0</ele><time>2026-04-04T09:37:40.999Z</time></trkpt><trkpt lat="44.4731660032893" lon="10.093274924144104"><ele>669.0</ele><time>2026-04-04T09:37:41.999Z</time></trkpt><trkpt lat="44.47324254553439" lon="10.093300585540748"><ele>669.0</ele><time>2026-04-04T09:37:42.999Z</time></trkpt><trkpt lat="44.47331729921698" lon="10.093244874694525"><ele>669.0</ele><time>2026-04-04T09:37:43.999Z</time></trkpt><trkpt lat="44.473351807587214" lon="10.093118248770379"><ele>669.0</ele><time>2026-04-04T09:37:44.999Z</time></trkpt><trkpt lat="44.47332481291351" lon="10.092972008319274"><ele>669.0</ele><time>2026-04-04T09:37:45.999Z</time></trkpt><trkpt lat="44.47327644675694" lon="10.092799340995239"><ele>669.0</ele><time>2026-04-04T09:37:46.999Z</time></trkpt><trkpt lat="44.47326470970586" lon="10.092605664841729"><ele>669.0</ele><time>2026-04-04T09:37:48Z</time></trkpt><trkpt lat="44.47327155496112" lon="10.092390949478911"><ele>669.0</ele><time>2026-04-04T09:37:49Z</time></trkpt><trkpt lat="44.47328309157317" lon="10.092161927306119"><ele>669.0</ele><time>2026-04-04T09:37:50Z</time></trkpt><trkpt lat="44.473279598111766" lon="10.09193334101196"><ele>669.0</ele><time>2026-04-04T09:37:51Z</time></trkpt><trkpt lat="44.47330376246907" lon="10.0917039247601"><ele>669.0</ele><time>2026-04-04T09:37:52Z</time></trkpt><trkpt lat="44.47330252763944" lon="10.091518709244005"><ele>669.0</ele><time>2026-04-04T09:37:53Z</time></trkpt><trkpt lat="44.473319043740936" lon="10.091380637788411"><ele>669.0</ele><time>2026-04-04T09:37:54Z</time></trkpt><trkpt lat="44.47333283670949" lon="10.091263809344976"><ele>669.0</ele><time>2026-04-04T09:37:55Z</time></trkpt><trkpt lat="44.47338406015358" lon="10.091205033254159"><ele>669.0</ele><time>2026-04-04T09:37:56Z</time></trkpt><trkpt lat="44.473465522570415" lon="10.091223045165542"><ele>669.0</ele><time>2026-04-04T09:37:57Z</time></trkpt><trkpt lat="44.47350862188627" lon="10.091315854937054"><ele>669.0</ele><time>2026-04-04T09:37:58Z</time></trkpt><trkpt lat="44.4734969177663" lon="10.091489210792124"><ele>669.0</ele><time>2026-04-04T09:37:59Z</time></trkpt><trkpt lat="44.47348965056481" lon="10.091695205432972"><ele>669.0</ele><time>2026-04-04T09:38:00Z</time></trkpt><trkpt lat="44.47349709721659" lon="10.091923977664926"><ele>669.0</ele><time>2026-04-04T09:38:01Z</time></trkpt><trkpt lat="44.47349307784849" lon="10.09214850497014"><ele>669.0</ele><time>2026-04-04T09:38:02Z</time></trkpt><trkpt lat="44.47349514795817" lon="10.092355924607224"><ele>669.0</ele><time>2026-04-04T09:38:03Z</time></trkpt><trkpt lat="44.473502476844224" lon="10.092565911476514"><ele>669.0</ele><time>2026-04-04T09:38:04Z</time></trkpt><trkpt lat="44.47350394981135" lon="10.092747161390623"><ele>669.0</ele><time>2026-04-04T09:38:05Z</time></trkpt><trkpt lat="44.47353320854077" lon="10.092938952695823"><ele>669.0</ele><time>2026-04-04T09:38:06Z</time></trkpt><trkpt lat="44.47360098560472" lon="10.09312919454566"><ele>668.5</ele><time>2026-04-04T09:38:07Z</time></trkpt><trkpt lat="44.47365298931837" lon="10.093301801620692"><ele>668.0</ele><time>2026-04-04T09:38:08Z</time></trkpt><trkpt lat="44.47361798476524" lon="10.093456308709786"><ele>667.5</ele><time>2026-04-04T09:38:09Z</time></trkpt><trkpt lat="44.47354802084722" lon="10.093582931075703"><ele>667.0</ele><time>2026-04-04T09:38:10Z</time></trkpt><trkpt lat="44.4734441659254" lon="10.09375444816624"><ele>667.0</ele><time>2026-04-04T09:38:11Z</time></trkpt><trkpt lat="44.473345890787435" lon="10.093935779469717"><ele>667.0</ele><time>2026-04-04T09:38:12Z</time></trkpt><trkpt lat="44.47323798585638" lon="10.09410576833718"><ele>667.0</ele><time>2026-04-04T09:38:13Z</time></trkpt><trkpt lat="44.473132515108496" lon="10.094262575992108"><ele>670.6666666666667</ele><time>2026-04-04T09:38:14Z</time></trkpt><trkpt lat="44.47304557230963" lon="10.094429378089613"><ele>674.3333333333334</ele><time>2026-04-04T09:38:15Z</time></trkpt><trkpt lat="44.47296687444146" lon="10.094612486891595"><ele>678.0</ele><time>2026-04-04T09:38:16Z</time></trkpt><trkpt lat="44.47292681006467" lon="10.094822073863373"><ele>672.0</ele><time>2026-04-04T09:38:17Z</time></trkpt><trkpt lat="44.47285331701754" lon="10.09497848408524"><ele>666.0</ele><time>2026-04-04T09:38:18Z</time></trkpt><trkpt lat="44.472789890176706" lon="10.095103485047511"><ele>660.0</ele><time>2026-04-04T09:38:19Z</time></trkpt><trkpt lat="44.472688397708765" lon="10.095184242490568"><ele>654.0</ele><time>2026-04-04T09:38:20Z</time></trkpt><trkpt lat="44.47255703001199" lon="10.095237259673153"><ele>654.0</ele><time>2026-04-04T09:38:21Z</time></trkpt><trkpt lat="44.47242096974777" lon="10.095215104161515"><ele>654.0</ele><time>2026-04-04T09:38:22Z</time></trkpt><trkpt lat="44.472273924125325" lon="10.095170419641772"><ele>654.0</ele><time>2026-04-04T09:38:23Z</time></trkpt><trkpt lat="44.47214226106627" lon="10.095114889067473"><ele>654.0</ele><time>2026-04-04T09:38:24Z</time></trkpt><trkpt lat="44.472018751580514" lon="10.095155311554048"><ele>657.0</ele><time>2026-04-04T09:38:25Z</time></trkpt><trkpt lat="44.471905266790145" lon="10.095297549619112"><ele>660.0</ele><time>2026-04-04T09:38:26Z</time></trkpt><trkpt lat="44.47178528121797" lon="10.095463262369691"><ele>663.0</ele><time>2026-04-04T09:38:27Z</time></trkpt><trkpt lat="44.47162072413696" lon="10.095519041921676"><ele>663.0</ele><time>2026-04-04T09:38:28Z</time></trkpt><trkpt lat="44.47141917980738" lon="10.095537013702698"><ele>663.0</ele><time>2026-04-04T09:38:29Z</time></trkpt><trkpt lat="44.47124066516486" lon="10.095547743070705"><ele>663.0</ele><time>2026-04-04T09:38:30Z</time></trkpt><trkpt lat="44.47104931827331" lon="10.095554555921433"><ele>666.0</ele><time>2026-04-04T09:38:31Z</time></trkpt><trkpt lat="44.47082854988553" lon="10.095592461067676"><ele>669.0</ele><time>2026-04-04T09:38:32Z</time></trkpt><trkpt lat="44.47060495053533" lon="10.095632475207793"><ele>672.0</ele><time>2026-04-04T09:38:33Z</time></trkpt><trkpt lat="44.47037634689402" lon="10.09572911249721"><ele>661.3333333333334</ele><time>2026-04-04T09:38:34Z</time></trkpt><trkpt lat="44.47016143617098" lon="10.095781482540433"><ele>650.6666666666667</ele><time>2026-04-04T09:38:35Z</time></trkpt><trkpt lat="44.4699652826541" lon="10.095861992936557"><ele>640.0</ele><time>2026-04-04T09:38:36Z</time></trkpt><trkpt lat="44.46978197484879" lon="10.095909762196385"><ele>640.0</ele><time>2026-04-04T09:38:37Z</time></trkpt><trkpt lat="44.46964009426665" lon="10.095958627957533"><ele>640.0</ele><time>2026-04-04T09:38:38Z</time></trkpt><trkpt lat="44.4695267736537" lon="10.09602503685881"><ele>640.0</ele><time>2026-04-04T09:38:39Z</time></trkpt><trkpt lat="44.46941325866121" lon="10.096179744829833"><ele>640.0</ele><time>2026-04-04T09:38:40Z</time></trkpt><trkpt lat="44.46926107577708" lon="10.096352302465089"><ele>636.6666666666667</ele><time>2026-04-04T09:38:41Z</time></trkpt><trkpt lat="44.46907773039381" lon="10.096494658946591"><ele>633.3333333333334</ele><time>2026-04-04T09:38:42Z</time></trkpt><trkpt lat="44.468897451957126" lon="10.096645218425694"><ele>630.0</ele><time>2026-04-04T09:38:43Z</time></trkpt><trkpt lat="44.46875702605275" lon="10.096766664869397"><ele>640.6666666666666</ele><time>2026-04-04T09:38:44Z</time></trkpt><trkpt lat="44.46864460650046" lon="10.096964787140642"><ele>651.3333333333333</ele><time>2026-04-04T09:38:45Z</time></trkpt><trkpt lat="44.46856097428666" lon="10.097185005096597"><ele>662.0</ele><time>2026-04-04T09:38:46Z</time></trkpt><trkpt lat="44.46849366876606" lon="10.09737866997444"><ele>653.25</ele><time>2026-04-04T09:38:47Z</time></trkpt><trkpt lat="44.46845888562311" lon="10.09751456043147"><ele>644.5</ele><time>2026-04-04T09:38:48Z</time></trkpt><trkpt lat="44.46846380080189" lon="10.097642718527247"><ele>635.75</ele><time>2026-04-04T09:38:49Z</time></trkpt><trkpt lat="44.46851904771946" lon="10.097785360227581"><ele>627.0</ele><time>2026-04-04T09:38:50Z</time></trkpt><trkpt lat="44.4686355412607" lon="10.097958607867692"><ele>627.0</ele><time>2026-04-04T09:38:51Z</time></trkpt><trkpt lat="44.46875175266781" lon="10.098139320754825"><ele>627.0</ele><time>2026-04-04T09:38:52Z</time></trkpt><trkpt lat="44.4688486323575" lon="10.098316779519488"><ele>627.0</ele><time>2026-04-04T09:38:53Z</time></trkpt><trkpt lat="44.468924443633895" lon="10.09844859772144"><ele>624.5</ele><time>2026-04-04T09:38:54Z</time></trkpt><trkpt lat="44.469008805970276" lon="10.098530612143158"><ele>622.0</ele><time>2026-04-04T09:38:55Z</time></trkpt><trkpt lat="44.46911820049947" lon="10.09856096264688"><ele>619.5</ele><time>2026-04-04T09:38:56Z</time></trkpt><trkpt lat="44.46924019499855" lon="10.098512471667162"><ele>617.0</ele><time>2026-04-04T09:38:56.999Z</time></trkpt><trkpt lat="44.46934731433919" lon="10.098403156483489"><ele>614.3333333333333</ele><time>2026-04-04T09:38:57.999Z</time></trkpt><trkpt lat="44.4694360043626" lon="10.098228213047152"><ele>611.6666666666666</ele><time>2026-04-04T09:38:58.999Z</time></trkpt><trkpt lat="44.469505074082164" lon="10.097989587494448"><ele>609.0</ele><time>2026-04-04T09:38:59.999Z</time></trkpt><trkpt lat="44.46956306285871" lon="10.09778621689909"><ele>609.25</ele><time>2026-04-04T09:39:00.999Z</time></trkpt><trkpt lat="44.4696449519193" lon="10.097680424507747"><ele>609.5</ele><time>2026-04-04T09:39:01.999Z</time></trkpt><trkpt lat="44.46977813958213" lon="10.097560906783015"><ele>609.75</ele><time>2026-04-04T09:39:02.999Z</time></trkpt><trkpt lat="44.46992586761203" lon="10.097470719971941"><ele>610.0</ele><time>2026-04-04T09:39:03.999Z</time></trkpt><trkpt lat="44.47008352419591" lon="10.097350023167772"><ele>610.0</ele><time>2026-04-04T09:39:04.999Z</time></trkpt><trkpt lat="44.470226446479906" lon="10.097209870441372"><ele>610.0</ele><time>2026-04-04T09:39:05.999Z</time></trkpt><trkpt lat="44.47036252446247" lon="10.097077976986723"><ele>610.0</ele><time>2026-04-04T09:39:06.999Z</time></trkpt><trkpt lat="44.47052856118059" lon="10.09696975067663"><ele>609.0</ele><time>2026-04-04T09:39:07.999Z</time></trkpt><trkpt lat="44.47066021938781" lon="10.096918342463416"><ele>608.0</ele><time>2026-04-04T09:39:08.999Z</time></trkpt><trkpt lat="44.47076573223914" lon="10.096908046132983"><ele>607.0</ele><time>2026-04-04T09:39:09.999Z</time></trkpt><trkpt lat="44.47091361120696" lon="10.096943369059773"><ele>606.0</ele><time>2026-04-04T09:39:10.999Z</time></trkpt><trkpt lat="44.471067145649506" lon="10.097012642260093"><ele>606.0</ele><time>2026-04-04T09:39:11.999Z</time></trkpt><trkpt lat="44.47121545519646" lon="10.09710281651337"><ele>606.0</ele><time>2026-04-04T09:39:12.999Z</time></trkpt><trkpt lat="44.471342462498555" lon="10.09722071324822"><ele>606.0</ele><time>2026-04-04T09:39:13.999Z</time></trkpt><trkpt lat="44.471477445585435" lon="10.097302560927506"><ele>605.6</ele><time>2026-04-04T09:39:14.999Z</time></trkpt><trkpt lat="44.47157481416947" lon="10.097393864520011"><ele>605.2</ele><time>2026-04-04T09:39:15.999Z</time></trkpt><trkpt lat="44.47165530119527" lon="10.097467054119448"><ele>604.8</ele><time>2026-04-04T09:39:16.999Z</time></trkpt><trkpt lat="44.47172741143546" lon="10.09754446472587"><ele>604.4</ele><time>2026-04-04T09:39:17.999Z</time></trkpt><trkpt lat="44.471778939651756" lon="10.09766688436492"><ele>604.0</ele><time>2026-04-04T09:39:18.999Z</time></trkpt><trkpt lat="44.47184837510446" lon="10.097784423094668"><ele>604.75</ele><time>2026-04-04T09:39:19.999Z</time></trkpt><trkpt lat="44.47191789474707" lon="10.097918097004074"><ele>605.5</ele><time>2026-04-04T09:39:20.999Z</time></trkpt><trkpt lat="44.471981985692324" lon="10.09804244259493"><ele>606.25</ele><time>2026-04-04T09:39:21.999Z</time></trkpt><trkpt lat="44.472045747785366" lon="10.098184952017744"><ele>607.0</ele><time>2026-04-04T09:39:22.999Z</time></trkpt><trkpt lat="44.472128157879865" lon="10.098320088857177"><ele>607.0</ele><time>2026-04-04T09:39:23.999Z</time></trkpt><trkpt lat="44.47225124009024" lon="10.098430055957774"><ele>607.0</ele><time>2026-04-04T09:39:24.999Z</time></trkpt><trkpt lat="44.47243021015611" lon="10.098567834016611"><ele>607.0</ele><time>2026-04-04T09:39:25.999Z</time></trkpt><trkpt lat="44.47262378715974" lon="10.0986449782676"><ele>607.0</ele><time>2026-04-04T09:39:26.999Z</time></trkpt><trkpt lat="44.47281124420999" lon="10.098748205023703"><ele>607.0</ele><time>2026-04-04T09:39:27.999Z</time></trkpt><trkpt lat="44.47296927667604" lon="10.098900103330301"><ele>607.0</ele><time>2026-04-04T09:39:28.999Z</time></trkpt><trkpt lat="44.473124028734894" lon="10.09901081696979"><ele>603.6666666666667</ele><time>2026-04-04T09:39:29.999Z</time></trkpt><trkpt lat="44.473291917300884" lon="10.099065876380383"><ele>600.3333333333334</ele><time>2026-04-04T09:39:30.999Z</time></trkpt><trkpt lat="44.47347546303041" lon="10.09903778583169"><ele>597.0</ele><time>2026-04-04T09:39:31.999Z</time></trkpt><trkpt lat="44.47366582121031" lon="10.09890732747141"><ele>602.5</ele><time>2026-04-04T09:39:32.999Z</time></trkpt><trkpt lat="44.47386990132164" lon="10.098706044679536"><ele>608.0</ele><time>2026-04-04T09:39:33.999Z</time></trkpt><trkpt lat="44.47411284213654" lon="10.098480998932748"><ele>608.0</ele><time>2026-04-04T09:39:34.999Z</time></trkpt><trkpt lat="44.474298371181426" lon="10.098283349968614"><ele>608.0</ele><time>2026-04-04T09:39:35.999Z</time></trkpt><trkpt lat="44.47449496719986" lon="10.09809157089353"><ele>604.0</ele><time>2026-04-04T09:39:36.999Z</time></trkpt><trkpt lat="44.47469822613872" lon="10.097828712292712"><ele>600.0</ele><time>2026-04-04T09:39:37.999Z</time></trkpt><trkpt lat="44.474938450644146" lon="10.097609547318799"><ele>600.0</ele><time>2026-04-04T09:39:38.999Z</time></trkpt><trkpt lat="44.47500103370329" lon="10.097543292733626"><ele>600.0</ele><time>2026-04-04T09:39:39.999Z</time></trkpt><trkpt lat="44.47518410536295" lon="10.097434714315584"><ele>600.0</ele><time>2026-04-04T09:39:40.999Z</time></trkpt><trkpt lat="44.475360835911665" lon="10.097358402184575"><ele>598.0</ele><time>2026-04-04T09:39:41.999Z</time></trkpt><trkpt lat="44.47551784924564" lon="10.097259833709451"><ele>596.0</ele><time>2026-04-04T09:39:42.999Z</time></trkpt><trkpt lat="44.47562986532698" lon="10.097089974968656"><ele>594.0</ele><time>2026-04-04T09:39:43.999Z</time></trkpt><trkpt lat="44.47573335414837" lon="10.096899989557173"><ele>594.0</ele><time>2026-04-04T09:39:44.999Z</time></trkpt><trkpt lat="44.47584991979475" lon="10.096689559706544"><ele>594.0</ele><time>2026-04-04T09:39:45.999Z</time></trkpt><trkpt lat="44.47597574797973" lon="10.096515802023315"><ele>594.0</ele><time>2026-04-04T09:39:46.999Z</time></trkpt><trkpt lat="44.47614117926629" lon="10.096412379095565"><ele>593.3333333333334</ele><time>2026-04-04T09:39:47.999Z</time></trkpt><trkpt lat="44.476320925237424" lon="10.096306454565262"><ele>592.6666666666667</ele><time>2026-04-04T09:39:48.999Z</time></trkpt><trkpt lat="44.476529239134194" lon="10.096285710615035"><ele>592.0</ele><time>2026-04-04T09:39:49.999Z</time></trkpt><trkpt lat="44.47674141976271" lon="10.096274410134715"><ele>592.0</ele><time>2026-04-04T09:39:50.999Z</time></trkpt><trkpt lat="44.47694810139693" lon="10.096255394239284"><ele>592.0</ele><time>2026-04-04T09:39:51.999Z</time></trkpt><trkpt lat="44.47713937244858" lon="10.096196379515279"><ele>592.0</ele><time>2026-04-04T09:39:52.999Z</time></trkpt><trkpt lat="44.477310951695785" lon="10.096103313163031"><ele>591.3333333333334</ele><time>2026-04-04T09:39:54Z</time></trkpt><trkpt lat="44.47751739382813" lon="10.096004138621412"><ele>590.6666666666666</ele><time>2026-04-04T09:39:55Z</time></trkpt><trkpt lat="44.477682060571816" lon="10.096012149532918"><ele>590.0</ele><time>2026-04-04T09:39:56Z</time></trkpt><trkpt lat="44.477869799623235" lon="10.096042001873103"><ele>590.3333333333333</ele><time>2026-04-04T09:39:57Z</time></trkpt><trkpt lat="44.47806109507782" lon="10.09604037432958"><ele>590.6666666666666</ele><time>2026-04-04T09:39:58Z</time></trkpt><trkpt lat="44.47825653942712" lon="10.096048340970167"><ele>591.0</ele><time>2026-04-04T09:39:59Z</time></trkpt><trkpt lat="44.478458329605964" lon="10.09601290336733"><ele>591.0</ele><time>2026-04-04T09:40:00Z</time></trkpt><trkpt lat="44.47865465304508" lon="10.095901361685051"><ele>591.0</ele><time>2026-04-04T09:40:01Z</time></trkpt><trkpt lat="44.47883168705767" lon="10.095847296732305"><ele>591.0</ele><time>2026-04-04T09:40:02Z</time></trkpt><trkpt lat="44.479014483675506" lon="10.09578534072033"><ele>589.3333333333334</ele><time>2026-04-04T09:40:03Z</time></trkpt><trkpt lat="44.47923123125006" lon="10.095761729181502"><ele>587.6666666666667</ele><time>2026-04-04T09:40:04Z</time></trkpt><trkpt lat="44.47945557341038" lon="10.095756673696393"><ele>586.0</ele><time>2026-04-04T09:40:05Z</time></trkpt><trkpt lat="44.47968874378704" lon="10.095750953634232"><ele>579.3333333333334</ele><time>2026-04-04T09:40:06Z</time></trkpt><trkpt lat="44.479896099881095" lon="10.095729747286923"><ele>572.6666666666666</ele><time>2026-04-04T09:40:07Z</time></trkpt><trkpt lat="44.48007230558629" lon="10.09573571109967"><ele>566.0</ele><time>2026-04-04T09:40:08Z</time></trkpt><trkpt lat="44.48025298800568" lon="10.095733298180006"><ele>564.6666666666666</ele><time>2026-04-04T09:40:09Z</time></trkpt><trkpt lat="44.48043512003529" lon="10.095734038350024"><ele>563.3333333333334</ele><time>2026-04-04T09:40:10Z</time></trkpt><trkpt lat="44.480602147888035" lon="10.09574738505199"><ele>562.0</ele><time>2026-04-04T09:40:11Z</time></trkpt><trkpt lat="44.48077230662504" lon="10.096103694724807"><ele>565.6666666666667</ele><time>2026-04-04T09:40:12Z</time></trkpt><trkpt lat="44.4809317568802" lon="10.096092509871621"><ele>569.3333333333334</ele><time>2026-04-04T09:40:13Z</time></trkpt><trkpt lat="44.481120125474895" lon="10.095988186528407"><ele>573.0</ele><time>2026-04-04T09:40:14Z</time></trkpt><trkpt lat="44.481326820288686" lon="10.095831149158043"><ele>568.0</ele><time>2026-04-04T09:40:15Z</time></trkpt><trkpt lat="44.48152607586749" lon="10.095704718466772"><ele>563.0</ele><time>2026-04-04T09:40:16Z</time></trkpt><trkpt lat="44.48170969810707" lon="10.095591221429832"><ele>558.0</ele><time>2026-04-04T09:40:17Z</time></trkpt><trkpt lat="44.48187438545826" lon="10.095492934156864"><ele>558.0</ele><time>2026-04-04T09:40:18Z</time></trkpt><trkpt lat="44.48202851660762" lon="10.095436326975884"><ele>558.0</ele><time>2026-04-04T09:40:19Z</time></trkpt><trkpt lat="44.48219682435687" lon="10.095457413764438"><ele>558.0</ele><time>2026-04-04T09:40:20Z</time></trkpt><trkpt lat="44.48237276162084" lon="10.095614005386015"><ele>560.3333333333334</ele><time>2026-04-04T09:40:21Z</time></trkpt><trkpt lat="44.48256577883989" lon="10.09576861895957"><ele>562.6666666666667</ele><time>2026-04-04T09:40:22Z</time></trkpt><trkpt lat="44.48274413107443" lon="10.095904956866551"><ele>565.0</ele><time>2026-04-04T09:40:23Z</time></trkpt><trkpt lat="44.482916819481424" lon="10.096012375516493"><ele>562.3333333333334</ele><time>2026-04-04T09:40:24Z</time></trkpt><trkpt lat="44.483087962929204" lon="10.096063446955448"><ele>559.6666666666666</ele><time>2026-04-04T09:40:25Z</time></trkpt><trkpt lat="44.483277383803184" lon="10.096070439714705"><ele>557.0</ele><time>2026-04-04T09:40:26Z</time></trkpt><trkpt lat="44.48346087029567" lon="10.096069845567891"><ele>557.0</ele><time>2026-04-04T09:40:27Z</time></trkpt><trkpt lat="44.483629105807665" lon="10.09613248454278"><ele>557.0</ele><time>2026-04-04T09:40:28Z</time></trkpt><trkpt lat="44.4838520390726" lon="10.09625139706399"><ele>557.0</ele><time>2026-04-04T09:40:29Z</time></trkpt><trkpt lat="44.48403160057442" lon="10.096448817768874"><ele>557.3333333333333</ele><time>2026-04-04T09:40:30Z</time></trkpt><trkpt lat="44.48417408345095" lon="10.096638045557773"><ele>557.6666666666666</ele><time>2026-04-04T09:40:31Z</time></trkpt><trkpt lat="44.48429107790787" lon="10.096853626986123"><ele>558.0</ele><time>2026-04-04T09:40:32Z</time></trkpt><trkpt lat="44.48439702348467" lon="10.097106418871254"><ele>558.0</ele><time>2026-04-04T09:40:33Z</time></trkpt><trkpt lat="44.48449400145398" lon="10.097379056323181"><ele>558.0</ele><time>2026-04-04T09:40:34Z</time></trkpt><trkpt lat="44.48459503230151" lon="10.097615421936819"><ele>558.0</ele><time>2026-04-04T09:40:35Z</time></trkpt><trkpt lat="44.48469145397424" lon="10.097798291939387"><ele>554.6666666666666</ele><time>2026-04-04T09:40:36Z</time></trkpt><trkpt lat="44.484743633754384" lon="10.097993298905655"><ele>551.3333333333333</ele><time>2026-04-04T09:40:37Z</time></trkpt><trkpt lat="44.48477173412085" lon="10.098236774228056"><ele>548.0</ele><time>2026-04-04T09:40:38Z</time></trkpt><trkpt lat="44.484768766241984" lon="10.098528322819861"><ele>548.0</ele><time>2026-04-04T09:40:39Z</time></trkpt><trkpt lat="44.48480515160282" lon="10.098832048231365"><ele>548.0</ele><time>2026-04-04T09:40:40Z</time></trkpt><trkpt lat="44.484861695204586" lon="10.099137432175953"><ele>548.0</ele><time>2026-04-04T09:40:41Z</time></trkpt><trkpt lat="44.484912276750386" lon="10.099396737859637"><ele>549.3333333333333</ele><time>2026-04-04T09:40:42Z</time></trkpt><trkpt lat="44.48496246223968" lon="10.099634350619143"><ele>550.6666666666666</ele><time>2026-04-04T09:40:43Z</time></trkpt><trkpt lat="44.48502885535494" lon="10.099827092725652"><ele>552.0</ele><time>2026-04-04T09:40:44Z</time></trkpt><trkpt lat="44.48514761442874" lon="10.099978368750746"><ele>555.0</ele><time>2026-04-04T09:40:45Z</time></trkpt><trkpt lat="44.48530255512881" lon="10.10009873919825"><ele>558.0</ele><time>2026-04-04T09:40:46Z</time></trkpt><trkpt lat="44.48546567079694" lon="10.100192966849274"><ele>561.0</ele><time>2026-04-04T09:40:47Z</time></trkpt><trkpt lat="44.485604581994515" lon="10.10024769987553"><ele>554.0</ele><time>2026-04-04T09:40:48Z</time></trkpt><trkpt lat="44.485732269418385" lon="10.100284840674965"><ele>547.0</ele><time>2026-04-04T09:40:49Z</time></trkpt><trkpt lat="44.48589570496372" lon="10.100282107329603"><ele>540.0</ele><time>2026-04-04T09:40:50Z</time></trkpt><trkpt lat="44.486074480195434" lon="10.100204733971054"><ele>537.0</ele><time>2026-04-04T09:40:51Z</time></trkpt><trkpt lat="44.486270089733935" lon="10.100059338387899"><ele>534.0</ele><time>2026-04-04T09:40:52Z</time></trkpt><trkpt lat="44.48649812714269" lon="10.099898648345977"><ele>533.5</ele><time>2026-04-04T09:40:53Z</time></trkpt><trkpt lat="44.486730751604355" lon="10.099770593153695"><ele>533.0</ele><time>2026-04-04T09:40:54Z</time></trkpt><trkpt lat="44.486964912242314" lon="10.099653104164867"><ele>532.6666666666666</ele><time>2026-04-04T09:40:55Z</time></trkpt><trkpt lat="44.48718592189958" lon="10.099539069529008"><ele>532.3333333333334</ele><time>2026-04-04T09:40:56Z</time></trkpt><trkpt lat="44.48737894608274" lon="10.099424693167974"><ele>532.0</ele><time>2026-04-04T09:40:57Z</time></trkpt><trkpt lat="44.4875664199755" lon="10.099310435829537"><ele>532.0</ele><time>2026-04-04T09:40:58Z</time></trkpt><trkpt lat="44.48773837341314" lon="10.099207956088343"><ele>532.0</ele><time>2026-04-04T09:40:59Z</time></trkpt><trkpt lat="44.48791552461716" lon="10.099102153567273"><ele>532.0</ele><time>2026-04-04T09:41:00Z</time></trkpt><trkpt lat="44.48807238653573" lon="10.099011682926397"><ele>536.3333333333334</ele><time>2026-04-04T09:41:00.999Z</time></trkpt><trkpt lat="44.48821985006207" lon="10.098919826917014"><ele>540.6666666666666</ele><time>2026-04-04T09:41:01.999Z</time></trkpt><trkpt lat="44.48837213693745" lon="10.098851385766736"><ele>545.0</ele><time>2026-04-04T09:41:02.999Z</time></trkpt><trkpt lat="44.488510332125315" lon="10.09884122681818"><ele>545.0</ele><time>2026-04-04T09:41:03.999Z</time></trkpt><trkpt lat="44.48864798469728" lon="10.09889843449312"><ele>545.0</ele><time>2026-04-04T09:41:04.999Z</time></trkpt><trkpt lat="44.48876278661533" lon="10.099056465908086"><ele>545.0</ele><time>2026-04-04T09:41:05.999Z</time></trkpt><trkpt lat="44.488832277619935" lon="10.099256894996861"><ele>542.6666666666666</ele><time>2026-04-04T09:41:06.999Z</time></trkpt><trkpt lat="44.48884379492254" lon="10.099468254093392"><ele>540.3333333333334</ele><time>2026-04-04T09:41:07.999Z</time></trkpt><trkpt lat="44.48879602500398" lon="10.099704610924684"><ele>538.0</ele><time>2026-04-04T09:41:08.999Z</time></trkpt><trkpt lat="44.488758518939136" lon="10.099997095425893"><ele>538.0</ele><time>2026-04-04T09:41:09.999Z</time></trkpt><trkpt lat="44.48873512688161" lon="10.100213537511928"><ele>538.0</ele><time>2026-04-04T09:41:10.999Z</time></trkpt><trkpt lat="44.48876686493979" lon="10.100445699617959"><ele>538.0</ele><time>2026-04-04T09:41:11.999Z</time></trkpt><trkpt lat="44.488844788001266" lon="10.100674791937882"><ele>543.0</ele><time>2026-04-04T09:41:12.999Z</time></trkpt><trkpt lat="44.48896105935357" lon="10.100852126372999"><ele>548.0</ele><time>2026-04-04T09:41:13.999Z</time></trkpt><trkpt lat="44.48910660744418" lon="10.100982750055147"><ele>553.0</ele><time>2026-04-04T09:41:14.999Z</time></trkpt><trkpt lat="44.489294851855625" lon="10.101090121572701"><ele>553.0</ele><time>2026-04-04T09:41:15.999Z</time></trkpt><trkpt lat="44.489481212282165" lon="10.101168187038706"><ele>553.0</ele><time>2026-04-04T09:41:16.999Z</time></trkpt><trkpt lat="44.48964417524571" lon="10.101221825759863"><ele>553.0</ele><time>2026-04-04T09:41:17.999Z</time></trkpt><trkpt lat="44.48983041707886" lon="10.101218056001018"><ele>558.0</ele><time>2026-04-04T09:41:18.999Z</time></trkpt><trkpt lat="44.49003239681727" lon="10.10117946106543"><ele>563.0</ele><time>2026-04-04T09:41:19.999Z</time></trkpt><trkpt lat="44.49019968396774" lon="10.101162801099681"><ele>568.0</ele><time>2026-04-04T09:41:20.999Z</time></trkpt><trkpt lat="44.49036851065693" lon="10.10125779584787"><ele>567.6666666666667</ele><time>2026-04-04T09:41:21.999Z</time></trkpt><trkpt lat="44.49052432104819" lon="10.101399453823294"><ele>567.3333333333334</ele><time>2026-04-04T09:41:22.999Z</time></trkpt><trkpt lat="44.490632239388795" lon="10.101593012332312"><ele>567.0</ele><time>2026-04-04T09:41:23.999Z</time></trkpt><trkpt lat="44.490692564849226" lon="10.101820197458718"><ele>567.0</ele><time>2026-04-04T09:41:24.999Z</time></trkpt><trkpt lat="44.49071792845091" lon="10.102071760418308"><ele>567.0</ele><time>2026-04-04T09:41:25.999Z</time></trkpt><trkpt lat="44.490714653079614" lon="10.102355681758798"><ele>567.0</ele><time>2026-04-04T09:41:26.999Z</time></trkpt><trkpt lat="44.49071972925564" lon="10.102608001500892"><ele>566.25</ele><time>2026-04-04T09:41:27.999Z</time></trkpt><trkpt lat="44.49072613172153" lon="10.102830510086186"><ele>565.5</ele><time>2026-04-04T09:41:28.999Z</time></trkpt><trkpt lat="44.49075524418088" lon="10.103001281814104"><ele>564.75</ele><time>2026-04-04T09:41:29.999Z</time></trkpt><trkpt lat="44.490818612394726" lon="10.103171360460673"><ele>564.0</ele><time>2026-04-04T09:41:30.999Z</time></trkpt><trkpt lat="44.49092346971465" lon="10.103343439399985"><ele>563.6666666666666</ele><time>2026-04-04T09:41:31.999Z</time></trkpt><trkpt lat="44.4910599107074" lon="10.103539743984848"><ele>563.3333333333333</ele><time>2026-04-04T09:41:32.999Z</time></trkpt><trkpt lat="44.49120341150062" lon="10.103753443946331"><ele>563.0</ele><time>2026-04-04T09:41:33.999Z</time></trkpt><trkpt lat="44.491363103326705" lon="10.103991161680936"><ele>566.6666666666666</ele><time>2026-04-04T09:41:34.999Z</time></trkpt><trkpt lat="44.491517565949835" lon="10.104215214905448"><ele>570.3333333333334</ele><time>2026-04-04T09:41:35.999Z</time></trkpt><trkpt lat="44.491656779850224" lon="10.104414357022526"><ele>574.0</ele><time>2026-04-04T09:41:36.999Z</time></trkpt><trkpt lat="44.491775760634205" lon="10.104580756760278"><ele>574.0</ele><time>2026-04-04T09:41:37.999Z</time></trkpt><trkpt lat="44.49188292367642" lon="10.104710112783575"><ele>574.0</ele><time>2026-04-04T09:41:38.999Z</time></trkpt><trkpt lat="44.49199291045663" lon="10.104807848408921"><ele>574.0</ele><time>2026-04-04T09:41:39.999Z</time></trkpt><trkpt lat="44.49210348229996" lon="10.10486753932605"><ele>574.0</ele><time>2026-04-04T09:41:40.999Z</time></trkpt><trkpt lat="44.49224251883439" lon="10.1049064255815"><ele>578.3333333333334</ele><time>2026-04-04T09:41:41.999Z</time></trkpt><trkpt lat="44.492408520450866" lon="10.104893890175916"><ele>582.6666666666666</ele><time>2026-04-04T09:41:42.999Z</time></trkpt><trkpt lat="44.492582639762155" lon="10.104837504173052"><ele>587.0</ele><time>2026-04-04T09:41:43.999Z</time></trkpt><trkpt lat="44.49275728907766" lon="10.104788230975736"><ele>587.0</ele><time>2026-04-04T09:41:44.999Z</time></trkpt><trkpt lat="44.49291779090515" lon="10.104771858548025"><ele>587.0</ele><time>2026-04-04T09:41:45.999Z</time></trkpt><trkpt lat="44.49309826210527" lon="10.104848169598789"><ele>587.0</ele><time>2026-04-04T09:41:46.999Z</time></trkpt><trkpt lat="44.49322429877492" lon="10.10499998513069"><ele>584.6666666666666</ele><time>2026-04-04T09:41:47.999Z</time></trkpt><trkpt lat="44.49335522672611" lon="10.105243205034109"><ele>582.3333333333334</ele><time>2026-04-04T09:41:48.999Z</time></trkpt><trkpt lat="44.49345945678479" lon="10.105515876412051"><ele>580.0</ele><time>2026-04-04T09:41:49.999Z</time></trkpt><trkpt lat="44.493534526050155" lon="10.105809132680493"><ele>578.3333333333334</ele><time>2026-04-04T09:41:50.999Z</time></trkpt><trkpt lat="44.49362258252044" lon="10.10604389298661"><ele>576.6666666666666</ele><time>2026-04-04T09:41:51.999Z</time></trkpt><trkpt lat="44.493723071289686" lon="10.106263324872796"><ele>575.0</ele><time>2026-04-04T09:41:52.999Z</time></trkpt><trkpt lat="44.493826824638624" lon="10.106470666272992"><ele>579.0</ele><time>2026-04-04T09:41:53.999Z</time></trkpt><trkpt lat="44.493939170589634" lon="10.106694107211652"><ele>583.0</ele><time>2026-04-04T09:41:54.999Z</time></trkpt><trkpt lat="44.49405014798461" lon="10.106896915159798"><ele>587.0</ele><time>2026-04-04T09:41:55.999Z</time></trkpt><trkpt lat="44.494152096607976" lon="10.107068107465896"><ele>587.0</ele><time>2026-04-04T09:41:56.999Z</time></trkpt><trkpt lat="44.49425793365646" lon="10.107203264478594"><ele>587.0</ele><time>2026-04-04T09:41:57.999Z</time></trkpt><trkpt lat="44.494410796810634" lon="10.107295528364045"><ele>587.0</ele><time>2026-04-04T09:41:58.999Z</time></trkpt><trkpt lat="44.49460652369554" lon="10.107339499012765"><ele>585.3333333333333</ele><time>2026-04-04T09:42:00Z</time></trkpt><trkpt lat="44.49481703171718" lon="10.10734438684888"><ele>583.6666666666666</ele><time>2026-04-04T09:42:01Z</time></trkpt><trkpt lat="44.49498250556135" lon="10.107419373932697"><ele>582.0</ele><time>2026-04-04T09:42:02Z</time></trkpt><trkpt lat="44.495110251045446" lon="10.107549633936175"><ele>582.0</ele><time>2026-04-04T09:42:03Z</time></trkpt><trkpt lat="44.49518830632511" lon="10.107759678852675"><ele>582.0</ele><time>2026-04-04T09:42:04Z</time></trkpt><trkpt lat="44.495279501085044" lon="10.107990961505966"><ele>582.0</ele><time>2026-04-04T09:42:05Z</time></trkpt><trkpt lat="44.49535549857017" lon="10.108204861408055"><ele>581.6666666666666</ele><time>2026-04-04T09:42:06Z</time></trkpt><trkpt lat="44.49547750773405" lon="10.108362845591373"><ele>581.3333333333333</ele><time>2026-04-04T09:42:07Z</time></trkpt><trkpt lat="44.495644952599974" lon="10.108482275139162"><ele>581.0</ele><time>2026-04-04T09:42:08Z</time></trkpt><trkpt lat="44.49584950142532" lon="10.108557134593163"><ele>581.0</ele><time>2026-04-04T09:42:09Z</time></trkpt><trkpt lat="44.4960762712807" lon="10.108613886884964"><ele>581.0</ele><time>2026-04-04T09:42:10Z</time></trkpt><trkpt lat="44.4962843782644" lon="10.108678338538871"><ele>581.0</ele><time>2026-04-04T09:42:11Z</time></trkpt><trkpt lat="44.49646075089827" lon="10.108734546226012"><ele>579.6666666666666</ele><time>2026-04-04T09:42:12Z</time></trkpt><trkpt lat="44.49660245142351" lon="10.108872552077239"><ele>578.3333333333334</ele><time>2026-04-04T09:42:13Z</time></trkpt><trkpt lat="44.496724533763995" lon="10.109053940478619"><ele>577.0</ele><time>2026-04-04T09:42:14Z</time></trkpt><trkpt lat="44.49682844318458" lon="10.109300071028292"><ele>577.0</ele><time>2026-04-04T09:42:15Z</time></trkpt><trkpt lat="44.49692614707734" lon="10.109534648925383"><ele>577.0</ele><time>2026-04-04T09:42:16Z</time></trkpt><trkpt lat="44.49701891075405" lon="10.109740685795446"><ele>577.0</ele><time>2026-04-04T09:42:17Z</time></trkpt><trkpt lat="44.497077228206585" lon="10.109951556099311"><ele>580.0</ele><time>2026-04-04T09:42:18Z</time></trkpt><trkpt lat="44.49709849999841" lon="10.110199878551448"><ele>583.0</ele><time>2026-04-04T09:42:19Z</time></trkpt><trkpt lat="44.497054779171506" lon="10.110486914642513"><ele>586.0</ele><time>2026-04-04T09:42:20Z</time></trkpt><trkpt lat="44.49697392686174" lon="10.110753609204334"><ele>579.6666666666667</ele><time>2026-04-04T09:42:21Z</time></trkpt><trkpt lat="44.49690788882461" lon="10.11098423770258"><ele>573.3333333333334</ele><time>2026-04-04T09:42:22Z</time></trkpt><trkpt lat="44.496873071323044" lon="10.111196593611798"><ele>567.0</ele><time>2026-04-04T09:42:23Z</time></trkpt><trkpt lat="44.49687880414805" lon="10.111420541390045"><ele>566.6666666666666</ele><time>2026-04-04T09:42:24Z</time></trkpt><trkpt lat="44.496925211576944" lon="10.11164791698509"><ele>566.3333333333333</ele><time>2026-04-04T09:42:25Z</time></trkpt><trkpt lat="44.4969954460592" lon="10.11186422990761"><ele>566.0</ele><time>2026-04-04T09:42:26Z</time></trkpt><trkpt lat="44.497101025827014" lon="10.112074964390857"><ele>567.0</ele><time>2026-04-04T09:42:27Z</time></trkpt><trkpt lat="44.497255665580184" lon="10.112252428687977"><ele>568.0</ele><time>2026-04-04T09:42:28Z</time></trkpt><trkpt lat="44.497441582513595" lon="10.112400737909484"><ele>569.0</ele><time>2026-04-04T09:42:29Z</time></trkpt><trkpt lat="44.49763378047763" lon="10.112540986406705"><ele>569.0</ele><time>2026-04-04T09:42:30Z</time></trkpt><trkpt lat="44.49779762530184" lon="10.112665988911244"><ele>569.0</ele><time>2026-04-04T09:42:31Z</time></trkpt><trkpt lat="44.49797264110205" lon="10.112752388139725"><ele>569.0</ele><time>2026-04-04T09:42:32Z</time></trkpt><trkpt lat="44.49818398205862" lon="10.112784369499241"><ele>571.3333333333333</ele><time>2026-04-04T09:42:33Z</time></trkpt><trkpt lat="44.49839421047291" lon="10.112810003254715"><ele>573.6666666666666</ele><time>2026-04-04T09:42:34Z</time></trkpt><trkpt lat="44.49860938557433" lon="10.112910343921225"><ele>576.0</ele><time>2026-04-04T09:42:35Z</time></trkpt><trkpt lat="44.49880449341991" lon="10.11305337626395"><ele>577.6666666666666</ele><time>2026-04-04T09:42:36Z</time></trkpt><trkpt lat="44.498968516255225" lon="10.11319721806978"><ele>579.3333333333333</ele><time>2026-04-04T09:42:37Z</time></trkpt><trkpt lat="44.49909844372515" lon="10.113342804771772"><ele>581.0</ele><time>2026-04-04T09:42:38Z</time></trkpt><trkpt lat="44.49921736297999" lon="10.113549713191047"><ele>577.0</ele><time>2026-04-04T09:42:39Z</time></trkpt><trkpt lat="44.49929199677466" lon="10.113804865671392"><ele>573.0</ele><time>2026-04-04T09:42:40Z</time></trkpt><trkpt lat="44.499339512120514" lon="10.114094451727762"><ele>569.0</ele><time>2026-04-04T09:42:41Z</time></trkpt><trkpt lat="44.49938552810304" lon="10.11430626016315"><ele>567.6666666666666</ele><time>2026-04-04T09:42:42Z</time></trkpt><trkpt lat="44.49944336827801" lon="10.11453964839328"><ele>566.3333333333334</ele><time>2026-04-04T09:42:43Z</time></trkpt><trkpt lat="44.49952157882038" lon="10.114738444280032"><ele>565.0</ele><time>2026-04-04T09:42:44Z</time></trkpt><trkpt lat="44.499611220438496" lon="10.114931904909767"><ele>565.0</ele><time>2026-04-04T09:42:45Z</time></trkpt><trkpt lat="44.49970297750001" lon="10.115058548113865"><ele>565.0</ele><time>2026-04-04T09:42:46Z</time></trkpt><trkpt lat="44.4997815708715" lon="10.11509778479711"><ele>565.0</ele><time>2026-04-04T09:42:47Z</time></trkpt><trkpt lat="44.49988936456124" lon="10.11509742173677"><ele>565.0</ele><time>2026-04-04T09:42:48Z</time></trkpt><trkpt lat="44.500011764406935" lon="10.115034300942636"><ele>570.3333333333334</ele><time>2026-04-04T09:42:49Z</time></trkpt><trkpt lat="44.50013474920254" lon="10.114887607402693"><ele>575.6666666666666</ele><time>2026-04-04T09:42:50Z</time></trkpt><trkpt lat="44.50023551102452" lon="10.114649066429427"><ele>581.0</ele><time>2026-04-04T09:42:51Z</time></trkpt><trkpt lat="44.50032418540727" lon="10.114413850440169"><ele>580.75</ele><time>2026-04-04T09:42:52Z</time></trkpt><trkpt lat="44.500416662198354" lon="10.11424460650081"><ele>580.5</ele><time>2026-04-04T09:42:53Z</time></trkpt><trkpt lat="44.50054739478138" lon="10.114203587321246"><ele>580.25</ele><time>2026-04-04T09:42:54Z</time></trkpt><trkpt lat="44.500678556417554" lon="10.11423976700775"><ele>580.0</ele><time>2026-04-04T09:42:55Z</time></trkpt><trkpt lat="44.50085455704796" lon="10.1143152843031"><ele>580.0</ele><time>2026-04-04T09:42:56Z</time></trkpt><trkpt lat="44.501068299510415" lon="10.114410895294755"><ele>580.0</ele><time>2026-04-04T09:42:57Z</time></trkpt><trkpt lat="44.50127210317527" lon="10.114514665912214"><ele>580.0</ele><time>2026-04-04T09:42:58Z</time></trkpt><trkpt lat="44.50149176304453" lon="10.11464665256039"><ele>576.5</ele><time>2026-04-04T09:42:59Z</time></trkpt><trkpt lat="44.50169753416036" lon="10.11480373994426"><ele>573.0</ele><time>2026-04-04T09:43:00Z</time></trkpt><trkpt lat="44.50190235639598" lon="10.114996496891965"><ele>578.5</ele><time>2026-04-04T09:43:01Z</time></trkpt><trkpt lat="44.50209143458756" lon="10.11521453300731"><ele>584.0</ele><time>2026-04-04T09:43:02Z</time></trkpt><trkpt lat="44.502264569333136" lon="10.115390956348428"><ele>584.0</ele><time>2026-04-04T09:43:03Z</time></trkpt><trkpt lat="44.50241314606214" lon="10.11552735361665"><ele>584.0</ele><time>2026-04-04T09:43:04Z</time></trkpt><trkpt lat="44.50259094531706" lon="10.115586481338186"><ele>584.0</ele><time>2026-04-04T09:43:05Z</time></trkpt><trkpt lat="44.502758814834394" lon="10.1156658485477"><ele>582.5</ele><time>2026-04-04T09:43:06Z</time></trkpt><trkpt lat="44.50292156496414" lon="10.115861991704632"><ele>581.0</ele><time>2026-04-04T09:43:07Z</time></trkpt><trkpt lat="44.50312247633791" lon="10.116048866863707"><ele>581.0</ele><time>2026-04-04T09:43:07.999Z</time></trkpt><trkpt lat="44.503267247491216" lon="10.116251475670989"><ele>581.0</ele><time>2026-04-04T09:43:08.999Z</time></trkpt><trkpt lat="44.503358502187886" lon="10.11648074832579"><ele>581.0</ele><time>2026-04-04T09:43:09.999Z</time></trkpt><trkpt lat="44.503450181303116" lon="10.116750427501815"><ele>578.6666666666666</ele><time>2026-04-04T09:43:10.999Z</time></trkpt><trkpt lat="44.503535935331406" lon="10.11699185496408"><ele>576.3333333333334</ele><time>2026-04-04T09:43:11.999Z</time></trkpt><trkpt lat="44.50363455410918" lon="10.117193344016599"><ele>574.0</ele><time>2026-04-04T09:43:12.999Z</time></trkpt><trkpt lat="44.50374176535106" lon="10.117393972016192"><ele>573.6666666666667</ele><time>2026-04-04T09:43:13.999Z</time></trkpt><trkpt lat="44.50388519623193" lon="10.117583300901329"><ele>573.3333333333334</ele><time>2026-04-04T09:43:14.999Z</time></trkpt><trkpt lat="44.50402873935495" lon="10.117723066341922"><ele>573.0</ele><time>2026-04-04T09:43:15.999Z</time></trkpt><trkpt lat="44.50421097389876" lon="10.117819020374641"><ele>573.0</ele><time>2026-04-04T09:43:16.999Z</time></trkpt><trkpt lat="44.50441595601797" lon="10.117811907347301"><ele>573.0</ele><time>2026-04-04T09:43:17.999Z</time></trkpt><trkpt lat="44.50461171156506" lon="10.11779789731321"><ele>573.0</ele><time>2026-04-04T09:43:18.999Z</time></trkpt><trkpt lat="44.50476222545346" lon="10.11777993412615"><ele>573.6666666666666</ele><time>2026-04-04T09:43:19.999Z</time></trkpt><trkpt lat="44.50487577717613" lon="10.117875930093005"><ele>574.3333333333333</ele><time>2026-04-04T09:43:20.999Z</time></trkpt><trkpt lat="44.504993984647676" lon="10.118015585756599"><ele>575.0</ele><time>2026-04-04T09:43:21.999Z</time></trkpt><trkpt lat="44.50504975129158" lon="10.118242088863921"><ele>572.0</ele><time>2026-04-04T09:43:22.999Z</time></trkpt><trkpt lat="44.50512396529419" lon="10.118497219054056"><ele>569.0</ele><time>2026-04-04T09:43:23.999Z</time></trkpt><trkpt lat="44.50517582073101" lon="10.118832418427925"><ele>566.0</ele><time>2026-04-04T09:43:24.999Z</time></trkpt><trkpt lat="44.505216020155366" lon="10.119121696214801"><ele>562.0</ele><time>2026-04-04T09:43:25.999Z</time></trkpt><trkpt lat="44.505254145991564" lon="10.119429960346528"><ele>558.0</ele><time>2026-04-04T09:43:26.999Z</time></trkpt><trkpt lat="44.505342934940465" lon="10.11982333807628"><ele>556.0</ele><time>2026-04-04T09:43:27.999Z</time></trkpt><trkpt lat="44.505399652726354" lon="10.120125411013218"><ele>554.0</ele><time>2026-04-04T09:43:28.999Z</time></trkpt><trkpt lat="44.50545198314115" lon="10.12039199676063"><ele>552.0</ele><time>2026-04-04T09:43:29.999Z</time></trkpt><trkpt lat="44.505497607173226" lon="10.120636516070716"><ele>553.0</ele><time>2026-04-04T09:43:30.999Z</time></trkpt><trkpt lat="44.50554466553782" lon="10.120881254341203"><ele>554.0</ele><time>2026-04-04T09:43:31.999Z</time></trkpt><trkpt lat="44.50561277246133" lon="10.121098305205567"><ele>555.0</ele><time>2026-04-04T09:43:32.999Z</time></trkpt><trkpt lat="44.50572855035232" lon="10.121315253648856"><ele>555.0</ele><time>2026-04-04T09:43:33.999Z</time></trkpt><trkpt lat="44.50590371925612" lon="10.121542590595546"><ele>555.0</ele><time>2026-04-04T09:43:34.999Z</time></trkpt><trkpt lat="44.506069197888934" lon="10.121782652533376"><ele>555.0</ele><time>2026-04-04T09:43:35.999Z</time></trkpt><trkpt lat="44.50620817132273" lon="10.12199401546592"><ele>555.0</ele><time>2026-04-04T09:43:36.999Z</time></trkpt><trkpt lat="44.506320344874375" lon="10.122187130647603"><ele>555.0</ele><time>2026-04-04T09:43:37.999Z</time></trkpt><trkpt lat="44.50642030716029" lon="10.122362160940181"><ele>551.75</ele><time>2026-04-04T09:43:38.999Z</time></trkpt><trkpt lat="44.50651076641056" lon="10.12248441358422"><ele>548.5</ele><time>2026-04-04T09:43:39.999Z</time></trkpt><trkpt lat="44.50663978066805" lon="10.122554651083057"><ele>545.25</ele><time>2026-04-04T09:43:40.999Z</time></trkpt><trkpt lat="44.50680571880482" lon="10.122582573633833"><ele>542.0</ele><time>2026-04-04T09:43:41.999Z</time></trkpt><trkpt lat="44.50699672409824" lon="10.122570450361012"><ele>543.0</ele><time>2026-04-04T09:43:42.999Z</time></trkpt><trkpt lat="44.50717296751341" lon="10.122552684017364"><ele>544.0</ele><time>2026-04-04T09:43:43.999Z</time></trkpt><trkpt lat="44.50732129064158" lon="10.12257232439827"><ele>545.0</ele><time>2026-04-04T09:43:44.999Z</time></trkpt><trkpt lat="44.507427337276845" lon="10.122641908372408"><ele>546.0</ele><time>2026-04-04T09:43:45.999Z</time></trkpt><trkpt lat="44.50753522995251" lon="10.122790171989001"><ele>546.0</ele><time>2026-04-04T09:43:46.999Z</time></trkpt><trkpt lat="44.50763185553718" lon="10.12301903176935"><ele>546.0</ele><time>2026-04-04T09:43:47.999Z</time></trkpt><trkpt lat="44.507716697998895" lon="10.123246493433992"><ele>546.0</ele><time>2026-04-04T09:43:48.999Z</time></trkpt><trkpt lat="44.50782332856691" lon="10.123424715667444"><ele>543.3333333333334</ele><time>2026-04-04T09:43:49.999Z</time></trkpt><trkpt lat="44.507960668539326" lon="10.123570518307341"><ele>540.6666666666667</ele><time>2026-04-04T09:43:50.999Z</time></trkpt><trkpt lat="44.50813749029844" lon="10.123673766139614"><ele>538.0</ele><time>2026-04-04T09:43:51.999Z</time></trkpt><trkpt lat="44.508338680408116" lon="10.123758948290153"><ele>538.0</ele><time>2026-04-04T09:43:52.999Z</time></trkpt><trkpt lat="44.508546881242744" lon="10.123836463553925"><ele>538.0</ele><time>2026-04-04T09:43:53.999Z</time></trkpt><trkpt lat="44.5087655898942" lon="10.12390579664695"><ele>538.0</ele><time>2026-04-04T09:43:54.999Z</time></trkpt><trkpt lat="44.50899426029548" lon="10.123956593325913"><ele>537.6666666666667</ele><time>2026-04-04T09:43:55.999Z</time></trkpt><trkpt lat="44.509220942200095" lon="10.123982877684268"><ele>537.3333333333334</ele><time>2026-04-04T09:43:56.999Z</time></trkpt><trkpt lat="44.50942754203134" lon="10.124012557990246"><ele>537.0</ele><time>2026-04-04T09:43:57.999Z</time></trkpt><trkpt lat="44.50962817627605" lon="10.124059481949805"><ele>533.3333333333334</ele><time>2026-04-04T09:43:58.999Z</time></trkpt><trkpt lat="44.509845337833696" lon="10.12413285366433"><ele>529.6666666666667</ele><time>2026-04-04T09:43:59.999Z</time></trkpt><trkpt lat="44.51004992062605" lon="10.12423826171333"><ele>526.0</ele><time>2026-04-04T09:44:00.999Z</time></trkpt><trkpt lat="44.51020412663681" lon="10.12432809582512"><ele>526.0</ele><time>2026-04-04T09:44:01.999Z</time></trkpt><trkpt lat="44.51034654067448" lon="10.124353532064973"><ele>526.0</ele><time>2026-04-04T09:44:02.999Z</time></trkpt><trkpt lat="44.510509529769536" lon="10.124288358388906"><ele>526.0</ele><time>2026-04-04T09:44:03.999Z</time></trkpt><trkpt lat="44.51070503681577" lon="10.124174670735828"><ele>524.3333333333334</ele><time>2026-04-04T09:44:04.999Z</time></trkpt><trkpt lat="44.510916932735825" lon="10.12409610282436"><ele>522.6666666666666</ele><time>2026-04-04T09:44:06Z</time></trkpt><trkpt lat="44.511096821497546" lon="10.124066345418573"><ele>521.0</ele><time>2026-04-04T09:44:07Z</time></trkpt><trkpt lat="44.51125204813988" lon="10.124073082290927"><ele>521.0</ele><time>2026-04-04T09:44:08Z</time></trkpt><trkpt lat="44.511416830805466" lon="10.124136637898397"><ele>521.0</ele><time>2026-04-04T09:44:09Z</time></trkpt><trkpt lat="44.51158326661852" lon="10.1242811770933"><ele>521.0</ele><time>2026-04-04T09:44:10Z</time></trkpt><trkpt lat="44.511712648634315" lon="10.124465314919329"><ele>521.0</ele><time>2026-04-04T09:44:11Z</time></trkpt><trkpt lat="44.51183286057069" lon="10.124638611918307"><ele>521.0</ele><time>2026-04-04T09:44:12Z</time></trkpt><trkpt lat="44.51197191944504" lon="10.124751184007167"><ele>521.0</ele><time>2026-04-04T09:44:13Z</time></trkpt><trkpt lat="44.51215656821246" lon="10.124792207441965"><ele>519.6666666666666</ele><time>2026-04-04T09:44:14Z</time></trkpt><trkpt lat="44.51236344778415" lon="10.124762618071017"><ele>518.3333333333334</ele><time>2026-04-04T09:44:15Z</time></trkpt><trkpt lat="44.51256663958597" lon="10.12471151150052"><ele>517.0</ele><time>2026-04-04T09:44:16Z</time></trkpt><trkpt lat="44.5127408573537" lon="10.124712571026352"><ele>517.0</ele><time>2026-04-04T09:44:17Z</time></trkpt><trkpt lat="44.5128841214851" lon="10.12477515019875"><ele>517.0</ele><time>2026-04-04T09:44:18Z</time></trkpt><trkpt lat="44.51300808174034" lon="10.124854146628333"><ele>517.0</ele><time>2026-04-04T09:44:19Z</time></trkpt><trkpt lat="44.513130668596816" lon="10.124926659589065"><ele>517.0</ele><time>2026-04-04T09:44:20Z</time></trkpt><trkpt lat="44.51325432692575" lon="10.124990907951332"><ele>513.75</ele><time>2026-04-04T09:44:21Z</time></trkpt><trkpt lat="44.51336332923625" lon="10.125048601452619"><ele>510.5</ele><time>2026-04-04T09:44:22Z</time></trkpt><trkpt lat="44.513477275322174" lon="10.125114775588093"><ele>507.25</ele><time>2026-04-04T09:44:23Z</time></trkpt><trkpt lat="44.513601648209004" lon="10.125181756807832"><ele>504.0</ele><time>2026-04-04T09:44:24Z</time></trkpt><trkpt lat="44.51373629222651" lon="10.125246904683957"><ele>507.0</ele><time>2026-04-04T09:44:25Z</time></trkpt><trkpt lat="44.51387326411719" lon="10.125315608949322"><ele>510.0</ele><time>2026-04-04T09:44:26Z</time></trkpt><trkpt lat="44.51401423828383" lon="10.12539897650125"><ele>513.0</ele><time>2026-04-04T09:44:27Z</time></trkpt><trkpt lat="44.51417058747528" lon="10.125480492239825"><ele>513.0</ele><time>2026-04-04T09:44:28Z</time></trkpt><trkpt lat="44.514327642631194" lon="10.125564260649327"><ele>513.0</ele><time>2026-04-04T09:44:29Z</time></trkpt><trkpt lat="44.514519070164106" lon="10.125654990445234"><ele>513.0</ele><time>2026-04-04T09:44:30Z</time></trkpt><trkpt lat="44.51473532292053" lon="10.125746255030949"><ele>507.0</ele><time>2026-04-04T09:44:31Z</time></trkpt><trkpt lat="44.51495675354652" lon="10.125845516761661"><ele>501.0</ele><time>2026-04-04T09:44:32Z</time></trkpt><trkpt lat="44.5151709665027" lon="10.125974344315608"><ele>501.0</ele><time>2026-04-04T09:44:33Z</time></trkpt><trkpt lat="44.5153058791558" lon="10.12610093551549"><ele>501.0</ele><time>2026-04-04T09:44:34Z</time></trkpt><trkpt lat="44.51558427152152" lon="10.126307883735294"><ele>505.5</ele><time>2026-04-04T09:44:35Z</time></trkpt><trkpt lat="44.51580172561136" lon="10.126541090167597"><ele>510.0</ele><time>2026-04-04T09:44:36Z</time></trkpt><trkpt lat="44.51604552923251" lon="10.126601494141186"><ele>505.0</ele><time>2026-04-04T09:44:37Z</time></trkpt><trkpt lat="44.51625750862633" lon="10.126705381177636"><ele>500.0</ele><time>2026-04-04T09:44:38Z</time></trkpt><trkpt lat="44.516431313430175" lon="10.126798185718258"><ele>495.0</ele><time>2026-04-04T09:44:39Z</time></trkpt><trkpt lat="44.51657232144357" lon="10.126881106404882"><ele>495.0</ele><time>2026-04-04T09:44:40Z</time></trkpt><trkpt lat="44.516698857283224" lon="10.126928529674588"><ele>495.0</ele><time>2026-04-04T09:44:41Z</time></trkpt><trkpt lat="44.51682661722304" lon="10.126918616624707"><ele>495.0</ele><time>2026-04-04T09:44:42Z</time></trkpt><trkpt lat="44.516945186912906" lon="10.126832684075799"><ele>495.0</ele><time>2026-04-04T09:44:43Z</time></trkpt><trkpt lat="44.51704864861975" lon="10.126667629993763"><ele>494.0</ele><time>2026-04-04T09:44:44Z</time></trkpt><trkpt lat="44.51712888131843" lon="10.126463792225495"><ele>493.0</ele><time>2026-04-04T09:44:45Z</time></trkpt><trkpt lat="44.51720112526942" lon="10.126300864058635"><ele>492.0</ele><time>2026-04-04T09:44:46Z</time></trkpt><trkpt lat="44.51730443773574" lon="10.126166573403676"><ele>491.0</ele><time>2026-04-04T09:44:47Z</time></trkpt><trkpt lat="44.51740352794773" lon="10.126208697272729"><ele>491.0</ele><time>2026-04-04T09:44:48Z</time></trkpt><trkpt lat="44.51752435362187" lon="10.12626588821531"><ele>491.0</ele><time>2026-04-04T09:44:49Z</time></trkpt><trkpt lat="44.517683933954046" lon="10.126384068130317"><ele>491.0</ele><time>2026-04-04T09:44:50Z</time></trkpt><trkpt lat="44.51787053359846" lon="10.126487279013128"><ele>489.66666666666663</ele><time>2026-04-04T09:44:51Z</time></trkpt><trkpt lat="44.518058231336504" lon="10.126599727625239"><ele>488.33333333333337</ele><time>2026-04-04T09:44:52Z</time></trkpt><trkpt lat="44.51822986273768" lon="10.126704246635981"><ele>487.0</ele><time>2026-04-04T09:44:53Z</time></trkpt><trkpt lat="44.51835008150652" lon="10.126840780910046"><ele>487.0</ele><time>2026-04-04T09:44:54Z</time></trkpt><trkpt lat="44.51843319346641" lon="10.126985477843148"><ele>487.0</ele><time>2026-04-04T09:44:55Z</time></trkpt><trkpt lat="44.51846172588262" lon="10.12715341517031"><ele>487.0</ele><time>2026-04-04T09:44:56Z</time></trkpt><trkpt lat="44.51845465716354" lon="10.12732544115531"><ele>487.0</ele><time>2026-04-04T09:44:57Z</time></trkpt><trkpt lat="44.5184381063232" lon="10.127436048709248"><ele>487.0</ele><time>2026-04-04T09:44:58Z</time></trkpt><trkpt lat="44.518418489328354" lon="10.127557699727"><ele>487.00000000000006</ele><time>2026-04-04T09:45:00Z</time></trkpt><trkpt lat="44.51840402399392" lon="10.127644756066696"><ele>487.00000000000006</ele><time>2026-04-04T09:45:02Z</time></trkpt><trkpt lat="44.518390447922016" lon="10.12784686339003"><ele>487.0</ele><time>2026-04-04T09:45:04Z</time></trkpt><trkpt lat="44.5183692621067" lon="10.128056063243323"><ele>487.0</ele><time>2026-04-04T09:45:05Z</time></trkpt><trkpt lat="44.51837281228705" lon="10.128279808611742"><ele>487.6666666666667</ele><time>2026-04-04T09:45:06Z</time></trkpt><trkpt lat="44.51840381546021" lon="10.128567953156363"><ele>488.33333333333337</ele><time>2026-04-04T09:45:07Z</time></trkpt><trkpt lat="44.518457492502264" lon="10.128868550902265"><ele>489.0</ele><time>2026-04-04T09:45:08Z</time></trkpt><trkpt lat="44.518483409443505" lon="10.129128797004078"><ele>489.0</ele><time>2026-04-04T09:45:09Z</time></trkpt><trkpt lat="44.518500224182134" lon="10.129384883506003"><ele>489.0</ele><time>2026-04-04T09:45:10Z</time></trkpt><trkpt lat="44.51849380050634" lon="10.129633961135298"><ele>489.0</ele><time>2026-04-04T09:45:11Z</time></trkpt><trkpt lat="44.51846558925157" lon="10.129887653391847"><ele>488.66666666666663</ele><time>2026-04-04T09:45:12Z</time></trkpt><trkpt lat="44.51845687930631" lon="10.130114274201603"><ele>488.3333333333333</ele><time>2026-04-04T09:45:13Z</time></trkpt><trkpt lat="44.51846109060575" lon="10.130330885715424"><ele>488.0</ele><time>2026-04-04T09:45:13.999Z</time></trkpt><trkpt lat="44.51852155478995" lon="10.13056622100051"><ele>489.66666666666663</ele><time>2026-04-04T09:45:14.999Z</time></trkpt><trkpt lat="44.51864336135305" lon="10.130784157630586"><ele>491.33333333333337</ele><time>2026-04-04T09:45:15.999Z</time></trkpt><trkpt lat="44.51881588973148" lon="10.130906315853824"><ele>493.0</ele><time>2026-04-04T09:45:16.999Z</time></trkpt><trkpt lat="44.51901292126893" lon="10.13100472247374"><ele>493.0</ele><time>2026-04-04T09:45:17.999Z</time></trkpt><trkpt lat="44.51923723011117" lon="10.131110815631049"><ele>493.0</ele><time>2026-04-04T09:45:18.999Z</time></trkpt><trkpt lat="44.519445425427236" lon="10.131203279283012"><ele>495.33333333333337</ele><time>2026-04-04T09:45:19.999Z</time></trkpt><trkpt lat="44.51962928003195" lon="10.131280015718213"><ele>497.66666666666663</ele><time>2026-04-04T09:45:20.999Z</time></trkpt><trkpt lat="44.51980523856358" lon="10.131312188196935"><ele>500.0</ele><time>2026-04-04T09:45:21.999Z</time></trkpt><trkpt lat="44.519997908732435" lon="10.131269540890314"><ele>500.0</ele><time>2026-04-04T09:45:22.999Z</time></trkpt><trkpt lat="44.52019275849322" lon="10.131207533833143"><ele>500.0</ele><time>2026-04-04T09:45:23.999Z</time></trkpt><trkpt lat="44.52037756727813" lon="10.131188848726746"><ele>500.0</ele><time>2026-04-04T09:45:24.999Z</time></trkpt><trkpt lat="44.52057337812449" lon="10.13123459000328"><ele>499.0</ele><time>2026-04-04T09:45:25.999Z</time></trkpt><trkpt lat="44.52074635416846" lon="10.131399904658815"><ele>498.0</ele><time>2026-04-04T09:45:26.999Z</time></trkpt><trkpt lat="44.52090342573378" lon="10.131559962974185"><ele>497.0</ele><time>2026-04-04T09:45:27.999Z</time></trkpt><trkpt lat="44.52103549067044" lon="10.131713398219237"><ele>496.3333333333333</ele><time>2026-04-04T09:45:28.999Z</time></trkpt><trkpt lat="44.52115076466505" lon="10.131857025068326"><ele>495.66666666666663</ele><time>2026-04-04T09:45:29.999Z</time></trkpt><trkpt lat="44.52121555064706" lon="10.132064339561216"><ele>495.0</ele><time>2026-04-04T09:45:30.999Z</time></trkpt><trkpt lat="44.521272697899505" lon="10.132292234552603"><ele>496.0</ele><time>2026-04-04T09:45:31.999Z</time></trkpt><trkpt lat="44.521263255578134" lon="10.132542012441144"><ele>497.0</ele><time>2026-04-04T09:45:32.999Z</time></trkpt><trkpt lat="44.52128087805525" lon="10.132776999762504"><ele>498.0</ele><time>2026-04-04T09:45:33.999Z</time></trkpt><trkpt lat="44.521325127067094" lon="10.132979592167539"><ele>498.0</ele><time>2026-04-04T09:45:34.999Z</time></trkpt><trkpt lat="44.521398536701874" lon="10.133172928209165"><ele>498.0</ele><time>2026-04-04T09:45:35.999Z</time></trkpt><trkpt lat="44.5215212462822" lon="10.133377576506396"><ele>498.0</ele><time>2026-04-04T09:45:36.999Z</time></trkpt><trkpt lat="44.52170353845757" lon="10.133561633184666"><ele>497.0</ele><time>2026-04-04T09:45:37.999Z</time></trkpt><trkpt lat="44.5219161307613" lon="10.133736824409217"><ele>496.0</ele><time>2026-04-04T09:45:38.999Z</time></trkpt><trkpt lat="44.5221285492145" lon="10.13392764056785"><ele>493.0</ele><time>2026-04-04T09:45:39.999Z</time></trkpt><trkpt lat="44.52229599167233" lon="10.134111896362661"><ele>490.0</ele><time>2026-04-04T09:45:40.999Z</time></trkpt><trkpt lat="44.52244693530216" lon="10.134234332809282"><ele>487.0</ele><time>2026-04-04T09:45:41.999Z</time></trkpt><trkpt lat="44.522567020736965" lon="10.134368301505242"><ele>487.0</ele><time>2026-04-04T09:45:42.999Z</time></trkpt><trkpt lat="44.52270216672009" lon="10.134699241695916"><ele>487.0</ele><time>2026-04-04T09:45:43.999Z</time></trkpt><trkpt lat="44.52278217516196" lon="10.134919883079151"><ele>487.0</ele><time>2026-04-04T09:45:44.999Z</time></trkpt><trkpt lat="44.52289335109315" lon="10.135137433349312"><ele>495.6666666666667</ele><time>2026-04-04T09:45:45.999Z</time></trkpt><trkpt lat="44.52300950915505" lon="10.135355666714306"><ele>504.33333333333337</ele><time>2026-04-04T09:45:46.999Z</time></trkpt><trkpt lat="44.523149183879106" lon="10.135547773473997"><ele>513.0</ele><time>2026-04-04T09:45:47.999Z</time></trkpt><trkpt lat="44.523321224486104" lon="10.13571003935695"><ele>513.6666666666666</ele><time>2026-04-04T09:45:48.999Z</time></trkpt><trkpt lat="44.52350387827105" lon="10.135854355138276"><ele>514.3333333333333</ele><time>2026-04-04T09:45:49.999Z</time></trkpt><trkpt lat="44.52366829694064" lon="10.135966179004859"><ele>515.0</ele><time>2026-04-04T09:45:50.999Z</time></trkpt><trkpt lat="44.52386273258702" lon="10.13602999774411"><ele>515.0</ele><time>2026-04-04T09:45:51.999Z</time></trkpt><trkpt lat="44.52405734892997" lon="10.136074252705999"><ele>515.0</ele><time>2026-04-04T09:45:52.999Z</time></trkpt><trkpt lat="44.52423803215087" lon="10.13619628709736"><ele>515.0</ele><time>2026-04-04T09:45:53.999Z</time></trkpt><trkpt lat="44.52436675691655" lon="10.136427814037516"><ele>514.6666666666666</ele><time>2026-04-04T09:45:54.999Z</time></trkpt><trkpt lat="44.524483736572165" lon="10.13668656450932"><ele>514.3333333333334</ele><time>2026-04-04T09:45:55.999Z</time></trkpt><trkpt lat="44.524607935420526" lon="10.136891353094438"><ele>514.0</ele><time>2026-04-04T09:45:56.999Z</time></trkpt><trkpt lat="44.52473125428297" lon="10.137057503734422"><ele>514.0</ele><time>2026-04-04T09:45:57.999Z</time></trkpt><trkpt lat="44.52490344719737" lon="10.137220384767142"><ele>514.0</ele><time>2026-04-04T09:45:58.999Z</time></trkpt><trkpt lat="44.52510703892202" lon="10.137360196799062"><ele>514.0</ele><time>2026-04-04T09:45:59.999Z</time></trkpt><trkpt lat="44.525282190763484" lon="10.137466505272517"><ele>506.0</ele><time>2026-04-04T09:46:00.999Z</time></trkpt><trkpt lat="44.525442524209105" lon="10.137484757397779"><ele>498.0</ele><time>2026-04-04T09:46:01.999Z</time></trkpt><trkpt lat="44.52561588319024" lon="10.137479809243606"><ele>490.0</ele><time>2026-04-04T09:46:02.999Z</time></trkpt><trkpt lat="44.525822455156195" lon="10.137435391338274"><ele>490.0</ele><time>2026-04-04T09:46:03.999Z</time></trkpt><trkpt lat="44.52602386934146" lon="10.13745862083253"><ele>490.0</ele><time>2026-04-04T09:46:04.999Z</time></trkpt><trkpt lat="44.52618927125976" lon="10.137583378403702"><ele>490.0</ele><time>2026-04-04T09:46:05.999Z</time></trkpt><trkpt lat="44.526308937626276" lon="10.137749803506704"><ele>489.33333333333337</ele><time>2026-04-04T09:46:06.999Z</time></trkpt><trkpt lat="44.52642200810149" lon="10.137970882528336"><ele>488.66666666666663</ele><time>2026-04-04T09:46:07.999Z</time></trkpt><trkpt lat="44.52653842753211" lon="10.138146569825787"><ele>488.0</ele><time>2026-04-04T09:46:08.999Z</time></trkpt><trkpt lat="44.52665441162862" lon="10.138279152246588"><ele>488.0</ele><time>2026-04-04T09:46:09.999Z</time></trkpt><trkpt lat="44.526778957924876" lon="10.138368924040062"><ele>488.0</ele><time>2026-04-04T09:46:10.999Z</time></trkpt><trkpt lat="44.52696456781131" lon="10.138400176168876"><ele>488.0</ele><time>2026-04-04T09:46:12Z</time></trkpt><trkpt lat="44.527156940873574" lon="10.138428186301722"><ele>491.0</ele><time>2026-04-04T09:46:13Z</time></trkpt><trkpt lat="44.52731084108907" lon="10.138566647173446"><ele>494.0</ele><time>2026-04-04T09:46:14Z</time></trkpt><trkpt lat="44.52745433905901" lon="10.138764955033855"><ele>497.0</ele><time>2026-04-04T09:46:15Z</time></trkpt><trkpt lat="44.527616816134895" lon="10.13900872565118"><ele>494.0</ele><time>2026-04-04T09:46:16Z</time></trkpt><trkpt lat="44.527785136481945" lon="10.139239577227137"><ele>491.0</ele><time>2026-04-04T09:46:17Z</time></trkpt><trkpt lat="44.52792750025955" lon="10.139456453139731"><ele>488.0</ele><time>2026-04-04T09:46:18Z</time></trkpt><trkpt lat="44.52806504304795" lon="10.139650349709719"><ele>489.0</ele><time>2026-04-04T09:46:19Z</time></trkpt><trkpt lat="44.52820136380845" lon="10.139805815217446"><ele>490.0</ele><time>2026-04-04T09:46:20Z</time></trkpt><trkpt lat="44.52837622505901" lon="10.139923713427414"><ele>491.0</ele><time>2026-04-04T09:46:21Z</time></trkpt><trkpt lat="44.52859290296158" lon="10.140025781378627"><ele>495.3333333333333</ele><time>2026-04-04T09:46:22Z</time></trkpt><trkpt lat="44.52877179445188" lon="10.140136365533465"><ele>499.66666666666663</ele><time>2026-04-04T09:46:23Z</time></trkpt><trkpt lat="44.52889814210275" lon="10.140303974063432"><ele>504.0</ele><time>2026-04-04T09:46:24Z</time></trkpt><trkpt lat="44.52903520837035" lon="10.140446452975468"><ele>504.0</ele><time>2026-04-04T09:46:25Z</time></trkpt><trkpt lat="44.52917187759721" lon="10.140625796719608"><ele>504.0</ele><time>2026-04-04T09:46:26Z</time></trkpt><trkpt lat="44.529326820785734" lon="10.140824772194"><ele>504.0</ele><time>2026-04-04T09:46:27Z</time></trkpt><trkpt lat="44.529464698201274" lon="10.141035809922661"><ele>505.33333333333337</ele><time>2026-04-04T09:46:28Z</time></trkpt><trkpt lat="44.52958948253605" lon="10.141216979449394"><ele>506.6666666666667</ele><time>2026-04-04T09:46:29Z</time></trkpt><trkpt lat="44.52971717485545" lon="10.141346651563966"><ele>508.0</ele><time>2026-04-04T09:46:30Z</time></trkpt><trkpt lat="44.52979527666209" lon="10.141512693807487"><ele>506.6666666666667</ele><time>2026-04-04T09:46:31Z</time></trkpt><trkpt lat="44.52976928731912" lon="10.141735121631946"><ele>505.33333333333337</ele><time>2026-04-04T09:46:32Z</time></trkpt><trkpt lat="44.52972358748604" lon="10.141939859493277"><ele>504.0</ele><time>2026-04-04T09:46:33Z</time></trkpt><trkpt lat="44.529628316942016" lon="10.142118989461176"><ele>498.0</ele><time>2026-04-04T09:46:34Z</time></trkpt><trkpt lat="44.52947559920571" lon="10.142239839727294"><ele>492.0</ele><time>2026-04-04T09:46:35Z</time></trkpt><trkpt lat="44.52926498591629" lon="10.142252687664806"><ele>486.0</ele><time>2026-04-04T09:46:36Z</time></trkpt><trkpt lat="44.529104109954545" lon="10.142361817243088"><ele>488.33333333333337</ele><time>2026-04-04T09:46:37Z</time></trkpt><trkpt lat="44.528947623883354" lon="10.142520974685382"><ele>490.6666666666667</ele><time>2026-04-04T09:46:38Z</time></trkpt><trkpt lat="44.52885335931949" lon="10.142719550833858"><ele>493.0</ele><time>2026-04-04T09:46:39Z</time></trkpt><trkpt lat="44.52879576613357" lon="10.142955939556387"><ele>493.0</ele><time>2026-04-04T09:46:40Z</time></trkpt><trkpt lat="44.52878111837935" lon="10.143195024960441"><ele>493.0</ele><time>2026-04-04T09:46:41Z</time></trkpt><trkpt lat="44.5288254024723" lon="10.14345218298527"><ele>493.0</ele><time>2026-04-04T09:46:42Z</time></trkpt><trkpt lat="44.52890086402734" lon="10.143700008473159"><ele>494.0</ele><time>2026-04-04T09:46:43Z</time></trkpt><trkpt lat="44.5289868724407" lon="10.143965475260005"><ele>495.0</ele><time>2026-04-04T09:46:44Z</time></trkpt><trkpt lat="44.52906153383606" lon="10.144224469969142"><ele>496.0</ele><time>2026-04-04T09:46:45Z</time></trkpt><trkpt lat="44.52912884207057" lon="10.144460366228062"><ele>496.0</ele><time>2026-04-04T09:46:46Z</time></trkpt><trkpt lat="44.52922598830891" lon="10.144689049500542"><ele>496.0</ele><time>2026-04-04T09:46:47Z</time></trkpt><trkpt lat="44.52936750913973" lon="10.144920373160538"><ele>496.0</ele><time>2026-04-04T09:46:48Z</time></trkpt><trkpt lat="44.529543728731056" lon="10.145155847248176"><ele>497.0</ele><time>2026-04-04T09:46:49Z</time></trkpt><trkpt lat="44.52970817989988" lon="10.145401012716988"><ele>498.0</ele><time>2026-04-04T09:46:50Z</time></trkpt><trkpt lat="44.529870944574355" lon="10.145657006867815"><ele>495.66666666666663</ele><time>2026-04-04T09:46:51Z</time></trkpt><trkpt lat="44.53002520514248" lon="10.145904077639157"><ele>493.3333333333333</ele><time>2026-04-04T09:46:52Z</time></trkpt><trkpt lat="44.53016627653514" lon="10.146127231264582"><ele>491.0</ele><time>2026-04-04T09:46:53Z</time></trkpt><trkpt lat="44.53030835894916" lon="10.14632464347569"><ele>491.66666666666663</ele><time>2026-04-04T09:46:54Z</time></trkpt><trkpt lat="44.53045398046728" lon="10.146471253201478"><ele>492.33333333333337</ele><time>2026-04-04T09:46:55Z</time></trkpt><trkpt lat="44.53062682340295" lon="10.146591190879104"><ele>493.0</ele><time>2026-04-04T09:46:56Z</time></trkpt><trkpt lat="44.53083454128653" lon="10.146707456082583"><ele>491.6666666666667</ele><time>2026-04-04T09:46:57Z</time></trkpt><trkpt lat="44.531027788199715" lon="10.146802595218938"><ele>490.33333333333337</ele><time>2026-04-04T09:46:58Z</time></trkpt><trkpt lat="44.53117694188274" lon="10.146900689386975"><ele>489.0</ele><time>2026-04-04T09:46:59Z</time></trkpt><trkpt lat="44.53131242647391" lon="10.147000913870583"><ele>488.75</ele><time>2026-04-04T09:47:00Z</time></trkpt><trkpt lat="44.53143442978126" lon="10.147113562549697"><ele>488.5</ele><time>2026-04-04T09:47:01Z</time></trkpt><trkpt lat="44.53153848326033" lon="10.147258165808765"><ele>488.25</ele><time>2026-04-04T09:47:02Z</time></trkpt><trkpt lat="44.53161928194484" lon="10.147421451120799"><ele>488.0</ele><time>2026-04-04T09:47:03Z</time></trkpt><trkpt lat="44.5316833040371" lon="10.147590822644862"><ele>487.75</ele><time>2026-04-04T09:47:04Z</time></trkpt><trkpt lat="44.531753720112135" lon="10.147757572464238"><ele>487.5</ele><time>2026-04-04T09:47:05Z</time></trkpt><trkpt lat="44.53184181067082" lon="10.147923597344544"><ele>487.25</ele><time>2026-04-04T09:47:06Z</time></trkpt><trkpt lat="44.53195607110999" lon="10.148065111532778"><ele>487.0</ele><time>2026-04-04T09:47:07Z</time></trkpt><trkpt lat="44.53211433056375" lon="10.148175857819389"><ele>483.0</ele><time>2026-04-04T09:47:08Z</time></trkpt><trkpt lat="44.532293702471904" lon="10.148231807286633"><ele>479.0</ele><time>2026-04-04T09:47:09Z</time></trkpt><trkpt lat="44.53244182244579" lon="10.148302399399169"><ele>475.0</ele><time>2026-04-04T09:47:10Z</time></trkpt><trkpt lat="44.53256000465261" lon="10.148454512967913"><ele>475.0</ele><time>2026-04-04T09:47:11Z</time></trkpt><trkpt lat="44.532668443220146" lon="10.14867321369395"><ele>475.0</ele><time>2026-04-04T09:47:12Z</time></trkpt><trkpt lat="44.53276717112924" lon="10.148953721612324"><ele>475.0</ele><time>2026-04-04T09:47:13Z</time></trkpt><trkpt lat="44.53287652928167" lon="10.14923455111666"><ele>484.0</ele><time>2026-04-04T09:47:14Z</time></trkpt><trkpt lat="44.53297349249992" lon="10.149545837393312"><ele>493.0</ele><time>2026-04-04T09:47:15Z</time></trkpt><trkpt lat="44.53307791057273" lon="10.1498529630912"><ele>489.0</ele><time>2026-04-04T09:47:16Z</time></trkpt><trkpt lat="44.533180687275866" lon="10.150166034940804"><ele>485.0</ele><time>2026-04-04T09:47:17Z</time></trkpt><trkpt lat="44.53327462604105" lon="10.15045488735675"><ele>485.0</ele><time>2026-04-04T09:47:18Z</time></trkpt><trkpt lat="44.533351540161945" lon="10.150700407927397"><ele>485.0</ele><time>2026-04-04T09:47:19Z</time></trkpt><trkpt lat="44.533465446130855" lon="10.150949176712679"><ele>485.0</ele><time>2026-04-04T09:47:19.999Z</time></trkpt><trkpt lat="44.533607030763584" lon="10.151177952242184"><ele>485.3333333333333</ele><time>2026-04-04T09:47:20.999Z</time></trkpt><trkpt lat="44.533771040025506" lon="10.151385643235404"><ele>485.66666666666663</ele><time>2026-04-04T09:47:21.999Z</time></trkpt><trkpt lat="44.53392327226313" lon="10.151613724185122"><ele>486.0</ele><time>2026-04-04T09:47:22.999Z</time></trkpt><trkpt lat="44.53404406124558" lon="10.15186378011507"><ele>486.0</ele><time>2026-04-04T09:47:23.999Z</time></trkpt><trkpt lat="44.53414861738844" lon="10.152110160322108"><ele>486.0</ele><time>2026-04-04T09:47:24.999Z</time></trkpt><trkpt lat="44.53423923328001" lon="10.152336190974266"><ele>486.0</ele><time>2026-04-04T09:47:25.999Z</time></trkpt><trkpt lat="44.53432469580001" lon="10.15255801729423"><ele>480.33333333333337</ele><time>2026-04-04T09:47:26.999Z</time></trkpt><trkpt lat="44.534383202443394" lon="10.152768083395756"><ele>474.6666666666667</ele><time>2026-04-04T09:47:27.999Z</time></trkpt><trkpt lat="44.53444157858913" lon="10.152969630923257"><ele>469.0</ele><time>2026-04-04T09:47:28.999Z</time></trkpt><trkpt lat="44.53452377915198" lon="10.153150837714334"><ele>470.6666666666667</ele><time>2026-04-04T09:47:29.999Z</time></trkpt><trkpt lat="44.53463964261303" lon="10.153300195737888"><ele>472.33333333333337</ele><time>2026-04-04T09:47:30.999Z</time></trkpt><trkpt lat="44.53477814430417" lon="10.153411486821524"><ele>474.0</ele><time>2026-04-04T09:47:31.999Z</time></trkpt><trkpt lat="44.534922516551674" lon="10.153508580655968"><ele>474.0</ele><time>2026-04-04T09:47:32.999Z</time></trkpt><trkpt lat="44.53506141037925" lon="10.153631040038457"><ele>474.0</ele><time>2026-04-04T09:47:33.999Z</time></trkpt><trkpt lat="44.53518399792889" lon="10.153842517621491"><ele>474.0</ele><time>2026-04-04T09:47:34.999Z</time></trkpt><trkpt lat="44.53534418694249" lon="10.154100391352218"><ele>470.0</ele><time>2026-04-04T09:47:35.999Z</time></trkpt><trkpt lat="44.53550927022506" lon="10.154370488656397"><ele>466.0</ele><time>2026-04-04T09:47:36.999Z</time></trkpt><trkpt lat="44.535661450461554" lon="10.154606306270399"><ele>466.0</ele><time>2026-04-04T09:47:37.999Z</time></trkpt><trkpt lat="44.53577917940776" lon="10.154829556160369"><ele>466.0</ele><time>2026-04-04T09:47:38.999Z</time></trkpt><trkpt lat="44.53585223894434" lon="10.15504679387897"><ele>466.0</ele><time>2026-04-04T09:47:39.999Z</time></trkpt><trkpt lat="44.53587954773446" lon="10.155252445594964"><ele>465.75</ele><time>2026-04-04T09:47:40.999Z</time></trkpt><trkpt lat="44.53588185324314" lon="10.155476345400375"><ele>465.5</ele><time>2026-04-04T09:47:41.999Z</time></trkpt><trkpt lat="44.535856349090984" lon="10.155673088669275"><ele>465.25</ele><time>2026-04-04T09:47:42.999Z</time></trkpt><trkpt lat="44.53582146355412" lon="10.155868840639314"><ele>465.0</ele><time>2026-04-04T09:47:43.999Z</time></trkpt><trkpt lat="44.53579363247389" lon="10.156058905254508"><ele>465.0</ele><time>2026-04-04T09:47:44.999Z</time></trkpt><trkpt lat="44.53575590445015" lon="10.156227878256521"><ele>465.0</ele><time>2026-04-04T09:47:45.999Z</time></trkpt><trkpt lat="44.535730765435986" lon="10.15640980259927"><ele>465.0</ele><time>2026-04-04T09:47:46.999Z</time></trkpt><trkpt lat="44.535738292193166" lon="10.156600546494188"><ele>465.0</ele><time>2026-04-04T09:47:47.999Z</time></trkpt><trkpt lat="44.53578611413456" lon="10.156808666900677"><ele>465.0</ele><time>2026-04-04T09:47:48.999Z</time></trkpt><trkpt lat="44.53585409500932" lon="10.157088564546513"><ele>465.0</ele><time>2026-04-04T09:47:49.999Z</time></trkpt><trkpt lat="44.535961502290164" lon="10.157375026493568"><ele>465.0</ele><time>2026-04-04T09:47:50.999Z</time></trkpt><trkpt lat="44.53600059432146" lon="10.157692206167278"><ele>463.33333333333337</ele><time>2026-04-04T09:47:51.999Z</time></trkpt><trkpt lat="44.536020346675976" lon="10.157986803783558"><ele>461.6666666666667</ele><time>2026-04-04T09:47:52.999Z</time></trkpt><trkpt lat="44.536046626087234" lon="10.15827142002681"><ele>460.0</ele><time>2026-04-04T09:47:53.999Z</time></trkpt><trkpt lat="44.53608523654107" lon="10.158527045335092"><ele>462.33333333333337</ele><time>2026-04-04T09:47:54.999Z</time></trkpt><trkpt lat="44.53617745670995" lon="10.158766748584869"><ele>464.66666666666663</ele><time>2026-04-04T09:47:55.999Z</time></trkpt><trkpt lat="44.53632780024588" lon="10.15899048455124"><ele>467.0</ele><time>2026-04-04T09:47:56.999Z</time></trkpt><trkpt lat="44.5365105292347" lon="10.15922361461834"><ele>467.0</ele><time>2026-04-04T09:47:57.999Z</time></trkpt><trkpt lat="44.53671747228673" lon="10.159493480996773"><ele>467.0</ele><time>2026-04-04T09:47:58.999Z</time></trkpt><trkpt lat="44.53690764608388" lon="10.159788511751568"><ele>466.0</ele><time>2026-04-04T09:47:59.999Z</time></trkpt><trkpt lat="44.53707085881672" lon="10.15996125363872"><ele>465.0</ele><time>2026-04-04T09:48:00.999Z</time></trkpt><trkpt lat="44.53725152641068" lon="10.160203463019034"><ele>465.0</ele><time>2026-04-04T09:48:01.999Z</time></trkpt><trkpt lat="44.53744042699634" lon="10.160463805142683"><ele>465.0</ele><time>2026-04-04T09:48:02.999Z</time></trkpt><trkpt lat="44.537624428623865" lon="10.160723813159814"><ele>463.5</ele><time>2026-04-04T09:48:03.999Z</time></trkpt><trkpt lat="44.537799576661406" lon="10.160974973967772"><ele>462.0</ele><time>2026-04-04T09:48:04.999Z</time></trkpt><trkpt lat="44.537978113198776" lon="10.161220005643035"><ele>463.5</ele><time>2026-04-04T09:48:05.999Z</time></trkpt><trkpt lat="44.538160544681766" lon="10.161465105226808"><ele>465.0</ele><time>2026-04-04T09:48:06.999Z</time></trkpt><trkpt lat="44.53834411667469" lon="10.16170145247454"><ele>465.0</ele><time>2026-04-04T09:48:07.999Z</time></trkpt><trkpt lat="44.53853091221351" lon="10.161930355687831"><ele>465.0</ele><time>2026-04-04T09:48:08.999Z</time></trkpt><trkpt lat="44.538717709233794" lon="10.16213524245795"><ele>465.66666666666663</ele><time>2026-04-04T09:48:09.999Z</time></trkpt><trkpt lat="44.53888545209645" lon="10.162329824850302"><ele>466.3333333333333</ele><time>2026-04-04T09:48:10.999Z</time></trkpt><trkpt lat="44.539019507144644" lon="10.162542289256656"><ele>467.0</ele><time>2026-04-04T09:48:11.999Z</time></trkpt><trkpt lat="44.53916115676416" lon="10.162758993193886"><ele>467.0</ele><time>2026-04-04T09:48:12.999Z</time></trkpt><trkpt lat="44.53930693013865" lon="10.162988840896187"><ele>467.0</ele><time>2026-04-04T09:48:13.999Z</time></trkpt><trkpt lat="44.539487316642465" lon="10.1632022282466"><ele>467.3333333333333</ele><time>2026-04-04T09:48:14.999Z</time></trkpt><trkpt lat="44.53967124558264" lon="10.163397100758674"><ele>467.66666666666663</ele><time>2026-04-04T09:48:15.999Z</time></trkpt><trkpt lat="44.53983681545691" lon="10.163577579141746"><ele>468.0</ele><time>2026-04-04T09:48:16.999Z</time></trkpt><trkpt lat="44.54000496579523" lon="10.16375847810548"><ele>468.0</ele><time>2026-04-04T09:48:18Z</time></trkpt><trkpt lat="44.54015752465324" lon="10.163932400013863"><ele>468.0</ele><time>2026-04-04T09:48:19Z</time></trkpt><trkpt lat="44.540296581320135" lon="10.16412762678203"><ele>468.0</ele><time>2026-04-04T09:48:20Z</time></trkpt><trkpt lat="44.5404114544855" lon="10.164344330774426"><ele>467.66666666666663</ele><time>2026-04-04T09:48:21Z</time></trkpt><trkpt lat="44.540482989660205" lon="10.164594012414282"><ele>467.3333333333333</ele><time>2026-04-04T09:48:22Z</time></trkpt><trkpt lat="44.54053026060745" lon="10.164863709923294"><ele>467.0</ele><time>2026-04-04T09:48:23Z</time></trkpt><trkpt lat="44.54055487928948" lon="10.165100179708213"><ele>467.0</ele><time>2026-04-04T09:48:24Z</time></trkpt><trkpt lat="44.540576349088624" lon="10.165333896758748"><ele>467.0</ele><time>2026-04-04T09:48:25Z</time></trkpt><trkpt lat="44.540597108834795" lon="10.16555615297009"><ele>467.0</ele><time>2026-04-04T09:48:26Z</time></trkpt><trkpt lat="44.54062057640868" lon="10.165763028840402"><ele>466.75</ele><time>2026-04-04T09:48:27Z</time></trkpt><trkpt lat="44.54063936104218" lon="10.165954825406258"><ele>466.5</ele><time>2026-04-04T09:48:28Z</time></trkpt><trkpt lat="44.54065802253253" lon="10.16613349090298"><ele>466.25</ele><time>2026-04-04T09:48:29Z</time></trkpt><trkpt lat="44.54068030467656" lon="10.166315484129484"><ele>466.0</ele><time>2026-04-04T09:48:30Z</time></trkpt><trkpt lat="44.540699403711365" lon="10.166509045828892"><ele>465.75</ele><time>2026-04-04T09:48:31Z</time></trkpt><trkpt lat="44.54071981001983" lon="10.166699377786632"><ele>465.5</ele><time>2026-04-04T09:48:32Z</time></trkpt><trkpt lat="44.540741700977875" lon="10.166886716796128"><ele>465.25</ele><time>2026-04-04T09:48:33Z</time></trkpt><trkpt lat="44.5407659920629" lon="10.167085077508727"><ele>465.0</ele><time>2026-04-04T09:48:34Z</time></trkpt><trkpt lat="44.54079075063088" lon="10.16729880284358"><ele>464.33333333333337</ele><time>2026-04-04T09:48:35Z</time></trkpt><trkpt lat="44.54081462239702" lon="10.167515445980982"><ele>463.6666666666667</ele><time>2026-04-04T09:48:36Z</time></trkpt><trkpt lat="44.54083978229934" lon="10.16773804480663"><ele>463.0</ele><time>2026-04-04T09:48:37Z</time></trkpt><trkpt lat="44.540863558313006" lon="10.16797116152899"><ele>464.33333333333337</ele><time>2026-04-04T09:48:38Z</time></trkpt><trkpt lat="44.540888804233234" lon="10.168196065969381"><ele>465.66666666666663</ele><time>2026-04-04T09:48:39Z</time></trkpt><trkpt lat="44.540913808460814" lon="10.168416643474517"><ele>467.0</ele><time>2026-04-04T09:48:40Z</time></trkpt><trkpt lat="44.54093567177152" lon="10.168621639313152"><ele>467.0</ele><time>2026-04-04T09:48:41Z</time></trkpt><trkpt lat="44.54095560875881" lon="10.168813511966967"><ele>467.0</ele><time>2026-04-04T09:48:42Z</time></trkpt><trkpt lat="44.54097176846732" lon="10.16899580300018"><ele>467.0</ele><time>2026-04-04T09:48:43Z</time></trkpt><trkpt lat="44.54098829275972" lon="10.169183687607964"><ele>467.0</ele><time>2026-04-04T09:48:44Z</time></trkpt><trkpt lat="44.54100405926584" lon="10.169347234982073"><ele>466.40000000000003</ele><time>2026-04-04T09:48:45Z</time></trkpt><trkpt lat="44.541024546608725" lon="10.169496998665904"><ele>465.80000000000007</ele><time>2026-04-04T09:48:46Z</time></trkpt><trkpt lat="44.54104786294139" lon="10.169638857735007"><ele>465.2</ele><time>2026-04-04T09:48:47Z</time></trkpt><trkpt lat="44.54108150488053" lon="10.169761164763543"><ele>464.6</ele><time>2026-04-04T09:48:48Z</time></trkpt><trkpt lat="44.541148392809205" lon="10.169848757711188"><ele>464.0</ele><time>2026-04-04T09:48:49Z</time></trkpt><trkpt lat="44.54125016348833" lon="10.169899784715076"><ele>463.4</ele><time>2026-04-04T09:48:50Z</time></trkpt><trkpt lat="44.54136320298708" lon="10.16991011463165"><ele>462.79999999999995</ele><time>2026-04-04T09:48:51Z</time></trkpt><trkpt lat="44.54147137148768" lon="10.169900805955562"><ele>462.20000000000005</ele><time>2026-04-04T09:48:52Z</time></trkpt><trkpt lat="44.54156330393253" lon="10.169887370885904"><ele>461.6</ele><time>2026-04-04T09:48:53Z</time></trkpt><trkpt lat="44.541644116893366" lon="10.169881086693858"><ele>461.0</ele><time>2026-04-04T09:48:54Z</time></trkpt><trkpt lat="44.54172657300297" lon="10.169883103880027"><ele>461.0</ele><time>2026-04-04T09:48:55Z</time></trkpt><trkpt lat="44.5418154608021" lon="10.169874255003062"><ele>461.0</ele><time>2026-04-04T09:48:56Z</time></trkpt><trkpt lat="44.54192293759164" lon="10.169870420884827"><ele>461.0</ele><time>2026-04-04T09:48:57Z</time></trkpt><trkpt lat="44.54205048511266" lon="10.169871585608071"><ele>461.0</ele><time>2026-04-04T09:48:58Z</time></trkpt><trkpt lat="44.542197850959504" lon="10.16987933728773"><ele>460.0</ele><time>2026-04-04T09:48:59Z</time></trkpt><trkpt lat="44.54236210113507" lon="10.169900499950195"><ele>459.0</ele><time>2026-04-04T09:49:00Z</time></trkpt><trkpt lat="44.542546055896054" lon="10.169944719624208"><ele>458.0</ele><time>2026-04-04T09:49:01Z</time></trkpt><trkpt lat="44.54272949711296" lon="10.169989224877552"><ele>458.3333333333333</ele><time>2026-04-04T09:49:02Z</time></trkpt><trkpt lat="44.54292603551911" lon="10.170036050603244"><ele>458.66666666666663</ele><time>2026-04-04T09:49:03Z</time></trkpt><trkpt lat="44.54311081355335" lon="10.170075043454464"><ele>459.0</ele><time>2026-04-04T09:49:04Z</time></trkpt><trkpt lat="44.54328191980118" lon="10.170100868045601"><ele>459.0</ele><time>2026-04-04T09:49:05Z</time></trkpt><trkpt lat="44.543460127514585" lon="10.170098013235775"><ele>459.0</ele><time>2026-04-04T09:49:06Z</time></trkpt><trkpt lat="44.54363853980474" lon="10.170086478811672"><ele>459.0</ele><time>2026-04-04T09:49:07Z</time></trkpt><trkpt lat="44.543802589082865" lon="10.170087488169761"><ele>459.0</ele><time>2026-04-04T09:49:08Z</time></trkpt><trkpt lat="44.54395585102891" lon="10.170134240310249"><ele>459.0</ele><time>2026-04-04T09:49:09Z</time></trkpt><trkpt lat="44.54411775164378" lon="10.170229022392306"><ele>459.0</ele><time>2026-04-04T09:49:10Z</time></trkpt><trkpt lat="44.54427118373427" lon="10.170418223216632"><ele>459.0</ele><time>2026-04-04T09:49:11Z</time></trkpt><trkpt lat="44.544451483077424" lon="10.170608829842404"><ele>459.0</ele><time>2026-04-04T09:49:12Z</time></trkpt><trkpt lat="44.544624424428115" lon="10.170775383759514"><ele>459.0</ele><time>2026-04-04T09:49:13Z</time></trkpt><trkpt lat="44.54478040636812" lon="10.170920063986618"><ele>458.0</ele><time>2026-04-04T09:49:14Z</time></trkpt><trkpt lat="44.54492299573641" lon="10.171035270217622"><ele>457.0</ele><time>2026-04-04T09:49:15Z</time></trkpt><trkpt lat="44.54507968407173" lon="10.171111783541008"><ele>456.0</ele><time>2026-04-04T09:49:16Z</time></trkpt><trkpt lat="44.545266855671414" lon="10.17113860637442"><ele>455.0</ele><time>2026-04-04T09:49:17Z</time></trkpt><trkpt lat="44.54547952172103" lon="10.171145541212091"><ele>454.0</ele><time>2026-04-04T09:49:18Z</time></trkpt><trkpt lat="44.545680782779286" lon="10.171164050234768"><ele>453.0</ele><time>2026-04-04T09:49:19Z</time></trkpt><trkpt lat="44.545865503645636" lon="10.171236489813346"><ele>453.0</ele><time>2026-04-04T09:49:20Z</time></trkpt><trkpt lat="44.54603460702172" lon="10.171371093490261"><ele>453.0</ele><time>2026-04-04T09:49:21Z</time></trkpt><trkpt lat="44.54617457041244" lon="10.171574745867568"><ele>453.0</ele><time>2026-04-04T09:49:22Z</time></trkpt><trkpt lat="44.546274033591814" lon="10.171840273714023"><ele>453.33333333333337</ele><time>2026-04-04T09:49:23Z</time></trkpt><trkpt lat="44.546357891473356" lon="10.172140326961342"><ele>453.6666666666667</ele><time>2026-04-04T09:49:24Z</time></trkpt><trkpt lat="44.54644475306215" lon="10.17242060307528"><ele>454.0</ele><time>2026-04-04T09:49:25Z</time></trkpt><trkpt lat="44.54653326504964" lon="10.172684272515028"><ele>452.0</ele><time>2026-04-04T09:49:25.999Z</time></trkpt><trkpt lat="44.54661982903916" lon="10.17294249908582"><ele>450.0</ele><time>2026-04-04T09:49:26.999Z</time></trkpt><trkpt lat="44.546711821788236" lon="10.173186746241218"><ele>448.0</ele><time>2026-04-04T09:49:27.999Z</time></trkpt><trkpt lat="44.54682049838338" lon="10.173405623688177"><ele>447.0</ele><time>2026-04-04T09:49:28.999Z</time></trkpt><trkpt lat="44.54696394824716" lon="10.173606535351748"><ele>446.0</ele><time>2026-04-04T09:49:29.999Z</time></trkpt><trkpt lat="44.5471445411712" lon="10.173781038993571"><ele>445.0</ele><time>2026-04-04T09:49:30.999Z</time></trkpt><trkpt lat="44.54727912670474" lon="10.173968261002237"><ele>446.6666666666667</ele><time>2026-04-04T09:49:31.999Z</time></trkpt><trkpt lat="44.54737276043969" lon="10.174160594790495"><ele>448.33333333333337</ele><time>2026-04-04T09:49:32.999Z</time></trkpt><trkpt lat="44.547411618134674" lon="10.174410650237645"><ele>450.0</ele><time>2026-04-04T09:49:33.999Z</time></trkpt><trkpt lat="44.54741987663817" lon="10.174705062924497"><ele>450.0</ele><time>2026-04-04T09:49:34.999Z</time></trkpt><trkpt lat="44.547413417987634" lon="10.175016069911942"><ele>450.0</ele><time>2026-04-04T09:49:35.999Z</time></trkpt><trkpt lat="44.54740181193769" lon="10.175352713710463"><ele>450.0</ele><time>2026-04-04T09:49:36.999Z</time></trkpt><trkpt lat="44.547393615102195" lon="10.175663430851928"><ele>450.0</ele><time>2026-04-04T09:49:37.999Z</time></trkpt><trkpt lat="44.54738605616618" lon="10.176008186868167"><ele>450.0</ele><time>2026-04-04T09:49:38.999Z</time></trkpt><trkpt lat="44.547329806389705" lon="10.176373332047685"><ele>450.0</ele><time>2026-04-04T09:49:39.999Z</time></trkpt><trkpt lat="44.547212991966546" lon="10.176780027405906"><ele>450.0</ele><time>2026-04-04T09:49:40.999Z</time></trkpt><trkpt lat="44.547154177922586" lon="10.176961282254863"><ele>450.0</ele><time>2026-04-04T09:49:41.999Z</time></trkpt><trkpt lat="44.54706823662567" lon="10.177240315016796"><ele>450.0</ele><time>2026-04-04T09:49:42.999Z</time></trkpt><trkpt lat="44.54700705857571" lon="10.177494966739225"><ele>448.66666666666663</ele><time>2026-04-04T09:49:43.999Z</time></trkpt><trkpt lat="44.54694653307306" lon="10.177723323849857"><ele>447.3333333333333</ele><time>2026-04-04T09:49:44.999Z</time></trkpt><trkpt lat="44.546907296091014" lon="10.177977588680807"><ele>446.0</ele><time>2026-04-04T09:49:45.999Z</time></trkpt><trkpt lat="44.54688812051415" lon="10.17826920592051"><ele>446.0</ele><time>2026-04-04T09:49:46.999Z</time></trkpt><trkpt lat="44.546894901103144" lon="10.178562194979841"><ele>446.0</ele><time>2026-04-04T09:49:47.999Z</time></trkpt><trkpt lat="44.546933545410305" lon="10.178872281213593"><ele>446.0</ele><time>2026-04-04T09:49:48.999Z</time></trkpt><trkpt lat="44.546999605933735" lon="10.179178623049852"><ele>449.5</ele><time>2026-04-04T09:49:49.999Z</time></trkpt><trkpt lat="44.547099630858256" lon="10.179470749767438"><ele>453.0</ele><time>2026-04-04T09:49:50.999Z</time></trkpt><trkpt lat="44.547228329559196" lon="10.17974440485974"><ele>451.0</ele><time>2026-04-04T09:49:51.999Z</time></trkpt><trkpt lat="44.5473851253096" lon="10.17998851144923"><ele>449.0</ele><time>2026-04-04T09:49:52.999Z</time></trkpt><trkpt lat="44.547567940194604" lon="10.180210826053184"><ele>449.0</ele><time>2026-04-04T09:49:53.999Z</time></trkpt><trkpt lat="44.547771664348595" lon="10.180413109498318"><ele>449.0</ele><time>2026-04-04T09:49:54.999Z</time></trkpt><trkpt lat="44.547990603875185" lon="10.180593246264262"><ele>445.5</ele><time>2026-04-04T09:49:55.999Z</time></trkpt><trkpt lat="44.54821607494733" lon="10.180772660064205"><ele>442.0</ele><time>2026-04-04T09:49:56.999Z</time></trkpt><trkpt lat="44.54842604648855" lon="10.180955169120395"><ele>442.0</ele><time>2026-04-04T09:49:57.999Z</time></trkpt><trkpt lat="44.54861708619251" lon="10.181126434748867"><ele>442.0</ele><time>2026-04-04T09:49:58.999Z</time></trkpt><trkpt lat="44.54879809040209" lon="10.181294532728879"><ele>442.0</ele><time>2026-04-04T09:49:59.999Z</time></trkpt><trkpt lat="44.5489981831417" lon="10.181458860755566"><ele>439.0</ele><time>2026-04-04T09:50:00.999Z</time></trkpt><trkpt lat="44.54922241989226" lon="10.181586248507744"><ele>436.0</ele><time>2026-04-04T09:50:01.999Z</time></trkpt><trkpt lat="44.549477983059994" lon="10.181690439819075"><ele>438.0</ele><time>2026-04-04T09:50:02.999Z</time></trkpt><trkpt lat="44.54971982550832" lon="10.181789090507634"><ele>440.0</ele><time>2026-04-04T09:50:03.999Z</time></trkpt><trkpt lat="44.549940373937424" lon="10.181876503805082"><ele>440.0</ele><time>2026-04-04T09:50:04.999Z</time></trkpt><trkpt lat="44.550140048098854" lon="10.181959083001624"><ele>440.0</ele><time>2026-04-04T09:50:05.999Z</time></trkpt><trkpt lat="44.55030718054336" lon="10.182045050036606"><ele>440.0</ele><time>2026-04-04T09:50:06.999Z</time></trkpt><trkpt lat="44.55046061716407" lon="10.182127024110299"><ele>441.3333333333333</ele><time>2026-04-04T09:50:07.999Z</time></trkpt><trkpt lat="44.55060930091364" lon="10.182204223734034"><ele>442.66666666666663</ele><time>2026-04-04T09:50:08.999Z</time></trkpt><trkpt lat="44.55077004847213" lon="10.182290232616415"><ele>444.0</ele><time>2026-04-04T09:50:09.999Z</time></trkpt><trkpt lat="44.55091735581702" lon="10.182426839458923"><ele>440.66666666666663</ele><time>2026-04-04T09:50:10.999Z</time></trkpt><trkpt lat="44.55103708370306" lon="10.182597937603369"><ele>437.3333333333333</ele><time>2026-04-04T09:50:11.999Z</time></trkpt><trkpt lat="44.55112984172031" lon="10.182822628969703"><ele>434.0</ele><time>2026-04-04T09:50:12.999Z</time></trkpt><trkpt lat="44.55120076281066" lon="10.18310001701708"><ele>433.66666666666663</ele><time>2026-04-04T09:50:13.999Z</time></trkpt><trkpt lat="44.551224167459885" lon="10.183393727874355"><ele>433.33333333333337</ele><time>2026-04-04T09:50:14.999Z</time></trkpt><trkpt lat="44.551220206949765" lon="10.18371326664663"><ele>433.0</ele><time>2026-04-04T09:50:15.999Z</time></trkpt><trkpt lat="44.55122297431942" lon="10.184016487542966"><ele>433.0</ele><time>2026-04-04T09:50:16.999Z</time></trkpt><trkpt lat="44.55124250302622" lon="10.184286589396825"><ele>433.0</ele><time>2026-04-04T09:50:17.999Z</time></trkpt><trkpt lat="44.551265810558796" lon="10.184532994634996"><ele>433.0</ele><time>2026-04-04T09:50:18.999Z</time></trkpt><trkpt lat="44.55132703843489" lon="10.18475023471444"><ele>430.6666666666667</ele><time>2026-04-04T09:50:19.999Z</time></trkpt><trkpt lat="44.551438164627136" lon="10.184976418641002"><ele>428.33333333333337</ele><time>2026-04-04T09:50:20.999Z</time></trkpt><trkpt lat="44.55160609812251" lon="10.18516038519492"><ele>426.0</ele><time>2026-04-04T09:50:21.999Z</time></trkpt><trkpt lat="44.55179296496919" lon="10.185306324070709"><ele>426.0</ele><time>2026-04-04T09:50:22.999Z</time></trkpt><trkpt lat="44.55199685782714" lon="10.185391520108928"><ele>426.0</ele><time>2026-04-04T09:50:24Z</time></trkpt><trkpt lat="44.55221870773528" lon="10.185399946726069"><ele>426.0</ele><time>2026-04-04T09:50:25Z</time></trkpt><trkpt lat="44.552445260390435" lon="10.185348328200542"><ele>426.5</ele><time>2026-04-04T09:50:26Z</time></trkpt><trkpt lat="44.55267963593349" lon="10.185273584359248"><ele>427.0</ele><time>2026-04-04T09:50:27Z</time></trkpt><trkpt lat="44.552918019571365" lon="10.185180042959184"><ele>427.0</ele><time>2026-04-04T09:50:28Z</time></trkpt><trkpt lat="44.55314916515772" lon="10.18511171567218"><ele>427.0</ele><time>2026-04-04T09:50:29Z</time></trkpt><trkpt lat="44.55337487606837" lon="10.185043984406471"><ele>427.0</ele><time>2026-04-04T09:50:30Z</time></trkpt><trkpt lat="44.55358611264618" lon="10.184972867145815"><ele>427.0</ele><time>2026-04-04T09:50:31Z</time></trkpt><trkpt lat="44.55377560734086" lon="10.184916570418011"><ele>427.0</ele><time>2026-04-04T09:50:32Z</time></trkpt><trkpt lat="44.553935097284864" lon="10.18485990252696"><ele>427.5</ele><time>2026-04-04T09:50:33Z</time></trkpt><trkpt lat="44.55407500570393" lon="10.1848202104579"><ele>428.0</ele><time>2026-04-04T09:50:34Z</time></trkpt><trkpt lat="44.55418287152306" lon="10.184807864972317"><ele>428.5</ele><time>2026-04-04T09:50:35Z</time></trkpt><trkpt lat="44.55424377474365" lon="10.184951758803681"><ele>429.0</ele><time>2026-04-04T09:50:36Z</time></trkpt><trkpt lat="44.55430552254336" lon="10.185109287675504"><ele>429.0</ele><time>2026-04-04T09:50:37Z</time></trkpt><trkpt lat="44.554373047142256" lon="10.185362479677371"><ele>429.0</ele><time>2026-04-04T09:50:38Z</time></trkpt><trkpt lat="44.554441425556924" lon="10.185669368052547"><ele>429.0</ele><time>2026-04-04T09:50:39Z</time></trkpt><trkpt lat="44.554493030009574" lon="10.186001936113657"><ele>425.0</ele><time>2026-04-04T09:50:40Z</time></trkpt><trkpt lat="44.554532277683464" lon="10.18633519756554"><ele>421.0</ele><time>2026-04-04T09:50:41Z</time></trkpt><trkpt lat="44.55456951409978" lon="10.186723958221034"><ele>429.0</ele><time>2026-04-04T09:50:42Z</time></trkpt><trkpt lat="44.55464096823765" lon="10.187053288353535"><ele>437.0</ele><time>2026-04-04T09:50:43Z</time></trkpt><trkpt lat="44.55473617186332" lon="10.187379140349154"><ele>437.0</ele><time>2026-04-04T09:50:44Z</time></trkpt><trkpt lat="44.554848826152096" lon="10.18771651430271"><ele>437.0</ele><time>2026-04-04T09:50:45Z</time></trkpt><trkpt lat="44.55495055999967" lon="10.188016807608749"><ele>430.0</ele><time>2026-04-04T09:50:46Z</time></trkpt><trkpt lat="44.555066737582095" lon="10.188336255634475"><ele>423.0</ele><time>2026-04-04T09:50:47Z</time></trkpt><trkpt lat="44.55519737279708" lon="10.188647208839985"><ele>423.0</ele><time>2026-04-04T09:50:48Z</time></trkpt><trkpt lat="44.55532242741219" lon="10.188941410709349"><ele>423.0</ele><time>2026-04-04T09:50:49Z</time></trkpt><trkpt lat="44.55543662703936" lon="10.189187464538199"><ele>427.5</ele><time>2026-04-04T09:50:50Z</time></trkpt><trkpt lat="44.55558137509655" lon="10.189423127394841"><ele>432.0</ele><time>2026-04-04T09:50:51Z</time></trkpt><trkpt lat="44.55576240409548" lon="10.189629900476541"><ele>432.0</ele><time>2026-04-04T09:50:52Z</time></trkpt><trkpt lat="44.55595310475906" lon="10.189817133328669"><ele>432.0</ele><time>2026-04-04T09:50:53Z</time></trkpt><trkpt lat="44.55610042888556" lon="10.190020646862692"><ele>432.0</ele><time>2026-04-04T09:50:54Z</time></trkpt><trkpt lat="44.55623639772674" lon="10.190311315201056"><ele>429.5</ele><time>2026-04-04T09:50:55Z</time></trkpt><trkpt lat="44.55637999088949" lon="10.19061789153951"><ele>427.0</ele><time>2026-04-04T09:50:56Z</time></trkpt><trkpt lat="44.55654026431625" lon="10.190925964130694"><ele>427.0</ele><time>2026-04-04T09:50:57Z</time></trkpt><trkpt lat="44.556704730031555" lon="10.191225118918359"><ele>427.0</ele><time>2026-04-04T09:50:58Z</time></trkpt><trkpt lat="44.55685376308551" lon="10.191502329361436"><ele>423.6666666666667</ele><time>2026-04-04T09:50:59Z</time></trkpt><trkpt lat="44.55698197260901" lon="10.191749833794322"><ele>420.33333333333337</ele><time>2026-04-04T09:51:00Z</time></trkpt><trkpt lat="44.557098410584004" lon="10.191989894995798"><ele>417.0</ele><time>2026-04-04T09:51:01Z</time></trkpt><trkpt lat="44.5571724659032" lon="10.192281098376045"><ele>427.5</ele><time>2026-04-04T09:51:02Z</time></trkpt><trkpt lat="44.55722777358966" lon="10.192617345620205"><ele>438.0</ele><time>2026-04-04T09:51:03Z</time></trkpt><trkpt lat="44.5572838257809" lon="10.192977480642616"><ele>433.33333333333337</ele><time>2026-04-04T09:51:04Z</time></trkpt><trkpt lat="44.55732696337884" lon="10.193263357562168"><ele>428.6666666666667</ele><time>2026-04-04T09:51:05Z</time></trkpt><trkpt lat="44.557383188294565" lon="10.19345583841464"><ele>424.0</ele><time>2026-04-04T09:51:06Z</time></trkpt><trkpt lat="44.55746319053589" lon="10.19358294070483"><ele>424.0</ele><time>2026-04-04T09:51:07Z</time></trkpt><trkpt lat="44.55758643414867" lon="10.193692465740428"><ele>424.0</ele><time>2026-04-04T09:51:08Z</time></trkpt><trkpt lat="44.55776268616018" lon="10.193750019198793"><ele>424.0</ele><time>2026-04-04T09:51:09Z</time></trkpt><trkpt lat="44.55796612168818" lon="10.193728156400182"><ele>430.0</ele><time>2026-04-04T09:51:10Z</time></trkpt><trkpt lat="44.558170502141856" lon="10.193695080193958"><ele>436.0</ele><time>2026-04-04T09:51:11Z</time></trkpt><trkpt lat="44.5583519037155" lon="10.193730799237866"><ele>442.0</ele><time>2026-04-04T09:51:12Z</time></trkpt><trkpt lat="44.558523187172874" lon="10.19386215653764"><ele>442.0</ele><time>2026-04-04T09:51:13Z</time></trkpt><trkpt lat="44.55864506751981" lon="10.193998259532455"><ele>442.0</ele><time>2026-04-04T09:51:14Z</time></trkpt><trkpt lat="44.558728065038316" lon="10.194117706970511"><ele>442.0</ele><time>2026-04-04T09:51:15Z</time></trkpt><trkpt lat="44.558791148073915" lon="10.194273139009153"><ele>442.0</ele><time>2026-04-04T09:51:16Z</time></trkpt><trkpt lat="44.55881584233061" lon="10.194468661015934"><ele>441.20000000000005</ele><time>2026-04-04T09:51:17Z</time></trkpt><trkpt lat="44.558824786345305" lon="10.194627528182252"><ele>440.40000000000003</ele><time>2026-04-04T09:51:18Z</time></trkpt><trkpt lat="44.55884164174866" lon="10.194716284213722"><ele>439.59999999999997</ele><time>2026-04-04T09:51:22Z</time></trkpt><trkpt lat="44.55886617290056" lon="10.194860301028493"><ele>438.79999999999995</ele><time>2026-04-04T09:51:24Z</time></trkpt><trkpt lat="44.55888335780751" lon="10.195030309259058"><ele>438.0</ele><time>2026-04-04T09:51:25Z</time></trkpt><trkpt lat="44.55888825830044" lon="10.195215726086301"><ele>438.0</ele><time>2026-04-04T09:51:26Z</time></trkpt><trkpt lat="44.55888073568826" lon="10.195426933296789"><ele>438.0</ele><time>2026-04-04T09:51:27Z</time></trkpt><trkpt lat="44.558838897604105" lon="10.195598941515948"><ele>438.0</ele><time>2026-04-04T09:51:28Z</time></trkpt><trkpt lat="44.55878344787715" lon="10.195703642393987"><ele>438.0</ele><time>2026-04-04T09:51:29Z</time></trkpt><trkpt lat="44.55873097363421" lon="10.195805717163001"><ele>430.0</ele><time>2026-04-04T09:51:30Z</time></trkpt><trkpt lat="44.55859086787493" lon="10.196246877293522"><ele>422.0</ele><time>2026-04-04T09:51:30.999Z</time></trkpt><trkpt lat="44.55841440596553" lon="10.19642496223876"><ele>425.3333333333333</ele><time>2026-04-04T09:51:31.999Z</time></trkpt><trkpt lat="44.55826359702242" lon="10.196576094321854"><ele>428.66666666666663</ele><time>2026-04-04T09:51:32.999Z</time></trkpt><trkpt lat="44.55813680579245" lon="10.196726357879902"><ele>432.0</ele><time>2026-04-04T09:51:33.999Z</time></trkpt><trkpt lat="44.55804920228766" lon="10.196913858116814"><ele>432.0</ele><time>2026-04-04T09:51:34.999Z</time></trkpt><trkpt lat="44.55799194816898" lon="10.197133544532571"><ele>432.0</ele><time>2026-04-04T09:51:35.999Z</time></trkpt><trkpt lat="44.55799921376309" lon="10.197391347375776"><ele>432.0</ele><time>2026-04-04T09:51:36.999Z</time></trkpt><trkpt lat="44.55805686293248" lon="10.197649821117016"><ele>431.0</ele><time>2026-04-04T09:51:37.999Z</time></trkpt><trkpt lat="44.55816129533788" lon="10.197892848016842"><ele>430.0</ele><time>2026-04-04T09:51:38.999Z</time></trkpt><trkpt lat="44.55831218235205" lon="10.198130420111005"><ele>429.0</ele><time>2026-04-04T09:51:39.999Z</time></trkpt><trkpt lat="44.55845535060906" lon="10.198377534115737"><ele>430.0</ele><time>2026-04-04T09:51:40.999Z</time></trkpt><trkpt lat="44.55859427307047" lon="10.19862493364451"><ele>431.0</ele><time>2026-04-04T09:51:41.999Z</time></trkpt><trkpt lat="44.55872643385225" lon="10.198828729203822"><ele>432.0</ele><time>2026-04-04T09:51:42.999Z</time></trkpt><trkpt lat="44.55884969821189" lon="10.199049212246043"><ele>432.0</ele><time>2026-04-04T09:51:43.999Z</time></trkpt><trkpt lat="44.55888265596521" lon="10.199327577647427"><ele>432.0</ele><time>2026-04-04T09:51:44.999Z</time></trkpt><trkpt lat="44.55891003693421" lon="10.19962390615903"><ele>432.0</ele><time>2026-04-04T09:51:45.999Z</time></trkpt><trkpt lat="44.558969752189896" lon="10.19989672608943"><ele>430.0</ele><time>2026-04-04T09:51:46.999Z</time></trkpt><trkpt lat="44.55904003899609" lon="10.20013776711702"><ele>428.0</ele><time>2026-04-04T09:51:47.999Z</time></trkpt><trkpt lat="44.55917037346924" lon="10.200382830935402"><ele>426.0</ele><time>2026-04-04T09:51:48.999Z</time></trkpt><trkpt lat="44.559341174337476" lon="10.200607585183244"><ele>425.33333333333337</ele><time>2026-04-04T09:51:49.999Z</time></trkpt><trkpt lat="44.5595039673739" lon="10.200814626236834"><ele>424.6666666666667</ele><time>2026-04-04T09:51:50.999Z</time></trkpt><trkpt lat="44.55960828601927" lon="10.20102722333224"><ele>424.0</ele><time>2026-04-04T09:51:51.999Z</time></trkpt><trkpt lat="44.55966304671118" lon="10.201242291066045"><ele>429.0</ele><time>2026-04-04T09:51:52.999Z</time></trkpt><trkpt lat="44.559693595742864" lon="10.2014591942954"><ele>434.0</ele><time>2026-04-04T09:51:53.999Z</time></trkpt><trkpt lat="44.55969915291735" lon="10.20167063435072"><ele>439.0</ele><time>2026-04-04T09:51:54.999Z</time></trkpt><trkpt lat="44.55968012761658" lon="10.20189618048271"><ele>439.0</ele><time>2026-04-04T09:51:55.999Z</time></trkpt><trkpt lat="44.55965071724376" lon="10.202153195386582"><ele>439.0</ele><time>2026-04-04T09:51:56.999Z</time></trkpt><trkpt lat="44.55962320577845" lon="10.202438739639943"><ele>439.0</ele><time>2026-04-04T09:51:57.999Z</time></trkpt><trkpt lat="44.55958280826024" lon="10.20273165672415"><ele>438.33333333333337</ele><time>2026-04-04T09:51:58.999Z</time></trkpt><trkpt lat="44.55956198470529" lon="10.203011071358553"><ele>437.66666666666663</ele><time>2026-04-04T09:51:59.999Z</time></trkpt><trkpt lat="44.55955123463766" lon="10.20329753369118"><ele>437.0</ele><time>2026-04-04T09:52:00.999Z</time></trkpt><trkpt lat="44.559552272528244" lon="10.203591867623196"><ele>436.25</ele><time>2026-04-04T09:52:01.999Z</time></trkpt><trkpt lat="44.55956885604114" lon="10.203837783290956"><ele>435.5</ele><time>2026-04-04T09:52:02.999Z</time></trkpt><trkpt lat="44.55958334435468" lon="10.203982948044366"><ele>434.75</ele><time>2026-04-04T09:52:03.999Z</time></trkpt><trkpt lat="44.55960046263978" lon="10.2041489012109"><ele>434.0</ele><time>2026-04-04T09:52:05.999Z</time></trkpt><trkpt lat="44.55961298679706" lon="10.204250622769813"><ele>431.75</ele><time>2026-04-04T09:52:06.999Z</time></trkpt><trkpt lat="44.55970392515602" lon="10.204329230194178"><ele>429.5</ele><time>2026-04-04T09:52:07.999Z</time></trkpt><trkpt lat="44.55976225375901" lon="10.204434879443328"><ele>427.25</ele><time>2026-04-04T09:52:08.999Z</time></trkpt><trkpt lat="44.55979908173442" lon="10.204593650712416"><ele>425.0</ele><time>2026-04-04T09:52:09.999Z</time></trkpt><trkpt lat="44.559841302503315" lon="10.204799009713415"><ele>424.2</ele><time>2026-04-04T09:52:10.999Z</time></trkpt><trkpt lat="44.55990308760541" lon="10.204978675190034"><ele>423.4</ele><time>2026-04-04T09:52:11.999Z</time></trkpt><trkpt lat="44.559971844630184" lon="10.205090706239767"><ele>422.6</ele><time>2026-04-04T09:52:12.999Z</time></trkpt><trkpt lat="44.56005467610843" lon="10.205156587789824"><ele>421.8</ele><time>2026-04-04T09:52:13.999Z</time></trkpt><trkpt lat="44.56015896234466" lon="10.205182411896756"><ele>421.0</ele><time>2026-04-04T09:52:14.999Z</time></trkpt><trkpt lat="44.56026669709359" lon="10.205128032199127"><ele>426.6666666666667</ele><time>2026-04-04T09:52:15.999Z</time></trkpt><trkpt lat="44.560372072463394" lon="10.205010742545895"><ele>432.33333333333337</ele><time>2026-04-04T09:52:16.999Z</time></trkpt><trkpt lat="44.56048795843289" lon="10.204818080972242"><ele>438.0</ele><time>2026-04-04T09:52:17.999Z</time></trkpt><trkpt lat="44.56061068683037" lon="10.204617339580123"><ele>439.5</ele><time>2026-04-04T09:52:18.999Z</time></trkpt><trkpt lat="44.560714303338266" lon="10.204456656211844"><ele>441.0</ele><time>2026-04-04T09:52:19.999Z</time></trkpt><trkpt lat="44.56079089072392" lon="10.204331730116955"><ele>442.5</ele><time>2026-04-04T09:52:20.999Z</time></trkpt><trkpt lat="44.56082315437889" lon="10.20420147413278"><ele>444.0</ele><time>2026-04-04T09:52:21.999Z</time></trkpt><trkpt lat="44.560799242270434" lon="10.204049171405286"><ele>449.0</ele><time>2026-04-04T09:52:22.999Z</time></trkpt><trkpt lat="44.56071654689878" lon="10.203894214337915"><ele>454.0</ele><time>2026-04-04T09:52:23.999Z</time></trkpt><trkpt lat="44.56062635921613" lon="10.203695541074588"><ele>459.0</ele><time>2026-04-04T09:52:24.999Z</time></trkpt><trkpt lat="44.560535629528644" lon="10.203520650158486"><ele>459.0</ele><time>2026-04-04T09:52:25.999Z</time></trkpt><trkpt lat="44.56047699610573" lon="10.203357675412686"><ele>459.0</ele><time>2026-04-04T09:52:26.999Z</time></trkpt><trkpt lat="44.56043684342475" lon="10.203220263229028"><ele>459.0</ele><time>2026-04-04T09:52:27.999Z</time></trkpt><trkpt lat="44.56045265906468" lon="10.203130255538227"><ele>459.0</ele><time>2026-04-04T09:52:28.999Z</time></trkpt><trkpt lat="44.56053585393539" lon="10.203112834038901"><ele>459.0</ele><time>2026-04-04T09:52:31Z</time></trkpt><trkpt lat="44.56061344701457" lon="10.203295352938255"><ele>459.0</ele><time>2026-04-04T09:52:33Z</time></trkpt><trkpt lat="44.56066333690769" lon="10.203394278854871"><ele>459.0</ele><time>2026-04-04T09:52:34Z</time></trkpt><trkpt lat="44.560727514508585" lon="10.203393378572317"><ele>459.0</ele><time>2026-04-04T09:52:35Z</time></trkpt><trkpt lat="44.56077850736059" lon="10.203325642078656"><ele>459.0</ele><time>2026-04-04T09:52:36Z</time></trkpt><trkpt lat="44.56077356979153" lon="10.203223352986024"><ele>459.0</ele><time>2026-04-04T09:52:37Z</time></trkpt><trkpt lat="44.56073353587522" lon="10.203086528134579"><ele>459.0</ele><time>2026-04-04T09:52:38Z</time></trkpt><trkpt lat="44.560730814797424" lon="10.202975320707079"><ele>460.79999999999995</ele><time>2026-04-04T09:52:39Z</time></trkpt><trkpt lat="44.56073681931146" lon="10.202800142828272"><ele>462.59999999999997</ele><time>2026-04-04T09:52:41Z</time></trkpt><trkpt lat="44.56073934713041" lon="10.20270717951848"><ele>464.4</ele><time>2026-04-04T09:52:42Z</time></trkpt><trkpt lat="44.56078223144531" lon="10.202569207556063"><ele>466.2</ele><time>2026-04-04T09:52:44Z</time></trkpt><trkpt lat="44.560893999406204" lon="10.20259437600533"><ele>468.0</ele><time>2026-04-04T09:52:46Z</time></trkpt><trkpt lat="44.56093195155665" lon="10.202688970845127"><ele>468.0</ele><time>2026-04-04T09:52:47Z</time></trkpt><trkpt lat="44.560955398916846" lon="10.20278732282677"><ele>468.0</ele><time>2026-04-04T09:52:48Z</time></trkpt><trkpt lat="44.560981512632154" lon="10.202884556512947"><ele>468.0</ele><time>2026-04-04T09:52:49Z</time></trkpt><trkpt lat="44.561017225817174" lon="10.202967459178263"><ele>468.0</ele><time>2026-04-04T09:52:50Z</time></trkpt><trkpt lat="44.56108821331657" lon="10.203010312542505"><ele>468.0</ele><time>2026-04-04T09:52:51Z</time></trkpt><trkpt lat="44.561174705866144" lon="10.20300091725452"><ele>468.0</ele><time>2026-04-04T09:52:52Z</time></trkpt><trkpt lat="44.561249488996715" lon="10.202949182075098"><ele>471.8333333333333</ele><time>2026-04-04T09:52:53Z</time></trkpt><trkpt lat="44.561305700662615" lon="10.202867874604191"><ele>475.66666666666663</ele><time>2026-04-04T09:52:54Z</time></trkpt><trkpt lat="44.56132454976622" lon="10.202762579668526"><ele>479.5</ele><time>2026-04-04T09:52:55Z</time></trkpt><trkpt lat="44.56130366649051" lon="10.202643370549758"><ele>483.3333333333333</ele><time>2026-04-04T09:52:56Z</time></trkpt><trkpt lat="44.56124339017255" lon="10.202547658801272"><ele>487.16666666666663</ele><time>2026-04-04T09:52:57Z</time></trkpt><trkpt lat="44.56120303922616" lon="10.202453553515527"><ele>491.0</ele><time>2026-04-04T09:52:58Z</time></trkpt><trkpt lat="44.561199799133654" lon="10.202342049505841"><ele>491.16666666666663</ele><time>2026-04-04T09:52:59Z</time></trkpt><trkpt lat="44.56119040862852" lon="10.202232939813971"><ele>491.3333333333333</ele><time>2026-04-04T09:53:00Z</time></trkpt><trkpt lat="44.56122279506744" lon="10.202128669875421"><ele>491.5</ele><time>2026-04-04T09:53:01Z</time></trkpt><trkpt lat="44.561263428891316" lon="10.20203680285112"><ele>491.66666666666663</ele><time>2026-04-04T09:53:02Z</time></trkpt><trkpt lat="44.561313893520285" lon="10.201970876057434"><ele>491.8333333333333</ele><time>2026-04-04T09:53:03Z</time></trkpt><trkpt lat="44.56140686382757" lon="10.201979851208785"><ele>492.0</ele><time>2026-04-04T09:53:05Z</time></trkpt><trkpt lat="44.561480763511526" lon="10.202107295771848"><ele>492.0</ele><time>2026-04-04T09:53:07Z</time></trkpt><trkpt lat="44.56153983791235" lon="10.202269268671342"><ele>492.0</ele><time>2026-04-04T09:53:08Z</time></trkpt><trkpt lat="44.561642270317364" lon="10.202424696551672"><ele>492.0</ele><time>2026-04-04T09:53:09Z</time></trkpt><trkpt lat="44.5617496570025" lon="10.202649052283356"><ele>491.75</ele><time>2026-04-04T09:53:10Z</time></trkpt><trkpt lat="44.561844361813826" lon="10.20282324150303"><ele>491.5</ele><time>2026-04-04T09:53:11Z</time></trkpt><trkpt lat="44.56188152006216" lon="10.20299662606727"><ele>491.25</ele><time>2026-04-04T09:53:12Z</time></trkpt><trkpt lat="44.56191368315093" lon="10.20310451275868"><ele>491.0</ele><time>2026-04-04T09:53:13Z</time></trkpt><trkpt lat="44.562035010864015" lon="10.203144960439007"><ele>495.4</ele><time>2026-04-04T09:53:15Z</time></trkpt><trkpt lat="44.562105310132594" lon="10.203107631049896"><ele>499.8</ele><time>2026-04-04T09:53:16Z</time></trkpt><trkpt lat="44.562156354501305" lon="10.20293711410179"><ele>504.19999999999993</ele><time>2026-04-04T09:53:17Z</time></trkpt><trkpt lat="44.56220723617073" lon="10.202821853050121"><ele>508.59999999999997</ele><time>2026-04-04T09:53:18Z</time></trkpt><trkpt lat="44.562292751536454" lon="10.202772014703003"><ele>513.0</ele><time>2026-04-04T09:53:20Z</time></trkpt><trkpt lat="44.56236569349261" lon="10.202936781478225"><ele>513.0</ele><time>2026-04-04T09:53:21Z</time></trkpt><trkpt lat="44.562414526652596" lon="10.203080838136351"><ele>513.0</ele><time>2026-04-04T09:53:22Z</time></trkpt><trkpt lat="44.56249062809575" lon="10.203231098924759"><ele>513.0</ele><time>2026-04-04T09:53:23Z</time></trkpt><trkpt lat="44.56262672918106" lon="10.203328518828727"><ele>513.0</ele><time>2026-04-04T09:53:24Z</time></trkpt><trkpt lat="44.5627779042866" lon="10.203457284855903"><ele>517.6666666666666</ele><time>2026-04-04T09:53:25Z</time></trkpt><trkpt lat="44.56295645131076" lon="10.20357791679326"><ele>522.3333333333333</ele><time>2026-04-04T09:53:26Z</time></trkpt><trkpt lat="44.5631391755436" lon="10.203724770785684"><ele>527.0</ele><time>2026-04-04T09:53:27Z</time></trkpt><trkpt lat="44.56325704753908" lon="10.203818387966944"><ele>527.0</ele><time>2026-04-04T09:53:28Z</time></trkpt><trkpt lat="44.56335016005926" lon="10.203903596770127"><ele>527.0</ele><time>2026-04-04T09:53:29Z</time></trkpt><trkpt lat="44.56342115188524" lon="10.204000154983335"><ele>527.0</ele><time>2026-04-04T09:53:30Z</time></trkpt><trkpt lat="44.563506669806195" lon="10.204127350362672"><ele>527.0</ele><time>2026-04-04T09:53:31Z</time></trkpt><trkpt lat="44.56349947444879" lon="10.204315137564615"><ele>528.5</ele><time>2026-04-04T09:53:32Z</time></trkpt><trkpt lat="44.56350774313612" lon="10.204509062124725"><ele>530.0</ele><time>2026-04-04T09:53:33Z</time></trkpt><trkpt lat="44.56356192566578" lon="10.204665306362475"><ele>531.5</ele><time>2026-04-04T09:53:34Z</time></trkpt><trkpt lat="44.563631258933675" lon="10.204790952951482"><ele>533.0</ele><time>2026-04-04T09:53:35Z</time></trkpt><trkpt lat="44.56373973023729" lon="10.204855215902867"><ele>533.0</ele><time>2026-04-04T09:53:36Z</time></trkpt><trkpt lat="44.56386696708267" lon="10.204835101566148"><ele>533.0</ele><time>2026-04-04T09:53:37Z</time></trkpt><trkpt lat="44.5640234707395" lon="10.204787908564972"><ele>533.0</ele><time>2026-04-04T09:53:38Z</time></trkpt><trkpt lat="44.5641687933585" lon="10.204763271407009"><ele>533.0</ele><time>2026-04-04T09:53:39Z</time></trkpt><trkpt lat="44.56428380136543" lon="10.204778128194977"><ele>533.0</ele><time>2026-04-04T09:53:40Z</time></trkpt><trkpt lat="44.564368577301444" lon="10.204822409015085"><ele>533.0</ele><time>2026-04-04T09:53:41Z</time></trkpt><trkpt lat="44.564446390600736" lon="10.204926729868042"><ele>533.0</ele><time>2026-04-04T09:53:42Z</time></trkpt><trkpt lat="44.564450019965044" lon="10.205094246133143"><ele>533.0</ele><time>2026-04-04T09:53:43Z</time></trkpt><trkpt lat="44.56446905206802" lon="10.205222159778566"><ele>533.0</ele><time>2026-04-04T09:53:44Z</time></trkpt><trkpt lat="44.56454955485713" lon="10.205271141107328"><ele>535.6</ele><time>2026-04-04T09:53:46Z</time></trkpt><trkpt lat="44.56459065786309" lon="10.205203840763009"><ele>538.1999999999999</ele><time>2026-04-04T09:53:46.999Z</time></trkpt><trkpt lat="44.564606601275976" lon="10.20507846245648"><ele>540.8</ele><time>2026-04-04T09:53:47.999Z</time></trkpt><trkpt lat="44.56461994406905" lon="10.204887179245146"><ele>543.4</ele><time>2026-04-04T09:53:48.999Z</time></trkpt><trkpt lat="44.56464642057415" lon="10.204716085214956"><ele>546.0</ele><time>2026-04-04T09:53:49.999Z</time></trkpt><trkpt lat="44.564678444714005" lon="10.204580124284233"><ele>547.25</ele><time>2026-04-04T09:53:50.999Z</time></trkpt><trkpt lat="44.56467758927844" lon="10.204434896213984"><ele>548.5</ele><time>2026-04-04T09:53:51.999Z</time></trkpt><trkpt lat="44.56464150373692" lon="10.204262868913679"><ele>549.75</ele><time>2026-04-04T09:53:52.999Z</time></trkpt><trkpt lat="44.56458426175146" lon="10.204098959186258"><ele>551.0</ele><time>2026-04-04T09:53:53.999Z</time></trkpt><trkpt lat="44.564583929362925" lon="10.203952630871584"><ele>552.5</ele><time>2026-04-04T09:53:54.999Z</time></trkpt><trkpt lat="44.56459850377023" lon="10.203787413478087"><ele>554.0</ele><time>2026-04-04T09:53:55.999Z</time></trkpt><trkpt lat="44.56463186552713" lon="10.203592729934067"><ele>555.5</ele><time>2026-04-04T09:53:56.999Z</time></trkpt><trkpt lat="44.56465404304022" lon="10.20337479356056"><ele>557.0</ele><time>2026-04-04T09:53:57.999Z</time></trkpt><trkpt lat="44.564664750461056" lon="10.203170958919882"><ele>555.5</ele><time>2026-04-04T09:53:58.999Z</time></trkpt><trkpt lat="44.56463492967408" lon="10.202981909937753"><ele>554.0</ele><time>2026-04-04T09:53:59.999Z</time></trkpt><trkpt lat="44.564578624061866" lon="10.20279321462702"><ele>552.5</ele><time>2026-04-04T09:54:00.999Z</time></trkpt><trkpt lat="44.56452719006152" lon="10.20261255096177"><ele>551.0</ele><time>2026-04-04T09:54:01.999Z</time></trkpt><trkpt lat="44.564490837738326" lon="10.202462403979645"><ele>552.5</ele><time>2026-04-04T09:54:02.999Z</time></trkpt><trkpt lat="44.564489010954304" lon="10.20232399449487"><ele>554.0</ele><time>2026-04-04T09:54:03.999Z</time></trkpt><trkpt lat="44.56452074773207" lon="10.202131613501471"><ele>555.5</ele><time>2026-04-04T09:54:04.999Z</time></trkpt><trkpt lat="44.56457108127286" lon="10.2019374678894"><ele>557.0</ele><time>2026-04-04T09:54:05.999Z</time></trkpt><trkpt lat="44.564611869741704" lon="10.20168726429154"><ele>564.75</ele><time>2026-04-04T09:54:06.999Z</time></trkpt><trkpt lat="44.56460530856748" lon="10.20147252168079"><ele>572.5</ele><time>2026-04-04T09:54:07.999Z</time></trkpt><trkpt lat="44.56461662122163" lon="10.201282751027302"><ele>580.25</ele><time>2026-04-04T09:54:08.999Z</time></trkpt><trkpt lat="44.564628883169355" lon="10.201122989003647"><ele>588.0</ele><time>2026-04-04T09:54:09.999Z</time></trkpt><trkpt lat="44.56469012414872" lon="10.200866677316041"><ele>588.0</ele><time>2026-04-04T09:54:10.999Z</time></trkpt><trkpt lat="44.564703457499576" lon="10.200710078703576"><ele>588.0</ele><time>2026-04-04T09:54:11.999Z</time></trkpt><trkpt lat="44.56474290773673" lon="10.200596440989"><ele>588.0</ele><time>2026-04-04T09:54:12.999Z</time></trkpt><trkpt lat="44.564772992951355" lon="10.200459334644853"><ele>588.0</ele><time>2026-04-04T09:54:13.999Z</time></trkpt><trkpt lat="44.5648457042187" lon="10.200279483196585"><ele>588.0</ele><time>2026-04-04T09:54:14.999Z</time></trkpt><trkpt lat="44.564910202879446" lon="10.200089220513249"><ele>588.0</ele><time>2026-04-04T09:54:15.999Z</time></trkpt><trkpt lat="44.564962574584065" lon="10.199938002617808"><ele>588.0</ele><time>2026-04-04T09:54:16.999Z</time></trkpt><trkpt lat="44.56499257528748" lon="10.199802092566689"><ele>588.0</ele><time>2026-04-04T09:54:17.999Z</time></trkpt><trkpt lat="44.56496726330433" lon="10.19966621527093"><ele>588.0</ele><time>2026-04-04T09:54:18.999Z</time></trkpt><trkpt lat="44.56490219619715" lon="10.199531707770408"><ele>588.0</ele><time>2026-04-04T09:54:19.999Z</time></trkpt><trkpt lat="44.5648834000768" lon="10.19942721105992"><ele>588.0</ele><time>2026-04-04T09:54:20.999Z</time></trkpt><trkpt lat="44.56492706568718" lon="10.199327642688862"><ele>588.0</ele><time>2026-04-04T09:54:21.999Z</time></trkpt><trkpt lat="44.56503205231278" lon="10.199225818818329"><ele>588.0</ele><time>2026-04-04T09:54:22.999Z</time></trkpt><trkpt lat="44.5651346556573" lon="10.199076385231068"><ele>589.1999999999999</ele><time>2026-04-04T09:54:23.999Z</time></trkpt><trkpt lat="44.565212282263445" lon="10.198978669154942"><ele>590.4</ele><time>2026-04-04T09:54:24.999Z</time></trkpt><trkpt lat="44.56523285587692" lon="10.198868572189005"><ele>591.5999999999999</ele><time>2026-04-04T09:54:25.999Z</time></trkpt><trkpt lat="44.56519440685599" lon="10.198734170275959"><ele>592.8</ele><time>2026-04-04T09:54:26.999Z</time></trkpt><trkpt lat="44.56508739351167" lon="10.198597037011043"><ele>594.0</ele><time>2026-04-04T09:54:27.999Z</time></trkpt><trkpt lat="44.5649610795537" lon="10.19844143468528"><ele>594.0</ele><time>2026-04-04T09:54:28.999Z</time></trkpt><trkpt lat="44.564880441124096" lon="10.198309682709805"><ele>594.0</ele><time>2026-04-04T09:54:29.999Z</time></trkpt><trkpt lat="44.564867970576906" lon="10.198170019564477"><ele>594.0</ele><time>2026-04-04T09:54:30.999Z</time></trkpt><trkpt lat="44.56489320223525" lon="10.19799781438858"><ele>594.0</ele><time>2026-04-04T09:54:31.999Z</time></trkpt><trkpt lat="44.56494301461443" lon="10.197844699066595"><ele>594.5</ele><time>2026-04-04T09:54:32.999Z</time></trkpt><trkpt lat="44.565031546677055" lon="10.197768128343023"><ele>595.0</ele><time>2026-04-04T09:54:33.999Z</time></trkpt><trkpt lat="44.56514080778487" lon="10.197684913671347"><ele>595.5</ele><time>2026-04-04T09:54:34.999Z</time></trkpt><trkpt lat="44.56525298645069" lon="10.197599606559352"><ele>596.0</ele><time>2026-04-04T09:54:36Z</time></trkpt><trkpt lat="44.56537482395263" lon="10.197536135188937"><ele>597.25</ele><time>2026-04-04T09:54:37Z</time></trkpt><trkpt lat="44.565495960548354" lon="10.197454585991231"><ele>598.5</ele><time>2026-04-04T09:54:38Z</time></trkpt><trkpt lat="44.565621326657336" lon="10.197377037789018"><ele>599.75</ele><time>2026-04-04T09:54:39Z</time></trkpt><trkpt lat="44.56573660955678" lon="10.197286293319191"><ele>601.0</ele><time>2026-04-04T09:54:40Z</time></trkpt><trkpt lat="44.56583447614199" lon="10.19719471521119"><ele>601.0</ele><time>2026-04-04T09:54:41Z</time></trkpt><trkpt lat="44.56594001267054" lon="10.197132608145305"><ele>601.0</ele><time>2026-04-04T09:54:42Z</time></trkpt><trkpt lat="44.56605065156038" lon="10.197135375332877"><ele>601.0</ele><time>2026-04-04T09:54:43Z</time></trkpt><trkpt lat="44.56616918490498" lon="10.197182647754927"><ele>601.0</ele><time>2026-04-04T09:54:44Z</time></trkpt><trkpt lat="44.56627115260676" lon="10.1972272598876"><ele>603.1666666666667</ele><time>2026-04-04T09:54:45Z</time></trkpt><trkpt lat="44.56634199271522" lon="10.197260543397277"><ele>605.3333333333334</ele><time>2026-04-04T09:54:46Z</time></trkpt><trkpt lat="44.56639720723676" lon="10.197317757755822"><ele>607.5</ele><time>2026-04-04T09:54:48Z</time></trkpt><trkpt lat="44.56636014763148" lon="10.197435211869683"><ele>609.6666666666666</ele><time>2026-04-04T09:54:50Z</time></trkpt><trkpt lat="44.56632171642418" lon="10.197530728747484"><ele>611.8333333333333</ele><time>2026-04-04T09:54:51Z</time></trkpt><trkpt lat="44.56627830164004" lon="10.197684175514468"><ele>614.0</ele><time>2026-04-04T09:54:52Z</time></trkpt><trkpt lat="44.56622468459215" lon="10.197837180791192"><ele>615.0</ele><time>2026-04-04T09:54:53Z</time></trkpt><trkpt lat="44.5662003128863" lon="10.197987346931823"><ele>616.0</ele><time>2026-04-04T09:54:54Z</time></trkpt><trkpt lat="44.56619406804078" lon="10.198103522202896"><ele>617.0</ele><time>2026-04-04T09:54:55Z</time></trkpt><trkpt lat="44.56621277730107" lon="10.198192916439867"><ele>618.0</ele><time>2026-04-04T09:54:56Z</time></trkpt><trkpt lat="44.56625152521738" lon="10.198294573770797"><ele>619.0</ele><time>2026-04-04T09:54:57Z</time></trkpt><trkpt lat="44.56630716034052" lon="10.198435352465912"><ele>621.0</ele><time>2026-04-04T09:54:58Z</time></trkpt><trkpt lat="44.566385995401696" lon="10.198605204236749"><ele>623.0</ele><time>2026-04-04T09:54:59Z</time></trkpt><trkpt lat="44.5664755805129" lon="10.198780082394025"><ele>625.0</ele><time>2026-04-04T09:55:00Z</time></trkpt><trkpt lat="44.566553207537574" lon="10.198920917690703"><ele>627.0</ele><time>2026-04-04T09:55:01Z</time></trkpt><trkpt lat="44.56662865429605" lon="10.199025594339696"><ele>627.0</ele><time>2026-04-04T09:55:02Z</time></trkpt><trkpt lat="44.566739051945405" lon="10.1991104523385"><ele>627.0</ele><time>2026-04-04T09:55:03Z</time></trkpt><trkpt lat="44.56687182398757" lon="10.199180195715824"><ele>627.0</ele><time>2026-04-04T09:55:04Z</time></trkpt><trkpt lat="44.56700189187313" lon="10.199272691928712"><ele>627.0</ele><time>2026-04-04T09:55:05Z</time></trkpt><trkpt lat="44.567088219678375" lon="10.199459976721137"><ele>631.5</ele><time>2026-04-04T09:55:06Z</time></trkpt><trkpt lat="44.56718817781298" lon="10.199631930885538"><ele>636.0</ele><time>2026-04-04T09:55:07Z</time></trkpt><trkpt lat="44.567255862450494" lon="10.199769709323778"><ele>640.5</ele><time>2026-04-04T09:55:08Z</time></trkpt><trkpt lat="44.56733382819331" lon="10.199794511949634"><ele>645.0</ele><time>2026-04-04T09:55:10Z</time></trkpt><trkpt lat="44.567387835254195" lon="10.199656737542156"><ele>645.0</ele><time>2026-04-04T09:55:12Z</time></trkpt><trkpt lat="44.5673221165216" lon="10.199507550104192"><ele>645.0</ele><time>2026-04-04T09:55:13Z</time></trkpt><trkpt lat="44.5672815919472" lon="10.199346472746788"><ele>645.0</ele><time>2026-04-04T09:55:14Z</time></trkpt><trkpt lat="44.56729315150573" lon="10.199178834587451"><ele>645.0</ele><time>2026-04-04T09:55:15Z</time></trkpt><trkpt lat="44.56734085871704" lon="10.199013923706183"><ele>645.0</ele><time>2026-04-04T09:55:16Z</time></trkpt><trkpt lat="44.567379568776566" lon="10.198878481164327"><ele>645.0</ele><time>2026-04-04T09:55:17Z</time></trkpt><trkpt lat="44.56743872818419" lon="10.198801372900787"><ele>645.0</ele><time>2026-04-04T09:55:18Z</time></trkpt><trkpt lat="44.56751037194111" lon="10.19879216898401"><ele>645.0</ele><time>2026-04-04T09:55:19Z</time></trkpt><trkpt lat="44.56758289819471" lon="10.198864765087976"><ele>645.0</ele><time>2026-04-04T09:55:20Z</time></trkpt><trkpt lat="44.56762136501648" lon="10.198997911288775"><ele>645.0</ele><time>2026-04-04T09:55:21Z</time></trkpt><trkpt lat="44.56766343591025" lon="10.19916062364461"><ele>645.0</ele><time>2026-04-04T09:55:22Z</time></trkpt><trkpt lat="44.567738247031905" lon="10.199345329217188"><ele>645.0</ele><time>2026-04-04T09:55:23Z</time></trkpt><trkpt lat="44.56782474216973" lon="10.199532548017219"><ele>645.0</ele><time>2026-04-04T09:55:24Z</time></trkpt><trkpt lat="44.56789242270901" lon="10.199698568734057"><ele>645.0</ele><time>2026-04-04T09:55:25Z</time></trkpt><trkpt lat="44.56794300609418" lon="10.199807203261376"><ele>648.5</ele><time>2026-04-04T09:55:26Z</time></trkpt><trkpt lat="44.56806065590227" lon="10.199840197555922"><ele>652.0</ele><time>2026-04-04T09:55:28Z</time></trkpt><trkpt lat="44.56812392416579" lon="10.199759573974593"><ele>655.5</ele><time>2026-04-04T09:55:29Z</time></trkpt><trkpt lat="44.5681572944356" lon="10.199605260487923"><ele>659.0</ele><time>2026-04-04T09:55:30Z</time></trkpt><trkpt lat="44.56818872913243" lon="10.199414756905437"><ele>658.6666666666666</ele><time>2026-04-04T09:55:31Z</time></trkpt><trkpt lat="44.568230327743116" lon="10.199244030263888"><ele>658.3333333333334</ele><time>2026-04-04T09:55:32Z</time></trkpt><trkpt lat="44.568276300473265" lon="10.19899789673827"><ele>658.0</ele><time>2026-04-04T09:55:33Z</time></trkpt><trkpt lat="44.56836872859761" lon="10.19880650365806"><ele>658.0</ele><time>2026-04-04T09:55:34Z</time></trkpt><trkpt lat="44.56845627442287" lon="10.1985743340167"><ele>658.0</ele><time>2026-04-04T09:55:35Z</time></trkpt><trkpt lat="44.56856203370302" lon="10.198361801293366"><ele>658.0</ele><time>2026-04-04T09:55:36Z</time></trkpt><trkpt lat="44.568654153527575" lon="10.198209286757166"><ele>660.3333333333334</ele><time>2026-04-04T09:55:37Z</time></trkpt><trkpt lat="44.56884783170551" lon="10.19816203424716"><ele>662.6666666666666</ele><time>2026-04-04T09:55:39Z</time></trkpt><trkpt lat="44.569023529616814" lon="10.198082857026145"><ele>665.0</ele><time>2026-04-04T09:55:40Z</time></trkpt><trkpt lat="44.56918022099319" lon="10.198026907905238"><ele>665.0</ele><time>2026-04-04T09:55:41Z</time></trkpt><trkpt lat="44.569311374980465" lon="10.19793356515002"><ele>665.0</ele><time>2026-04-04T09:55:42Z</time></trkpt><trkpt lat="44.569454259966996" lon="10.197850677767144"><ele>665.0</ele><time>2026-04-04T09:55:43Z</time></trkpt><trkpt lat="44.569624608576724" lon="10.197800874559908"><ele>669.3333333333333</ele><time>2026-04-04T09:55:44Z</time></trkpt><trkpt lat="44.569794480597395" lon="10.197746794699821"><ele>673.6666666666666</ele><time>2026-04-04T09:55:45Z</time></trkpt><trkpt lat="44.56996372571607" lon="10.1976914107889"><ele>678.0</ele><time>2026-04-04T09:55:46Z</time></trkpt><trkpt lat="44.5700882337714" lon="10.197628842111966"><ele>678.0</ele><time>2026-04-04T09:55:47Z</time></trkpt><trkpt lat="44.57017528811766" lon="10.197600494785803"><ele>678.0</ele><time>2026-04-04T09:55:47.999Z</time></trkpt><trkpt lat="44.57025010725764" lon="10.19768310746246"><ele>678.0</ele><time>2026-04-04T09:55:48.999Z</time></trkpt><trkpt lat="44.57028463695446" lon="10.197779153824099"><ele>678.0</ele><time>2026-04-04T09:55:49.999Z</time></trkpt><trkpt lat="44.57035998621159" lon="10.197903613772741"><ele>678.0</ele><time>2026-04-04T09:55:50.999Z</time></trkpt><trkpt lat="44.5704686806965" lon="10.198017763874246"><ele>679.75</ele><time>2026-04-04T09:55:51.999Z</time></trkpt><trkpt lat="44.570574273727466" lon="10.198097629536496"><ele>681.5</ele><time>2026-04-04T09:55:52.999Z</time></trkpt><trkpt lat="44.57069796102519" lon="10.198063467493077"><ele>683.25</ele><time>2026-04-04T09:55:53.999Z</time></trkpt><trkpt lat="44.57082076404138" lon="10.19798475319852"><ele>685.0</ele><time>2026-04-04T09:55:54.999Z</time></trkpt><trkpt lat="44.570936997402946" lon="10.197883558355288"><ele>685.0</ele><time>2026-04-04T09:55:55.999Z</time></trkpt><trkpt lat="44.57104992367297" lon="10.19774845255007"><ele>685.0</ele><time>2026-04-04T09:55:56.999Z</time></trkpt><trkpt lat="44.57114172240749" lon="10.197652086820804"><ele>685.0</ele><time>2026-04-04T09:55:57.999Z</time></trkpt><trkpt lat="44.57120727552052" lon="10.197565884388336"><ele>685.0</ele><time>2026-04-04T09:55:58.999Z</time></trkpt><trkpt lat="44.57126290923516" lon="10.197506675347281"><ele>685.0</ele><time>2026-04-04T09:55:59.999Z</time></trkpt><trkpt lat="44.57135433895808" lon="10.197401888398334"><ele>688.6666666666667</ele><time>2026-04-04T09:56:01.999Z</time></trkpt><trkpt lat="44.571366925085904" lon="10.197217355545472"><ele>692.3333333333334</ele><time>2026-04-04T09:56:02.999Z</time></trkpt><trkpt lat="44.571435701249854" lon="10.197016095681638"><ele>696.0</ele><time>2026-04-04T09:56:03.999Z</time></trkpt><trkpt lat="44.57155570796032" lon="10.196802155599677"><ele>696.0</ele><time>2026-04-04T09:56:04.999Z</time></trkpt><trkpt lat="44.571678496682374" lon="10.19658897441957"><ele>696.0</ele><time>2026-04-04T09:56:05.999Z</time></trkpt><trkpt lat="44.571791688765764" lon="10.196372291239"><ele>696.0</ele><time>2026-04-04T09:56:06.999Z</time></trkpt><trkpt lat="44.57188858069422" lon="10.196187997702305"><ele>698.0</ele><time>2026-04-04T09:56:07.999Z</time></trkpt><trkpt lat="44.57198315343802" lon="10.196001671854802"><ele>700.0</ele><time>2026-04-04T09:56:08.999Z</time></trkpt><trkpt lat="44.57209065823605" lon="10.195827035230165"><ele>702.0</ele><time>2026-04-04T09:56:09.999Z</time></trkpt><trkpt lat="44.57223329953449" lon="10.195722357015548"><ele>698.6666666666666</ele><time>2026-04-04T09:56:10.999Z</time></trkpt><trkpt lat="44.5724062362847" lon="10.1956257268363"><ele>695.3333333333333</ele><time>2026-04-04T09:56:11.999Z</time></trkpt><trkpt lat="44.572586155319414" lon="10.195527707690763"><ele>692.0</ele><time>2026-04-04T09:56:12.999Z</time></trkpt><trkpt lat="44.5727411571965" lon="10.195458873848558"><ele>695.5</ele><time>2026-04-04T09:56:13.999Z</time></trkpt><trkpt lat="44.5728676368264" lon="10.195354137976341"><ele>699.0</ele><time>2026-04-04T09:56:14.999Z</time></trkpt><trkpt lat="44.57296590040961" lon="10.195216159983769"><ele>702.5</ele><time>2026-04-04T09:56:15.999Z</time></trkpt><trkpt lat="44.57302303919186" lon="10.195038606401365"><ele>706.0</ele><time>2026-04-04T09:56:16.999Z</time></trkpt><trkpt lat="44.57308064596545" lon="10.194814619157436"><ele>706.0</ele><time>2026-04-04T09:56:17.999Z</time></trkpt><trkpt lat="44.57316327817447" lon="10.194598467006239"><ele>706.0</ele><time>2026-04-04T09:56:18.999Z</time></trkpt><trkpt lat="44.57326627262189" lon="10.194392582191186"><ele>706.0</ele><time>2026-04-04T09:56:19.999Z</time></trkpt><trkpt lat="44.573361033319934" lon="10.194176212059533"><ele>705.0</ele><time>2026-04-04T09:56:20.999Z</time></trkpt><trkpt lat="44.573436497831786" lon="10.193952834594299"><ele>704.0</ele><time>2026-04-04T09:56:21.999Z</time></trkpt><trkpt lat="44.57349280232058" lon="10.193729272490984"><ele>703.0</ele><time>2026-04-04T09:56:22.999Z</time></trkpt><trkpt lat="44.57353808457792" lon="10.193498650965324"><ele>703.0</ele><time>2026-04-04T09:56:23.999Z</time></trkpt><trkpt lat="44.57357856549014" lon="10.1932740612834"><ele>703.0</ele><time>2026-04-04T09:56:24.999Z</time></trkpt><trkpt lat="44.57359420971975" lon="10.193062588046239"><ele>703.0</ele><time>2026-04-04T09:56:25.999Z</time></trkpt><trkpt lat="44.573643176684264" lon="10.192856389272306"><ele>702.5</ele><time>2026-04-04T09:56:26.999Z</time></trkpt><trkpt lat="44.57368123388244" lon="10.192703866853527"><ele>702.0</ele><time>2026-04-04T09:56:27.999Z</time></trkpt><trkpt lat="44.57370884399071" lon="10.192525793282641"><ele>701.5</ele><time>2026-04-04T09:56:28.999Z</time></trkpt><trkpt lat="44.573747203124384" lon="10.192329728718452"><ele>701.0</ele><time>2026-04-04T09:56:29.999Z</time></trkpt><trkpt lat="44.573810578921865" lon="10.192066833678647"><ele>706.0</ele><time>2026-04-04T09:56:30.999Z</time></trkpt><trkpt lat="44.5738757670723" lon="10.191807961189182"><ele>711.0</ele><time>2026-04-04T09:56:31.999Z</time></trkpt><trkpt lat="44.57390316522676" lon="10.191614461168987"><ele>716.0</ele><time>2026-04-04T09:56:32.999Z</time></trkpt><trkpt lat="44.57394680689082" lon="10.191413620544779"><ele>716.0</ele><time>2026-04-04T09:56:33.999Z</time></trkpt><trkpt lat="44.573990615145604" lon="10.19119947315422"><ele>716.0</ele><time>2026-04-04T09:56:34.999Z</time></trkpt><trkpt lat="44.574024337740475" lon="10.19103527247406"><ele>716.0</ele><time>2026-04-04T09:56:35.999Z</time></trkpt><trkpt lat="44.574067278867666" lon="10.19081507103921"><ele>716.0</ele><time>2026-04-04T09:56:36.999Z</time></trkpt><trkpt lat="44.574110387702454" lon="10.190618734668437"><ele>714.6666666666666</ele><time>2026-04-04T09:56:37.999Z</time></trkpt><trkpt lat="44.5741822193126" lon="10.190364439826991"><ele>713.3333333333334</ele><time>2026-04-04T09:56:38.999Z</time></trkpt><trkpt lat="44.57427416857771" lon="10.19015868230523"><ele>712.0</ele><time>2026-04-04T09:56:39.999Z</time></trkpt><trkpt lat="44.57437647475314" lon="10.189950860084346"><ele>711.6666666666667</ele><time>2026-04-04T09:56:40.999Z</time></trkpt><trkpt lat="44.57448579206846" lon="10.189769295217111"><ele>711.3333333333334</ele><time>2026-04-04T09:56:42Z</time></trkpt><trkpt lat="44.574545552784045" lon="10.189551039387146"><ele>711.0</ele><time>2026-04-04T09:56:43Z</time></trkpt><trkpt lat="44.57455679120897" lon="10.189300336799189"><ele>719.0</ele><time>2026-04-04T09:56:44Z</time></trkpt><trkpt lat="44.57454817393173" lon="10.189027460962413"><ele>727.0</ele><time>2026-04-04T09:56:45Z</time></trkpt><trkpt lat="44.57455263972459" lon="10.188759672618882"><ele>735.0</ele><time>2026-04-04T09:56:46Z</time></trkpt><trkpt lat="44.57460245692333" lon="10.18850696100167"><ele>735.0</ele><time>2026-04-04T09:56:47Z</time></trkpt><trkpt lat="44.57464182587779" lon="10.188271216858604"><ele>735.0</ele><time>2026-04-04T09:56:48Z</time></trkpt><trkpt lat="44.574708001712104" lon="10.18809330578093"><ele>735.0</ele><time>2026-04-04T09:56:49Z</time></trkpt><trkpt lat="44.574786545810646" lon="10.18777262514916"><ele>736.6666666666666</ele><time>2026-04-04T09:56:50Z</time></trkpt><trkpt lat="44.574842601736485" lon="10.1875372098791"><ele>738.3333333333333</ele><time>2026-04-04T09:56:51Z</time></trkpt><trkpt lat="44.57484811845522" lon="10.18728988938453"><ele>740.0</ele><time>2026-04-04T09:56:52Z</time></trkpt><trkpt lat="44.57481662042462" lon="10.18703859515366"><ele>742.6666666666666</ele><time>2026-04-04T09:56:53Z</time></trkpt><trkpt lat="44.574763979684214" lon="10.186794010505878"><ele>745.3333333333334</ele><time>2026-04-04T09:56:54Z</time></trkpt><trkpt lat="44.57472360047267" lon="10.18657714072631"><ele>748.0</ele><time>2026-04-04T09:56:55Z</time></trkpt><trkpt lat="44.57471834393233" lon="10.18637956806506"><ele>748.5</ele><time>2026-04-04T09:56:56Z</time></trkpt><trkpt lat="44.57480769754863" lon="10.186235564397357"><ele>749.0</ele><time>2026-04-04T09:56:57Z</time></trkpt><trkpt lat="44.574890276776344" lon="10.186054933882874"><ele>749.5</ele><time>2026-04-04T09:56:58Z</time></trkpt><trkpt lat="44.57494435164808" lon="10.185882632799903"><ele>750.0</ele><time>2026-04-04T09:56:59Z</time></trkpt><trkpt lat="44.574964336944184" lon="10.185686607301395"><ele>752.0</ele><time>2026-04-04T09:57:00Z</time></trkpt><trkpt lat="44.57493592082047" lon="10.185445500201844"><ele>754.0</ele><time>2026-04-04T09:57:01Z</time></trkpt><trkpt lat="44.57487102260675" lon="10.185190144145379"><ele>756.0</ele><time>2026-04-04T09:57:02Z</time></trkpt><trkpt lat="44.574801255099835" lon="10.184924769620064"><ele>759.0</ele><time>2026-04-04T09:57:03Z</time></trkpt><trkpt lat="44.57473844373766" lon="10.184654935887297"><ele>762.0</ele><time>2026-04-04T09:57:04Z</time></trkpt><trkpt lat="44.57467405794097" lon="10.184360317236631"><ele>765.0</ele><time>2026-04-04T09:57:05Z</time></trkpt><trkpt lat="44.574611799538985" lon="10.184054461960232"><ele>769.0</ele><time>2026-04-04T09:57:06Z</time></trkpt><trkpt lat="44.574547527754426" lon="10.183752265072325"><ele>773.0</ele><time>2026-04-04T09:57:07Z</time></trkpt><trkpt lat="44.57449087642433" lon="10.183479457532652"><ele>777.0</ele><time>2026-04-04T09:57:08Z</time></trkpt><trkpt lat="44.57444031255654" lon="10.183235117327749"><ele>769.0</ele><time>2026-04-04T09:57:09Z</time></trkpt><trkpt lat="44.57440322291029" lon="10.18291733377605"><ele>761.0</ele><time>2026-04-04T09:57:10Z</time></trkpt><trkpt lat="44.57436394042517" lon="10.182753913432009"><ele>753.0</ele><time>2026-04-04T09:57:11Z</time></trkpt><trkpt lat="44.574367316205205" lon="10.182539808443098"><ele>752.25</ele><time>2026-04-04T09:57:12Z</time></trkpt><trkpt lat="44.57437802983409" lon="10.182326942995818"><ele>751.5</ele><time>2026-04-04T09:57:13Z</time></trkpt><trkpt lat="44.574422369735935" lon="10.182106825593776"><ele>750.75</ele><time>2026-04-04T09:57:14Z</time></trkpt><trkpt lat="44.5744770452462" lon="10.181952557736892"><ele>750.0</ele><time>2026-04-04T09:57:15Z</time></trkpt><trkpt lat="44.574556773467755" lon="10.181801705738597"><ele>759.3333333333333</ele><time>2026-04-04T09:57:16Z</time></trkpt><trkpt lat="44.574653730558964" lon="10.18164400065192"><ele>768.6666666666666</ele><time>2026-04-04T09:57:17Z</time></trkpt><trkpt lat="44.57474453523906" lon="10.181455119750678"><ele>778.0</ele><time>2026-04-04T09:57:18Z</time></trkpt><trkpt lat="44.57483986229309" lon="10.181215178849556"><ele>778.0</ele><time>2026-04-04T09:57:19Z</time></trkpt><trkpt lat="44.57494148823925" lon="10.180985762594156"><ele>778.0</ele><time>2026-04-04T09:57:20Z</time></trkpt><trkpt lat="44.57505619662676" lon="10.18079639260583"><ele>778.0</ele><time>2026-04-04T09:57:21Z</time></trkpt><trkpt lat="44.57515874599578" lon="10.180631340719925"><ele>776.6666666666666</ele><time>2026-04-04T09:57:22Z</time></trkpt><trkpt lat="44.575236202471785" lon="10.180464959663208"><ele>775.3333333333333</ele><time>2026-04-04T09:57:23Z</time></trkpt><trkpt lat="44.575278710573784" lon="10.18026157126383"><ele>774.0</ele><time>2026-04-04T09:57:24Z</time></trkpt><trkpt lat="44.57526989992713" lon="10.18002262188237"><ele>775.0</ele><time>2026-04-04T09:57:25Z</time></trkpt><trkpt lat="44.57524828094673" lon="10.179760420769574"><ele>776.0</ele><time>2026-04-04T09:57:26Z</time></trkpt><trkpt lat="44.57524118855591" lon="10.179491532692277"><ele>777.0</ele><time>2026-04-04T09:57:27Z</time></trkpt><trkpt lat="44.57524162445739" lon="10.179214433573852"><ele>779.6666666666667</ele><time>2026-04-04T09:57:28Z</time></trkpt><trkpt lat="44.575239064061904" lon="10.178940612636415"><ele>782.3333333333334</ele><time>2026-04-04T09:57:29Z</time></trkpt><trkpt lat="44.57523131128982" lon="10.178664127572086"><ele>785.0</ele><time>2026-04-04T09:57:30Z</time></trkpt><trkpt lat="44.57522283472859" lon="10.178405379367916"><ele>786.3333333333334</ele><time>2026-04-04T09:57:31Z</time></trkpt><trkpt lat="44.5752308631951" lon="10.17815458921777"><ele>787.6666666666667</ele><time>2026-04-04T09:57:32Z</time></trkpt><trkpt lat="44.575266648650945" lon="10.177905833834599"><ele>789.0</ele><time>2026-04-04T09:57:33Z</time></trkpt><trkpt lat="44.5753422769648" lon="10.177664497200942"><ele>799.3333333333333</ele><time>2026-04-04T09:57:34Z</time></trkpt><trkpt lat="44.575435422165306" lon="10.17742008337512"><ele>809.6666666666666</ele><time>2026-04-04T09:57:35Z</time></trkpt><trkpt lat="44.575524569198905" lon="10.177193449613618"><ele>820.0</ele><time>2026-04-04T09:57:36Z</time></trkpt><trkpt lat="44.57559626790554" lon="10.176972108890286"><ele>820.0</ele><time>2026-04-04T09:57:37Z</time></trkpt><trkpt lat="44.57564525331599" lon="10.176747574557545"><ele>820.0</ele><time>2026-04-04T09:57:38Z</time></trkpt><trkpt lat="44.57564378486528" lon="10.176510304646099"><ele>820.0</ele><time>2026-04-04T09:57:39Z</time></trkpt><trkpt lat="44.57559486208939" lon="10.176270575537819"><ele>823.6666666666666</ele><time>2026-04-04T09:57:40Z</time></trkpt><trkpt lat="44.57547270652365" lon="10.176068204509624"><ele>827.3333333333333</ele><time>2026-04-04T09:57:41Z</time></trkpt><trkpt lat="44.575325864568505" lon="10.175892023745254"><ele>831.0</ele><time>2026-04-04T09:57:42Z</time></trkpt><trkpt lat="44.575168519300675" lon="10.17577227190526"><ele>826.0</ele><time>2026-04-04T09:57:43Z</time></trkpt><trkpt lat="44.57507716844643" lon="10.175603479670238"><ele>821.0</ele><time>2026-04-04T09:57:44Z</time></trkpt><trkpt lat="44.575029620936824" lon="10.175382660502493"><ele>816.0</ele><time>2026-04-04T09:57:45Z</time></trkpt><trkpt lat="44.57501695026511" lon="10.175192863859921"><ele>816.0</ele><time>2026-04-04T09:57:46Z</time></trkpt><trkpt lat="44.57499859493197" lon="10.17491502481015"><ele>816.0</ele><time>2026-04-04T09:57:47Z</time></trkpt><trkpt lat="44.57499305129473" lon="10.174629236305805"><ele>816.0</ele><time>2026-04-04T09:57:48Z</time></trkpt><trkpt lat="44.57497188147857" lon="10.174361411425469"><ele>818.6666666666667</ele><time>2026-04-04T09:57:49Z</time></trkpt><trkpt lat="44.5749542302449" lon="10.17414596523888"><ele>821.3333333333334</ele><time>2026-04-04T09:57:50Z</time></trkpt><trkpt lat="44.574917983829906" lon="10.17383032763409"><ele>824.0</ele><time>2026-04-04T09:57:51Z</time></trkpt><trkpt lat="44.57491038479444" lon="10.173572156361645"><ele>825.0</ele><time>2026-04-04T09:57:51.999Z</time></trkpt><trkpt lat="44.57489046510244" lon="10.173381399580403"><ele>826.0</ele><time>2026-04-04T09:57:52.999Z</time></trkpt><trkpt lat="44.57487931576659" lon="10.173132030695113"><ele>827.0</ele><time>2026-04-04T09:57:53.999Z</time></trkpt><trkpt lat="44.57483924239987" lon="10.172917672904413"><ele>825.6666666666667</ele><time>2026-04-04T09:57:54.999Z</time></trkpt><trkpt lat="44.57474896923647" lon="10.172707623596096"><ele>824.3333333333333</ele><time>2026-04-04T09:57:55.999Z</time></trkpt><trkpt lat="44.574603602814584" lon="10.17255712211227"><ele>823.0</ele><time>2026-04-04T09:57:56.999Z</time></trkpt><trkpt lat="44.574475794055815" lon="10.17240716803777"><ele>824.0</ele><time>2026-04-04T09:57:57.999Z</time></trkpt><trkpt lat="44.57445386369759" lon="10.172249864679214"><ele>825.0</ele><time>2026-04-04T09:57:58.999Z</time></trkpt><trkpt lat="44.57447102948671" lon="10.172067744046648"><ele>826.0</ele><time>2026-04-04T09:57:59.999Z</time></trkpt><trkpt lat="44.57449925621686" lon="10.171804279103657"><ele>827.0</ele><time>2026-04-04T09:58:00.999Z</time></trkpt><trkpt lat="44.57453624390608" lon="10.171541152518154"><ele>838.0</ele><time>2026-04-04T09:58:01.999Z</time></trkpt><trkpt lat="44.57461958983231" lon="10.171310473195991"><ele>849.0</ele><time>2026-04-04T09:58:02.999Z</time></trkpt><trkpt lat="44.574671116044" lon="10.17109176552483"><ele>860.0</ele><time>2026-04-04T09:58:03.999Z</time></trkpt><trkpt lat="44.57469867338102" lon="10.170913652826547"><ele>860.0</ele><time>2026-04-04T09:58:04.999Z</time></trkpt><trkpt lat="44.57466675875796" lon="10.170743700381307"><ele>860.0</ele><time>2026-04-04T09:58:05.999Z</time></trkpt><trkpt lat="44.57459397231831" lon="10.1706078229793"><ele>860.0</ele><time>2026-04-04T09:58:06.999Z</time></trkpt><trkpt lat="44.57448165692939" lon="10.170436328218697"><ele>860.0</ele><time>2026-04-04T09:58:07.999Z</time></trkpt><trkpt lat="44.5743580027295" lon="10.170230789124108"><ele>858.3333333333334</ele><time>2026-04-04T09:58:08.999Z</time></trkpt><trkpt lat="44.574238506532346" lon="10.17002125895553"><ele>856.6666666666667</ele><time>2026-04-04T09:58:09.999Z</time></trkpt><trkpt lat="44.57413485898201" lon="10.169831464966405"><ele>855.0</ele><time>2026-04-04T09:58:10.999Z</time></trkpt><trkpt lat="44.5740351036679" lon="10.169628119483045"><ele>855.0</ele><time>2026-04-04T09:58:11.999Z</time></trkpt><trkpt lat="44.57393445076832" lon="10.16942382198153"><ele>855.0</ele><time>2026-04-04T09:58:12.999Z</time></trkpt><trkpt lat="44.57383647144546" lon="10.169208719012182"><ele>855.0</ele><time>2026-04-04T09:58:13.999Z</time></trkpt><trkpt lat="44.57374685083165" lon="10.169033426045843"><ele>853.0</ele><time>2026-04-04T09:58:14.999Z</time></trkpt><trkpt lat="44.573666720423915" lon="10.168899949254241"><ele>851.0</ele><time>2026-04-04T09:58:15.999Z</time></trkpt><trkpt lat="44.57362545291151" lon="10.168783201765986"><ele>849.0</ele><time>2026-04-04T09:58:16.999Z</time></trkpt><trkpt lat="44.57361269712972" lon="10.168655089015406"><ele>847.0</ele><time>2026-04-04T09:58:17.999Z</time></trkpt><trkpt lat="44.57364941335197" lon="10.168483361012939"><ele>845.0</ele><time>2026-04-04T09:58:18.999Z</time></trkpt><trkpt lat="44.573739889737666" lon="10.168357796787472"><ele>845.0</ele><time>2026-04-04T09:58:19.999Z</time></trkpt><trkpt lat="44.573889565103904" lon="10.16824176188759"><ele>845.0</ele><time>2026-04-04T09:58:20.999Z</time></trkpt><trkpt lat="44.57404140834922" lon="10.1681580124333"><ele>845.0</ele><time>2026-04-04T09:58:21.999Z</time></trkpt><trkpt lat="44.574207030848065" lon="10.168048932302922"><ele>844.5</ele><time>2026-04-04T09:58:22.999Z</time></trkpt><trkpt lat="44.57436239194755" lon="10.167948587360074"><ele>844.0</ele><time>2026-04-04T09:58:23.999Z</time></trkpt><trkpt lat="44.5744660359153" lon="10.167867186931634"><ele>843.5</ele><time>2026-04-04T09:58:24.999Z</time></trkpt><trkpt lat="44.5745782297599" lon="10.167793542981364"><ele>843.0</ele><time>2026-04-04T09:58:25.999Z</time></trkpt><trkpt lat="44.57466734866744" lon="10.167712485713736"><ele>843.0</ele><time>2026-04-04T09:58:26.999Z</time></trkpt><trkpt lat="44.57474052962512" lon="10.167624645389244"><ele>843.0</ele><time>2026-04-04T09:58:27.999Z</time></trkpt><trkpt lat="44.57478930961713" lon="10.167500767762496"><ele>843.0</ele><time>2026-04-04T09:58:28.999Z</time></trkpt><trkpt lat="44.57482266506073" lon="10.16733430973263"><ele>843.0</ele><time>2026-04-04T09:58:29.999Z</time></trkpt><trkpt lat="44.57486424411693" lon="10.167149810633578"><ele>840.25</ele><time>2026-04-04T09:58:30.999Z</time></trkpt><trkpt lat="44.57491335187455" lon="10.166956253874458"><ele>837.5</ele><time>2026-04-04T09:58:31.999Z</time></trkpt><trkpt lat="44.574975740486416" lon="10.166752827862036"><ele>834.75</ele><time>2026-04-04T09:58:32.999Z</time></trkpt><trkpt lat="44.57504076057049" lon="10.16657098595764"><ele>832.0</ele><time>2026-04-04T09:58:33.999Z</time></trkpt><trkpt lat="44.57513321004757" lon="10.166402378778713"><ele>833.25</ele><time>2026-04-04T09:58:34.999Z</time></trkpt><trkpt lat="44.57527182826387" lon="10.166342448666615"><ele>834.5</ele><time>2026-04-04T09:58:35.999Z</time></trkpt><trkpt lat="44.57538217245423" lon="10.16628154221925"><ele>835.75</ele><time>2026-04-04T09:58:36.999Z</time></trkpt><trkpt lat="44.57547193484061" lon="10.166213581176288"><ele>837.0</ele><time>2026-04-04T09:58:37.999Z</time></trkpt><trkpt lat="44.575522034255954" lon="10.16608153352492"><ele>837.0</ele><time>2026-04-04T09:58:38.999Z</time></trkpt><trkpt lat="44.5755408274351" lon="10.165923479339817"><ele>837.0</ele><time>2026-04-04T09:58:39.999Z</time></trkpt><trkpt lat="44.5755226968495" lon="10.165740992585484"><ele>837.0</ele><time>2026-04-04T09:58:40.999Z</time></trkpt><trkpt lat="44.57545404042264" lon="10.165553273473735"><ele>837.0</ele><time>2026-04-04T09:58:41.999Z</time></trkpt><trkpt lat="44.57534096161359" lon="10.1653670489432"><ele>830.25</ele><time>2026-04-04T09:58:42.999Z</time></trkpt><trkpt lat="44.57527265164009" lon="10.165189540367672"><ele>823.5</ele><time>2026-04-04T09:58:43.999Z</time></trkpt><trkpt lat="44.57525376291654" lon="10.165069319362141"><ele>816.75</ele><time>2026-04-04T09:58:44.999Z</time></trkpt><trkpt lat="44.57525663620546" lon="10.164915135642538"><ele>810.0</ele><time>2026-04-04T09:58:45.999Z</time></trkpt><trkpt lat="44.575349607309185" lon="10.164702446434196"><ele>809.6666666666667</ele><time>2026-04-04T09:58:46.999Z</time></trkpt><trkpt lat="44.57545067515832" lon="10.164459032009272"><ele>809.3333333333334</ele><time>2026-04-04T09:58:48Z</time></trkpt><trkpt lat="44.5755028040195" lon="10.164194332720637"><ele>809.0</ele><time>2026-04-04T09:58:49Z</time></trkpt><trkpt lat="44.57552710914678" lon="10.163938707558833"><ele>809.0</ele><time>2026-04-04T09:58:50Z</time></trkpt><trkpt lat="44.575573095985646" lon="10.163704913177325"><ele>809.0</ele><time>2026-04-04T09:58:51Z</time></trkpt><trkpt lat="44.57566202566283" lon="10.163448613982176"><ele>809.0</ele><time>2026-04-04T09:58:52Z</time></trkpt><trkpt lat="44.575767227324796" lon="10.163215198299673"><ele>802.6666666666667</ele><time>2026-04-04T09:58:53Z</time></trkpt><trkpt lat="44.57586782024349" lon="10.163013564488006"><ele>796.3333333333333</ele><time>2026-04-04T09:58:54Z</time></trkpt><trkpt lat="44.575988564822175" lon="10.162871776633969"><ele>790.0</ele><time>2026-04-04T09:58:55Z</time></trkpt><trkpt lat="44.57614885612765" lon="10.16280401529914"><ele>790.5</ele><time>2026-04-04T09:58:56Z</time></trkpt><trkpt lat="44.57629848745081" lon="10.162740067629688"><ele>791.0</ele><time>2026-04-04T09:58:57Z</time></trkpt><trkpt lat="44.5764067688708" lon="10.162630167700778"><ele>791.5</ele><time>2026-04-04T09:58:58Z</time></trkpt><trkpt lat="44.57646252777324" lon="10.162456887977017"><ele>792.0</ele><time>2026-04-04T09:58:59Z</time></trkpt><trkpt lat="44.57651116974912" lon="10.162303295507822"><ele>792.0</ele><time>2026-04-04T09:59:00Z</time></trkpt><trkpt lat="44.57666885862369" lon="10.161886840123545"><ele>792.0</ele><time>2026-04-04T09:59:01Z</time></trkpt><trkpt lat="44.576749251885" lon="10.161654714924936"><ele>786.3333333333333</ele><time>2026-04-04T09:59:02Z</time></trkpt><trkpt lat="44.57681369232317" lon="10.161421315462567"><ele>780.6666666666666</ele><time>2026-04-04T09:59:03Z</time></trkpt><trkpt lat="44.576874066327434" lon="10.161213698488178"><ele>775.0</ele><time>2026-04-04T09:59:04Z</time></trkpt><trkpt lat="44.57696822630808" lon="10.161094701100927"><ele>772.6666666666666</ele><time>2026-04-04T09:59:05Z</time></trkpt><trkpt lat="44.5770939994603" lon="10.16096373448576"><ele>770.3333333333333</ele><time>2026-04-04T09:59:06Z</time></trkpt><trkpt lat="44.57722655235766" lon="10.160810925599776"><ele>768.0</ele><time>2026-04-04T09:59:07Z</time></trkpt><trkpt lat="44.57732420642194" lon="10.160573022943554"><ele>768.0</ele><time>2026-04-04T09:59:08Z</time></trkpt><trkpt lat="44.57741075268411" lon="10.160355206163791"><ele>768.0</ele><time>2026-04-04T09:59:09Z</time></trkpt><trkpt lat="44.57748542202622" lon="10.160195025680135"><ele>768.0</ele><time>2026-04-04T09:59:10Z</time></trkpt><trkpt lat="44.577565366195316" lon="10.16010266350686"><ele>768.0</ele><time>2026-04-04T09:59:11Z</time></trkpt><trkpt lat="44.57765909147724" lon="10.160101536818262"><ele>768.0</ele><time>2026-04-04T09:59:12Z</time></trkpt><trkpt lat="44.57776465797008" lon="10.160231660507936"><ele>768.0</ele><time>2026-04-04T09:59:13Z</time></trkpt><trkpt lat="44.57793246461153" lon="10.16031662871312"><ele>768.0</ele><time>2026-04-04T09:59:14Z</time></trkpt><trkpt lat="44.57807746454914" lon="10.16040771765823"><ele>767.0</ele><time>2026-04-04T09:59:15Z</time></trkpt><trkpt lat="44.578223785023816" lon="10.16044271056532"><ele>766.0</ele><time>2026-04-04T09:59:16Z</time></trkpt><trkpt lat="44.57837063712096" lon="10.160359343182272"><ele>765.0</ele><time>2026-04-04T09:59:17Z</time></trkpt><trkpt lat="44.57851888737808" lon="10.160265357665791"><ele>765.0</ele><time>2026-04-04T09:59:18Z</time></trkpt><trkpt lat="44.578656441340534" lon="10.160141663721655"><ele>765.0</ele><time>2026-04-04T09:59:19Z</time></trkpt><trkpt lat="44.57878284351509" lon="10.160084134544297"><ele>765.0</ele><time>2026-04-04T09:59:20Z</time></trkpt><trkpt lat="44.578889508196276" lon="10.16009473993401"><ele>765.0</ele><time>2026-04-04T09:59:21Z</time></trkpt><trkpt lat="44.57896344068409" lon="10.160246712755184"><ele>767.6666666666667</ele><time>2026-04-04T09:59:22Z</time></trkpt><trkpt lat="44.57905442246245" lon="10.160416704937766"><ele>770.3333333333334</ele><time>2026-04-04T09:59:23Z</time></trkpt><trkpt lat="44.579153763405905" lon="10.16060236084406"><ele>773.0</ele><time>2026-04-04T09:59:24Z</time></trkpt><trkpt lat="44.579250822525495" lon="10.160782951318385"><ele>773.0</ele><time>2026-04-04T09:59:25Z</time></trkpt><trkpt lat="44.5793398484011" lon="10.160948594548335"><ele>773.0</ele><time>2026-04-04T09:59:26Z</time></trkpt><trkpt lat="44.57943954762966" lon="10.161090421512542"><ele>773.0</ele><time>2026-04-04T09:59:27Z</time></trkpt><trkpt lat="44.579523205158154" lon="10.161205844985357"><ele>773.0</ele><time>2026-04-04T09:59:28Z</time></trkpt><trkpt lat="44.579631848812696" lon="10.161246645550843"><ele>769.0</ele><time>2026-04-04T09:59:29Z</time></trkpt><trkpt lat="44.57973604084411" lon="10.161178809775869"><ele>765.0</ele><time>2026-04-04T09:59:30Z</time></trkpt><trkpt lat="44.57983306109671" lon="10.16107309498393"><ele>761.0</ele><time>2026-04-04T09:59:31Z</time></trkpt><trkpt lat="44.579955027658876" lon="10.160907050499073"><ele>757.0</ele><time>2026-04-04T09:59:32Z</time></trkpt><trkpt lat="44.58007993943531" lon="10.160775101371792"><ele>751.6666666666667</ele><time>2026-04-04T09:59:33Z</time></trkpt><trkpt lat="44.58023477301359" lon="10.16066462388883"><ele>746.3333333333334</ele><time>2026-04-04T09:59:34Z</time></trkpt><trkpt lat="44.58041660277669" lon="10.160574210223427"><ele>741.0</ele><time>2026-04-04T09:59:35Z</time></trkpt><trkpt lat="44.580622767914214" lon="10.16046297218191"><ele>741.0</ele><time>2026-04-04T09:59:36Z</time></trkpt><trkpt lat="44.58083355302675" lon="10.160346014190957"><ele>741.0</ele><time>2026-04-04T09:59:37Z</time></trkpt><trkpt lat="44.58103229666531" lon="10.160238494672623"><ele>741.0</ele><time>2026-04-04T09:59:38Z</time></trkpt><trkpt lat="44.58122520177347" lon="10.160140009040777"><ele>740.75</ele><time>2026-04-04T09:59:39Z</time></trkpt><trkpt lat="44.581380148878885" lon="10.160055344604345"><ele>740.5</ele><time>2026-04-04T09:59:40Z</time></trkpt><trkpt lat="44.5814962462399" lon="10.160009371820275"><ele>740.25</ele><time>2026-04-04T09:59:41Z</time></trkpt><trkpt lat="44.58161556866979" lon="10.159989281796234"><ele>740.0</ele><time>2026-04-04T09:59:42Z</time></trkpt><trkpt lat="44.58173455624774" lon="10.160032416697012"><ele>740.0</ele><time>2026-04-04T09:59:43Z</time></trkpt><trkpt lat="44.58182354469793" lon="10.160208210450431"><ele>740.0</ele><time>2026-04-04T09:59:44Z</time></trkpt><trkpt lat="44.58193949106327" lon="10.16042301167693"><ele>740.0</ele><time>2026-04-04T09:59:45Z</time></trkpt><trkpt lat="44.58205881656011" lon="10.160632576736125"><ele>735.6666666666666</ele><time>2026-04-04T09:59:46Z</time></trkpt><trkpt lat="44.582147777520696" lon="10.160875708274528"><ele>731.3333333333334</ele><time>2026-04-04T09:59:47Z</time></trkpt><trkpt lat="44.582233574659575" lon="10.161095306681725"><ele>727.0</ele><time>2026-04-04T09:59:48Z</time></trkpt><trkpt lat="44.58232876936862" lon="10.161288410638656"><ele>727.0</ele><time>2026-04-04T09:59:49Z</time></trkpt><trkpt lat="44.582466490994776" lon="10.161459854535158"><ele>727.0</ele><time>2026-04-04T09:59:50Z</time></trkpt><trkpt lat="44.582597104953024" lon="10.161638907946342"><ele>727.0</ele><time>2026-04-04T09:59:51Z</time></trkpt><trkpt lat="44.582732276810205" lon="10.16183026797935"><ele>725.0</ele><time>2026-04-04T09:59:52Z</time></trkpt><trkpt lat="44.58285664090554" lon="10.161998048863751"><ele>723.0</ele><time>2026-04-04T09:59:53Z</time></trkpt><trkpt lat="44.58297479601511" lon="10.162160862181793"><ele>721.0</ele><time>2026-04-04T09:59:53.999Z</time></trkpt><trkpt lat="44.58307803076021" lon="10.162287678093"><ele>721.0</ele><time>2026-04-04T09:59:54.999Z</time></trkpt><trkpt lat="44.58318041995781" lon="10.162344184433259"><ele>721.0</ele><time>2026-04-04T09:59:55.999Z</time></trkpt><trkpt lat="44.58330170612798" lon="10.162358540865723"><ele>721.0</ele><time>2026-04-04T09:59:56.999Z</time></trkpt><trkpt lat="44.583411763049355" lon="10.16231123468109"><ele>721.0</ele><time>2026-04-04T09:59:57.999Z</time></trkpt><trkpt lat="44.58354745474908" lon="10.16223937483708"><ele>721.0</ele><time>2026-04-04T09:59:58.999Z</time></trkpt><trkpt lat="44.5836555624241" lon="10.162128710331931"><ele>721.0</ele><time>2026-04-04T09:59:59.999Z</time></trkpt><trkpt lat="44.583721306720655" lon="10.16205207363387"><ele>721.0</ele><time>2026-04-04T10:00:00.999Z</time></trkpt><trkpt lat="44.58379931645471" lon="10.161931657849749"><ele>721.0</ele><time>2026-04-04T10:00:01.999Z</time></trkpt><trkpt lat="44.58387589705037" lon="10.161750493903229"><ele>719.3333333333334</ele><time>2026-04-04T10:00:02.999Z</time></trkpt><trkpt lat="44.583960186749174" lon="10.161522380768773"><ele>717.6666666666666</ele><time>2026-04-04T10:00:03.999Z</time></trkpt><trkpt lat="44.58406333750975" lon="10.161302748013513"><ele>716.0</ele><time>2026-04-04T10:00:04.999Z</time></trkpt><trkpt lat="44.5841727997324" lon="10.161067954181316"><ele>716.0</ele><time>2026-04-04T10:00:05.999Z</time></trkpt><trkpt lat="44.58427324147638" lon="10.160832412037665"><ele>716.0</ele><time>2026-04-04T10:00:06.999Z</time></trkpt><trkpt lat="44.584366355992216" lon="10.160599457945217"><ele>716.0</ele><time>2026-04-04T10:00:07.999Z</time></trkpt><trkpt lat="44.58445146932324" lon="10.16037234029529"><ele>714.6666666666666</ele><time>2026-04-04T10:00:08.999Z</time></trkpt><trkpt lat="44.584514473818466" lon="10.160132404582592"><ele>713.3333333333334</ele><time>2026-04-04T10:00:09.999Z</time></trkpt><trkpt lat="44.58455820794512" lon="10.159886720117592"><ele>712.0</ele><time>2026-04-04T10:00:10.999Z</time></trkpt><trkpt lat="44.584604011196035" lon="10.159641541771197"><ele>709.25</ele><time>2026-04-04T10:00:11.999Z</time></trkpt><trkpt lat="44.58465345204224" lon="10.159430064556068"><ele>706.5</ele><time>2026-04-04T10:00:12.999Z</time></trkpt><trkpt lat="44.58469221203872" lon="10.159276614567027"><ele>703.75</ele><time>2026-04-04T10:00:13.999Z</time></trkpt><trkpt lat="44.58474911210772" lon="10.159161629295541"><ele>701.0</ele><time>2026-04-04T10:00:14.999Z</time></trkpt><trkpt lat="44.584848849073246" lon="10.159106686342659"><ele>701.0</ele><time>2026-04-04T10:00:15.999Z</time></trkpt><trkpt lat="44.58498433304002" lon="10.159146444325604"><ele>701.0</ele><time>2026-04-04T10:00:16.999Z</time></trkpt><trkpt lat="44.58509830493347" lon="10.159276238921642"><ele>701.0</ele><time>2026-04-04T10:00:17.999Z</time></trkpt><trkpt lat="44.58510737189869" lon="10.159487429188074"><ele>701.0</ele><time>2026-04-04T10:00:18.999Z</time></trkpt><trkpt lat="44.58515490879686" lon="10.159681806542896"><ele>701.0</ele><time>2026-04-04T10:00:19.999Z</time></trkpt><trkpt lat="44.58522227202729" lon="10.159823372561652"><ele>701.0</ele><time>2026-04-04T10:00:20.999Z</time></trkpt><trkpt lat="44.5853215930058" lon="10.159880322125089"><ele>701.0</ele><time>2026-04-04T10:00:21.999Z</time></trkpt><trkpt lat="44.58545168822981" lon="10.159870012334132"><ele>701.0</ele><time>2026-04-04T10:00:22.999Z</time></trkpt><trkpt lat="44.585574915880656" lon="10.159799186622811"><ele>700.0</ele><time>2026-04-04T10:00:23.999Z</time></trkpt><trkpt lat="44.58569817506368" lon="10.159657408843858"><ele>699.0</ele><time>2026-04-04T10:00:24.999Z</time></trkpt><trkpt lat="44.585878646520264" lon="10.15954172177067"><ele>698.0</ele><time>2026-04-04T10:00:25.999Z</time></trkpt><trkpt lat="44.58603936216881" lon="10.15942452053348"><ele>700.6666666666666</ele><time>2026-04-04T10:00:26.999Z</time></trkpt><trkpt lat="44.58621166314713" lon="10.159307394675254"><ele>703.3333333333334</ele><time>2026-04-04T10:00:27.999Z</time></trkpt><trkpt lat="44.58636412083747" lon="10.159190693446273"><ele>706.0</ele><time>2026-04-04T10:00:28.999Z</time></trkpt><trkpt lat="44.586495757761234" lon="10.159101330031065"><ele>704.75</ele><time>2026-04-04T10:00:29.999Z</time></trkpt><trkpt lat="44.58659738043597" lon="10.159031116733942"><ele>703.5</ele><time>2026-04-04T10:00:30.999Z</time></trkpt><trkpt lat="44.58670780622784" lon="10.158955753965161"><ele>702.25</ele><time>2026-04-04T10:00:31.999Z</time></trkpt><trkpt lat="44.58682058887052" lon="10.158869580108128"><ele>701.0</ele><time>2026-04-04T10:00:32.999Z</time></trkpt><trkpt lat="44.58692099563114" lon="10.158745534328759"><ele>701.0</ele><time>2026-04-04T10:00:33.999Z</time></trkpt><trkpt lat="44.58698350888803" lon="10.158560943136266"><ele>701.0</ele><time>2026-04-04T10:00:34.999Z</time></trkpt><trkpt lat="44.58700599807828" lon="10.15831921218795"><ele>701.0</ele><time>2026-04-04T10:00:35.999Z</time></trkpt><trkpt lat="44.58701376352105" lon="10.158072106174217"><ele>699.75</ele><time>2026-04-04T10:00:36.999Z</time></trkpt><trkpt lat="44.58702715004799" lon="10.15788013730329"><ele>698.5</ele><time>2026-04-04T10:00:37.999Z</time></trkpt><trkpt lat="44.58709560606807" lon="10.157734126245185"><ele>697.25</ele><time>2026-04-04T10:00:38.999Z</time></trkpt><trkpt lat="44.58718516417061" lon="10.157580659816759"><ele>696.0</ele><time>2026-04-04T10:00:39.999Z</time></trkpt><trkpt lat="44.587326758836504" lon="10.15747665694769"><ele>696.0</ele><time>2026-04-04T10:00:40.999Z</time></trkpt><trkpt lat="44.58748042755846" lon="10.157397944870787"><ele>696.0</ele><time>2026-04-04T10:00:41.999Z</time></trkpt><trkpt lat="44.587610796362604" lon="10.157302305947413"><ele>696.0</ele><time>2026-04-04T10:00:42.999Z</time></trkpt><trkpt lat="44.58768418236529" lon="10.157147207753516"><ele>696.0</ele><time>2026-04-04T10:00:43.999Z</time></trkpt><trkpt lat="44.58779949323249" lon="10.156945004539663"><ele>698.0</ele><time>2026-04-04T10:00:44.999Z</time></trkpt><trkpt lat="44.58786231678835" lon="10.156746402514791"><ele>700.0</ele><time>2026-04-04T10:00:45.999Z</time></trkpt><trkpt lat="44.58788614832027" lon="10.156505433314928"><ele>702.0</ele><time>2026-04-04T10:00:46.999Z</time></trkpt><trkpt lat="44.5878861340187" lon="10.15624865275294"><ele>702.0</ele><time>2026-04-04T10:00:47.999Z</time></trkpt><trkpt lat="44.58790051557617" lon="10.155981143323022"><ele>702.0</ele><time>2026-04-04T10:00:48.999Z</time></trkpt><trkpt lat="44.58792670594079" lon="10.155727274003365"><ele>702.0</ele><time>2026-04-04T10:00:49.999Z</time></trkpt><trkpt lat="44.58794378239283" lon="10.155474615587146"><ele>703.0</ele><time>2026-04-04T10:00:50.999Z</time></trkpt><trkpt lat="44.58792716566576" lon="10.155228159892243"><ele>704.0</ele><time>2026-04-04T10:00:51.999Z</time></trkpt><trkpt lat="44.587859701019994" lon="10.154994432060953"><ele>705.0</ele><time>2026-04-04T10:00:52.999Z</time></trkpt><trkpt lat="44.587792948571135" lon="10.154763404590607"><ele>694.6666666666666</ele><time>2026-04-04T10:00:54Z</time></trkpt><trkpt lat="44.587776745583184" lon="10.154497656990507"><ele>684.3333333333333</ele><time>2026-04-04T10:00:55Z</time></trkpt><trkpt lat="44.58777297184325" lon="10.154228128606638"><ele>674.0</ele><time>2026-04-04T10:00:56Z</time></trkpt><trkpt lat="44.58774111219969" lon="10.153993187773647"><ele>674.0</ele><time>2026-04-04T10:00:57Z</time></trkpt><trkpt lat="44.587648423321525" lon="10.153789073447443"><ele>674.0</ele><time>2026-04-04T10:00:58Z</time></trkpt><trkpt lat="44.58752756525564" lon="10.153590231877777"><ele>674.0</ele><time>2026-04-04T10:00:59Z</time></trkpt><trkpt lat="44.587450944589904" lon="10.153397260901873"><ele>672.6666666666666</ele><time>2026-04-04T10:01:00Z</time></trkpt><trkpt lat="44.58746055778612" lon="10.15315687053368"><ele>671.3333333333334</ele><time>2026-04-04T10:01:01Z</time></trkpt><trkpt lat="44.5874597938849" lon="10.152874248858769"><ele>670.0</ele><time>2026-04-04T10:01:02Z</time></trkpt><trkpt lat="44.58747076309167" lon="10.152613981375087"><ele>670.0</ele><time>2026-04-04T10:01:03Z</time></trkpt><trkpt lat="44.58746685430057" lon="10.152379962252924"><ele>670.0</ele><time>2026-04-04T10:01:04Z</time></trkpt><trkpt lat="44.58746729693867" lon="10.152151366556087"><ele>670.0</ele><time>2026-04-04T10:01:05Z</time></trkpt><trkpt lat="44.587489108556554" lon="10.151932667908538"><ele>666.6666666666667</ele><time>2026-04-04T10:01:06Z</time></trkpt><trkpt lat="44.58756722932723" lon="10.151739975554802"><ele>663.3333333333334</ele><time>2026-04-04T10:01:07Z</time></trkpt><trkpt lat="44.58770041028286" lon="10.151562905349229"><ele>660.0</ele><time>2026-04-04T10:01:08Z</time></trkpt><trkpt lat="44.5878702815611" lon="10.151407221293564"><ele>660.0</ele><time>2026-04-04T10:01:09Z</time></trkpt><trkpt lat="44.58804287051528" lon="10.151234807540614"><ele>660.0</ele><time>2026-04-04T10:01:10Z</time></trkpt><trkpt lat="44.588188810487196" lon="10.151060153970793"><ele>660.0</ele><time>2026-04-04T10:01:11Z</time></trkpt><trkpt lat="44.588294200031974" lon="10.150856446679704"><ele>655.0</ele><time>2026-04-04T10:01:12Z</time></trkpt><trkpt lat="44.58836711114352" lon="10.150590851984495"><ele>650.0</ele><time>2026-04-04T10:01:13Z</time></trkpt><trkpt lat="44.58843375178694" lon="10.150314439793677"><ele>645.0</ele><time>2026-04-04T10:01:14Z</time></trkpt><trkpt lat="44.58849390005363" lon="10.150100747864073"><ele>645.0</ele><time>2026-04-04T10:01:15Z</time></trkpt><trkpt lat="44.588566000886374" lon="10.149952813250527"><ele>645.0</ele><time>2026-04-04T10:01:16Z</time></trkpt><trkpt lat="44.58868006153457" lon="10.149837104831223"><ele>645.0</ele><time>2026-04-04T10:01:17Z</time></trkpt><trkpt lat="44.58887623785846" lon="10.149693706589249"><ele>642.6666666666666</ele><time>2026-04-04T10:01:18Z</time></trkpt><trkpt lat="44.58909484312689" lon="10.149606728367988"><ele>640.3333333333333</ele><time>2026-04-04T10:01:19Z</time></trkpt><trkpt lat="44.58930612997011" lon="10.149515240768846"><ele>638.0</ele><time>2026-04-04T10:01:20Z</time></trkpt><trkpt lat="44.58950993801364" lon="10.149436974328207"><ele>637.6666666666666</ele><time>2026-04-04T10:01:21Z</time></trkpt><trkpt lat="44.589712662558306" lon="10.149376590710872"><ele>637.3333333333334</ele><time>2026-04-04T10:01:22Z</time></trkpt><trkpt lat="44.58989907602879" lon="10.149324003118974"><ele>637.0</ele><time>2026-04-04T10:01:23Z</time></trkpt><trkpt lat="44.59005722767641" lon="10.149251889665425"><ele>637.0</ele><time>2026-04-04T10:01:24Z</time></trkpt><trkpt lat="44.59018498758691" lon="10.149125261105258"><ele>637.0</ele><time>2026-04-04T10:01:25Z</time></trkpt><trkpt lat="44.590358521815126" lon="10.14895252364242"><ele>637.0</ele><time>2026-04-04T10:01:26Z</time></trkpt><trkpt lat="44.590558356715846" lon="10.148751730139377"><ele>633.6666666666667</ele><time>2026-04-04T10:01:27Z</time></trkpt><trkpt lat="44.59071681284426" lon="10.148635772479437"><ele>630.3333333333334</ele><time>2026-04-04T10:01:28Z</time></trkpt><trkpt lat="44.590875637098335" lon="10.148532855850128"><ele>627.0</ele><time>2026-04-04T10:01:29Z</time></trkpt><trkpt lat="44.591003663914954" lon="10.148416268899002"><ele>627.0</ele><time>2026-04-04T10:01:30Z</time></trkpt><trkpt lat="44.59111087426807" lon="10.148289854536321"><ele>627.0</ele><time>2026-04-04T10:01:31Z</time></trkpt><trkpt lat="44.59115897529215" lon="10.148111394002562"><ele>627.0</ele><time>2026-04-04T10:01:32Z</time></trkpt><trkpt lat="44.591158251219206" lon="10.147886446713912"><ele>627.0</ele><time>2026-04-04T10:01:33Z</time></trkpt><trkpt lat="44.59111495052703" lon="10.147684028318348"><ele>630.0</ele><time>2026-04-04T10:01:34Z</time></trkpt><trkpt lat="44.59108105776998" lon="10.147446633816276"><ele>633.0</ele><time>2026-04-04T10:01:35Z</time></trkpt><trkpt lat="44.591102360164165" lon="10.147181452244787"><ele>636.0</ele><time>2026-04-04T10:01:36Z</time></trkpt><trkpt lat="44.591194425195845" lon="10.146974231735587"><ele>636.0</ele><time>2026-04-04T10:01:37Z</time></trkpt><trkpt lat="44.5913105575364" lon="10.14675217147155"><ele>636.0</ele><time>2026-04-04T10:01:38Z</time></trkpt><trkpt lat="44.59140255549081" lon="10.146479661872048"><ele>636.0</ele><time>2026-04-04T10:01:39Z</time></trkpt><trkpt lat="44.591465558777415" lon="10.146185836530737"><ele>630.3333333333334</ele><time>2026-04-04T10:01:40Z</time></trkpt><trkpt lat="44.59152315358245" lon="10.145928672999736"><ele>624.6666666666667</ele><time>2026-04-04T10:01:41Z</time></trkpt><trkpt lat="44.59157184617158" lon="10.145698145526502"><ele>619.0</ele><time>2026-04-04T10:01:42Z</time></trkpt><trkpt lat="44.59157874074392" lon="10.145486865105045"><ele>616.0</ele><time>2026-04-04T10:01:43Z</time></trkpt><trkpt lat="44.59153818098005" lon="10.145231288708713"><ele>613.0</ele><time>2026-04-04T10:01:44Z</time></trkpt><trkpt lat="44.5914904728623" lon="10.144928250614813"><ele>610.0</ele><time>2026-04-04T10:01:45Z</time></trkpt><trkpt lat="44.59145556843917" lon="10.144653115992252"><ele>606.3333333333334</ele><time>2026-04-04T10:01:46Z</time></trkpt><trkpt lat="44.59142742870528" lon="10.144393959984775"><ele>602.6666666666666</ele><time>2026-04-04T10:01:47Z</time></trkpt><trkpt lat="44.59140210459767" lon="10.144171965103789"><ele>599.0</ele><time>2026-04-04T10:01:48Z</time></trkpt><trkpt lat="44.591388977303005" lon="10.144000638160692"><ele>598.75</ele><time>2026-04-04T10:01:49Z</time></trkpt><trkpt lat="44.591415514592406" lon="10.143849215372107"><ele>598.5</ele><time>2026-04-04T10:01:50Z</time></trkpt><trkpt lat="44.59150236757808" lon="10.143713272925844"><ele>598.25</ele><time>2026-04-04T10:01:51Z</time></trkpt><trkpt lat="44.59163540848319" lon="10.143630015648077"><ele>598.0</ele><time>2026-04-04T10:01:52Z</time></trkpt><trkpt lat="44.591783815533205" lon="10.143642993933524"><ele>598.0</ele><time>2026-04-04T10:01:53Z</time></trkpt><trkpt lat="44.59192359981035" lon="10.143752282607144"><ele>598.0</ele><time>2026-04-04T10:01:54Z</time></trkpt><trkpt lat="44.59208592696787" lon="10.143883742526642"><ele>598.0</ele><time>2026-04-04T10:01:55Z</time></trkpt><trkpt lat="44.592246787187676" lon="10.144039297709424"><ele>596.0</ele><time>2026-04-04T10:01:56Z</time></trkpt><trkpt lat="44.59240550879961" lon="10.144159410250847"><ele>594.0</ele><time>2026-04-04T10:01:57Z</time></trkpt><trkpt lat="44.59255352191689" lon="10.144260772489352"><ele>592.0</ele><time>2026-04-04T10:01:58Z</time></trkpt><trkpt lat="44.59269735919343" lon="10.144332575594191"><ele>592.0</ele><time>2026-04-04T10:01:59Z</time></trkpt><trkpt lat="44.59285288437822" lon="10.144339480289405"><ele>592.0</ele><time>2026-04-04T10:02:00Z</time></trkpt><trkpt lat="44.59301623222935" lon="10.14428477546397"><ele>592.0</ele><time>2026-04-04T10:02:01Z</time></trkpt><trkpt lat="44.59321068721354" lon="10.144145853989029"><ele>588.3333333333334</ele><time>2026-04-04T10:02:01.999Z</time></trkpt><trkpt lat="44.59343567446132" lon="10.143965703554866"><ele>584.6666666666666</ele><time>2026-04-04T10:02:02.999Z</time></trkpt><trkpt lat="44.593570041591406" lon="10.143877801191842"><ele>581.0</ele><time>2026-04-04T10:02:03.999Z</time></trkpt><trkpt lat="44.59375461108104" lon="10.14373607471174"><ele>581.0</ele><time>2026-04-04T10:02:04.999Z</time></trkpt><trkpt lat="44.593927111417024" lon="10.143594935351825"><ele>581.0</ele><time>2026-04-04T10:02:05.999Z</time></trkpt><trkpt lat="44.59408473544783" lon="10.143479582787073"><ele>581.0</ele><time>2026-04-04T10:02:06.999Z</time></trkpt><trkpt lat="44.59423130074469" lon="10.143359011916463"><ele>581.0</ele><time>2026-04-04T10:02:07.999Z</time></trkpt><trkpt lat="44.59434589196803" lon="10.143227614436062"><ele>581.0</ele><time>2026-04-04T10:02:08.999Z</time></trkpt><trkpt lat="44.59437148983944" lon="10.143033895825674"><ele>581.0</ele><time>2026-04-04T10:02:09.999Z</time></trkpt><trkpt lat="44.59436905246667" lon="10.142812248675435"><ele>581.0</ele><time>2026-04-04T10:02:10.999Z</time></trkpt><trkpt lat="44.594385798233795" lon="10.142538119359806"><ele>571.0</ele><time>2026-04-04T10:02:11.999Z</time></trkpt><trkpt lat="44.594369810276476" lon="10.142270030115588"><ele>561.0</ele><time>2026-04-04T10:02:12.999Z</time></trkpt><trkpt lat="44.59439608649136" lon="10.14205159742924"><ele>551.0</ele><time>2026-04-04T10:02:13.999Z</time></trkpt><trkpt lat="44.5945034941582" lon="10.14187355498337"><ele>553.6666666666666</ele><time>2026-04-04T10:02:14.999Z</time></trkpt><trkpt lat="44.59464087139237" lon="10.141670101018875"><ele>556.3333333333334</ele><time>2026-04-04T10:02:15.999Z</time></trkpt><trkpt lat="44.59478672932031" lon="10.141485559501925"><ele>559.0</ele><time>2026-04-04T10:02:16.999Z</time></trkpt><trkpt lat="44.59489395605076" lon="10.141259533435521"><ele>559.0</ele><time>2026-04-04T10:02:17.999Z</time></trkpt><trkpt lat="44.594972600456316" lon="10.14099212489448"><ele>559.0</ele><time>2026-04-04T10:02:18.999Z</time></trkpt><trkpt lat="44.59504770760389" lon="10.140712416829235"><ele>559.0</ele><time>2026-04-04T10:02:19.999Z</time></trkpt><trkpt lat="44.59513209831852" lon="10.140419564076451"><ele>559.3333333333334</ele><time>2026-04-04T10:02:20.999Z</time></trkpt><trkpt lat="44.595210671907026" lon="10.140137659508586"><ele>559.6666666666666</ele><time>2026-04-04T10:02:21.999Z</time></trkpt><trkpt lat="44.59528438233053" lon="10.139875220745674"><ele>560.0</ele><time>2026-04-04T10:02:22.999Z</time></trkpt><trkpt lat="44.595357564043866" lon="10.13962642216404"><ele>560.0</ele><time>2026-04-04T10:02:23.999Z</time></trkpt><trkpt lat="44.59540311591442" lon="10.139380484088326"><ele>560.0</ele><time>2026-04-04T10:02:24.999Z</time></trkpt><trkpt lat="44.59539088057432" lon="10.139130449056978"><ele>560.0</ele><time>2026-04-04T10:02:25.999Z</time></trkpt><trkpt lat="44.595256618335284" lon="10.1388315031162"><ele>554.0</ele><time>2026-04-04T10:02:26.999Z</time></trkpt><trkpt lat="44.59515417745107" lon="10.138532882475113"><ele>548.0</ele><time>2026-04-04T10:02:27.999Z</time></trkpt><trkpt lat="44.595064724437655" lon="10.138261553203954"><ele>542.0</ele><time>2026-04-04T10:02:28.999Z</time></trkpt><trkpt lat="44.59498589247096" lon="10.137995416860155"><ele>542.0</ele><time>2026-04-04T10:02:29.999Z</time></trkpt><trkpt lat="44.59491447917166" lon="10.137735040560655"><ele>542.0</ele><time>2026-04-04T10:02:30.999Z</time></trkpt><trkpt lat="44.594827744520295" lon="10.137499218103608"><ele>542.0</ele><time>2026-04-04T10:02:31.999Z</time></trkpt><trkpt lat="44.59473239365798" lon="10.137254119456282"><ele>540.6666666666666</ele><time>2026-04-04T10:02:32.999Z</time></trkpt><trkpt lat="44.59465093077521" lon="10.137034540764647"><ele>539.3333333333334</ele><time>2026-04-04T10:02:33.999Z</time></trkpt><trkpt lat="44.594592525424765" lon="10.136837319139795"><ele>538.0</ele><time>2026-04-04T10:02:34.999Z</time></trkpt><trkpt lat="44.59457639294298" lon="10.136663744439973"><ele>534.3333333333334</ele><time>2026-04-04T10:02:35.999Z</time></trkpt><trkpt lat="44.59459010565518" lon="10.136469955794462"><ele>530.6666666666666</ele><time>2026-04-04T10:02:36.999Z</time></trkpt><trkpt lat="44.59463871055424" lon="10.136261463870031"><ele>527.0</ele><time>2026-04-04T10:02:37.999Z</time></trkpt><trkpt lat="44.59473431305075" lon="10.136061203646257"><ele>527.0</ele><time>2026-04-04T10:02:38.999Z</time></trkpt><trkpt lat="44.5948752887532" lon="10.135881513682051"><ele>527.0</ele><time>2026-04-04T10:02:39.999Z</time></trkpt><trkpt lat="44.5950362345152" lon="10.13571010092183"><ele>527.0</ele><time>2026-04-04T10:02:40.999Z</time></trkpt><trkpt lat="44.595184261466166" lon="10.13554892953729"><ele>524.3333333333333</ele><time>2026-04-04T10:02:41.999Z</time></trkpt><trkpt lat="44.59534579921871" lon="10.135371803045205"><ele>521.6666666666666</ele><time>2026-04-04T10:02:42.999Z</time></trkpt><trkpt lat="44.595544103994364" lon="10.13520012690796"><ele>519.0</ele><time>2026-04-04T10:02:43.999Z</time></trkpt><trkpt lat="44.59570957984607" lon="10.134993511002268"><ele>516.0</ele><time>2026-04-04T10:02:44.999Z</time></trkpt><trkpt lat="44.5958242449006" lon="10.134804068968977"><ele>513.0</ele><time>2026-04-04T10:02:45.999Z</time></trkpt><trkpt lat="44.59595255541192" lon="10.134635092269507"><ele>510.0</ele><time>2026-04-04T10:02:46.999Z</time></trkpt><trkpt lat="44.596176685234965" lon="10.134502100774458"><ele>510.0</ele><time>2026-04-04T10:02:47.999Z</time></trkpt><trkpt lat="44.596387404914" lon="10.13440258893398"><ele>510.0</ele><time>2026-04-04T10:02:48.999Z</time></trkpt><trkpt lat="44.596564927914734" lon="10.134306426965532"><ele>510.0</ele><time>2026-04-04T10:02:49.999Z</time></trkpt><trkpt lat="44.59669370004778" lon="10.13415639831106"><ele>506.66666666666663</ele><time>2026-04-04T10:02:50.999Z</time></trkpt><trkpt lat="44.596808421124564" lon="10.133924829796884"><ele>503.3333333333333</ele><time>2026-04-04T10:02:51.999Z</time></trkpt><trkpt lat="44.596906313421" lon="10.13365576998165"><ele>500.0</ele><time>2026-04-04T10:02:52.999Z</time></trkpt><trkpt lat="44.597021642188444" lon="10.13344302114587"><ele>500.0</ele><time>2026-04-04T10:02:53.999Z</time></trkpt><trkpt lat="44.5971619614036" lon="10.133274716231233"><ele>500.0</ele><time>2026-04-04T10:02:54.999Z</time></trkpt><trkpt lat="44.597357363542166" lon="10.133149600524858"><ele>500.0</ele><time>2026-04-04T10:02:55.999Z</time></trkpt><trkpt lat="44.59759337118582" lon="10.133066673692449"><ele>492.0</ele><time>2026-04-04T10:02:56.999Z</time></trkpt><trkpt lat="44.597828078985074" lon="10.132965419727565"><ele>484.0</ele><time>2026-04-04T10:02:57.999Z</time></trkpt><trkpt lat="44.598102788425365" lon="10.132814928042034"><ele>484.0</ele><time>2026-04-04T10:02:58.999Z</time></trkpt><trkpt lat="44.59837901086824" lon="10.13263488020386"><ele>484.0</ele><time>2026-04-04T10:03:00Z</time></trkpt><trkpt lat="44.59864574652711" lon="10.132491664072166"><ele>482.6666666666667</ele><time>2026-04-04T10:03:01Z</time></trkpt><trkpt lat="44.59872148514271" lon="10.132493452927056"><ele>481.33333333333337</ele><time>2026-04-04T10:03:02Z</time></trkpt><trkpt lat="44.598947349845936" lon="10.132380076055187"><ele>480.0</ele><time>2026-04-04T10:03:03Z</time></trkpt><trkpt lat="44.5991581762719" lon="10.132282411335163"><ele>476.66666666666663</ele><time>2026-04-04T10:03:04Z</time></trkpt><trkpt lat="44.599361175762645" lon="10.132182101735888"><ele>473.3333333333333</ele><time>2026-04-04T10:03:05Z</time></trkpt><trkpt lat="44.59955440333247" lon="10.132061521731636"><ele>470.0</ele><time>2026-04-04T10:03:06Z</time></trkpt><trkpt lat="44.59975331226847" lon="10.131898528810034"><ele>470.0</ele><time>2026-04-04T10:03:07Z</time></trkpt><trkpt lat="44.59994319082526" lon="10.131703622733525"><ele>470.0</ele><time>2026-04-04T10:03:08Z</time></trkpt><trkpt lat="44.60013181391234" lon="10.131522437674112"><ele>468.3333333333333</ele><time>2026-04-04T10:03:09Z</time></trkpt><trkpt lat="44.60031304246912" lon="10.131358464416277"><ele>466.66666666666663</ele><time>2026-04-04T10:03:10Z</time></trkpt><trkpt lat="44.60048477805189" lon="10.131209018822606"><ele>465.0</ele><time>2026-04-04T10:03:11Z</time></trkpt><trkpt lat="44.6006265031667" lon="10.131055224779873"><ele>465.0</ele><time>2026-04-04T10:03:12Z</time></trkpt><trkpt lat="44.60069329376386" lon="10.130890458523432"><ele>465.0</ele><time>2026-04-04T10:03:13Z</time></trkpt><trkpt lat="44.600769462183536" lon="10.130652551807286"><ele>465.0</ele><time>2026-04-04T10:03:14Z</time></trkpt><trkpt lat="44.600828588156766" lon="10.130365399668667"><ele>460.66666666666663</ele><time>2026-04-04T10:03:15Z</time></trkpt><trkpt lat="44.60088639885631" lon="10.130065544929964"><ele>456.3333333333333</ele><time>2026-04-04T10:03:16Z</time></trkpt><trkpt lat="44.60091937243753" lon="10.129800734160238"><ele>452.0</ele><time>2026-04-04T10:03:17Z</time></trkpt><trkpt lat="44.60096413959577" lon="10.12956894728105"><ele>448.0</ele><time>2026-04-04T10:03:18Z</time></trkpt><trkpt lat="44.601005592905345" lon="10.129380162971284"><ele>444.0</ele><time>2026-04-04T10:03:19Z</time></trkpt><trkpt lat="44.60106717803942" lon="10.129128616737491"><ele>440.0</ele><time>2026-04-04T10:03:20Z</time></trkpt><trkpt lat="44.60117217357163" lon="10.128892571276275"><ele>438.0</ele><time>2026-04-04T10:03:21Z</time></trkpt><trkpt lat="44.60129659178243" lon="10.128662193450703"><ele>436.0</ele><time>2026-04-04T10:03:22Z</time></trkpt><trkpt lat="44.601387162347514" lon="10.128468969806509"><ele>434.0</ele><time>2026-04-04T10:03:23Z</time></trkpt><trkpt lat="44.60149219016127" lon="10.12823898581614"><ele>430.3333333333333</ele><time>2026-04-04T10:03:24Z</time></trkpt><trkpt lat="44.601642655860836" lon="10.128000772363395"><ele>426.66666666666663</ele><time>2026-04-04T10:03:25Z</time></trkpt><trkpt lat="44.60176916677631" lon="10.127834860532834"><ele>423.0</ele><time>2026-04-04T10:03:26Z</time></trkpt><trkpt lat="44.60192477837383" lon="10.127645295223985"><ele>424.0</ele><time>2026-04-04T10:03:27Z</time></trkpt><trkpt lat="44.60208089114268" lon="10.127469481441176"><ele>425.0</ele><time>2026-04-04T10:03:28Z</time></trkpt><trkpt lat="44.60221343374065" lon="10.127296934677245"><ele>426.0</ele><time>2026-04-04T10:03:29Z</time></trkpt><trkpt lat="44.60234436587579" lon="10.12710795348568"><ele>423.0</ele><time>2026-04-04T10:03:30Z</time></trkpt><trkpt lat="44.602465686440254" lon="10.126898335026626"><ele>420.0</ele><time>2026-04-04T10:03:31Z</time></trkpt><trkpt lat="44.602569671922026" lon="10.126683990172303"><ele>417.0</ele><time>2026-04-04T10:03:32Z</time></trkpt><trkpt lat="44.602668573048255" lon="10.12647761383397"><ele>414.0</ele><time>2026-04-04T10:03:33Z</time></trkpt><trkpt lat="44.602761853048605" lon="10.126283328986178"><ele>411.0</ele><time>2026-04-04T10:03:34Z</time></trkpt><trkpt lat="44.60284579283895" lon="10.126102424945403"><ele>408.0</ele><time>2026-04-04T10:03:35Z</time></trkpt><trkpt lat="44.60291814883601" lon="10.12594741534638"><ele>408.0</ele><time>2026-04-04T10:03:36Z</time></trkpt><trkpt lat="44.60300470728456" lon="10.125810825273533"><ele>408.0</ele><time>2026-04-04T10:03:37Z</time></trkpt><trkpt lat="44.60310784917519" lon="10.125691645453493"><ele>408.0</ele><time>2026-04-04T10:03:38Z</time></trkpt><trkpt lat="44.603240200516304" lon="10.125621375217944"><ele>408.0</ele><time>2026-04-04T10:03:39Z</time></trkpt><trkpt lat="44.60339307861594" lon="10.125569604569161"><ele>406.0</ele><time>2026-04-04T10:03:40Z</time></trkpt><trkpt lat="44.60353221790499" lon="10.125484422424913"><ele>404.0</ele><time>2026-04-04T10:03:41Z</time></trkpt><trkpt lat="44.603635345225975" lon="10.12537303408449"><ele>402.0</ele><time>2026-04-04T10:03:42Z</time></trkpt><trkpt lat="44.603719711567294" lon="10.12526724270873"><ele>400.0</ele><time>2026-04-04T10:03:43Z</time></trkpt><trkpt lat="44.60378039496344" lon="10.125195897700245"><ele>399.4</ele><time>2026-04-04T10:03:44Z</time></trkpt><trkpt lat="44.60384351783812" lon="10.125124036193002"><ele>398.8</ele><time>2026-04-04T10:03:45Z</time></trkpt><trkpt lat="44.60394575559221" lon="10.125089705332586"><ele>398.20000000000005</ele><time>2026-04-04T10:03:47Z</time></trkpt><trkpt lat="44.60403118542915" lon="10.124995767799097"><ele>397.6</ele><time>2026-04-04T10:03:49Z</time></trkpt><trkpt lat="44.60411091580098" lon="10.124975298268769"><ele>397.0</ele><time>2026-04-04T10:03:51Z</time></trkpt><trkpt lat="44.604200561225184" lon="10.124926013730073"><ele>397.0</ele><time>2026-04-04T10:03:54Z</time></trkpt><trkpt lat="44.60428585002396" lon="10.124903401620143"><ele>397.0</ele><time>2026-04-04T10:03:58Z</time></trkpt><trkpt lat="44.60439380412249" lon="10.124992987121699"><ele>397.0</ele><time>2026-04-04T10:04:00Z</time></trkpt><trkpt lat="44.60447686681394" lon="10.125061488922787"><ele>397.0</ele><time>2026-04-04T10:04:01Z</time></trkpt><trkpt lat="44.60454991928378" lon="10.125124184905403"><ele>397.0</ele><time>2026-04-04T10:04:02Z</time></trkpt><trkpt lat="44.60465215518887" lon="10.125225259459375"><ele>394.75</ele><time>2026-04-04T10:04:03Z</time></trkpt><trkpt lat="44.60473093626177" lon="10.125333968857591"><ele>392.5</ele><time>2026-04-04T10:04:04Z</time></trkpt><trkpt lat="44.60489853076134" lon="10.12544220506058"><ele>390.25</ele><time>2026-04-04T10:04:04.999Z</time></trkpt><trkpt lat="44.60502444457981" lon="10.125546822282127"><ele>388.0</ele><time>2026-04-04T10:04:05.999Z</time></trkpt><trkpt lat="44.605152508832276" lon="10.125656492420934"><ele>387.5</ele><time>2026-04-04T10:04:06.999Z</time></trkpt><trkpt lat="44.605276444196484" lon="10.125770829012824"><ele>387.0</ele><time>2026-04-04T10:04:07.999Z</time></trkpt><trkpt lat="44.60539523812548" lon="10.125874009141471"><ele>386.5</ele><time>2026-04-04T10:04:08.999Z</time></trkpt><trkpt lat="44.60551670904388" lon="10.125984098473616"><ele>386.0</ele><time>2026-04-04T10:04:09.999Z</time></trkpt><trkpt lat="44.60563508662862" lon="10.12608805345151"><ele>386.0</ele><time>2026-04-04T10:04:10.999Z</time></trkpt><trkpt lat="44.6057520865636" lon="10.126198338822803"><ele>386.0</ele><time>2026-04-04T10:04:11.999Z</time></trkpt><trkpt lat="44.60586795499681" lon="10.12630654762691"><ele>386.0</ele><time>2026-04-04T10:04:12.999Z</time></trkpt><trkpt lat="44.605988862184454" lon="10.12641548542357"><ele>386.0</ele><time>2026-04-04T10:04:13.999Z</time></trkpt><trkpt lat="44.60612243233242" lon="10.126539453102712"><ele>386.3333333333333</ele><time>2026-04-04T10:04:14.999Z</time></trkpt><trkpt lat="44.606279621509586" lon="10.126691891812555"><ele>386.66666666666663</ele><time>2026-04-04T10:04:15.999Z</time></trkpt><trkpt lat="44.606402805051864" lon="10.126867058995321"><ele>387.0</ele><time>2026-04-04T10:04:16.999Z</time></trkpt><trkpt lat="44.60651608556957" lon="10.127042217648269"><ele>387.0</ele><time>2026-04-04T10:04:17.999Z</time></trkpt><trkpt lat="44.6065850702391" lon="10.12733529253168"><ele>387.0</ele><time>2026-04-04T10:04:18.999Z</time></trkpt><trkpt lat="44.6066512846493" lon="10.127603132968755"><ele>387.0</ele><time>2026-04-04T10:04:19.999Z</time></trkpt><trkpt lat="44.60672227631458" lon="10.127823995859414"><ele>387.0</ele><time>2026-04-04T10:04:20.999Z</time></trkpt><trkpt lat="44.60679285011141" lon="10.128021025973313"><ele>387.0</ele><time>2026-04-04T10:04:21.999Z</time></trkpt><trkpt lat="44.60690351172845" lon="10.128187551926795"><ele>387.0</ele><time>2026-04-04T10:04:22.999Z</time></trkpt><trkpt lat="44.60706603336361" lon="10.128298799401488"><ele>387.0</ele><time>2026-04-04T10:04:23.999Z</time></trkpt><trkpt lat="44.60726119031794" lon="10.128376165784887"><ele>387.0</ele><time>2026-04-04T10:04:24.999Z</time></trkpt><trkpt lat="44.60743861408487" lon="10.128462068622976"><ele>387.0</ele><time>2026-04-04T10:04:25.999Z</time></trkpt><trkpt lat="44.60757726330754" lon="10.128574933392137"><ele>387.0</ele><time>2026-04-04T10:04:26.999Z</time></trkpt><trkpt lat="44.60767607502198" lon="10.128742544341973"><ele>387.0</ele><time>2026-04-04T10:04:27.999Z</time></trkpt><trkpt lat="44.60775634375451" lon="10.128902853868906"><ele>387.0</ele><time>2026-04-04T10:04:28.999Z</time></trkpt><trkpt lat="44.60785366813584" lon="10.1290524404823"><ele>387.0</ele><time>2026-04-04T10:04:29.999Z</time></trkpt><trkpt lat="44.60793162801543" lon="10.129202827553504"><ele>388.66666666666663</ele><time>2026-04-04T10:04:30.999Z</time></trkpt><trkpt lat="44.60807811945017" lon="10.129304592024399"><ele>390.3333333333333</ele><time>2026-04-04T10:04:31.999Z</time></trkpt><trkpt lat="44.608278525334335" lon="10.129356090274413"><ele>392.0</ele><time>2026-04-04T10:04:32.999Z</time></trkpt><trkpt lat="44.60849987429936" lon="10.129364524365284"><ele>392.66666666666663</ele><time>2026-04-04T10:04:33.999Z</time></trkpt><trkpt lat="44.608714361589854" lon="10.129367089265447"><ele>393.33333333333337</ele><time>2026-04-04T10:04:34.999Z</time></trkpt><trkpt lat="44.608912752507365" lon="10.129331127027093"><ele>394.0</ele><time>2026-04-04T10:04:35.999Z</time></trkpt><trkpt lat="44.60910393759285" lon="10.12925289735034"><ele>394.0</ele><time>2026-04-04T10:04:36.999Z</time></trkpt><trkpt lat="44.609256744840735" lon="10.129207942788437"><ele>394.0</ele><time>2026-04-04T10:04:37.999Z</time></trkpt><trkpt lat="44.60940844286405" lon="10.129245668379088"><ele>394.0</ele><time>2026-04-04T10:04:38.999Z</time></trkpt><trkpt lat="44.60954869344085" lon="10.129353088996183"><ele>396.6666666666667</ele><time>2026-04-04T10:04:39.999Z</time></trkpt><trkpt lat="44.60965650728897" lon="10.129552564681955"><ele>399.33333333333337</ele><time>2026-04-04T10:04:40.999Z</time></trkpt><trkpt lat="44.609800655956896" lon="10.129769069231267"><ele>402.0</ele><time>2026-04-04T10:04:41.999Z</time></trkpt><trkpt lat="44.609945027180466" lon="10.130016493300506"><ele>402.0</ele><time>2026-04-04T10:04:42.999Z</time></trkpt><trkpt lat="44.61009754087824" lon="10.130261167397155"><ele>402.0</ele><time>2026-04-04T10:04:43.999Z</time></trkpt><trkpt lat="44.61024282400859" lon="10.130485364159712"><ele>402.0</ele><time>2026-04-04T10:04:44.999Z</time></trkpt><trkpt lat="44.61038235921223" lon="10.13068027812791"><ele>395.3333333333333</ele><time>2026-04-04T10:04:45.999Z</time></trkpt><trkpt lat="44.610501559459706" lon="10.130882570741512"><ele>388.66666666666663</ele><time>2026-04-04T10:04:46.999Z</time></trkpt><trkpt lat="44.610608634983" lon="10.131092044068795"><ele>382.0</ele><time>2026-04-04T10:04:47.999Z</time></trkpt><trkpt lat="44.610690683586185" lon="10.131301285987155"><ele>382.0</ele><time>2026-04-04T10:04:48.999Z</time></trkpt><trkpt lat="44.61073905696332" lon="10.131510406358027"><ele>382.0</ele><time>2026-04-04T10:04:49.999Z</time></trkpt><trkpt lat="44.610730443544426" lon="10.131742760283005"><ele>382.0</ele><time>2026-04-04T10:04:50.999Z</time></trkpt><trkpt lat="44.61071883550924" lon="10.132003396283901"><ele>386.66666666666663</ele><time>2026-04-04T10:04:51.999Z</time></trkpt><trkpt lat="44.610768409379205" lon="10.132261150371805"><ele>391.3333333333333</ele><time>2026-04-04T10:04:52.999Z</time></trkpt><trkpt lat="44.610820730467196" lon="10.132505918867004"><ele>396.0</ele><time>2026-04-04T10:04:53.999Z</time></trkpt><trkpt lat="44.61095315887849" lon="10.132738761280919"><ele>396.0</ele><time>2026-04-04T10:04:54.999Z</time></trkpt><trkpt lat="44.611083054747816" lon="10.132972021527415"><ele>396.0</ele><time>2026-04-04T10:04:55.999Z</time></trkpt><trkpt lat="44.611194299708664" lon="10.133230352185587"><ele>396.0</ele><time>2026-04-04T10:04:56.999Z</time></trkpt><trkpt lat="44.61130803009773" lon="10.133483688039592"><ele>394.66666666666663</ele><time>2026-04-04T10:04:57.999Z</time></trkpt><trkpt lat="44.61142734540437" lon="10.133720988453872"><ele>393.3333333333333</ele><time>2026-04-04T10:04:58.999Z</time></trkpt><trkpt lat="44.61155286115127" lon="10.133943947360152"><ele>392.0</ele><time>2026-04-04T10:04:59.999Z</time></trkpt><trkpt lat="44.611667673308105" lon="10.134146361320429"><ele>392.0</ele><time>2026-04-04T10:05:00.999Z</time></trkpt><trkpt lat="44.61177925582047" lon="10.134332596524349"><ele>392.0</ele><time>2026-04-04T10:05:01.999Z</time></trkpt><trkpt lat="44.61192268806289" lon="10.134476211100997"><ele>392.0</ele><time>2026-04-04T10:05:02.999Z</time></trkpt><trkpt lat="44.61210223743146" lon="10.13458789170177"><ele>393.3333333333333</ele><time>2026-04-04T10:05:03.999Z</time></trkpt><trkpt lat="44.61230560569677" lon="10.134709275706898"><ele>394.66666666666663</ele><time>2026-04-04T10:05:04.999Z</time></trkpt><trkpt lat="44.61250120008803" lon="10.134853114122821"><ele>396.0</ele><time>2026-04-04T10:05:06Z</time></trkpt><trkpt lat="44.61269684425593" lon="10.134993645071802"><ele>388.6666666666667</ele><time>2026-04-04T10:05:07Z</time></trkpt><trkpt lat="44.612865593789174" lon="10.135107443247598"><ele>381.33333333333337</ele><time>2026-04-04T10:05:08Z</time></trkpt><trkpt lat="44.613016159619235" lon="10.13522998503801"><ele>374.0</ele><time>2026-04-04T10:05:09Z</time></trkpt><trkpt lat="44.613124468603594" lon="10.135431824435019"><ele>374.0</ele><time>2026-04-04T10:05:10Z</time></trkpt><trkpt lat="44.61325051049365" lon="10.135682315246639"><ele>374.0</ele><time>2026-04-04T10:05:11Z</time></trkpt><trkpt lat="44.61335557749863" lon="10.135973887596641"><ele>383.5</ele><time>2026-04-04T10:05:12Z</time></trkpt><trkpt lat="44.61348116692205" lon="10.136242824437707"><ele>393.0</ele><time>2026-04-04T10:05:13Z</time></trkpt><trkpt lat="44.61363097968359" lon="10.13650101136877"><ele>382.5</ele><time>2026-04-04T10:05:14Z</time></trkpt><trkpt lat="44.6137460540558" lon="10.136690402582497"><ele>372.0</ele><time>2026-04-04T10:05:15Z</time></trkpt><trkpt lat="44.61394752719922" lon="10.13701996871263"><ele>372.0</ele><time>2026-04-04T10:05:16Z</time></trkpt><trkpt lat="44.61409173229287" lon="10.137273406089578"><ele>372.0</ele><time>2026-04-04T10:05:17Z</time></trkpt><trkpt lat="44.61419607193631" lon="10.137539841009236"><ele>372.0</ele><time>2026-04-04T10:05:18Z</time></trkpt><trkpt lat="44.614298858902686" lon="10.137825394134907"><ele>371.0</ele><time>2026-04-04T10:05:19Z</time></trkpt><trkpt lat="44.61440948966863" lon="10.138127301786069"><ele>370.0</ele><time>2026-04-04T10:05:20Z</time></trkpt><trkpt lat="44.61453647946545" lon="10.138411855851363"><ele>370.0</ele><time>2026-04-04T10:05:21Z</time></trkpt><trkpt lat="44.61465718579506" lon="10.138692072280577"><ele>370.0</ele><time>2026-04-04T10:05:22Z</time></trkpt><trkpt lat="44.61477234967222" lon="10.138937887987703"><ele>370.0</ele><time>2026-04-04T10:05:23Z</time></trkpt><trkpt lat="44.61488829348232" lon="10.139179921792422"><ele>375.0</ele><time>2026-04-04T10:05:24Z</time></trkpt><trkpt lat="44.61500600857795" lon="10.139434397583827"><ele>380.0</ele><time>2026-04-04T10:05:25Z</time></trkpt><trkpt lat="44.61512113613353" lon="10.139681054760585"><ele>385.0</ele><time>2026-04-04T10:05:26Z</time></trkpt><trkpt lat="44.61519493435903" lon="10.139924182247654"><ele>390.6666666666667</ele><time>2026-04-04T10:05:27Z</time></trkpt><trkpt lat="44.61527272013114" lon="10.140164371973109"><ele>396.33333333333337</ele><time>2026-04-04T10:05:28Z</time></trkpt><trkpt lat="44.61534929310636" lon="10.14040316111428"><ele>402.0</ele><time>2026-04-04T10:05:29Z</time></trkpt><trkpt lat="44.615428042844904" lon="10.140648599137604"><ele>392.0</ele><time>2026-04-04T10:05:30Z</time></trkpt><trkpt lat="44.61551858998992" lon="10.140874227964103"><ele>382.0</ele><time>2026-04-04T10:05:31Z</time></trkpt><trkpt lat="44.615571443717535" lon="10.141098780650022"><ele>372.0</ele><time>2026-04-04T10:05:32Z</time></trkpt><trkpt lat="44.615635791589966" lon="10.141311064749098"><ele>372.0</ele><time>2026-04-04T10:05:33Z</time></trkpt><trkpt lat="44.615684485984694" lon="10.141532880133298"><ele>372.0</ele><time>2026-04-04T10:05:34Z</time></trkpt><trkpt lat="44.61568935295818" lon="10.141744210734366"><ele>372.0</ele><time>2026-04-04T10:05:35Z</time></trkpt><trkpt lat="44.615679821357254" lon="10.141994438180475"><ele>375.0</ele><time>2026-04-04T10:05:36Z</time></trkpt><trkpt lat="44.61566747471672" lon="10.142269206964459"><ele>378.0</ele><time>2026-04-04T10:05:37Z</time></trkpt><trkpt lat="44.61566208266506" lon="10.142547452262724"><ele>381.0</ele><time>2026-04-04T10:05:38Z</time></trkpt><trkpt lat="44.6156870255144" lon="10.142796264810514"><ele>381.0</ele><time>2026-04-04T10:05:39Z</time></trkpt><trkpt lat="44.61571876447031" lon="10.143035668335726"><ele>381.0</ele><time>2026-04-04T10:05:40Z</time></trkpt><trkpt lat="44.61581896117967" lon="10.143265298983735"><ele>381.0</ele><time>2026-04-04T10:05:41Z</time></trkpt><trkpt lat="44.61597765550558" lon="10.143471940733772"><ele>383.0</ele><time>2026-04-04T10:05:42Z</time></trkpt><trkpt lat="44.61612395139659" lon="10.143672215677586"><ele>385.0</ele><time>2026-04-04T10:05:43Z</time></trkpt><trkpt lat="44.616224990503994" lon="10.143855011827876"><ele>387.0</ele><time>2026-04-04T10:05:44Z</time></trkpt><trkpt lat="44.61622611387013" lon="10.14407560100168"><ele>391.66666666666663</ele><time>2026-04-04T10:05:45Z</time></trkpt><trkpt lat="44.61621015514701" lon="10.144363591319015"><ele>396.3333333333333</ele><time>2026-04-04T10:05:46Z</time></trkpt><trkpt lat="44.61618363632626" lon="10.144697239509012"><ele>401.0</ele><time>2026-04-04T10:05:47Z</time></trkpt><trkpt lat="44.61615183661397" lon="10.145034865554196"><ele>401.0</ele><time>2026-04-04T10:05:48Z</time></trkpt><trkpt lat="44.616117318495675" lon="10.145361505158473"><ele>401.0</ele><time>2026-04-04T10:05:49Z</time></trkpt><trkpt lat="44.61607724331468" lon="10.145670789892623"><ele>400.5</ele><time>2026-04-04T10:05:50Z</time></trkpt><trkpt lat="44.61603875906205" lon="10.145988753013889"><ele>400.0</ele><time>2026-04-04T10:05:51Z</time></trkpt><trkpt lat="44.61602439376029" lon="10.146310778870218"><ele>400.0</ele><time>2026-04-04T10:05:52Z</time></trkpt><trkpt lat="44.61600245868986" lon="10.146538675446488"><ele>400.0</ele><time>2026-04-04T10:05:53Z</time></trkpt><trkpt lat="44.61598761781727" lon="10.146976204471855"><ele>398.0</ele><time>2026-04-04T10:05:54Z</time></trkpt><trkpt lat="44.61600675653369" lon="10.147292616698408"><ele>396.0</ele><time>2026-04-04T10:05:55Z</time></trkpt><trkpt lat="44.61601901235948" lon="10.147574090773242"><ele>394.0</ele><time>2026-04-04T10:05:56Z</time></trkpt><trkpt lat="44.61605330368545" lon="10.147829436329124"><ele>393.0</ele><time>2026-04-04T10:05:57Z</time></trkpt><trkpt lat="44.61601090389889" lon="10.148055773338424"><ele>392.0</ele><time>2026-04-04T10:05:58Z</time></trkpt><trkpt lat="44.615941183928584" lon="10.14828207590992"><ele>391.0</ele><time>2026-04-04T10:05:59Z</time></trkpt><trkpt lat="44.61583760049783" lon="10.14851817337114"><ele>388.6666666666667</ele><time>2026-04-04T10:06:00Z</time></trkpt><trkpt lat="44.615707422970075" lon="10.148765889328999"><ele>386.33333333333337</ele><time>2026-04-04T10:06:01Z</time></trkpt><trkpt lat="44.615593905846914" lon="10.149026234025104"><ele>384.0</ele><time>2026-04-04T10:06:02Z</time></trkpt><trkpt lat="44.61553376399413" lon="10.149284057829652"><ele>378.0</ele><time>2026-04-04T10:06:03Z</time></trkpt><trkpt lat="44.61542860612708" lon="10.149571283698622"><ele>372.0</ele><time>2026-04-04T10:06:04Z</time></trkpt><trkpt lat="44.61546270918944" lon="10.149912270099646"><ele>369.6666666666667</ele><time>2026-04-04T10:06:05Z</time></trkpt><trkpt lat="44.6154449565647" lon="10.150217447166575"><ele>367.33333333333337</ele><time>2026-04-04T10:06:06Z</time></trkpt><trkpt lat="44.61543523074267" lon="10.150497743213041"><ele>365.0</ele><time>2026-04-04T10:06:07Z</time></trkpt><trkpt lat="44.615445283440735" lon="10.15074838902292"><ele>363.6666666666667</ele><time>2026-04-04T10:06:08Z</time></trkpt><trkpt lat="44.615504013674645" lon="10.150997795103454"><ele>362.3333333333333</ele><time>2026-04-04T10:06:09Z</time></trkpt><trkpt lat="44.615613204266886" lon="10.151254424384016"><ele>361.0</ele><time>2026-04-04T10:06:10Z</time></trkpt><trkpt lat="44.61570374808656" lon="10.151495292920039"><ele>361.66666666666663</ele><time>2026-04-04T10:06:11Z</time></trkpt><trkpt lat="44.615729498499434" lon="10.15177270016978"><ele>362.3333333333333</ele><time>2026-04-04T10:06:12Z</time></trkpt><trkpt lat="44.615707080822844" lon="10.152077570367396"><ele>363.0</ele><time>2026-04-04T10:06:12.999Z</time></trkpt><trkpt lat="44.61565482556871" lon="10.152385390168659"><ele>363.0</ele><time>2026-04-04T10:06:13.999Z</time></trkpt><trkpt lat="44.6156185939237" lon="10.152671280932772"><ele>363.0</ele><time>2026-04-04T10:06:14.999Z</time></trkpt><trkpt lat="44.61561192281859" lon="10.15296676272266"><ele>363.0</ele><time>2026-04-04T10:06:15.999Z</time></trkpt><trkpt lat="44.615638823440676" lon="10.1533148764929"><ele>363.3333333333333</ele><time>2026-04-04T10:06:16.999Z</time></trkpt><trkpt lat="44.61566049642362" lon="10.153633133926775"><ele>363.66666666666663</ele><time>2026-04-04T10:06:17.999Z</time></trkpt><trkpt lat="44.615666156035076" lon="10.15393705808677"><ele>364.0</ele><time>2026-04-04T10:06:18.999Z</time></trkpt><trkpt lat="44.61568651902177" lon="10.15442491494433"><ele>364.66666666666663</ele><time>2026-04-04T10:06:19.999Z</time></trkpt><trkpt lat="44.6156942745944" lon="10.154736508228874"><ele>365.3333333333333</ele><time>2026-04-04T10:06:20.999Z</time></trkpt><trkpt lat="44.615716906631846" lon="10.15498464299128"><ele>366.0</ele><time>2026-04-04T10:06:21.999Z</time></trkpt><trkpt lat="44.61576310997254" lon="10.15520987509882"><ele>363.6666666666667</ele><time>2026-04-04T10:06:22.999Z</time></trkpt><trkpt lat="44.61587102131493" lon="10.155446973029358"><ele>361.33333333333337</ele><time>2026-04-04T10:06:23.999Z</time></trkpt><trkpt lat="44.61601551015471" lon="10.15568304063656"><ele>359.0</ele><time>2026-04-04T10:06:24.999Z</time></trkpt><trkpt lat="44.61618705465778" lon="10.155860736351263"><ele>358.5</ele><time>2026-04-04T10:06:25.999Z</time></trkpt><trkpt lat="44.61637117019573" lon="10.15606794096819"><ele>358.0</ele><time>2026-04-04T10:06:26.999Z</time></trkpt><trkpt lat="44.61656808135433" lon="10.156241413397645"><ele>358.0</ele><time>2026-04-04T10:06:27.999Z</time></trkpt><trkpt lat="44.61677318358337" lon="10.156376349203079"><ele>358.0</ele><time>2026-04-04T10:06:28.999Z</time></trkpt><trkpt lat="44.616964157385375" lon="10.156475251983423"><ele>358.0</ele><time>2026-04-04T10:06:29.999Z</time></trkpt><trkpt lat="44.61713013929865" lon="10.156586225184082"><ele>356.0</ele><time>2026-04-04T10:06:30.999Z</time></trkpt><trkpt lat="44.61728840315688" lon="10.156770825046646"><ele>354.0</ele><time>2026-04-04T10:06:31.999Z</time></trkpt><trkpt lat="44.61745347849157" lon="10.157009086718146"><ele>352.0</ele><time>2026-04-04T10:06:32.999Z</time></trkpt><trkpt lat="44.61761222341344" lon="10.157232057877689"><ele>349.3333333333333</ele><time>2026-04-04T10:06:33.999Z</time></trkpt><trkpt lat="44.61775272123697" lon="10.157418910659704"><ele>346.6666666666667</ele><time>2026-04-04T10:06:34.999Z</time></trkpt><trkpt lat="44.617853462083325" lon="10.157642069714095"><ele>344.0</ele><time>2026-04-04T10:06:35.999Z</time></trkpt><trkpt lat="44.61796639381524" lon="10.157770792137667"><ele>344.0</ele><time>2026-04-04T10:06:36.999Z</time></trkpt><trkpt lat="44.61801451929331" lon="10.158006513292044"><ele>344.0</ele><time>2026-04-04T10:06:37.999Z</time></trkpt><trkpt lat="44.61805541686681" lon="10.15826236020274"><ele>344.0</ele><time>2026-04-04T10:06:38.999Z</time></trkpt><trkpt lat="44.61806652902954" lon="10.158501179721963"><ele>345.33333333333337</ele><time>2026-04-04T10:06:39.999Z</time></trkpt><trkpt lat="44.6180300356105" lon="10.158722629565201"><ele>346.6666666666667</ele><time>2026-04-04T10:06:40.999Z</time></trkpt><trkpt lat="44.61797695686505" lon="10.158972981287253"><ele>348.0</ele><time>2026-04-04T10:06:41.999Z</time></trkpt><trkpt lat="44.61791609294489" lon="10.15926379618014"><ele>348.0</ele><time>2026-04-04T10:06:42.999Z</time></trkpt><trkpt lat="44.617863008985985" lon="10.15953775533088"><ele>348.0</ele><time>2026-04-04T10:06:43.999Z</time></trkpt><trkpt lat="44.61784349954735" lon="10.159779382544016"><ele>348.0</ele><time>2026-04-04T10:06:44.999Z</time></trkpt><trkpt lat="44.61785094367333" lon="10.159983222031194"><ele>349.3333333333333</ele><time>2026-04-04T10:06:45.999Z</time></trkpt><trkpt lat="44.6178959573839" lon="10.160179146539347"><ele>350.66666666666663</ele><time>2026-04-04T10:06:46.999Z</time></trkpt><trkpt lat="44.618023984102486" lon="10.160312512585945"><ele>352.0</ele><time>2026-04-04T10:06:47.999Z</time></trkpt><trkpt lat="44.6181754085367" lon="10.160393407984232"><ele>352.0</ele><time>2026-04-04T10:06:48.999Z</time></trkpt><trkpt lat="44.618351936632784" lon="10.160467970069734"><ele>352.0</ele><time>2026-04-04T10:06:49.999Z</time></trkpt><trkpt lat="44.61851919776751" lon="10.16054646627488"><ele>352.0</ele><time>2026-04-04T10:06:50.999Z</time></trkpt><trkpt lat="44.61864064647018" lon="10.160724484656095"><ele>350.0</ele><time>2026-04-04T10:06:51.999Z</time></trkpt><trkpt lat="44.61868937869912" lon="10.160998046695068"><ele>348.0</ele><time>2026-04-04T10:06:52.999Z</time></trkpt><trkpt lat="44.61873576004881" lon="10.161305172711797"><ele>346.0</ele><time>2026-04-04T10:06:53.999Z</time></trkpt><trkpt lat="44.618790641537686" lon="10.161621609023811"><ele>346.0</ele><time>2026-04-04T10:06:54.999Z</time></trkpt><trkpt lat="44.61885660695872" lon="10.161918098663094"><ele>346.0</ele><time>2026-04-04T10:06:55.999Z</time></trkpt><trkpt lat="44.6189267984782" lon="10.162168639804475"><ele>346.0</ele><time>2026-04-04T10:06:56.999Z</time></trkpt><trkpt lat="44.618979370074086" lon="10.162407315633695"><ele>347.66666666666663</ele><time>2026-04-04T10:06:57.999Z</time></trkpt><trkpt lat="44.618992752911026" lon="10.16263756717202"><ele>349.3333333333333</ele><time>2026-04-04T10:06:58.999Z</time></trkpt><trkpt lat="44.61895925886248" lon="10.16287883791707"><ele>351.0</ele><time>2026-04-04T10:06:59.999Z</time></trkpt><trkpt lat="44.61889678491625" lon="10.163147248978609"><ele>351.0</ele><time>2026-04-04T10:07:00.999Z</time></trkpt><trkpt lat="44.618852583262175" lon="10.16344842194193"><ele>351.0</ele><time>2026-04-04T10:07:01.999Z</time></trkpt><trkpt lat="44.61881571042989" lon="10.163779781182063"><ele>351.3333333333333</ele><time>2026-04-04T10:07:02.999Z</time></trkpt><trkpt lat="44.6188072823892" lon="10.164084886066814"><ele>351.66666666666663</ele><time>2026-04-04T10:07:03.999Z</time></trkpt><trkpt lat="44.61879592353929" lon="10.164362054524862"><ele>352.0</ele><time>2026-04-04T10:07:04.999Z</time></trkpt><trkpt lat="44.6187952351069" lon="10.164608763277661"><ele>352.0</ele><time>2026-04-04T10:07:05.999Z</time></trkpt><trkpt lat="44.61882135642389" lon="10.164841927419248"><ele>352.0</ele><time>2026-04-04T10:07:06.999Z</time></trkpt><trkpt lat="44.61890711825865" lon="10.165070063459883"><ele>352.0</ele><time>2026-04-04T10:07:07.999Z</time></trkpt><trkpt lat="44.61904265624351" lon="10.165269462802842"><ele>355.0</ele><time>2026-04-04T10:07:08.999Z</time></trkpt><trkpt lat="44.61925636414974" lon="10.165395056192018"><ele>358.0</ele><time>2026-04-04T10:07:09.999Z</time></trkpt><trkpt lat="44.619476380656614" lon="10.165515378340377"><ele>356.5</ele><time>2026-04-04T10:07:10.999Z</time></trkpt><trkpt lat="44.61968051190027" lon="10.16566495816205"><ele>355.0</ele><time>2026-04-04T10:07:12Z</time></trkpt><trkpt lat="44.61987778859895" lon="10.165827335543863"><ele>355.0</ele><time>2026-04-04T10:07:13Z</time></trkpt><trkpt lat="44.62007302071386" lon="10.165976494062848"><ele>355.0</ele><time>2026-04-04T10:07:14Z</time></trkpt><trkpt lat="44.62026510805972" lon="10.166130092527409"><ele>355.0</ele><time>2026-04-04T10:07:15Z</time></trkpt><trkpt lat="44.62045073356242" lon="10.166276757635206"><ele>354.66666666666663</ele><time>2026-04-04T10:07:16Z</time></trkpt><trkpt lat="44.6206315937017" lon="10.166412472242891"><ele>354.3333333333333</ele><time>2026-04-04T10:07:17Z</time></trkpt><trkpt lat="44.62080177988652" lon="10.16655513995073"><ele>354.0</ele><time>2026-04-04T10:07:18Z</time></trkpt><trkpt lat="44.62097957485856" lon="10.166685439127725"><ele>354.6666666666667</ele><time>2026-04-04T10:07:19Z</time></trkpt><trkpt lat="44.6211421045273" lon="10.166818572051422"><ele>355.33333333333337</ele><time>2026-04-04T10:07:20Z</time></trkpt><trkpt lat="44.62129559611045" lon="10.16694375432946"><ele>356.0</ele><time>2026-04-04T10:07:21Z</time></trkpt><trkpt lat="44.62146006460202" lon="10.167041970580826"><ele>354.33333333333337</ele><time>2026-04-04T10:07:22Z</time></trkpt><trkpt lat="44.62165479141684" lon="10.167097557361323"><ele>352.6666666666667</ele><time>2026-04-04T10:07:23Z</time></trkpt><trkpt lat="44.62186552393922" lon="10.16711658178546"><ele>351.0</ele><time>2026-04-04T10:07:24Z</time></trkpt><trkpt lat="44.62206930189483" lon="10.167121828270702"><ele>349.0</ele><time>2026-04-04T10:07:25Z</time></trkpt><trkpt lat="44.62225210622383" lon="10.167117212585062"><ele>347.0</ele><time>2026-04-04T10:07:26Z</time></trkpt><trkpt lat="44.622438124982246" lon="10.167122674801243"><ele>345.0</ele><time>2026-04-04T10:07:27Z</time></trkpt><trkpt lat="44.62264186237483" lon="10.167154354426046"><ele>341.0</ele><time>2026-04-04T10:07:28Z</time></trkpt><trkpt lat="44.62287678115161" lon="10.167231052375012"><ele>337.0</ele><time>2026-04-04T10:07:29Z</time></trkpt><trkpt lat="44.62310389679995" lon="10.167294695349373"><ele>337.0</ele><time>2026-04-04T10:07:30Z</time></trkpt><trkpt lat="44.62330556901839" lon="10.167339833169033"><ele>337.0</ele><time>2026-04-04T10:07:31Z</time></trkpt><trkpt lat="44.62348690928341" lon="10.167361074030145"><ele>337.0</ele><time>2026-04-04T10:07:32Z</time></trkpt><trkpt lat="44.62365709999531" lon="10.167318745457289"><ele>337.0</ele><time>2026-04-04T10:07:33Z</time></trkpt><trkpt lat="44.62381071499227" lon="10.167206073512865"><ele>337.0</ele><time>2026-04-04T10:07:34Z</time></trkpt><trkpt lat="44.62399382816034" lon="10.167087828010796"><ele>337.0</ele><time>2026-04-04T10:07:35Z</time></trkpt><trkpt lat="44.6241460750053" lon="10.167033216551395"><ele>337.0</ele><time>2026-04-04T10:07:36Z</time></trkpt><trkpt lat="44.62431448470259" lon="10.167073390574066"><ele>337.0</ele><time>2026-04-04T10:07:37Z</time></trkpt><trkpt lat="44.624504723730446" lon="10.16717886090992"><ele>337.0</ele><time>2026-04-04T10:07:38Z</time></trkpt><trkpt lat="44.62471691423139" lon="10.167301042466148"><ele>338.3333333333333</ele><time>2026-04-04T10:07:39Z</time></trkpt><trkpt lat="44.62489187028494" lon="10.16741354742167"><ele>339.6666666666667</ele><time>2026-04-04T10:07:40Z</time></trkpt><trkpt lat="44.62505664217312" lon="10.1675104179704"><ele>341.0</ele><time>2026-04-04T10:07:41Z</time></trkpt><trkpt lat="44.62521405843702" lon="10.167594363059393"><ele>339.33333333333337</ele><time>2026-04-04T10:07:42Z</time></trkpt><trkpt lat="44.62535747264061" lon="10.167691138911016"><ele>337.6666666666667</ele><time>2026-04-04T10:07:43Z</time></trkpt><trkpt lat="44.6255573082888" lon="10.167789092363062"><ele>336.0</ele><time>2026-04-04T10:07:44Z</time></trkpt><trkpt lat="44.62573962551806" lon="10.16788747825768"><ele>336.0</ele><time>2026-04-04T10:07:45Z</time></trkpt><trkpt lat="44.62592412905275" lon="10.167990509209291"><ele>336.0</ele><time>2026-04-04T10:07:46Z</time></trkpt><trkpt lat="44.626100694067034" lon="10.16809070264416"><ele>336.0</ele><time>2026-04-04T10:07:47Z</time></trkpt><trkpt lat="44.62627365932564" lon="10.168188682275435"><ele>335.0</ele><time>2026-04-04T10:07:48Z</time></trkpt><trkpt lat="44.62643855391523" lon="10.168287637516585"><ele>334.0</ele><time>2026-04-04T10:07:49Z</time></trkpt><trkpt lat="44.62661055904156" lon="10.16837864550123"><ele>333.0</ele><time>2026-04-04T10:07:50Z</time></trkpt><trkpt lat="44.626773290837164" lon="10.168465843580659"><ele>333.0</ele><time>2026-04-04T10:07:51Z</time></trkpt><trkpt lat="44.62693330282858" lon="10.168561530555547"><ele>333.0</ele><time>2026-04-04T10:07:52Z</time></trkpt><trkpt lat="44.62708076812693" lon="10.168669065348201"><ele>333.0</ele><time>2026-04-04T10:07:53Z</time></trkpt><trkpt lat="44.627197323266216" lon="10.168777803398754"><ele>332.5</ele><time>2026-04-04T10:07:54Z</time></trkpt><trkpt lat="44.627275902726396" lon="10.168865912328483"><ele>332.0</ele><time>2026-04-04T10:07:55Z</time></trkpt><trkpt lat="44.6273671115917" lon="10.169000009914257"><ele>331.5</ele><time>2026-04-04T10:07:56Z</time></trkpt><trkpt lat="44.627465881489115" lon="10.169119814457733"><ele>331.0</ele><time>2026-04-04T10:07:57Z</time></trkpt><trkpt lat="44.62758890389802" lon="10.169221098752809"><ele>331.0</ele><time>2026-04-04T10:07:58Z</time></trkpt><trkpt lat="44.62766635354804" lon="10.169323817881223"><ele>331.0</ele><time>2026-04-04T10:07:59Z</time></trkpt><trkpt lat="44.62776964010438" lon="10.169439676612278"><ele>331.0</ele><time>2026-04-04T10:08:00Z</time></trkpt><trkpt lat="44.627859107536686" lon="10.169552210565788"><ele>331.0</ele><time>2026-04-04T10:08:01Z</time></trkpt><trkpt lat="44.627970831898324" lon="10.169705097006569"><ele>329.5</ele><time>2026-04-04T10:08:02Z</time></trkpt><trkpt lat="44.62806345963337" lon="10.169854782841183"><ele>328.0</ele><time>2026-04-04T10:08:03Z</time></trkpt><trkpt lat="44.6281531304472" lon="10.170021155520148"><ele>326.5</ele><time>2026-04-04T10:08:04Z</time></trkpt><trkpt lat="44.62824224066961" lon="10.170195525743479"><ele>325.0</ele><time>2026-04-04T10:08:05Z</time></trkpt><trkpt lat="44.628326653424025" lon="10.170364619729158"><ele>325.0</ele><time>2026-04-04T10:08:06Z</time></trkpt><trkpt lat="44.62841645159405" lon="10.170537417980102"><ele>325.0</ele><time>2026-04-04T10:08:07Z</time></trkpt><trkpt lat="44.62850801687037" lon="10.170706057411062"><ele>325.0</ele><time>2026-04-04T10:08:08Z</time></trkpt><trkpt lat="44.62860494662831" lon="10.170866669413078"><ele>324.0</ele><time>2026-04-04T10:08:09Z</time></trkpt><trkpt lat="44.62872182256922" lon="10.17100862736196"><ele>323.0</ele><time>2026-04-04T10:08:10Z</time></trkpt><trkpt lat="44.628876800505985" lon="10.171126862519575"><ele>322.0</ele><time>2026-04-04T10:08:11Z</time></trkpt><trkpt lat="44.629043818444195" lon="10.171206597420852"><ele>322.0</ele><time>2026-04-04T10:08:12Z</time></trkpt><trkpt lat="44.629235781446376" lon="10.171244443986923"><ele>322.0</ele><time>2026-04-04T10:08:13Z</time></trkpt><trkpt lat="44.629424965803466" lon="10.171270048867525"><ele>322.0</ele><time>2026-04-04T10:08:14Z</time></trkpt><trkpt lat="44.62958550379428" lon="10.171301624994447"><ele>320.66666666666663</ele><time>2026-04-04T10:08:15Z</time></trkpt><trkpt lat="44.62972102529783" lon="10.1713200339931"><ele>319.3333333333333</ele><time>2026-04-04T10:08:16Z</time></trkpt><trkpt lat="44.6298753753355" lon="10.171366033531658"><ele>318.0</ele><time>2026-04-04T10:08:16.999Z</time></trkpt><trkpt lat="44.630030684220515" lon="10.171405440847867"><ele>318.0</ele><time>2026-04-04T10:08:17.999Z</time></trkpt><trkpt lat="44.63018522951564" lon="10.171441955983317"><ele>318.0</ele><time>2026-04-04T10:08:18.999Z</time></trkpt><trkpt lat="44.630333772838746" lon="10.17147183675255"><ele>318.0</ele><time>2026-04-04T10:08:19.999Z</time></trkpt><trkpt lat="44.630469915719665" lon="10.1715402857231"><ele>318.0</ele><time>2026-04-04T10:08:20.999Z</time></trkpt><trkpt lat="44.630601947508296" lon="10.171682092804465"><ele>318.0</ele><time>2026-04-04T10:08:21.999Z</time></trkpt><trkpt lat="44.63072361579609" lon="10.171880813255418"><ele>318.0</ele><time>2026-04-04T10:08:22.999Z</time></trkpt><trkpt lat="44.63082261411939" lon="10.172058550131931"><ele>318.0</ele><time>2026-04-04T10:08:23.999Z</time></trkpt><trkpt lat="44.63092093358944" lon="10.172212053022795"><ele>318.0</ele><time>2026-04-04T10:08:24.999Z</time></trkpt><trkpt lat="44.63103395477326" lon="10.172305992720046"><ele>318.0</ele><time>2026-04-04T10:08:25.999Z</time></trkpt><trkpt lat="44.631194014395646" lon="10.172350742664111"><ele>318.0</ele><time>2026-04-04T10:08:26.999Z</time></trkpt><trkpt lat="44.63139994428998" lon="10.17230998791114"><ele>316.0</ele><time>2026-04-04T10:08:27.999Z</time></trkpt><trkpt lat="44.631607266571194" lon="10.172279041943696"><ele>314.0</ele><time>2026-04-04T10:08:28.999Z</time></trkpt><trkpt lat="44.63178712149089" lon="10.172247793840983"><ele>312.0</ele><time>2026-04-04T10:08:29.999Z</time></trkpt><trkpt lat="44.631952844990565" lon="10.17222221141238"><ele>312.0</ele><time>2026-04-04T10:08:30.999Z</time></trkpt><trkpt lat="44.632111726293715" lon="10.172183148522732"><ele>312.0</ele><time>2026-04-04T10:08:31.999Z</time></trkpt><trkpt lat="44.63228720839827" lon="10.17208862507913"><ele>312.0</ele><time>2026-04-04T10:08:32.999Z</time></trkpt><trkpt lat="44.63245737511149" lon="10.171937480645767"><ele>312.0</ele><time>2026-04-04T10:08:33.999Z</time></trkpt><trkpt lat="44.632612072579526" lon="10.17177432867739"><ele>312.0</ele><time>2026-04-04T10:08:34.999Z</time></trkpt><trkpt lat="44.6327211890752" lon="10.171665433630096"><ele>312.0</ele><time>2026-04-04T10:08:35.999Z</time></trkpt><trkpt lat="44.63290183842976" lon="10.171596686743646"><ele>312.3333333333333</ele><time>2026-04-04T10:08:36.999Z</time></trkpt><trkpt lat="44.63307478114447" lon="10.17156932614498"><ele>312.66666666666663</ele><time>2026-04-04T10:08:37.999Z</time></trkpt><trkpt lat="44.63329205092012" lon="10.171643739199313"><ele>313.0</ele><time>2026-04-04T10:08:38.999Z</time></trkpt><trkpt lat="44.63346257498273" lon="10.171751372819543"><ele>313.0</ele><time>2026-04-04T10:08:39.999Z</time></trkpt><trkpt lat="44.63361811565085" lon="10.171835311244244"><ele>313.0</ele><time>2026-04-04T10:08:40.999Z</time></trkpt><trkpt lat="44.63380464197448" lon="10.171946775506383"><ele>313.0</ele><time>2026-04-04T10:08:41.999Z</time></trkpt><trkpt lat="44.634014745925555" lon="10.172019624358798"><ele>311.25</ele><time>2026-04-04T10:08:42.999Z</time></trkpt><trkpt lat="44.63419524521382" lon="10.172058122633093"><ele>309.5</ele><time>2026-04-04T10:08:43.999Z</time></trkpt><trkpt lat="44.634331940692" lon="10.172100858442423"><ele>307.75</ele><time>2026-04-04T10:08:44.999Z</time></trkpt><trkpt lat="44.63444037185007" lon="10.172138297401998"><ele>306.0</ele><time>2026-04-04T10:08:45.999Z</time></trkpt><trkpt lat="44.634533029100936" lon="10.172170548034522"><ele>305.5</ele><time>2026-04-04T10:08:46.999Z</time></trkpt><trkpt lat="44.63460761038167" lon="10.172202172977272"><ele>305.0</ele><time>2026-04-04T10:08:47.999Z</time></trkpt><trkpt lat="44.6347015436307" lon="10.172260795473532"><ele>304.5</ele><time>2026-04-04T10:08:49.999Z</time></trkpt><trkpt lat="44.634776556779975" lon="10.172017862797064"><ele>304.0</ele><time>2026-04-04T10:08:52.999Z</time></trkpt><trkpt lat="44.63478367855105" lon="10.171885138741272"><ele>304.0</ele><time>2026-04-04T10:08:53.999Z</time></trkpt><trkpt lat="44.63479381359038" lon="10.171744780446662"><ele>304.0</ele><time>2026-04-04T10:08:54.999Z</time></trkpt><trkpt lat="44.63480852913126" lon="10.17162685049329"><ele>304.0</ele><time>2026-04-04T10:08:55.999Z</time></trkpt><trkpt lat="44.63481987098824" lon="10.171525500532615"><ele>304.0</ele><time>2026-04-04T10:08:56.999Z</time></trkpt><trkpt lat="44.634826488602314" lon="10.171431863457755"><ele>304.0</ele><time>2026-04-04T10:08:57.999Z</time></trkpt><trkpt lat="44.63483249147754" lon="10.171341386584935"><ele>304.0</ele><time>2026-04-04T10:08:58.999Z</time></trkpt><trkpt lat="44.634841389115614" lon="10.171240021968782"><ele>304.16666666666663</ele><time>2026-04-04T10:08:59.999Z</time></trkpt><trkpt lat="44.634851389105954" lon="10.171123504807849"><ele>304.3333333333333</ele><time>2026-04-04T10:09:00.999Z</time></trkpt><trkpt lat="44.634862362515165" lon="10.17101388586747"><ele>304.5</ele><time>2026-04-04T10:09:01.999Z</time></trkpt><trkpt lat="44.63487352675288" lon="10.170903020669742"><ele>304.6666666666667</ele><time>2026-04-04T10:09:02.999Z</time></trkpt><trkpt lat="44.63488457455482" lon="10.170800331996086"><ele>304.83333333333337</ele><time>2026-04-04T10:09:03.999Z</time></trkpt><trkpt lat="44.63489512911824" lon="10.170683731495748"><ele>305.0</ele><time>2026-04-04T10:09:04.999Z</time></trkpt><trkpt lat="44.63491956731045" lon="10.170554643930934"><ele>305.33333333333337</ele><time>2026-04-04T10:09:05.999Z</time></trkpt><trkpt lat="44.634924707668944" lon="10.170428093934612"><ele>305.6666666666667</ele><time>2026-04-04T10:09:06.999Z</time></trkpt><trkpt lat="44.63494702039042" lon="10.170304283394145"><ele>306.0</ele><time>2026-04-04T10:09:07.999Z</time></trkpt><trkpt lat="44.63497611401785" lon="10.170188396038585"><ele>306.3333333333333</ele><time>2026-04-04T10:09:08.999Z</time></trkpt><trkpt lat="44.635014224480386" lon="10.170086053009982"><ele>306.66666666666663</ele><time>2026-04-04T10:09:09.999Z</time></trkpt><trkpt lat="44.63507273001634" lon="10.1700050860268"><ele>307.0</ele><time>2026-04-04T10:09:10.999Z</time></trkpt><trkpt lat="44.635149289456926" lon="10.169962365264304"><ele>307.0</ele><time>2026-04-04T10:09:11.999Z</time></trkpt><trkpt lat="44.63526487273415" lon="10.169952121378335"><ele>307.0</ele><time>2026-04-04T10:09:12.999Z</time></trkpt><trkpt lat="44.63537357388322" lon="10.169967180270318"><ele>307.0</ele><time>2026-04-04T10:09:13.999Z</time></trkpt><trkpt lat="44.63546279875072" lon="10.17001147488409"><ele>307.0</ele><time>2026-04-04T10:09:14.999Z</time></trkpt><trkpt lat="44.63553886478969" lon="10.170074100159132"><ele>307.0</ele><time>2026-04-04T10:09:15.999Z</time></trkpt><trkpt lat="44.63561845414704" lon="10.170143558845814"><ele>307.2</ele><time>2026-04-04T10:09:16.999Z</time></trkpt><trkpt lat="44.63568805824518" lon="10.170207172798566"><ele>307.4</ele><time>2026-04-04T10:09:18Z</time></trkpt><trkpt lat="44.63578782292308" lon="10.170280032896185"><ele>307.6</ele><time>2026-04-04T10:09:20Z</time></trkpt><trkpt lat="44.63585659194989" lon="10.170296034258584"><ele>307.8</ele><time>2026-04-04T10:09:22Z</time></trkpt><trkpt lat="44.63597130505151" lon="10.170339157012728"><ele>308.0</ele><time>2026-04-04T10:09:24Z</time></trkpt><trkpt lat="44.6360566471273" lon="10.170374620723535"><ele>308.4</ele><time>2026-04-04T10:09:25Z</time></trkpt><trkpt lat="44.63616219894143" lon="10.170417842417951"><ele>308.8</ele><time>2026-04-04T10:09:26Z</time></trkpt><trkpt lat="44.63627108269603" lon="10.17045901739753"><ele>309.2</ele><time>2026-04-04T10:09:27Z</time></trkpt><trkpt lat="44.636376994719306" lon="10.170496234759288"><ele>309.6</ele><time>2026-04-04T10:09:28Z</time></trkpt><trkpt lat="44.636480673265815" lon="10.170533981100741"><ele>310.0</ele><time>2026-04-04T10:09:29Z</time></trkpt><trkpt lat="44.63658454358884" lon="10.170578060496569"><ele>310.0</ele><time>2026-04-04T10:09:30Z</time></trkpt><trkpt lat="44.636705286917746" lon="10.170636153911355"><ele>310.0</ele><time>2026-04-04T10:09:31Z</time></trkpt><trkpt lat="44.63682317437685" lon="10.17069754762879"><ele>310.0</ele><time>2026-04-04T10:09:32Z</time></trkpt><trkpt lat="44.636960941563366" lon="10.170699156903105"><ele>310.0</ele><time>2026-04-04T10:09:33Z</time></trkpt><trkpt lat="44.63711061215969" lon="10.170803092140005"><ele>307.75</ele><time>2026-04-04T10:09:34Z</time></trkpt><trkpt lat="44.63726013868093" lon="10.17084814267648"><ele>305.5</ele><time>2026-04-04T10:09:35Z</time></trkpt><trkpt lat="44.63740255319027" lon="10.170885306570895"><ele>303.25</ele><time>2026-04-04T10:09:36Z</time></trkpt><trkpt lat="44.63755321161206" lon="10.17090760959595"><ele>301.0</ele><time>2026-04-04T10:09:37Z</time></trkpt><trkpt lat="44.63769876892854" lon="10.170913362088962"><ele>302.0</ele><time>2026-04-04T10:09:38Z</time></trkpt><trkpt lat="44.637840788319856" lon="10.17091697779998"><ele>303.0</ele><time>2026-04-04T10:09:39Z</time></trkpt><trkpt lat="44.63799045942159" lon="10.17092590504698"><ele>304.0</ele><time>2026-04-04T10:09:40Z</time></trkpt><trkpt lat="44.63814693708933" lon="10.17093533138903"><ele>305.0</ele><time>2026-04-04T10:09:41Z</time></trkpt><trkpt lat="44.638323075811584" lon="10.170954940039097"><ele>305.0</ele><time>2026-04-04T10:09:42Z</time></trkpt><trkpt lat="44.638499065404496" lon="10.171039472398476"><ele>305.0</ele><time>2026-04-04T10:09:43Z</time></trkpt><trkpt lat="44.63869587765895" lon="10.171153229246194"><ele>305.0</ele><time>2026-04-04T10:09:44Z</time></trkpt><trkpt lat="44.63894085101586" lon="10.171292569369617"><ele>308.0</ele><time>2026-04-04T10:09:45Z</time></trkpt><trkpt lat="44.63920831828476" lon="10.171430682454558"><ele>311.0</ele><time>2026-04-04T10:09:46Z</time></trkpt><trkpt lat="44.63945896509958" lon="10.171589856297519"><ele>307.5</ele><time>2026-04-04T10:09:47Z</time></trkpt><trkpt lat="44.63970772163913" lon="10.17171949685421"><ele>304.0</ele><time>2026-04-04T10:09:48Z</time></trkpt><trkpt lat="44.63996024586661" lon="10.171825270818308"><ele>304.0</ele><time>2026-04-04T10:09:49Z</time></trkpt><trkpt lat="44.64020554609314" lon="10.171908893941946"><ele>304.0</ele><time>2026-04-04T10:09:50Z</time></trkpt><trkpt lat="44.64042627073969" lon="10.17199802980847"><ele>302.0</ele><time>2026-04-04T10:09:51Z</time></trkpt><trkpt lat="44.64062886888498" lon="10.172110641119392"><ele>300.0</ele><time>2026-04-04T10:09:52Z</time></trkpt><trkpt lat="44.64082302926487" lon="10.172260819007512"><ele>298.0</ele><time>2026-04-04T10:09:53Z</time></trkpt><trkpt lat="44.64101862226517" lon="10.172469020558266"><ele>299.0</ele><time>2026-04-04T10:09:54Z</time></trkpt><trkpt lat="44.641214367101135" lon="10.172713853169247"><ele>300.0</ele><time>2026-04-04T10:09:55Z</time></trkpt><trkpt lat="44.64141711739077" lon="10.172959823598017"><ele>300.0</ele><time>2026-04-04T10:09:56Z</time></trkpt><trkpt lat="44.6416131658239" lon="10.173188260244439"><ele>300.0</ele><time>2026-04-04T10:09:57Z</time></trkpt><trkpt lat="44.64180229822709" lon="10.17340710137902"><ele>299.5</ele><time>2026-04-04T10:09:58Z</time></trkpt><trkpt lat="44.64200321154301" lon="10.173640744977813"><ele>299.0</ele><time>2026-04-04T10:09:59Z</time></trkpt><trkpt lat="44.642187721802" lon="10.173858475410226"><ele>296.6666666666667</ele><time>2026-04-04T10:10:00Z</time></trkpt><trkpt lat="44.642358170018" lon="10.174053544398893"><ele>294.3333333333333</ele><time>2026-04-04T10:10:01Z</time></trkpt><trkpt lat="44.64252539587794" lon="10.1742505305503"><ele>292.0</ele><time>2026-04-04T10:10:02Z</time></trkpt><trkpt lat="44.64269447503533" lon="10.174446509303525"><ele>293.5</ele><time>2026-04-04T10:10:03Z</time></trkpt><trkpt lat="44.642878392976925" lon="10.174632243549032"><ele>295.0</ele><time>2026-04-04T10:10:04Z</time></trkpt><trkpt lat="44.64309489410292" lon="10.174777317880295"><ele>292.0</ele><time>2026-04-04T10:10:05Z</time></trkpt><trkpt lat="44.6433466207436" lon="10.174910748078283"><ele>289.0</ele><time>2026-04-04T10:10:06Z</time></trkpt><trkpt lat="44.64359023046006" lon="10.175046513682405"><ele>290.0</ele><time>2026-04-04T10:10:07Z</time></trkpt><trkpt lat="44.643827146935315" lon="10.175199591394218"><ele>291.0</ele><time>2026-04-04T10:10:08Z</time></trkpt><trkpt lat="44.644056617072174" lon="10.175353319401289"><ele>291.0</ele><time>2026-04-04T10:10:09Z</time></trkpt><trkpt lat="44.64427506914553" lon="10.17550023243131"><ele>291.0</ele><time>2026-04-04T10:10:10Z</time></trkpt><trkpt lat="44.64448973423123" lon="10.17563875405039"><ele>290.5</ele><time>2026-04-04T10:10:11Z</time></trkpt><trkpt lat="44.64470065280085" lon="10.175770158971794"><ele>290.0</ele><time>2026-04-04T10:10:12Z</time></trkpt><trkpt lat="44.644907611105" lon="10.175897251157858"><ele>290.0</ele><time>2026-04-04T10:10:13Z</time></trkpt><trkpt lat="44.64512499672105" lon="10.17601180372686"><ele>290.0</ele><time>2026-04-04T10:10:14Z</time></trkpt><trkpt lat="44.645371232103926" lon="10.17610359818291"><ele>289.0</ele><time>2026-04-04T10:10:15Z</time></trkpt><trkpt lat="44.64559530922734" lon="10.176170535123154"><ele>288.0</ele><time>2026-04-04T10:10:16Z</time></trkpt><trkpt lat="44.645833234868626" lon="10.176188005431397"><ele>288.0</ele><time>2026-04-04T10:10:17Z</time></trkpt><trkpt lat="44.64609004709278" lon="10.17618287310493"><ele>288.0</ele><time>2026-04-04T10:10:18Z</time></trkpt><trkpt lat="44.64635829062033" lon="10.17617307439803"><ele>288.5</ele><time>2026-04-04T10:10:19Z</time></trkpt><trkpt lat="44.64661972441598" lon="10.176166552202021"><ele>289.0</ele><time>2026-04-04T10:10:20Z</time></trkpt><trkpt lat="44.64687735571931" lon="10.176166894678595"><ele>288.5</ele><time>2026-04-04T10:10:21Z</time></trkpt><trkpt lat="44.64714081735192" lon="10.176183191489416"><ele>288.0</ele><time>2026-04-04T10:10:22Z</time></trkpt><trkpt lat="44.647410236103376" lon="10.176241189594817"><ele>288.0</ele><time>2026-04-04T10:10:23Z</time></trkpt><trkpt lat="44.64768475575966" lon="10.176344728200306"><ele>288.0</ele><time>2026-04-04T10:10:24Z</time></trkpt><trkpt lat="44.64797460295539" lon="10.176488381999752"><ele>285.5</ele><time>2026-04-04T10:10:24.999Z</time></trkpt><trkpt lat="44.648263797508356" lon="10.176612398704778"><ele>283.0</ele><time>2026-04-04T10:10:25.999Z</time></trkpt><trkpt lat="44.648552187655774" lon="10.176729662344078"><ele>284.0</ele><time>2026-04-04T10:10:26.999Z</time></trkpt><trkpt lat="44.64884135273575" lon="10.176841651164931"><ele>285.0</ele><time>2026-04-04T10:10:27.999Z</time></trkpt><trkpt lat="44.64913626767396" lon="10.176956947714036"><ele>285.0</ele><time>2026-04-04T10:10:28.999Z</time></trkpt><trkpt lat="44.64941240137046" lon="10.177070507764194"><ele>285.0</ele><time>2026-04-04T10:10:29.999Z</time></trkpt><trkpt lat="44.649690192952484" lon="10.177178418939327"><ele>285.5</ele><time>2026-04-04T10:10:30.999Z</time></trkpt><trkpt lat="44.649948664328626" lon="10.177277402359532"><ele>286.0</ele><time>2026-04-04T10:10:31.999Z</time></trkpt><trkpt lat="44.65018693791931" lon="10.177374984418782"><ele>285.3333333333333</ele><time>2026-04-04T10:10:32.999Z</time></trkpt><trkpt lat="44.65040359631694" lon="10.17747347583109"><ele>284.6666666666667</ele><time>2026-04-04T10:10:33.999Z</time></trkpt><trkpt lat="44.65060341806286" lon="10.177593258499881"><ele>284.0</ele><time>2026-04-04T10:10:34.999Z</time></trkpt><trkpt lat="44.65080447547969" lon="10.177743404427789"><ele>284.0</ele><time>2026-04-04T10:10:35.999Z</time></trkpt><trkpt lat="44.65102658777139" lon="10.177914246411486"><ele>284.0</ele><time>2026-04-04T10:10:36.999Z</time></trkpt><trkpt lat="44.651256600825974" lon="10.17807170490698"><ele>280.0</ele><time>2026-04-04T10:10:37.999Z</time></trkpt><trkpt lat="44.65149014744406" lon="10.178236241042658"><ele>276.0</ele><time>2026-04-04T10:10:38.999Z</time></trkpt><trkpt lat="44.65172893556115" lon="10.178402533808297"><ele>277.5</ele><time>2026-04-04T10:10:39.999Z</time></trkpt><trkpt lat="44.65197217405787" lon="10.178567680483654"><ele>279.0</ele><time>2026-04-04T10:10:40.999Z</time></trkpt><trkpt lat="44.65222479765162" lon="10.178736057387429"><ele>279.0</ele><time>2026-04-04T10:10:41.999Z</time></trkpt><trkpt lat="44.652477988339" lon="10.178907466667694"><ele>279.0</ele><time>2026-04-04T10:10:42.999Z</time></trkpt><trkpt lat="44.65273013976204" lon="10.179081196852218"><ele>278.5</ele><time>2026-04-04T10:10:43.999Z</time></trkpt><trkpt lat="44.65298259051184" lon="10.179262738117123"><ele>278.0</ele><time>2026-04-04T10:10:44.999Z</time></trkpt><trkpt lat="44.65323695834782" lon="10.179435286358352"><ele>278.0</ele><time>2026-04-04T10:10:45.999Z</time></trkpt><trkpt lat="44.65349386009008" lon="10.179614504957778"><ele>278.0</ele><time>2026-04-04T10:10:46.999Z</time></trkpt><trkpt lat="44.65374728467756" lon="10.179793239338913"><ele>275.0</ele><time>2026-04-04T10:10:47.999Z</time></trkpt><trkpt lat="44.654002920352276" lon="10.179972329637991"><ele>272.0</ele><time>2026-04-04T10:10:48.999Z</time></trkpt><trkpt lat="44.65425445918855" lon="10.180146818774695"><ele>275.0</ele><time>2026-04-04T10:10:49.999Z</time></trkpt><trkpt lat="44.6544992240147" lon="10.18031385452916"><ele>278.0</ele><time>2026-04-04T10:10:50.999Z</time></trkpt><trkpt lat="44.654741923910365" lon="10.180478701158178"><ele>278.0</ele><time>2026-04-04T10:10:51.999Z</time></trkpt><trkpt lat="44.65498517696363" lon="10.180655551202545"><ele>278.0</ele><time>2026-04-04T10:10:52.999Z</time></trkpt><trkpt lat="44.655228755659074" lon="10.180827897847077"><ele>275.0</ele><time>2026-04-04T10:10:53.999Z</time></trkpt><trkpt lat="44.65546742608549" lon="10.180989790423137"><ele>272.0</ele><time>2026-04-04T10:10:54.999Z</time></trkpt><trkpt lat="44.655705816135516" lon="10.181152447060644"><ele>272.0</ele><time>2026-04-04T10:10:55.999Z</time></trkpt><trkpt lat="44.65595170020541" lon="10.181324541160329"><ele>272.0</ele><time>2026-04-04T10:10:56.999Z</time></trkpt><trkpt lat="44.656197027039795" lon="10.181489069158271"><ele>270.0</ele><time>2026-04-04T10:10:57.999Z</time></trkpt><trkpt lat="44.65643816007476" lon="10.18165852804288"><ele>268.0</ele><time>2026-04-04T10:10:58.999Z</time></trkpt><trkpt lat="44.65666661890449" lon="10.181819629841986"><ele>268.0</ele><time>2026-04-04T10:10:59.999Z</time></trkpt><trkpt lat="44.6568927238839" lon="10.181987492716608"><ele>268.0</ele><time>2026-04-04T10:11:00.999Z</time></trkpt><trkpt lat="44.657124035391455" lon="10.182153896023415"><ele>266.0</ele><time>2026-04-04T10:11:01.999Z</time></trkpt><trkpt lat="44.65735169503239" lon="10.182316292245586"><ele>264.0</ele><time>2026-04-04T10:11:02.999Z</time></trkpt><trkpt lat="44.65759933391156" lon="10.18248505370121"><ele>266.0</ele><time>2026-04-04T10:11:03.999Z</time></trkpt><trkpt lat="44.65781104815301" lon="10.182626750810527"><ele>268.0</ele><time>2026-04-04T10:11:04.999Z</time></trkpt><trkpt lat="44.65805292008329" lon="10.182787965328085"><ele>268.0</ele><time>2026-04-04T10:11:05.999Z</time></trkpt><trkpt lat="44.65829401923652" lon="10.182954233100658"><ele>268.0</ele><time>2026-04-04T10:11:06.999Z</time></trkpt><trkpt lat="44.65853623429652" lon="10.183124182141643"><ele>266.0</ele><time>2026-04-04T10:11:07.999Z</time></trkpt><trkpt lat="44.65877472864878" lon="10.183280426053406"><ele>264.0</ele><time>2026-04-04T10:11:08.999Z</time></trkpt><trkpt lat="44.65900767215691" lon="10.183437809901761"><ele>264.0</ele><time>2026-04-04T10:11:09.999Z</time></trkpt><trkpt lat="44.65924121857252" lon="10.183594486309437"><ele>264.0</ele><time>2026-04-04T10:11:10.999Z</time></trkpt><trkpt lat="44.65947365496976" lon="10.183750016422568"><ele>262.5</ele><time>2026-04-04T10:11:11.999Z</time></trkpt><trkpt lat="44.659705051418975" lon="10.183908730392533"><ele>261.0</ele><time>2026-04-04T10:11:12.999Z</time></trkpt><trkpt lat="44.6599438470005" lon="10.184075166180172"><ele>261.0</ele><time>2026-04-04T10:11:13.999Z</time></trkpt><trkpt lat="44.660208676657746" lon="10.184261798062291"><ele>261.0</ele><time>2026-04-04T10:11:14.999Z</time></trkpt><trkpt lat="44.660432712899755" lon="10.184429834865771"><ele>263.0</ele><time>2026-04-04T10:11:15.999Z</time></trkpt><trkpt lat="44.66065338030498" lon="10.184569050406383"><ele>265.0</ele><time>2026-04-04T10:11:16.999Z</time></trkpt><trkpt lat="44.660882712136754" lon="10.184733269625273"><ele>264.3333333333333</ele><time>2026-04-04T10:11:17.999Z</time></trkpt><trkpt lat="44.6610737763396" lon="10.184870779069543"><ele>263.6666666666667</ele><time>2026-04-04T10:11:18.999Z</time></trkpt><trkpt lat="44.66125069313027" lon="10.18500197036485"><ele>263.0</ele><time>2026-04-04T10:11:19.999Z</time></trkpt><trkpt lat="44.66143507784646" lon="10.185166209462933"><ele>263.0</ele><time>2026-04-04T10:11:20.999Z</time></trkpt><trkpt lat="44.66163568780959" lon="10.185377338619576"><ele>263.0</ele><time>2026-04-04T10:11:21.999Z</time></trkpt><trkpt lat="44.66183793198579" lon="10.18558337937571"><ele>261.5</ele><time>2026-04-04T10:11:22.999Z</time></trkpt><trkpt lat="44.66205502484088" lon="10.18577811484346"><ele>260.0</ele><time>2026-04-04T10:11:24Z</time></trkpt><trkpt lat="44.66227692439715" lon="10.185983052612112"><ele>260.0</ele><time>2026-04-04T10:11:25Z</time></trkpt><trkpt lat="44.66249539440157" lon="10.186200666937019"><ele>260.0</ele><time>2026-04-04T10:11:26Z</time></trkpt><trkpt lat="44.6627029277257" lon="10.186394571460616"><ele>259.0</ele><time>2026-04-04T10:11:27Z</time></trkpt><trkpt lat="44.66287819780157" lon="10.186573747974263"><ele>258.0</ele><time>2026-04-04T10:11:28Z</time></trkpt><trkpt lat="44.663052335080614" lon="10.186789893303153"><ele>257.0</ele><time>2026-04-04T10:11:29Z</time></trkpt><trkpt lat="44.66319190992491" lon="10.187062769577864"><ele>255.5</ele><time>2026-04-04T10:11:30Z</time></trkpt><trkpt lat="44.66331823409429" lon="10.187377401454436"><ele>254.0</ele><time>2026-04-04T10:11:31Z</time></trkpt><trkpt lat="44.663441063486395" lon="10.187716979876468"><ele>254.0</ele><time>2026-04-04T10:11:32Z</time></trkpt><trkpt lat="44.66355090960722" lon="10.188026206718908"><ele>254.0</ele><time>2026-04-04T10:11:33Z</time></trkpt><trkpt lat="44.6636585722232" lon="10.188293955313497"><ele>254.0</ele><time>2026-04-04T10:11:34Z</time></trkpt><trkpt lat="44.66377467208841" lon="10.188544678109512"><ele>254.0</ele><time>2026-04-04T10:11:35Z</time></trkpt><trkpt lat="44.66391321180152" lon="10.188776282608197"><ele>254.0</ele><time>2026-04-04T10:11:36Z</time></trkpt><trkpt lat="44.66407548757384" lon="10.188999576680237"><ele>253.0</ele><time>2026-04-04T10:11:37Z</time></trkpt><trkpt lat="44.66424137451182" lon="10.189205327804713"><ele>252.0</ele><time>2026-04-04T10:11:38Z</time></trkpt><trkpt lat="44.66438951736278" lon="10.189394260278899"><ele>251.0</ele><time>2026-04-04T10:11:39Z</time></trkpt><trkpt lat="44.66452405972892" lon="10.189573181140961"><ele>250.33333333333334</ele><time>2026-04-04T10:11:40Z</time></trkpt><trkpt lat="44.66465173213911" lon="10.18974370771312"><ele>249.66666666666669</ele><time>2026-04-04T10:11:41Z</time></trkpt><trkpt lat="44.664772368404456" lon="10.189905647719796"><ele>249.0</ele><time>2026-04-04T10:11:42Z</time></trkpt><trkpt lat="44.664885670896076" lon="10.190036631324013"><ele>248.66666666666669</ele><time>2026-04-04T10:11:43Z</time></trkpt><trkpt lat="44.66500178362177" lon="10.190215806794061"><ele>248.33333333333334</ele><time>2026-04-04T10:11:44Z</time></trkpt><trkpt lat="44.66510249460411" lon="10.190361142797558"><ele>248.0</ele><time>2026-04-04T10:11:45Z</time></trkpt><trkpt lat="44.665194831047195" lon="10.190501932068601"><ele>248.0</ele><time>2026-04-04T10:11:46Z</time></trkpt><trkpt lat="44.66531024969628" lon="10.190650190221218"><ele>248.0</ele><time>2026-04-04T10:11:47Z</time></trkpt><trkpt lat="44.66542591578914" lon="10.190808180272121"><ele>248.0</ele><time>2026-04-04T10:11:48Z</time></trkpt><trkpt lat="44.66553903137429" lon="10.19096546314228"><ele>248.0</ele><time>2026-04-04T10:11:49Z</time></trkpt><trkpt lat="44.66565070305828" lon="10.191122657261745"><ele>248.0</ele><time>2026-04-04T10:11:50Z</time></trkpt><trkpt lat="44.66576373796088" lon="10.191266389916368"><ele>248.0</ele><time>2026-04-04T10:11:51Z</time></trkpt><trkpt lat="44.66588532983916" lon="10.191399314836032"><ele>247.75</ele><time>2026-04-04T10:11:52Z</time></trkpt><trkpt lat="44.66601773928185" lon="10.19152377353371"><ele>247.5</ele><time>2026-04-04T10:11:53Z</time></trkpt><trkpt lat="44.666101762479165" lon="10.191640543633797"><ele>247.25</ele><time>2026-04-04T10:11:54Z</time></trkpt><trkpt lat="44.666188233358525" lon="10.191723816410118"><ele>247.0</ele><time>2026-04-04T10:11:55Z</time></trkpt><trkpt lat="44.66630810704665" lon="10.191871312634783"><ele>247.0</ele><time>2026-04-04T10:11:56Z</time></trkpt><trkpt lat="44.66641662008829" lon="10.192000249064495"><ele>247.0</ele><time>2026-04-04T10:11:57Z</time></trkpt><trkpt lat="44.66653488521867" lon="10.192127729203472"><ele>247.0</ele><time>2026-04-04T10:11:58Z</time></trkpt><trkpt lat="44.66665373697958" lon="10.192252518510928"><ele>247.0</ele><time>2026-04-04T10:11:59Z</time></trkpt><trkpt lat="44.66676719999129" lon="10.19239284159784"><ele>247.0</ele><time>2026-04-04T10:12:00Z</time></trkpt><trkpt lat="44.666886163348025" lon="10.192533129645648"><ele>247.0</ele><time>2026-04-04T10:12:01Z</time></trkpt><trkpt lat="44.666999840762685" lon="10.192671723327791"><ele>247.0</ele><time>2026-04-04T10:12:02Z</time></trkpt><trkpt lat="44.667125218959725" lon="10.192805001656945"><ele>247.0</ele><time>2026-04-04T10:12:03Z</time></trkpt><trkpt lat="44.66723913016866" lon="10.192931003320066"><ele>247.0</ele><time>2026-04-04T10:12:04Z</time></trkpt><trkpt lat="44.667363666716504" lon="10.193068571576987"><ele>247.0</ele><time>2026-04-04T10:12:05Z</time></trkpt><trkpt lat="44.66749236857577" lon="10.193207695084876"><ele>246.0</ele><time>2026-04-04T10:12:06Z</time></trkpt><trkpt lat="44.66761940726258" lon="10.193347675854126"><ele>245.0</ele><time>2026-04-04T10:12:07Z</time></trkpt><trkpt lat="44.66774478302091" lon="10.19347908624943"><ele>244.0</ele><time>2026-04-04T10:12:08Z</time></trkpt><trkpt lat="44.66786958089445" lon="10.193603147958143"><ele>243.66666666666666</ele><time>2026-04-04T10:12:09Z</time></trkpt><trkpt lat="44.667997854747234" lon="10.19373447778331"><ele>243.33333333333331</ele><time>2026-04-04T10:12:10Z</time></trkpt><trkpt lat="44.66812832225443" lon="10.19386903507938"><ele>243.0</ele><time>2026-04-04T10:12:11Z</time></trkpt><trkpt lat="44.66826407411839" lon="10.194003753640663"><ele>243.0</ele><time>2026-04-04T10:12:12Z</time></trkpt><trkpt lat="44.66843568529135" lon="10.194146909447722"><ele>243.0</ele><time>2026-04-04T10:12:13Z</time></trkpt><trkpt lat="44.66858858904193" lon="10.194325950742481"><ele>243.0</ele><time>2026-04-04T10:12:14Z</time></trkpt><trkpt lat="44.66876839132709" lon="10.194524447457907"><ele>243.0</ele><time>2026-04-04T10:12:15Z</time></trkpt><trkpt lat="44.668953438948094" lon="10.194723707973386"><ele>243.0</ele><time>2026-04-04T10:12:16Z</time></trkpt><trkpt lat="44.669149737881696" lon="10.194936253669253"><ele>243.0</ele><time>2026-04-04T10:12:17Z</time></trkpt><trkpt lat="44.669349849023206" lon="10.19515027068116"><ele>243.0</ele><time>2026-04-04T10:12:18Z</time></trkpt><trkpt lat="44.669559381876056" lon="10.195371444139871"><ele>243.0</ele><time>2026-04-04T10:12:19Z</time></trkpt><trkpt lat="44.66977415596552" lon="10.19559540835013"><ele>243.0</ele><time>2026-04-04T10:12:20Z</time></trkpt><trkpt lat="44.669990857581794" lon="10.1958239839468"><ele>242.0</ele><time>2026-04-04T10:12:21Z</time></trkpt><trkpt lat="44.67020747847357" lon="10.196051897476904"><ele>241.0</ele><time>2026-04-04T10:12:22Z</time></trkpt><trkpt lat="44.67042075641484" lon="10.196275096993766"><ele>240.5</ele><time>2026-04-04T10:12:23Z</time></trkpt><trkpt lat="44.67063751900481" lon="10.19647258468577"><ele>240.0</ele><time>2026-04-04T10:12:24Z</time></trkpt><trkpt lat="44.67084196953487" lon="10.196713974278923"><ele>239.5</ele><time>2026-04-04T10:12:25Z</time></trkpt><trkpt lat="44.67103322399204" lon="10.196932679322023"><ele>239.0</ele><time>2026-04-04T10:12:26Z</time></trkpt><trkpt lat="44.67121033060507" lon="10.197173101652757"><ele>238.0</ele><time>2026-04-04T10:12:27Z</time></trkpt><trkpt lat="44.67137406215924" lon="10.197454482010661"><ele>237.0</ele><time>2026-04-04T10:12:28Z</time></trkpt><trkpt lat="44.67154310192633" lon="10.19776113013825"><ele>237.0</ele><time>2026-04-04T10:12:29Z</time></trkpt><trkpt lat="44.671702524982315" lon="10.198053932679569"><ele>237.0</ele><time>2026-04-04T10:12:30Z</time></trkpt><trkpt lat="44.67186171861539" lon="10.198337252642476"><ele>234.5</ele><time>2026-04-04T10:12:30.999Z</time></trkpt><trkpt lat="44.672018961144886" lon="10.19861989337274"><ele>232.0</ele><time>2026-04-04T10:12:31.999Z</time></trkpt><trkpt lat="44.67216129288097" lon="10.198893030389318"><ele>231.0</ele><time>2026-04-04T10:12:32.999Z</time></trkpt><trkpt lat="44.672292739250445" lon="10.199159235276145"><ele>230.0</ele><time>2026-04-04T10:12:33.999Z</time></trkpt><trkpt lat="44.6724226101697" lon="10.199418987296815"><ele>230.0</ele><time>2026-04-04T10:12:34.999Z</time></trkpt><trkpt lat="44.67255687076028" lon="10.199670051203318"><ele>230.0</ele><time>2026-04-04T10:12:35.999Z</time></trkpt><trkpt lat="44.67268254286218" lon="10.199913309323094"><ele>230.0</ele><time>2026-04-04T10:12:36.999Z</time></trkpt><trkpt lat="44.67280153251617" lon="10.200135610218057"><ele>230.33333333333334</ele><time>2026-04-04T10:12:37.999Z</time></trkpt><trkpt lat="44.67291824893335" lon="10.200349257636017"><ele>230.66666666666669</ele><time>2026-04-04T10:12:38.999Z</time></trkpt><trkpt lat="44.67303425956899" lon="10.20055740157654"><ele>231.0</ele><time>2026-04-04T10:12:39.999Z</time></trkpt><trkpt lat="44.673153630672815" lon="10.200769267786487"><ele>231.0</ele><time>2026-04-04T10:12:40.999Z</time></trkpt><trkpt lat="44.673288681121285" lon="10.200970500971854"><ele>231.0</ele><time>2026-04-04T10:12:41.999Z</time></trkpt><trkpt lat="44.673425217187415" lon="10.20118736862924"><ele>231.0</ele><time>2026-04-04T10:12:42.999Z</time></trkpt><trkpt lat="44.67361592008205" lon="10.201367253151062"><ele>229.5</ele><time>2026-04-04T10:12:43.999Z</time></trkpt><trkpt lat="44.67384249714219" lon="10.201519375138957"><ele>228.0</ele><time>2026-04-04T10:12:44.999Z</time></trkpt><trkpt lat="44.67409499148089" lon="10.201626382112066"><ele>228.0</ele><time>2026-04-04T10:12:45.999Z</time></trkpt><trkpt lat="44.6743593772848" lon="10.20182718094299"><ele>228.0</ele><time>2026-04-04T10:12:46.999Z</time></trkpt><trkpt lat="44.6746310623007" lon="10.202042541847659"><ele>227.0</ele><time>2026-04-04T10:12:47.999Z</time></trkpt><trkpt lat="44.67491479458011" lon="10.202265745286155"><ele>226.0</ele><time>2026-04-04T10:12:48.999Z</time></trkpt><trkpt lat="44.67519497563461" lon="10.202494358221582"><ele>226.0</ele><time>2026-04-04T10:12:49.999Z</time></trkpt><trkpt lat="44.67546498953706" lon="10.202724533075942"><ele>226.0</ele><time>2026-04-04T10:12:50.999Z</time></trkpt><trkpt lat="44.675730117359976" lon="10.202943445588456"><ele>226.5</ele><time>2026-04-04T10:12:51.999Z</time></trkpt><trkpt lat="44.6759965748209" lon="10.203171432716758"><ele>227.0</ele><time>2026-04-04T10:12:52.999Z</time></trkpt><trkpt lat="44.67626456932217" lon="10.20342810346054"><ele>228.0</ele><time>2026-04-04T10:12:53.999Z</time></trkpt><trkpt lat="44.67653462199685" lon="10.203706981765624"><ele>229.0</ele><time>2026-04-04T10:12:54.999Z</time></trkpt><trkpt lat="44.67680945071865" lon="10.203989108170548"><ele>227.5</ele><time>2026-04-04T10:12:55.999Z</time></trkpt><trkpt lat="44.67708792627339" lon="10.204274408562597"><ele>226.0</ele><time>2026-04-04T10:12:56.999Z</time></trkpt><trkpt lat="44.677369887837024" lon="10.204563059844562"><ele>226.0</ele><time>2026-04-04T10:12:57.999Z</time></trkpt><trkpt lat="44.67765219276448" lon="10.204851202823193"><ele>226.0</ele><time>2026-04-04T10:12:58.999Z</time></trkpt><trkpt lat="44.677937155130394" lon="10.205141419383512"><ele>226.0</ele><time>2026-04-04T10:12:59.999Z</time></trkpt><trkpt lat="44.67822327036424" lon="10.205440402122735"><ele>226.0</ele><time>2026-04-04T10:13:00.999Z</time></trkpt><trkpt lat="44.67851012579625" lon="10.205736273814987"><ele>223.5</ele><time>2026-04-04T10:13:01.999Z</time></trkpt><trkpt lat="44.678792624457564" lon="10.206026910130154"><ele>221.0</ele><time>2026-04-04T10:13:02.999Z</time></trkpt><trkpt lat="44.67906987663404" lon="10.206313542552428"><ele>220.0</ele><time>2026-04-04T10:13:03.999Z</time></trkpt><trkpt lat="44.67934042950758" lon="10.206600316888254"><ele>219.0</ele><time>2026-04-04T10:13:04.999Z</time></trkpt><trkpt lat="44.679609867564736" lon="10.206883328669457"><ele>219.0</ele><time>2026-04-04T10:13:05.999Z</time></trkpt><trkpt lat="44.67987416699888" lon="10.207162654162145"><ele>219.0</ele><time>2026-04-04T10:13:06.999Z</time></trkpt><trkpt lat="44.68013371831651" lon="10.207434303781405"><ele>218.0</ele><time>2026-04-04T10:13:07.999Z</time></trkpt><trkpt lat="44.68039868788349" lon="10.207707623066558"><ele>217.0</ele><time>2026-04-04T10:13:08.999Z</time></trkpt><trkpt lat="44.680669080173935" lon="10.207982118648138"><ele>215.5</ele><time>2026-04-04T10:13:09.999Z</time></trkpt><trkpt lat="44.68094580974399" lon="10.20825835529881"><ele>214.0</ele><time>2026-04-04T10:13:10.999Z</time></trkpt><trkpt lat="44.681215394206106" lon="10.208535445751183"><ele>214.0</ele><time>2026-04-04T10:13:11.999Z</time></trkpt><trkpt lat="44.681485451445624" lon="10.208811838528195"><ele>214.0</ele><time>2026-04-04T10:13:12.999Z</time></trkpt><trkpt lat="44.68175712672438" lon="10.209090678055329"><ele>215.0</ele><time>2026-04-04T10:13:13.999Z</time></trkpt><trkpt lat="44.68202427716655" lon="10.209367244295494"><ele>216.0</ele><time>2026-04-04T10:13:14.999Z</time></trkpt><trkpt lat="44.682291424587575" lon="10.209640794439629"><ele>213.5</ele><time>2026-04-04T10:13:15.999Z</time></trkpt><trkpt lat="44.682558374960855" lon="10.20991734797965"><ele>211.0</ele><time>2026-04-04T10:13:16.999Z</time></trkpt><trkpt lat="44.682832199837414" lon="10.210196517736463"><ele>211.0</ele><time>2026-04-04T10:13:17.999Z</time></trkpt><trkpt lat="44.683108143402414" lon="10.210476004699764"><ele>211.0</ele><time>2026-04-04T10:13:18.999Z</time></trkpt><trkpt lat="44.68337694409049" lon="10.210745056693018"><ele>210.5</ele><time>2026-04-04T10:13:19.999Z</time></trkpt><trkpt lat="44.68365945755576" lon="10.211025509979576"><ele>210.0</ele><time>2026-04-04T10:13:20.999Z</time></trkpt><trkpt lat="44.68394868677801" lon="10.211320362637512"><ele>210.5</ele><time>2026-04-04T10:13:21.999Z</time></trkpt><trkpt lat="44.68423362005524" lon="10.21161154432048"><ele>211.0</ele><time>2026-04-04T10:13:22.999Z</time></trkpt><trkpt lat="44.68449412793378" lon="10.211866931971047"><ele>211.0</ele><time>2026-04-04T10:13:23.999Z</time></trkpt><trkpt lat="44.68474808965044" lon="10.212150192465433"><ele>211.0</ele><time>2026-04-04T10:13:24.999Z</time></trkpt><trkpt lat="44.68501198879239" lon="10.212423214526018"><ele>209.5</ele><time>2026-04-04T10:13:25.999Z</time></trkpt><trkpt lat="44.685271049425296" lon="10.212691117043253"><ele>208.0</ele><time>2026-04-04T10:13:26.999Z</time></trkpt><trkpt lat="44.68553471809772" lon="10.212961887998487"><ele>208.5</ele><time>2026-04-04T10:13:27.999Z</time></trkpt><trkpt lat="44.68581260443874" lon="10.213240458608364"><ele>209.0</ele><time>2026-04-04T10:13:28.999Z</time></trkpt><trkpt lat="44.68609652879254" lon="10.21352614902211"><ele>207.0</ele><time>2026-04-04T10:13:30Z</time></trkpt><trkpt lat="44.68637793515129" lon="10.213812413630961"><ele>205.0</ele><time>2026-04-04T10:13:31Z</time></trkpt><trkpt lat="44.68663250402885" lon="10.214069226558612"><ele>205.0</ele><time>2026-04-04T10:13:32Z</time></trkpt><trkpt lat="44.68688393936257" lon="10.214337567441385"><ele>205.0</ele><time>2026-04-04T10:13:33Z</time></trkpt><trkpt lat="44.68712509865179" lon="10.214585259791633"><ele>204.5</ele><time>2026-04-04T10:13:34Z</time></trkpt><trkpt lat="44.68735499620869" lon="10.214826460999257"><ele>204.0</ele><time>2026-04-04T10:13:35Z</time></trkpt><trkpt lat="44.687570985745204" lon="10.21505135449806"><ele>202.0</ele><time>2026-04-04T10:13:36Z</time></trkpt><trkpt lat="44.6877709491289" lon="10.215251098108093"><ele>200.0</ele><time>2026-04-04T10:13:37Z</time></trkpt><trkpt lat="44.68796564510361" lon="10.215454756548906"><ele>200.5</ele><time>2026-04-04T10:13:38Z</time></trkpt><trkpt lat="44.688158098891705" lon="10.215660826949321"><ele>201.0</ele><time>2026-04-04T10:13:39Z</time></trkpt><trkpt lat="44.68834396224911" lon="10.215855246859796"><ele>201.0</ele><time>2026-04-04T10:13:40Z</time></trkpt><trkpt lat="44.688551517557805" lon="10.216010414551713"><ele>201.0</ele><time>2026-04-04T10:13:41Z</time></trkpt><trkpt lat="44.68876856415835" lon="10.216177971989188"><ele>202.0</ele><time>2026-04-04T10:13:42Z</time></trkpt><trkpt lat="44.68900068654863" lon="10.216349116316284"><ele>203.0</ele><time>2026-04-04T10:13:43Z</time></trkpt><trkpt lat="44.68921853334044" lon="10.216530201598802"><ele>202.5</ele><time>2026-04-04T10:13:44Z</time></trkpt><trkpt lat="44.68946766440621" lon="10.216698816140864"><ele>202.0</ele><time>2026-04-04T10:13:45Z</time></trkpt><trkpt lat="44.689707927546884" lon="10.216877613381438"><ele>202.0</ele><time>2026-04-04T10:13:46Z</time></trkpt><trkpt lat="44.6899608776829" lon="10.217065660380928"><ele>202.0</ele><time>2026-04-04T10:13:47Z</time></trkpt><trkpt lat="44.690233759481664" lon="10.217267047977314"><ele>200.0</ele><time>2026-04-04T10:13:48Z</time></trkpt><trkpt lat="44.69050794199133" lon="10.217491556605536"><ele>198.0</ele><time>2026-04-04T10:13:49Z</time></trkpt><trkpt lat="44.690794424612896" lon="10.217703597268443"><ele>198.0</ele><time>2026-04-04T10:13:50Z</time></trkpt><trkpt lat="44.691081784611" lon="10.21791343177778"><ele>198.0</ele><time>2026-04-04T10:13:51Z</time></trkpt><trkpt lat="44.69135806549064" lon="10.21811355221312"><ele>198.0</ele><time>2026-04-04T10:13:52Z</time></trkpt><trkpt lat="44.69160634867866" lon="10.218294144935756"><ele>198.0</ele><time>2026-04-04T10:13:53Z</time></trkpt><trkpt lat="44.69184003841132" lon="10.218474423679265"><ele>197.0</ele><time>2026-04-04T10:13:54Z</time></trkpt><trkpt lat="44.69207748812221" lon="10.21864441465096"><ele>196.0</ele><time>2026-04-04T10:13:55Z</time></trkpt><trkpt lat="44.692321551914425" lon="10.21881686716421"><ele>196.0</ele><time>2026-04-04T10:13:56Z</time></trkpt><trkpt lat="44.692559958905704" lon="10.21896276020541"><ele>196.0</ele><time>2026-04-04T10:13:57Z</time></trkpt><trkpt lat="44.6927991795164" lon="10.219133577269375"><ele>195.5</ele><time>2026-04-04T10:13:58Z</time></trkpt><trkpt lat="44.69304275388952" lon="10.219331587081236"><ele>195.0</ele><time>2026-04-04T10:13:59Z</time></trkpt><trkpt lat="44.69328744906319" lon="10.219531227009044"><ele>195.0</ele><time>2026-04-04T10:14:00Z</time></trkpt><trkpt lat="44.69354940001461" lon="10.219734794758025"><ele>195.0</ele><time>2026-04-04T10:14:01Z</time></trkpt><trkpt lat="44.6938076618711" lon="10.21992622235195"><ele>194.5</ele><time>2026-04-04T10:14:02Z</time></trkpt><trkpt lat="44.694061500896225" lon="10.220114379353385"><ele>194.0</ele><time>2026-04-04T10:14:03Z</time></trkpt><trkpt lat="44.69431522552118" lon="10.220302985963698"><ele>192.5</ele><time>2026-04-04T10:14:04Z</time></trkpt><trkpt lat="44.694561620310076" lon="10.220484818256597"><ele>191.0</ele><time>2026-04-04T10:14:05Z</time></trkpt><trkpt lat="44.694803227219694" lon="10.220660679430654"><ele>191.0</ele><time>2026-04-04T10:14:06Z</time></trkpt><trkpt lat="44.69503019317695" lon="10.220829025379363"><ele>191.0</ele><time>2026-04-04T10:14:07Z</time></trkpt><trkpt lat="44.69523845328333" lon="10.220987345364575"><ele>190.66666666666666</ele><time>2026-04-04T10:14:08Z</time></trkpt><trkpt lat="44.69543508507003" lon="10.221133359902845"><ele>190.33333333333334</ele><time>2026-04-04T10:14:09Z</time></trkpt><trkpt lat="44.6956290775853" lon="10.221276478478925"><ele>190.0</ele><time>2026-04-04T10:14:10Z</time></trkpt><trkpt lat="44.6958159342556" lon="10.221418216935577"><ele>190.33333333333334</ele><time>2026-04-04T10:14:11Z</time></trkpt><trkpt lat="44.696010176805906" lon="10.221565870879605"><ele>190.66666666666666</ele><time>2026-04-04T10:14:12Z</time></trkpt><trkpt lat="44.69619846243674" lon="10.221710417981498"><ele>191.0</ele><time>2026-04-04T10:14:13Z</time></trkpt><trkpt lat="44.696375355357176" lon="10.221843062503165"><ele>190.33333333333331</ele><time>2026-04-04T10:14:14Z</time></trkpt><trkpt lat="44.69655980037135" lon="10.221973263264399"><ele>189.66666666666666</ele><time>2026-04-04T10:14:15Z</time></trkpt><trkpt lat="44.69673405883118" lon="10.222104276930343"><ele>189.0</ele><time>2026-04-04T10:14:16Z</time></trkpt><trkpt lat="44.69691554295112" lon="10.222235661772483"><ele>188.33333333333334</ele><time>2026-04-04T10:14:17Z</time></trkpt><trkpt lat="44.69709476663702" lon="10.22236673778212"><ele>187.66666666666669</ele><time>2026-04-04T10:14:18Z</time></trkpt><trkpt lat="44.697268108051276" lon="10.222497158202827"><ele>187.0</ele><time>2026-04-04T10:14:19Z</time></trkpt><trkpt lat="44.69744268359652" lon="10.222628726383663"><ele>187.0</ele><time>2026-04-04T10:14:20Z</time></trkpt><trkpt lat="44.6976065514897" lon="10.222750859538982"><ele>187.0</ele><time>2026-04-04T10:14:21Z</time></trkpt><trkpt lat="44.69776521054544" lon="10.222866388687297"><ele>187.0</ele><time>2026-04-04T10:14:22Z</time></trkpt><trkpt lat="44.69792033617708" lon="10.222978433071994"><ele>186.0</ele><time>2026-04-04T10:14:23Z</time></trkpt><trkpt lat="44.69808006324158" lon="10.223095939564288"><ele>185.0</ele><time>2026-04-04T10:14:24Z</time></trkpt><trkpt lat="44.69824656377509" lon="10.22321791344468"><ele>184.0</ele><time>2026-04-04T10:14:25Z</time></trkpt><trkpt lat="44.69840769947975" lon="10.223336716038009"><ele>184.0</ele><time>2026-04-04T10:14:26Z</time></trkpt><trkpt lat="44.69857680372712" lon="10.223463957526167"><ele>184.0</ele><time>2026-04-04T10:14:27Z</time></trkpt><trkpt lat="44.698740890621615" lon="10.223590422995352"><ele>184.0</ele><time>2026-04-04T10:14:28Z</time></trkpt><trkpt lat="44.69890880235661" lon="10.223713489032738"><ele>183.66666666666669</ele><time>2026-04-04T10:14:29Z</time></trkpt><trkpt lat="44.6990779953459" lon="10.22382462996237"><ele>183.33333333333334</ele><time>2026-04-04T10:14:30Z</time></trkpt><trkpt lat="44.699241657744416" lon="10.223933723245837"><ele>183.0</ele><time>2026-04-04T10:14:31Z</time></trkpt><trkpt lat="44.6994029866167" lon="10.224049979461599"><ele>184.0</ele><time>2026-04-04T10:14:32Z</time></trkpt><trkpt lat="44.69956288392491" lon="10.22418171569918"><ele>185.0</ele><time>2026-04-04T10:14:33Z</time></trkpt><trkpt lat="44.699722250732144" lon="10.224313575136755"><ele>186.0</ele><time>2026-04-04T10:14:34Z</time></trkpt><trkpt lat="44.69990593098426" lon="10.224443321247517"><ele>186.0</ele><time>2026-04-04T10:14:35Z</time></trkpt><trkpt lat="44.70010951606673" lon="10.22457637223258"><ele>186.0</ele><time>2026-04-04T10:14:36Z</time></trkpt><trkpt lat="44.70032267099229" lon="10.224726791041858"><ele>184.5</ele><time>2026-04-04T10:14:37Z</time></trkpt><trkpt lat="44.700535565214686" lon="10.224891324974726"><ele>183.0</ele><time>2026-04-04T10:14:38Z</time></trkpt><trkpt lat="44.70074891643466" lon="10.225074853632439"><ele>183.0</ele><time>2026-04-04T10:14:39Z</time></trkpt><trkpt lat="44.700963952015606" lon="10.225253501061266"><ele>183.0</ele><time>2026-04-04T10:14:39.999Z</time></trkpt><trkpt lat="44.70117969179628" lon="10.225432886111586"><ele>180.0</ele><time>2026-04-04T10:14:40.999Z</time></trkpt><trkpt lat="44.701392408735465" lon="10.225626664160826"><ele>177.0</ele><time>2026-04-04T10:14:41.999Z</time></trkpt><trkpt lat="44.701600907892995" lon="10.225831049997785"><ele>176.5</ele><time>2026-04-04T10:14:42.999Z</time></trkpt><trkpt lat="44.70181358749825" lon="10.226031977895635"><ele>176.0</ele><time>2026-04-04T10:14:43.999Z</time></trkpt><trkpt lat="44.70202942460489" lon="10.226229516138986"><ele>175.5</ele><time>2026-04-04T10:14:44.999Z</time></trkpt><trkpt lat="44.70224568438636" lon="10.226425645602358"><ele>175.0</ele><time>2026-04-04T10:14:45.999Z</time></trkpt><trkpt lat="44.702459764252964" lon="10.22661618427509"><ele>175.0</ele><time>2026-04-04T10:14:46.999Z</time></trkpt><trkpt lat="44.70267774224378" lon="10.226807135593372"><ele>175.0</ele><time>2026-04-04T10:14:47.999Z</time></trkpt><trkpt lat="44.702892819773844" lon="10.227001539629995"><ele>175.0</ele><time>2026-04-04T10:14:48.999Z</time></trkpt><trkpt lat="44.703107581362694" lon="10.227206617684434"><ele>175.0</ele><time>2026-04-04T10:14:49.999Z</time></trkpt><trkpt lat="44.703320072970364" lon="10.22740855116737"><ele>175.5</ele><time>2026-04-04T10:14:50.999Z</time></trkpt><trkpt lat="44.70353457512512" lon="10.22761400147991"><ele>176.0</ele><time>2026-04-04T10:14:51.999Z</time></trkpt><trkpt lat="44.70375199214415" lon="10.227813144945625"><ele>176.0</ele><time>2026-04-04T10:14:52.999Z</time></trkpt><trkpt lat="44.70397092021067" lon="10.228011633508448"><ele>176.0</ele><time>2026-04-04T10:14:53.999Z</time></trkpt><trkpt lat="44.7041865788897" lon="10.228208880360711"><ele>176.5</ele><time>2026-04-04T10:14:54.999Z</time></trkpt><trkpt lat="44.704403163298046" lon="10.228405815460226"><ele>177.0</ele><time>2026-04-04T10:14:55.999Z</time></trkpt><trkpt lat="44.70461858093143" lon="10.228601070720332"><ele>176.0</ele><time>2026-04-04T10:14:56.999Z</time></trkpt><trkpt lat="44.70483342971645" lon="10.228799308498019"><ele>175.0</ele><time>2026-04-04T10:14:57.999Z</time></trkpt><trkpt lat="44.70504102856976" lon="10.22899186759277"><ele>174.0</ele><time>2026-04-04T10:14:58.999Z</time></trkpt><trkpt lat="44.70524530929169" lon="10.229182143810135"><ele>173.0</ele><time>2026-04-04T10:14:59.999Z</time></trkpt><trkpt lat="44.705444433835886" lon="10.229365832284502"><ele>173.0</ele><time>2026-04-04T10:15:00.999Z</time></trkpt><trkpt lat="44.70563148857258" lon="10.229534113249784"><ele>173.0</ele><time>2026-04-04T10:15:01.999Z</time></trkpt><trkpt lat="44.70580522389582" lon="10.229686010050546"><ele>173.0</ele><time>2026-04-04T10:15:02.999Z</time></trkpt><trkpt lat="44.70595204920219" lon="10.229800394250454"><ele>171.5</ele><time>2026-04-04T10:15:03.999Z</time></trkpt><trkpt lat="44.70613630199217" lon="10.229911925585123"><ele>170.0</ele><time>2026-04-04T10:15:04.999Z</time></trkpt><trkpt lat="44.70637681965318" lon="10.230025539813083"><ele>170.0</ele><time>2026-04-04T10:15:05.999Z</time></trkpt><trkpt lat="44.70660172205817" lon="10.23008741916335"><ele>170.0</ele><time>2026-04-04T10:15:06.999Z</time></trkpt><trkpt lat="44.70680905917871" lon="10.230148165898864"><ele>170.0</ele><time>2026-04-04T10:15:07.999Z</time></trkpt><trkpt lat="44.70701248319597" lon="10.230216171553518"><ele>170.33333333333331</ele><time>2026-04-04T10:15:08.999Z</time></trkpt><trkpt lat="44.70718146895339" lon="10.230280891792157"><ele>170.66666666666666</ele><time>2026-04-04T10:15:09.999Z</time></trkpt><trkpt lat="44.707351110684215" lon="10.230334679284612"><ele>171.0</ele><time>2026-04-04T10:15:10.999Z</time></trkpt><trkpt lat="44.70751141837882" lon="10.23034930211653"><ele>171.0</ele><time>2026-04-04T10:15:11.999Z</time></trkpt><trkpt lat="44.70769618853783" lon="10.230452013771385"><ele>171.0</ele><time>2026-04-04T10:15:12.999Z</time></trkpt><trkpt lat="44.7078707452744" lon="10.230514297946058"><ele>171.0</ele><time>2026-04-04T10:15:13.999Z</time></trkpt><trkpt lat="44.70804062872332" lon="10.230578054250387"><ele>171.0</ele><time>2026-04-04T10:15:14.999Z</time></trkpt><trkpt lat="44.70820651142375" lon="10.230630884467656"><ele>171.0</ele><time>2026-04-04T10:15:15.999Z</time></trkpt><trkpt lat="44.70836869737736" lon="10.230679328827703"><ele>171.0</ele><time>2026-04-04T10:15:16.999Z</time></trkpt><trkpt lat="44.70852553026337" lon="10.23073077033866"><ele>170.5</ele><time>2026-04-04T10:15:17.999Z</time></trkpt><trkpt lat="44.70867453343355" lon="10.230782155096183"><ele>170.0</ele><time>2026-04-04T10:15:18.999Z</time></trkpt><trkpt lat="44.70881757991445" lon="10.230839012428039"><ele>169.5</ele><time>2026-04-04T10:15:19.999Z</time></trkpt><trkpt lat="44.708958484251404" lon="10.230892564151267"><ele>169.0</ele><time>2026-04-04T10:15:20.999Z</time></trkpt><trkpt lat="44.709094211951" lon="10.23091078257428"><ele>169.0</ele><time>2026-04-04T10:15:21.999Z</time></trkpt><trkpt lat="44.70923101227788" lon="10.2309796138426"><ele>169.0</ele><time>2026-04-04T10:15:22.999Z</time></trkpt><trkpt lat="44.70938070507018" lon="10.231016078133624"><ele>169.0</ele><time>2026-04-04T10:15:23.999Z</time></trkpt><trkpt lat="44.709533225483426" lon="10.231060958073511"><ele>168.66666666666669</ele><time>2026-04-04T10:15:24.999Z</time></trkpt><trkpt lat="44.7096845423603" lon="10.231113413138171"><ele>168.33333333333334</ele><time>2026-04-04T10:15:25.999Z</time></trkpt><trkpt lat="44.70983373521818" lon="10.231165319726314"><ele>168.0</ele><time>2026-04-04T10:15:26.999Z</time></trkpt><trkpt lat="44.70997117024615" lon="10.231216226505838"><ele>168.0</ele><time>2026-04-04T10:15:27.999Z</time></trkpt><trkpt lat="44.71010477650173" lon="10.231258826537317"><ele>168.0</ele><time>2026-04-04T10:15:28.999Z</time></trkpt><trkpt lat="44.710236112885134" lon="10.23130737927401"><ele>168.0</ele><time>2026-04-04T10:15:29.999Z</time></trkpt><trkpt lat="44.71036593680578" lon="10.231352122371176"><ele>168.0</ele><time>2026-04-04T10:15:30.999Z</time></trkpt><trkpt lat="44.710480301882384" lon="10.231392025221043"><ele>168.0</ele><time>2026-04-04T10:15:31.999Z</time></trkpt><trkpt lat="44.710589672535995" lon="10.231420387005498"><ele>168.0</ele><time>2026-04-04T10:15:32.999Z</time></trkpt><trkpt lat="44.71068755322338" lon="10.231461092525784"><ele>168.0</ele><time>2026-04-04T10:15:33.999Z</time></trkpt><trkpt lat="44.71078604979246" lon="10.23148248269892"><ele>168.0</ele><time>2026-04-04T10:15:34.999Z</time></trkpt><trkpt lat="44.71087636610524" lon="10.23152188383694"><ele>168.0</ele><time>2026-04-04T10:15:36Z</time></trkpt><trkpt lat="44.71097078677697" lon="10.231552337242622"><ele>168.0</ele><time>2026-04-04T10:15:37Z</time></trkpt><trkpt lat="44.71107698401855" lon="10.231586549630466"><ele>168.0</ele><time>2026-04-04T10:15:38Z</time></trkpt><trkpt lat="44.71118799364695" lon="10.23160571167136"><ele>168.0</ele><time>2026-04-04T10:15:39Z</time></trkpt><trkpt lat="44.71129795686696" lon="10.23164240949271"><ele>168.0</ele><time>2026-04-04T10:15:40Z</time></trkpt><trkpt lat="44.71141720548054" lon="10.231704483378248"><ele>168.0</ele><time>2026-04-04T10:15:41Z</time></trkpt><trkpt lat="44.71154323357851" lon="10.231737779582849"><ele>168.0</ele><time>2026-04-04T10:15:42Z</time></trkpt><trkpt lat="44.7116662073153" lon="10.231767721580056"><ele>168.0</ele><time>2026-04-04T10:15:43Z</time></trkpt><trkpt lat="44.71178005396085" lon="10.231805683912288"><ele>168.0</ele><time>2026-04-04T10:15:44Z</time></trkpt><trkpt lat="44.71188739147754" lon="10.231844249325851"><ele>167.60000000000002</ele><time>2026-04-04T10:15:45Z</time></trkpt><trkpt lat="44.711958603389014" lon="10.231877469182882"><ele>167.20000000000002</ele><time>2026-04-04T10:15:46Z</time></trkpt><trkpt lat="44.71206655305344" lon="10.231928916025643"><ele>166.8</ele><time>2026-04-04T10:15:47Z</time></trkpt><trkpt lat="44.71213474270751" lon="10.231980570772333"><ele>166.4</ele><time>2026-04-04T10:15:48Z</time></trkpt><trkpt lat="44.71222856808711" lon="10.232088528945383"><ele>166.0</ele><time>2026-04-04T10:15:50Z</time></trkpt><trkpt lat="44.7122521958361" lon="10.232188560045433"><ele>166.25</ele><time>2026-04-04T10:15:52Z</time></trkpt><trkpt lat="44.71218137398147" lon="10.232352961826855"><ele>166.5</ele><time>2026-04-04T10:15:54Z</time></trkpt><trkpt lat="44.71211050696624" lon="10.23246482303028"><ele>166.75</ele><time>2026-04-04T10:15:55Z</time></trkpt><trkpt lat="44.71204358339767" lon="10.232602642084425"><ele>167.0</ele><time>2026-04-04T10:15:56Z</time></trkpt><trkpt lat="44.71198431157234" lon="10.232756377506863"><ele>167.0</ele><time>2026-04-04T10:15:57Z</time></trkpt><trkpt lat="44.71191041894081" lon="10.23297231624299"><ele>167.0</ele><time>2026-04-04T10:15:58Z</time></trkpt><trkpt lat="44.71181699983219" lon="10.233151935773119"><ele>167.0</ele><time>2026-04-04T10:15:59Z</time></trkpt><trkpt lat="44.711736769876374" lon="10.233338913998871"><ele>167.0</ele><time>2026-04-04T10:16:00Z</time></trkpt><trkpt lat="44.711670775369235" lon="10.233499750731898"><ele>167.0</ele><time>2026-04-04T10:16:01Z</time></trkpt><trkpt lat="44.71159585772747" lon="10.23366414137764"><ele>167.0</ele><time>2026-04-04T10:16:02Z</time></trkpt><trkpt lat="44.71152253204686" lon="10.233836348758024"><ele>167.0</ele><time>2026-04-04T10:16:03Z</time></trkpt><trkpt lat="44.71145006394315" lon="10.233999448937178"><ele>166.39999999999998</ele><time>2026-04-04T10:16:04Z</time></trkpt><trkpt lat="44.71138449603893" lon="10.234139852388513"><ele>165.79999999999998</ele><time>2026-04-04T10:16:05Z</time></trkpt><trkpt lat="44.71132774755679" lon="10.234265150885555"><ele>165.2</ele><time>2026-04-04T10:16:06Z</time></trkpt><trkpt lat="44.71127740176024" lon="10.234377183578813"><ele>164.6</ele><time>2026-04-04T10:16:07Z</time></trkpt><trkpt lat="44.71122967228659" lon="10.23448370895751"><ele>164.0</ele><time>2026-04-04T10:16:08Z</time></trkpt><trkpt lat="44.71118369178094" lon="10.23460351690667"><ele>164.0</ele><time>2026-04-04T10:16:09Z</time></trkpt><trkpt lat="44.71113326146481" lon="10.234732365294212"><ele>164.0</ele><time>2026-04-04T10:16:10Z</time></trkpt><trkpt lat="44.711065574494235" lon="10.234854218962097"><ele>164.0</ele><time>2026-04-04T10:16:11Z</time></trkpt><trkpt lat="44.71099115645944" lon="10.235024009198344"><ele>164.0</ele><time>2026-04-04T10:16:12Z</time></trkpt><trkpt lat="44.71089531955554" lon="10.23524369552312"><ele>164.0</ele><time>2026-04-04T10:16:13Z</time></trkpt><trkpt lat="44.71078501656133" lon="10.235496643215994"><ele>164.0</ele><time>2026-04-04T10:16:14Z</time></trkpt><trkpt lat="44.710661580348976" lon="10.235782321001718"><ele>164.0</ele><time>2026-04-04T10:16:15Z</time></trkpt><trkpt lat="44.71054023013822" lon="10.23606350305343"><ele>163.66666666666666</ele><time>2026-04-04T10:16:16Z</time></trkpt><trkpt lat="44.71044809483259" lon="10.236281498251143"><ele>163.33333333333334</ele><time>2026-04-04T10:16:17Z</time></trkpt><trkpt lat="44.71035572176972" lon="10.236461048562397"><ele>163.0</ele><time>2026-04-04T10:16:18Z</time></trkpt><trkpt lat="44.71020544872492" lon="10.236861571481365"><ele>163.0</ele><time>2026-04-04T10:16:19Z</time></trkpt><trkpt lat="44.710110544865614" lon="10.237098757999595"><ele>163.0</ele><time>2026-04-04T10:16:20Z</time></trkpt><trkpt lat="44.71001569779622" lon="10.237313609680019"><ele>163.0</ele><time>2026-04-04T10:16:21Z</time></trkpt><trkpt lat="44.709928798327326" lon="10.237513666895383"><ele>163.75</ele><time>2026-04-04T10:16:22Z</time></trkpt><trkpt lat="44.709846447020595" lon="10.23770453108324"><ele>164.5</ele><time>2026-04-04T10:16:23Z</time></trkpt><trkpt lat="44.70976824333782" lon="10.237881363699325"><ele>165.25</ele><time>2026-04-04T10:16:24Z</time></trkpt><trkpt lat="44.709699407626175" lon="10.23805034207411"><ele>166.0</ele><time>2026-04-04T10:16:25Z</time></trkpt><trkpt lat="44.70963201895526" lon="10.23821330707848"><ele>166.25</ele><time>2026-04-04T10:16:26Z</time></trkpt><trkpt lat="44.70955954301083" lon="10.238380829810085"><ele>166.5</ele><time>2026-04-04T10:16:27Z</time></trkpt><trkpt lat="44.7094792897906" lon="10.238554397656216"><ele>166.75</ele><time>2026-04-04T10:16:28Z</time></trkpt><trkpt lat="44.709402006331004" lon="10.238724330495536"><ele>167.0</ele><time>2026-04-04T10:16:29Z</time></trkpt><trkpt lat="44.70933002128425" lon="10.238894151425054"><ele>168.0</ele><time>2026-04-04T10:16:30Z</time></trkpt><trkpt lat="44.709252880772425" lon="10.239058322709655"><ele>169.0</ele><time>2026-04-04T10:16:31Z</time></trkpt><trkpt lat="44.70918448377958" lon="10.239214180902602"><ele>170.0</ele><time>2026-04-04T10:16:32Z</time></trkpt><trkpt lat="44.709129087895505" lon="10.239340195736157"><ele>171.0</ele><time>2026-04-04T10:16:33Z</time></trkpt><trkpt lat="44.70908440053214" lon="10.239431785350954"><ele>171.0</ele><time>2026-04-04T10:16:34Z</time></trkpt><trkpt lat="44.70904370930846" lon="10.239505442021306"><ele>171.0</ele><time>2026-04-04T10:16:35Z</time></trkpt><trkpt lat="44.708971339069066" lon="10.239641946707941"><ele>171.0</ele><time>2026-04-04T10:16:37Z</time></trkpt><trkpt lat="44.708895133201985" lon="10.23975326147885"><ele>171.0</ele><time>2026-04-04T10:16:38.999Z</time></trkpt><trkpt lat="44.708841261728004" lon="10.239803592081282"><ele>171.0</ele><time>2026-04-04T10:16:39.999Z</time></trkpt><trkpt lat="44.708719803477344" lon="10.239749286203502"><ele>171.0</ele><time>2026-04-04T10:16:40.999Z</time></trkpt><trkpt lat="44.708636845391965" lon="10.239799309969131"><ele>171.0</ele><time>2026-04-04T10:16:41.999Z</time></trkpt><trkpt lat="44.70857179751966" lon="10.239883004619111"><ele>171.0</ele><time>2026-04-04T10:16:42.999Z</time></trkpt><trkpt lat="44.708529334132955" lon="10.23999065276294"><ele>171.0</ele><time>2026-04-04T10:16:43.999Z</time></trkpt><trkpt lat="44.70852347443991" lon="10.240118256162456"><ele>171.0</ele><time>2026-04-04T10:16:44.999Z</time></trkpt><trkpt lat="44.70855068191933" lon="10.24023925335413"><ele>171.0</ele><time>2026-04-04T10:16:45.999Z</time></trkpt><trkpt lat="44.70861210296005" lon="10.240336817225527"><ele>170.60000000000002</ele><time>2026-04-04T10:16:46.999Z</time></trkpt><trkpt lat="44.708699304430446" lon="10.240397503189149"><ele>170.2</ele><time>2026-04-04T10:16:47.999Z</time></trkpt><trkpt lat="44.70880427788373" lon="10.240419636544566"><ele>169.8</ele><time>2026-04-04T10:16:48.999Z</time></trkpt><trkpt lat="44.708896197873294" lon="10.240337924394478"><ele>169.39999999999998</ele><time>2026-04-04T10:16:49.999Z</time></trkpt><trkpt lat="44.70896019064898" lon="10.240280044253641"><ele>169.0</ele><time>2026-04-04T10:16:50.999Z</time></trkpt><trkpt lat="44.70907864675479" lon="10.240427264834977"><ele>169.0</ele><time>2026-04-04T10:16:51.999Z</time></trkpt><trkpt lat="44.70916878713634" lon="10.240531425254037"><ele>169.0</ele><time>2026-04-04T10:16:52.999Z</time></trkpt><trkpt lat="44.70924812407994" lon="10.240654941690195"><ele>169.0</ele><time>2026-04-04T10:16:53.999Z</time></trkpt><trkpt lat="44.70932963801022" lon="10.240801889330537"><ele>169.0</ele><time>2026-04-04T10:16:54.999Z</time></trkpt><trkpt lat="44.70939423511998" lon="10.240977491255702"><ele>168.0</ele><time>2026-04-04T10:16:55.999Z</time></trkpt><trkpt lat="44.709446451306384" lon="10.241193018976809"><ele>167.0</ele><time>2026-04-04T10:16:56.999Z</time></trkpt><trkpt lat="44.70950977002205" lon="10.241446598946244"><ele>166.0</ele><time>2026-04-04T10:16:57.999Z</time></trkpt><trkpt lat="44.70961394782578" lon="10.241732630453441"><ele>166.0</ele><time>2026-04-04T10:16:58.999Z</time></trkpt><trkpt lat="44.70974446152938" lon="10.242051805620141"><ele>166.0</ele><time>2026-04-04T10:16:59.999Z</time></trkpt><trkpt lat="44.709901632299285" lon="10.242394705045147"><ele>164.5</ele><time>2026-04-04T10:17:00.999Z</time></trkpt><trkpt lat="44.71004146181221" lon="10.242704691006425"><ele>163.0</ele><time>2026-04-04T10:17:01.999Z</time></trkpt><trkpt lat="44.71015989270323" lon="10.242948357033194"><ele>162.5</ele><time>2026-04-04T10:17:02.999Z</time></trkpt><trkpt lat="44.71025122157196" lon="10.24312725450308"><ele>162.0</ele><time>2026-04-04T10:17:03.999Z</time></trkpt><trkpt lat="44.710310607852364" lon="10.24322141805866"><ele>161.5</ele><time>2026-04-04T10:17:04.999Z</time></trkpt><trkpt lat="44.710382242822206" lon="10.24332061385707"><ele>161.0</ele><time>2026-04-04T10:17:05.999Z</time></trkpt><trkpt lat="44.71049480669993" lon="10.243469313404097"><ele>161.0</ele><time>2026-04-04T10:17:06.999Z</time></trkpt><trkpt lat="44.7106244841636" lon="10.24364996412269"><ele>161.0</ele><time>2026-04-04T10:17:07.999Z</time></trkpt><trkpt lat="44.71077672301786" lon="10.243822942905336"><ele>161.0</ele><time>2026-04-04T10:17:08.999Z</time></trkpt><trkpt lat="44.71095586313892" lon="10.24399525428978"><ele>161.33333333333331</ele><time>2026-04-04T10:17:09.999Z</time></trkpt><trkpt lat="44.711141178497556" lon="10.24416346377135"><ele>161.66666666666666</ele><time>2026-04-04T10:17:10.999Z</time></trkpt><trkpt lat="44.71132397082714" lon="10.244334371493489"><ele>162.0</ele><time>2026-04-04T10:17:11.999Z</time></trkpt><trkpt lat="44.71150683198103" lon="10.244504492556905"><ele>162.0</ele><time>2026-04-04T10:17:12.999Z</time></trkpt><trkpt lat="44.71168320360447" lon="10.244667302541437"><ele>162.0</ele><time>2026-04-04T10:17:13.999Z</time></trkpt><trkpt lat="44.71185523320538" lon="10.244832230167955"><ele>162.0</ele><time>2026-04-04T10:17:14.999Z</time></trkpt><trkpt lat="44.712030840723365" lon="10.244998123043802"><ele>161.33333333333334</ele><time>2026-04-04T10:17:15.999Z</time></trkpt><trkpt lat="44.712205051813044" lon="10.245160612562431"><ele>160.66666666666669</ele><time>2026-04-04T10:17:16.999Z</time></trkpt><trkpt lat="44.7123809194538" lon="10.245309932758978"><ele>160.0</ele><time>2026-04-04T10:17:17.999Z</time></trkpt><trkpt lat="44.71256836215219" lon="10.245451665330394"><ele>159.66666666666669</ele><time>2026-04-04T10:17:18.999Z</time></trkpt><trkpt lat="44.7127727583632" lon="10.245568444452088"><ele>159.33333333333334</ele><time>2026-04-04T10:17:19.999Z</time></trkpt><trkpt lat="44.71297911418189" lon="10.245669644953741"><ele>159.0</ele><time>2026-04-04T10:17:20.999Z</time></trkpt><trkpt lat="44.7131834973458" lon="10.245778657140052"><ele>159.0</ele><time>2026-04-04T10:17:21.999Z</time></trkpt><trkpt lat="44.71338635568715" lon="10.24589563762346"><ele>159.0</ele><time>2026-04-04T10:17:22.999Z</time></trkpt><trkpt lat="44.71358712432895" lon="10.246011921460285"><ele>159.0</ele><time>2026-04-04T10:17:23.999Z</time></trkpt><trkpt lat="44.71378182876079" lon="10.246140930275411"><ele>158.33333333333334</ele><time>2026-04-04T10:17:24.999Z</time></trkpt><trkpt lat="44.713973858734875" lon="10.246282549305484"><ele>157.66666666666669</ele><time>2026-04-04T10:17:25.999Z</time></trkpt><trkpt lat="44.714165499942176" lon="10.246417904903804"><ele>157.0</ele><time>2026-04-04T10:17:26.999Z</time></trkpt><trkpt lat="44.71435630786004" lon="10.246546717796376"><ele>156.33333333333334</ele><time>2026-04-04T10:17:27.999Z</time></trkpt><trkpt lat="44.71454018797944" lon="10.246674772054321"><ele>155.66666666666666</ele><time>2026-04-04T10:17:28.999Z</time></trkpt><trkpt lat="44.71473200425346" lon="10.246780891912389"><ele>155.0</ele><time>2026-04-04T10:17:29.999Z</time></trkpt><trkpt lat="44.714939450785906" lon="10.246859307446845"><ele>155.0</ele><time>2026-04-04T10:17:30.999Z</time></trkpt><trkpt lat="44.71514346932894" lon="10.246915404603236"><ele>155.0</ele><time>2026-04-04T10:17:31.999Z</time></trkpt><trkpt lat="44.7153420381801" lon="10.246965547598203"><ele>155.0</ele><time>2026-04-04T10:17:32.999Z</time></trkpt><trkpt lat="44.71552735216666" lon="10.247025893572511"><ele>154.33333333333331</ele><time>2026-04-04T10:17:33.999Z</time></trkpt><trkpt lat="44.715692597517126" lon="10.247088092680649"><ele>153.66666666666666</ele><time>2026-04-04T10:17:34.999Z</time></trkpt><trkpt lat="44.71586591182767" lon="10.247144644096617"><ele>153.0</ele><time>2026-04-04T10:17:35.999Z</time></trkpt><trkpt lat="44.716034740870825" lon="10.24716109144469"><ele>153.0</ele><time>2026-04-04T10:17:36.999Z</time></trkpt><trkpt lat="44.71621520426767" lon="10.247157859085952"><ele>153.0</ele><time>2026-04-04T10:17:37.999Z</time></trkpt><trkpt lat="44.7164112689669" lon="10.247139451261907"><ele>153.0</ele><time>2026-04-04T10:17:38.999Z</time></trkpt><trkpt lat="44.716631746713915" lon="10.247113851215632"><ele>153.0</ele><time>2026-04-04T10:17:39.999Z</time></trkpt><trkpt lat="44.716831909775024" lon="10.247089138564334"><ele>153.0</ele><time>2026-04-04T10:17:40.999Z</time></trkpt><trkpt lat="44.71705926251689" lon="10.247078223396738"><ele>153.0</ele><time>2026-04-04T10:17:42Z</time></trkpt><trkpt lat="44.71726786539077" lon="10.247067721266106"><ele>153.33333333333334</ele><time>2026-04-04T10:17:43Z</time></trkpt><trkpt lat="44.71747422990299" lon="10.247072503998332"><ele>153.66666666666669</ele><time>2026-04-04T10:17:44Z</time></trkpt><trkpt lat="44.71768091096623" lon="10.247100630549859"><ele>154.0</ele><time>2026-04-04T10:17:45Z</time></trkpt><trkpt lat="44.717888399083" lon="10.247140509247442"><ele>154.0</ele><time>2026-04-04T10:17:46Z</time></trkpt><trkpt lat="44.71809006787713" lon="10.2471761729691"><ele>154.0</ele><time>2026-04-04T10:17:47Z</time></trkpt><trkpt lat="44.718287432006704" lon="10.24721740610125"><ele>154.0</ele><time>2026-04-04T10:17:48Z</time></trkpt><trkpt lat="44.71848149647987" lon="10.247281734677879"><ele>154.0</ele><time>2026-04-04T10:17:49Z</time></trkpt><trkpt lat="44.71868135171239" lon="10.247373356099875"><ele>154.0</ele><time>2026-04-04T10:17:50Z</time></trkpt><trkpt lat="44.71887270835526" lon="10.247471933627995"><ele>154.0</ele><time>2026-04-04T10:17:51Z</time></trkpt><trkpt lat="44.71905857648815" lon="10.247568823344693"><ele>154.0</ele><time>2026-04-04T10:17:52Z</time></trkpt><trkpt lat="44.71924305585929" lon="10.247660607105988"><ele>154.0</ele><time>2026-04-04T10:17:53Z</time></trkpt><trkpt lat="44.71943570793851" lon="10.24775961851069"><ele>154.0</ele><time>2026-04-04T10:17:54Z</time></trkpt><trkpt lat="44.71963141728646" lon="10.247839880967172"><ele>153.66666666666669</ele><time>2026-04-04T10:17:55Z</time></trkpt><trkpt lat="44.71983413739024" lon="10.247901782427885"><ele>153.33333333333334</ele><time>2026-04-04T10:17:56Z</time></trkpt><trkpt lat="44.72005117190977" lon="10.247935230606544"><ele>153.0</ele><time>2026-04-04T10:17:57Z</time></trkpt><trkpt lat="44.72029405318461" lon="10.247962090489532"><ele>152.0</ele><time>2026-04-04T10:17:58Z</time></trkpt><trkpt lat="44.72055887573658" lon="10.248001212645665"><ele>151.0</ele><time>2026-04-04T10:17:59Z</time></trkpt><trkpt lat="44.72083549812729" lon="10.248048713042722"><ele>150.5</ele><time>2026-04-04T10:18:00Z</time></trkpt><trkpt lat="44.72111683362082" lon="10.248094192082359"><ele>150.0</ele><time>2026-04-04T10:18:01Z</time></trkpt><trkpt lat="44.721357219698575" lon="10.248157397990983"><ele>150.0</ele><time>2026-04-04T10:18:02Z</time></trkpt><trkpt lat="44.72157770567473" lon="10.248209453769546"><ele>150.0</ele><time>2026-04-04T10:18:03Z</time></trkpt><trkpt lat="44.721966610015144" lon="10.248256317873764"><ele>147.5</ele><time>2026-04-04T10:18:04Z</time></trkpt><trkpt lat="44.72222921278369" lon="10.248331785460698"><ele>145.0</ele><time>2026-04-04T10:18:05Z</time></trkpt><trkpt lat="44.72249052497583" lon="10.248462955188993"><ele>145.0</ele><time>2026-04-04T10:18:06Z</time></trkpt><trkpt lat="44.722755709922566" lon="10.248658355720496"><ele>145.0</ele><time>2026-04-04T10:18:07Z</time></trkpt><trkpt lat="44.72303484406537" lon="10.248848254598844"><ele>145.0</ele><time>2026-04-04T10:18:08Z</time></trkpt><trkpt lat="44.72329430143474" lon="10.249016670191851"><ele>145.0</ele><time>2026-04-04T10:18:09Z</time></trkpt><trkpt lat="44.723539585067385" lon="10.24916816826691"><ele>145.0</ele><time>2026-04-04T10:18:10Z</time></trkpt><trkpt lat="44.72377944342788" lon="10.249310825803141"><ele>145.0</ele><time>2026-04-04T10:18:11Z</time></trkpt><trkpt lat="44.72401053182206" lon="10.249451718423392"><ele>145.0</ele><time>2026-04-04T10:18:12Z</time></trkpt><trkpt lat="44.72423414770377" lon="10.249585653689811"><ele>145.0</ele><time>2026-04-04T10:18:13Z</time></trkpt><trkpt lat="44.72444646759385" lon="10.24970570891677"><ele>144.66666666666669</ele><time>2026-04-04T10:18:14Z</time></trkpt><trkpt lat="44.72464054981304" lon="10.249816200572013"><ele>144.33333333333334</ele><time>2026-04-04T10:18:15Z</time></trkpt><trkpt lat="44.72482309123115" lon="10.249931549596164"><ele>144.0</ele><time>2026-04-04T10:18:16Z</time></trkpt><trkpt lat="44.72496693087161" lon="10.250088550722216"><ele>144.0</ele><time>2026-04-04T10:18:17Z</time></trkpt><trkpt lat="44.725098186697636" lon="10.250307205689374"><ele>144.0</ele><time>2026-04-04T10:18:18Z</time></trkpt><trkpt lat="44.72524555987156" lon="10.25056468430105"><ele>144.0</ele><time>2026-04-04T10:18:19Z</time></trkpt><trkpt lat="44.72539526153615" lon="10.250817287472685"><ele>144.33333333333334</ele><time>2026-04-04T10:18:20Z</time></trkpt><trkpt lat="44.725537767452515" lon="10.251039088203814"><ele>144.66666666666669</ele><time>2026-04-04T10:18:21Z</time></trkpt><trkpt lat="44.725727983687385" lon="10.251183105411773"><ele>145.0</ele><time>2026-04-04T10:18:22Z</time></trkpt><trkpt lat="44.72594027061183" lon="10.251324761439376"><ele>142.5</ele><time>2026-04-04T10:18:23Z</time></trkpt><trkpt lat="44.72618080736698" lon="10.25148901234168"><ele>140.0</ele><time>2026-04-04T10:18:24Z</time></trkpt><trkpt lat="44.72643731084859" lon="10.251645971044741"><ele>140.0</ele><time>2026-04-04T10:18:25Z</time></trkpt><trkpt lat="44.726712130382694" lon="10.251811282639052"><ele>140.0</ele><time>2026-04-04T10:18:26Z</time></trkpt><trkpt lat="44.72695113997819" lon="10.251986957709585"><ele>140.0</ele><time>2026-04-04T10:18:27Z</time></trkpt><trkpt lat="44.727178068124985" lon="10.252182880116369"><ele>140.0</ele><time>2026-04-04T10:18:28Z</time></trkpt><trkpt lat="44.72738932519972" lon="10.252428080394981"><ele>140.0</ele><time>2026-04-04T10:18:29Z</time></trkpt><trkpt lat="44.7275970911982" lon="10.25271679608976"><ele>140.0</ele><time>2026-04-04T10:18:30Z</time></trkpt><trkpt lat="44.72779821801836" lon="10.253001763874359"><ele>140.0</ele><time>2026-04-04T10:18:31Z</time></trkpt><trkpt lat="44.72795819781243" lon="10.253230157639468"><ele>140.0</ele><time>2026-04-04T10:18:32Z</time></trkpt><trkpt lat="44.7281676122854" lon="10.253495341004264"><ele>140.0</ele><time>2026-04-04T10:18:33Z</time></trkpt><trkpt lat="44.72833350872941" lon="10.253713755875008"><ele>140.0</ele><time>2026-04-04T10:18:34Z</time></trkpt><trkpt lat="44.72849311406202" lon="10.253903829230412"><ele>140.0</ele><time>2026-04-04T10:18:35Z</time></trkpt><trkpt lat="44.72865175915289" lon="10.254064259468342"><ele>139.33333333333331</ele><time>2026-04-04T10:18:36Z</time></trkpt><trkpt lat="44.72881324845114" lon="10.25418192082261"><ele>138.66666666666666</ele><time>2026-04-04T10:18:37Z</time></trkpt><trkpt lat="44.728976205856775" lon="10.254260181545755"><ele>138.0</ele><time>2026-04-04T10:18:38Z</time></trkpt><trkpt lat="44.72910715118682" lon="10.254318020680646"><ele>138.0</ele><time>2026-04-04T10:18:39Z</time></trkpt><trkpt lat="44.72922040885432" lon="10.25437979078877"><ele>138.0</ele><time>2026-04-04T10:18:40Z</time></trkpt><trkpt lat="44.72930493983198" lon="10.25445042928717"><ele>138.0</ele><time>2026-04-04T10:18:41Z</time></trkpt><trkpt lat="44.729374360384604" lon="10.254483363484004"><ele>138.0</ele><time>2026-04-04T10:18:42Z</time></trkpt><trkpt lat="44.72932876499705" lon="10.254796800385993"><ele>137.33333333333334</ele><time>2026-04-04T10:18:44Z</time></trkpt><trkpt lat="44.729276418572994" lon="10.254983569771197"><ele>136.66666666666669</ele><time>2026-04-04T10:18:45Z</time></trkpt><trkpt lat="44.72919142839762" lon="10.255256964524188"><ele>136.0</ele><time>2026-04-04T10:18:46Z</time></trkpt><trkpt lat="44.729112515398995" lon="10.255555134775042"><ele>135.0</ele><time>2026-04-04T10:18:47Z</time></trkpt><trkpt lat="44.72901407646629" lon="10.255865828339774"><ele>134.0</ele><time>2026-04-04T10:18:48Z</time></trkpt><trkpt lat="44.728880494443764" lon="10.256252283473533"><ele>135.0</ele><time>2026-04-04T10:18:49Z</time></trkpt><trkpt lat="44.72875376926692" lon="10.256663211956168"><ele>136.0</ele><time>2026-04-04T10:18:50Z</time></trkpt><trkpt lat="44.72868123218981" lon="10.256947594491525"><ele>136.0</ele><time>2026-04-04T10:18:50.999Z</time></trkpt><trkpt lat="44.72859915131998" lon="10.25716458783632"><ele>136.0</ele><time>2026-04-04T10:18:51.999Z</time></trkpt><trkpt lat="44.7284491832704" lon="10.257708215554533"><ele>136.5</ele><time>2026-04-04T10:18:52.999Z</time></trkpt><trkpt lat="44.728331408297734" lon="10.258096450766546"><ele>137.0</ele><time>2026-04-04T10:18:53.999Z</time></trkpt><trkpt lat="44.72819298414833" lon="10.258497273402885"><ele>137.0</ele><time>2026-04-04T10:18:54.999Z</time></trkpt><trkpt lat="44.72806760416228" lon="10.258910251700874"><ele>137.0</ele><time>2026-04-04T10:18:55.999Z</time></trkpt><trkpt lat="44.727948653914" lon="10.259292871945888"><ele>137.0</ele><time>2026-04-04T10:18:56.999Z</time></trkpt><trkpt lat="44.727837144401256" lon="10.259651504349229"><ele>137.0</ele><time>2026-04-04T10:18:57.999Z</time></trkpt><trkpt lat="44.727726602965795" lon="10.260007023155808"><ele>136.5</ele><time>2026-04-04T10:18:58.999Z</time></trkpt><trkpt lat="44.727636938940705" lon="10.260353883955323"><ele>136.0</ele><time>2026-04-04T10:18:59.999Z</time></trkpt><trkpt lat="44.72752499122578" lon="10.260662022088395"><ele>136.0</ele><time>2026-04-04T10:19:00.999Z</time></trkpt><trkpt lat="44.72742954144628" lon="10.260964204933067"><ele>136.0</ele><time>2026-04-04T10:19:01.999Z</time></trkpt><trkpt lat="44.72734098047293" lon="10.261244545548418"><ele>136.33333333333334</ele><time>2026-04-04T10:19:02.999Z</time></trkpt><trkpt lat="44.727259923320965" lon="10.261501132744097"><ele>136.66666666666666</ele><time>2026-04-04T10:19:03.999Z</time></trkpt><trkpt lat="44.72717557918928" lon="10.261728754018694"><ele>137.0</ele><time>2026-04-04T10:19:04.999Z</time></trkpt><trkpt lat="44.727081963138836" lon="10.26191358681386"><ele>137.0</ele><time>2026-04-04T10:19:05.999Z</time></trkpt><trkpt lat="44.727001413218936" lon="10.262077133086983"><ele>137.0</ele><time>2026-04-04T10:19:06.999Z</time></trkpt><trkpt lat="44.72693904617207" lon="10.262251645388314"><ele>137.0</ele><time>2026-04-04T10:19:07.999Z</time></trkpt><trkpt lat="44.72690616713643" lon="10.262501270020898"><ele>136.66666666666666</ele><time>2026-04-04T10:19:08.999Z</time></trkpt><trkpt lat="44.726880042534525" lon="10.262804304359001"><ele>136.33333333333334</ele><time>2026-04-04T10:19:09.999Z</time></trkpt><trkpt lat="44.726836349747614" lon="10.263121604864455"><ele>136.0</ele><time>2026-04-04T10:19:10.999Z</time></trkpt><trkpt lat="44.72678964831549" lon="10.263454428065435"><ele>135.0</ele><time>2026-04-04T10:19:11.999Z</time></trkpt><trkpt lat="44.72674111762937" lon="10.263795730685162"><ele>134.0</ele><time>2026-04-04T10:19:12.999Z</time></trkpt><trkpt lat="44.726688664768695" lon="10.264147718525937"><ele>134.0</ele><time>2026-04-04T10:19:13.999Z</time></trkpt><trkpt lat="44.72663707222454" lon="10.26449358882786"><ele>134.0</ele><time>2026-04-04T10:19:14.999Z</time></trkpt><trkpt lat="44.726588125262374" lon="10.264800281642337"><ele>134.0</ele><time>2026-04-04T10:19:15.999Z</time></trkpt><trkpt lat="44.726551646205266" lon="10.265074985629992"><ele>134.0</ele><time>2026-04-04T10:19:16.999Z</time></trkpt><trkpt lat="44.726506108971414" lon="10.265353165198679"><ele>134.0</ele><time>2026-04-04T10:19:17.999Z</time></trkpt><trkpt lat="44.72646352550469" lon="10.26564972341289"><ele>134.0</ele><time>2026-04-04T10:19:18.999Z</time></trkpt><trkpt lat="44.7264157607247" lon="10.265956577145095"><ele>134.0</ele><time>2026-04-04T10:19:19.999Z</time></trkpt><trkpt lat="44.72637239050352" lon="10.2662656477226"><ele>134.0</ele><time>2026-04-04T10:19:20.999Z</time></trkpt><trkpt lat="44.726326347388564" lon="10.266568899313969"><ele>133.0</ele><time>2026-04-04T10:19:21.999Z</time></trkpt><trkpt lat="44.72628056507305" lon="10.26687137059135"><ele>132.0</ele><time>2026-04-04T10:19:22.999Z</time></trkpt><trkpt lat="44.726237738962666" lon="10.267167903353286"><ele>131.0</ele><time>2026-04-04T10:19:23.999Z</time></trkpt><trkpt lat="44.72619454046469" lon="10.26746029373735"><ele>130.66666666666666</ele><time>2026-04-04T10:19:24.999Z</time></trkpt><trkpt lat="44.72615088327731" lon="10.267749139153356"><ele>130.33333333333334</ele><time>2026-04-04T10:19:25.999Z</time></trkpt><trkpt lat="44.726109164480995" lon="10.268028043955761"><ele>130.0</ele><time>2026-04-04T10:19:26.999Z</time></trkpt><trkpt lat="44.72606768998077" lon="10.26828807660291"><ele>130.66666666666669</ele><time>2026-04-04T10:19:27.999Z</time></trkpt><trkpt lat="44.72603557369823" lon="10.26852870086546"><ele>131.33333333333334</ele><time>2026-04-04T10:19:28.999Z</time></trkpt><trkpt lat="44.726000288698344" lon="10.268746914608185"><ele>132.0</ele><time>2026-04-04T10:19:29.999Z</time></trkpt><trkpt lat="44.72596767206883" lon="10.268954991104994"><ele>132.0</ele><time>2026-04-04T10:19:30.999Z</time></trkpt><trkpt lat="44.7259362502274" lon="10.26917205166706"><ele>132.0</ele><time>2026-04-04T10:19:31.999Z</time></trkpt><trkpt lat="44.725906966855185" lon="10.269400226782377"><ele>132.0</ele><time>2026-04-04T10:19:32.999Z</time></trkpt><trkpt lat="44.725877955244506" lon="10.269650448218094"><ele>132.0</ele><time>2026-04-04T10:19:33.999Z</time></trkpt><trkpt lat="44.72585448181522" lon="10.269909982109544"><ele>132.0</ele><time>2026-04-04T10:19:34.999Z</time></trkpt><trkpt lat="44.72583090723744" lon="10.27017182932586"><ele>132.0</ele><time>2026-04-04T10:19:35.999Z</time></trkpt><trkpt lat="44.72580814586494" lon="10.270429877745745"><ele>132.0</ele><time>2026-04-04T10:19:36.999Z</time></trkpt><trkpt lat="44.72578295220434" lon="10.270679035006367"><ele>132.0</ele><time>2026-04-04T10:19:37.999Z</time></trkpt><trkpt lat="44.72575732485978" lon="10.270915292737289"><ele>132.0</ele><time>2026-04-04T10:19:38.999Z</time></trkpt><trkpt lat="44.725736365743266" lon="10.271150719619813"><ele>132.0</ele><time>2026-04-04T10:19:39.999Z</time></trkpt><trkpt lat="44.725716315678824" lon="10.27139203678801"><ele>132.0</ele><time>2026-04-04T10:19:40.999Z</time></trkpt><trkpt lat="44.72569692273108" lon="10.271638502296149"><ele>132.0</ele><time>2026-04-04T10:19:41.999Z</time></trkpt><trkpt lat="44.72566606629819" lon="10.27187981785751"><ele>131.66666666666666</ele><time>2026-04-04T10:19:42.999Z</time></trkpt><trkpt lat="44.725641458869546" lon="10.272118358119036"><ele>131.33333333333331</ele><time>2026-04-04T10:19:43.999Z</time></trkpt><trkpt lat="44.725628880628626" lon="10.272332398853722"><ele>131.0</ele><time>2026-04-04T10:19:44.999Z</time></trkpt><trkpt lat="44.72561226965277" lon="10.272533411912226"><ele>131.0</ele><time>2026-04-04T10:19:45.999Z</time></trkpt><trkpt lat="44.725627610507274" lon="10.272727780261578"><ele>131.0</ele><time>2026-04-04T10:19:46.999Z</time></trkpt><trkpt lat="44.72566883687934" lon="10.272944270083958"><ele>131.0</ele><time>2026-04-04T10:19:48Z</time></trkpt><trkpt lat="44.72571581229071" lon="10.273171189137292"><ele>131.33333333333331</ele><time>2026-04-04T10:19:49Z</time></trkpt><trkpt lat="44.72575546107386" lon="10.273404859797674"><ele>131.66666666666666</ele><time>2026-04-04T10:19:50Z</time></trkpt><trkpt lat="44.72579043051161" lon="10.27364384759103"><ele>132.0</ele><time>2026-04-04T10:19:51Z</time></trkpt><trkpt lat="44.72582580420147" lon="10.273878305034563"><ele>132.33333333333334</ele><time>2026-04-04T10:19:52Z</time></trkpt><trkpt lat="44.72587298364852" lon="10.274114664626367"><ele>132.66666666666669</ele><time>2026-04-04T10:19:53Z</time></trkpt><trkpt lat="44.72588778556725" lon="10.274354276990131"><ele>133.0</ele><time>2026-04-04T10:19:54Z</time></trkpt><trkpt lat="44.7258947083426" lon="10.27462179402877"><ele>133.33333333333334</ele><time>2026-04-04T10:19:55Z</time></trkpt><trkpt lat="44.725895133508416" lon="10.274873104596573"><ele>133.66666666666666</ele><time>2026-04-04T10:19:56Z</time></trkpt><trkpt lat="44.725894360942085" lon="10.275097829009141"><ele>134.0</ele><time>2026-04-04T10:19:57Z</time></trkpt><trkpt lat="44.72588522109903" lon="10.275311754457364"><ele>134.0</ele><time>2026-04-04T10:19:58Z</time></trkpt><trkpt lat="44.725889486490445" lon="10.275535056874004"><ele>134.0</ele><time>2026-04-04T10:19:59Z</time></trkpt><trkpt lat="44.725918106506626" lon="10.275768002821366"><ele>134.0</ele><time>2026-04-04T10:20:00Z</time></trkpt><trkpt lat="44.72598209710754" lon="10.275980501796575"><ele>134.0</ele><time>2026-04-04T10:20:01Z</time></trkpt><trkpt lat="44.72605817875656" lon="10.27619829052947"><ele>134.0</ele><time>2026-04-04T10:20:02Z</time></trkpt><trkpt lat="44.72611291663031" lon="10.276370119529721"><ele>134.0</ele><time>2026-04-04T10:20:03Z</time></trkpt><trkpt lat="44.72615308535924" lon="10.276494389202966"><ele>134.0</ele><time>2026-04-04T10:20:04Z</time></trkpt><trkpt lat="44.726182185904946" lon="10.27660847423199"><ele>133.0</ele><time>2026-04-04T10:20:05Z</time></trkpt><trkpt lat="44.72620421278851" lon="10.276731793874939"><ele>132.0</ele><time>2026-04-04T10:20:06Z</time></trkpt><trkpt lat="44.72621472207964" lon="10.276849353882307"><ele>131.0</ele><time>2026-04-04T10:20:07Z</time></trkpt><trkpt lat="44.72622034480237" lon="10.276972617408155"><ele>130.0</ele><time>2026-04-04T10:20:08Z</time></trkpt><trkpt lat="44.726217557446276" lon="10.277084067055613"><ele>129.0</ele><time>2026-04-04T10:20:09Z</time></trkpt><trkpt lat="44.726155849682605" lon="10.277188689820774"><ele>128.0</ele><time>2026-04-04T10:20:10Z</time></trkpt><trkpt lat="44.726123052446496" lon="10.277323207827445"><ele>128.0</ele><time>2026-04-04T10:20:11Z</time></trkpt><trkpt lat="44.72608385726684" lon="10.277475162714818"><ele>128.0</ele><time>2026-04-04T10:20:12Z</time></trkpt><trkpt lat="44.726043436159664" lon="10.277631869981663"><ele>128.0</ele><time>2026-04-04T10:20:13Z</time></trkpt><trkpt lat="44.72599968642507" lon="10.27779498994568"><ele>128.0</ele><time>2026-04-04T10:20:14Z</time></trkpt><trkpt lat="44.725954249053245" lon="10.277973594947825"><ele>128.0</ele><time>2026-04-04T10:20:15Z</time></trkpt><trkpt lat="44.725910856680926" lon="10.278155843588156"><ele>128.0</ele><time>2026-04-04T10:20:16Z</time></trkpt><trkpt lat="44.7258699441247" lon="10.278328334550027"><ele>128.0</ele><time>2026-04-04T10:20:17Z</time></trkpt><trkpt lat="44.72582478745358" lon="10.278518719821513"><ele>128.0</ele><time>2026-04-04T10:20:18Z</time></trkpt><trkpt lat="44.72577889607603" lon="10.278712202515928"><ele>128.0</ele><time>2026-04-04T10:20:19Z</time></trkpt><trkpt lat="44.72573347019241" lon="10.278903721942447"><ele>128.0</ele><time>2026-04-04T10:20:20Z</time></trkpt><trkpt lat="44.725687488534085" lon="10.279093724978113"><ele>128.0</ele><time>2026-04-04T10:20:21Z</time></trkpt><trkpt lat="44.72564157248649" lon="10.279282805021891"><ele>128.0</ele><time>2026-04-04T10:20:22Z</time></trkpt><trkpt lat="44.72559459319457" lon="10.279474163948468"><ele>128.33333333333331</ele><time>2026-04-04T10:20:23Z</time></trkpt><trkpt lat="44.72554243677988" lon="10.279682489703465"><ele>128.66666666666666</ele><time>2026-04-04T10:20:24Z</time></trkpt><trkpt lat="44.72548296039071" lon="10.279920054468617"><ele>129.0</ele><time>2026-04-04T10:20:25Z</time></trkpt><trkpt lat="44.72542068594295" lon="10.28017208486961"><ele>128.33333333333334</ele><time>2026-04-04T10:20:26Z</time></trkpt><trkpt lat="44.72535093720515" lon="10.28045987140491"><ele>127.66666666666667</ele><time>2026-04-04T10:20:27Z</time></trkpt><trkpt lat="44.72528176865101" lon="10.28074788045878"><ele>127.0</ele><time>2026-04-04T10:20:28Z</time></trkpt><trkpt lat="44.72522638605408" lon="10.281050938463636"><ele>127.0</ele><time>2026-04-04T10:20:29Z</time></trkpt><trkpt lat="44.725160325949666" lon="10.281315606114683"><ele>127.0</ele><time>2026-04-04T10:20:30Z</time></trkpt><trkpt lat="44.725104401642206" lon="10.281551062564107"><ele>127.0</ele><time>2026-04-04T10:20:31Z</time></trkpt><trkpt lat="44.725060354947445" lon="10.281778890572653"><ele>127.0</ele><time>2026-04-04T10:20:32Z</time></trkpt><trkpt lat="44.72504845779443" lon="10.281965152195214"><ele>127.0</ele><time>2026-04-04T10:20:33Z</time></trkpt><trkpt lat="44.725117079686704" lon="10.282144685406372"><ele>127.0</ele><time>2026-04-04T10:20:34Z</time></trkpt><trkpt lat="44.72519779334279" lon="10.282342926856662"><ele>127.0</ele><time>2026-04-04T10:20:35Z</time></trkpt><trkpt lat="44.72527351805792" lon="10.282544343246688"><ele>127.0</ele><time>2026-04-04T10:20:36Z</time></trkpt><trkpt lat="44.72523473173221" lon="10.282793627832136"><ele>127.0</ele><time>2026-04-04T10:20:37Z</time></trkpt><trkpt lat="44.7251993690555" lon="10.28311515905168"><ele>127.0</ele><time>2026-04-04T10:20:38Z</time></trkpt><trkpt lat="44.72516570680559" lon="10.2834741358675"><ele>126.0</ele><time>2026-04-04T10:20:39Z</time></trkpt><trkpt lat="44.7251135841158" lon="10.28379867688233"><ele>125.0</ele><time>2026-04-04T10:20:40Z</time></trkpt><trkpt lat="44.725063465367015" lon="10.284145036048583"><ele>124.5</ele><time>2026-04-04T10:20:41Z</time></trkpt><trkpt lat="44.72503476545836" lon="10.284502862905644"><ele>124.0</ele><time>2026-04-04T10:20:42Z</time></trkpt><trkpt lat="44.72498235580067" lon="10.284882874367362"><ele>125.0</ele><time>2026-04-04T10:20:43Z</time></trkpt><trkpt lat="44.72492712426177" lon="10.285303381776945"><ele>126.0</ele><time>2026-04-04T10:20:44Z</time></trkpt><trkpt lat="44.724852277601805" lon="10.285741892199152"><ele>126.0</ele><time>2026-04-04T10:20:45Z</time></trkpt><trkpt lat="44.72478976650201" lon="10.286205819901006"><ele>126.0</ele><time>2026-04-04T10:20:46Z</time></trkpt><trkpt lat="44.724730634155044" lon="10.28664774193738"><ele>125.0</ele><time>2026-04-04T10:20:47Z</time></trkpt><trkpt lat="44.72467964794962" lon="10.287032274558003"><ele>124.0</ele><time>2026-04-04T10:20:48Z</time></trkpt><trkpt lat="44.72464793984685" lon="10.287394912909063"><ele>123.5</ele><time>2026-04-04T10:20:49Z</time></trkpt><trkpt lat="44.724596033047575" lon="10.287739429432055"><ele>123.0</ele><time>2026-04-04T10:20:50Z</time></trkpt><trkpt lat="44.724546454613346" lon="10.288093402317172"><ele>124.0</ele><time>2026-04-04T10:20:51Z</time></trkpt><trkpt lat="44.72450169613216" lon="10.28845054733493"><ele>125.0</ele><time>2026-04-04T10:20:52Z</time></trkpt><trkpt lat="44.72445484292088" lon="10.288809543979363"><ele>125.0</ele><time>2026-04-04T10:20:53Z</time></trkpt><trkpt lat="44.72440861724858" lon="10.289163003657457"><ele>125.0</ele><time>2026-04-04T10:20:54Z</time></trkpt><trkpt lat="44.7243427237103" lon="10.289516190701884"><ele>125.0</ele><time>2026-04-04T10:20:55Z</time></trkpt><trkpt lat="44.724287202710606" lon="10.289867662730014"><ele>125.0</ele><time>2026-04-04T10:20:56Z</time></trkpt><trkpt lat="44.72422831151686" lon="10.29022159742621"><ele>125.0</ele><time>2026-04-04T10:20:56.999Z</time></trkpt><trkpt lat="44.72416504162502" lon="10.290575922131316"><ele>125.0</ele><time>2026-04-04T10:20:57.999Z</time></trkpt><trkpt lat="44.72409885018777" lon="10.290933518409938"><ele>124.5</ele><time>2026-04-04T10:20:58.999Z</time></trkpt><trkpt lat="44.72402862893228" lon="10.29130414149197"><ele>124.0</ele><time>2026-04-04T10:20:59.999Z</time></trkpt><trkpt lat="44.72395344792158" lon="10.291695501327107"><ele>123.5</ele><time>2026-04-04T10:21:00.999Z</time></trkpt><trkpt lat="44.72388198209626" lon="10.292067521490807"><ele>123.0</ele><time>2026-04-04T10:21:01.999Z</time></trkpt><trkpt lat="44.72381977468425" lon="10.292395281084655"><ele>122.66666666666666</ele><time>2026-04-04T10:21:02.999Z</time></trkpt><trkpt lat="44.7237631255311" lon="10.292695905924013"><ele>122.33333333333333</ele><time>2026-04-04T10:21:03.999Z</time></trkpt><trkpt lat="44.72373433416183" lon="10.29294529670884"><ele>122.0</ele><time>2026-04-04T10:21:04.999Z</time></trkpt><trkpt lat="44.72369086237764" lon="10.29315344569377"><ele>122.0</ele><time>2026-04-04T10:21:05.999Z</time></trkpt><trkpt lat="44.7236550986247" lon="10.293346128151956"><ele>122.0</ele><time>2026-04-04T10:21:06.999Z</time></trkpt><trkpt lat="44.72361666656365" lon="10.293542472911772"><ele>122.0</ele><time>2026-04-04T10:21:07.999Z</time></trkpt><trkpt lat="44.723576150426936" lon="10.293760688997937"><ele>122.0</ele><time>2026-04-04T10:21:08.999Z</time></trkpt><trkpt lat="44.72353562830615" lon="10.294005588816077"><ele>122.33333333333333</ele><time>2026-04-04T10:21:09.999Z</time></trkpt><trkpt lat="44.72348699239194" lon="10.294258530888781"><ele>122.66666666666666</ele><time>2026-04-04T10:21:10.999Z</time></trkpt><trkpt lat="44.72343174497898" lon="10.294512680084264"><ele>123.0</ele><time>2026-04-04T10:21:11.999Z</time></trkpt><trkpt lat="44.723366388479214" lon="10.294760929633137"><ele>123.0</ele><time>2026-04-04T10:21:12.999Z</time></trkpt><trkpt lat="44.723250281483836" lon="10.295015165914515"><ele>123.0</ele><time>2026-04-04T10:21:13.999Z</time></trkpt><trkpt lat="44.7231199511198" lon="10.295286461207247"><ele>123.0</ele><time>2026-04-04T10:21:14.999Z</time></trkpt><trkpt lat="44.72300725151418" lon="10.295529136356297"><ele>122.66666666666666</ele><time>2026-04-04T10:21:15.999Z</time></trkpt><trkpt lat="44.72290738856752" lon="10.295738729887297"><ele>122.33333333333333</ele><time>2026-04-04T10:21:16.999Z</time></trkpt><trkpt lat="44.7228128911207" lon="10.29590978468382"><ele>122.0</ele><time>2026-04-04T10:21:17.999Z</time></trkpt><trkpt lat="44.72272854784279" lon="10.296125460763314"><ele>122.5</ele><time>2026-04-04T10:21:18.999Z</time></trkpt><trkpt lat="44.72265503642894" lon="10.296255743558701"><ele>123.0</ele><time>2026-04-04T10:21:19.999Z</time></trkpt><trkpt lat="44.722583486463286" lon="10.296411412903373"><ele>123.5</ele><time>2026-04-04T10:21:20.999Z</time></trkpt><trkpt lat="44.722521040407536" lon="10.296596366844136"><ele>124.0</ele><time>2026-04-04T10:21:21.999Z</time></trkpt><trkpt lat="44.72245533671413" lon="10.29678236714336"><ele>124.0</ele><time>2026-04-04T10:21:22.999Z</time></trkpt><trkpt lat="44.72238158563805" lon="10.296967667660846"><ele>124.0</ele><time>2026-04-04T10:21:23.999Z</time></trkpt><trkpt lat="44.722340772771375" lon="10.297152911871068"><ele>124.0</ele><time>2026-04-04T10:21:24.999Z</time></trkpt><trkpt lat="44.72224687782801" lon="10.29732543315969"><ele>124.0</ele><time>2026-04-04T10:21:25.999Z</time></trkpt><trkpt lat="44.722186286208995" lon="10.297524934843022"><ele>124.0</ele><time>2026-04-04T10:21:26.999Z</time></trkpt><trkpt lat="44.72211139786574" lon="10.297665918020682"><ele>124.0</ele><time>2026-04-04T10:21:27.999Z</time></trkpt><trkpt lat="44.7220262558007" lon="10.297817648025449"><ele>124.0</ele><time>2026-04-04T10:21:28.999Z</time></trkpt><trkpt lat="44.72193016011567" lon="10.297981100020072"><ele>124.0</ele><time>2026-04-04T10:21:29.999Z</time></trkpt><trkpt lat="44.721801223021416" lon="10.298160390303078"><ele>124.66666666666667</ele><time>2026-04-04T10:21:30.999Z</time></trkpt><trkpt lat="44.72171828826305" lon="10.298337476503956"><ele>125.33333333333334</ele><time>2026-04-04T10:21:31.999Z</time></trkpt><trkpt lat="44.721631629470565" lon="10.298543393195594"><ele>126.0</ele><time>2026-04-04T10:21:32.999Z</time></trkpt><trkpt lat="44.72154603103459" lon="10.298756648510018"><ele>126.0</ele><time>2026-04-04T10:21:33.999Z</time></trkpt><trkpt lat="44.72146531169665" lon="10.298964321448123"><ele>126.0</ele><time>2026-04-04T10:21:34.999Z</time></trkpt><trkpt lat="44.72143754064181" lon="10.299179374447133"><ele>126.0</ele><time>2026-04-04T10:21:35.999Z</time></trkpt><trkpt lat="44.72134269144796" lon="10.299386549428679"><ele>126.0</ele><time>2026-04-04T10:21:36.999Z</time></trkpt><trkpt lat="44.72129751371665" lon="10.29958393590562"><ele>126.0</ele><time>2026-04-04T10:21:37.999Z</time></trkpt><trkpt lat="44.721264690902984" lon="10.299768314431578"><ele>126.0</ele><time>2026-04-04T10:21:38.999Z</time></trkpt><trkpt lat="44.72122788309658" lon="10.299947351069981"><ele>126.0</ele><time>2026-04-04T10:21:39.999Z</time></trkpt><trkpt lat="44.721187514331156" lon="10.300129017604334"><ele>126.25</ele><time>2026-04-04T10:21:40.999Z</time></trkpt><trkpt lat="44.72115388980393" lon="10.300303382195427"><ele>126.5</ele><time>2026-04-04T10:21:41.999Z</time></trkpt><trkpt lat="44.72112663089202" lon="10.300460522742988"><ele>126.75</ele><time>2026-04-04T10:21:42.999Z</time></trkpt><trkpt lat="44.72109786488998" lon="10.300581339124346"><ele>127.0</ele><time>2026-04-04T10:21:43.999Z</time></trkpt><trkpt lat="44.72106173648304" lon="10.30078493777741"><ele>126.5</ele><time>2026-04-04T10:21:44.999Z</time></trkpt><trkpt lat="44.721026511855214" lon="10.30096235034983"><ele>126.0</ele><time>2026-04-04T10:21:45.999Z</time></trkpt><trkpt lat="44.720992372493725" lon="10.301123089109716"><ele>125.5</ele><time>2026-04-04T10:21:46.999Z</time></trkpt><trkpt lat="44.72095995177086" lon="10.30127010177554"><ele>125.0</ele><time>2026-04-04T10:21:47.999Z</time></trkpt><trkpt lat="44.720929828486994" lon="10.301409362970212"><ele>125.0</ele><time>2026-04-04T10:21:48.999Z</time></trkpt><trkpt lat="44.720900905597475" lon="10.301555398304364"><ele>125.0</ele><time>2026-04-04T10:21:49.999Z</time></trkpt><trkpt lat="44.72086406724439" lon="10.301711539692564"><ele>125.0</ele><time>2026-04-04T10:21:50.999Z</time></trkpt><trkpt lat="44.72083409337602" lon="10.301838679521587"><ele>125.0</ele><time>2026-04-04T10:21:51.999Z</time></trkpt><trkpt lat="44.72079680757446" lon="10.302029851392927"><ele>125.0</ele><time>2026-04-04T10:21:52.999Z</time></trkpt><trkpt lat="44.72076028606555" lon="10.302190751415537"><ele>125.0</ele><time>2026-04-04T10:21:54Z</time></trkpt><trkpt lat="44.7207281383688" lon="10.302351212220941"><ele>125.0</ele><time>2026-04-04T10:21:55Z</time></trkpt><trkpt lat="44.72069772378174" lon="10.30250584230873"><ele>125.0</ele><time>2026-04-04T10:21:56Z</time></trkpt><trkpt lat="44.72066781974914" lon="10.302657682907197"><ele>124.8</ele><time>2026-04-04T10:21:57Z</time></trkpt><trkpt lat="44.720637110691925" lon="10.30280867550114"><ele>124.6</ele><time>2026-04-04T10:21:58Z</time></trkpt><trkpt lat="44.72060060310256" lon="10.302951960101675"><ele>124.4</ele><time>2026-04-04T10:21:59Z</time></trkpt><trkpt lat="44.72057433923431" lon="10.303103155764271"><ele>124.2</ele><time>2026-04-04T10:22:00Z</time></trkpt><trkpt lat="44.720545730024554" lon="10.303241233538923"><ele>124.0</ele><time>2026-04-04T10:22:01Z</time></trkpt><trkpt lat="44.7205192888877" lon="10.303367166727954"><ele>124.00000000000001</ele><time>2026-04-04T10:22:02Z</time></trkpt><trkpt lat="44.72049536580082" lon="10.303469867562857"><ele>124.0</ele><time>2026-04-04T10:22:03Z</time></trkpt><trkpt lat="44.7204755074121" lon="10.303579365274583"><ele>124.0</ele><time>2026-04-04T10:22:04Z</time></trkpt><trkpt lat="44.7204511401499" lon="10.303670138671743"><ele>124.0</ele><time>2026-04-04T10:22:05Z</time></trkpt><trkpt lat="44.720435471453904" lon="10.303772969975446"><ele>124.00000000000001</ele><time>2026-04-04T10:22:07Z</time></trkpt><trkpt lat="44.72042520279641" lon="10.303888925088462"><ele>124.0</ele><time>2026-04-04T10:22:10Z</time></trkpt><trkpt lat="44.720393306929935" lon="10.304073560732208"><ele>124.0</ele><time>2026-04-04T10:22:12Z</time></trkpt><trkpt lat="44.720343237898994" lon="10.30416371640695"><ele>124.0</ele><time>2026-04-04T10:22:13Z</time></trkpt><trkpt lat="44.72032783725812" lon="10.304260855883772"><ele>124.0</ele><time>2026-04-04T10:22:18Z</time></trkpt><trkpt lat="44.72030935244734" lon="10.304361679294088"><ele>124.0</ele><time>2026-04-04T10:22:23Z</time></trkpt><trkpt lat="44.72028679392401" lon="10.304466918493949"><ele>124.0</ele><time>2026-04-04T10:22:27Z</time></trkpt><trkpt lat="44.72041459289849" lon="10.304568061047265"><ele>124.0</ele><time>2026-04-04T10:22:29Z</time></trkpt><trkpt lat="44.720544986943345" lon="10.3046253688633"><ele>124.0</ele><time>2026-04-04T10:22:31Z</time></trkpt><trkpt lat="44.72061825475955" lon="10.304652728056732"><ele>124.0</ele><time>2026-04-04T10:22:32Z</time></trkpt><trkpt lat="44.72069741494703" lon="10.304690516665204"><ele>124.0</ele><time>2026-04-04T10:22:33Z</time></trkpt><trkpt lat="44.72078795046187" lon="10.304728881078374"><ele>124.0</ele><time>2026-04-04T10:22:34Z</time></trkpt><trkpt lat="44.720873213516754" lon="10.304761385849215"><ele>124.0</ele><time>2026-04-04T10:22:35Z</time></trkpt><trkpt lat="44.720960631084914" lon="10.304788559925143"><ele>124.0</ele><time>2026-04-04T10:22:36Z</time></trkpt><trkpt lat="44.721055650322754" lon="10.304815992160162"><ele>124.0</ele><time>2026-04-04T10:22:37Z</time></trkpt><trkpt lat="44.72115361082092" lon="10.304851788779981"><ele>124.0</ele><time>2026-04-04T10:22:38Z</time></trkpt><trkpt lat="44.721259724987966" lon="10.304879899792033"><ele>124.0</ele><time>2026-04-04T10:22:39Z</time></trkpt><trkpt lat="44.72137472318075" lon="10.304924948597558"><ele>124.25</ele><time>2026-04-04T10:22:40Z</time></trkpt><trkpt lat="44.721489585926264" lon="10.304962048257693"><ele>124.5</ele><time>2026-04-04T10:22:41Z</time></trkpt><trkpt lat="44.72160961015241" lon="10.305010760611863"><ele>124.75</ele><time>2026-04-04T10:22:42Z</time></trkpt><trkpt lat="44.721724014580126" lon="10.30505987654258"><ele>125.0</ele><time>2026-04-04T10:22:43Z</time></trkpt><trkpt lat="44.721840291939706" lon="10.305106923801828"><ele>124.5</ele><time>2026-04-04T10:22:44Z</time></trkpt><trkpt lat="44.721958303139914" lon="10.30515568650791"><ele>124.0</ele><time>2026-04-04T10:22:45Z</time></trkpt><trkpt lat="44.7220722903391" lon="10.305197855125284"><ele>123.5</ele><time>2026-04-04T10:22:46Z</time></trkpt><trkpt lat="44.72218581060603" lon="10.305238980726662"><ele>123.0</ele><time>2026-04-04T10:22:47Z</time></trkpt><trkpt lat="44.72228975436239" lon="10.305275850407531"><ele>123.0</ele><time>2026-04-04T10:22:48Z</time></trkpt><trkpt lat="44.72238345407144" lon="10.305311390835639"><ele>123.00000000000001</ele><time>2026-04-04T10:22:49Z</time></trkpt><trkpt lat="44.72247213871589" lon="10.30535754268532"><ele>123.00000000000001</ele><time>2026-04-04T10:22:50Z</time></trkpt><trkpt lat="44.72256956346348" lon="10.305406685865332"><ele>123.0</ele><time>2026-04-04T10:22:51Z</time></trkpt><trkpt lat="44.722681650334955" lon="10.305450745862853"><ele>123.0</ele><time>2026-04-04T10:22:52Z</time></trkpt><trkpt lat="44.72279958059456" lon="10.305492998308004"><ele>123.0</ele><time>2026-04-04T10:22:53Z</time></trkpt><trkpt lat="44.722920574331305" lon="10.30553991233742"><ele>123.0</ele><time>2026-04-04T10:22:54Z</time></trkpt><trkpt lat="44.72304191288196" lon="10.30559111744773"><ele>123.0</ele><time>2026-04-04T10:22:55Z</time></trkpt><trkpt lat="44.723161267494575" lon="10.305642196858427"><ele>123.0</ele><time>2026-04-04T10:22:56Z</time></trkpt><trkpt lat="44.7233079152598" lon="10.30569709622736"><ele>123.0</ele><time>2026-04-04T10:22:57Z</time></trkpt><trkpt lat="44.72346508279356" lon="10.305749179891437"><ele>123.0</ele><time>2026-04-04T10:22:58Z</time></trkpt><trkpt lat="44.72360940280651" lon="10.305811884628412"><ele>123.0</ele><time>2026-04-04T10:22:59Z</time></trkpt><trkpt lat="44.72375830316143" lon="10.305865309213353"><ele>122.0</ele><time>2026-04-04T10:23:00Z</time></trkpt><trkpt lat="44.72392218056038" lon="10.305948220025934"><ele>121.0</ele><time>2026-04-04T10:23:00.999Z</time></trkpt><trkpt lat="44.72406392178344" lon="10.306010920971483"><ele>120.0</ele><time>2026-04-04T10:23:01.999Z</time></trkpt><trkpt lat="44.724212768356594" lon="10.306077574389674"><ele>120.0</ele><time>2026-04-04T10:23:02.999Z</time></trkpt><trkpt lat="44.724369737556515" lon="10.306154557708176"><ele>120.0</ele><time>2026-04-04T10:23:03.999Z</time></trkpt><trkpt lat="44.72453286278505" lon="10.306232951043793"><ele>120.0</ele><time>2026-04-04T10:23:04.999Z</time></trkpt><trkpt lat="44.72469429599368" lon="10.306309768148465"><ele>119.33333333333334</ele><time>2026-04-04T10:23:05.999Z</time></trkpt><trkpt lat="44.72485489452303" lon="10.306378013578767"><ele>118.66666666666667</ele><time>2026-04-04T10:23:06.999Z</time></trkpt><trkpt lat="44.72502112684948" lon="10.30644611496855"><ele>118.0</ele><time>2026-04-04T10:23:07.999Z</time></trkpt><trkpt lat="44.72518938660567" lon="10.306515825479812"><ele>118.0</ele><time>2026-04-04T10:23:08.999Z</time></trkpt><trkpt lat="44.72535552910087" lon="10.306585067212602"><ele>118.0</ele><time>2026-04-04T10:23:09.999Z</time></trkpt><trkpt lat="44.72552483122995" lon="10.306651432720514"><ele>118.0</ele><time>2026-04-04T10:23:10.999Z</time></trkpt><trkpt lat="44.72569311908115" lon="10.30671044539763"><ele>118.0</ele><time>2026-04-04T10:23:11.999Z</time></trkpt><trkpt lat="44.7258616236734" lon="10.30677163478292"><ele>118.0</ele><time>2026-04-04T10:23:12.999Z</time></trkpt><trkpt lat="44.72603243331411" lon="10.306841613857875"><ele>118.0</ele><time>2026-04-04T10:23:13.999Z</time></trkpt><trkpt lat="44.72620748617718" lon="10.306910349730622"><ele>117.66666666666667</ele><time>2026-04-04T10:23:14.999Z</time></trkpt><trkpt lat="44.72638948952315" lon="10.306978106627529"><ele>117.33333333333334</ele><time>2026-04-04T10:23:15.999Z</time></trkpt><trkpt lat="44.72657492863289" lon="10.307047878645712"><ele>117.0</ele><time>2026-04-04T10:23:16.999Z</time></trkpt><trkpt lat="44.72674588027747" lon="10.307114089415878"><ele>116.66666666666666</ele><time>2026-04-04T10:23:17.999Z</time></trkpt><trkpt lat="44.726919080524226" lon="10.30717937124684"><ele>116.33333333333333</ele><time>2026-04-04T10:23:18.999Z</time></trkpt><trkpt lat="44.72710013999961" lon="10.307251305641937"><ele>116.0</ele><time>2026-04-04T10:23:19.999Z</time></trkpt><trkpt lat="44.72728933807773" lon="10.307334567457726"><ele>116.0</ele><time>2026-04-04T10:23:20.999Z</time></trkpt><trkpt lat="44.72752942489846" lon="10.307428225907518"><ele>116.0</ele><time>2026-04-04T10:23:21.999Z</time></trkpt><trkpt lat="44.72765329002138" lon="10.307478745287899"><ele>116.0</ele><time>2026-04-04T10:23:22.999Z</time></trkpt><trkpt lat="44.7278412643626" lon="10.307553765442446"><ele>115.33333333333333</ele><time>2026-04-04T10:23:23.999Z</time></trkpt><trkpt lat="44.72802677278946" lon="10.307631959204778"><ele>114.66666666666666</ele><time>2026-04-04T10:23:24.999Z</time></trkpt><trkpt lat="44.728217377849035" lon="10.307706150562023"><ele>114.0</ele><time>2026-04-04T10:23:25.999Z</time></trkpt><trkpt lat="44.728409664800864" lon="10.30778010569949"><ele>113.33333333333334</ele><time>2026-04-04T10:23:26.999Z</time></trkpt><trkpt lat="44.728610092106926" lon="10.307861441079421"><ele>112.66666666666667</ele><time>2026-04-04T10:23:27.999Z</time></trkpt><trkpt lat="44.728811907243525" lon="10.307939627077902"><ele>112.0</ele><time>2026-04-04T10:23:28.999Z</time></trkpt><trkpt lat="44.72901102502769" lon="10.308020045100571"><ele>112.0</ele><time>2026-04-04T10:23:29.999Z</time></trkpt><trkpt lat="44.7292171291377" lon="10.308105479848052"><ele>112.0</ele><time>2026-04-04T10:23:30.999Z</time></trkpt><trkpt lat="44.729427477578255" lon="10.308202116938451"><ele>112.0</ele><time>2026-04-04T10:23:31.999Z</time></trkpt><trkpt lat="44.72964000843015" lon="10.30829564873642"><ele>112.0</ele><time>2026-04-04T10:23:32.999Z</time></trkpt><trkpt lat="44.72984911699505" lon="10.308380378445303"><ele>112.0</ele><time>2026-04-04T10:23:33.999Z</time></trkpt><trkpt lat="44.730059819746614" lon="10.308476494668254"><ele>112.0</ele><time>2026-04-04T10:23:34.999Z</time></trkpt><trkpt lat="44.730265088241204" lon="10.308567951299288"><ele>112.0</ele><time>2026-04-04T10:23:35.999Z</time></trkpt><trkpt lat="44.73046996537029" lon="10.30865889132086"><ele>112.0</ele><time>2026-04-04T10:23:36.999Z</time></trkpt><trkpt lat="44.73066815220329" lon="10.308742055631106"><ele>112.0</ele><time>2026-04-04T10:23:37.999Z</time></trkpt><trkpt lat="44.73087366389183" lon="10.308828546177487"><ele>111.33333333333334</ele><time>2026-04-04T10:23:38.999Z</time></trkpt><trkpt lat="44.73106782029803" lon="10.308911459911368"><ele>110.66666666666666</ele><time>2026-04-04T10:23:39.999Z</time></trkpt><trkpt lat="44.73124780328125" lon="10.308983300212564"><ele>110.0</ele><time>2026-04-04T10:23:40.999Z</time></trkpt><trkpt lat="44.73141208077596" lon="10.309054464276072"><ele>110.0</ele><time>2026-04-04T10:23:41.999Z</time></trkpt><trkpt lat="44.731559225972674" lon="10.309109609661245"><ele>110.0</ele><time>2026-04-04T10:23:42.999Z</time></trkpt><trkpt lat="44.73168381444986" lon="10.309157416324062"><ele>110.0</ele><time>2026-04-04T10:23:43.999Z</time></trkpt><trkpt lat="44.73178766764236" lon="10.30919227180622"><ele>110.0</ele><time>2026-04-04T10:23:44.999Z</time></trkpt><trkpt lat="44.7318874736063" lon="10.30923455075704"><ele>110.0</ele><time>2026-04-04T10:23:46.999Z</time></trkpt><trkpt lat="44.7318244820424" lon="10.309369018852793"><ele>110.0</ele><time>2026-04-04T10:23:48.999Z</time></trkpt><trkpt lat="44.73180072378357" lon="10.309551915172685"><ele>110.0</ele><time>2026-04-04T10:23:50.999Z</time></trkpt><trkpt lat="44.73176468117095" lon="10.309646673960373"><ele>110.0</ele><time>2026-04-04T10:23:51.999Z</time></trkpt><trkpt lat="44.73176412414309" lon="10.309746990116098"><ele>110.0</ele><time>2026-04-04T10:23:52.999Z</time></trkpt><trkpt lat="44.73167140756934" lon="10.309822248383444"><ele>111.0</ele><time>2026-04-04T10:23:53.999Z</time></trkpt><trkpt lat="44.73163455156377" lon="10.309907888332901"><ele>111.0</ele><time>2026-04-04T10:23:54.999Z</time></trkpt><trkpt lat="44.731630808800205" lon="10.310033252197394"><ele>111.0</ele><time>2026-04-04T10:23:56.999Z</time></trkpt></trkseg></trk></gpx>